<?xml version="1.0" encoding="UTF-8" standalone="no" ?>
<gpx xmlns="http://www.topografix.com/GPX/1/1" xmlns:xsi="http://www.w3.org/2001/XMLSchema-instance" xsi:schemaLocation="http://www.topografix.com/GPX/1/1 http://www.topografix.com/GPX/1/1/gpx.xsd" version="1.1" creator="VisuGPX - https://www.visugpx.com">
  <metadata>
    <name>2018-10-06 Bike ride-Amberieux en Dombes O via Toussieux v41k</name>
    <desc><![CDATA[2018-10-06 Bike ride-Amberieux en Dombes O via Toussieux v41k]]></desc>
  </metadata>
  <wpt lat="45.92453" lon="4.73703">
    <ele>228</ele>
    <name><![CDATA[2018-10-06 10:13 (Start)]]></name>
  </wpt>
  <wpt lat="45.92453" lon="4.73709">
    <ele>216</ele>
    <name><![CDATA[2018-10-06 10:13 (End)]]></name>
    <desc><![CDATA[Created by Google My Tracks on Android  Name: 2018-10-06 10:13 Activity type: biking Description: - Total distance: 41.32 km (25.7 mi) Total time: 2:31:42 Moving time: 2:29:20 Average speed: 16.34 km/h (10.2 mi/h) Average moving speed: 16.60 km/h (10.3 mi/h) Max speed: 56.63 km/h (35.2 mi/h) Average pace: 3:40 min/km (5:54 min/mi) Average moving pace: 3:37 min/km (5:49 min/mi) Fastest pace: 1:04 min/km (1:42 min/mi) Max elevation: 365 m (1196 ft) Min elevation: 206 m (677 ft) Elevation gain: 695 m (2280 ft) Max grade: 23 % Min grade: -30 % Recorded: 06/10/2018 10:13]]></desc>
  </wpt>
  <trk>
    <name><![CDATA[2018-10-06 10:13]]></name>
    <trkseg>
      <trkpt lat="45.92453" lon="4.73703">
        <ele>228</ele>
        <time>2018-10-06T08:13:31.582Z</time>
      </trkpt>
      <trkpt lat="45.9246" lon="4.7371">
        <ele>226</ele>
        <time>2018-10-06T08:13:50Z</time>
      </trkpt>
      <trkpt lat="45.92461" lon="4.73709">
        <ele>225</ele>
        <time>2018-10-06T08:13:51Z</time>
      </trkpt>
      <trkpt lat="45.92465" lon="4.737">
        <ele>223</ele>
        <time>2018-10-06T08:13:55Z</time>
      </trkpt>
      <trkpt lat="45.92466" lon="4.73696">
        <ele>220</ele>
        <time>2018-10-06T08:13:56Z</time>
      </trkpt>
      <trkpt lat="45.92469" lon="4.73685">
        <ele>221</ele>
        <time>2018-10-06T08:13:59Z</time>
      </trkpt>
      <trkpt lat="45.9247" lon="4.73681">
        <ele>218</ele>
        <time>2018-10-06T08:14:00Z</time>
      </trkpt>
      <trkpt lat="45.92471" lon="4.73676">
        <ele>218</ele>
        <time>2018-10-06T08:14:01Z</time>
      </trkpt>
      <trkpt lat="45.92474" lon="4.73663">
        <ele>218</ele>
        <time>2018-10-06T08:14:02Z</time>
      </trkpt>
      <trkpt lat="45.92475" lon="4.73653">
        <ele>220</ele>
        <time>2018-10-06T08:14:04Z</time>
      </trkpt>
      <trkpt lat="45.92476" lon="4.7365">
        <ele>220</ele>
        <time>2018-10-06T08:14:05Z</time>
      </trkpt>
      <trkpt lat="45.92482" lon="4.73642">
        <ele>219</ele>
        <time>2018-10-06T08:14:09Z</time>
      </trkpt>
      <trkpt lat="45.9249" lon="4.73641">
        <ele>219</ele>
        <time>2018-10-06T08:14:10Z</time>
      </trkpt>
      <trkpt lat="45.92498" lon="4.73642">
        <ele>219</ele>
        <time>2018-10-06T08:14:12Z</time>
      </trkpt>
      <trkpt lat="45.92502" lon="4.73641">
        <ele>219</ele>
        <time>2018-10-06T08:14:13Z</time>
      </trkpt>
      <trkpt lat="45.92506" lon="4.73641">
        <ele>219</ele>
        <time>2018-10-06T08:14:14Z</time>
      </trkpt>
      <trkpt lat="45.92511" lon="4.7364">
        <ele>219</ele>
        <time>2018-10-06T08:14:15Z</time>
      </trkpt>
      <trkpt lat="45.92519" lon="4.73641">
        <ele>220</ele>
        <time>2018-10-06T08:14:17Z</time>
      </trkpt>
      <trkpt lat="45.92523" lon="4.73641">
        <ele>220</ele>
        <time>2018-10-06T08:14:18Z</time>
      </trkpt>
      <trkpt lat="45.92532" lon="4.7364">
        <ele>222</ele>
        <time>2018-10-06T08:14:20Z</time>
      </trkpt>
      <trkpt lat="45.92536" lon="4.7364">
        <ele>223</ele>
        <time>2018-10-06T08:14:21Z</time>
      </trkpt>
      <trkpt lat="45.9254" lon="4.73639">
        <ele>223</ele>
        <time>2018-10-06T08:14:22Z</time>
      </trkpt>
      <trkpt lat="45.92545" lon="4.73638">
        <ele>223</ele>
        <time>2018-10-06T08:14:23Z</time>
      </trkpt>
      <trkpt lat="45.92553" lon="4.73636">
        <ele>223</ele>
        <time>2018-10-06T08:14:25Z</time>
      </trkpt>
      <trkpt lat="45.92557" lon="4.73635">
        <ele>223</ele>
        <time>2018-10-06T08:14:26Z</time>
      </trkpt>
      <trkpt lat="45.92565" lon="4.73633">
        <ele>223</ele>
        <time>2018-10-06T08:14:28Z</time>
      </trkpt>
      <trkpt lat="45.9257" lon="4.73632">
        <ele>224</ele>
        <time>2018-10-06T08:14:29Z</time>
      </trkpt>
      <trkpt lat="45.92578" lon="4.73629">
        <ele>224</ele>
        <time>2018-10-06T08:14:31Z</time>
      </trkpt>
      <trkpt lat="45.92584" lon="4.73628">
        <ele>224</ele>
        <time>2018-10-06T08:14:32Z</time>
      </trkpt>
      <trkpt lat="45.92589" lon="4.73629">
        <ele>224</ele>
        <time>2018-10-06T08:14:33Z</time>
      </trkpt>
      <trkpt lat="45.92593" lon="4.73628">
        <ele>224</ele>
        <time>2018-10-06T08:14:34Z</time>
      </trkpt>
      <trkpt lat="45.92598" lon="4.73629">
        <ele>226</ele>
        <time>2018-10-06T08:14:35Z</time>
      </trkpt>
      <trkpt lat="45.92604" lon="4.73628">
        <ele>226</ele>
        <time>2018-10-06T08:14:36Z</time>
      </trkpt>
      <trkpt lat="45.92609" lon="4.73629">
        <ele>226</ele>
        <time>2018-10-06T08:14:37Z</time>
      </trkpt>
      <trkpt lat="45.92615" lon="4.73633">
        <ele>226</ele>
        <time>2018-10-06T08:14:38Z</time>
      </trkpt>
      <trkpt lat="45.92622" lon="4.73638">
        <ele>227</ele>
        <time>2018-10-06T08:14:40Z</time>
      </trkpt>
      <trkpt lat="45.92625" lon="4.73642">
        <ele>227</ele>
        <time>2018-10-06T08:14:41Z</time>
      </trkpt>
      <trkpt lat="45.92629" lon="4.73647">
        <ele>228</ele>
        <time>2018-10-06T08:14:42Z</time>
      </trkpt>
      <trkpt lat="45.92631" lon="4.73653">
        <ele>228</ele>
        <time>2018-10-06T08:14:43Z</time>
      </trkpt>
      <trkpt lat="45.92634" lon="4.73659">
        <ele>229</ele>
        <time>2018-10-06T08:14:44Z</time>
      </trkpt>
      <trkpt lat="45.92637" lon="4.73665">
        <ele>229</ele>
        <time>2018-10-06T08:14:45Z</time>
      </trkpt>
      <trkpt lat="45.9264" lon="4.7367">
        <ele>229</ele>
        <time>2018-10-06T08:14:46Z</time>
      </trkpt>
      <trkpt lat="45.92643" lon="4.73676">
        <ele>230</ele>
        <time>2018-10-06T08:14:47Z</time>
      </trkpt>
      <trkpt lat="45.92646" lon="4.73682">
        <ele>229</ele>
        <time>2018-10-06T08:14:48Z</time>
      </trkpt>
      <trkpt lat="45.9265" lon="4.73687">
        <ele>230</ele>
        <time>2018-10-06T08:14:49Z</time>
      </trkpt>
      <trkpt lat="45.92654" lon="4.73691">
        <ele>230</ele>
        <time>2018-10-06T08:14:50Z</time>
      </trkpt>
      <trkpt lat="45.92658" lon="4.73695">
        <ele>229</ele>
        <time>2018-10-06T08:14:51Z</time>
      </trkpt>
      <trkpt lat="45.92663" lon="4.737">
        <ele>230</ele>
        <time>2018-10-06T08:14:52Z</time>
      </trkpt>
      <trkpt lat="45.92668" lon="4.73702">
        <ele>230</ele>
        <time>2018-10-06T08:14:53Z</time>
      </trkpt>
      <trkpt lat="45.92672" lon="4.73705">
        <ele>229</ele>
        <time>2018-10-06T08:14:54Z</time>
      </trkpt>
      <trkpt lat="45.92677" lon="4.73706">
        <ele>228</ele>
        <time>2018-10-06T08:14:55Z</time>
      </trkpt>
      <trkpt lat="45.92682" lon="4.73711">
        <ele>229</ele>
        <time>2018-10-06T08:14:56Z</time>
      </trkpt>
      <trkpt lat="45.92687" lon="4.73711">
        <ele>229</ele>
        <time>2018-10-06T08:14:57Z</time>
      </trkpt>
      <trkpt lat="45.92692" lon="4.73714">
        <ele>228</ele>
        <time>2018-10-06T08:14:58Z</time>
      </trkpt>
      <trkpt lat="45.92698" lon="4.73715">
        <ele>228</ele>
        <time>2018-10-06T08:14:59Z</time>
      </trkpt>
      <trkpt lat="45.92703" lon="4.73716">
        <ele>229</ele>
        <time>2018-10-06T08:15:00Z</time>
      </trkpt>
      <trkpt lat="45.92708" lon="4.73716">
        <ele>229</ele>
        <time>2018-10-06T08:15:01Z</time>
      </trkpt>
      <trkpt lat="45.92714" lon="4.73718">
        <ele>229</ele>
        <time>2018-10-06T08:15:02Z</time>
      </trkpt>
      <trkpt lat="45.92719" lon="4.7372">
        <ele>229</ele>
        <time>2018-10-06T08:15:03Z</time>
      </trkpt>
      <trkpt lat="45.92725" lon="4.73721">
        <ele>229</ele>
        <time>2018-10-06T08:15:04Z</time>
      </trkpt>
      <trkpt lat="45.92731" lon="4.73723">
        <ele>229</ele>
        <time>2018-10-06T08:15:05Z</time>
      </trkpt>
      <trkpt lat="45.92737" lon="4.73724">
        <ele>229</ele>
        <time>2018-10-06T08:15:06Z</time>
      </trkpt>
      <trkpt lat="45.92742" lon="4.73725">
        <ele>229</ele>
        <time>2018-10-06T08:15:07Z</time>
      </trkpt>
      <trkpt lat="45.92748" lon="4.73726">
        <ele>228</ele>
        <time>2018-10-06T08:15:08Z</time>
      </trkpt>
      <trkpt lat="45.92751" lon="4.73728">
        <ele>227</ele>
        <time>2018-10-06T08:15:09Z</time>
      </trkpt>
      <trkpt lat="45.92759" lon="4.73731">
        <ele>228</ele>
        <time>2018-10-06T08:15:11Z</time>
      </trkpt>
      <trkpt lat="45.92763" lon="4.73733">
        <ele>228</ele>
        <time>2018-10-06T08:15:12Z</time>
      </trkpt>
      <trkpt lat="45.9277" lon="4.73735">
        <ele>229</ele>
        <time>2018-10-06T08:15:15Z</time>
      </trkpt>
      <trkpt lat="45.92773" lon="4.73736">
        <ele>227</ele>
        <time>2018-10-06T08:15:16Z</time>
      </trkpt>
      <trkpt lat="45.92781" lon="4.73741">
        <ele>230</ele>
        <time>2018-10-06T08:15:20Z</time>
      </trkpt>
      <trkpt lat="45.92786" lon="4.73749">
        <ele>231</ele>
        <time>2018-10-06T08:15:21Z</time>
      </trkpt>
      <trkpt lat="45.92793" lon="4.73756">
        <ele>229</ele>
        <time>2018-10-06T08:15:23Z</time>
      </trkpt>
      <trkpt lat="45.92797" lon="4.73759">
        <ele>229</ele>
        <time>2018-10-06T08:15:24Z</time>
      </trkpt>
      <trkpt lat="45.92802" lon="4.73762">
        <ele>229</ele>
        <time>2018-10-06T08:15:25Z</time>
      </trkpt>
      <trkpt lat="45.92806" lon="4.73764">
        <ele>228</ele>
        <time>2018-10-06T08:15:26Z</time>
      </trkpt>
      <trkpt lat="45.92811" lon="4.73766">
        <ele>228</ele>
        <time>2018-10-06T08:15:27Z</time>
      </trkpt>
      <trkpt lat="45.92816" lon="4.73769">
        <ele>228</ele>
        <time>2018-10-06T08:15:28Z</time>
      </trkpt>
      <trkpt lat="45.92821" lon="4.73772">
        <ele>228</ele>
        <time>2018-10-06T08:15:29Z</time>
      </trkpt>
      <trkpt lat="45.92827" lon="4.73775">
        <ele>228</ele>
        <time>2018-10-06T08:15:30Z</time>
      </trkpt>
      <trkpt lat="45.92833" lon="4.73779">
        <ele>229</ele>
        <time>2018-10-06T08:15:31Z</time>
      </trkpt>
      <trkpt lat="45.92838" lon="4.73782">
        <ele>229</ele>
        <time>2018-10-06T08:15:32Z</time>
      </trkpt>
      <trkpt lat="45.92843" lon="4.73786">
        <ele>229</ele>
        <time>2018-10-06T08:15:33Z</time>
      </trkpt>
      <trkpt lat="45.92848" lon="4.73789">
        <ele>229</ele>
        <time>2018-10-06T08:15:34Z</time>
      </trkpt>
      <trkpt lat="45.92852" lon="4.73794">
        <ele>229</ele>
        <time>2018-10-06T08:15:35Z</time>
      </trkpt>
      <trkpt lat="45.92855" lon="4.73799">
        <ele>229</ele>
        <time>2018-10-06T08:15:36Z</time>
      </trkpt>
      <trkpt lat="45.92858" lon="4.73805">
        <ele>229</ele>
        <time>2018-10-06T08:15:37Z</time>
      </trkpt>
      <trkpt lat="45.92859" lon="4.73811">
        <ele>229</ele>
        <time>2018-10-06T08:15:38Z</time>
      </trkpt>
      <trkpt lat="45.92861" lon="4.73818">
        <ele>229</ele>
        <time>2018-10-06T08:15:39Z</time>
      </trkpt>
      <trkpt lat="45.92863" lon="4.73825">
        <ele>229</ele>
        <time>2018-10-06T08:15:40Z</time>
      </trkpt>
      <trkpt lat="45.92865" lon="4.73832">
        <ele>228</ele>
        <time>2018-10-06T08:15:41Z</time>
      </trkpt>
      <trkpt lat="45.92866" lon="4.73838">
        <ele>229</ele>
        <time>2018-10-06T08:15:42Z</time>
      </trkpt>
      <trkpt lat="45.92868" lon="4.73845">
        <ele>229</ele>
        <time>2018-10-06T08:15:43Z</time>
      </trkpt>
      <trkpt lat="45.9287" lon="4.73852">
        <ele>229</ele>
        <time>2018-10-06T08:15:44Z</time>
      </trkpt>
      <trkpt lat="45.92872" lon="4.73861">
        <ele>229</ele>
        <time>2018-10-06T08:15:45Z</time>
      </trkpt>
      <trkpt lat="45.92874" lon="4.73869">
        <ele>229</ele>
        <time>2018-10-06T08:15:46Z</time>
      </trkpt>
      <trkpt lat="45.92875" lon="4.73875">
        <ele>226</ele>
        <time>2018-10-06T08:15:47Z</time>
      </trkpt>
      <trkpt lat="45.92873" lon="4.73884">
        <ele>224</ele>
        <time>2018-10-06T08:15:48Z</time>
      </trkpt>
      <trkpt lat="45.92874" lon="4.73892">
        <ele>224</ele>
        <time>2018-10-06T08:15:49Z</time>
      </trkpt>
      <trkpt lat="45.92875" lon="4.73899">
        <ele>225</ele>
        <time>2018-10-06T08:15:50Z</time>
      </trkpt>
      <trkpt lat="45.92876" lon="4.73907">
        <ele>225</ele>
        <time>2018-10-06T08:15:51Z</time>
      </trkpt>
      <trkpt lat="45.92877" lon="4.73914">
        <ele>225</ele>
        <time>2018-10-06T08:15:52Z</time>
      </trkpt>
      <trkpt lat="45.92878" lon="4.73922">
        <ele>224</ele>
        <time>2018-10-06T08:15:53Z</time>
      </trkpt>
      <trkpt lat="45.9288" lon="4.73928">
        <ele>224</ele>
        <time>2018-10-06T08:15:54Z</time>
      </trkpt>
      <trkpt lat="45.92882" lon="4.73935">
        <ele>223</ele>
        <time>2018-10-06T08:15:55Z</time>
      </trkpt>
      <trkpt lat="45.92882" lon="4.73942">
        <ele>223</ele>
        <time>2018-10-06T08:15:56Z</time>
      </trkpt>
      <trkpt lat="45.92882" lon="4.73949">
        <ele>223</ele>
        <time>2018-10-06T08:15:57Z</time>
      </trkpt>
      <trkpt lat="45.92882" lon="4.73957">
        <ele>223</ele>
        <time>2018-10-06T08:15:58Z</time>
      </trkpt>
      <trkpt lat="45.92882" lon="4.73963">
        <ele>224</ele>
        <time>2018-10-06T08:15:59Z</time>
      </trkpt>
      <trkpt lat="45.92882" lon="4.7397">
        <ele>225</ele>
        <time>2018-10-06T08:16:00Z</time>
      </trkpt>
      <trkpt lat="45.92882" lon="4.73983">
        <ele>224</ele>
        <time>2018-10-06T08:16:02Z</time>
      </trkpt>
      <trkpt lat="45.9288" lon="4.73989">
        <ele>224</ele>
        <time>2018-10-06T08:16:03Z</time>
      </trkpt>
      <trkpt lat="45.92879" lon="4.73996">
        <ele>224</ele>
        <time>2018-10-06T08:16:04Z</time>
      </trkpt>
      <trkpt lat="45.92877" lon="4.74002">
        <ele>224</ele>
        <time>2018-10-06T08:16:05Z</time>
      </trkpt>
      <trkpt lat="45.92875" lon="4.74009">
        <ele>223</ele>
        <time>2018-10-06T08:16:06Z</time>
      </trkpt>
      <trkpt lat="45.92873" lon="4.74016">
        <ele>223</ele>
        <time>2018-10-06T08:16:07Z</time>
      </trkpt>
      <trkpt lat="45.92872" lon="4.74023">
        <ele>224</ele>
        <time>2018-10-06T08:16:08Z</time>
      </trkpt>
      <trkpt lat="45.9287" lon="4.74029">
        <ele>223</ele>
        <time>2018-10-06T08:16:09Z</time>
      </trkpt>
      <trkpt lat="45.92866" lon="4.74035">
        <ele>223</ele>
        <time>2018-10-06T08:16:10Z</time>
      </trkpt>
      <trkpt lat="45.92863" lon="4.74041">
        <ele>223</ele>
        <time>2018-10-06T08:16:11Z</time>
      </trkpt>
      <trkpt lat="45.9286" lon="4.74049">
        <ele>223</ele>
        <time>2018-10-06T08:16:12Z</time>
      </trkpt>
      <trkpt lat="45.92856" lon="4.74053">
        <ele>224</ele>
        <time>2018-10-06T08:16:13Z</time>
      </trkpt>
      <trkpt lat="45.92851" lon="4.74058">
        <ele>224</ele>
        <time>2018-10-06T08:16:14Z</time>
      </trkpt>
      <trkpt lat="45.92847" lon="4.74063">
        <ele>225</ele>
        <time>2018-10-06T08:16:15Z</time>
      </trkpt>
      <trkpt lat="45.92843" lon="4.74068">
        <ele>225</ele>
        <time>2018-10-06T08:16:16Z</time>
      </trkpt>
      <trkpt lat="45.92839" lon="4.74074">
        <ele>225</ele>
        <time>2018-10-06T08:16:17Z</time>
      </trkpt>
      <trkpt lat="45.92834" lon="4.74079">
        <ele>224</ele>
        <time>2018-10-06T08:16:18Z</time>
      </trkpt>
      <trkpt lat="45.9283" lon="4.74084">
        <ele>224</ele>
        <time>2018-10-06T08:16:19Z</time>
      </trkpt>
      <trkpt lat="45.92825" lon="4.74087">
        <ele>223</ele>
        <time>2018-10-06T08:16:20Z</time>
      </trkpt>
      <trkpt lat="45.92821" lon="4.74091">
        <ele>223</ele>
        <time>2018-10-06T08:16:21Z</time>
      </trkpt>
      <trkpt lat="45.92817" lon="4.74095">
        <ele>223</ele>
        <time>2018-10-06T08:16:22Z</time>
      </trkpt>
      <trkpt lat="45.92813" lon="4.741">
        <ele>223</ele>
        <time>2018-10-06T08:16:23Z</time>
      </trkpt>
      <trkpt lat="45.92809" lon="4.74105">
        <ele>223</ele>
        <time>2018-10-06T08:16:24Z</time>
      </trkpt>
      <trkpt lat="45.92806" lon="4.74108">
        <ele>223</ele>
        <time>2018-10-06T08:16:25Z</time>
      </trkpt>
      <trkpt lat="45.92802" lon="4.74113">
        <ele>223</ele>
        <time>2018-10-06T08:16:26Z</time>
      </trkpt>
      <trkpt lat="45.92798" lon="4.74116">
        <ele>222</ele>
        <time>2018-10-06T08:16:27Z</time>
      </trkpt>
      <trkpt lat="45.92794" lon="4.74121">
        <ele>222</ele>
        <time>2018-10-06T08:16:28Z</time>
      </trkpt>
      <trkpt lat="45.92791" lon="4.74125">
        <ele>222</ele>
        <time>2018-10-06T08:16:29Z</time>
      </trkpt>
      <trkpt lat="45.92787" lon="4.74129">
        <ele>223</ele>
        <time>2018-10-06T08:16:30Z</time>
      </trkpt>
      <trkpt lat="45.92783" lon="4.74133">
        <ele>223</ele>
        <time>2018-10-06T08:16:31Z</time>
      </trkpt>
      <trkpt lat="45.92779" lon="4.74137">
        <ele>223</ele>
        <time>2018-10-06T08:16:32Z</time>
      </trkpt>
      <trkpt lat="45.92775" lon="4.74142">
        <ele>224</ele>
        <time>2018-10-06T08:16:33Z</time>
      </trkpt>
      <trkpt lat="45.9277" lon="4.74145">
        <ele>225</ele>
        <time>2018-10-06T08:16:34Z</time>
      </trkpt>
      <trkpt lat="45.92766" lon="4.7415">
        <ele>225</ele>
        <time>2018-10-06T08:16:35Z</time>
      </trkpt>
      <trkpt lat="45.92762" lon="4.74156">
        <ele>226</ele>
        <time>2018-10-06T08:16:36Z</time>
      </trkpt>
      <trkpt lat="45.92758" lon="4.74161">
        <ele>226</ele>
        <time>2018-10-06T08:16:37Z</time>
      </trkpt>
      <trkpt lat="45.92754" lon="4.74165">
        <ele>226</ele>
        <time>2018-10-06T08:16:38Z</time>
      </trkpt>
      <trkpt lat="45.9275" lon="4.7417">
        <ele>227</ele>
        <time>2018-10-06T08:16:39Z</time>
      </trkpt>
      <trkpt lat="45.92746" lon="4.74175">
        <ele>227</ele>
        <time>2018-10-06T08:16:40Z</time>
      </trkpt>
      <trkpt lat="45.92742" lon="4.7418">
        <ele>228</ele>
        <time>2018-10-06T08:16:41Z</time>
      </trkpt>
      <trkpt lat="45.92738" lon="4.74185">
        <ele>228</ele>
        <time>2018-10-06T08:16:42Z</time>
      </trkpt>
      <trkpt lat="45.92734" lon="4.7419">
        <ele>228</ele>
        <time>2018-10-06T08:16:43Z</time>
      </trkpt>
      <trkpt lat="45.9273" lon="4.74195">
        <ele>228</ele>
        <time>2018-10-06T08:16:44Z</time>
      </trkpt>
      <trkpt lat="45.92726" lon="4.742">
        <ele>228</ele>
        <time>2018-10-06T08:16:45Z</time>
      </trkpt>
      <trkpt lat="45.92723" lon="4.74205">
        <ele>228</ele>
        <time>2018-10-06T08:16:46Z</time>
      </trkpt>
      <trkpt lat="45.9272" lon="4.7421">
        <ele>227</ele>
        <time>2018-10-06T08:16:47Z</time>
      </trkpt>
      <trkpt lat="45.92716" lon="4.74216">
        <ele>228</ele>
        <time>2018-10-06T08:16:48Z</time>
      </trkpt>
      <trkpt lat="45.92713" lon="4.74223">
        <ele>227</ele>
        <time>2018-10-06T08:16:49Z</time>
      </trkpt>
      <trkpt lat="45.92709" lon="4.74229">
        <ele>227</ele>
        <time>2018-10-06T08:16:50Z</time>
      </trkpt>
      <trkpt lat="45.92705" lon="4.74235">
        <ele>228</ele>
        <time>2018-10-06T08:16:51Z</time>
      </trkpt>
      <trkpt lat="45.92701" lon="4.7424">
        <ele>227</ele>
        <time>2018-10-06T08:16:52Z</time>
      </trkpt>
      <trkpt lat="45.92698" lon="4.74246">
        <ele>228</ele>
        <time>2018-10-06T08:16:53Z</time>
      </trkpt>
      <trkpt lat="45.92694" lon="4.74252">
        <ele>228</ele>
        <time>2018-10-06T08:16:54Z</time>
      </trkpt>
      <trkpt lat="45.92691" lon="4.74257">
        <ele>228</ele>
        <time>2018-10-06T08:16:55Z</time>
      </trkpt>
      <trkpt lat="45.92688" lon="4.74263">
        <ele>227</ele>
        <time>2018-10-06T08:16:56Z</time>
      </trkpt>
      <trkpt lat="45.92684" lon="4.74268">
        <ele>228</ele>
        <time>2018-10-06T08:16:57Z</time>
      </trkpt>
      <trkpt lat="45.92678" lon="4.74278">
        <ele>227</ele>
        <time>2018-10-06T08:16:59Z</time>
      </trkpt>
      <trkpt lat="45.92675" lon="4.74283">
        <ele>227</ele>
        <time>2018-10-06T08:17:00Z</time>
      </trkpt>
      <trkpt lat="45.92674" lon="4.74294">
        <ele>227</ele>
        <time>2018-10-06T08:17:01Z</time>
      </trkpt>
      <trkpt lat="45.9267" lon="4.74299">
        <ele>227</ele>
        <time>2018-10-06T08:17:02Z</time>
      </trkpt>
      <trkpt lat="45.92666" lon="4.74305">
        <ele>227</ele>
        <time>2018-10-06T08:17:03Z</time>
      </trkpt>
      <trkpt lat="45.92663" lon="4.7431">
        <ele>227</ele>
        <time>2018-10-06T08:17:04Z</time>
      </trkpt>
      <trkpt lat="45.92659" lon="4.74316">
        <ele>227</ele>
        <time>2018-10-06T08:17:05Z</time>
      </trkpt>
      <trkpt lat="45.92656" lon="4.74321">
        <ele>227</ele>
        <time>2018-10-06T08:17:06Z</time>
      </trkpt>
      <trkpt lat="45.92653" lon="4.74327">
        <ele>226</ele>
        <time>2018-10-06T08:17:07Z</time>
      </trkpt>
      <trkpt lat="45.9265" lon="4.74333">
        <ele>226</ele>
        <time>2018-10-06T08:17:08Z</time>
      </trkpt>
      <trkpt lat="45.92647" lon="4.74338">
        <ele>226</ele>
        <time>2018-10-06T08:17:09Z</time>
      </trkpt>
      <trkpt lat="45.92645" lon="4.74343">
        <ele>225</ele>
        <time>2018-10-06T08:17:10Z</time>
      </trkpt>
      <trkpt lat="45.92639" lon="4.74352">
        <ele>224</ele>
        <time>2018-10-06T08:17:12Z</time>
      </trkpt>
      <trkpt lat="45.92635" lon="4.74357">
        <ele>225</ele>
        <time>2018-10-06T08:17:13Z</time>
      </trkpt>
      <trkpt lat="45.92633" lon="4.74364">
        <ele>223</ele>
        <time>2018-10-06T08:17:14Z</time>
      </trkpt>
      <trkpt lat="45.9263" lon="4.74369">
        <ele>222</ele>
        <time>2018-10-06T08:17:15Z</time>
      </trkpt>
      <trkpt lat="45.92625" lon="4.74379">
        <ele>223</ele>
        <time>2018-10-06T08:17:17Z</time>
      </trkpt>
      <trkpt lat="45.92622" lon="4.74385">
        <ele>223</ele>
        <time>2018-10-06T08:17:18Z</time>
      </trkpt>
      <trkpt lat="45.92619" lon="4.74391">
        <ele>223</ele>
        <time>2018-10-06T08:17:19Z</time>
      </trkpt>
      <trkpt lat="45.92615" lon="4.74397">
        <ele>223</ele>
        <time>2018-10-06T08:17:20Z</time>
      </trkpt>
      <trkpt lat="45.92612" lon="4.74403">
        <ele>223</ele>
        <time>2018-10-06T08:17:21Z</time>
      </trkpt>
      <trkpt lat="45.92609" lon="4.7441">
        <ele>223</ele>
        <time>2018-10-06T08:17:22Z</time>
      </trkpt>
      <trkpt lat="45.92605" lon="4.74415">
        <ele>223</ele>
        <time>2018-10-06T08:17:23Z</time>
      </trkpt>
      <trkpt lat="45.92601" lon="4.74421">
        <ele>224</ele>
        <time>2018-10-06T08:17:24Z</time>
      </trkpt>
      <trkpt lat="45.92599" lon="4.74428">
        <ele>225</ele>
        <time>2018-10-06T08:17:25Z</time>
      </trkpt>
      <trkpt lat="45.92595" lon="4.74434">
        <ele>225</ele>
        <time>2018-10-06T08:17:26Z</time>
      </trkpt>
      <trkpt lat="45.92591" lon="4.7444">
        <ele>225</ele>
        <time>2018-10-06T08:17:27Z</time>
      </trkpt>
      <trkpt lat="45.92587" lon="4.74448">
        <ele>224</ele>
        <time>2018-10-06T08:17:28Z</time>
      </trkpt>
      <trkpt lat="45.92584" lon="4.74455">
        <ele>224</ele>
        <time>2018-10-06T08:17:29Z</time>
      </trkpt>
      <trkpt lat="45.9258" lon="4.7446">
        <ele>225</ele>
        <time>2018-10-06T08:17:30Z</time>
      </trkpt>
      <trkpt lat="45.92576" lon="4.74465">
        <ele>224</ele>
        <time>2018-10-06T08:17:31Z</time>
      </trkpt>
      <trkpt lat="45.92573" lon="4.74471">
        <ele>223</ele>
        <time>2018-10-06T08:17:32Z</time>
      </trkpt>
      <trkpt lat="45.92569" lon="4.74477">
        <ele>223</ele>
        <time>2018-10-06T08:17:33Z</time>
      </trkpt>
      <trkpt lat="45.92565" lon="4.74483">
        <ele>222</ele>
        <time>2018-10-06T08:17:34Z</time>
      </trkpt>
      <trkpt lat="45.92561" lon="4.7449">
        <ele>222</ele>
        <time>2018-10-06T08:17:35Z</time>
      </trkpt>
      <trkpt lat="45.92558" lon="4.74495">
        <ele>223</ele>
        <time>2018-10-06T08:17:36Z</time>
      </trkpt>
      <trkpt lat="45.92554" lon="4.74501">
        <ele>223</ele>
        <time>2018-10-06T08:17:37Z</time>
      </trkpt>
      <trkpt lat="45.92551" lon="4.74507">
        <ele>224</ele>
        <time>2018-10-06T08:17:38Z</time>
      </trkpt>
      <trkpt lat="45.92547" lon="4.74513">
        <ele>224</ele>
        <time>2018-10-06T08:17:39Z</time>
      </trkpt>
      <trkpt lat="45.92544" lon="4.7452">
        <ele>224</ele>
        <time>2018-10-06T08:17:40Z</time>
      </trkpt>
      <trkpt lat="45.9254" lon="4.74527">
        <ele>224</ele>
        <time>2018-10-06T08:17:41Z</time>
      </trkpt>
      <trkpt lat="45.92537" lon="4.74535">
        <ele>225</ele>
        <time>2018-10-06T08:17:42Z</time>
      </trkpt>
      <trkpt lat="45.92533" lon="4.74542">
        <ele>225</ele>
        <time>2018-10-06T08:17:43Z</time>
      </trkpt>
      <trkpt lat="45.92528" lon="4.74547">
        <ele>225</ele>
        <time>2018-10-06T08:17:44Z</time>
      </trkpt>
      <trkpt lat="45.92524" lon="4.74553">
        <ele>225</ele>
        <time>2018-10-06T08:17:45Z</time>
      </trkpt>
      <trkpt lat="45.9252" lon="4.74559">
        <ele>225</ele>
        <time>2018-10-06T08:17:46Z</time>
      </trkpt>
      <trkpt lat="45.92517" lon="4.74564">
        <ele>226</ele>
        <time>2018-10-06T08:17:47Z</time>
      </trkpt>
      <trkpt lat="45.92513" lon="4.74569">
        <ele>225</ele>
        <time>2018-10-06T08:17:48Z</time>
      </trkpt>
      <trkpt lat="45.9251" lon="4.74574">
        <ele>226</ele>
        <time>2018-10-06T08:17:49Z</time>
      </trkpt>
      <trkpt lat="45.92506" lon="4.74579">
        <ele>226</ele>
        <time>2018-10-06T08:17:50Z</time>
      </trkpt>
      <trkpt lat="45.92502" lon="4.74583">
        <ele>226</ele>
        <time>2018-10-06T08:17:51Z</time>
      </trkpt>
      <trkpt lat="45.92499" lon="4.7459">
        <ele>226</ele>
        <time>2018-10-06T08:17:52Z</time>
      </trkpt>
      <trkpt lat="45.92495" lon="4.74596">
        <ele>225</ele>
        <time>2018-10-06T08:17:53Z</time>
      </trkpt>
      <trkpt lat="45.92491" lon="4.74601">
        <ele>225</ele>
        <time>2018-10-06T08:17:54Z</time>
      </trkpt>
      <trkpt lat="45.92486" lon="4.74605">
        <ele>226</ele>
        <time>2018-10-06T08:17:55Z</time>
      </trkpt>
      <trkpt lat="45.92482" lon="4.74608">
        <ele>225</ele>
        <time>2018-10-06T08:17:56Z</time>
      </trkpt>
      <trkpt lat="45.92479" lon="4.74613">
        <ele>225</ele>
        <time>2018-10-06T08:17:57Z</time>
      </trkpt>
      <trkpt lat="45.92475" lon="4.74618">
        <ele>226</ele>
        <time>2018-10-06T08:17:58Z</time>
      </trkpt>
      <trkpt lat="45.92471" lon="4.74624">
        <ele>226</ele>
        <time>2018-10-06T08:17:59Z</time>
      </trkpt>
      <trkpt lat="45.92468" lon="4.74629">
        <ele>227</ele>
        <time>2018-10-06T08:18:00Z</time>
      </trkpt>
      <trkpt lat="45.92464" lon="4.74635">
        <ele>226</ele>
        <time>2018-10-06T08:18:01Z</time>
      </trkpt>
      <trkpt lat="45.92461" lon="4.74641">
        <ele>228</ele>
        <time>2018-10-06T08:18:02Z</time>
      </trkpt>
      <trkpt lat="45.92457" lon="4.74647">
        <ele>227</ele>
        <time>2018-10-06T08:18:03Z</time>
      </trkpt>
      <trkpt lat="45.92454" lon="4.74653">
        <ele>227</ele>
        <time>2018-10-06T08:18:04Z</time>
      </trkpt>
      <trkpt lat="45.9245" lon="4.7466">
        <ele>227</ele>
        <time>2018-10-06T08:18:05Z</time>
      </trkpt>
      <trkpt lat="45.92446" lon="4.74665">
        <ele>227</ele>
        <time>2018-10-06T08:18:06Z</time>
      </trkpt>
      <trkpt lat="45.92444" lon="4.74673">
        <ele>223</ele>
        <time>2018-10-06T08:18:07Z</time>
      </trkpt>
      <trkpt lat="45.92441" lon="4.74678">
        <ele>225</ele>
        <time>2018-10-06T08:18:08Z</time>
      </trkpt>
      <trkpt lat="45.92438" lon="4.74683">
        <ele>226</ele>
        <time>2018-10-06T08:18:09Z</time>
      </trkpt>
      <trkpt lat="45.92435" lon="4.74689">
        <ele>227</ele>
        <time>2018-10-06T08:18:10Z</time>
      </trkpt>
      <trkpt lat="45.92432" lon="4.74696">
        <ele>227</ele>
        <time>2018-10-06T08:18:11Z</time>
      </trkpt>
      <trkpt lat="45.92429" lon="4.74703">
        <ele>227</ele>
        <time>2018-10-06T08:18:12Z</time>
      </trkpt>
      <trkpt lat="45.92428" lon="4.74712">
        <ele>225</ele>
        <time>2018-10-06T08:18:13Z</time>
      </trkpt>
      <trkpt lat="45.92426" lon="4.7472">
        <ele>224</ele>
        <time>2018-10-06T08:18:14Z</time>
      </trkpt>
      <trkpt lat="45.92423" lon="4.74727">
        <ele>224</ele>
        <time>2018-10-06T08:18:15Z</time>
      </trkpt>
      <trkpt lat="45.92421" lon="4.74735">
        <ele>224</ele>
        <time>2018-10-06T08:18:16Z</time>
      </trkpt>
      <trkpt lat="45.92419" lon="4.74742">
        <ele>224</ele>
        <time>2018-10-06T08:18:17Z</time>
      </trkpt>
      <trkpt lat="45.92417" lon="4.7475">
        <ele>223</ele>
        <time>2018-10-06T08:18:18Z</time>
      </trkpt>
      <trkpt lat="45.92414" lon="4.74758">
        <ele>223</ele>
        <time>2018-10-06T08:18:19Z</time>
      </trkpt>
      <trkpt lat="45.92413" lon="4.74765">
        <ele>223</ele>
        <time>2018-10-06T08:18:20Z</time>
      </trkpt>
      <trkpt lat="45.92411" lon="4.74772">
        <ele>224</ele>
        <time>2018-10-06T08:18:21Z</time>
      </trkpt>
      <trkpt lat="45.92409" lon="4.7478">
        <ele>224</ele>
        <time>2018-10-06T08:18:22Z</time>
      </trkpt>
      <trkpt lat="45.92407" lon="4.74788">
        <ele>223</ele>
        <time>2018-10-06T08:18:23Z</time>
      </trkpt>
      <trkpt lat="45.92405" lon="4.74795">
        <ele>223</ele>
        <time>2018-10-06T08:18:24Z</time>
      </trkpt>
      <trkpt lat="45.92404" lon="4.74802">
        <ele>223</ele>
        <time>2018-10-06T08:18:25Z</time>
      </trkpt>
      <trkpt lat="45.92402" lon="4.74809">
        <ele>222</ele>
        <time>2018-10-06T08:18:26Z</time>
      </trkpt>
      <trkpt lat="45.924" lon="4.74817">
        <ele>222</ele>
        <time>2018-10-06T08:18:27Z</time>
      </trkpt>
      <trkpt lat="45.92398" lon="4.74825">
        <ele>222</ele>
        <time>2018-10-06T08:18:28Z</time>
      </trkpt>
      <trkpt lat="45.92396" lon="4.74833">
        <ele>222</ele>
        <time>2018-10-06T08:18:29Z</time>
      </trkpt>
      <trkpt lat="45.92393" lon="4.74842">
        <ele>222</ele>
        <time>2018-10-06T08:18:30Z</time>
      </trkpt>
      <trkpt lat="45.92391" lon="4.7485">
        <ele>222</ele>
        <time>2018-10-06T08:18:31Z</time>
      </trkpt>
      <trkpt lat="45.92388" lon="4.74858">
        <ele>222</ele>
        <time>2018-10-06T08:18:32Z</time>
      </trkpt>
      <trkpt lat="45.92384" lon="4.74866">
        <ele>222</ele>
        <time>2018-10-06T08:18:33Z</time>
      </trkpt>
      <trkpt lat="45.9238" lon="4.74874">
        <ele>221</ele>
        <time>2018-10-06T08:18:34Z</time>
      </trkpt>
      <trkpt lat="45.92378" lon="4.74883">
        <ele>221</ele>
        <time>2018-10-06T08:18:35Z</time>
      </trkpt>
      <trkpt lat="45.92375" lon="4.74892">
        <ele>220</ele>
        <time>2018-10-06T08:18:36Z</time>
      </trkpt>
      <trkpt lat="45.92373" lon="4.74901">
        <ele>221</ele>
        <time>2018-10-06T08:18:37Z</time>
      </trkpt>
      <trkpt lat="45.9237" lon="4.74908">
        <ele>221</ele>
        <time>2018-10-06T08:18:38Z</time>
      </trkpt>
      <trkpt lat="45.92367" lon="4.74915">
        <ele>220</ele>
        <time>2018-10-06T08:18:39Z</time>
      </trkpt>
      <trkpt lat="45.92366" lon="4.74925">
        <ele>220</ele>
        <time>2018-10-06T08:18:40Z</time>
      </trkpt>
      <trkpt lat="45.92362" lon="4.74932">
        <ele>220</ele>
        <time>2018-10-06T08:18:41Z</time>
      </trkpt>
      <trkpt lat="45.9236" lon="4.74939">
        <ele>220</ele>
        <time>2018-10-06T08:18:42Z</time>
      </trkpt>
      <trkpt lat="45.92357" lon="4.74946">
        <ele>219</ele>
        <time>2018-10-06T08:18:43Z</time>
      </trkpt>
      <trkpt lat="45.92354" lon="4.74952">
        <ele>220</ele>
        <time>2018-10-06T08:18:44Z</time>
      </trkpt>
      <trkpt lat="45.92351" lon="4.74958">
        <ele>219</ele>
        <time>2018-10-06T08:18:45Z</time>
      </trkpt>
      <trkpt lat="45.92348" lon="4.74964">
        <ele>220</ele>
        <time>2018-10-06T08:18:46Z</time>
      </trkpt>
      <trkpt lat="45.92345" lon="4.7497">
        <ele>220</ele>
        <time>2018-10-06T08:18:47Z</time>
      </trkpt>
      <trkpt lat="45.92342" lon="4.74976">
        <ele>220</ele>
        <time>2018-10-06T08:18:48Z</time>
      </trkpt>
      <trkpt lat="45.9234" lon="4.74983">
        <ele>220</ele>
        <time>2018-10-06T08:18:49Z</time>
      </trkpt>
      <trkpt lat="45.92336" lon="4.74989">
        <ele>220</ele>
        <time>2018-10-06T08:18:50Z</time>
      </trkpt>
      <trkpt lat="45.92335" lon="4.74997">
        <ele>220</ele>
        <time>2018-10-06T08:18:51Z</time>
      </trkpt>
      <trkpt lat="45.92333" lon="4.75004">
        <ele>220</ele>
        <time>2018-10-06T08:18:52Z</time>
      </trkpt>
      <trkpt lat="45.92329" lon="4.7501">
        <ele>220</ele>
        <time>2018-10-06T08:18:53Z</time>
      </trkpt>
      <trkpt lat="45.92326" lon="4.75015">
        <ele>219</ele>
        <time>2018-10-06T08:18:54Z</time>
      </trkpt>
      <trkpt lat="45.92323" lon="4.75021">
        <ele>219</ele>
        <time>2018-10-06T08:18:55Z</time>
      </trkpt>
      <trkpt lat="45.9232" lon="4.75027">
        <ele>219</ele>
        <time>2018-10-06T08:18:56Z</time>
      </trkpt>
      <trkpt lat="45.92316" lon="4.75033">
        <ele>219</ele>
        <time>2018-10-06T08:18:57Z</time>
      </trkpt>
      <trkpt lat="45.92312" lon="4.75038">
        <ele>219</ele>
        <time>2018-10-06T08:18:58Z</time>
      </trkpt>
      <trkpt lat="45.92308" lon="4.75043">
        <ele>219</ele>
        <time>2018-10-06T08:18:59Z</time>
      </trkpt>
      <trkpt lat="45.92305" lon="4.75048">
        <ele>219</ele>
        <time>2018-10-06T08:19:00Z</time>
      </trkpt>
      <trkpt lat="45.92301" lon="4.75054">
        <ele>221</ele>
        <time>2018-10-06T08:19:01Z</time>
      </trkpt>
      <trkpt lat="45.92297" lon="4.7506">
        <ele>221</ele>
        <time>2018-10-06T08:19:02Z</time>
      </trkpt>
      <trkpt lat="45.92292" lon="4.75065">
        <ele>221</ele>
        <time>2018-10-06T08:19:03Z</time>
      </trkpt>
      <trkpt lat="45.92287" lon="4.75069">
        <ele>222</ele>
        <time>2018-10-06T08:19:04Z</time>
      </trkpt>
      <trkpt lat="45.92283" lon="4.75074">
        <ele>222</ele>
        <time>2018-10-06T08:19:05Z</time>
      </trkpt>
      <trkpt lat="45.92278" lon="4.75077">
        <ele>222</ele>
        <time>2018-10-06T08:19:06Z</time>
      </trkpt>
      <trkpt lat="45.92274" lon="4.75081">
        <ele>222</ele>
        <time>2018-10-06T08:19:07Z</time>
      </trkpt>
      <trkpt lat="45.9227" lon="4.75085">
        <ele>222</ele>
        <time>2018-10-06T08:19:08Z</time>
      </trkpt>
      <trkpt lat="45.92266" lon="4.75089">
        <ele>221</ele>
        <time>2018-10-06T08:19:09Z</time>
      </trkpt>
      <trkpt lat="45.92262" lon="4.75093">
        <ele>222</ele>
        <time>2018-10-06T08:19:10Z</time>
      </trkpt>
      <trkpt lat="45.92258" lon="4.75097">
        <ele>222</ele>
        <time>2018-10-06T08:19:11Z</time>
      </trkpt>
      <trkpt lat="45.92254" lon="4.75101">
        <ele>222</ele>
        <time>2018-10-06T08:19:12Z</time>
      </trkpt>
      <trkpt lat="45.92247" lon="4.75108">
        <ele>223</ele>
        <time>2018-10-06T08:19:14Z</time>
      </trkpt>
      <trkpt lat="45.92243" lon="4.75114">
        <ele>224</ele>
        <time>2018-10-06T08:19:15Z</time>
      </trkpt>
      <trkpt lat="45.92241" lon="4.75122">
        <ele>223</ele>
        <time>2018-10-06T08:19:16Z</time>
      </trkpt>
      <trkpt lat="45.92238" lon="4.75128">
        <ele>223</ele>
        <time>2018-10-06T08:19:17Z</time>
      </trkpt>
      <trkpt lat="45.92234" lon="4.75133">
        <ele>224</ele>
        <time>2018-10-06T08:19:18Z</time>
      </trkpt>
      <trkpt lat="45.9223" lon="4.75139">
        <ele>224</ele>
        <time>2018-10-06T08:19:19Z</time>
      </trkpt>
      <trkpt lat="45.92227" lon="4.75144">
        <ele>225</ele>
        <time>2018-10-06T08:19:20Z</time>
      </trkpt>
      <trkpt lat="45.92224" lon="4.7515">
        <ele>225</ele>
        <time>2018-10-06T08:19:21Z</time>
      </trkpt>
      <trkpt lat="45.92221" lon="4.75157">
        <ele>226</ele>
        <time>2018-10-06T08:19:22Z</time>
      </trkpt>
      <trkpt lat="45.92219" lon="4.75164">
        <ele>226</ele>
        <time>2018-10-06T08:19:23Z</time>
      </trkpt>
      <trkpt lat="45.92218" lon="4.7517">
        <ele>227</ele>
        <time>2018-10-06T08:19:24Z</time>
      </trkpt>
      <trkpt lat="45.92216" lon="4.75177">
        <ele>227</ele>
        <time>2018-10-06T08:19:25Z</time>
      </trkpt>
      <trkpt lat="45.92215" lon="4.75185">
        <ele>228</ele>
        <time>2018-10-06T08:19:26Z</time>
      </trkpt>
      <trkpt lat="45.92213" lon="4.75193">
        <ele>227</ele>
        <time>2018-10-06T08:19:27Z</time>
      </trkpt>
      <trkpt lat="45.92212" lon="4.752">
        <ele>227</ele>
        <time>2018-10-06T08:19:28Z</time>
      </trkpt>
      <trkpt lat="45.9221" lon="4.75207">
        <ele>227</ele>
        <time>2018-10-06T08:19:29Z</time>
      </trkpt>
      <trkpt lat="45.92209" lon="4.75213">
        <ele>226</ele>
        <time>2018-10-06T08:19:30Z</time>
      </trkpt>
      <trkpt lat="45.92209" lon="4.7522">
        <ele>226</ele>
        <time>2018-10-06T08:19:31Z</time>
      </trkpt>
      <trkpt lat="45.92209" lon="4.75228">
        <ele>225</ele>
        <time>2018-10-06T08:19:32Z</time>
      </trkpt>
      <trkpt lat="45.92209" lon="4.75234">
        <ele>225</ele>
        <time>2018-10-06T08:19:33Z</time>
      </trkpt>
      <trkpt lat="45.92208" lon="4.75241">
        <ele>225</ele>
        <time>2018-10-06T08:19:34Z</time>
      </trkpt>
      <trkpt lat="45.92208" lon="4.75248">
        <ele>224</ele>
        <time>2018-10-06T08:19:35Z</time>
      </trkpt>
      <trkpt lat="45.92207" lon="4.75255">
        <ele>225</ele>
        <time>2018-10-06T08:19:36Z</time>
      </trkpt>
      <trkpt lat="45.92208" lon="4.75261">
        <ele>224</ele>
        <time>2018-10-06T08:19:37Z</time>
      </trkpt>
      <trkpt lat="45.92207" lon="4.75273">
        <ele>224</ele>
        <time>2018-10-06T08:19:39Z</time>
      </trkpt>
      <trkpt lat="45.92206" lon="4.75281">
        <ele>224</ele>
        <time>2018-10-06T08:19:40Z</time>
      </trkpt>
      <trkpt lat="45.92206" lon="4.75294">
        <ele>224</ele>
        <time>2018-10-06T08:19:42Z</time>
      </trkpt>
      <trkpt lat="45.92206" lon="4.75301">
        <ele>224</ele>
        <time>2018-10-06T08:19:43Z</time>
      </trkpt>
      <trkpt lat="45.92205" lon="4.75312">
        <ele>224</ele>
        <time>2018-10-06T08:19:45Z</time>
      </trkpt>
      <trkpt lat="45.92205" lon="4.75319">
        <ele>222</ele>
        <time>2018-10-06T08:19:46Z</time>
      </trkpt>
      <trkpt lat="45.92204" lon="4.75325">
        <ele>223</ele>
        <time>2018-10-06T08:19:47Z</time>
      </trkpt>
      <trkpt lat="45.92202" lon="4.75332">
        <ele>223</ele>
        <time>2018-10-06T08:19:48Z</time>
      </trkpt>
      <trkpt lat="45.92201" lon="4.75339">
        <ele>223</ele>
        <time>2018-10-06T08:19:49Z</time>
      </trkpt>
      <trkpt lat="45.92199" lon="4.75346">
        <ele>224</ele>
        <time>2018-10-06T08:19:50Z</time>
      </trkpt>
      <trkpt lat="45.92198" lon="4.75352">
        <ele>223</ele>
        <time>2018-10-06T08:19:51Z</time>
      </trkpt>
      <trkpt lat="45.92195" lon="4.75359">
        <ele>224</ele>
        <time>2018-10-06T08:19:52Z</time>
      </trkpt>
      <trkpt lat="45.92193" lon="4.75365">
        <ele>220</ele>
        <time>2018-10-06T08:19:53Z</time>
      </trkpt>
      <trkpt lat="45.9219" lon="4.7537">
        <ele>223</ele>
        <time>2018-10-06T08:19:54Z</time>
      </trkpt>
      <trkpt lat="45.92189" lon="4.75378">
        <ele>224</ele>
        <time>2018-10-06T08:19:55Z</time>
      </trkpt>
      <trkpt lat="45.92186" lon="4.75384">
        <ele>225</ele>
        <time>2018-10-06T08:19:56Z</time>
      </trkpt>
      <trkpt lat="45.92184" lon="4.75395">
        <ele>224</ele>
        <time>2018-10-06T08:19:57Z</time>
      </trkpt>
      <trkpt lat="45.92182" lon="4.75402">
        <ele>224</ele>
        <time>2018-10-06T08:19:58Z</time>
      </trkpt>
      <trkpt lat="45.92179" lon="4.7541">
        <ele>223</ele>
        <time>2018-10-06T08:19:59Z</time>
      </trkpt>
      <trkpt lat="45.92177" lon="4.75415">
        <ele>225</ele>
        <time>2018-10-06T08:20:00Z</time>
      </trkpt>
      <trkpt lat="45.92175" lon="4.75422">
        <ele>224</ele>
        <time>2018-10-06T08:20:01Z</time>
      </trkpt>
      <trkpt lat="45.92173" lon="4.75428">
        <ele>224</ele>
        <time>2018-10-06T08:20:02Z</time>
      </trkpt>
      <trkpt lat="45.92169" lon="4.7544">
        <ele>224</ele>
        <time>2018-10-06T08:20:04Z</time>
      </trkpt>
      <trkpt lat="45.92167" lon="4.75447">
        <ele>224</ele>
        <time>2018-10-06T08:20:05Z</time>
      </trkpt>
      <trkpt lat="45.92163" lon="4.75453">
        <ele>222</ele>
        <time>2018-10-06T08:20:06Z</time>
      </trkpt>
      <trkpt lat="45.9216" lon="4.75459">
        <ele>222</ele>
        <time>2018-10-06T08:20:07Z</time>
      </trkpt>
      <trkpt lat="45.92154" lon="4.75468">
        <ele>224</ele>
        <time>2018-10-06T08:20:09Z</time>
      </trkpt>
      <trkpt lat="45.92151" lon="4.75473">
        <ele>224</ele>
        <time>2018-10-06T08:20:10Z</time>
      </trkpt>
      <trkpt lat="45.92147" lon="4.75482">
        <ele>224</ele>
        <time>2018-10-06T08:20:12Z</time>
      </trkpt>
      <trkpt lat="45.92144" lon="4.75489">
        <ele>224</ele>
        <time>2018-10-06T08:20:13Z</time>
      </trkpt>
      <trkpt lat="45.9214" lon="4.75494">
        <ele>225</ele>
        <time>2018-10-06T08:20:14Z</time>
      </trkpt>
      <trkpt lat="45.92137" lon="4.755">
        <ele>225</ele>
        <time>2018-10-06T08:20:15Z</time>
      </trkpt>
      <trkpt lat="45.92133" lon="4.75507">
        <ele>225</ele>
        <time>2018-10-06T08:20:16Z</time>
      </trkpt>
      <trkpt lat="45.9213" lon="4.75514">
        <ele>224</ele>
        <time>2018-10-06T08:20:17Z</time>
      </trkpt>
      <trkpt lat="45.92126" lon="4.75521">
        <ele>224</ele>
        <time>2018-10-06T08:20:18Z</time>
      </trkpt>
      <trkpt lat="45.92123" lon="4.75527">
        <ele>224</ele>
        <time>2018-10-06T08:20:19Z</time>
      </trkpt>
      <trkpt lat="45.9212" lon="4.75532">
        <ele>225</ele>
        <time>2018-10-06T08:20:20Z</time>
      </trkpt>
      <trkpt lat="45.92116" lon="4.75538">
        <ele>225</ele>
        <time>2018-10-06T08:20:21Z</time>
      </trkpt>
      <trkpt lat="45.92114" lon="4.75544">
        <ele>225</ele>
        <time>2018-10-06T08:20:22Z</time>
      </trkpt>
      <trkpt lat="45.92111" lon="4.75549">
        <ele>226</ele>
        <time>2018-10-06T08:20:23Z</time>
      </trkpt>
      <trkpt lat="45.92109" lon="4.75555">
        <ele>226</ele>
        <time>2018-10-06T08:20:24Z</time>
      </trkpt>
      <trkpt lat="45.92108" lon="4.75561">
        <ele>227</ele>
        <time>2018-10-06T08:20:25Z</time>
      </trkpt>
      <trkpt lat="45.92108" lon="4.75568">
        <ele>227</ele>
        <time>2018-10-06T08:20:26Z</time>
      </trkpt>
      <trkpt lat="45.9211" lon="4.75575">
        <ele>226</ele>
        <time>2018-10-06T08:20:27Z</time>
      </trkpt>
      <trkpt lat="45.92113" lon="4.7558">
        <ele>227</ele>
        <time>2018-10-06T08:20:28Z</time>
      </trkpt>
      <trkpt lat="45.92117" lon="4.75587">
        <ele>226</ele>
        <time>2018-10-06T08:20:29Z</time>
      </trkpt>
      <trkpt lat="45.92123" lon="4.75592">
        <ele>225</ele>
        <time>2018-10-06T08:20:30Z</time>
      </trkpt>
      <trkpt lat="45.92129" lon="4.75597">
        <ele>224</ele>
        <time>2018-10-06T08:20:31Z</time>
      </trkpt>
      <trkpt lat="45.92134" lon="4.75601">
        <ele>224</ele>
        <time>2018-10-06T08:20:32Z</time>
      </trkpt>
      <trkpt lat="45.92138" lon="4.75606">
        <ele>224</ele>
        <time>2018-10-06T08:20:33Z</time>
      </trkpt>
      <trkpt lat="45.92143" lon="4.7561">
        <ele>224</ele>
        <time>2018-10-06T08:20:34Z</time>
      </trkpt>
      <trkpt lat="45.92148" lon="4.75616">
        <ele>223</ele>
        <time>2018-10-06T08:20:35Z</time>
      </trkpt>
      <trkpt lat="45.92153" lon="4.75621">
        <ele>223</ele>
        <time>2018-10-06T08:20:36Z</time>
      </trkpt>
      <trkpt lat="45.92157" lon="4.75626">
        <ele>223</ele>
        <time>2018-10-06T08:20:37Z</time>
      </trkpt>
      <trkpt lat="45.92162" lon="4.7563">
        <ele>224</ele>
        <time>2018-10-06T08:20:38Z</time>
      </trkpt>
      <trkpt lat="45.92168" lon="4.75636">
        <ele>223</ele>
        <time>2018-10-06T08:20:39Z</time>
      </trkpt>
      <trkpt lat="45.92172" lon="4.75641">
        <ele>224</ele>
        <time>2018-10-06T08:20:40Z</time>
      </trkpt>
      <trkpt lat="45.92177" lon="4.75646">
        <ele>224</ele>
        <time>2018-10-06T08:20:41Z</time>
      </trkpt>
      <trkpt lat="45.92182" lon="4.7565">
        <ele>224</ele>
        <time>2018-10-06T08:20:42Z</time>
      </trkpt>
      <trkpt lat="45.92186" lon="4.75655">
        <ele>224</ele>
        <time>2018-10-06T08:20:43Z</time>
      </trkpt>
      <trkpt lat="45.92189" lon="4.75659">
        <ele>224</ele>
        <time>2018-10-06T08:20:44Z</time>
      </trkpt>
      <trkpt lat="45.92194" lon="4.75663">
        <ele>224</ele>
        <time>2018-10-06T08:20:45Z</time>
      </trkpt>
      <trkpt lat="45.92198" lon="4.75667">
        <ele>224</ele>
        <time>2018-10-06T08:20:46Z</time>
      </trkpt>
      <trkpt lat="45.92202" lon="4.75671">
        <ele>225</ele>
        <time>2018-10-06T08:20:47Z</time>
      </trkpt>
      <trkpt lat="45.92209" lon="4.75678">
        <ele>225</ele>
        <time>2018-10-06T08:20:49Z</time>
      </trkpt>
      <trkpt lat="45.92212" lon="4.75682">
        <ele>226</ele>
        <time>2018-10-06T08:20:50Z</time>
      </trkpt>
      <trkpt lat="45.92219" lon="4.75689">
        <ele>226</ele>
        <time>2018-10-06T08:20:52Z</time>
      </trkpt>
      <trkpt lat="45.92223" lon="4.75693">
        <ele>227</ele>
        <time>2018-10-06T08:20:53Z</time>
      </trkpt>
      <trkpt lat="45.92227" lon="4.75697">
        <ele>226</ele>
        <time>2018-10-06T08:20:54Z</time>
      </trkpt>
      <trkpt lat="45.92231" lon="4.757">
        <ele>226</ele>
        <time>2018-10-06T08:20:55Z</time>
      </trkpt>
      <trkpt lat="45.92234" lon="4.75705">
        <ele>226</ele>
        <time>2018-10-06T08:20:56Z</time>
      </trkpt>
      <trkpt lat="45.92237" lon="4.75711">
        <ele>226</ele>
        <time>2018-10-06T08:20:57Z</time>
      </trkpt>
      <trkpt lat="45.92239" lon="4.75717">
        <ele>226</ele>
        <time>2018-10-06T08:20:58Z</time>
      </trkpt>
      <trkpt lat="45.92241" lon="4.75723">
        <ele>227</ele>
        <time>2018-10-06T08:20:59Z</time>
      </trkpt>
      <trkpt lat="45.92243" lon="4.75729">
        <ele>227</ele>
        <time>2018-10-06T08:21:00Z</time>
      </trkpt>
      <trkpt lat="45.92245" lon="4.75736">
        <ele>227</ele>
        <time>2018-10-06T08:21:01Z</time>
      </trkpt>
      <trkpt lat="45.92248" lon="4.75746">
        <ele>227</ele>
        <time>2018-10-06T08:21:03Z</time>
      </trkpt>
      <trkpt lat="45.9225" lon="4.75752">
        <ele>227</ele>
        <time>2018-10-06T08:21:04Z</time>
      </trkpt>
      <trkpt lat="45.92253" lon="4.75763">
        <ele>227</ele>
        <time>2018-10-06T08:21:06Z</time>
      </trkpt>
      <trkpt lat="45.92254" lon="4.75768">
        <ele>227</ele>
        <time>2018-10-06T08:21:07Z</time>
      </trkpt>
      <trkpt lat="45.92257" lon="4.7578">
        <ele>227</ele>
        <time>2018-10-06T08:21:09Z</time>
      </trkpt>
      <trkpt lat="45.92258" lon="4.75786">
        <ele>227</ele>
        <time>2018-10-06T08:21:10Z</time>
      </trkpt>
      <trkpt lat="45.9226" lon="4.75795">
        <ele>226</ele>
        <time>2018-10-06T08:21:11Z</time>
      </trkpt>
      <trkpt lat="45.92261" lon="4.75801">
        <ele>226</ele>
        <time>2018-10-06T08:21:12Z</time>
      </trkpt>
      <trkpt lat="45.92263" lon="4.75808">
        <ele>226</ele>
        <time>2018-10-06T08:21:13Z</time>
      </trkpt>
      <trkpt lat="45.92266" lon="4.75814">
        <ele>227</ele>
        <time>2018-10-06T08:21:14Z</time>
      </trkpt>
      <trkpt lat="45.9227" lon="4.75821">
        <ele>226</ele>
        <time>2018-10-06T08:21:15Z</time>
      </trkpt>
      <trkpt lat="45.92274" lon="4.75826">
        <ele>226</ele>
        <time>2018-10-06T08:21:16Z</time>
      </trkpt>
      <trkpt lat="45.92279" lon="4.75831">
        <ele>226</ele>
        <time>2018-10-06T08:21:17Z</time>
      </trkpt>
      <trkpt lat="45.92284" lon="4.75835">
        <ele>227</ele>
        <time>2018-10-06T08:21:18Z</time>
      </trkpt>
      <trkpt lat="45.9229" lon="4.75838">
        <ele>227</ele>
        <time>2018-10-06T08:21:19Z</time>
      </trkpt>
      <trkpt lat="45.92295" lon="4.75842">
        <ele>226</ele>
        <time>2018-10-06T08:21:20Z</time>
      </trkpt>
      <trkpt lat="45.92301" lon="4.75845">
        <ele>227</ele>
        <time>2018-10-06T08:21:21Z</time>
      </trkpt>
      <trkpt lat="45.92307" lon="4.75849">
        <ele>226</ele>
        <time>2018-10-06T08:21:22Z</time>
      </trkpt>
      <trkpt lat="45.92313" lon="4.75852">
        <ele>226</ele>
        <time>2018-10-06T08:21:23Z</time>
      </trkpt>
      <trkpt lat="45.92318" lon="4.75856">
        <ele>226</ele>
        <time>2018-10-06T08:21:24Z</time>
      </trkpt>
      <trkpt lat="45.92324" lon="4.7586">
        <ele>226</ele>
        <time>2018-10-06T08:21:25Z</time>
      </trkpt>
      <trkpt lat="45.92329" lon="4.75864">
        <ele>226</ele>
        <time>2018-10-06T08:21:26Z</time>
      </trkpt>
      <trkpt lat="45.92335" lon="4.75867">
        <ele>226</ele>
        <time>2018-10-06T08:21:27Z</time>
      </trkpt>
      <trkpt lat="45.92341" lon="4.75871">
        <ele>226</ele>
        <time>2018-10-06T08:21:28Z</time>
      </trkpt>
      <trkpt lat="45.92346" lon="4.75874">
        <ele>225</ele>
        <time>2018-10-06T08:21:29Z</time>
      </trkpt>
      <trkpt lat="45.92352" lon="4.75878">
        <ele>225</ele>
        <time>2018-10-06T08:21:30Z</time>
      </trkpt>
      <trkpt lat="45.92357" lon="4.75882">
        <ele>225</ele>
        <time>2018-10-06T08:21:31Z</time>
      </trkpt>
      <trkpt lat="45.92363" lon="4.75885">
        <ele>224</ele>
        <time>2018-10-06T08:21:32Z</time>
      </trkpt>
      <trkpt lat="45.92367" lon="4.75889">
        <ele>224</ele>
        <time>2018-10-06T08:21:33Z</time>
      </trkpt>
      <trkpt lat="45.92372" lon="4.75892">
        <ele>224</ele>
        <time>2018-10-06T08:21:34Z</time>
      </trkpt>
      <trkpt lat="45.92377" lon="4.75896">
        <ele>224</ele>
        <time>2018-10-06T08:21:35Z</time>
      </trkpt>
      <trkpt lat="45.92381" lon="4.759">
        <ele>224</ele>
        <time>2018-10-06T08:21:36Z</time>
      </trkpt>
      <trkpt lat="45.92386" lon="4.75901">
        <ele>225</ele>
        <time>2018-10-06T08:21:37Z</time>
      </trkpt>
      <trkpt lat="45.92391" lon="4.75902">
        <ele>224</ele>
        <time>2018-10-06T08:21:38Z</time>
      </trkpt>
      <trkpt lat="45.92395" lon="4.75905">
        <ele>224</ele>
        <time>2018-10-06T08:21:39Z</time>
      </trkpt>
      <trkpt lat="45.92399" lon="4.75908">
        <ele>225</ele>
        <time>2018-10-06T08:21:40Z</time>
      </trkpt>
      <trkpt lat="45.92405" lon="4.75911">
        <ele>225</ele>
        <time>2018-10-06T08:21:41Z</time>
      </trkpt>
      <trkpt lat="45.92408" lon="4.75914">
        <ele>224</ele>
        <time>2018-10-06T08:21:42Z</time>
      </trkpt>
      <trkpt lat="45.92412" lon="4.75917">
        <ele>225</ele>
        <time>2018-10-06T08:21:43Z</time>
      </trkpt>
      <trkpt lat="45.92417" lon="4.75921">
        <ele>225</ele>
        <time>2018-10-06T08:21:44Z</time>
      </trkpt>
      <trkpt lat="45.92421" lon="4.75924">
        <ele>225</ele>
        <time>2018-10-06T08:21:45Z</time>
      </trkpt>
      <trkpt lat="45.92426" lon="4.75928">
        <ele>225</ele>
        <time>2018-10-06T08:21:46Z</time>
      </trkpt>
      <trkpt lat="45.9243" lon="4.7593">
        <ele>225</ele>
        <time>2018-10-06T08:21:47Z</time>
      </trkpt>
      <trkpt lat="45.92434" lon="4.75936">
        <ele>226</ele>
        <time>2018-10-06T08:21:48Z</time>
      </trkpt>
      <trkpt lat="45.92439" lon="4.75939">
        <ele>225</ele>
        <time>2018-10-06T08:21:49Z</time>
      </trkpt>
      <trkpt lat="45.92443" lon="4.75942">
        <ele>226</ele>
        <time>2018-10-06T08:21:50Z</time>
      </trkpt>
      <trkpt lat="45.92447" lon="4.75944">
        <ele>226</ele>
        <time>2018-10-06T08:21:51Z</time>
      </trkpt>
      <trkpt lat="45.92452" lon="4.75948">
        <ele>226</ele>
        <time>2018-10-06T08:21:52Z</time>
      </trkpt>
      <trkpt lat="45.92456" lon="4.75951">
        <ele>227</ele>
        <time>2018-10-06T08:21:53Z</time>
      </trkpt>
      <trkpt lat="45.92461" lon="4.75954">
        <ele>227</ele>
        <time>2018-10-06T08:21:54Z</time>
      </trkpt>
      <trkpt lat="45.92466" lon="4.75957">
        <ele>227</ele>
        <time>2018-10-06T08:21:55Z</time>
      </trkpt>
      <trkpt lat="45.92469" lon="4.75962">
        <ele>227</ele>
        <time>2018-10-06T08:21:56Z</time>
      </trkpt>
      <trkpt lat="45.92474" lon="4.75965">
        <ele>227</ele>
        <time>2018-10-06T08:21:57Z</time>
      </trkpt>
      <trkpt lat="45.92479" lon="4.75967">
        <ele>227</ele>
        <time>2018-10-06T08:21:58Z</time>
      </trkpt>
      <trkpt lat="45.92484" lon="4.75971">
        <ele>228</ele>
        <time>2018-10-06T08:21:59Z</time>
      </trkpt>
      <trkpt lat="45.92488" lon="4.75974">
        <ele>228</ele>
        <time>2018-10-06T08:22:00Z</time>
      </trkpt>
      <trkpt lat="45.92493" lon="4.75979">
        <ele>229</ele>
        <time>2018-10-06T08:22:01Z</time>
      </trkpt>
      <trkpt lat="45.92498" lon="4.75982">
        <ele>229</ele>
        <time>2018-10-06T08:22:02Z</time>
      </trkpt>
      <trkpt lat="45.92502" lon="4.75985">
        <ele>230</ele>
        <time>2018-10-06T08:22:03Z</time>
      </trkpt>
      <trkpt lat="45.92507" lon="4.75989">
        <ele>229</ele>
        <time>2018-10-06T08:22:04Z</time>
      </trkpt>
      <trkpt lat="45.92511" lon="4.75992">
        <ele>230</ele>
        <time>2018-10-06T08:22:05Z</time>
      </trkpt>
      <trkpt lat="45.92515" lon="4.75995">
        <ele>229</ele>
        <time>2018-10-06T08:22:06Z</time>
      </trkpt>
      <trkpt lat="45.9252" lon="4.75998">
        <ele>229</ele>
        <time>2018-10-06T08:22:07Z</time>
      </trkpt>
      <trkpt lat="45.92524" lon="4.76001">
        <ele>229</ele>
        <time>2018-10-06T08:22:08Z</time>
      </trkpt>
      <trkpt lat="45.92528" lon="4.76005">
        <ele>229</ele>
        <time>2018-10-06T08:22:09Z</time>
      </trkpt>
      <trkpt lat="45.92532" lon="4.76008">
        <ele>229</ele>
        <time>2018-10-06T08:22:10Z</time>
      </trkpt>
      <trkpt lat="45.92537" lon="4.76011">
        <ele>228</ele>
        <time>2018-10-06T08:22:11Z</time>
      </trkpt>
      <trkpt lat="45.92541" lon="4.76014">
        <ele>228</ele>
        <time>2018-10-06T08:22:12Z</time>
      </trkpt>
      <trkpt lat="45.92546" lon="4.76017">
        <ele>228</ele>
        <time>2018-10-06T08:22:13Z</time>
      </trkpt>
      <trkpt lat="45.9255" lon="4.7602">
        <ele>228</ele>
        <time>2018-10-06T08:22:14Z</time>
      </trkpt>
      <trkpt lat="45.92555" lon="4.76024">
        <ele>228</ele>
        <time>2018-10-06T08:22:15Z</time>
      </trkpt>
      <trkpt lat="45.9256" lon="4.76029">
        <ele>226</ele>
        <time>2018-10-06T08:22:16Z</time>
      </trkpt>
      <trkpt lat="45.92565" lon="4.76032">
        <ele>226</ele>
        <time>2018-10-06T08:22:17Z</time>
      </trkpt>
      <trkpt lat="45.92569" lon="4.76036">
        <ele>226</ele>
        <time>2018-10-06T08:22:18Z</time>
      </trkpt>
      <trkpt lat="45.92574" lon="4.76039">
        <ele>226</ele>
        <time>2018-10-06T08:22:19Z</time>
      </trkpt>
      <trkpt lat="45.92579" lon="4.76043">
        <ele>226</ele>
        <time>2018-10-06T08:22:20Z</time>
      </trkpt>
      <trkpt lat="45.92583" lon="4.76046">
        <ele>226</ele>
        <time>2018-10-06T08:22:21Z</time>
      </trkpt>
      <trkpt lat="45.92588" lon="4.7605">
        <ele>225</ele>
        <time>2018-10-06T08:22:22Z</time>
      </trkpt>
      <trkpt lat="45.92592" lon="4.76053">
        <ele>225</ele>
        <time>2018-10-06T08:22:23Z</time>
      </trkpt>
      <trkpt lat="45.92597" lon="4.76057">
        <ele>225</ele>
        <time>2018-10-06T08:22:24Z</time>
      </trkpt>
      <trkpt lat="45.92602" lon="4.7606">
        <ele>224</ele>
        <time>2018-10-06T08:22:25Z</time>
      </trkpt>
      <trkpt lat="45.92607" lon="4.76063">
        <ele>224</ele>
        <time>2018-10-06T08:22:26Z</time>
      </trkpt>
      <trkpt lat="45.92611" lon="4.76067">
        <ele>224</ele>
        <time>2018-10-06T08:22:27Z</time>
      </trkpt>
      <trkpt lat="45.92617" lon="4.76071">
        <ele>224</ele>
        <time>2018-10-06T08:22:28Z</time>
      </trkpt>
      <trkpt lat="45.92622" lon="4.76075">
        <ele>223</ele>
        <time>2018-10-06T08:22:29Z</time>
      </trkpt>
      <trkpt lat="45.92627" lon="4.76079">
        <ele>223</ele>
        <time>2018-10-06T08:22:30Z</time>
      </trkpt>
      <trkpt lat="45.92632" lon="4.76083">
        <ele>223</ele>
        <time>2018-10-06T08:22:31Z</time>
      </trkpt>
      <trkpt lat="45.92638" lon="4.76086">
        <ele>223</ele>
        <time>2018-10-06T08:22:32Z</time>
      </trkpt>
      <trkpt lat="45.92644" lon="4.76091">
        <ele>223</ele>
        <time>2018-10-06T08:22:33Z</time>
      </trkpt>
      <trkpt lat="45.9265" lon="4.76094">
        <ele>223</ele>
        <time>2018-10-06T08:22:34Z</time>
      </trkpt>
      <trkpt lat="45.92655" lon="4.76098">
        <ele>223</ele>
        <time>2018-10-06T08:22:35Z</time>
      </trkpt>
      <trkpt lat="45.92661" lon="4.76103">
        <ele>224</ele>
        <time>2018-10-06T08:22:36Z</time>
      </trkpt>
      <trkpt lat="45.92667" lon="4.76108">
        <ele>226</ele>
        <time>2018-10-06T08:22:37Z</time>
      </trkpt>
      <trkpt lat="45.92674" lon="4.76111">
        <ele>225</ele>
        <time>2018-10-06T08:22:38Z</time>
      </trkpt>
      <trkpt lat="45.9268" lon="4.76116">
        <ele>224</ele>
        <time>2018-10-06T08:22:39Z</time>
      </trkpt>
      <trkpt lat="45.92687" lon="4.7612">
        <ele>223</ele>
        <time>2018-10-06T08:22:40Z</time>
      </trkpt>
      <trkpt lat="45.92693" lon="4.76125">
        <ele>223</ele>
        <time>2018-10-06T08:22:41Z</time>
      </trkpt>
      <trkpt lat="45.927" lon="4.76129">
        <ele>223</ele>
        <time>2018-10-06T08:22:42Z</time>
      </trkpt>
      <trkpt lat="45.92707" lon="4.76134">
        <ele>223</ele>
        <time>2018-10-06T08:22:43Z</time>
      </trkpt>
      <trkpt lat="45.92714" lon="4.76138">
        <ele>222</ele>
        <time>2018-10-06T08:22:44Z</time>
      </trkpt>
      <trkpt lat="45.9272" lon="4.76144">
        <ele>222</ele>
        <time>2018-10-06T08:22:45Z</time>
      </trkpt>
      <trkpt lat="45.92727" lon="4.76149">
        <ele>222</ele>
        <time>2018-10-06T08:22:46Z</time>
      </trkpt>
      <trkpt lat="45.92734" lon="4.76153">
        <ele>222</ele>
        <time>2018-10-06T08:22:47Z</time>
      </trkpt>
      <trkpt lat="45.92741" lon="4.76158">
        <ele>222</ele>
        <time>2018-10-06T08:22:48Z</time>
      </trkpt>
      <trkpt lat="45.92746" lon="4.76163">
        <ele>222</ele>
        <time>2018-10-06T08:22:49Z</time>
      </trkpt>
      <trkpt lat="45.92752" lon="4.76168">
        <ele>222</ele>
        <time>2018-10-06T08:22:50Z</time>
      </trkpt>
      <trkpt lat="45.92758" lon="4.76173">
        <ele>222</ele>
        <time>2018-10-06T08:22:51Z</time>
      </trkpt>
      <trkpt lat="45.92763" lon="4.76178">
        <ele>222</ele>
        <time>2018-10-06T08:22:52Z</time>
      </trkpt>
      <trkpt lat="45.92769" lon="4.76183">
        <ele>222</ele>
        <time>2018-10-06T08:22:53Z</time>
      </trkpt>
      <trkpt lat="45.92774" lon="4.76189">
        <ele>222</ele>
        <time>2018-10-06T08:22:54Z</time>
      </trkpt>
      <trkpt lat="45.92779" lon="4.76194">
        <ele>222</ele>
        <time>2018-10-06T08:22:55Z</time>
      </trkpt>
      <trkpt lat="45.92784" lon="4.76197">
        <ele>221</ele>
        <time>2018-10-06T08:22:56Z</time>
      </trkpt>
      <trkpt lat="45.92789" lon="4.76203">
        <ele>221</ele>
        <time>2018-10-06T08:22:57Z</time>
      </trkpt>
      <trkpt lat="45.92794" lon="4.76205">
        <ele>221</ele>
        <time>2018-10-06T08:22:58Z</time>
      </trkpt>
      <trkpt lat="45.92798" lon="4.7621">
        <ele>221</ele>
        <time>2018-10-06T08:22:59Z</time>
      </trkpt>
      <trkpt lat="45.92803" lon="4.76215">
        <ele>221</ele>
        <time>2018-10-06T08:23:00Z</time>
      </trkpt>
      <trkpt lat="45.92808" lon="4.76219">
        <ele>222</ele>
        <time>2018-10-06T08:23:01Z</time>
      </trkpt>
      <trkpt lat="45.92813" lon="4.76224">
        <ele>221</ele>
        <time>2018-10-06T08:23:02Z</time>
      </trkpt>
      <trkpt lat="45.92818" lon="4.7623">
        <ele>221</ele>
        <time>2018-10-06T08:23:03Z</time>
      </trkpt>
      <trkpt lat="45.92822" lon="4.76235">
        <ele>222</ele>
        <time>2018-10-06T08:23:04Z</time>
      </trkpt>
      <trkpt lat="45.92827" lon="4.7624">
        <ele>222</ele>
        <time>2018-10-06T08:23:05Z</time>
      </trkpt>
      <trkpt lat="45.92832" lon="4.76245">
        <ele>222</ele>
        <time>2018-10-06T08:23:06Z</time>
      </trkpt>
      <trkpt lat="45.92836" lon="4.7625">
        <ele>222</ele>
        <time>2018-10-06T08:23:07Z</time>
      </trkpt>
      <trkpt lat="45.92842" lon="4.76254">
        <ele>220</ele>
        <time>2018-10-06T08:23:08Z</time>
      </trkpt>
      <trkpt lat="45.92846" lon="4.76257">
        <ele>220</ele>
        <time>2018-10-06T08:23:09Z</time>
      </trkpt>
      <trkpt lat="45.9285" lon="4.76261">
        <ele>221</ele>
        <time>2018-10-06T08:23:10Z</time>
      </trkpt>
      <trkpt lat="45.92854" lon="4.76266">
        <ele>221</ele>
        <time>2018-10-06T08:23:11Z</time>
      </trkpt>
      <trkpt lat="45.92859" lon="4.76269">
        <ele>222</ele>
        <time>2018-10-06T08:23:12Z</time>
      </trkpt>
      <trkpt lat="45.92864" lon="4.76275">
        <ele>222</ele>
        <time>2018-10-06T08:23:13Z</time>
      </trkpt>
      <trkpt lat="45.92869" lon="4.76278">
        <ele>222</ele>
        <time>2018-10-06T08:23:14Z</time>
      </trkpt>
      <trkpt lat="45.92873" lon="4.76283">
        <ele>222</ele>
        <time>2018-10-06T08:23:15Z</time>
      </trkpt>
      <trkpt lat="45.92878" lon="4.76288">
        <ele>222</ele>
        <time>2018-10-06T08:23:16Z</time>
      </trkpt>
      <trkpt lat="45.92882" lon="4.76293">
        <ele>222</ele>
        <time>2018-10-06T08:23:17Z</time>
      </trkpt>
      <trkpt lat="45.92887" lon="4.76298">
        <ele>222</ele>
        <time>2018-10-06T08:23:18Z</time>
      </trkpt>
      <trkpt lat="45.92893" lon="4.76303">
        <ele>222</ele>
        <time>2018-10-06T08:23:19Z</time>
      </trkpt>
      <trkpt lat="45.92896" lon="4.76308">
        <ele>222</ele>
        <time>2018-10-06T08:23:20Z</time>
      </trkpt>
      <trkpt lat="45.92901" lon="4.76312">
        <ele>222</ele>
        <time>2018-10-06T08:23:21Z</time>
      </trkpt>
      <trkpt lat="45.92905" lon="4.76316">
        <ele>223</ele>
        <time>2018-10-06T08:23:22Z</time>
      </trkpt>
      <trkpt lat="45.92908" lon="4.76319">
        <ele>223</ele>
        <time>2018-10-06T08:23:23Z</time>
      </trkpt>
      <trkpt lat="45.92912" lon="4.76324">
        <ele>223</ele>
        <time>2018-10-06T08:23:24Z</time>
      </trkpt>
      <trkpt lat="45.92916" lon="4.76329">
        <ele>224</ele>
        <time>2018-10-06T08:23:25Z</time>
      </trkpt>
      <trkpt lat="45.9292" lon="4.76334">
        <ele>224</ele>
        <time>2018-10-06T08:23:26Z</time>
      </trkpt>
      <trkpt lat="45.92924" lon="4.76338">
        <ele>224</ele>
        <time>2018-10-06T08:23:27Z</time>
      </trkpt>
      <trkpt lat="45.92928" lon="4.76343">
        <ele>224</ele>
        <time>2018-10-06T08:23:28Z</time>
      </trkpt>
      <trkpt lat="45.92933" lon="4.76348">
        <ele>224</ele>
        <time>2018-10-06T08:23:29Z</time>
      </trkpt>
      <trkpt lat="45.92937" lon="4.76353">
        <ele>225</ele>
        <time>2018-10-06T08:23:30Z</time>
      </trkpt>
      <trkpt lat="45.92942" lon="4.76357">
        <ele>226</ele>
        <time>2018-10-06T08:23:31Z</time>
      </trkpt>
      <trkpt lat="45.92947" lon="4.76361">
        <ele>225</ele>
        <time>2018-10-06T08:23:32Z</time>
      </trkpt>
      <trkpt lat="45.92952" lon="4.76366">
        <ele>224</ele>
        <time>2018-10-06T08:23:33Z</time>
      </trkpt>
      <trkpt lat="45.92956" lon="4.76371">
        <ele>224</ele>
        <time>2018-10-06T08:23:34Z</time>
      </trkpt>
      <trkpt lat="45.92961" lon="4.76376">
        <ele>224</ele>
        <time>2018-10-06T08:23:35Z</time>
      </trkpt>
      <trkpt lat="45.92965" lon="4.7638">
        <ele>225</ele>
        <time>2018-10-06T08:23:36Z</time>
      </trkpt>
      <trkpt lat="45.92969" lon="4.76384">
        <ele>225</ele>
        <time>2018-10-06T08:23:37Z</time>
      </trkpt>
      <trkpt lat="45.92974" lon="4.76389">
        <ele>225</ele>
        <time>2018-10-06T08:23:38Z</time>
      </trkpt>
      <trkpt lat="45.92979" lon="4.76394">
        <ele>225</ele>
        <time>2018-10-06T08:23:39Z</time>
      </trkpt>
      <trkpt lat="45.92984" lon="4.76399">
        <ele>225</ele>
        <time>2018-10-06T08:23:40Z</time>
      </trkpt>
      <trkpt lat="45.92988" lon="4.76404">
        <ele>225</ele>
        <time>2018-10-06T08:23:41Z</time>
      </trkpt>
      <trkpt lat="45.92992" lon="4.76408">
        <ele>226</ele>
        <time>2018-10-06T08:23:42Z</time>
      </trkpt>
      <trkpt lat="45.92997" lon="4.76412">
        <ele>225</ele>
        <time>2018-10-06T08:23:43Z</time>
      </trkpt>
      <trkpt lat="45.93001" lon="4.76415">
        <ele>225</ele>
        <time>2018-10-06T08:23:44Z</time>
      </trkpt>
      <trkpt lat="45.93005" lon="4.76419">
        <ele>226</ele>
        <time>2018-10-06T08:23:45Z</time>
      </trkpt>
      <trkpt lat="45.93008" lon="4.76425">
        <ele>226</ele>
        <time>2018-10-06T08:23:46Z</time>
      </trkpt>
      <trkpt lat="45.93013" lon="4.76428">
        <ele>227</ele>
        <time>2018-10-06T08:23:47Z</time>
      </trkpt>
      <trkpt lat="45.93017" lon="4.76432">
        <ele>226</ele>
        <time>2018-10-06T08:23:48Z</time>
      </trkpt>
      <trkpt lat="45.93022" lon="4.76435">
        <ele>226</ele>
        <time>2018-10-06T08:23:49Z</time>
      </trkpt>
      <trkpt lat="45.93027" lon="4.76437">
        <ele>225</ele>
        <time>2018-10-06T08:23:50Z</time>
      </trkpt>
      <trkpt lat="45.93031" lon="4.76441">
        <ele>225</ele>
        <time>2018-10-06T08:23:51Z</time>
      </trkpt>
      <trkpt lat="45.93035" lon="4.76446">
        <ele>225</ele>
        <time>2018-10-06T08:23:52Z</time>
      </trkpt>
      <trkpt lat="45.93041" lon="4.76449">
        <ele>225</ele>
        <time>2018-10-06T08:23:53Z</time>
      </trkpt>
      <trkpt lat="45.93045" lon="4.76455">
        <ele>225</ele>
        <time>2018-10-06T08:23:54Z</time>
      </trkpt>
      <trkpt lat="45.9305" lon="4.7646">
        <ele>225</ele>
        <time>2018-10-06T08:23:55Z</time>
      </trkpt>
      <trkpt lat="45.93055" lon="4.76464">
        <ele>225</ele>
        <time>2018-10-06T08:23:56Z</time>
      </trkpt>
      <trkpt lat="45.93059" lon="4.76468">
        <ele>225</ele>
        <time>2018-10-06T08:23:57Z</time>
      </trkpt>
      <trkpt lat="45.93064" lon="4.76473">
        <ele>225</ele>
        <time>2018-10-06T08:23:58Z</time>
      </trkpt>
      <trkpt lat="45.93069" lon="4.76476">
        <ele>224</ele>
        <time>2018-10-06T08:23:59Z</time>
      </trkpt>
      <trkpt lat="45.93073" lon="4.76481">
        <ele>224</ele>
        <time>2018-10-06T08:24:00Z</time>
      </trkpt>
      <trkpt lat="45.93077" lon="4.76487">
        <ele>224</ele>
        <time>2018-10-06T08:24:01Z</time>
      </trkpt>
      <trkpt lat="45.93081" lon="4.76491">
        <ele>223</ele>
        <time>2018-10-06T08:24:02Z</time>
      </trkpt>
      <trkpt lat="45.93086" lon="4.76495">
        <ele>222</ele>
        <time>2018-10-06T08:24:03Z</time>
      </trkpt>
      <trkpt lat="45.9309" lon="4.76499">
        <ele>222</ele>
        <time>2018-10-06T08:24:04Z</time>
      </trkpt>
      <trkpt lat="45.93094" lon="4.76504">
        <ele>221</ele>
        <time>2018-10-06T08:24:05Z</time>
      </trkpt>
      <trkpt lat="45.93098" lon="4.76508">
        <ele>222</ele>
        <time>2018-10-06T08:24:06Z</time>
      </trkpt>
      <trkpt lat="45.93103" lon="4.76513">
        <ele>221</ele>
        <time>2018-10-06T08:24:07Z</time>
      </trkpt>
      <trkpt lat="45.93108" lon="4.76514">
        <ele>221</ele>
        <time>2018-10-06T08:24:08Z</time>
      </trkpt>
      <trkpt lat="45.93113" lon="4.76519">
        <ele>221</ele>
        <time>2018-10-06T08:24:09Z</time>
      </trkpt>
      <trkpt lat="45.93118" lon="4.76524">
        <ele>220</ele>
        <time>2018-10-06T08:24:10Z</time>
      </trkpt>
      <trkpt lat="45.93123" lon="4.76529">
        <ele>220</ele>
        <time>2018-10-06T08:24:11Z</time>
      </trkpt>
      <trkpt lat="45.93127" lon="4.76536">
        <ele>222</ele>
        <time>2018-10-06T08:24:12Z</time>
      </trkpt>
      <trkpt lat="45.93132" lon="4.76543">
        <ele>222</ele>
        <time>2018-10-06T08:24:13Z</time>
      </trkpt>
      <trkpt lat="45.93137" lon="4.76549">
        <ele>223</ele>
        <time>2018-10-06T08:24:14Z</time>
      </trkpt>
      <trkpt lat="45.93141" lon="4.76555">
        <ele>222</ele>
        <time>2018-10-06T08:24:15Z</time>
      </trkpt>
      <trkpt lat="45.93146" lon="4.7656">
        <ele>221</ele>
        <time>2018-10-06T08:24:16Z</time>
      </trkpt>
      <trkpt lat="45.93155" lon="4.76562">
        <ele>216</ele>
        <time>2018-10-06T08:24:17Z</time>
      </trkpt>
      <trkpt lat="45.93159" lon="4.76566">
        <ele>216</ele>
        <time>2018-10-06T08:24:18Z</time>
      </trkpt>
      <trkpt lat="45.93164" lon="4.76572">
        <ele>215</ele>
        <time>2018-10-06T08:24:19Z</time>
      </trkpt>
      <trkpt lat="45.93168" lon="4.76577">
        <ele>214</ele>
        <time>2018-10-06T08:24:20Z</time>
      </trkpt>
      <trkpt lat="45.93172" lon="4.76583">
        <ele>214</ele>
        <time>2018-10-06T08:24:21Z</time>
      </trkpt>
      <trkpt lat="45.93176" lon="4.76587">
        <ele>214</ele>
        <time>2018-10-06T08:24:22Z</time>
      </trkpt>
      <trkpt lat="45.9318" lon="4.76591">
        <ele>213</ele>
        <time>2018-10-06T08:24:23Z</time>
      </trkpt>
      <trkpt lat="45.93185" lon="4.76596">
        <ele>212</ele>
        <time>2018-10-06T08:24:24Z</time>
      </trkpt>
      <trkpt lat="45.93189" lon="4.76601">
        <ele>218</ele>
        <time>2018-10-06T08:24:25Z</time>
      </trkpt>
      <trkpt lat="45.93193" lon="4.76605">
        <ele>217</ele>
        <time>2018-10-06T08:24:26Z</time>
      </trkpt>
      <trkpt lat="45.93198" lon="4.76609">
        <ele>215</ele>
        <time>2018-10-06T08:24:27Z</time>
      </trkpt>
      <trkpt lat="45.93202" lon="4.7661">
        <ele>213</ele>
        <time>2018-10-06T08:24:28Z</time>
      </trkpt>
      <trkpt lat="45.93207" lon="4.76615">
        <ele>213</ele>
        <time>2018-10-06T08:24:29Z</time>
      </trkpt>
      <trkpt lat="45.93212" lon="4.7662">
        <ele>212</ele>
        <time>2018-10-06T08:24:30Z</time>
      </trkpt>
      <trkpt lat="45.93216" lon="4.76624">
        <ele>212</ele>
        <time>2018-10-06T08:24:31Z</time>
      </trkpt>
      <trkpt lat="45.93221" lon="4.76628">
        <ele>212</ele>
        <time>2018-10-06T08:24:32Z</time>
      </trkpt>
      <trkpt lat="45.93226" lon="4.76635">
        <ele>212</ele>
        <time>2018-10-06T08:24:33Z</time>
      </trkpt>
      <trkpt lat="45.93231" lon="4.7664">
        <ele>212</ele>
        <time>2018-10-06T08:24:34Z</time>
      </trkpt>
      <trkpt lat="45.93235" lon="4.76644">
        <ele>213</ele>
        <time>2018-10-06T08:24:35Z</time>
      </trkpt>
      <trkpt lat="45.9324" lon="4.76648">
        <ele>213</ele>
        <time>2018-10-06T08:24:36Z</time>
      </trkpt>
      <trkpt lat="45.93244" lon="4.76652">
        <ele>213</ele>
        <time>2018-10-06T08:24:37Z</time>
      </trkpt>
      <trkpt lat="45.93249" lon="4.76656">
        <ele>214</ele>
        <time>2018-10-06T08:24:38Z</time>
      </trkpt>
      <trkpt lat="45.93252" lon="4.76661">
        <ele>215</ele>
        <time>2018-10-06T08:24:39Z</time>
      </trkpt>
      <trkpt lat="45.93257" lon="4.76664">
        <ele>216</ele>
        <time>2018-10-06T08:24:40Z</time>
      </trkpt>
      <trkpt lat="45.93262" lon="4.76668">
        <ele>216</ele>
        <time>2018-10-06T08:24:41Z</time>
      </trkpt>
      <trkpt lat="45.93266" lon="4.76673">
        <ele>217</ele>
        <time>2018-10-06T08:24:42Z</time>
      </trkpt>
      <trkpt lat="45.9327" lon="4.76677">
        <ele>217</ele>
        <time>2018-10-06T08:24:43Z</time>
      </trkpt>
      <trkpt lat="45.93275" lon="4.76682">
        <ele>218</ele>
        <time>2018-10-06T08:24:44Z</time>
      </trkpt>
      <trkpt lat="45.93278" lon="4.76687">
        <ele>219</ele>
        <time>2018-10-06T08:24:45Z</time>
      </trkpt>
      <trkpt lat="45.93282" lon="4.76691">
        <ele>220</ele>
        <time>2018-10-06T08:24:46Z</time>
      </trkpt>
      <trkpt lat="45.93287" lon="4.76697">
        <ele>221</ele>
        <time>2018-10-06T08:24:47Z</time>
      </trkpt>
      <trkpt lat="45.93292" lon="4.76702">
        <ele>222</ele>
        <time>2018-10-06T08:24:48Z</time>
      </trkpt>
      <trkpt lat="45.93297" lon="4.76706">
        <ele>221</ele>
        <time>2018-10-06T08:24:49Z</time>
      </trkpt>
      <trkpt lat="45.93301" lon="4.76711">
        <ele>221</ele>
        <time>2018-10-06T08:24:50Z</time>
      </trkpt>
      <trkpt lat="45.93307" lon="4.76716">
        <ele>221</ele>
        <time>2018-10-06T08:24:51Z</time>
      </trkpt>
      <trkpt lat="45.93312" lon="4.76721">
        <ele>222</ele>
        <time>2018-10-06T08:24:52Z</time>
      </trkpt>
      <trkpt lat="45.93318" lon="4.76725">
        <ele>222</ele>
        <time>2018-10-06T08:24:53Z</time>
      </trkpt>
      <trkpt lat="45.93323" lon="4.76729">
        <ele>221</ele>
        <time>2018-10-06T08:24:54Z</time>
      </trkpt>
      <trkpt lat="45.93329" lon="4.76735">
        <ele>221</ele>
        <time>2018-10-06T08:24:55Z</time>
      </trkpt>
      <trkpt lat="45.93334" lon="4.76739">
        <ele>221</ele>
        <time>2018-10-06T08:24:56Z</time>
      </trkpt>
      <trkpt lat="45.93339" lon="4.76744">
        <ele>221</ele>
        <time>2018-10-06T08:24:57Z</time>
      </trkpt>
      <trkpt lat="45.93344" lon="4.7675">
        <ele>221</ele>
        <time>2018-10-06T08:24:58Z</time>
      </trkpt>
      <trkpt lat="45.93349" lon="4.76755">
        <ele>221</ele>
        <time>2018-10-06T08:24:59Z</time>
      </trkpt>
      <trkpt lat="45.93353" lon="4.76759">
        <ele>221</ele>
        <time>2018-10-06T08:25:00Z</time>
      </trkpt>
      <trkpt lat="45.93358" lon="4.76762">
        <ele>221</ele>
        <time>2018-10-06T08:25:01Z</time>
      </trkpt>
      <trkpt lat="45.93361" lon="4.76766">
        <ele>221</ele>
        <time>2018-10-06T08:25:02Z</time>
      </trkpt>
      <trkpt lat="45.93366" lon="4.76771">
        <ele>221</ele>
        <time>2018-10-06T08:25:03Z</time>
      </trkpt>
      <trkpt lat="45.93371" lon="4.76775">
        <ele>221</ele>
        <time>2018-10-06T08:25:04Z</time>
      </trkpt>
      <trkpt lat="45.93375" lon="4.7678">
        <ele>221</ele>
        <time>2018-10-06T08:25:05Z</time>
      </trkpt>
      <trkpt lat="45.93379" lon="4.76785">
        <ele>221</ele>
        <time>2018-10-06T08:25:06Z</time>
      </trkpt>
      <trkpt lat="45.93384" lon="4.76789">
        <ele>221</ele>
        <time>2018-10-06T08:25:07Z</time>
      </trkpt>
      <trkpt lat="45.93388" lon="4.76795">
        <ele>220</ele>
        <time>2018-10-06T08:25:08Z</time>
      </trkpt>
      <trkpt lat="45.93393" lon="4.768">
        <ele>221</ele>
        <time>2018-10-06T08:25:09Z</time>
      </trkpt>
      <trkpt lat="45.93397" lon="4.76807">
        <ele>220</ele>
        <time>2018-10-06T08:25:10Z</time>
      </trkpt>
      <trkpt lat="45.93402" lon="4.76813">
        <ele>221</ele>
        <time>2018-10-06T08:25:11Z</time>
      </trkpt>
      <trkpt lat="45.93407" lon="4.76821">
        <ele>220</ele>
        <time>2018-10-06T08:25:12Z</time>
      </trkpt>
      <trkpt lat="45.93411" lon="4.76827">
        <ele>220</ele>
        <time>2018-10-06T08:25:13Z</time>
      </trkpt>
      <trkpt lat="45.93415" lon="4.76834">
        <ele>220</ele>
        <time>2018-10-06T08:25:14Z</time>
      </trkpt>
      <trkpt lat="45.93418" lon="4.7684">
        <ele>221</ele>
        <time>2018-10-06T08:25:15Z</time>
      </trkpt>
      <trkpt lat="45.93421" lon="4.76846">
        <ele>221</ele>
        <time>2018-10-06T08:25:16Z</time>
      </trkpt>
      <trkpt lat="45.93424" lon="4.76853">
        <ele>221</ele>
        <time>2018-10-06T08:25:17Z</time>
      </trkpt>
      <trkpt lat="45.93427" lon="4.76859">
        <ele>220</ele>
        <time>2018-10-06T08:25:18Z</time>
      </trkpt>
      <trkpt lat="45.9343" lon="4.76866">
        <ele>220</ele>
        <time>2018-10-06T08:25:19Z</time>
      </trkpt>
      <trkpt lat="45.93432" lon="4.76873">
        <ele>220</ele>
        <time>2018-10-06T08:25:20Z</time>
      </trkpt>
      <trkpt lat="45.93434" lon="4.76879">
        <ele>220</ele>
        <time>2018-10-06T08:25:21Z</time>
      </trkpt>
      <trkpt lat="45.93437" lon="4.76884">
        <ele>219</ele>
        <time>2018-10-06T08:25:22Z</time>
      </trkpt>
      <trkpt lat="45.93439" lon="4.76892">
        <ele>219</ele>
        <time>2018-10-06T08:25:23Z</time>
      </trkpt>
      <trkpt lat="45.93441" lon="4.76898">
        <ele>218</ele>
        <time>2018-10-06T08:25:24Z</time>
      </trkpt>
      <trkpt lat="45.93443" lon="4.76906">
        <ele>219</ele>
        <time>2018-10-06T08:25:25Z</time>
      </trkpt>
      <trkpt lat="45.93446" lon="4.76913">
        <ele>218</ele>
        <time>2018-10-06T08:25:26Z</time>
      </trkpt>
      <trkpt lat="45.93448" lon="4.76921">
        <ele>218</ele>
        <time>2018-10-06T08:25:27Z</time>
      </trkpt>
      <trkpt lat="45.93449" lon="4.76928">
        <ele>218</ele>
        <time>2018-10-06T08:25:28Z</time>
      </trkpt>
      <trkpt lat="45.93451" lon="4.76935">
        <ele>218</ele>
        <time>2018-10-06T08:25:29Z</time>
      </trkpt>
      <trkpt lat="45.93452" lon="4.76943">
        <ele>218</ele>
        <time>2018-10-06T08:25:30Z</time>
      </trkpt>
      <trkpt lat="45.93453" lon="4.76951">
        <ele>218</ele>
        <time>2018-10-06T08:25:31Z</time>
      </trkpt>
      <trkpt lat="45.93454" lon="4.76958">
        <ele>219</ele>
        <time>2018-10-06T08:25:32Z</time>
      </trkpt>
      <trkpt lat="45.93454" lon="4.76965">
        <ele>219</ele>
        <time>2018-10-06T08:25:33Z</time>
      </trkpt>
      <trkpt lat="45.93455" lon="4.76972">
        <ele>219</ele>
        <time>2018-10-06T08:25:34Z</time>
      </trkpt>
      <trkpt lat="45.93456" lon="4.76978">
        <ele>220</ele>
        <time>2018-10-06T08:25:35Z</time>
      </trkpt>
      <trkpt lat="45.93457" lon="4.76985">
        <ele>220</ele>
        <time>2018-10-06T08:25:36Z</time>
      </trkpt>
      <trkpt lat="45.93459" lon="4.76993">
        <ele>219</ele>
        <time>2018-10-06T08:25:37Z</time>
      </trkpt>
      <trkpt lat="45.93459" lon="4.77">
        <ele>219</ele>
        <time>2018-10-06T08:25:38Z</time>
      </trkpt>
      <trkpt lat="45.93461" lon="4.77007">
        <ele>219</ele>
        <time>2018-10-06T08:25:39Z</time>
      </trkpt>
      <trkpt lat="45.93462" lon="4.77014">
        <ele>219</ele>
        <time>2018-10-06T08:25:40Z</time>
      </trkpt>
      <trkpt lat="45.93464" lon="4.77021">
        <ele>219</ele>
        <time>2018-10-06T08:25:41Z</time>
      </trkpt>
      <trkpt lat="45.93466" lon="4.77029">
        <ele>219</ele>
        <time>2018-10-06T08:25:42Z</time>
      </trkpt>
      <trkpt lat="45.93467" lon="4.77036">
        <ele>219</ele>
        <time>2018-10-06T08:25:43Z</time>
      </trkpt>
      <trkpt lat="45.93468" lon="4.77043">
        <ele>219</ele>
        <time>2018-10-06T08:25:44Z</time>
      </trkpt>
      <trkpt lat="45.93469" lon="4.7705">
        <ele>219</ele>
        <time>2018-10-06T08:25:45Z</time>
      </trkpt>
      <trkpt lat="45.9347" lon="4.77057">
        <ele>219</ele>
        <time>2018-10-06T08:25:46Z</time>
      </trkpt>
      <trkpt lat="45.93473" lon="4.77068">
        <ele>220</ele>
        <time>2018-10-06T08:25:48Z</time>
      </trkpt>
      <trkpt lat="45.93474" lon="4.77074">
        <ele>220</ele>
        <time>2018-10-06T08:25:49Z</time>
      </trkpt>
      <trkpt lat="45.93476" lon="4.77081">
        <ele>220</ele>
        <time>2018-10-06T08:25:50Z</time>
      </trkpt>
      <trkpt lat="45.93477" lon="4.77088">
        <ele>220</ele>
        <time>2018-10-06T08:25:51Z</time>
      </trkpt>
      <trkpt lat="45.93478" lon="4.77095">
        <ele>220</ele>
        <time>2018-10-06T08:25:52Z</time>
      </trkpt>
      <trkpt lat="45.93479" lon="4.77102">
        <ele>220</ele>
        <time>2018-10-06T08:25:53Z</time>
      </trkpt>
      <trkpt lat="45.9348" lon="4.77109">
        <ele>220</ele>
        <time>2018-10-06T08:25:54Z</time>
      </trkpt>
      <trkpt lat="45.93482" lon="4.77116">
        <ele>220</ele>
        <time>2018-10-06T08:25:55Z</time>
      </trkpt>
      <trkpt lat="45.93483" lon="4.77123">
        <ele>220</ele>
        <time>2018-10-06T08:25:56Z</time>
      </trkpt>
      <trkpt lat="45.93484" lon="4.7713">
        <ele>220</ele>
        <time>2018-10-06T08:25:57Z</time>
      </trkpt>
      <trkpt lat="45.93485" lon="4.77138">
        <ele>220</ele>
        <time>2018-10-06T08:25:58Z</time>
      </trkpt>
      <trkpt lat="45.93486" lon="4.77145">
        <ele>221</ele>
        <time>2018-10-06T08:25:59Z</time>
      </trkpt>
      <trkpt lat="45.93487" lon="4.77151">
        <ele>221</ele>
        <time>2018-10-06T08:26:00Z</time>
      </trkpt>
      <trkpt lat="45.93488" lon="4.77158">
        <ele>221</ele>
        <time>2018-10-06T08:26:01Z</time>
      </trkpt>
      <trkpt lat="45.9349" lon="4.77164">
        <ele>221</ele>
        <time>2018-10-06T08:26:02Z</time>
      </trkpt>
      <trkpt lat="45.93491" lon="4.77171">
        <ele>220</ele>
        <time>2018-10-06T08:26:03Z</time>
      </trkpt>
      <trkpt lat="45.93492" lon="4.77178">
        <ele>220</ele>
        <time>2018-10-06T08:26:04Z</time>
      </trkpt>
      <trkpt lat="45.93494" lon="4.77185">
        <ele>220</ele>
        <time>2018-10-06T08:26:05Z</time>
      </trkpt>
      <trkpt lat="45.93496" lon="4.77192">
        <ele>220</ele>
        <time>2018-10-06T08:26:06Z</time>
      </trkpt>
      <trkpt lat="45.93497" lon="4.77199">
        <ele>220</ele>
        <time>2018-10-06T08:26:07Z</time>
      </trkpt>
      <trkpt lat="45.93499" lon="4.77206">
        <ele>220</ele>
        <time>2018-10-06T08:26:08Z</time>
      </trkpt>
      <trkpt lat="45.935" lon="4.77213">
        <ele>220</ele>
        <time>2018-10-06T08:26:09Z</time>
      </trkpt>
      <trkpt lat="45.93502" lon="4.77219">
        <ele>220</ele>
        <time>2018-10-06T08:26:10Z</time>
      </trkpt>
      <trkpt lat="45.93503" lon="4.77226">
        <ele>220</ele>
        <time>2018-10-06T08:26:11Z</time>
      </trkpt>
      <trkpt lat="45.93504" lon="4.77234">
        <ele>220</ele>
        <time>2018-10-06T08:26:12Z</time>
      </trkpt>
      <trkpt lat="45.93506" lon="4.77241">
        <ele>220</ele>
        <time>2018-10-06T08:26:13Z</time>
      </trkpt>
      <trkpt lat="45.93507" lon="4.77249">
        <ele>220</ele>
        <time>2018-10-06T08:26:14Z</time>
      </trkpt>
      <trkpt lat="45.93509" lon="4.77256">
        <ele>221</ele>
        <time>2018-10-06T08:26:15Z</time>
      </trkpt>
      <trkpt lat="45.9351" lon="4.77263">
        <ele>221</ele>
        <time>2018-10-06T08:26:16Z</time>
      </trkpt>
      <trkpt lat="45.93513" lon="4.77271">
        <ele>221</ele>
        <time>2018-10-06T08:26:17Z</time>
      </trkpt>
      <trkpt lat="45.93514" lon="4.77278">
        <ele>221</ele>
        <time>2018-10-06T08:26:18Z</time>
      </trkpt>
      <trkpt lat="45.93517" lon="4.77287">
        <ele>220</ele>
        <time>2018-10-06T08:26:19Z</time>
      </trkpt>
      <trkpt lat="45.93519" lon="4.77293">
        <ele>219</ele>
        <time>2018-10-06T08:26:20Z</time>
      </trkpt>
      <trkpt lat="45.93521" lon="4.773">
        <ele>219</ele>
        <time>2018-10-06T08:26:21Z</time>
      </trkpt>
      <trkpt lat="45.93523" lon="4.77306">
        <ele>218</ele>
        <time>2018-10-06T08:26:22Z</time>
      </trkpt>
      <trkpt lat="45.93524" lon="4.77314">
        <ele>219</ele>
        <time>2018-10-06T08:26:23Z</time>
      </trkpt>
      <trkpt lat="45.93525" lon="4.7732">
        <ele>219</ele>
        <time>2018-10-06T08:26:24Z</time>
      </trkpt>
      <trkpt lat="45.93527" lon="4.77326">
        <ele>219</ele>
        <time>2018-10-06T08:26:25Z</time>
      </trkpt>
      <trkpt lat="45.93528" lon="4.77332">
        <ele>220</ele>
        <time>2018-10-06T08:26:26Z</time>
      </trkpt>
      <trkpt lat="45.9353" lon="4.7734">
        <ele>219</ele>
        <time>2018-10-06T08:26:27Z</time>
      </trkpt>
      <trkpt lat="45.93531" lon="4.77347">
        <ele>219</ele>
        <time>2018-10-06T08:26:28Z</time>
      </trkpt>
      <trkpt lat="45.93532" lon="4.77353">
        <ele>219</ele>
        <time>2018-10-06T08:26:29Z</time>
      </trkpt>
      <trkpt lat="45.93534" lon="4.77359">
        <ele>219</ele>
        <time>2018-10-06T08:26:30Z</time>
      </trkpt>
      <trkpt lat="45.93535" lon="4.77366">
        <ele>219</ele>
        <time>2018-10-06T08:26:31Z</time>
      </trkpt>
      <trkpt lat="45.93537" lon="4.77373">
        <ele>219</ele>
        <time>2018-10-06T08:26:32Z</time>
      </trkpt>
      <trkpt lat="45.93539" lon="4.7738">
        <ele>218</ele>
        <time>2018-10-06T08:26:33Z</time>
      </trkpt>
      <trkpt lat="45.93541" lon="4.77386">
        <ele>219</ele>
        <time>2018-10-06T08:26:34Z</time>
      </trkpt>
      <trkpt lat="45.93542" lon="4.77393">
        <ele>218</ele>
        <time>2018-10-06T08:26:35Z</time>
      </trkpt>
      <trkpt lat="45.93543" lon="4.774">
        <ele>219</ele>
        <time>2018-10-06T08:26:36Z</time>
      </trkpt>
      <trkpt lat="45.93545" lon="4.77407">
        <ele>219</ele>
        <time>2018-10-06T08:26:37Z</time>
      </trkpt>
      <trkpt lat="45.93547" lon="4.77415">
        <ele>219</ele>
        <time>2018-10-06T08:26:38Z</time>
      </trkpt>
      <trkpt lat="45.93548" lon="4.77422">
        <ele>219</ele>
        <time>2018-10-06T08:26:39Z</time>
      </trkpt>
      <trkpt lat="45.9355" lon="4.77431">
        <ele>219</ele>
        <time>2018-10-06T08:26:40Z</time>
      </trkpt>
      <trkpt lat="45.93552" lon="4.77438">
        <ele>219</ele>
        <time>2018-10-06T08:26:41Z</time>
      </trkpt>
      <trkpt lat="45.93553" lon="4.77446">
        <ele>219</ele>
        <time>2018-10-06T08:26:42Z</time>
      </trkpt>
      <trkpt lat="45.93554" lon="4.77454">
        <ele>219</ele>
        <time>2018-10-06T08:26:43Z</time>
      </trkpt>
      <trkpt lat="45.93556" lon="4.77461">
        <ele>219</ele>
        <time>2018-10-06T08:26:44Z</time>
      </trkpt>
      <trkpt lat="45.93558" lon="4.77468">
        <ele>219</ele>
        <time>2018-10-06T08:26:45Z</time>
      </trkpt>
      <trkpt lat="45.9356" lon="4.77475">
        <ele>219</ele>
        <time>2018-10-06T08:26:46Z</time>
      </trkpt>
      <trkpt lat="45.9356" lon="4.77481">
        <ele>221</ele>
        <time>2018-10-06T08:26:47Z</time>
      </trkpt>
      <trkpt lat="45.93562" lon="4.77488">
        <ele>222</ele>
        <time>2018-10-06T08:26:48Z</time>
      </trkpt>
      <trkpt lat="45.93563" lon="4.77495">
        <ele>222</ele>
        <time>2018-10-06T08:26:49Z</time>
      </trkpt>
      <trkpt lat="45.93565" lon="4.77508">
        <ele>222</ele>
        <time>2018-10-06T08:26:51Z</time>
      </trkpt>
      <trkpt lat="45.93566" lon="4.77514">
        <ele>222</ele>
        <time>2018-10-06T08:26:52Z</time>
      </trkpt>
      <trkpt lat="45.93568" lon="4.77521">
        <ele>222</ele>
        <time>2018-10-06T08:26:53Z</time>
      </trkpt>
      <trkpt lat="45.9357" lon="4.77527">
        <ele>223</ele>
        <time>2018-10-06T08:26:54Z</time>
      </trkpt>
      <trkpt lat="45.93572" lon="4.77533">
        <ele>222</ele>
        <time>2018-10-06T08:26:55Z</time>
      </trkpt>
      <trkpt lat="45.93575" lon="4.77541">
        <ele>222</ele>
        <time>2018-10-06T08:26:56Z</time>
      </trkpt>
      <trkpt lat="45.93577" lon="4.77548">
        <ele>222</ele>
        <time>2018-10-06T08:26:57Z</time>
      </trkpt>
      <trkpt lat="45.93578" lon="4.77556">
        <ele>222</ele>
        <time>2018-10-06T08:26:58Z</time>
      </trkpt>
      <trkpt lat="45.9358" lon="4.77563">
        <ele>223</ele>
        <time>2018-10-06T08:26:59Z</time>
      </trkpt>
      <trkpt lat="45.93583" lon="4.7757">
        <ele>223</ele>
        <time>2018-10-06T08:27:00Z</time>
      </trkpt>
      <trkpt lat="45.93585" lon="4.77576">
        <ele>222</ele>
        <time>2018-10-06T08:27:01Z</time>
      </trkpt>
      <trkpt lat="45.93587" lon="4.77581">
        <ele>223</ele>
        <time>2018-10-06T08:27:02Z</time>
      </trkpt>
      <trkpt lat="45.9359" lon="4.77587">
        <ele>223</ele>
        <time>2018-10-06T08:27:03Z</time>
      </trkpt>
      <trkpt lat="45.93592" lon="4.77594">
        <ele>224</ele>
        <time>2018-10-06T08:27:04Z</time>
      </trkpt>
      <trkpt lat="45.93594" lon="4.776">
        <ele>224</ele>
        <time>2018-10-06T08:27:05Z</time>
      </trkpt>
      <trkpt lat="45.93596" lon="4.77607">
        <ele>225</ele>
        <time>2018-10-06T08:27:06Z</time>
      </trkpt>
      <trkpt lat="45.93599" lon="4.77614">
        <ele>225</ele>
        <time>2018-10-06T08:27:07Z</time>
      </trkpt>
      <trkpt lat="45.93601" lon="4.77621">
        <ele>225</ele>
        <time>2018-10-06T08:27:08Z</time>
      </trkpt>
      <trkpt lat="45.93603" lon="4.77627">
        <ele>225</ele>
        <time>2018-10-06T08:27:09Z</time>
      </trkpt>
      <trkpt lat="45.93606" lon="4.77634">
        <ele>225</ele>
        <time>2018-10-06T08:27:10Z</time>
      </trkpt>
      <trkpt lat="45.93607" lon="4.77641">
        <ele>226</ele>
        <time>2018-10-06T08:27:11Z</time>
      </trkpt>
      <trkpt lat="45.93609" lon="4.77646">
        <ele>226</ele>
        <time>2018-10-06T08:27:12Z</time>
      </trkpt>
      <trkpt lat="45.93613" lon="4.77656">
        <ele>226</ele>
        <time>2018-10-06T08:27:14Z</time>
      </trkpt>
      <trkpt lat="45.93616" lon="4.77662">
        <ele>226</ele>
        <time>2018-10-06T08:27:15Z</time>
      </trkpt>
      <trkpt lat="45.93621" lon="4.77672">
        <ele>225</ele>
        <time>2018-10-06T08:27:17Z</time>
      </trkpt>
      <trkpt lat="45.93624" lon="4.77677">
        <ele>225</ele>
        <time>2018-10-06T08:27:18Z</time>
      </trkpt>
      <trkpt lat="45.93627" lon="4.77683">
        <ele>224</ele>
        <time>2018-10-06T08:27:19Z</time>
      </trkpt>
      <trkpt lat="45.9363" lon="4.77689">
        <ele>223</ele>
        <time>2018-10-06T08:27:20Z</time>
      </trkpt>
      <trkpt lat="45.93633" lon="4.77695">
        <ele>223</ele>
        <time>2018-10-06T08:27:21Z</time>
      </trkpt>
      <trkpt lat="45.93635" lon="4.777">
        <ele>223</ele>
        <time>2018-10-06T08:27:22Z</time>
      </trkpt>
      <trkpt lat="45.93641" lon="4.7771">
        <ele>223</ele>
        <time>2018-10-06T08:27:24Z</time>
      </trkpt>
      <trkpt lat="45.93643" lon="4.77715">
        <ele>223</ele>
        <time>2018-10-06T08:27:25Z</time>
      </trkpt>
      <trkpt lat="45.93648" lon="4.77725">
        <ele>221</ele>
        <time>2018-10-06T08:27:27Z</time>
      </trkpt>
      <trkpt lat="45.9365" lon="4.77727">
        <ele>222</ele>
        <time>2018-10-06T08:27:28Z</time>
      </trkpt>
      <trkpt lat="45.93655" lon="4.77737">
        <ele>221</ele>
        <time>2018-10-06T08:27:30Z</time>
      </trkpt>
      <trkpt lat="45.93656" lon="4.7774">
        <ele>221</ele>
        <time>2018-10-06T08:27:31Z</time>
      </trkpt>
      <trkpt lat="45.93661" lon="4.77748">
        <ele>221</ele>
        <time>2018-10-06T08:27:34Z</time>
      </trkpt>
      <trkpt lat="45.93663" lon="4.77751">
        <ele>221</ele>
        <time>2018-10-06T08:27:35Z</time>
      </trkpt>
      <trkpt lat="45.93668" lon="4.77758">
        <ele>221</ele>
        <time>2018-10-06T08:27:37Z</time>
      </trkpt>
      <trkpt lat="45.9367" lon="4.77761">
        <ele>221</ele>
        <time>2018-10-06T08:27:38Z</time>
      </trkpt>
      <trkpt lat="45.93674" lon="4.77768">
        <ele>221</ele>
        <time>2018-10-06T08:27:40Z</time>
      </trkpt>
      <trkpt lat="45.93681" lon="4.77779">
        <ele>222</ele>
        <time>2018-10-06T08:27:41Z</time>
      </trkpt>
      <trkpt lat="45.93684" lon="4.77783">
        <ele>222</ele>
        <time>2018-10-06T08:27:43Z</time>
      </trkpt>
      <trkpt lat="45.93689" lon="4.77789">
        <ele>222</ele>
        <time>2018-10-06T08:27:44Z</time>
      </trkpt>
      <trkpt lat="45.93694" lon="4.77797">
        <ele>223</ele>
        <time>2018-10-06T08:27:46Z</time>
      </trkpt>
      <trkpt lat="45.93697" lon="4.77801">
        <ele>223</ele>
        <time>2018-10-06T08:27:47Z</time>
      </trkpt>
      <trkpt lat="45.93703" lon="4.77809">
        <ele>223</ele>
        <time>2018-10-06T08:27:49Z</time>
      </trkpt>
      <trkpt lat="45.93705" lon="4.77812">
        <ele>224</ele>
        <time>2018-10-06T08:27:50Z</time>
      </trkpt>
      <trkpt lat="45.93711" lon="4.7782">
        <ele>225</ele>
        <time>2018-10-06T08:27:52Z</time>
      </trkpt>
      <trkpt lat="45.93713" lon="4.77823">
        <ele>225</ele>
        <time>2018-10-06T08:27:53Z</time>
      </trkpt>
      <trkpt lat="45.93719" lon="4.77831">
        <ele>225</ele>
        <time>2018-10-06T08:27:55Z</time>
      </trkpt>
      <trkpt lat="45.93722" lon="4.77835">
        <ele>226</ele>
        <time>2018-10-06T08:27:56Z</time>
      </trkpt>
      <trkpt lat="45.93728" lon="4.77843">
        <ele>226</ele>
        <time>2018-10-06T08:27:58Z</time>
      </trkpt>
      <trkpt lat="45.93731" lon="4.77847">
        <ele>226</ele>
        <time>2018-10-06T08:27:59Z</time>
      </trkpt>
      <trkpt lat="45.93737" lon="4.77855">
        <ele>226</ele>
        <time>2018-10-06T08:28:01Z</time>
      </trkpt>
      <trkpt lat="45.9374" lon="4.77859">
        <ele>227</ele>
        <time>2018-10-06T08:28:02Z</time>
      </trkpt>
      <trkpt lat="45.93747" lon="4.77867">
        <ele>227</ele>
        <time>2018-10-06T08:28:04Z</time>
      </trkpt>
      <trkpt lat="45.9375" lon="4.77871">
        <ele>227</ele>
        <time>2018-10-06T08:28:05Z</time>
      </trkpt>
      <trkpt lat="45.93755" lon="4.77879">
        <ele>227</ele>
        <time>2018-10-06T08:28:07Z</time>
      </trkpt>
      <trkpt lat="45.93758" lon="4.77883">
        <ele>227</ele>
        <time>2018-10-06T08:28:08Z</time>
      </trkpt>
      <trkpt lat="45.93764" lon="4.77891">
        <ele>226</ele>
        <time>2018-10-06T08:28:10Z</time>
      </trkpt>
      <trkpt lat="45.93768" lon="4.77895">
        <ele>227</ele>
        <time>2018-10-06T08:28:11Z</time>
      </trkpt>
      <trkpt lat="45.93772" lon="4.77898">
        <ele>227</ele>
        <time>2018-10-06T08:28:12Z</time>
      </trkpt>
      <trkpt lat="45.93776" lon="4.77903">
        <ele>226</ele>
        <time>2018-10-06T08:28:13Z</time>
      </trkpt>
      <trkpt lat="45.9378" lon="4.77907">
        <ele>225</ele>
        <time>2018-10-06T08:28:14Z</time>
      </trkpt>
      <trkpt lat="45.93783" lon="4.77912">
        <ele>225</ele>
        <time>2018-10-06T08:28:15Z</time>
      </trkpt>
      <trkpt lat="45.93787" lon="4.77917">
        <ele>225</ele>
        <time>2018-10-06T08:28:16Z</time>
      </trkpt>
      <trkpt lat="45.9379" lon="4.77922">
        <ele>224</ele>
        <time>2018-10-06T08:28:17Z</time>
      </trkpt>
      <trkpt lat="45.93797" lon="4.77931">
        <ele>224</ele>
        <time>2018-10-06T08:28:19Z</time>
      </trkpt>
      <trkpt lat="45.938" lon="4.77935">
        <ele>224</ele>
        <time>2018-10-06T08:28:20Z</time>
      </trkpt>
      <trkpt lat="45.93807" lon="4.77943">
        <ele>224</ele>
        <time>2018-10-06T08:28:22Z</time>
      </trkpt>
      <trkpt lat="45.9381" lon="4.77948">
        <ele>224</ele>
        <time>2018-10-06T08:28:23Z</time>
      </trkpt>
      <trkpt lat="45.93814" lon="4.77954">
        <ele>224</ele>
        <time>2018-10-06T08:28:24Z</time>
      </trkpt>
      <trkpt lat="45.93818" lon="4.77959">
        <ele>224</ele>
        <time>2018-10-06T08:28:25Z</time>
      </trkpt>
      <trkpt lat="45.93822" lon="4.77964">
        <ele>223</ele>
        <time>2018-10-06T08:28:26Z</time>
      </trkpt>
      <trkpt lat="45.93826" lon="4.77969">
        <ele>223</ele>
        <time>2018-10-06T08:28:27Z</time>
      </trkpt>
      <trkpt lat="45.9383" lon="4.77974">
        <ele>223</ele>
        <time>2018-10-06T08:28:28Z</time>
      </trkpt>
      <trkpt lat="45.93834" lon="4.77979">
        <ele>222</ele>
        <time>2018-10-06T08:28:29Z</time>
      </trkpt>
      <trkpt lat="45.9384" lon="4.77988">
        <ele>222</ele>
        <time>2018-10-06T08:28:31Z</time>
      </trkpt>
      <trkpt lat="45.93841" lon="4.77991">
        <ele>223</ele>
        <time>2018-10-06T08:28:32Z</time>
      </trkpt>
      <trkpt lat="45.93843" lon="4.77998">
        <ele>223</ele>
        <time>2018-10-06T08:28:35Z</time>
      </trkpt>
      <trkpt lat="45.93844" lon="4.78007">
        <ele>223</ele>
        <time>2018-10-06T08:28:36Z</time>
      </trkpt>
      <trkpt lat="45.93844" lon="4.78019">
        <ele>223</ele>
        <time>2018-10-06T08:28:38Z</time>
      </trkpt>
      <trkpt lat="45.93845" lon="4.78025">
        <ele>223</ele>
        <time>2018-10-06T08:28:39Z</time>
      </trkpt>
      <trkpt lat="45.93851" lon="4.78034">
        <ele>223</ele>
        <time>2018-10-06T08:28:41Z</time>
      </trkpt>
      <trkpt lat="45.93855" lon="4.78035">
        <ele>223</ele>
        <time>2018-10-06T08:28:42Z</time>
      </trkpt>
      <trkpt lat="45.93862" lon="4.78035">
        <ele>223</ele>
        <time>2018-10-06T08:28:44Z</time>
      </trkpt>
      <trkpt lat="45.93866" lon="4.78034">
        <ele>223</ele>
        <time>2018-10-06T08:28:45Z</time>
      </trkpt>
      <trkpt lat="45.93874" lon="4.7803">
        <ele>224</ele>
        <time>2018-10-06T08:28:47Z</time>
      </trkpt>
      <trkpt lat="45.93877" lon="4.78028">
        <ele>225</ele>
        <time>2018-10-06T08:28:48Z</time>
      </trkpt>
      <trkpt lat="45.93884" lon="4.78025">
        <ele>225</ele>
        <time>2018-10-06T08:28:51Z</time>
      </trkpt>
      <trkpt lat="45.93886" lon="4.78024">
        <ele>225</ele>
        <time>2018-10-06T08:28:52Z</time>
      </trkpt>
      <trkpt lat="45.93893" lon="4.78017">
        <ele>226</ele>
        <time>2018-10-06T08:28:55Z</time>
      </trkpt>
      <trkpt lat="45.93895" lon="4.78014">
        <ele>227</ele>
        <time>2018-10-06T08:28:56Z</time>
      </trkpt>
      <trkpt lat="45.93901" lon="4.78007">
        <ele>225</ele>
        <time>2018-10-06T08:28:59Z</time>
      </trkpt>
      <trkpt lat="45.93903" lon="4.78005">
        <ele>225</ele>
        <time>2018-10-06T08:29:00Z</time>
      </trkpt>
      <trkpt lat="45.93908" lon="4.77997">
        <ele>228</ele>
        <time>2018-10-06T08:29:03Z</time>
      </trkpt>
      <trkpt lat="45.93909" lon="4.77995">
        <ele>228</ele>
        <time>2018-10-06T08:29:04Z</time>
      </trkpt>
      <trkpt lat="45.93915" lon="4.77987">
        <ele>229</ele>
        <time>2018-10-06T08:29:07Z</time>
      </trkpt>
      <trkpt lat="45.93917" lon="4.77985">
        <ele>230</ele>
        <time>2018-10-06T08:29:08Z</time>
      </trkpt>
      <trkpt lat="45.93923" lon="4.77979">
        <ele>231</ele>
        <time>2018-10-06T08:29:11Z</time>
      </trkpt>
      <trkpt lat="45.93925" lon="4.77977">
        <ele>231</ele>
        <time>2018-10-06T08:29:12Z</time>
      </trkpt>
      <trkpt lat="45.93933" lon="4.77973">
        <ele>234</ele>
        <time>2018-10-06T08:29:16Z</time>
      </trkpt>
      <trkpt lat="45.93935" lon="4.77972">
        <ele>234</ele>
        <time>2018-10-06T08:29:17Z</time>
      </trkpt>
      <trkpt lat="45.93942" lon="4.77968">
        <ele>235</ele>
        <time>2018-10-06T08:29:21Z</time>
      </trkpt>
      <trkpt lat="45.93944" lon="4.77966">
        <ele>235</ele>
        <time>2018-10-06T08:29:22Z</time>
      </trkpt>
      <trkpt lat="45.93952" lon="4.77961">
        <ele>234</ele>
        <time>2018-10-06T08:29:26Z</time>
      </trkpt>
      <trkpt lat="45.93954" lon="4.7796">
        <ele>234</ele>
        <time>2018-10-06T08:29:27Z</time>
      </trkpt>
      <trkpt lat="45.93961" lon="4.77953">
        <ele>234</ele>
        <time>2018-10-06T08:29:31Z</time>
      </trkpt>
      <trkpt lat="45.93963" lon="4.77952">
        <ele>233</ele>
        <time>2018-10-06T08:29:32Z</time>
      </trkpt>
      <trkpt lat="45.93971" lon="4.77946">
        <ele>235</ele>
        <time>2018-10-06T08:29:36Z</time>
      </trkpt>
      <trkpt lat="45.93973" lon="4.77944">
        <ele>234</ele>
        <time>2018-10-06T08:29:37Z</time>
      </trkpt>
      <trkpt lat="45.93979" lon="4.77941">
        <ele>235</ele>
        <time>2018-10-06T08:29:40Z</time>
      </trkpt>
      <trkpt lat="45.93982" lon="4.7794">
        <ele>236</ele>
        <time>2018-10-06T08:29:41Z</time>
      </trkpt>
      <trkpt lat="45.93989" lon="4.77937">
        <ele>236</ele>
        <time>2018-10-06T08:29:45Z</time>
      </trkpt>
      <trkpt lat="45.93991" lon="4.77936">
        <ele>236</ele>
        <time>2018-10-06T08:29:46Z</time>
      </trkpt>
      <trkpt lat="45.93999" lon="4.77932">
        <ele>235</ele>
        <time>2018-10-06T08:29:50Z</time>
      </trkpt>
      <trkpt lat="45.94001" lon="4.77931">
        <ele>235</ele>
        <time>2018-10-06T08:29:51Z</time>
      </trkpt>
      <trkpt lat="45.94008" lon="4.77928">
        <ele>239</ele>
        <time>2018-10-06T08:29:54Z</time>
      </trkpt>
      <trkpt lat="45.9401" lon="4.77927">
        <ele>240</ele>
        <time>2018-10-06T08:29:55Z</time>
      </trkpt>
      <trkpt lat="45.94018" lon="4.77931">
        <ele>244</ele>
        <time>2018-10-06T08:30:01Z</time>
      </trkpt>
      <trkpt lat="45.94019" lon="4.77933">
        <ele>244</ele>
        <time>2018-10-06T08:30:02Z</time>
      </trkpt>
      <trkpt lat="45.94023" lon="4.77942">
        <ele>247</ele>
        <time>2018-10-06T08:30:06Z</time>
      </trkpt>
      <trkpt lat="45.94023" lon="4.77945">
        <ele>244</ele>
        <time>2018-10-06T08:30:07Z</time>
      </trkpt>
      <trkpt lat="45.94023" lon="4.77954">
        <ele>244</ele>
        <time>2018-10-06T08:30:10Z</time>
      </trkpt>
      <trkpt lat="45.94023" lon="4.77958">
        <ele>244</ele>
        <time>2018-10-06T08:30:11Z</time>
      </trkpt>
      <trkpt lat="45.94021" lon="4.77969">
        <ele>243</ele>
        <time>2018-10-06T08:30:14Z</time>
      </trkpt>
      <trkpt lat="45.9402" lon="4.77973">
        <ele>243</ele>
        <time>2018-10-06T08:30:15Z</time>
      </trkpt>
      <trkpt lat="45.94018" lon="4.77985">
        <ele>244</ele>
        <time>2018-10-06T08:30:18Z</time>
      </trkpt>
      <trkpt lat="45.94017" lon="4.77989">
        <ele>244</ele>
        <time>2018-10-06T08:30:19Z</time>
      </trkpt>
      <trkpt lat="45.94015" lon="4.77999">
        <ele>245</ele>
        <time>2018-10-06T08:30:22Z</time>
      </trkpt>
      <trkpt lat="45.94014" lon="4.78003">
        <ele>246</ele>
        <time>2018-10-06T08:30:23Z</time>
      </trkpt>
      <trkpt lat="45.94012" lon="4.78013">
        <ele>246</ele>
        <time>2018-10-06T08:30:26Z</time>
      </trkpt>
      <trkpt lat="45.94011" lon="4.78017">
        <ele>246</ele>
        <time>2018-10-06T08:30:27Z</time>
      </trkpt>
      <trkpt lat="45.94008" lon="4.78028">
        <ele>246</ele>
        <time>2018-10-06T08:30:30Z</time>
      </trkpt>
      <trkpt lat="45.94007" lon="4.78031">
        <ele>247</ele>
        <time>2018-10-06T08:30:31Z</time>
      </trkpt>
      <trkpt lat="45.94005" lon="4.78039">
        <ele>247</ele>
        <time>2018-10-06T08:30:33Z</time>
      </trkpt>
      <trkpt lat="45.94004" lon="4.78043">
        <ele>247</ele>
        <time>2018-10-06T08:30:34Z</time>
      </trkpt>
      <trkpt lat="45.94002" lon="4.78053">
        <ele>247</ele>
        <time>2018-10-06T08:30:36Z</time>
      </trkpt>
      <trkpt lat="45.94001" lon="4.78057">
        <ele>247</ele>
        <time>2018-10-06T08:30:37Z</time>
      </trkpt>
      <trkpt lat="45.93999" lon="4.78069">
        <ele>248</ele>
        <time>2018-10-06T08:30:40Z</time>
      </trkpt>
      <trkpt lat="45.93998" lon="4.78073">
        <ele>248</ele>
        <time>2018-10-06T08:30:41Z</time>
      </trkpt>
      <trkpt lat="45.93996" lon="4.78084">
        <ele>249</ele>
        <time>2018-10-06T08:30:44Z</time>
      </trkpt>
      <trkpt lat="45.93996" lon="4.78087">
        <ele>249</ele>
        <time>2018-10-06T08:30:45Z</time>
      </trkpt>
      <trkpt lat="45.93994" lon="4.781">
        <ele>250</ele>
        <time>2018-10-06T08:30:48Z</time>
      </trkpt>
      <trkpt lat="45.93993" lon="4.78104">
        <ele>249</ele>
        <time>2018-10-06T08:30:49Z</time>
      </trkpt>
      <trkpt lat="45.93992" lon="4.78113">
        <ele>250</ele>
        <time>2018-10-06T08:30:51Z</time>
      </trkpt>
      <trkpt lat="45.93992" lon="4.78118">
        <ele>251</ele>
        <time>2018-10-06T08:30:52Z</time>
      </trkpt>
      <trkpt lat="45.93991" lon="4.78128">
        <ele>251</ele>
        <time>2018-10-06T08:30:54Z</time>
      </trkpt>
      <trkpt lat="45.93991" lon="4.78133">
        <ele>251</ele>
        <time>2018-10-06T08:30:55Z</time>
      </trkpt>
      <trkpt lat="45.9399" lon="4.78143">
        <ele>252</ele>
        <time>2018-10-06T08:30:57Z</time>
      </trkpt>
      <trkpt lat="45.9399" lon="4.78147">
        <ele>251</ele>
        <time>2018-10-06T08:30:58Z</time>
      </trkpt>
      <trkpt lat="45.93993" lon="4.78159">
        <ele>251</ele>
        <time>2018-10-06T08:31:01Z</time>
      </trkpt>
      <trkpt lat="45.93994" lon="4.78161">
        <ele>252</ele>
        <time>2018-10-06T08:31:02Z</time>
      </trkpt>
      <trkpt lat="45.94" lon="4.78166">
        <ele>253</ele>
        <time>2018-10-06T08:31:04Z</time>
      </trkpt>
      <trkpt lat="45.94002" lon="4.78168">
        <ele>254</ele>
        <time>2018-10-06T08:31:05Z</time>
      </trkpt>
      <trkpt lat="45.9401" lon="4.78173">
        <ele>255</ele>
        <time>2018-10-06T08:31:09Z</time>
      </trkpt>
      <trkpt lat="45.94012" lon="4.78174">
        <ele>255</ele>
        <time>2018-10-06T08:31:10Z</time>
      </trkpt>
      <trkpt lat="45.94019" lon="4.78179">
        <ele>254</ele>
        <time>2018-10-06T08:31:14Z</time>
      </trkpt>
      <trkpt lat="45.94021" lon="4.7818">
        <ele>254</ele>
        <time>2018-10-06T08:31:15Z</time>
      </trkpt>
      <trkpt lat="45.94028" lon="4.78186">
        <ele>254</ele>
        <time>2018-10-06T08:31:19Z</time>
      </trkpt>
      <trkpt lat="45.9403" lon="4.78187">
        <ele>254</ele>
        <time>2018-10-06T08:31:20Z</time>
      </trkpt>
      <trkpt lat="45.94038" lon="4.78192">
        <ele>255</ele>
        <time>2018-10-06T08:31:24Z</time>
      </trkpt>
      <trkpt lat="45.94039" lon="4.78193">
        <ele>254</ele>
        <time>2018-10-06T08:31:25Z</time>
      </trkpt>
      <trkpt lat="45.94046" lon="4.78198">
        <ele>253</ele>
        <time>2018-10-06T08:31:28Z</time>
      </trkpt>
      <trkpt lat="45.94048" lon="4.78199">
        <ele>254</ele>
        <time>2018-10-06T08:31:29Z</time>
      </trkpt>
      <trkpt lat="45.94055" lon="4.78202">
        <ele>257</ele>
        <time>2018-10-06T08:31:32Z</time>
      </trkpt>
      <trkpt lat="45.94057" lon="4.78204">
        <ele>255</ele>
        <time>2018-10-06T08:31:33Z</time>
      </trkpt>
      <trkpt lat="45.94064" lon="4.78208">
        <ele>254</ele>
        <time>2018-10-06T08:31:36Z</time>
      </trkpt>
      <trkpt lat="45.94066" lon="4.7821">
        <ele>254</ele>
        <time>2018-10-06T08:31:37Z</time>
      </trkpt>
      <trkpt lat="45.94073" lon="4.78215">
        <ele>254</ele>
        <time>2018-10-06T08:31:40Z</time>
      </trkpt>
      <trkpt lat="45.94075" lon="4.78217">
        <ele>254</ele>
        <time>2018-10-06T08:31:41Z</time>
      </trkpt>
      <trkpt lat="45.94081" lon="4.78221">
        <ele>256</ele>
        <time>2018-10-06T08:31:44Z</time>
      </trkpt>
      <trkpt lat="45.94083" lon="4.78223">
        <ele>257</ele>
        <time>2018-10-06T08:31:45Z</time>
      </trkpt>
      <trkpt lat="45.94089" lon="4.78228">
        <ele>257</ele>
        <time>2018-10-06T08:31:48Z</time>
      </trkpt>
      <trkpt lat="45.94091" lon="4.7823">
        <ele>256</ele>
        <time>2018-10-06T08:31:49Z</time>
      </trkpt>
      <trkpt lat="45.94098" lon="4.78235">
        <ele>255</ele>
        <time>2018-10-06T08:31:52Z</time>
      </trkpt>
      <trkpt lat="45.941" lon="4.78237">
        <ele>255</ele>
        <time>2018-10-06T08:31:53Z</time>
      </trkpt>
      <trkpt lat="45.94107" lon="4.78241">
        <ele>254</ele>
        <time>2018-10-06T08:31:56Z</time>
      </trkpt>
      <trkpt lat="45.94109" lon="4.78243">
        <ele>254</ele>
        <time>2018-10-06T08:31:57Z</time>
      </trkpt>
      <trkpt lat="45.94115" lon="4.78249">
        <ele>253</ele>
        <time>2018-10-06T08:32:00Z</time>
      </trkpt>
      <trkpt lat="45.94116" lon="4.78251">
        <ele>254</ele>
        <time>2018-10-06T08:32:01Z</time>
      </trkpt>
      <trkpt lat="45.94124" lon="4.78257">
        <ele>255</ele>
        <time>2018-10-06T08:32:05Z</time>
      </trkpt>
      <trkpt lat="45.94127" lon="4.78258">
        <ele>255</ele>
        <time>2018-10-06T08:32:06Z</time>
      </trkpt>
      <trkpt lat="45.94133" lon="4.78262">
        <ele>255</ele>
        <time>2018-10-06T08:32:09Z</time>
      </trkpt>
      <trkpt lat="45.94136" lon="4.78263">
        <ele>255</ele>
        <time>2018-10-06T08:32:10Z</time>
      </trkpt>
      <trkpt lat="45.94142" lon="4.78268">
        <ele>255</ele>
        <time>2018-10-06T08:32:13Z</time>
      </trkpt>
      <trkpt lat="45.94145" lon="4.78269">
        <ele>255</ele>
        <time>2018-10-06T08:32:14Z</time>
      </trkpt>
      <trkpt lat="45.94152" lon="4.78273">
        <ele>255</ele>
        <time>2018-10-06T08:32:17Z</time>
      </trkpt>
      <trkpt lat="45.94154" lon="4.78274">
        <ele>255</ele>
        <time>2018-10-06T08:32:18Z</time>
      </trkpt>
      <trkpt lat="45.94161" lon="4.78279">
        <ele>255</ele>
        <time>2018-10-06T08:32:21Z</time>
      </trkpt>
      <trkpt lat="45.94163" lon="4.7828">
        <ele>255</ele>
        <time>2018-10-06T08:32:22Z</time>
      </trkpt>
      <trkpt lat="45.94171" lon="4.78284">
        <ele>255</ele>
        <time>2018-10-06T08:32:23Z</time>
      </trkpt>
      <trkpt lat="45.94173" lon="4.78284">
        <ele>255</ele>
        <time>2018-10-06T08:32:24Z</time>
      </trkpt>
      <trkpt lat="45.94179" lon="4.78287">
        <ele>254</ele>
        <time>2018-10-06T08:32:28Z</time>
      </trkpt>
      <trkpt lat="45.94181" lon="4.78288">
        <ele>254</ele>
        <time>2018-10-06T08:32:29Z</time>
      </trkpt>
      <trkpt lat="45.94188" lon="4.78291">
        <ele>256</ele>
        <time>2018-10-06T08:32:32Z</time>
      </trkpt>
      <trkpt lat="45.94191" lon="4.78292">
        <ele>256</ele>
        <time>2018-10-06T08:32:33Z</time>
      </trkpt>
      <trkpt lat="45.94198" lon="4.78294">
        <ele>257</ele>
        <time>2018-10-06T08:32:36Z</time>
      </trkpt>
      <trkpt lat="45.94201" lon="4.78294">
        <ele>258</ele>
        <time>2018-10-06T08:32:37Z</time>
      </trkpt>
      <trkpt lat="45.94208" lon="4.78295">
        <ele>257</ele>
        <time>2018-10-06T08:32:40Z</time>
      </trkpt>
      <trkpt lat="45.94211" lon="4.78295">
        <ele>257</ele>
        <time>2018-10-06T08:32:41Z</time>
      </trkpt>
      <trkpt lat="45.94218" lon="4.78296">
        <ele>257</ele>
        <time>2018-10-06T08:32:44Z</time>
      </trkpt>
      <trkpt lat="45.94221" lon="4.78297">
        <ele>258</ele>
        <time>2018-10-06T08:32:45Z</time>
      </trkpt>
      <trkpt lat="45.94228" lon="4.78298">
        <ele>259</ele>
        <time>2018-10-06T08:32:48Z</time>
      </trkpt>
      <trkpt lat="45.94231" lon="4.78298">
        <ele>259</ele>
        <time>2018-10-06T08:32:49Z</time>
      </trkpt>
      <trkpt lat="45.94238" lon="4.783">
        <ele>260</ele>
        <time>2018-10-06T08:32:52Z</time>
      </trkpt>
      <trkpt lat="45.94241" lon="4.78301">
        <ele>260</ele>
        <time>2018-10-06T08:32:53Z</time>
      </trkpt>
      <trkpt lat="45.94248" lon="4.78303">
        <ele>261</ele>
        <time>2018-10-06T08:32:56Z</time>
      </trkpt>
      <trkpt lat="45.94251" lon="4.78304">
        <ele>261</ele>
        <time>2018-10-06T08:32:57Z</time>
      </trkpt>
      <trkpt lat="45.94258" lon="4.78308">
        <ele>262</ele>
        <time>2018-10-06T08:33:00Z</time>
      </trkpt>
      <trkpt lat="45.9426" lon="4.78309">
        <ele>262</ele>
        <time>2018-10-06T08:33:01Z</time>
      </trkpt>
      <trkpt lat="45.94266" lon="4.78315">
        <ele>261</ele>
        <time>2018-10-06T08:33:04Z</time>
      </trkpt>
      <trkpt lat="45.94268" lon="4.78317">
        <ele>261</ele>
        <time>2018-10-06T08:33:05Z</time>
      </trkpt>
      <trkpt lat="45.94274" lon="4.78325">
        <ele>261</ele>
        <time>2018-10-06T08:33:08Z</time>
      </trkpt>
      <trkpt lat="45.94276" lon="4.78327">
        <ele>259</ele>
        <time>2018-10-06T08:33:09Z</time>
      </trkpt>
      <trkpt lat="45.94282" lon="4.78332">
        <ele>259</ele>
        <time>2018-10-06T08:33:12Z</time>
      </trkpt>
      <trkpt lat="45.94284" lon="4.78333">
        <ele>260</ele>
        <time>2018-10-06T08:33:13Z</time>
      </trkpt>
      <trkpt lat="45.9429" lon="4.78339">
        <ele>259</ele>
        <time>2018-10-06T08:33:16Z</time>
      </trkpt>
      <trkpt lat="45.94292" lon="4.78341">
        <ele>259</ele>
        <time>2018-10-06T08:33:17Z</time>
      </trkpt>
      <trkpt lat="45.94297" lon="4.78349">
        <ele>260</ele>
        <time>2018-10-06T08:33:21Z</time>
      </trkpt>
      <trkpt lat="45.94298" lon="4.78352">
        <ele>261</ele>
        <time>2018-10-06T08:33:22Z</time>
      </trkpt>
      <trkpt lat="45.94304" lon="4.78362">
        <ele>262</ele>
        <time>2018-10-06T08:33:26Z</time>
      </trkpt>
      <trkpt lat="45.94305" lon="4.78364">
        <ele>262</ele>
        <time>2018-10-06T08:33:27Z</time>
      </trkpt>
      <trkpt lat="45.9431" lon="4.78372">
        <ele>263</ele>
        <time>2018-10-06T08:33:30Z</time>
      </trkpt>
      <trkpt lat="45.94311" lon="4.78375">
        <ele>264</ele>
        <time>2018-10-06T08:33:31Z</time>
      </trkpt>
      <trkpt lat="45.94316" lon="4.78383">
        <ele>264</ele>
        <time>2018-10-06T08:33:34Z</time>
      </trkpt>
      <trkpt lat="45.94317" lon="4.78386">
        <ele>264</ele>
        <time>2018-10-06T08:33:35Z</time>
      </trkpt>
      <trkpt lat="45.94321" lon="4.78394">
        <ele>264</ele>
        <time>2018-10-06T08:33:38Z</time>
      </trkpt>
      <trkpt lat="45.94322" lon="4.78397">
        <ele>265</ele>
        <time>2018-10-06T08:33:39Z</time>
      </trkpt>
      <trkpt lat="45.94327" lon="4.78406">
        <ele>234</ele>
        <time>2018-10-06T08:33:42Z</time>
      </trkpt>
      <trkpt lat="45.94328" lon="4.78409">
        <ele>239</ele>
        <time>2018-10-06T08:33:43Z</time>
      </trkpt>
      <trkpt lat="45.94332" lon="4.78418">
        <ele>248</ele>
        <time>2018-10-06T08:33:46Z</time>
      </trkpt>
      <trkpt lat="45.94333" lon="4.78421">
        <ele>256</ele>
        <time>2018-10-06T08:33:47Z</time>
      </trkpt>
      <trkpt lat="45.94337" lon="4.78428">
        <ele>259</ele>
        <time>2018-10-06T08:33:50Z</time>
      </trkpt>
      <trkpt lat="45.94339" lon="4.78431">
        <ele>261</ele>
        <time>2018-10-06T08:33:51Z</time>
      </trkpt>
      <trkpt lat="45.94343" lon="4.78439">
        <ele>262</ele>
        <time>2018-10-06T08:33:54Z</time>
      </trkpt>
      <trkpt lat="45.94345" lon="4.78442">
        <ele>263</ele>
        <time>2018-10-06T08:33:55Z</time>
      </trkpt>
      <trkpt lat="45.94351" lon="4.78451">
        <ele>263</ele>
        <time>2018-10-06T08:33:59Z</time>
      </trkpt>
      <trkpt lat="45.94352" lon="4.78453">
        <ele>263</ele>
        <time>2018-10-06T08:34:00Z</time>
      </trkpt>
      <trkpt lat="45.94358" lon="4.78459">
        <ele>264</ele>
        <time>2018-10-06T08:34:03Z</time>
      </trkpt>
      <trkpt lat="45.94359" lon="4.78462">
        <ele>264</ele>
        <time>2018-10-06T08:34:04Z</time>
      </trkpt>
      <trkpt lat="45.94365" lon="4.78468">
        <ele>263</ele>
        <time>2018-10-06T08:34:07Z</time>
      </trkpt>
      <trkpt lat="45.94367" lon="4.78471">
        <ele>263</ele>
        <time>2018-10-06T08:34:08Z</time>
      </trkpt>
      <trkpt lat="45.94373" lon="4.78477">
        <ele>263</ele>
        <time>2018-10-06T08:34:11Z</time>
      </trkpt>
      <trkpt lat="45.94375" lon="4.7848">
        <ele>262</ele>
        <time>2018-10-06T08:34:12Z</time>
      </trkpt>
      <trkpt lat="45.94381" lon="4.78487">
        <ele>262</ele>
        <time>2018-10-06T08:34:15Z</time>
      </trkpt>
      <trkpt lat="45.94382" lon="4.78489">
        <ele>263</ele>
        <time>2018-10-06T08:34:16Z</time>
      </trkpt>
      <trkpt lat="45.94387" lon="4.78496">
        <ele>262</ele>
        <time>2018-10-06T08:34:19Z</time>
      </trkpt>
      <trkpt lat="45.94389" lon="4.78498">
        <ele>262</ele>
        <time>2018-10-06T08:34:20Z</time>
      </trkpt>
      <trkpt lat="45.94394" lon="4.78505">
        <ele>262</ele>
        <time>2018-10-06T08:34:23Z</time>
      </trkpt>
      <trkpt lat="45.94395" lon="4.78507">
        <ele>263</ele>
        <time>2018-10-06T08:34:24Z</time>
      </trkpt>
      <trkpt lat="45.94401" lon="4.78514">
        <ele>262</ele>
        <time>2018-10-06T08:34:27Z</time>
      </trkpt>
      <trkpt lat="45.94403" lon="4.78516">
        <ele>262</ele>
        <time>2018-10-06T08:34:28Z</time>
      </trkpt>
      <trkpt lat="45.94409" lon="4.78523">
        <ele>262</ele>
        <time>2018-10-06T08:34:31Z</time>
      </trkpt>
      <trkpt lat="45.94411" lon="4.78525">
        <ele>262</ele>
        <time>2018-10-06T08:34:32Z</time>
      </trkpt>
      <trkpt lat="45.94417" lon="4.78531">
        <ele>262</ele>
        <time>2018-10-06T08:34:35Z</time>
      </trkpt>
      <trkpt lat="45.94419" lon="4.78533">
        <ele>263</ele>
        <time>2018-10-06T08:34:36Z</time>
      </trkpt>
      <trkpt lat="45.94423" lon="4.7854">
        <ele>264</ele>
        <time>2018-10-06T08:34:39Z</time>
      </trkpt>
      <trkpt lat="45.94425" lon="4.78543">
        <ele>265</ele>
        <time>2018-10-06T08:34:40Z</time>
      </trkpt>
      <trkpt lat="45.94429" lon="4.78551">
        <ele>265</ele>
        <time>2018-10-06T08:34:43Z</time>
      </trkpt>
      <trkpt lat="45.94431" lon="4.78554">
        <ele>264</ele>
        <time>2018-10-06T08:34:44Z</time>
      </trkpt>
      <trkpt lat="45.94435" lon="4.78562">
        <ele>263</ele>
        <time>2018-10-06T08:34:47Z</time>
      </trkpt>
      <trkpt lat="45.94437" lon="4.78564">
        <ele>263</ele>
        <time>2018-10-06T08:34:48Z</time>
      </trkpt>
      <trkpt lat="45.94442" lon="4.78571">
        <ele>262</ele>
        <time>2018-10-06T08:34:51Z</time>
      </trkpt>
      <trkpt lat="45.94444" lon="4.78574">
        <ele>263</ele>
        <time>2018-10-06T08:34:52Z</time>
      </trkpt>
      <trkpt lat="45.9445" lon="4.78581">
        <ele>265</ele>
        <time>2018-10-06T08:34:55Z</time>
      </trkpt>
      <trkpt lat="45.94451" lon="4.78583">
        <ele>265</ele>
        <time>2018-10-06T08:34:56Z</time>
      </trkpt>
      <trkpt lat="45.94456" lon="4.7859">
        <ele>261</ele>
        <time>2018-10-06T08:34:59Z</time>
      </trkpt>
      <trkpt lat="45.94457" lon="4.78593">
        <ele>261</ele>
        <time>2018-10-06T08:35:00Z</time>
      </trkpt>
      <trkpt lat="45.94461" lon="4.78603">
        <ele>261</ele>
        <time>2018-10-06T08:35:04Z</time>
      </trkpt>
      <trkpt lat="45.94462" lon="4.78606">
        <ele>260</ele>
        <time>2018-10-06T08:35:05Z</time>
      </trkpt>
      <trkpt lat="45.94466" lon="4.78617">
        <ele>262</ele>
        <time>2018-10-06T08:35:09Z</time>
      </trkpt>
      <trkpt lat="45.94468" lon="4.7862">
        <ele>263</ele>
        <time>2018-10-06T08:35:10Z</time>
      </trkpt>
      <trkpt lat="45.94471" lon="4.78631">
        <ele>263</ele>
        <time>2018-10-06T08:35:14Z</time>
      </trkpt>
      <trkpt lat="45.94471" lon="4.78634">
        <ele>265</ele>
        <time>2018-10-06T08:35:15Z</time>
      </trkpt>
      <trkpt lat="45.94474" lon="4.78646">
        <ele>267</ele>
        <time>2018-10-06T08:35:20Z</time>
      </trkpt>
      <trkpt lat="45.94475" lon="4.78649">
        <ele>268</ele>
        <time>2018-10-06T08:35:21Z</time>
      </trkpt>
      <trkpt lat="45.94477" lon="4.7866">
        <ele>270</ele>
        <time>2018-10-06T08:35:25Z</time>
      </trkpt>
      <trkpt lat="45.94477" lon="4.78663">
        <ele>270</ele>
        <time>2018-10-06T08:35:26Z</time>
      </trkpt>
      <trkpt lat="45.94479" lon="4.78674">
        <ele>271</ele>
        <time>2018-10-06T08:35:30Z</time>
      </trkpt>
      <trkpt lat="45.94479" lon="4.78677">
        <ele>270</ele>
        <time>2018-10-06T08:35:31Z</time>
      </trkpt>
      <trkpt lat="45.94482" lon="4.78687">
        <ele>271</ele>
        <time>2018-10-06T08:35:35Z</time>
      </trkpt>
      <trkpt lat="45.94483" lon="4.7869">
        <ele>272</ele>
        <time>2018-10-06T08:35:36Z</time>
      </trkpt>
      <trkpt lat="45.94486" lon="4.78702">
        <ele>274</ele>
        <time>2018-10-06T08:35:41Z</time>
      </trkpt>
      <trkpt lat="45.94486" lon="4.78704">
        <ele>274</ele>
        <time>2018-10-06T08:35:42Z</time>
      </trkpt>
      <trkpt lat="45.94488" lon="4.78715">
        <ele>274</ele>
        <time>2018-10-06T08:35:46Z</time>
      </trkpt>
      <trkpt lat="45.94488" lon="4.78718">
        <ele>274</ele>
        <time>2018-10-06T08:35:47Z</time>
      </trkpt>
      <trkpt lat="45.94489" lon="4.78729">
        <ele>277</ele>
        <time>2018-10-06T08:35:52Z</time>
      </trkpt>
      <trkpt lat="45.94488" lon="4.78732">
        <ele>278</ele>
        <time>2018-10-06T08:35:53Z</time>
      </trkpt>
      <trkpt lat="45.94487" lon="4.78743">
        <ele>283</ele>
        <time>2018-10-06T08:35:58Z</time>
      </trkpt>
      <trkpt lat="45.94487" lon="4.78745">
        <ele>283</ele>
        <time>2018-10-06T08:35:59Z</time>
      </trkpt>
      <trkpt lat="45.94485" lon="4.78756">
        <ele>284</ele>
        <time>2018-10-06T08:36:04Z</time>
      </trkpt>
      <trkpt lat="45.94485" lon="4.78759">
        <ele>283</ele>
        <time>2018-10-06T08:36:05Z</time>
      </trkpt>
      <trkpt lat="45.94482" lon="4.78769">
        <ele>283</ele>
        <time>2018-10-06T08:36:11Z</time>
      </trkpt>
      <trkpt lat="45.94481" lon="4.78771">
        <ele>282</ele>
        <time>2018-10-06T08:36:12Z</time>
      </trkpt>
      <trkpt lat="45.94478" lon="4.78783">
        <ele>272</ele>
        <time>2018-10-06T08:36:18Z</time>
      </trkpt>
      <trkpt lat="45.94477" lon="4.78785">
        <ele>275</ele>
        <time>2018-10-06T08:36:19Z</time>
      </trkpt>
      <trkpt lat="45.94474" lon="4.78795">
        <ele>279</ele>
        <time>2018-10-06T08:36:23Z</time>
      </trkpt>
      <trkpt lat="45.94474" lon="4.78797">
        <ele>280</ele>
        <time>2018-10-06T08:36:24Z</time>
      </trkpt>
      <trkpt lat="45.9447" lon="4.78808">
        <ele>286</ele>
        <time>2018-10-06T08:36:29Z</time>
      </trkpt>
      <trkpt lat="45.94469" lon="4.78809">
        <ele>286</ele>
        <time>2018-10-06T08:36:30Z</time>
      </trkpt>
      <trkpt lat="45.94463" lon="4.78819">
        <ele>289</ele>
        <time>2018-10-06T08:36:35Z</time>
      </trkpt>
      <trkpt lat="45.94463" lon="4.78821">
        <ele>289</ele>
        <time>2018-10-06T08:36:36Z</time>
      </trkpt>
      <trkpt lat="45.94461" lon="4.78832">
        <ele>292</ele>
        <time>2018-10-06T08:36:40Z</time>
      </trkpt>
      <trkpt lat="45.9446" lon="4.78834">
        <ele>292</ele>
        <time>2018-10-06T08:36:41Z</time>
      </trkpt>
      <trkpt lat="45.94459" lon="4.78844">
        <ele>290</ele>
        <time>2018-10-06T08:36:45Z</time>
      </trkpt>
      <trkpt lat="45.94459" lon="4.78847">
        <ele>291</ele>
        <time>2018-10-06T08:36:46Z</time>
      </trkpt>
      <trkpt lat="45.94458" lon="4.78859">
        <ele>295</ele>
        <time>2018-10-06T08:36:51Z</time>
      </trkpt>
      <trkpt lat="45.94458" lon="4.78862">
        <ele>295</ele>
        <time>2018-10-06T08:36:52Z</time>
      </trkpt>
      <trkpt lat="45.94456" lon="4.78874">
        <ele>294</ele>
        <time>2018-10-06T08:36:57Z</time>
      </trkpt>
      <trkpt lat="45.94456" lon="4.78877">
        <ele>294</ele>
        <time>2018-10-06T08:36:58Z</time>
      </trkpt>
      <trkpt lat="45.94457" lon="4.78889">
        <ele>295</ele>
        <time>2018-10-06T08:37:03Z</time>
      </trkpt>
      <trkpt lat="45.94457" lon="4.78891">
        <ele>295</ele>
        <time>2018-10-06T08:37:04Z</time>
      </trkpt>
      <trkpt lat="45.94458" lon="4.78903">
        <ele>294</ele>
        <time>2018-10-06T08:37:09Z</time>
      </trkpt>
      <trkpt lat="45.94459" lon="4.78905">
        <ele>294</ele>
        <time>2018-10-06T08:37:10Z</time>
      </trkpt>
      <trkpt lat="45.9446" lon="4.78917">
        <ele>278</ele>
        <time>2018-10-06T08:37:14Z</time>
      </trkpt>
      <trkpt lat="45.94461" lon="4.7892">
        <ele>280</ele>
        <time>2018-10-06T08:37:15Z</time>
      </trkpt>
      <trkpt lat="45.94463" lon="4.78929">
        <ele>285</ele>
        <time>2018-10-06T08:37:18Z</time>
      </trkpt>
      <trkpt lat="45.94464" lon="4.78933">
        <ele>286</ele>
        <time>2018-10-06T08:37:19Z</time>
      </trkpt>
      <trkpt lat="45.94466" lon="4.78942">
        <ele>287</ele>
        <time>2018-10-06T08:37:22Z</time>
      </trkpt>
      <trkpt lat="45.94467" lon="4.78945">
        <ele>288</ele>
        <time>2018-10-06T08:37:23Z</time>
      </trkpt>
      <trkpt lat="45.94471" lon="4.78956">
        <ele>292</ele>
        <time>2018-10-06T08:37:27Z</time>
      </trkpt>
      <trkpt lat="45.94471" lon="4.78958">
        <ele>291</ele>
        <time>2018-10-06T08:37:28Z</time>
      </trkpt>
      <trkpt lat="45.94476" lon="4.78967">
        <ele>292</ele>
        <time>2018-10-06T08:37:32Z</time>
      </trkpt>
      <trkpt lat="45.94477" lon="4.78969">
        <ele>293</ele>
        <time>2018-10-06T08:37:33Z</time>
      </trkpt>
      <trkpt lat="45.94481" lon="4.7898">
        <ele>291</ele>
        <time>2018-10-06T08:37:37Z</time>
      </trkpt>
      <trkpt lat="45.94483" lon="4.78982">
        <ele>291</ele>
        <time>2018-10-06T08:37:38Z</time>
      </trkpt>
      <trkpt lat="45.94486" lon="4.78992">
        <ele>289</ele>
        <time>2018-10-06T08:37:42Z</time>
      </trkpt>
      <trkpt lat="45.94487" lon="4.78994">
        <ele>288</ele>
        <time>2018-10-06T08:37:43Z</time>
      </trkpt>
      <trkpt lat="45.94493" lon="4.79003">
        <ele>279</ele>
        <time>2018-10-06T08:37:47Z</time>
      </trkpt>
      <trkpt lat="45.94495" lon="4.79006">
        <ele>281</ele>
        <time>2018-10-06T08:37:48Z</time>
      </trkpt>
      <trkpt lat="45.94501" lon="4.79014">
        <ele>286</ele>
        <time>2018-10-06T08:37:51Z</time>
      </trkpt>
      <trkpt lat="45.94503" lon="4.79017">
        <ele>288</ele>
        <time>2018-10-06T08:37:52Z</time>
      </trkpt>
      <trkpt lat="45.94507" lon="4.79026">
        <ele>291</ele>
        <time>2018-10-06T08:37:56Z</time>
      </trkpt>
      <trkpt lat="45.94508" lon="4.79028">
        <ele>292</ele>
        <time>2018-10-06T08:37:57Z</time>
      </trkpt>
      <trkpt lat="45.94513" lon="4.79038">
        <ele>294</ele>
        <time>2018-10-06T08:38:01Z</time>
      </trkpt>
      <trkpt lat="45.94515" lon="4.79041">
        <ele>295</ele>
        <time>2018-10-06T08:38:02Z</time>
      </trkpt>
      <trkpt lat="45.9452" lon="4.7905">
        <ele>296</ele>
        <time>2018-10-06T08:38:05Z</time>
      </trkpt>
      <trkpt lat="45.94521" lon="4.79053">
        <ele>297</ele>
        <time>2018-10-06T08:38:06Z</time>
      </trkpt>
      <trkpt lat="45.94526" lon="4.79061">
        <ele>296</ele>
        <time>2018-10-06T08:38:09Z</time>
      </trkpt>
      <trkpt lat="45.94528" lon="4.79064">
        <ele>296</ele>
        <time>2018-10-06T08:38:10Z</time>
      </trkpt>
      <trkpt lat="45.94529" lon="4.79066">
        <ele>270</ele>
        <time>2018-10-06T08:38:11Z</time>
      </trkpt>
      <trkpt lat="45.94535" lon="4.79077">
        <ele>295</ele>
        <time>2018-10-06T08:38:12Z</time>
      </trkpt>
      <trkpt lat="45.94539" lon="4.79087">
        <ele>296</ele>
        <time>2018-10-06T08:38:16Z</time>
      </trkpt>
      <trkpt lat="45.94541" lon="4.7909">
        <ele>295</ele>
        <time>2018-10-06T08:38:17Z</time>
      </trkpt>
      <trkpt lat="45.94546" lon="4.791">
        <ele>296</ele>
        <time>2018-10-06T08:38:20Z</time>
      </trkpt>
      <trkpt lat="45.94548" lon="4.79104">
        <ele>297</ele>
        <time>2018-10-06T08:38:21Z</time>
      </trkpt>
      <trkpt lat="45.94552" lon="4.79111">
        <ele>295</ele>
        <time>2018-10-06T08:38:23Z</time>
      </trkpt>
      <trkpt lat="45.94553" lon="4.79115">
        <ele>295</ele>
        <time>2018-10-06T08:38:24Z</time>
      </trkpt>
      <trkpt lat="45.94556" lon="4.79123">
        <ele>296</ele>
        <time>2018-10-06T08:38:26Z</time>
      </trkpt>
      <trkpt lat="45.94561" lon="4.79135">
        <ele>296</ele>
        <time>2018-10-06T08:38:27Z</time>
      </trkpt>
      <trkpt lat="45.94566" lon="4.79145">
        <ele>269</ele>
        <time>2018-10-06T08:38:29Z</time>
      </trkpt>
      <trkpt lat="45.94568" lon="4.7915">
        <ele>279</ele>
        <time>2018-10-06T08:38:30Z</time>
      </trkpt>
      <trkpt lat="45.94572" lon="4.79161">
        <ele>289</ele>
        <time>2018-10-06T08:38:32Z</time>
      </trkpt>
      <trkpt lat="45.94573" lon="4.79167">
        <ele>291</ele>
        <time>2018-10-06T08:38:33Z</time>
      </trkpt>
      <trkpt lat="45.94576" lon="4.79172">
        <ele>292</ele>
        <time>2018-10-06T08:38:34Z</time>
      </trkpt>
      <trkpt lat="45.94579" lon="4.79176">
        <ele>294</ele>
        <time>2018-10-06T08:38:35Z</time>
      </trkpt>
      <trkpt lat="45.94581" lon="4.79183">
        <ele>296</ele>
        <time>2018-10-06T08:38:36Z</time>
      </trkpt>
      <trkpt lat="45.94582" lon="4.79188">
        <ele>298</ele>
        <time>2018-10-06T08:38:37Z</time>
      </trkpt>
      <trkpt lat="45.94587" lon="4.79199">
        <ele>299</ele>
        <time>2018-10-06T08:38:39Z</time>
      </trkpt>
      <trkpt lat="45.9459" lon="4.79206">
        <ele>299</ele>
        <time>2018-10-06T08:38:40Z</time>
      </trkpt>
      <trkpt lat="45.94595" lon="4.79214">
        <ele>299</ele>
        <time>2018-10-06T08:38:43Z</time>
      </trkpt>
      <trkpt lat="45.94597" lon="4.79216">
        <ele>299</ele>
        <time>2018-10-06T08:38:44Z</time>
      </trkpt>
      <trkpt lat="45.94601" lon="4.79225">
        <ele>296</ele>
        <time>2018-10-06T08:38:47Z</time>
      </trkpt>
      <trkpt lat="45.94607" lon="4.79233">
        <ele>295</ele>
        <time>2018-10-06T08:38:48Z</time>
      </trkpt>
      <trkpt lat="45.94611" lon="4.79236">
        <ele>295</ele>
        <time>2018-10-06T08:38:50Z</time>
      </trkpt>
      <trkpt lat="45.94617" lon="4.7924">
        <ele>295</ele>
        <time>2018-10-06T08:38:51Z</time>
      </trkpt>
      <trkpt lat="45.94621" lon="4.79252">
        <ele>296</ele>
        <time>2018-10-06T08:38:54Z</time>
      </trkpt>
      <trkpt lat="45.94623" lon="4.79261">
        <ele>297</ele>
        <time>2018-10-06T08:38:55Z</time>
      </trkpt>
      <trkpt lat="45.94628" lon="4.7927">
        <ele>296</ele>
        <time>2018-10-06T08:38:58Z</time>
      </trkpt>
      <trkpt lat="45.94629" lon="4.79273">
        <ele>296</ele>
        <time>2018-10-06T08:38:59Z</time>
      </trkpt>
      <trkpt lat="45.94634" lon="4.79282">
        <ele>295</ele>
        <time>2018-10-06T08:39:02Z</time>
      </trkpt>
      <trkpt lat="45.94636" lon="4.79286">
        <ele>295</ele>
        <time>2018-10-06T08:39:03Z</time>
      </trkpt>
      <trkpt lat="45.94641" lon="4.79295">
        <ele>295</ele>
        <time>2018-10-06T08:39:04Z</time>
      </trkpt>
      <trkpt lat="45.94643" lon="4.793">
        <ele>296</ele>
        <time>2018-10-06T08:39:05Z</time>
      </trkpt>
      <trkpt lat="45.94648" lon="4.79309">
        <ele>296</ele>
        <time>2018-10-06T08:39:07Z</time>
      </trkpt>
      <trkpt lat="45.9465" lon="4.79314">
        <ele>296</ele>
        <time>2018-10-06T08:39:08Z</time>
      </trkpt>
      <trkpt lat="45.94654" lon="4.79323">
        <ele>295</ele>
        <time>2018-10-06T08:39:10Z</time>
      </trkpt>
      <trkpt lat="45.94655" lon="4.79326">
        <ele>296</ele>
        <time>2018-10-06T08:39:11Z</time>
      </trkpt>
      <trkpt lat="45.94659" lon="4.79334">
        <ele>295</ele>
        <time>2018-10-06T08:39:14Z</time>
      </trkpt>
      <trkpt lat="45.94661" lon="4.79337">
        <ele>295</ele>
        <time>2018-10-06T08:39:15Z</time>
      </trkpt>
      <trkpt lat="45.94665" lon="4.79346">
        <ele>296</ele>
        <time>2018-10-06T08:39:18Z</time>
      </trkpt>
      <trkpt lat="45.9467" lon="4.79357">
        <ele>296</ele>
        <time>2018-10-06T08:39:19Z</time>
      </trkpt>
      <trkpt lat="45.94675" lon="4.79365">
        <ele>297</ele>
        <time>2018-10-06T08:39:21Z</time>
      </trkpt>
      <trkpt lat="45.94677" lon="4.79369">
        <ele>299</ele>
        <time>2018-10-06T08:39:22Z</time>
      </trkpt>
      <trkpt lat="45.94683" lon="4.79379">
        <ele>299</ele>
        <time>2018-10-06T08:39:24Z</time>
      </trkpt>
      <trkpt lat="45.94685" lon="4.79384">
        <ele>298</ele>
        <time>2018-10-06T08:39:25Z</time>
      </trkpt>
      <trkpt lat="45.94688" lon="4.79389">
        <ele>298</ele>
        <time>2018-10-06T08:39:26Z</time>
      </trkpt>
      <trkpt lat="45.9469" lon="4.79395">
        <ele>297</ele>
        <time>2018-10-06T08:39:27Z</time>
      </trkpt>
      <trkpt lat="45.94695" lon="4.79406">
        <ele>297</ele>
        <time>2018-10-06T08:39:29Z</time>
      </trkpt>
      <trkpt lat="45.94698" lon="4.79411">
        <ele>298</ele>
        <time>2018-10-06T08:39:30Z</time>
      </trkpt>
      <trkpt lat="45.94702" lon="4.79421">
        <ele>300</ele>
        <time>2018-10-06T08:39:32Z</time>
      </trkpt>
      <trkpt lat="45.94705" lon="4.7943">
        <ele>298</ele>
        <time>2018-10-06T08:39:33Z</time>
      </trkpt>
      <trkpt lat="45.9471" lon="4.79439">
        <ele>299</ele>
        <time>2018-10-06T08:39:35Z</time>
      </trkpt>
      <trkpt lat="45.94714" lon="4.79444">
        <ele>298</ele>
        <time>2018-10-06T08:39:36Z</time>
      </trkpt>
      <trkpt lat="45.94716" lon="4.79451">
        <ele>297</ele>
        <time>2018-10-06T08:39:37Z</time>
      </trkpt>
      <trkpt lat="45.9472" lon="4.79455">
        <ele>297</ele>
        <time>2018-10-06T08:39:38Z</time>
      </trkpt>
      <trkpt lat="45.94722" lon="4.79461">
        <ele>297</ele>
        <time>2018-10-06T08:39:39Z</time>
      </trkpt>
      <trkpt lat="45.94724" lon="4.79468">
        <ele>297</ele>
        <time>2018-10-06T08:39:40Z</time>
      </trkpt>
      <trkpt lat="45.94726" lon="4.79474">
        <ele>297</ele>
        <time>2018-10-06T08:39:41Z</time>
      </trkpt>
      <trkpt lat="45.9473" lon="4.79483">
        <ele>296</ele>
        <time>2018-10-06T08:39:42Z</time>
      </trkpt>
      <trkpt lat="45.94732" lon="4.79489">
        <ele>297</ele>
        <time>2018-10-06T08:39:43Z</time>
      </trkpt>
      <trkpt lat="45.94734" lon="4.79495">
        <ele>297</ele>
        <time>2018-10-06T08:39:44Z</time>
      </trkpt>
      <trkpt lat="45.94737" lon="4.79501">
        <ele>297</ele>
        <time>2018-10-06T08:39:45Z</time>
      </trkpt>
      <trkpt lat="45.9474" lon="4.79507">
        <ele>297</ele>
        <time>2018-10-06T08:39:46Z</time>
      </trkpt>
      <trkpt lat="45.94743" lon="4.79512">
        <ele>297</ele>
        <time>2018-10-06T08:39:47Z</time>
      </trkpt>
      <trkpt lat="45.94745" lon="4.79519">
        <ele>297</ele>
        <time>2018-10-06T08:39:48Z</time>
      </trkpt>
      <trkpt lat="45.9475" lon="4.79529">
        <ele>298</ele>
        <time>2018-10-06T08:39:50Z</time>
      </trkpt>
      <trkpt lat="45.94751" lon="4.79534">
        <ele>299</ele>
        <time>2018-10-06T08:39:51Z</time>
      </trkpt>
      <trkpt lat="45.94753" lon="4.79541">
        <ele>299</ele>
        <time>2018-10-06T08:39:52Z</time>
      </trkpt>
      <trkpt lat="45.94755" lon="4.79547">
        <ele>298</ele>
        <time>2018-10-06T08:39:53Z</time>
      </trkpt>
      <trkpt lat="45.94759" lon="4.79556">
        <ele>298</ele>
        <time>2018-10-06T08:39:55Z</time>
      </trkpt>
      <trkpt lat="45.94762" lon="4.79561">
        <ele>298</ele>
        <time>2018-10-06T08:39:56Z</time>
      </trkpt>
      <trkpt lat="45.94763" lon="4.7957">
        <ele>297</ele>
        <time>2018-10-06T08:39:58Z</time>
      </trkpt>
      <trkpt lat="45.94763" lon="4.79574">
        <ele>296</ele>
        <time>2018-10-06T08:39:59Z</time>
      </trkpt>
      <trkpt lat="45.94764" lon="4.79586">
        <ele>295</ele>
        <time>2018-10-06T08:40:01Z</time>
      </trkpt>
      <trkpt lat="45.94765" lon="4.79592">
        <ele>296</ele>
        <time>2018-10-06T08:40:02Z</time>
      </trkpt>
      <trkpt lat="45.94767" lon="4.79604">
        <ele>297</ele>
        <time>2018-10-06T08:40:05Z</time>
      </trkpt>
      <trkpt lat="45.94769" lon="4.79613">
        <ele>298</ele>
        <time>2018-10-06T08:40:06Z</time>
      </trkpt>
      <trkpt lat="45.9477" lon="4.79619">
        <ele>299</ele>
        <time>2018-10-06T08:40:07Z</time>
      </trkpt>
      <trkpt lat="45.94775" lon="4.79626">
        <ele>299</ele>
        <time>2018-10-06T08:40:08Z</time>
      </trkpt>
      <trkpt lat="45.94776" lon="4.79632">
        <ele>298</ele>
        <time>2018-10-06T08:40:09Z</time>
      </trkpt>
      <trkpt lat="45.94779" lon="4.79639">
        <ele>297</ele>
        <time>2018-10-06T08:40:10Z</time>
      </trkpt>
      <trkpt lat="45.94782" lon="4.7965">
        <ele>298</ele>
        <time>2018-10-06T08:40:13Z</time>
      </trkpt>
      <trkpt lat="45.94783" lon="4.79654">
        <ele>298</ele>
        <time>2018-10-06T08:40:14Z</time>
      </trkpt>
      <trkpt lat="45.94786" lon="4.79664">
        <ele>298</ele>
        <time>2018-10-06T08:40:17Z</time>
      </trkpt>
      <trkpt lat="45.94789" lon="4.79676">
        <ele>297</ele>
        <time>2018-10-06T08:40:18Z</time>
      </trkpt>
      <trkpt lat="45.94791" lon="4.79686">
        <ele>296</ele>
        <time>2018-10-06T08:40:20Z</time>
      </trkpt>
      <trkpt lat="45.94797" lon="4.79691">
        <ele>296</ele>
        <time>2018-10-06T08:40:21Z</time>
      </trkpt>
      <trkpt lat="45.948" lon="4.79698">
        <ele>296</ele>
        <time>2018-10-06T08:40:23Z</time>
      </trkpt>
      <trkpt lat="45.94802" lon="4.79704">
        <ele>296</ele>
        <time>2018-10-06T08:40:24Z</time>
      </trkpt>
      <trkpt lat="45.94803" lon="4.79712">
        <ele>295</ele>
        <time>2018-10-06T08:40:26Z</time>
      </trkpt>
      <trkpt lat="45.94804" lon="4.79722">
        <ele>294</ele>
        <time>2018-10-06T08:40:27Z</time>
      </trkpt>
      <trkpt lat="45.94807" lon="4.79734">
        <ele>294</ele>
        <time>2018-10-06T08:40:29Z</time>
      </trkpt>
      <trkpt lat="45.94807" lon="4.79741">
        <ele>294</ele>
        <time>2018-10-06T08:40:30Z</time>
      </trkpt>
      <trkpt lat="45.9481" lon="4.79747">
        <ele>294</ele>
        <time>2018-10-06T08:40:31Z</time>
      </trkpt>
      <trkpt lat="45.94811" lon="4.79753">
        <ele>294</ele>
        <time>2018-10-06T08:40:32Z</time>
      </trkpt>
      <trkpt lat="45.94813" lon="4.7976">
        <ele>293</ele>
        <time>2018-10-06T08:40:33Z</time>
      </trkpt>
      <trkpt lat="45.94816" lon="4.79766">
        <ele>292</ele>
        <time>2018-10-06T08:40:34Z</time>
      </trkpt>
      <trkpt lat="45.94816" lon="4.79773">
        <ele>293</ele>
        <time>2018-10-06T08:40:35Z</time>
      </trkpt>
      <trkpt lat="45.94818" lon="4.79781">
        <ele>292</ele>
        <time>2018-10-06T08:40:36Z</time>
      </trkpt>
      <trkpt lat="45.9482" lon="4.79788">
        <ele>291</ele>
        <time>2018-10-06T08:40:37Z</time>
      </trkpt>
      <trkpt lat="45.94823" lon="4.79795">
        <ele>291</ele>
        <time>2018-10-06T08:40:38Z</time>
      </trkpt>
      <trkpt lat="45.94824" lon="4.79802">
        <ele>291</ele>
        <time>2018-10-06T08:40:39Z</time>
      </trkpt>
      <trkpt lat="45.94827" lon="4.79807">
        <ele>293</ele>
        <time>2018-10-06T08:40:40Z</time>
      </trkpt>
      <trkpt lat="45.94829" lon="4.79813">
        <ele>292</ele>
        <time>2018-10-06T08:40:41Z</time>
      </trkpt>
      <trkpt lat="45.9483" lon="4.7982">
        <ele>292</ele>
        <time>2018-10-06T08:40:42Z</time>
      </trkpt>
      <trkpt lat="45.94833" lon="4.79832">
        <ele>292</ele>
        <time>2018-10-06T08:40:44Z</time>
      </trkpt>
      <trkpt lat="45.94836" lon="4.79835">
        <ele>292</ele>
        <time>2018-10-06T08:40:45Z</time>
      </trkpt>
      <trkpt lat="45.94838" lon="4.79846">
        <ele>292</ele>
        <time>2018-10-06T08:40:47Z</time>
      </trkpt>
      <trkpt lat="45.94839" lon="4.79852">
        <ele>292</ele>
        <time>2018-10-06T08:40:48Z</time>
      </trkpt>
      <trkpt lat="45.94841" lon="4.79863">
        <ele>294</ele>
        <time>2018-10-06T08:40:51Z</time>
      </trkpt>
      <trkpt lat="45.94843" lon="4.79871">
        <ele>294</ele>
        <time>2018-10-06T08:40:52Z</time>
      </trkpt>
      <trkpt lat="45.94846" lon="4.79882">
        <ele>295</ele>
        <time>2018-10-06T08:40:54Z</time>
      </trkpt>
      <trkpt lat="45.94847" lon="4.79888">
        <ele>295</ele>
        <time>2018-10-06T08:40:55Z</time>
      </trkpt>
      <trkpt lat="45.9485" lon="4.79898">
        <ele>295</ele>
        <time>2018-10-06T08:40:57Z</time>
      </trkpt>
      <trkpt lat="45.94851" lon="4.79903">
        <ele>295</ele>
        <time>2018-10-06T08:40:58Z</time>
      </trkpt>
      <trkpt lat="45.94855" lon="4.79912">
        <ele>295</ele>
        <time>2018-10-06T08:41:00Z</time>
      </trkpt>
      <trkpt lat="45.94856" lon="4.79914">
        <ele>296</ele>
        <time>2018-10-06T08:41:01Z</time>
      </trkpt>
      <trkpt lat="45.94861" lon="4.79925">
        <ele>298</ele>
        <time>2018-10-06T08:41:03Z</time>
      </trkpt>
      <trkpt lat="45.94863" lon="4.7993">
        <ele>298</ele>
        <time>2018-10-06T08:41:04Z</time>
      </trkpt>
      <trkpt lat="45.94868" lon="4.7994">
        <ele>297</ele>
        <time>2018-10-06T08:41:06Z</time>
      </trkpt>
      <trkpt lat="45.9487" lon="4.79945">
        <ele>297</ele>
        <time>2018-10-06T08:41:07Z</time>
      </trkpt>
      <trkpt lat="45.94874" lon="4.79956">
        <ele>297</ele>
        <time>2018-10-06T08:41:09Z</time>
      </trkpt>
      <trkpt lat="45.94876" lon="4.79962">
        <ele>295</ele>
        <time>2018-10-06T08:41:10Z</time>
      </trkpt>
      <trkpt lat="45.94879" lon="4.7997">
        <ele>295</ele>
        <time>2018-10-06T08:41:12Z</time>
      </trkpt>
      <trkpt lat="45.94881" lon="4.79976">
        <ele>296</ele>
        <time>2018-10-06T08:41:13Z</time>
      </trkpt>
      <trkpt lat="45.94885" lon="4.79987">
        <ele>296</ele>
        <time>2018-10-06T08:41:15Z</time>
      </trkpt>
      <trkpt lat="45.94886" lon="4.79992">
        <ele>296</ele>
        <time>2018-10-06T08:41:16Z</time>
      </trkpt>
      <trkpt lat="45.94889" lon="4.80003">
        <ele>297</ele>
        <time>2018-10-06T08:41:18Z</time>
      </trkpt>
      <trkpt lat="45.9489" lon="4.8001">
        <ele>296</ele>
        <time>2018-10-06T08:41:19Z</time>
      </trkpt>
      <trkpt lat="45.94894" lon="4.80021">
        <ele>298</ele>
        <time>2018-10-06T08:41:21Z</time>
      </trkpt>
      <trkpt lat="45.94896" lon="4.80026">
        <ele>298</ele>
        <time>2018-10-06T08:41:22Z</time>
      </trkpt>
      <trkpt lat="45.94895" lon="4.80038">
        <ele>299</ele>
        <time>2018-10-06T08:41:25Z</time>
      </trkpt>
      <trkpt lat="45.94896" lon="4.80041">
        <ele>299</ele>
        <time>2018-10-06T08:41:26Z</time>
      </trkpt>
      <trkpt lat="45.94898" lon="4.80049">
        <ele>298</ele>
        <time>2018-10-06T08:41:28Z</time>
      </trkpt>
      <trkpt lat="45.94902" lon="4.80062">
        <ele>298</ele>
        <time>2018-10-06T08:41:29Z</time>
      </trkpt>
      <trkpt lat="45.94905" lon="4.80071">
        <ele>297</ele>
        <time>2018-10-06T08:41:31Z</time>
      </trkpt>
      <trkpt lat="45.94907" lon="4.80077">
        <ele>298</ele>
        <time>2018-10-06T08:41:32Z</time>
      </trkpt>
      <trkpt lat="45.94914" lon="4.80084">
        <ele>299</ele>
        <time>2018-10-06T08:41:34Z</time>
      </trkpt>
      <trkpt lat="45.94915" lon="4.80091">
        <ele>299</ele>
        <time>2018-10-06T08:41:35Z</time>
      </trkpt>
      <trkpt lat="45.9492" lon="4.80101">
        <ele>299</ele>
        <time>2018-10-06T08:41:37Z</time>
      </trkpt>
      <trkpt lat="45.94921" lon="4.80106">
        <ele>299</ele>
        <time>2018-10-06T08:41:38Z</time>
      </trkpt>
      <trkpt lat="45.94924" lon="4.80116">
        <ele>299</ele>
        <time>2018-10-06T08:41:40Z</time>
      </trkpt>
      <trkpt lat="45.94924" lon="4.80119">
        <ele>299</ele>
        <time>2018-10-06T08:41:41Z</time>
      </trkpt>
      <trkpt lat="45.94926" lon="4.80131">
        <ele>298</ele>
        <time>2018-10-06T08:41:44Z</time>
      </trkpt>
      <trkpt lat="45.94927" lon="4.80142">
        <ele>298</ele>
        <time>2018-10-06T08:41:45Z</time>
      </trkpt>
      <trkpt lat="45.94929" lon="4.80152">
        <ele>299</ele>
        <time>2018-10-06T08:41:47Z</time>
      </trkpt>
      <trkpt lat="45.9493" lon="4.80158">
        <ele>299</ele>
        <time>2018-10-06T08:41:48Z</time>
      </trkpt>
      <trkpt lat="45.94932" lon="4.8017">
        <ele>301</ele>
        <time>2018-10-06T08:41:50Z</time>
      </trkpt>
      <trkpt lat="45.94933" lon="4.80175">
        <ele>301</ele>
        <time>2018-10-06T08:41:51Z</time>
      </trkpt>
      <trkpt lat="45.94935" lon="4.80187">
        <ele>302</ele>
        <time>2018-10-06T08:41:53Z</time>
      </trkpt>
      <trkpt lat="45.94935" lon="4.80193">
        <ele>302</ele>
        <time>2018-10-06T08:41:54Z</time>
      </trkpt>
      <trkpt lat="45.94936" lon="4.802">
        <ele>302</ele>
        <time>2018-10-06T08:41:55Z</time>
      </trkpt>
      <trkpt lat="45.94937" lon="4.80207">
        <ele>302</ele>
        <time>2018-10-06T08:41:56Z</time>
      </trkpt>
      <trkpt lat="45.94938" lon="4.80218">
        <ele>303</ele>
        <time>2018-10-06T08:41:58Z</time>
      </trkpt>
      <trkpt lat="45.94939" lon="4.80223">
        <ele>303</ele>
        <time>2018-10-06T08:41:59Z</time>
      </trkpt>
      <trkpt lat="45.9494" lon="4.80234">
        <ele>304</ele>
        <time>2018-10-06T08:42:01Z</time>
      </trkpt>
      <trkpt lat="45.94941" lon="4.80237">
        <ele>304</ele>
        <time>2018-10-06T08:42:02Z</time>
      </trkpt>
      <trkpt lat="45.94942" lon="4.8025">
        <ele>304</ele>
        <time>2018-10-06T08:42:04Z</time>
      </trkpt>
      <trkpt lat="45.94942" lon="4.80255">
        <ele>304</ele>
        <time>2018-10-06T08:42:05Z</time>
      </trkpt>
      <trkpt lat="45.94942" lon="4.80266">
        <ele>305</ele>
        <time>2018-10-06T08:42:07Z</time>
      </trkpt>
      <trkpt lat="45.94942" lon="4.80272">
        <ele>304</ele>
        <time>2018-10-06T08:42:08Z</time>
      </trkpt>
      <trkpt lat="45.94942" lon="4.80278">
        <ele>304</ele>
        <time>2018-10-06T08:42:09Z</time>
      </trkpt>
      <trkpt lat="45.94942" lon="4.80285">
        <ele>304</ele>
        <time>2018-10-06T08:42:10Z</time>
      </trkpt>
      <trkpt lat="45.94941" lon="4.80292">
        <ele>304</ele>
        <time>2018-10-06T08:42:11Z</time>
      </trkpt>
      <trkpt lat="45.94941" lon="4.80298">
        <ele>304</ele>
        <time>2018-10-06T08:42:12Z</time>
      </trkpt>
      <trkpt lat="45.94943" lon="4.8031">
        <ele>305</ele>
        <time>2018-10-06T08:42:14Z</time>
      </trkpt>
      <trkpt lat="45.94943" lon="4.80316">
        <ele>305</ele>
        <time>2018-10-06T08:42:15Z</time>
      </trkpt>
      <trkpt lat="45.94943" lon="4.80323">
        <ele>306</ele>
        <time>2018-10-06T08:42:16Z</time>
      </trkpt>
      <trkpt lat="45.94943" lon="4.8033">
        <ele>306</ele>
        <time>2018-10-06T08:42:17Z</time>
      </trkpt>
      <trkpt lat="45.94943" lon="4.80337">
        <ele>305</ele>
        <time>2018-10-06T08:42:18Z</time>
      </trkpt>
      <trkpt lat="45.94943" lon="4.80343">
        <ele>304</ele>
        <time>2018-10-06T08:42:19Z</time>
      </trkpt>
      <trkpt lat="45.94943" lon="4.8035">
        <ele>305</ele>
        <time>2018-10-06T08:42:20Z</time>
      </trkpt>
      <trkpt lat="45.94944" lon="4.80356">
        <ele>304</ele>
        <time>2018-10-06T08:42:21Z</time>
      </trkpt>
      <trkpt lat="45.94944" lon="4.80369">
        <ele>304</ele>
        <time>2018-10-06T08:42:23Z</time>
      </trkpt>
      <trkpt lat="45.94945" lon="4.80373">
        <ele>304</ele>
        <time>2018-10-06T08:42:24Z</time>
      </trkpt>
      <trkpt lat="45.94946" lon="4.80385">
        <ele>304</ele>
        <time>2018-10-06T08:42:26Z</time>
      </trkpt>
      <trkpt lat="45.94946" lon="4.80388">
        <ele>305</ele>
        <time>2018-10-06T08:42:27Z</time>
      </trkpt>
      <trkpt lat="45.94946" lon="4.80396">
        <ele>304</ele>
        <time>2018-10-06T08:42:28Z</time>
      </trkpt>
      <trkpt lat="45.94947" lon="4.80401">
        <ele>305</ele>
        <time>2018-10-06T08:42:29Z</time>
      </trkpt>
      <trkpt lat="45.94947" lon="4.80414">
        <ele>306</ele>
        <time>2018-10-06T08:42:31Z</time>
      </trkpt>
      <trkpt lat="45.94947" lon="4.8042">
        <ele>306</ele>
        <time>2018-10-06T08:42:32Z</time>
      </trkpt>
      <trkpt lat="45.94948" lon="4.80427">
        <ele>305</ele>
        <time>2018-10-06T08:42:33Z</time>
      </trkpt>
      <trkpt lat="45.94948" lon="4.80433">
        <ele>306</ele>
        <time>2018-10-06T08:42:34Z</time>
      </trkpt>
      <trkpt lat="45.94948" lon="4.80439">
        <ele>307</ele>
        <time>2018-10-06T08:42:35Z</time>
      </trkpt>
      <trkpt lat="45.94949" lon="4.80446">
        <ele>306</ele>
        <time>2018-10-06T08:42:36Z</time>
      </trkpt>
      <trkpt lat="45.94949" lon="4.80453">
        <ele>306</ele>
        <time>2018-10-06T08:42:37Z</time>
      </trkpt>
      <trkpt lat="45.94949" lon="4.80459">
        <ele>306</ele>
        <time>2018-10-06T08:42:38Z</time>
      </trkpt>
      <trkpt lat="45.9495" lon="4.80466">
        <ele>306</ele>
        <time>2018-10-06T08:42:39Z</time>
      </trkpt>
      <trkpt lat="45.94951" lon="4.80472">
        <ele>306</ele>
        <time>2018-10-06T08:42:40Z</time>
      </trkpt>
      <trkpt lat="45.94951" lon="4.80484">
        <ele>305</ele>
        <time>2018-10-06T08:42:42Z</time>
      </trkpt>
      <trkpt lat="45.94951" lon="4.8049">
        <ele>305</ele>
        <time>2018-10-06T08:42:43Z</time>
      </trkpt>
      <trkpt lat="45.94952" lon="4.80502">
        <ele>304</ele>
        <time>2018-10-06T08:42:46Z</time>
      </trkpt>
      <trkpt lat="45.94952" lon="4.80505">
        <ele>304</ele>
        <time>2018-10-06T08:42:47Z</time>
      </trkpt>
      <trkpt lat="45.94952" lon="4.80509">
        <ele>303</ele>
        <time>2018-10-06T08:42:48Z</time>
      </trkpt>
      <trkpt lat="45.94952" lon="4.8052">
        <ele>303</ele>
        <time>2018-10-06T08:42:49Z</time>
      </trkpt>
      <trkpt lat="45.94952" lon="4.80532">
        <ele>302</ele>
        <time>2018-10-06T08:42:51Z</time>
      </trkpt>
      <trkpt lat="45.94952" lon="4.80537">
        <ele>302</ele>
        <time>2018-10-06T08:42:52Z</time>
      </trkpt>
      <trkpt lat="45.94953" lon="4.80549">
        <ele>301</ele>
        <time>2018-10-06T08:42:54Z</time>
      </trkpt>
      <trkpt lat="45.94953" lon="4.80556">
        <ele>301</ele>
        <time>2018-10-06T08:42:55Z</time>
      </trkpt>
      <trkpt lat="45.94953" lon="4.80568">
        <ele>300</ele>
        <time>2018-10-06T08:42:57Z</time>
      </trkpt>
      <trkpt lat="45.94953" lon="4.80574">
        <ele>299</ele>
        <time>2018-10-06T08:42:58Z</time>
      </trkpt>
      <trkpt lat="45.94954" lon="4.8058">
        <ele>300</ele>
        <time>2018-10-06T08:42:59Z</time>
      </trkpt>
      <trkpt lat="45.94953" lon="4.80588">
        <ele>300</ele>
        <time>2018-10-06T08:43:00Z</time>
      </trkpt>
      <trkpt lat="45.94953" lon="4.806">
        <ele>299</ele>
        <time>2018-10-06T08:43:02Z</time>
      </trkpt>
      <trkpt lat="45.94953" lon="4.80606">
        <ele>299</ele>
        <time>2018-10-06T08:43:03Z</time>
      </trkpt>
      <trkpt lat="45.94954" lon="4.80618">
        <ele>299</ele>
        <time>2018-10-06T08:43:05Z</time>
      </trkpt>
      <trkpt lat="45.94954" lon="4.80621">
        <ele>300</ele>
        <time>2018-10-06T08:43:06Z</time>
      </trkpt>
      <trkpt lat="45.94954" lon="4.80625">
        <ele>300</ele>
        <time>2018-10-06T08:43:07Z</time>
      </trkpt>
      <trkpt lat="45.94955" lon="4.80634">
        <ele>300</ele>
        <time>2018-10-06T08:43:08Z</time>
      </trkpt>
      <trkpt lat="45.94955" lon="4.80646">
        <ele>298</ele>
        <time>2018-10-06T08:43:10Z</time>
      </trkpt>
      <trkpt lat="45.94955" lon="4.80652">
        <ele>298</ele>
        <time>2018-10-06T08:43:11Z</time>
      </trkpt>
      <trkpt lat="45.94955" lon="4.80663">
        <ele>299</ele>
        <time>2018-10-06T08:43:13Z</time>
      </trkpt>
      <trkpt lat="45.94955" lon="4.80669">
        <ele>299</ele>
        <time>2018-10-06T08:43:14Z</time>
      </trkpt>
      <trkpt lat="45.94956" lon="4.80681">
        <ele>298</ele>
        <time>2018-10-06T08:43:16Z</time>
      </trkpt>
      <trkpt lat="45.94956" lon="4.80687">
        <ele>299</ele>
        <time>2018-10-06T08:43:17Z</time>
      </trkpt>
      <trkpt lat="45.94956" lon="4.807">
        <ele>300</ele>
        <time>2018-10-06T08:43:19Z</time>
      </trkpt>
      <trkpt lat="45.94956" lon="4.80706">
        <ele>300</ele>
        <time>2018-10-06T08:43:20Z</time>
      </trkpt>
      <trkpt lat="45.94957" lon="4.80716">
        <ele>300</ele>
        <time>2018-10-06T08:43:22Z</time>
      </trkpt>
      <trkpt lat="45.94957" lon="4.80719">
        <ele>300</ele>
        <time>2018-10-06T08:43:23Z</time>
      </trkpt>
      <trkpt lat="45.94957" lon="4.80729">
        <ele>299</ele>
        <time>2018-10-06T08:43:25Z</time>
      </trkpt>
      <trkpt lat="45.94956" lon="4.80737">
        <ele>299</ele>
        <time>2018-10-06T08:43:26Z</time>
      </trkpt>
      <trkpt lat="45.94956" lon="4.80748">
        <ele>300</ele>
        <time>2018-10-06T08:43:28Z</time>
      </trkpt>
      <trkpt lat="45.94955" lon="4.80754">
        <ele>300</ele>
        <time>2018-10-06T08:43:29Z</time>
      </trkpt>
      <trkpt lat="45.94954" lon="4.80764">
        <ele>301</ele>
        <time>2018-10-06T08:43:31Z</time>
      </trkpt>
      <trkpt lat="45.94953" lon="4.80769">
        <ele>301</ele>
        <time>2018-10-06T08:43:32Z</time>
      </trkpt>
      <trkpt lat="45.94951" lon="4.80778">
        <ele>301</ele>
        <time>2018-10-06T08:43:35Z</time>
      </trkpt>
      <trkpt lat="45.9495" lon="4.80782">
        <ele>302</ele>
        <time>2018-10-06T08:43:36Z</time>
      </trkpt>
      <trkpt lat="45.94949" lon="4.80793">
        <ele>302</ele>
        <time>2018-10-06T08:43:39Z</time>
      </trkpt>
      <trkpt lat="45.94948" lon="4.80796">
        <ele>301</ele>
        <time>2018-10-06T08:43:40Z</time>
      </trkpt>
      <trkpt lat="45.94949" lon="4.80808">
        <ele>300</ele>
        <time>2018-10-06T08:43:41Z</time>
      </trkpt>
      <trkpt lat="45.94952" lon="4.80813">
        <ele>300</ele>
        <time>2018-10-06T08:43:42Z</time>
      </trkpt>
      <trkpt lat="45.94957" lon="4.80818">
        <ele>300</ele>
        <time>2018-10-06T08:43:43Z</time>
      </trkpt>
      <trkpt lat="45.94959" lon="4.80824">
        <ele>300</ele>
        <time>2018-10-06T08:43:44Z</time>
      </trkpt>
      <trkpt lat="45.94962" lon="4.8083">
        <ele>300</ele>
        <time>2018-10-06T08:43:45Z</time>
      </trkpt>
      <trkpt lat="45.94963" lon="4.80837">
        <ele>300</ele>
        <time>2018-10-06T08:43:46Z</time>
      </trkpt>
      <trkpt lat="45.94965" lon="4.80843">
        <ele>300</ele>
        <time>2018-10-06T08:43:47Z</time>
      </trkpt>
      <trkpt lat="45.94966" lon="4.8085">
        <ele>300</ele>
        <time>2018-10-06T08:43:48Z</time>
      </trkpt>
      <trkpt lat="45.94967" lon="4.80857">
        <ele>299</ele>
        <time>2018-10-06T08:43:49Z</time>
      </trkpt>
      <trkpt lat="45.94969" lon="4.80863">
        <ele>299</ele>
        <time>2018-10-06T08:43:50Z</time>
      </trkpt>
      <trkpt lat="45.9497" lon="4.8087">
        <ele>299</ele>
        <time>2018-10-06T08:43:51Z</time>
      </trkpt>
      <trkpt lat="45.94971" lon="4.80876">
        <ele>299</ele>
        <time>2018-10-06T08:43:52Z</time>
      </trkpt>
      <trkpt lat="45.94973" lon="4.80888">
        <ele>299</ele>
        <time>2018-10-06T08:43:54Z</time>
      </trkpt>
      <trkpt lat="45.94975" lon="4.80892">
        <ele>300</ele>
        <time>2018-10-06T08:43:55Z</time>
      </trkpt>
      <trkpt lat="45.94978" lon="4.80902">
        <ele>300</ele>
        <time>2018-10-06T08:43:57Z</time>
      </trkpt>
      <trkpt lat="45.9498" lon="4.80909">
        <ele>300</ele>
        <time>2018-10-06T08:43:58Z</time>
      </trkpt>
      <trkpt lat="45.94981" lon="4.80915">
        <ele>300</ele>
        <time>2018-10-06T08:43:59Z</time>
      </trkpt>
      <trkpt lat="45.94982" lon="4.80921">
        <ele>300</ele>
        <time>2018-10-06T08:44:00Z</time>
      </trkpt>
      <trkpt lat="45.94983" lon="4.80928">
        <ele>300</ele>
        <time>2018-10-06T08:44:01Z</time>
      </trkpt>
      <trkpt lat="45.94983" lon="4.80935">
        <ele>299</ele>
        <time>2018-10-06T08:44:02Z</time>
      </trkpt>
      <trkpt lat="45.94984" lon="4.80946">
        <ele>299</ele>
        <time>2018-10-06T08:44:04Z</time>
      </trkpt>
      <trkpt lat="45.94985" lon="4.80951">
        <ele>300</ele>
        <time>2018-10-06T08:44:05Z</time>
      </trkpt>
      <trkpt lat="45.94986" lon="4.80963">
        <ele>299</ele>
        <time>2018-10-06T08:44:08Z</time>
      </trkpt>
      <trkpt lat="45.94986" lon="4.80966">
        <ele>300</ele>
        <time>2018-10-06T08:44:09Z</time>
      </trkpt>
      <trkpt lat="45.94988" lon="4.80977">
        <ele>300</ele>
        <time>2018-10-06T08:44:10Z</time>
      </trkpt>
      <trkpt lat="45.94989" lon="4.80982">
        <ele>300</ele>
        <time>2018-10-06T08:44:11Z</time>
      </trkpt>
      <trkpt lat="45.9499" lon="4.80989">
        <ele>300</ele>
        <time>2018-10-06T08:44:12Z</time>
      </trkpt>
      <trkpt lat="45.94991" lon="4.80996">
        <ele>300</ele>
        <time>2018-10-06T08:44:13Z</time>
      </trkpt>
      <trkpt lat="45.94991" lon="4.81003">
        <ele>300</ele>
        <time>2018-10-06T08:44:14Z</time>
      </trkpt>
      <trkpt lat="45.94992" lon="4.8101">
        <ele>300</ele>
        <time>2018-10-06T08:44:15Z</time>
      </trkpt>
      <trkpt lat="45.94992" lon="4.81023">
        <ele>301</ele>
        <time>2018-10-06T08:44:17Z</time>
      </trkpt>
      <trkpt lat="45.94993" lon="4.81029">
        <ele>301</ele>
        <time>2018-10-06T08:44:18Z</time>
      </trkpt>
      <trkpt lat="45.94994" lon="4.81037">
        <ele>301</ele>
        <time>2018-10-06T08:44:19Z</time>
      </trkpt>
      <trkpt lat="45.94994" lon="4.81044">
        <ele>301</ele>
        <time>2018-10-06T08:44:20Z</time>
      </trkpt>
      <trkpt lat="45.94995" lon="4.81051">
        <ele>302</ele>
        <time>2018-10-06T08:44:21Z</time>
      </trkpt>
      <trkpt lat="45.94995" lon="4.81058">
        <ele>302</ele>
        <time>2018-10-06T08:44:22Z</time>
      </trkpt>
      <trkpt lat="45.94995" lon="4.81066">
        <ele>302</ele>
        <time>2018-10-06T08:44:23Z</time>
      </trkpt>
      <trkpt lat="45.94995" lon="4.81073">
        <ele>301</ele>
        <time>2018-10-06T08:44:24Z</time>
      </trkpt>
      <trkpt lat="45.94997" lon="4.81079">
        <ele>300</ele>
        <time>2018-10-06T08:44:25Z</time>
      </trkpt>
      <trkpt lat="45.94998" lon="4.81086">
        <ele>299</ele>
        <time>2018-10-06T08:44:26Z</time>
      </trkpt>
      <trkpt lat="45.94999" lon="4.81094">
        <ele>299</ele>
        <time>2018-10-06T08:44:27Z</time>
      </trkpt>
      <trkpt lat="45.94999" lon="4.811">
        <ele>298</ele>
        <time>2018-10-06T08:44:28Z</time>
      </trkpt>
      <trkpt lat="45.95" lon="4.81107">
        <ele>298</ele>
        <time>2018-10-06T08:44:29Z</time>
      </trkpt>
      <trkpt lat="45.95" lon="4.81113">
        <ele>298</ele>
        <time>2018-10-06T08:44:30Z</time>
      </trkpt>
      <trkpt lat="45.95001" lon="4.81119">
        <ele>298</ele>
        <time>2018-10-06T08:44:31Z</time>
      </trkpt>
      <trkpt lat="45.95002" lon="4.81127">
        <ele>298</ele>
        <time>2018-10-06T08:44:32Z</time>
      </trkpt>
      <trkpt lat="45.95002" lon="4.81135">
        <ele>297</ele>
        <time>2018-10-06T08:44:33Z</time>
      </trkpt>
      <trkpt lat="45.95003" lon="4.81142">
        <ele>298</ele>
        <time>2018-10-06T08:44:34Z</time>
      </trkpt>
      <trkpt lat="45.95004" lon="4.81151">
        <ele>299</ele>
        <time>2018-10-06T08:44:35Z</time>
      </trkpt>
      <trkpt lat="45.95005" lon="4.81158">
        <ele>298</ele>
        <time>2018-10-06T08:44:36Z</time>
      </trkpt>
      <trkpt lat="45.95006" lon="4.81165">
        <ele>298</ele>
        <time>2018-10-06T08:44:37Z</time>
      </trkpt>
      <trkpt lat="45.95007" lon="4.81172">
        <ele>298</ele>
        <time>2018-10-06T08:44:38Z</time>
      </trkpt>
      <trkpt lat="45.95007" lon="4.8118">
        <ele>298</ele>
        <time>2018-10-06T08:44:39Z</time>
      </trkpt>
      <trkpt lat="45.95008" lon="4.81186">
        <ele>298</ele>
        <time>2018-10-06T08:44:40Z</time>
      </trkpt>
      <trkpt lat="45.95009" lon="4.81193">
        <ele>299</ele>
        <time>2018-10-06T08:44:41Z</time>
      </trkpt>
      <trkpt lat="45.9501" lon="4.812">
        <ele>299</ele>
        <time>2018-10-06T08:44:42Z</time>
      </trkpt>
      <trkpt lat="45.9501" lon="4.81208">
        <ele>298</ele>
        <time>2018-10-06T08:44:43Z</time>
      </trkpt>
      <trkpt lat="45.95013" lon="4.81215">
        <ele>299</ele>
        <time>2018-10-06T08:44:44Z</time>
      </trkpt>
      <trkpt lat="45.95013" lon="4.81222">
        <ele>299</ele>
        <time>2018-10-06T08:44:45Z</time>
      </trkpt>
      <trkpt lat="45.95013" lon="4.81229">
        <ele>299</ele>
        <time>2018-10-06T08:44:46Z</time>
      </trkpt>
      <trkpt lat="45.95015" lon="4.81241">
        <ele>299</ele>
        <time>2018-10-06T08:44:48Z</time>
      </trkpt>
      <trkpt lat="45.95016" lon="4.81247">
        <ele>299</ele>
        <time>2018-10-06T08:44:49Z</time>
      </trkpt>
      <trkpt lat="45.95017" lon="4.81254">
        <ele>300</ele>
        <time>2018-10-06T08:44:50Z</time>
      </trkpt>
      <trkpt lat="45.95019" lon="4.81261">
        <ele>299</ele>
        <time>2018-10-06T08:44:51Z</time>
      </trkpt>
      <trkpt lat="45.9502" lon="4.81268">
        <ele>299</ele>
        <time>2018-10-06T08:44:52Z</time>
      </trkpt>
      <trkpt lat="45.95021" lon="4.81274">
        <ele>299</ele>
        <time>2018-10-06T08:44:53Z</time>
      </trkpt>
      <trkpt lat="45.95022" lon="4.8128">
        <ele>299</ele>
        <time>2018-10-06T08:44:54Z</time>
      </trkpt>
      <trkpt lat="45.95024" lon="4.81287">
        <ele>299</ele>
        <time>2018-10-06T08:44:55Z</time>
      </trkpt>
      <trkpt lat="45.95025" lon="4.81293">
        <ele>300</ele>
        <time>2018-10-06T08:44:56Z</time>
      </trkpt>
      <trkpt lat="45.95027" lon="4.813">
        <ele>301</ele>
        <time>2018-10-06T08:44:57Z</time>
      </trkpt>
      <trkpt lat="45.95031" lon="4.8131">
        <ele>301</ele>
        <time>2018-10-06T08:44:59Z</time>
      </trkpt>
      <trkpt lat="45.95032" lon="4.81314">
        <ele>301</ele>
        <time>2018-10-06T08:45:00Z</time>
      </trkpt>
      <trkpt lat="45.95034" lon="4.8132">
        <ele>300</ele>
        <time>2018-10-06T08:45:01Z</time>
      </trkpt>
      <trkpt lat="45.95036" lon="4.81326">
        <ele>300</ele>
        <time>2018-10-06T08:45:02Z</time>
      </trkpt>
      <trkpt lat="45.95038" lon="4.81333">
        <ele>300</ele>
        <time>2018-10-06T08:45:03Z</time>
      </trkpt>
      <trkpt lat="45.95039" lon="4.81339">
        <ele>300</ele>
        <time>2018-10-06T08:45:04Z</time>
      </trkpt>
      <trkpt lat="45.95041" lon="4.81347">
        <ele>299</ele>
        <time>2018-10-06T08:45:05Z</time>
      </trkpt>
      <trkpt lat="45.95043" lon="4.81354">
        <ele>299</ele>
        <time>2018-10-06T08:45:06Z</time>
      </trkpt>
      <trkpt lat="45.95044" lon="4.8136">
        <ele>299</ele>
        <time>2018-10-06T08:45:07Z</time>
      </trkpt>
      <trkpt lat="45.95047" lon="4.81368">
        <ele>299</ele>
        <time>2018-10-06T08:45:08Z</time>
      </trkpt>
      <trkpt lat="45.95048" lon="4.81375">
        <ele>299</ele>
        <time>2018-10-06T08:45:09Z</time>
      </trkpt>
      <trkpt lat="45.95051" lon="4.81382">
        <ele>298</ele>
        <time>2018-10-06T08:45:10Z</time>
      </trkpt>
      <trkpt lat="45.95052" lon="4.81391">
        <ele>298</ele>
        <time>2018-10-06T08:45:11Z</time>
      </trkpt>
      <trkpt lat="45.95055" lon="4.81398">
        <ele>298</ele>
        <time>2018-10-06T08:45:12Z</time>
      </trkpt>
      <trkpt lat="45.95058" lon="4.81406">
        <ele>298</ele>
        <time>2018-10-06T08:45:13Z</time>
      </trkpt>
      <trkpt lat="45.95061" lon="4.81414">
        <ele>298</ele>
        <time>2018-10-06T08:45:14Z</time>
      </trkpt>
      <trkpt lat="45.95064" lon="4.81424">
        <ele>297</ele>
        <time>2018-10-06T08:45:15Z</time>
      </trkpt>
      <trkpt lat="45.95067" lon="4.81431">
        <ele>297</ele>
        <time>2018-10-06T08:45:16Z</time>
      </trkpt>
      <trkpt lat="45.9507" lon="4.8144">
        <ele>297</ele>
        <time>2018-10-06T08:45:17Z</time>
      </trkpt>
      <trkpt lat="45.95073" lon="4.81448">
        <ele>297</ele>
        <time>2018-10-06T08:45:18Z</time>
      </trkpt>
      <trkpt lat="45.95076" lon="4.81456">
        <ele>297</ele>
        <time>2018-10-06T08:45:19Z</time>
      </trkpt>
      <trkpt lat="45.9508" lon="4.81464">
        <ele>296</ele>
        <time>2018-10-06T08:45:20Z</time>
      </trkpt>
      <trkpt lat="45.95083" lon="4.81472">
        <ele>296</ele>
        <time>2018-10-06T08:45:21Z</time>
      </trkpt>
      <trkpt lat="45.95087" lon="4.81481">
        <ele>296</ele>
        <time>2018-10-06T08:45:22Z</time>
      </trkpt>
      <trkpt lat="45.9509" lon="4.8149">
        <ele>296</ele>
        <time>2018-10-06T08:45:23Z</time>
      </trkpt>
      <trkpt lat="45.95094" lon="4.81498">
        <ele>296</ele>
        <time>2018-10-06T08:45:24Z</time>
      </trkpt>
      <trkpt lat="45.95097" lon="4.81506">
        <ele>296</ele>
        <time>2018-10-06T08:45:25Z</time>
      </trkpt>
      <trkpt lat="45.951" lon="4.81515">
        <ele>296</ele>
        <time>2018-10-06T08:45:26Z</time>
      </trkpt>
      <trkpt lat="45.95103" lon="4.81525">
        <ele>296</ele>
        <time>2018-10-06T08:45:27Z</time>
      </trkpt>
      <trkpt lat="45.95106" lon="4.81535">
        <ele>296</ele>
        <time>2018-10-06T08:45:28Z</time>
      </trkpt>
      <trkpt lat="45.95109" lon="4.81543">
        <ele>296</ele>
        <time>2018-10-06T08:45:29Z</time>
      </trkpt>
      <trkpt lat="45.95113" lon="4.81551">
        <ele>297</ele>
        <time>2018-10-06T08:45:30Z</time>
      </trkpt>
      <trkpt lat="45.95116" lon="4.8156">
        <ele>298</ele>
        <time>2018-10-06T08:45:31Z</time>
      </trkpt>
      <trkpt lat="45.9512" lon="4.81568">
        <ele>298</ele>
        <time>2018-10-06T08:45:32Z</time>
      </trkpt>
      <trkpt lat="45.95123" lon="4.81576">
        <ele>298</ele>
        <time>2018-10-06T08:45:33Z</time>
      </trkpt>
      <trkpt lat="45.95125" lon="4.81584">
        <ele>298</ele>
        <time>2018-10-06T08:45:34Z</time>
      </trkpt>
      <trkpt lat="45.95127" lon="4.81591">
        <ele>298</ele>
        <time>2018-10-06T08:45:35Z</time>
      </trkpt>
      <trkpt lat="45.95129" lon="4.81598">
        <ele>299</ele>
        <time>2018-10-06T08:45:36Z</time>
      </trkpt>
      <trkpt lat="45.95131" lon="4.81605">
        <ele>298</ele>
        <time>2018-10-06T08:45:37Z</time>
      </trkpt>
      <trkpt lat="45.95133" lon="4.81612">
        <ele>298</ele>
        <time>2018-10-06T08:45:38Z</time>
      </trkpt>
      <trkpt lat="45.95136" lon="4.81624">
        <ele>298</ele>
        <time>2018-10-06T08:45:40Z</time>
      </trkpt>
      <trkpt lat="45.95138" lon="4.8163">
        <ele>298</ele>
        <time>2018-10-06T08:45:41Z</time>
      </trkpt>
      <trkpt lat="45.95142" lon="4.81641">
        <ele>299</ele>
        <time>2018-10-06T08:45:43Z</time>
      </trkpt>
      <trkpt lat="45.95143" lon="4.81647">
        <ele>299</ele>
        <time>2018-10-06T08:45:44Z</time>
      </trkpt>
      <trkpt lat="45.95146" lon="4.81657">
        <ele>299</ele>
        <time>2018-10-06T08:45:46Z</time>
      </trkpt>
      <trkpt lat="45.95148" lon="4.8166">
        <ele>299</ele>
        <time>2018-10-06T08:45:47Z</time>
      </trkpt>
      <trkpt lat="45.95151" lon="4.8167">
        <ele>301</ele>
        <time>2018-10-06T08:45:50Z</time>
      </trkpt>
      <trkpt lat="45.95152" lon="4.81674">
        <ele>300</ele>
        <time>2018-10-06T08:45:51Z</time>
      </trkpt>
      <trkpt lat="45.95156" lon="4.81684">
        <ele>300</ele>
        <time>2018-10-06T08:45:54Z</time>
      </trkpt>
      <trkpt lat="45.95157" lon="4.81688">
        <ele>300</ele>
        <time>2018-10-06T08:45:55Z</time>
      </trkpt>
      <trkpt lat="45.95161" lon="4.817">
        <ele>299</ele>
        <time>2018-10-06T08:45:58Z</time>
      </trkpt>
      <trkpt lat="45.95162" lon="4.81703">
        <ele>300</ele>
        <time>2018-10-06T08:45:59Z</time>
      </trkpt>
      <trkpt lat="45.95165" lon="4.81715">
        <ele>301</ele>
        <time>2018-10-06T08:46:02Z</time>
      </trkpt>
      <trkpt lat="45.95167" lon="4.81718">
        <ele>299</ele>
        <time>2018-10-06T08:46:03Z</time>
      </trkpt>
      <trkpt lat="45.95171" lon="4.81729">
        <ele>301</ele>
        <time>2018-10-06T08:46:06Z</time>
      </trkpt>
      <trkpt lat="45.95173" lon="4.81733">
        <ele>301</ele>
        <time>2018-10-06T08:46:07Z</time>
      </trkpt>
      <trkpt lat="45.95177" lon="4.81741">
        <ele>301</ele>
        <time>2018-10-06T08:46:09Z</time>
      </trkpt>
      <trkpt lat="45.95179" lon="4.81744">
        <ele>302</ele>
        <time>2018-10-06T08:46:10Z</time>
      </trkpt>
      <trkpt lat="45.95184" lon="4.81751">
        <ele>302</ele>
        <time>2018-10-06T08:46:12Z</time>
      </trkpt>
      <trkpt lat="45.95186" lon="4.81755">
        <ele>301</ele>
        <time>2018-10-06T08:46:13Z</time>
      </trkpt>
      <trkpt lat="45.95191" lon="4.81762">
        <ele>301</ele>
        <time>2018-10-06T08:46:15Z</time>
      </trkpt>
      <trkpt lat="45.95193" lon="4.81765">
        <ele>302</ele>
        <time>2018-10-06T08:46:16Z</time>
      </trkpt>
      <trkpt lat="45.95197" lon="4.81773">
        <ele>302</ele>
        <time>2018-10-06T08:46:18Z</time>
      </trkpt>
      <trkpt lat="45.952" lon="4.81778">
        <ele>302</ele>
        <time>2018-10-06T08:46:19Z</time>
      </trkpt>
      <trkpt lat="45.95205" lon="4.81786">
        <ele>302</ele>
        <time>2018-10-06T08:46:21Z</time>
      </trkpt>
      <trkpt lat="45.95207" lon="4.8179">
        <ele>302</ele>
        <time>2018-10-06T08:46:22Z</time>
      </trkpt>
      <trkpt lat="45.95211" lon="4.81796">
        <ele>301</ele>
        <time>2018-10-06T08:46:24Z</time>
      </trkpt>
      <trkpt lat="45.95214" lon="4.818">
        <ele>301</ele>
        <time>2018-10-06T08:46:25Z</time>
      </trkpt>
      <trkpt lat="45.95218" lon="4.81806">
        <ele>301</ele>
        <time>2018-10-06T08:46:27Z</time>
      </trkpt>
      <trkpt lat="45.95225" lon="4.81816">
        <ele>301</ele>
        <time>2018-10-06T08:46:28Z</time>
      </trkpt>
      <trkpt lat="45.9523" lon="4.81824">
        <ele>303</ele>
        <time>2018-10-06T08:46:30Z</time>
      </trkpt>
      <trkpt lat="45.95232" lon="4.81828">
        <ele>303</ele>
        <time>2018-10-06T08:46:31Z</time>
      </trkpt>
      <trkpt lat="45.95237" lon="4.81836">
        <ele>304</ele>
        <time>2018-10-06T08:46:34Z</time>
      </trkpt>
      <trkpt lat="45.95239" lon="4.81839">
        <ele>305</ele>
        <time>2018-10-06T08:46:35Z</time>
      </trkpt>
      <trkpt lat="45.95245" lon="4.81849">
        <ele>304</ele>
        <time>2018-10-06T08:46:37Z</time>
      </trkpt>
      <trkpt lat="45.95248" lon="4.81855">
        <ele>305</ele>
        <time>2018-10-06T08:46:38Z</time>
      </trkpt>
      <trkpt lat="45.95254" lon="4.81862">
        <ele>306</ele>
        <time>2018-10-06T08:46:40Z</time>
      </trkpt>
      <trkpt lat="45.95255" lon="4.81864">
        <ele>307</ele>
        <time>2018-10-06T08:46:41Z</time>
      </trkpt>
      <trkpt lat="45.95261" lon="4.81873">
        <ele>307</ele>
        <time>2018-10-06T08:46:43Z</time>
      </trkpt>
      <trkpt lat="45.95263" lon="4.81877">
        <ele>307</ele>
        <time>2018-10-06T08:46:44Z</time>
      </trkpt>
      <trkpt lat="45.95269" lon="4.81885">
        <ele>307</ele>
        <time>2018-10-06T08:46:46Z</time>
      </trkpt>
      <trkpt lat="45.95272" lon="4.81889">
        <ele>306</ele>
        <time>2018-10-06T08:46:47Z</time>
      </trkpt>
      <trkpt lat="45.95278" lon="4.81897">
        <ele>306</ele>
        <time>2018-10-06T08:46:49Z</time>
      </trkpt>
      <trkpt lat="45.9528" lon="4.81901">
        <ele>306</ele>
        <time>2018-10-06T08:46:50Z</time>
      </trkpt>
      <trkpt lat="45.95286" lon="4.81909">
        <ele>306</ele>
        <time>2018-10-06T08:46:52Z</time>
      </trkpt>
      <trkpt lat="45.95288" lon="4.81914">
        <ele>306</ele>
        <time>2018-10-06T08:46:53Z</time>
      </trkpt>
      <trkpt lat="45.95293" lon="4.8192">
        <ele>305</ele>
        <time>2018-10-06T08:46:56Z</time>
      </trkpt>
      <trkpt lat="45.95294" lon="4.81923">
        <ele>305</ele>
        <time>2018-10-06T08:46:57Z</time>
      </trkpt>
      <trkpt lat="45.95297" lon="4.81926">
        <ele>305</ele>
        <time>2018-10-06T08:46:58Z</time>
      </trkpt>
      <trkpt lat="45.95303" lon="4.81934">
        <ele>305</ele>
        <time>2018-10-06T08:46:59Z</time>
      </trkpt>
      <trkpt lat="45.95309" lon="4.81941">
        <ele>305</ele>
        <time>2018-10-06T08:47:01Z</time>
      </trkpt>
      <trkpt lat="45.95313" lon="4.81944">
        <ele>305</ele>
        <time>2018-10-06T08:47:02Z</time>
      </trkpt>
      <trkpt lat="45.95317" lon="4.81948">
        <ele>305</ele>
        <time>2018-10-06T08:47:03Z</time>
      </trkpt>
      <trkpt lat="45.9532" lon="4.81952">
        <ele>305</ele>
        <time>2018-10-06T08:47:04Z</time>
      </trkpt>
      <trkpt lat="45.95324" lon="4.81956">
        <ele>305</ele>
        <time>2018-10-06T08:47:05Z</time>
      </trkpt>
      <trkpt lat="45.95329" lon="4.8196">
        <ele>305</ele>
        <time>2018-10-06T08:47:06Z</time>
      </trkpt>
      <trkpt lat="45.95333" lon="4.81964">
        <ele>305</ele>
        <time>2018-10-06T08:47:07Z</time>
      </trkpt>
      <trkpt lat="45.95337" lon="4.81969">
        <ele>305</ele>
        <time>2018-10-06T08:47:08Z</time>
      </trkpt>
      <trkpt lat="45.95341" lon="4.81973">
        <ele>305</ele>
        <time>2018-10-06T08:47:09Z</time>
      </trkpt>
      <trkpt lat="45.95344" lon="4.81977">
        <ele>305</ele>
        <time>2018-10-06T08:47:10Z</time>
      </trkpt>
      <trkpt lat="45.95351" lon="4.81982">
        <ele>305</ele>
        <time>2018-10-06T08:47:12Z</time>
      </trkpt>
      <trkpt lat="45.95355" lon="4.81987">
        <ele>305</ele>
        <time>2018-10-06T08:47:13Z</time>
      </trkpt>
      <trkpt lat="45.95361" lon="4.81996">
        <ele>305</ele>
        <time>2018-10-06T08:47:15Z</time>
      </trkpt>
      <trkpt lat="45.95366" lon="4.82">
        <ele>305</ele>
        <time>2018-10-06T08:47:16Z</time>
      </trkpt>
      <trkpt lat="45.9537" lon="4.82003">
        <ele>304</ele>
        <time>2018-10-06T08:47:17Z</time>
      </trkpt>
      <trkpt lat="45.95374" lon="4.82007">
        <ele>305</ele>
        <time>2018-10-06T08:47:18Z</time>
      </trkpt>
      <trkpt lat="45.9538" lon="4.82015">
        <ele>305</ele>
        <time>2018-10-06T08:47:20Z</time>
      </trkpt>
      <trkpt lat="45.95383" lon="4.8202">
        <ele>305</ele>
        <time>2018-10-06T08:47:21Z</time>
      </trkpt>
      <trkpt lat="45.9539" lon="4.82027">
        <ele>305</ele>
        <time>2018-10-06T08:47:23Z</time>
      </trkpt>
      <trkpt lat="45.95394" lon="4.82031">
        <ele>305</ele>
        <time>2018-10-06T08:47:24Z</time>
      </trkpt>
      <trkpt lat="45.95401" lon="4.82037">
        <ele>306</ele>
        <time>2018-10-06T08:47:26Z</time>
      </trkpt>
      <trkpt lat="45.95406" lon="4.82041">
        <ele>307</ele>
        <time>2018-10-06T08:47:27Z</time>
      </trkpt>
      <trkpt lat="45.9541" lon="4.82045">
        <ele>307</ele>
        <time>2018-10-06T08:47:28Z</time>
      </trkpt>
      <trkpt lat="45.95414" lon="4.82049">
        <ele>307</ele>
        <time>2018-10-06T08:47:29Z</time>
      </trkpt>
      <trkpt lat="45.95419" lon="4.82052">
        <ele>308</ele>
        <time>2018-10-06T08:47:30Z</time>
      </trkpt>
      <trkpt lat="45.95423" lon="4.82056">
        <ele>308</ele>
        <time>2018-10-06T08:47:31Z</time>
      </trkpt>
      <trkpt lat="45.95429" lon="4.82064">
        <ele>307</ele>
        <time>2018-10-06T08:47:33Z</time>
      </trkpt>
      <trkpt lat="45.95432" lon="4.82068">
        <ele>307</ele>
        <time>2018-10-06T08:47:34Z</time>
      </trkpt>
      <trkpt lat="45.95436" lon="4.82072">
        <ele>307</ele>
        <time>2018-10-06T08:47:35Z</time>
      </trkpt>
      <trkpt lat="45.9544" lon="4.82076">
        <ele>307</ele>
        <time>2018-10-06T08:47:36Z</time>
      </trkpt>
      <trkpt lat="45.95446" lon="4.82084">
        <ele>307</ele>
        <time>2018-10-06T08:47:38Z</time>
      </trkpt>
      <trkpt lat="45.9545" lon="4.82087">
        <ele>307</ele>
        <time>2018-10-06T08:47:39Z</time>
      </trkpt>
      <trkpt lat="45.95453" lon="4.8209">
        <ele>307</ele>
        <time>2018-10-06T08:47:40Z</time>
      </trkpt>
      <trkpt lat="45.95457" lon="4.82095">
        <ele>307</ele>
        <time>2018-10-06T08:47:41Z</time>
      </trkpt>
      <trkpt lat="45.95461" lon="4.82099">
        <ele>307</ele>
        <time>2018-10-06T08:47:42Z</time>
      </trkpt>
      <trkpt lat="45.95466" lon="4.82103">
        <ele>307</ele>
        <time>2018-10-06T08:47:43Z</time>
      </trkpt>
      <trkpt lat="45.95469" lon="4.82107">
        <ele>307</ele>
        <time>2018-10-06T08:47:44Z</time>
      </trkpt>
      <trkpt lat="45.95474" lon="4.82112">
        <ele>307</ele>
        <time>2018-10-06T08:47:45Z</time>
      </trkpt>
      <trkpt lat="45.95478" lon="4.82117">
        <ele>307</ele>
        <time>2018-10-06T08:47:46Z</time>
      </trkpt>
      <trkpt lat="45.95482" lon="4.82122">
        <ele>307</ele>
        <time>2018-10-06T08:47:47Z</time>
      </trkpt>
      <trkpt lat="45.95486" lon="4.82127">
        <ele>307</ele>
        <time>2018-10-06T08:47:48Z</time>
      </trkpt>
      <trkpt lat="45.9549" lon="4.82132">
        <ele>307</ele>
        <time>2018-10-06T08:47:49Z</time>
      </trkpt>
      <trkpt lat="45.95495" lon="4.82136">
        <ele>307</ele>
        <time>2018-10-06T08:47:50Z</time>
      </trkpt>
      <trkpt lat="45.95499" lon="4.82141">
        <ele>307</ele>
        <time>2018-10-06T08:47:51Z</time>
      </trkpt>
      <trkpt lat="45.95503" lon="4.82144">
        <ele>307</ele>
        <time>2018-10-06T08:47:52Z</time>
      </trkpt>
      <trkpt lat="45.95507" lon="4.8215">
        <ele>307</ele>
        <time>2018-10-06T08:47:53Z</time>
      </trkpt>
      <trkpt lat="45.95511" lon="4.82154">
        <ele>306</ele>
        <time>2018-10-06T08:47:54Z</time>
      </trkpt>
      <trkpt lat="45.95515" lon="4.8216">
        <ele>306</ele>
        <time>2018-10-06T08:47:55Z</time>
      </trkpt>
      <trkpt lat="45.95519" lon="4.82164">
        <ele>306</ele>
        <time>2018-10-06T08:47:56Z</time>
      </trkpt>
      <trkpt lat="45.95524" lon="4.82166">
        <ele>305</ele>
        <time>2018-10-06T08:47:57Z</time>
      </trkpt>
      <trkpt lat="45.95529" lon="4.82171">
        <ele>305</ele>
        <time>2018-10-06T08:47:58Z</time>
      </trkpt>
      <trkpt lat="45.95534" lon="4.82176">
        <ele>305</ele>
        <time>2018-10-06T08:47:59Z</time>
      </trkpt>
      <trkpt lat="45.95537" lon="4.82181">
        <ele>305</ele>
        <time>2018-10-06T08:48:00Z</time>
      </trkpt>
      <trkpt lat="45.95542" lon="4.82185">
        <ele>305</ele>
        <time>2018-10-06T08:48:01Z</time>
      </trkpt>
      <trkpt lat="45.95549" lon="4.82186">
        <ele>304</ele>
        <time>2018-10-06T08:48:02Z</time>
      </trkpt>
      <trkpt lat="45.95553" lon="4.82192">
        <ele>303</ele>
        <time>2018-10-06T08:48:03Z</time>
      </trkpt>
      <trkpt lat="45.95559" lon="4.82194">
        <ele>305</ele>
        <time>2018-10-06T08:48:04Z</time>
      </trkpt>
      <trkpt lat="45.95564" lon="4.82199">
        <ele>304</ele>
        <time>2018-10-06T08:48:05Z</time>
      </trkpt>
      <trkpt lat="45.95569" lon="4.82204">
        <ele>304</ele>
        <time>2018-10-06T08:48:06Z</time>
      </trkpt>
      <trkpt lat="45.95574" lon="4.8221">
        <ele>305</ele>
        <time>2018-10-06T08:48:07Z</time>
      </trkpt>
      <trkpt lat="45.95579" lon="4.82215">
        <ele>305</ele>
        <time>2018-10-06T08:48:08Z</time>
      </trkpt>
      <trkpt lat="45.95585" lon="4.82219">
        <ele>305</ele>
        <time>2018-10-06T08:48:09Z</time>
      </trkpt>
      <trkpt lat="45.95592" lon="4.82222">
        <ele>305</ele>
        <time>2018-10-06T08:48:10Z</time>
      </trkpt>
      <trkpt lat="45.95598" lon="4.82225">
        <ele>305</ele>
        <time>2018-10-06T08:48:11Z</time>
      </trkpt>
      <trkpt lat="45.95604" lon="4.82226">
        <ele>304</ele>
        <time>2018-10-06T08:48:12Z</time>
      </trkpt>
      <trkpt lat="45.95611" lon="4.82226">
        <ele>304</ele>
        <time>2018-10-06T08:48:13Z</time>
      </trkpt>
      <trkpt lat="45.95618" lon="4.82226">
        <ele>304</ele>
        <time>2018-10-06T08:48:14Z</time>
      </trkpt>
      <trkpt lat="45.95624" lon="4.82226">
        <ele>304</ele>
        <time>2018-10-06T08:48:15Z</time>
      </trkpt>
      <trkpt lat="45.95631" lon="4.82225">
        <ele>305</ele>
        <time>2018-10-06T08:48:16Z</time>
      </trkpt>
      <trkpt lat="45.95641" lon="4.82225">
        <ele>304</ele>
        <time>2018-10-06T08:48:17Z</time>
      </trkpt>
      <trkpt lat="45.95648" lon="4.82224">
        <ele>304</ele>
        <time>2018-10-06T08:48:18Z</time>
      </trkpt>
      <trkpt lat="45.95655" lon="4.82224">
        <ele>304</ele>
        <time>2018-10-06T08:48:19Z</time>
      </trkpt>
      <trkpt lat="45.95663" lon="4.82225">
        <ele>304</ele>
        <time>2018-10-06T08:48:20Z</time>
      </trkpt>
      <trkpt lat="45.9567" lon="4.82228">
        <ele>303</ele>
        <time>2018-10-06T08:48:21Z</time>
      </trkpt>
      <trkpt lat="45.95677" lon="4.82232">
        <ele>303</ele>
        <time>2018-10-06T08:48:22Z</time>
      </trkpt>
      <trkpt lat="45.95684" lon="4.82236">
        <ele>302</ele>
        <time>2018-10-06T08:48:23Z</time>
      </trkpt>
      <trkpt lat="45.9569" lon="4.82241">
        <ele>302</ele>
        <time>2018-10-06T08:48:24Z</time>
      </trkpt>
      <trkpt lat="45.95696" lon="4.82248">
        <ele>302</ele>
        <time>2018-10-06T08:48:25Z</time>
      </trkpt>
      <trkpt lat="45.95702" lon="4.82254">
        <ele>302</ele>
        <time>2018-10-06T08:48:26Z</time>
      </trkpt>
      <trkpt lat="45.95706" lon="4.82259">
        <ele>301</ele>
        <time>2018-10-06T08:48:27Z</time>
      </trkpt>
      <trkpt lat="45.95711" lon="4.82264">
        <ele>300</ele>
        <time>2018-10-06T08:48:28Z</time>
      </trkpt>
      <trkpt lat="45.95716" lon="4.82272">
        <ele>301</ele>
        <time>2018-10-06T08:48:29Z</time>
      </trkpt>
      <trkpt lat="45.95722" lon="4.82278">
        <ele>300</ele>
        <time>2018-10-06T08:48:30Z</time>
      </trkpt>
      <trkpt lat="45.95726" lon="4.82283">
        <ele>300</ele>
        <time>2018-10-06T08:48:31Z</time>
      </trkpt>
      <trkpt lat="45.95732" lon="4.8229">
        <ele>299</ele>
        <time>2018-10-06T08:48:32Z</time>
      </trkpt>
      <trkpt lat="45.95738" lon="4.82296">
        <ele>299</ele>
        <time>2018-10-06T08:48:33Z</time>
      </trkpt>
      <trkpt lat="45.95741" lon="4.82305">
        <ele>299</ele>
        <time>2018-10-06T08:48:34Z</time>
      </trkpt>
      <trkpt lat="45.95747" lon="4.82312">
        <ele>300</ele>
        <time>2018-10-06T08:48:35Z</time>
      </trkpt>
      <trkpt lat="45.95751" lon="4.8232">
        <ele>298</ele>
        <time>2018-10-06T08:48:36Z</time>
      </trkpt>
      <trkpt lat="45.95756" lon="4.82327">
        <ele>298</ele>
        <time>2018-10-06T08:48:37Z</time>
      </trkpt>
      <trkpt lat="45.95765" lon="4.82327">
        <ele>298</ele>
        <time>2018-10-06T08:48:38Z</time>
      </trkpt>
      <trkpt lat="45.95771" lon="4.82334">
        <ele>298</ele>
        <time>2018-10-06T08:48:39Z</time>
      </trkpt>
      <trkpt lat="45.95777" lon="4.82341">
        <ele>297</ele>
        <time>2018-10-06T08:48:40Z</time>
      </trkpt>
      <trkpt lat="45.95783" lon="4.82348">
        <ele>297</ele>
        <time>2018-10-06T08:48:41Z</time>
      </trkpt>
      <trkpt lat="45.9579" lon="4.82352">
        <ele>296</ele>
        <time>2018-10-06T08:48:42Z</time>
      </trkpt>
      <trkpt lat="45.95799" lon="4.82355">
        <ele>296</ele>
        <time>2018-10-06T08:48:43Z</time>
      </trkpt>
      <trkpt lat="45.95808" lon="4.82353">
        <ele>295</ele>
        <time>2018-10-06T08:48:44Z</time>
      </trkpt>
      <trkpt lat="45.95817" lon="4.82353">
        <ele>294</ele>
        <time>2018-10-06T08:48:45Z</time>
      </trkpt>
      <trkpt lat="45.95825" lon="4.82355">
        <ele>293</ele>
        <time>2018-10-06T08:48:46Z</time>
      </trkpt>
      <trkpt lat="45.95833" lon="4.82357">
        <ele>295</ele>
        <time>2018-10-06T08:48:47Z</time>
      </trkpt>
      <trkpt lat="45.95843" lon="4.82356">
        <ele>293</ele>
        <time>2018-10-06T08:48:48Z</time>
      </trkpt>
      <trkpt lat="45.95853" lon="4.82356">
        <ele>292</ele>
        <time>2018-10-06T08:48:49Z</time>
      </trkpt>
      <trkpt lat="45.95863" lon="4.82357">
        <ele>291</ele>
        <time>2018-10-06T08:48:50Z</time>
      </trkpt>
      <trkpt lat="45.95872" lon="4.82359">
        <ele>290</ele>
        <time>2018-10-06T08:48:51Z</time>
      </trkpt>
      <trkpt lat="45.95882" lon="4.82359">
        <ele>290</ele>
        <time>2018-10-06T08:48:52Z</time>
      </trkpt>
      <trkpt lat="45.95892" lon="4.82357">
        <ele>289</ele>
        <time>2018-10-06T08:48:53Z</time>
      </trkpt>
      <trkpt lat="45.95902" lon="4.82356">
        <ele>289</ele>
        <time>2018-10-06T08:48:54Z</time>
      </trkpt>
      <trkpt lat="45.95912" lon="4.82355">
        <ele>289</ele>
        <time>2018-10-06T08:48:55Z</time>
      </trkpt>
      <trkpt lat="45.95921" lon="4.82355">
        <ele>287</ele>
        <time>2018-10-06T08:48:56Z</time>
      </trkpt>
      <trkpt lat="45.95931" lon="4.82353">
        <ele>286</ele>
        <time>2018-10-06T08:48:57Z</time>
      </trkpt>
      <trkpt lat="45.95939" lon="4.82353">
        <ele>285</ele>
        <time>2018-10-06T08:48:58Z</time>
      </trkpt>
      <trkpt lat="45.95948" lon="4.8235">
        <ele>285</ele>
        <time>2018-10-06T08:48:59Z</time>
      </trkpt>
      <trkpt lat="45.95956" lon="4.82349">
        <ele>284</ele>
        <time>2018-10-06T08:49:00Z</time>
      </trkpt>
      <trkpt lat="45.95964" lon="4.82348">
        <ele>283</ele>
        <time>2018-10-06T08:49:01Z</time>
      </trkpt>
      <trkpt lat="45.95973" lon="4.82347">
        <ele>282</ele>
        <time>2018-10-06T08:49:02Z</time>
      </trkpt>
      <trkpt lat="45.9598" lon="4.82348">
        <ele>284</ele>
        <time>2018-10-06T08:49:03Z</time>
      </trkpt>
      <trkpt lat="45.95988" lon="4.82347">
        <ele>283</ele>
        <time>2018-10-06T08:49:04Z</time>
      </trkpt>
      <trkpt lat="45.95996" lon="4.8235">
        <ele>284</ele>
        <time>2018-10-06T08:49:05Z</time>
      </trkpt>
      <trkpt lat="45.96003" lon="4.82351">
        <ele>284</ele>
        <time>2018-10-06T08:49:06Z</time>
      </trkpt>
      <trkpt lat="45.96009" lon="4.82352">
        <ele>283</ele>
        <time>2018-10-06T08:49:07Z</time>
      </trkpt>
      <trkpt lat="45.96015" lon="4.82352">
        <ele>284</ele>
        <time>2018-10-06T08:49:08Z</time>
      </trkpt>
      <trkpt lat="45.96019" lon="4.82355">
        <ele>284</ele>
        <time>2018-10-06T08:49:09Z</time>
      </trkpt>
      <trkpt lat="45.96024" lon="4.82359">
        <ele>285</ele>
        <time>2018-10-06T08:49:10Z</time>
      </trkpt>
      <trkpt lat="45.96027" lon="4.82364">
        <ele>284</ele>
        <time>2018-10-06T08:49:11Z</time>
      </trkpt>
      <trkpt lat="45.96029" lon="4.82372">
        <ele>284</ele>
        <time>2018-10-06T08:49:12Z</time>
      </trkpt>
      <trkpt lat="45.9603" lon="4.82379">
        <ele>283</ele>
        <time>2018-10-06T08:49:13Z</time>
      </trkpt>
      <trkpt lat="45.9603" lon="4.82387">
        <ele>283</ele>
        <time>2018-10-06T08:49:14Z</time>
      </trkpt>
      <trkpt lat="45.96029" lon="4.82393">
        <ele>284</ele>
        <time>2018-10-06T08:49:15Z</time>
      </trkpt>
      <trkpt lat="45.96027" lon="4.82405">
        <ele>283</ele>
        <time>2018-10-06T08:49:17Z</time>
      </trkpt>
      <trkpt lat="45.96026" lon="4.82411">
        <ele>283</ele>
        <time>2018-10-06T08:49:18Z</time>
      </trkpt>
      <trkpt lat="45.96024" lon="4.82423">
        <ele>282</ele>
        <time>2018-10-06T08:49:20Z</time>
      </trkpt>
      <trkpt lat="45.96023" lon="4.82428">
        <ele>281</ele>
        <time>2018-10-06T08:49:21Z</time>
      </trkpt>
      <trkpt lat="45.96022" lon="4.8244">
        <ele>281</ele>
        <time>2018-10-06T08:49:23Z</time>
      </trkpt>
      <trkpt lat="45.96021" lon="4.82447">
        <ele>280</ele>
        <time>2018-10-06T08:49:24Z</time>
      </trkpt>
      <trkpt lat="45.9602" lon="4.82457">
        <ele>278</ele>
        <time>2018-10-06T08:49:27Z</time>
      </trkpt>
      <trkpt lat="45.9602" lon="4.8246">
        <ele>278</ele>
        <time>2018-10-06T08:49:28Z</time>
      </trkpt>
      <trkpt lat="45.96018" lon="4.82472">
        <ele>278</ele>
        <time>2018-10-06T08:49:29Z</time>
      </trkpt>
      <trkpt lat="45.96018" lon="4.82474">
        <ele>278</ele>
        <time>2018-10-06T08:49:30Z</time>
      </trkpt>
      <trkpt lat="45.96016" lon="4.82486">
        <ele>277</ele>
        <time>2018-10-06T08:49:33Z</time>
      </trkpt>
      <trkpt lat="45.96015" lon="4.82497">
        <ele>277</ele>
        <time>2018-10-06T08:49:34Z</time>
      </trkpt>
      <trkpt lat="45.96014" lon="4.82509">
        <ele>276</ele>
        <time>2018-10-06T08:49:36Z</time>
      </trkpt>
      <trkpt lat="45.96014" lon="4.82514">
        <ele>277</ele>
        <time>2018-10-06T08:49:37Z</time>
      </trkpt>
      <trkpt lat="45.96014" lon="4.82527">
        <ele>277</ele>
        <time>2018-10-06T08:49:39Z</time>
      </trkpt>
      <trkpt lat="45.96014" lon="4.82533">
        <ele>277</ele>
        <time>2018-10-06T08:49:40Z</time>
      </trkpt>
      <trkpt lat="45.96014" lon="4.82544">
        <ele>276</ele>
        <time>2018-10-06T08:49:42Z</time>
      </trkpt>
      <trkpt lat="45.96014" lon="4.82549">
        <ele>276</ele>
        <time>2018-10-06T08:49:43Z</time>
      </trkpt>
      <trkpt lat="45.96015" lon="4.82559">
        <ele>276</ele>
        <time>2018-10-06T08:49:46Z</time>
      </trkpt>
      <trkpt lat="45.96016" lon="4.82569">
        <ele>276</ele>
        <time>2018-10-06T08:49:47Z</time>
      </trkpt>
      <trkpt lat="45.96018" lon="4.8258">
        <ele>278</ele>
        <time>2018-10-06T08:49:49Z</time>
      </trkpt>
      <trkpt lat="45.96022" lon="4.82587">
        <ele>278</ele>
        <time>2018-10-06T08:49:50Z</time>
      </trkpt>
      <trkpt lat="45.96024" lon="4.82593">
        <ele>278</ele>
        <time>2018-10-06T08:49:51Z</time>
      </trkpt>
      <trkpt lat="45.96026" lon="4.82599">
        <ele>278</ele>
        <time>2018-10-06T08:49:52Z</time>
      </trkpt>
      <trkpt lat="45.9603" lon="4.8261">
        <ele>278</ele>
        <time>2018-10-06T08:49:54Z</time>
      </trkpt>
      <trkpt lat="45.96033" lon="4.82615">
        <ele>278</ele>
        <time>2018-10-06T08:49:55Z</time>
      </trkpt>
      <trkpt lat="45.96038" lon="4.82624">
        <ele>278</ele>
        <time>2018-10-06T08:49:57Z</time>
      </trkpt>
      <trkpt lat="45.96039" lon="4.82627">
        <ele>280</ele>
        <time>2018-10-06T08:49:58Z</time>
      </trkpt>
      <trkpt lat="45.9604" lon="4.8263">
        <ele>279</ele>
        <time>2018-10-06T08:49:59Z</time>
      </trkpt>
      <trkpt lat="45.96044" lon="4.8264">
        <ele>278</ele>
        <time>2018-10-06T08:50:00Z</time>
      </trkpt>
      <trkpt lat="45.96046" lon="4.8265">
        <ele>278</ele>
        <time>2018-10-06T08:50:02Z</time>
      </trkpt>
      <trkpt lat="45.96048" lon="4.82656">
        <ele>279</ele>
        <time>2018-10-06T08:50:03Z</time>
      </trkpt>
      <trkpt lat="45.96049" lon="4.82662">
        <ele>279</ele>
        <time>2018-10-06T08:50:04Z</time>
      </trkpt>
      <trkpt lat="45.96051" lon="4.82668">
        <ele>278</ele>
        <time>2018-10-06T08:50:05Z</time>
      </trkpt>
      <trkpt lat="45.96055" lon="4.82678">
        <ele>279</ele>
        <time>2018-10-06T08:50:07Z</time>
      </trkpt>
      <trkpt lat="45.96057" lon="4.82683">
        <ele>280</ele>
        <time>2018-10-06T08:50:08Z</time>
      </trkpt>
      <trkpt lat="45.96061" lon="4.82694">
        <ele>279</ele>
        <time>2018-10-06T08:50:10Z</time>
      </trkpt>
      <trkpt lat="45.96063" lon="4.82699">
        <ele>278</ele>
        <time>2018-10-06T08:50:11Z</time>
      </trkpt>
      <trkpt lat="45.96068" lon="4.8271">
        <ele>278</ele>
        <time>2018-10-06T08:50:13Z</time>
      </trkpt>
      <trkpt lat="45.9607" lon="4.82715">
        <ele>278</ele>
        <time>2018-10-06T08:50:14Z</time>
      </trkpt>
      <trkpt lat="45.96073" lon="4.82726">
        <ele>278</ele>
        <time>2018-10-06T08:50:16Z</time>
      </trkpt>
      <trkpt lat="45.96075" lon="4.82732">
        <ele>278</ele>
        <time>2018-10-06T08:50:17Z</time>
      </trkpt>
      <trkpt lat="45.96078" lon="4.82743">
        <ele>278</ele>
        <time>2018-10-06T08:50:19Z</time>
      </trkpt>
      <trkpt lat="45.9608" lon="4.82748">
        <ele>279</ele>
        <time>2018-10-06T08:50:20Z</time>
      </trkpt>
      <trkpt lat="45.96083" lon="4.82754">
        <ele>278</ele>
        <time>2018-10-06T08:50:21Z</time>
      </trkpt>
      <trkpt lat="45.96085" lon="4.8276">
        <ele>278</ele>
        <time>2018-10-06T08:50:22Z</time>
      </trkpt>
      <trkpt lat="45.96088" lon="4.82769">
        <ele>278</ele>
        <time>2018-10-06T08:50:24Z</time>
      </trkpt>
      <trkpt lat="45.9609" lon="4.82775">
        <ele>278</ele>
        <time>2018-10-06T08:50:25Z</time>
      </trkpt>
      <trkpt lat="45.96092" lon="4.82783">
        <ele>279</ele>
        <time>2018-10-06T08:50:26Z</time>
      </trkpt>
      <trkpt lat="45.96094" lon="4.82789">
        <ele>279</ele>
        <time>2018-10-06T08:50:27Z</time>
      </trkpt>
      <trkpt lat="45.96095" lon="4.82796">
        <ele>279</ele>
        <time>2018-10-06T08:50:28Z</time>
      </trkpt>
      <trkpt lat="45.96096" lon="4.82803">
        <ele>279</ele>
        <time>2018-10-06T08:50:29Z</time>
      </trkpt>
      <trkpt lat="45.96097" lon="4.8281">
        <ele>279</ele>
        <time>2018-10-06T08:50:30Z</time>
      </trkpt>
      <trkpt lat="45.96098" lon="4.82816">
        <ele>279</ele>
        <time>2018-10-06T08:50:31Z</time>
      </trkpt>
      <trkpt lat="45.96099" lon="4.82828">
        <ele>278</ele>
        <time>2018-10-06T08:50:33Z</time>
      </trkpt>
      <trkpt lat="45.961" lon="4.82834">
        <ele>279</ele>
        <time>2018-10-06T08:50:34Z</time>
      </trkpt>
      <trkpt lat="45.96101" lon="4.82844">
        <ele>278</ele>
        <time>2018-10-06T08:50:37Z</time>
      </trkpt>
      <trkpt lat="45.96103" lon="4.82854">
        <ele>279</ele>
        <time>2018-10-06T08:50:38Z</time>
      </trkpt>
      <trkpt lat="45.96103" lon="4.82864">
        <ele>280</ele>
        <time>2018-10-06T08:50:40Z</time>
      </trkpt>
      <trkpt lat="45.96102" lon="4.8287">
        <ele>279</ele>
        <time>2018-10-06T08:50:41Z</time>
      </trkpt>
      <trkpt lat="45.96101" lon="4.82878">
        <ele>279</ele>
        <time>2018-10-06T08:50:43Z</time>
      </trkpt>
      <trkpt lat="45.96099" lon="4.82886">
        <ele>278</ele>
        <time>2018-10-06T08:50:44Z</time>
      </trkpt>
      <trkpt lat="45.96095" lon="4.82897">
        <ele>277</ele>
        <time>2018-10-06T08:50:46Z</time>
      </trkpt>
      <trkpt lat="45.96094" lon="4.82902">
        <ele>277</ele>
        <time>2018-10-06T08:50:47Z</time>
      </trkpt>
      <trkpt lat="45.96091" lon="4.82912">
        <ele>277</ele>
        <time>2018-10-06T08:50:49Z</time>
      </trkpt>
      <trkpt lat="45.9609" lon="4.82918">
        <ele>278</ele>
        <time>2018-10-06T08:50:50Z</time>
      </trkpt>
      <trkpt lat="45.96087" lon="4.82929">
        <ele>277</ele>
        <time>2018-10-06T08:50:52Z</time>
      </trkpt>
      <trkpt lat="45.96085" lon="4.82935">
        <ele>277</ele>
        <time>2018-10-06T08:50:53Z</time>
      </trkpt>
      <trkpt lat="45.96084" lon="4.82942">
        <ele>277</ele>
        <time>2018-10-06T08:50:54Z</time>
      </trkpt>
      <trkpt lat="45.96083" lon="4.82948">
        <ele>278</ele>
        <time>2018-10-06T08:50:55Z</time>
      </trkpt>
      <trkpt lat="45.96081" lon="4.8296">
        <ele>277</ele>
        <time>2018-10-06T08:50:58Z</time>
      </trkpt>
      <trkpt lat="45.9608" lon="4.82964">
        <ele>276</ele>
        <time>2018-10-06T08:50:59Z</time>
      </trkpt>
      <trkpt lat="45.96079" lon="4.82968">
        <ele>276</ele>
        <time>2018-10-06T08:51:00Z</time>
      </trkpt>
      <trkpt lat="45.96077" lon="4.82978">
        <ele>276</ele>
        <time>2018-10-06T08:51:01Z</time>
      </trkpt>
      <trkpt lat="45.96074" lon="4.82988">
        <ele>275</ele>
        <time>2018-10-06T08:51:03Z</time>
      </trkpt>
      <trkpt lat="45.96073" lon="4.82993">
        <ele>275</ele>
        <time>2018-10-06T08:51:04Z</time>
      </trkpt>
      <trkpt lat="45.96073" lon="4.83005">
        <ele>274</ele>
        <time>2018-10-06T08:51:06Z</time>
      </trkpt>
      <trkpt lat="45.96074" lon="4.83013">
        <ele>273</ele>
        <time>2018-10-06T08:51:07Z</time>
      </trkpt>
      <trkpt lat="45.96073" lon="4.83022">
        <ele>275</ele>
        <time>2018-10-06T08:51:10Z</time>
      </trkpt>
      <trkpt lat="45.96073" lon="4.83031">
        <ele>275</ele>
        <time>2018-10-06T08:51:11Z</time>
      </trkpt>
      <trkpt lat="45.96077" lon="4.83041">
        <ele>276</ele>
        <time>2018-10-06T08:51:13Z</time>
      </trkpt>
      <trkpt lat="45.96078" lon="4.83048">
        <ele>275</ele>
        <time>2018-10-06T08:51:14Z</time>
      </trkpt>
      <trkpt lat="45.96079" lon="4.83055">
        <ele>275</ele>
        <time>2018-10-06T08:51:15Z</time>
      </trkpt>
      <trkpt lat="45.96081" lon="4.83061">
        <ele>275</ele>
        <time>2018-10-06T08:51:16Z</time>
      </trkpt>
      <trkpt lat="45.96083" lon="4.83073">
        <ele>277</ele>
        <time>2018-10-06T08:51:18Z</time>
      </trkpt>
      <trkpt lat="45.96085" lon="4.83079">
        <ele>279</ele>
        <time>2018-10-06T08:51:19Z</time>
      </trkpt>
      <trkpt lat="45.96087" lon="4.83091">
        <ele>279</ele>
        <time>2018-10-06T08:51:21Z</time>
      </trkpt>
      <trkpt lat="45.96087" lon="4.83096">
        <ele>279</ele>
        <time>2018-10-06T08:51:22Z</time>
      </trkpt>
      <trkpt lat="45.96088" lon="4.83103">
        <ele>280</ele>
        <time>2018-10-06T08:51:23Z</time>
      </trkpt>
      <trkpt lat="45.96088" lon="4.83109">
        <ele>280</ele>
        <time>2018-10-06T08:51:24Z</time>
      </trkpt>
      <trkpt lat="45.96091" lon="4.83121">
        <ele>279</ele>
        <time>2018-10-06T08:51:26Z</time>
      </trkpt>
      <trkpt lat="45.96091" lon="4.83127">
        <ele>280</ele>
        <time>2018-10-06T08:51:27Z</time>
      </trkpt>
      <trkpt lat="45.96092" lon="4.83139">
        <ele>279</ele>
        <time>2018-10-06T08:51:29Z</time>
      </trkpt>
      <trkpt lat="45.96093" lon="4.83145">
        <ele>279</ele>
        <time>2018-10-06T08:51:30Z</time>
      </trkpt>
      <trkpt lat="45.96094" lon="4.83152">
        <ele>277</ele>
        <time>2018-10-06T08:51:31Z</time>
      </trkpt>
      <trkpt lat="45.96094" lon="4.83158">
        <ele>278</ele>
        <time>2018-10-06T08:51:32Z</time>
      </trkpt>
      <trkpt lat="45.96094" lon="4.83165">
        <ele>277</ele>
        <time>2018-10-06T08:51:33Z</time>
      </trkpt>
      <trkpt lat="45.96095" lon="4.83171">
        <ele>278</ele>
        <time>2018-10-06T08:51:34Z</time>
      </trkpt>
      <trkpt lat="45.96095" lon="4.83183">
        <ele>278</ele>
        <time>2018-10-06T08:51:36Z</time>
      </trkpt>
      <trkpt lat="45.96095" lon="4.83189">
        <ele>278</ele>
        <time>2018-10-06T08:51:37Z</time>
      </trkpt>
      <trkpt lat="45.96097" lon="4.832">
        <ele>279</ele>
        <time>2018-10-06T08:51:39Z</time>
      </trkpt>
      <trkpt lat="45.96097" lon="4.83202">
        <ele>279</ele>
        <time>2018-10-06T08:51:40Z</time>
      </trkpt>
      <trkpt lat="45.96098" lon="4.83213">
        <ele>278</ele>
        <time>2018-10-06T08:51:43Z</time>
      </trkpt>
      <trkpt lat="45.96098" lon="4.83217">
        <ele>278</ele>
        <time>2018-10-06T08:51:44Z</time>
      </trkpt>
      <trkpt lat="45.96098" lon="4.83226">
        <ele>279</ele>
        <time>2018-10-06T08:51:46Z</time>
      </trkpt>
      <trkpt lat="45.96098" lon="4.83238">
        <ele>278</ele>
        <time>2018-10-06T08:51:47Z</time>
      </trkpt>
      <trkpt lat="45.96098" lon="4.83248">
        <ele>279</ele>
        <time>2018-10-06T08:51:49Z</time>
      </trkpt>
      <trkpt lat="45.96097" lon="4.83254">
        <ele>279</ele>
        <time>2018-10-06T08:51:50Z</time>
      </trkpt>
      <trkpt lat="45.96097" lon="4.83266">
        <ele>280</ele>
        <time>2018-10-06T08:51:52Z</time>
      </trkpt>
      <trkpt lat="45.96097" lon="4.83272">
        <ele>280</ele>
        <time>2018-10-06T08:51:53Z</time>
      </trkpt>
      <trkpt lat="45.96097" lon="4.83283">
        <ele>279</ele>
        <time>2018-10-06T08:51:55Z</time>
      </trkpt>
      <trkpt lat="45.96097" lon="4.83288">
        <ele>280</ele>
        <time>2018-10-06T08:51:56Z</time>
      </trkpt>
      <trkpt lat="45.96097" lon="4.83299">
        <ele>279</ele>
        <time>2018-10-06T08:51:58Z</time>
      </trkpt>
      <trkpt lat="45.96097" lon="4.83302">
        <ele>279</ele>
        <time>2018-10-06T08:51:59Z</time>
      </trkpt>
      <trkpt lat="45.96098" lon="4.83305">
        <ele>280</ele>
        <time>2018-10-06T08:52:00Z</time>
      </trkpt>
      <trkpt lat="45.96099" lon="4.83315">
        <ele>279</ele>
        <time>2018-10-06T08:52:01Z</time>
      </trkpt>
      <trkpt lat="45.96102" lon="4.83326">
        <ele>279</ele>
        <time>2018-10-06T08:52:03Z</time>
      </trkpt>
      <trkpt lat="45.96104" lon="4.83332">
        <ele>279</ele>
        <time>2018-10-06T08:52:04Z</time>
      </trkpt>
      <trkpt lat="45.96106" lon="4.83338">
        <ele>279</ele>
        <time>2018-10-06T08:52:05Z</time>
      </trkpt>
      <trkpt lat="45.96107" lon="4.83344">
        <ele>278</ele>
        <time>2018-10-06T08:52:06Z</time>
      </trkpt>
      <trkpt lat="45.96108" lon="4.8335">
        <ele>278</ele>
        <time>2018-10-06T08:52:07Z</time>
      </trkpt>
      <trkpt lat="45.9611" lon="4.83356">
        <ele>279</ele>
        <time>2018-10-06T08:52:08Z</time>
      </trkpt>
      <trkpt lat="45.96112" lon="4.83367">
        <ele>279</ele>
        <time>2018-10-06T08:52:10Z</time>
      </trkpt>
      <trkpt lat="45.96113" lon="4.83373">
        <ele>279</ele>
        <time>2018-10-06T08:52:11Z</time>
      </trkpt>
      <trkpt lat="45.96114" lon="4.83384">
        <ele>280</ele>
        <time>2018-10-06T08:52:13Z</time>
      </trkpt>
      <trkpt lat="45.96115" lon="4.83389">
        <ele>280</ele>
        <time>2018-10-06T08:52:14Z</time>
      </trkpt>
      <trkpt lat="45.96116" lon="4.83401">
        <ele>280</ele>
        <time>2018-10-06T08:52:16Z</time>
      </trkpt>
      <trkpt lat="45.96117" lon="4.83406">
        <ele>280</ele>
        <time>2018-10-06T08:52:17Z</time>
      </trkpt>
      <trkpt lat="45.96119" lon="4.83416">
        <ele>281</ele>
        <time>2018-10-06T08:52:20Z</time>
      </trkpt>
      <trkpt lat="45.9612" lon="4.83419">
        <ele>281</ele>
        <time>2018-10-06T08:52:21Z</time>
      </trkpt>
      <trkpt lat="45.96123" lon="4.8343">
        <ele>279</ele>
        <time>2018-10-06T08:52:24Z</time>
      </trkpt>
      <trkpt lat="45.96124" lon="4.83434">
        <ele>280</ele>
        <time>2018-10-06T08:52:25Z</time>
      </trkpt>
      <trkpt lat="45.96126" lon="4.83446">
        <ele>280</ele>
        <time>2018-10-06T08:52:26Z</time>
      </trkpt>
      <trkpt lat="45.96127" lon="4.83449">
        <ele>280</ele>
        <time>2018-10-06T08:52:27Z</time>
      </trkpt>
      <trkpt lat="45.96129" lon="4.83459">
        <ele>280</ele>
        <time>2018-10-06T08:52:30Z</time>
      </trkpt>
      <trkpt lat="45.9613" lon="4.83462">
        <ele>279</ele>
        <time>2018-10-06T08:52:31Z</time>
      </trkpt>
      <trkpt lat="45.96132" lon="4.83471">
        <ele>279</ele>
        <time>2018-10-06T08:52:33Z</time>
      </trkpt>
      <trkpt lat="45.96133" lon="4.83476">
        <ele>279</ele>
        <time>2018-10-06T08:52:34Z</time>
      </trkpt>
      <trkpt lat="45.96135" lon="4.83485">
        <ele>279</ele>
        <time>2018-10-06T08:52:36Z</time>
      </trkpt>
      <trkpt lat="45.96136" lon="4.8349">
        <ele>279</ele>
        <time>2018-10-06T08:52:37Z</time>
      </trkpt>
      <trkpt lat="45.96138" lon="4.83499">
        <ele>280</ele>
        <time>2018-10-06T08:52:39Z</time>
      </trkpt>
      <trkpt lat="45.96138" lon="4.83503">
        <ele>280</ele>
        <time>2018-10-06T08:52:40Z</time>
      </trkpt>
      <trkpt lat="45.9614" lon="4.83512">
        <ele>281</ele>
        <time>2018-10-06T08:52:42Z</time>
      </trkpt>
      <trkpt lat="45.96141" lon="4.83517">
        <ele>281</ele>
        <time>2018-10-06T08:52:43Z</time>
      </trkpt>
      <trkpt lat="45.96143" lon="4.83528">
        <ele>282</ele>
        <time>2018-10-06T08:52:46Z</time>
      </trkpt>
      <trkpt lat="45.96144" lon="4.83532">
        <ele>281</ele>
        <time>2018-10-06T08:52:47Z</time>
      </trkpt>
      <trkpt lat="45.96145" lon="4.8354">
        <ele>282</ele>
        <time>2018-10-06T08:52:49Z</time>
      </trkpt>
      <trkpt lat="45.96147" lon="4.83554">
        <ele>283</ele>
        <time>2018-10-06T08:52:50Z</time>
      </trkpt>
      <trkpt lat="45.9615" lon="4.83565">
        <ele>282</ele>
        <time>2018-10-06T08:52:52Z</time>
      </trkpt>
      <trkpt lat="45.96151" lon="4.8357">
        <ele>283</ele>
        <time>2018-10-06T08:52:53Z</time>
      </trkpt>
      <trkpt lat="45.96154" lon="4.83581">
        <ele>283</ele>
        <time>2018-10-06T08:52:55Z</time>
      </trkpt>
      <trkpt lat="45.96156" lon="4.83588">
        <ele>282</ele>
        <time>2018-10-06T08:52:56Z</time>
      </trkpt>
      <trkpt lat="45.96158" lon="4.83599">
        <ele>283</ele>
        <time>2018-10-06T08:52:58Z</time>
      </trkpt>
      <trkpt lat="45.96159" lon="4.83605">
        <ele>283</ele>
        <time>2018-10-06T08:52:59Z</time>
      </trkpt>
      <trkpt lat="45.96161" lon="4.83617">
        <ele>283</ele>
        <time>2018-10-06T08:53:01Z</time>
      </trkpt>
      <trkpt lat="45.96162" lon="4.83623">
        <ele>283</ele>
        <time>2018-10-06T08:53:02Z</time>
      </trkpt>
      <trkpt lat="45.96164" lon="4.83631">
        <ele>284</ele>
        <time>2018-10-06T08:53:04Z</time>
      </trkpt>
      <trkpt lat="45.96167" lon="4.83638">
        <ele>284</ele>
        <time>2018-10-06T08:53:05Z</time>
      </trkpt>
      <trkpt lat="45.9617" lon="4.83647">
        <ele>285</ele>
        <time>2018-10-06T08:53:07Z</time>
      </trkpt>
      <trkpt lat="45.96173" lon="4.83651">
        <ele>285</ele>
        <time>2018-10-06T08:53:08Z</time>
      </trkpt>
      <trkpt lat="45.96178" lon="4.8366">
        <ele>284</ele>
        <time>2018-10-06T08:53:10Z</time>
      </trkpt>
      <trkpt lat="45.96181" lon="4.83664">
        <ele>284</ele>
        <time>2018-10-06T08:53:11Z</time>
      </trkpt>
      <trkpt lat="45.96188" lon="4.83671">
        <ele>285</ele>
        <time>2018-10-06T08:53:13Z</time>
      </trkpt>
      <trkpt lat="45.96193" lon="4.83675">
        <ele>285</ele>
        <time>2018-10-06T08:53:14Z</time>
      </trkpt>
      <trkpt lat="45.96197" lon="4.83679">
        <ele>284</ele>
        <time>2018-10-06T08:53:15Z</time>
      </trkpt>
      <trkpt lat="45.962" lon="4.83684">
        <ele>285</ele>
        <time>2018-10-06T08:53:16Z</time>
      </trkpt>
      <trkpt lat="45.96206" lon="4.83691">
        <ele>285</ele>
        <time>2018-10-06T08:53:18Z</time>
      </trkpt>
      <trkpt lat="45.96209" lon="4.83695">
        <ele>285</ele>
        <time>2018-10-06T08:53:19Z</time>
      </trkpt>
      <trkpt lat="45.96216" lon="4.83702">
        <ele>286</ele>
        <time>2018-10-06T08:53:21Z</time>
      </trkpt>
      <trkpt lat="45.96217" lon="4.83703">
        <ele>286</ele>
        <time>2018-10-06T08:53:22Z</time>
      </trkpt>
      <trkpt lat="45.96222" lon="4.83708">
        <ele>285</ele>
        <time>2018-10-06T08:53:23Z</time>
      </trkpt>
      <trkpt lat="45.96225" lon="4.83712">
        <ele>286</ele>
        <time>2018-10-06T08:53:24Z</time>
      </trkpt>
      <trkpt lat="45.96232" lon="4.83719">
        <ele>286</ele>
        <time>2018-10-06T08:53:26Z</time>
      </trkpt>
      <trkpt lat="45.96235" lon="4.83723">
        <ele>286</ele>
        <time>2018-10-06T08:53:27Z</time>
      </trkpt>
      <trkpt lat="45.96242" lon="4.83731">
        <ele>287</ele>
        <time>2018-10-06T08:53:29Z</time>
      </trkpt>
      <trkpt lat="45.96246" lon="4.83735">
        <ele>287</ele>
        <time>2018-10-06T08:53:30Z</time>
      </trkpt>
      <trkpt lat="45.96249" lon="4.83739">
        <ele>287</ele>
        <time>2018-10-06T08:53:31Z</time>
      </trkpt>
      <trkpt lat="45.96253" lon="4.83744">
        <ele>287</ele>
        <time>2018-10-06T08:53:32Z</time>
      </trkpt>
      <trkpt lat="45.9626" lon="4.83752">
        <ele>287</ele>
        <time>2018-10-06T08:53:34Z</time>
      </trkpt>
      <trkpt lat="45.96263" lon="4.83756">
        <ele>287</ele>
        <time>2018-10-06T08:53:35Z</time>
      </trkpt>
      <trkpt lat="45.96269" lon="4.83763">
        <ele>287</ele>
        <time>2018-10-06T08:53:37Z</time>
      </trkpt>
      <trkpt lat="45.96272" lon="4.83766">
        <ele>287</ele>
        <time>2018-10-06T08:53:38Z</time>
      </trkpt>
      <trkpt lat="45.96279" lon="4.83774">
        <ele>287</ele>
        <time>2018-10-06T08:53:40Z</time>
      </trkpt>
      <trkpt lat="45.96282" lon="4.83777">
        <ele>287</ele>
        <time>2018-10-06T08:53:41Z</time>
      </trkpt>
      <trkpt lat="45.9629" lon="4.83784">
        <ele>287</ele>
        <time>2018-10-06T08:53:43Z</time>
      </trkpt>
      <trkpt lat="45.96294" lon="4.83785">
        <ele>286</ele>
        <time>2018-10-06T08:53:44Z</time>
      </trkpt>
      <trkpt lat="45.96299" lon="4.83787">
        <ele>286</ele>
        <time>2018-10-06T08:53:45Z</time>
      </trkpt>
      <trkpt lat="45.96303" lon="4.83791">
        <ele>287</ele>
        <time>2018-10-06T08:53:46Z</time>
      </trkpt>
      <trkpt lat="45.96307" lon="4.83794">
        <ele>287</ele>
        <time>2018-10-06T08:53:47Z</time>
      </trkpt>
      <trkpt lat="45.96311" lon="4.83799">
        <ele>286</ele>
        <time>2018-10-06T08:53:48Z</time>
      </trkpt>
      <trkpt lat="45.96315" lon="4.83802">
        <ele>286</ele>
        <time>2018-10-06T08:53:49Z</time>
      </trkpt>
      <trkpt lat="45.96319" lon="4.83806">
        <ele>286</ele>
        <time>2018-10-06T08:53:50Z</time>
      </trkpt>
      <trkpt lat="45.96326" lon="4.83812">
        <ele>286</ele>
        <time>2018-10-06T08:53:52Z</time>
      </trkpt>
      <trkpt lat="45.96329" lon="4.83814">
        <ele>286</ele>
        <time>2018-10-06T08:53:53Z</time>
      </trkpt>
      <trkpt lat="45.96335" lon="4.83819">
        <ele>285</ele>
        <time>2018-10-06T08:53:55Z</time>
      </trkpt>
      <trkpt lat="45.96338" lon="4.83823">
        <ele>285</ele>
        <time>2018-10-06T08:53:56Z</time>
      </trkpt>
      <trkpt lat="45.96345" lon="4.8383">
        <ele>286</ele>
        <time>2018-10-06T08:53:58Z</time>
      </trkpt>
      <trkpt lat="45.96348" lon="4.83834">
        <ele>286</ele>
        <time>2018-10-06T08:53:59Z</time>
      </trkpt>
      <trkpt lat="45.96356" lon="4.8384">
        <ele>284</ele>
        <time>2018-10-06T08:54:01Z</time>
      </trkpt>
      <trkpt lat="45.96359" lon="4.83844">
        <ele>283</ele>
        <time>2018-10-06T08:54:02Z</time>
      </trkpt>
      <trkpt lat="45.96362" lon="4.83849">
        <ele>282</ele>
        <time>2018-10-06T08:54:03Z</time>
      </trkpt>
      <trkpt lat="45.96365" lon="4.83854">
        <ele>283</ele>
        <time>2018-10-06T08:54:04Z</time>
      </trkpt>
      <trkpt lat="45.96371" lon="4.83862">
        <ele>282</ele>
        <time>2018-10-06T08:54:06Z</time>
      </trkpt>
      <trkpt lat="45.96373" lon="4.83865">
        <ele>282</ele>
        <time>2018-10-06T08:54:07Z</time>
      </trkpt>
      <trkpt lat="45.96378" lon="4.83874">
        <ele>282</ele>
        <time>2018-10-06T08:54:11Z</time>
      </trkpt>
      <trkpt lat="45.96379" lon="4.83877">
        <ele>282</ele>
        <time>2018-10-06T08:54:12Z</time>
      </trkpt>
      <trkpt lat="45.96384" lon="4.83886">
        <ele>283</ele>
        <time>2018-10-06T08:54:15Z</time>
      </trkpt>
      <trkpt lat="45.96385" lon="4.83889">
        <ele>284</ele>
        <time>2018-10-06T08:54:16Z</time>
      </trkpt>
      <trkpt lat="45.96389" lon="4.839">
        <ele>285</ele>
        <time>2018-10-06T08:54:19Z</time>
      </trkpt>
      <trkpt lat="45.96391" lon="4.83903">
        <ele>285</ele>
        <time>2018-10-06T08:54:20Z</time>
      </trkpt>
      <trkpt lat="45.96395" lon="4.83914">
        <ele>284</ele>
        <time>2018-10-06T08:54:23Z</time>
      </trkpt>
      <trkpt lat="45.96396" lon="4.83918">
        <ele>284</ele>
        <time>2018-10-06T08:54:24Z</time>
      </trkpt>
      <trkpt lat="45.96398" lon="4.83921">
        <ele>284</ele>
        <time>2018-10-06T08:54:25Z</time>
      </trkpt>
      <trkpt lat="45.96403" lon="4.83932">
        <ele>286</ele>
        <time>2018-10-06T08:54:26Z</time>
      </trkpt>
      <trkpt lat="45.96408" lon="4.83941">
        <ele>285</ele>
        <time>2018-10-06T08:54:29Z</time>
      </trkpt>
      <trkpt lat="45.96409" lon="4.83945">
        <ele>287</ele>
        <time>2018-10-06T08:54:30Z</time>
      </trkpt>
      <trkpt lat="45.96413" lon="4.83956">
        <ele>289</ele>
        <time>2018-10-06T08:54:33Z</time>
      </trkpt>
      <trkpt lat="45.96415" lon="4.83959">
        <ele>289</ele>
        <time>2018-10-06T08:54:34Z</time>
      </trkpt>
      <trkpt lat="45.96419" lon="4.83967">
        <ele>292</ele>
        <time>2018-10-06T08:54:36Z</time>
      </trkpt>
      <trkpt lat="45.96421" lon="4.83971">
        <ele>292</ele>
        <time>2018-10-06T08:54:37Z</time>
      </trkpt>
      <trkpt lat="45.96425" lon="4.83979">
        <ele>289</ele>
        <time>2018-10-06T08:54:39Z</time>
      </trkpt>
      <trkpt lat="45.96427" lon="4.83984">
        <ele>289</ele>
        <time>2018-10-06T08:54:40Z</time>
      </trkpt>
      <trkpt lat="45.9643" lon="4.83992">
        <ele>291</ele>
        <time>2018-10-06T08:54:42Z</time>
      </trkpt>
      <trkpt lat="45.96432" lon="4.83996">
        <ele>291</ele>
        <time>2018-10-06T08:54:43Z</time>
      </trkpt>
      <trkpt lat="45.96435" lon="4.84004">
        <ele>292</ele>
        <time>2018-10-06T08:54:45Z</time>
      </trkpt>
      <trkpt lat="45.96437" lon="4.84008">
        <ele>291</ele>
        <time>2018-10-06T08:54:46Z</time>
      </trkpt>
      <trkpt lat="45.96442" lon="4.84017">
        <ele>294</ele>
        <time>2018-10-06T08:54:49Z</time>
      </trkpt>
      <trkpt lat="45.96444" lon="4.8402">
        <ele>295</ele>
        <time>2018-10-06T08:54:50Z</time>
      </trkpt>
      <trkpt lat="45.96448" lon="4.84027">
        <ele>294</ele>
        <time>2018-10-06T08:54:52Z</time>
      </trkpt>
      <trkpt lat="45.9645" lon="4.84031">
        <ele>294</ele>
        <time>2018-10-06T08:54:53Z</time>
      </trkpt>
      <trkpt lat="45.96453" lon="4.84039">
        <ele>292</ele>
        <time>2018-10-06T08:54:55Z</time>
      </trkpt>
      <trkpt lat="45.96454" lon="4.84044">
        <ele>293</ele>
        <time>2018-10-06T08:54:56Z</time>
      </trkpt>
      <trkpt lat="45.96457" lon="4.84053">
        <ele>292</ele>
        <time>2018-10-06T08:54:58Z</time>
      </trkpt>
      <trkpt lat="45.96458" lon="4.84058">
        <ele>292</ele>
        <time>2018-10-06T08:54:59Z</time>
      </trkpt>
      <trkpt lat="45.96461" lon="4.84068">
        <ele>291</ele>
        <time>2018-10-06T08:55:01Z</time>
      </trkpt>
      <trkpt lat="45.96462" lon="4.84072">
        <ele>291</ele>
        <time>2018-10-06T08:55:02Z</time>
      </trkpt>
      <trkpt lat="45.96465" lon="4.8408">
        <ele>292</ele>
        <time>2018-10-06T08:55:04Z</time>
      </trkpt>
      <trkpt lat="45.96466" lon="4.84084">
        <ele>292</ele>
        <time>2018-10-06T08:55:05Z</time>
      </trkpt>
      <trkpt lat="45.96468" lon="4.84093">
        <ele>291</ele>
        <time>2018-10-06T08:55:07Z</time>
      </trkpt>
      <trkpt lat="45.9647" lon="4.84097">
        <ele>292</ele>
        <time>2018-10-06T08:55:08Z</time>
      </trkpt>
      <trkpt lat="45.96472" lon="4.84106">
        <ele>292</ele>
        <time>2018-10-06T08:55:10Z</time>
      </trkpt>
      <trkpt lat="45.96473" lon="4.8411">
        <ele>293</ele>
        <time>2018-10-06T08:55:11Z</time>
      </trkpt>
      <trkpt lat="45.96477" lon="4.84121">
        <ele>294</ele>
        <time>2018-10-06T08:55:14Z</time>
      </trkpt>
      <trkpt lat="45.96478" lon="4.84125">
        <ele>293</ele>
        <time>2018-10-06T08:55:15Z</time>
      </trkpt>
      <trkpt lat="45.9648" lon="4.84133">
        <ele>293</ele>
        <time>2018-10-06T08:55:17Z</time>
      </trkpt>
      <trkpt lat="45.96481" lon="4.84138">
        <ele>292</ele>
        <time>2018-10-06T08:55:18Z</time>
      </trkpt>
      <trkpt lat="45.96483" lon="4.84146">
        <ele>291</ele>
        <time>2018-10-06T08:55:20Z</time>
      </trkpt>
      <trkpt lat="45.96484" lon="4.84151">
        <ele>291</ele>
        <time>2018-10-06T08:55:21Z</time>
      </trkpt>
      <trkpt lat="45.96486" lon="4.8416">
        <ele>292</ele>
        <time>2018-10-06T08:55:23Z</time>
      </trkpt>
      <trkpt lat="45.96489" lon="4.84173">
        <ele>292</ele>
        <time>2018-10-06T08:55:24Z</time>
      </trkpt>
      <trkpt lat="45.96492" lon="4.84183">
        <ele>292</ele>
        <time>2018-10-06T08:55:26Z</time>
      </trkpt>
      <trkpt lat="45.96493" lon="4.84188">
        <ele>292</ele>
        <time>2018-10-06T08:55:27Z</time>
      </trkpt>
      <trkpt lat="45.96495" lon="4.84198">
        <ele>292</ele>
        <time>2018-10-06T08:55:29Z</time>
      </trkpt>
      <trkpt lat="45.96496" lon="4.84203">
        <ele>292</ele>
        <time>2018-10-06T08:55:30Z</time>
      </trkpt>
      <trkpt lat="45.96499" lon="4.84215">
        <ele>292</ele>
        <time>2018-10-06T08:55:32Z</time>
      </trkpt>
      <trkpt lat="45.96501" lon="4.84222">
        <ele>292</ele>
        <time>2018-10-06T08:55:33Z</time>
      </trkpt>
      <trkpt lat="45.96503" lon="4.84234">
        <ele>292</ele>
        <time>2018-10-06T08:55:35Z</time>
      </trkpt>
      <trkpt lat="45.96504" lon="4.84241">
        <ele>293</ele>
        <time>2018-10-06T08:55:36Z</time>
      </trkpt>
      <trkpt lat="45.96505" lon="4.84248">
        <ele>293</ele>
        <time>2018-10-06T08:55:37Z</time>
      </trkpt>
      <trkpt lat="45.96506" lon="4.84254">
        <ele>293</ele>
        <time>2018-10-06T08:55:38Z</time>
      </trkpt>
      <trkpt lat="45.96507" lon="4.84261">
        <ele>293</ele>
        <time>2018-10-06T08:55:39Z</time>
      </trkpt>
      <trkpt lat="45.96509" lon="4.84268">
        <ele>292</ele>
        <time>2018-10-06T08:55:40Z</time>
      </trkpt>
      <trkpt lat="45.9651" lon="4.84275">
        <ele>292</ele>
        <time>2018-10-06T08:55:41Z</time>
      </trkpt>
      <trkpt lat="45.96512" lon="4.84282">
        <ele>293</ele>
        <time>2018-10-06T08:55:42Z</time>
      </trkpt>
      <trkpt lat="45.96513" lon="4.84288">
        <ele>293</ele>
        <time>2018-10-06T08:55:43Z</time>
      </trkpt>
      <trkpt lat="45.96515" lon="4.84295">
        <ele>292</ele>
        <time>2018-10-06T08:55:44Z</time>
      </trkpt>
      <trkpt lat="45.96516" lon="4.84303">
        <ele>292</ele>
        <time>2018-10-06T08:55:45Z</time>
      </trkpt>
      <trkpt lat="45.96518" lon="4.8431">
        <ele>292</ele>
        <time>2018-10-06T08:55:46Z</time>
      </trkpt>
      <trkpt lat="45.96519" lon="4.84318">
        <ele>292</ele>
        <time>2018-10-06T08:55:47Z</time>
      </trkpt>
      <trkpt lat="45.9652" lon="4.84326">
        <ele>292</ele>
        <time>2018-10-06T08:55:48Z</time>
      </trkpt>
      <trkpt lat="45.96522" lon="4.84334">
        <ele>291</ele>
        <time>2018-10-06T08:55:49Z</time>
      </trkpt>
      <trkpt lat="45.96524" lon="4.84341">
        <ele>292</ele>
        <time>2018-10-06T08:55:50Z</time>
      </trkpt>
      <trkpt lat="45.96526" lon="4.84348">
        <ele>291</ele>
        <time>2018-10-06T08:55:51Z</time>
      </trkpt>
      <trkpt lat="45.96528" lon="4.84355">
        <ele>291</ele>
        <time>2018-10-06T08:55:52Z</time>
      </trkpt>
      <trkpt lat="45.9653" lon="4.84361">
        <ele>291</ele>
        <time>2018-10-06T08:55:53Z</time>
      </trkpt>
      <trkpt lat="45.96531" lon="4.84367">
        <ele>291</ele>
        <time>2018-10-06T08:55:54Z</time>
      </trkpt>
      <trkpt lat="45.96532" lon="4.8438">
        <ele>292</ele>
        <time>2018-10-06T08:55:56Z</time>
      </trkpt>
      <trkpt lat="45.96533" lon="4.84387">
        <ele>292</ele>
        <time>2018-10-06T08:55:57Z</time>
      </trkpt>
      <trkpt lat="45.96534" lon="4.84393">
        <ele>292</ele>
        <time>2018-10-06T08:55:58Z</time>
      </trkpt>
      <trkpt lat="45.96534" lon="4.844">
        <ele>292</ele>
        <time>2018-10-06T08:55:59Z</time>
      </trkpt>
      <trkpt lat="45.96533" lon="4.84408">
        <ele>291</ele>
        <time>2018-10-06T08:56:00Z</time>
      </trkpt>
      <trkpt lat="45.96533" lon="4.84414">
        <ele>291</ele>
        <time>2018-10-06T08:56:01Z</time>
      </trkpt>
      <trkpt lat="45.96532" lon="4.8442">
        <ele>291</ele>
        <time>2018-10-06T08:56:02Z</time>
      </trkpt>
      <trkpt lat="45.96532" lon="4.84427">
        <ele>291</ele>
        <time>2018-10-06T08:56:03Z</time>
      </trkpt>
      <trkpt lat="45.96531" lon="4.8444">
        <ele>290</ele>
        <time>2018-10-06T08:56:05Z</time>
      </trkpt>
      <trkpt lat="45.96531" lon="4.84446">
        <ele>290</ele>
        <time>2018-10-06T08:56:06Z</time>
      </trkpt>
      <trkpt lat="45.96532" lon="4.84458">
        <ele>290</ele>
        <time>2018-10-06T08:56:08Z</time>
      </trkpt>
      <trkpt lat="45.96531" lon="4.84463">
        <ele>289</ele>
        <time>2018-10-06T08:56:09Z</time>
      </trkpt>
      <trkpt lat="45.96531" lon="4.84476">
        <ele>289</ele>
        <time>2018-10-06T08:56:11Z</time>
      </trkpt>
      <trkpt lat="45.9653" lon="4.84481">
        <ele>289</ele>
        <time>2018-10-06T08:56:12Z</time>
      </trkpt>
      <trkpt lat="45.9653" lon="4.84493">
        <ele>289</ele>
        <time>2018-10-06T08:56:14Z</time>
      </trkpt>
      <trkpt lat="45.9653" lon="4.845">
        <ele>289</ele>
        <time>2018-10-06T08:56:15Z</time>
      </trkpt>
      <trkpt lat="45.96529" lon="4.84512">
        <ele>289</ele>
        <time>2018-10-06T08:56:17Z</time>
      </trkpt>
      <trkpt lat="45.96529" lon="4.84519">
        <ele>289</ele>
        <time>2018-10-06T08:56:18Z</time>
      </trkpt>
      <trkpt lat="45.96528" lon="4.84526">
        <ele>288</ele>
        <time>2018-10-06T08:56:19Z</time>
      </trkpt>
      <trkpt lat="45.96528" lon="4.84533">
        <ele>288</ele>
        <time>2018-10-06T08:56:20Z</time>
      </trkpt>
      <trkpt lat="45.96527" lon="4.84544">
        <ele>288</ele>
        <time>2018-10-06T08:56:22Z</time>
      </trkpt>
      <trkpt lat="45.96527" lon="4.84551">
        <ele>288</ele>
        <time>2018-10-06T08:56:23Z</time>
      </trkpt>
      <trkpt lat="45.96527" lon="4.84557">
        <ele>288</ele>
        <time>2018-10-06T08:56:24Z</time>
      </trkpt>
      <trkpt lat="45.96528" lon="4.84564">
        <ele>288</ele>
        <time>2018-10-06T08:56:25Z</time>
      </trkpt>
      <trkpt lat="45.96528" lon="4.84571">
        <ele>287</ele>
        <time>2018-10-06T08:56:26Z</time>
      </trkpt>
      <trkpt lat="45.96528" lon="4.84578">
        <ele>287</ele>
        <time>2018-10-06T08:56:27Z</time>
      </trkpt>
      <trkpt lat="45.96527" lon="4.8459">
        <ele>287</ele>
        <time>2018-10-06T08:56:29Z</time>
      </trkpt>
      <trkpt lat="45.96527" lon="4.84595">
        <ele>286</ele>
        <time>2018-10-06T08:56:30Z</time>
      </trkpt>
      <trkpt lat="45.96527" lon="4.84608">
        <ele>285</ele>
        <time>2018-10-06T08:56:32Z</time>
      </trkpt>
      <trkpt lat="45.96526" lon="4.84614">
        <ele>285</ele>
        <time>2018-10-06T08:56:33Z</time>
      </trkpt>
      <trkpt lat="45.96526" lon="4.84626">
        <ele>285</ele>
        <time>2018-10-06T08:56:35Z</time>
      </trkpt>
      <trkpt lat="45.96526" lon="4.84632">
        <ele>286</ele>
        <time>2018-10-06T08:56:36Z</time>
      </trkpt>
      <trkpt lat="45.96526" lon="4.84644">
        <ele>286</ele>
        <time>2018-10-06T08:56:38Z</time>
      </trkpt>
      <trkpt lat="45.96526" lon="4.8465">
        <ele>286</ele>
        <time>2018-10-06T08:56:39Z</time>
      </trkpt>
      <trkpt lat="45.96527" lon="4.84662">
        <ele>286</ele>
        <time>2018-10-06T08:56:41Z</time>
      </trkpt>
      <trkpt lat="45.96528" lon="4.84664">
        <ele>286</ele>
        <time>2018-10-06T08:56:42Z</time>
      </trkpt>
      <trkpt lat="45.96529" lon="4.84675">
        <ele>286</ele>
        <time>2018-10-06T08:56:45Z</time>
      </trkpt>
      <trkpt lat="45.96532" lon="4.84685">
        <ele>286</ele>
        <time>2018-10-06T08:56:46Z</time>
      </trkpt>
      <trkpt lat="45.96534" lon="4.84696">
        <ele>285</ele>
        <time>2018-10-06T08:56:48Z</time>
      </trkpt>
      <trkpt lat="45.96534" lon="4.84702">
        <ele>285</ele>
        <time>2018-10-06T08:56:49Z</time>
      </trkpt>
      <trkpt lat="45.96535" lon="4.84714">
        <ele>285</ele>
        <time>2018-10-06T08:56:51Z</time>
      </trkpt>
      <trkpt lat="45.96536" lon="4.8472">
        <ele>285</ele>
        <time>2018-10-06T08:56:52Z</time>
      </trkpt>
      <trkpt lat="45.96535" lon="4.84731">
        <ele>286</ele>
        <time>2018-10-06T08:56:54Z</time>
      </trkpt>
      <trkpt lat="45.96533" lon="4.84736">
        <ele>287</ele>
        <time>2018-10-06T08:56:55Z</time>
      </trkpt>
      <trkpt lat="45.9653" lon="4.84747">
        <ele>288</ele>
        <time>2018-10-06T08:56:58Z</time>
      </trkpt>
      <trkpt lat="45.96529" lon="4.84756">
        <ele>288</ele>
        <time>2018-10-06T08:56:59Z</time>
      </trkpt>
      <trkpt lat="45.96526" lon="4.84766">
        <ele>289</ele>
        <time>2018-10-06T08:57:01Z</time>
      </trkpt>
      <trkpt lat="45.96526" lon="4.84769">
        <ele>290</ele>
        <time>2018-10-06T08:57:02Z</time>
      </trkpt>
      <trkpt lat="45.96523" lon="4.84779">
        <ele>292</ele>
        <time>2018-10-06T08:57:05Z</time>
      </trkpt>
      <trkpt lat="45.96521" lon="4.84783">
        <ele>291</ele>
        <time>2018-10-06T08:57:06Z</time>
      </trkpt>
      <trkpt lat="45.96519" lon="4.84791">
        <ele>292</ele>
        <time>2018-10-06T08:57:08Z</time>
      </trkpt>
      <trkpt lat="45.96518" lon="4.84796">
        <ele>292</ele>
        <time>2018-10-06T08:57:09Z</time>
      </trkpt>
      <trkpt lat="45.96516" lon="4.84804">
        <ele>292</ele>
        <time>2018-10-06T08:57:11Z</time>
      </trkpt>
      <trkpt lat="45.96515" lon="4.84808">
        <ele>291</ele>
        <time>2018-10-06T08:57:12Z</time>
      </trkpt>
      <trkpt lat="45.96513" lon="4.84817">
        <ele>291</ele>
        <time>2018-10-06T08:57:14Z</time>
      </trkpt>
      <trkpt lat="45.96512" lon="4.84821">
        <ele>291</ele>
        <time>2018-10-06T08:57:15Z</time>
      </trkpt>
      <trkpt lat="45.9651" lon="4.8483">
        <ele>291</ele>
        <time>2018-10-06T08:57:17Z</time>
      </trkpt>
      <trkpt lat="45.96509" lon="4.84834">
        <ele>291</ele>
        <time>2018-10-06T08:57:18Z</time>
      </trkpt>
      <trkpt lat="45.96507" lon="4.84843">
        <ele>287</ele>
        <time>2018-10-06T08:57:20Z</time>
      </trkpt>
      <trkpt lat="45.96506" lon="4.84847">
        <ele>288</ele>
        <time>2018-10-06T08:57:21Z</time>
      </trkpt>
      <trkpt lat="45.96503" lon="4.84858">
        <ele>290</ele>
        <time>2018-10-06T08:57:24Z</time>
      </trkpt>
      <trkpt lat="45.96503" lon="4.84862">
        <ele>291</ele>
        <time>2018-10-06T08:57:25Z</time>
      </trkpt>
      <trkpt lat="45.965" lon="4.84874">
        <ele>292</ele>
        <time>2018-10-06T08:57:28Z</time>
      </trkpt>
      <trkpt lat="45.96499" lon="4.84878">
        <ele>292</ele>
        <time>2018-10-06T08:57:29Z</time>
      </trkpt>
      <trkpt lat="45.96497" lon="4.84888">
        <ele>292</ele>
        <time>2018-10-06T08:57:32Z</time>
      </trkpt>
      <trkpt lat="45.96497" lon="4.84891">
        <ele>292</ele>
        <time>2018-10-06T08:57:33Z</time>
      </trkpt>
      <trkpt lat="45.96495" lon="4.84902">
        <ele>291</ele>
        <time>2018-10-06T08:57:36Z</time>
      </trkpt>
      <trkpt lat="45.96494" lon="4.84906">
        <ele>291</ele>
        <time>2018-10-06T08:57:37Z</time>
      </trkpt>
      <trkpt lat="45.96492" lon="4.84917">
        <ele>290</ele>
        <time>2018-10-06T08:57:40Z</time>
      </trkpt>
      <trkpt lat="45.96491" lon="4.84921">
        <ele>290</ele>
        <time>2018-10-06T08:57:41Z</time>
      </trkpt>
      <trkpt lat="45.9649" lon="4.84933">
        <ele>290</ele>
        <time>2018-10-06T08:57:44Z</time>
      </trkpt>
      <trkpt lat="45.96489" lon="4.84937">
        <ele>290</ele>
        <time>2018-10-06T08:57:45Z</time>
      </trkpt>
      <trkpt lat="45.96488" lon="4.84947">
        <ele>289</ele>
        <time>2018-10-06T08:57:47Z</time>
      </trkpt>
      <trkpt lat="45.96487" lon="4.84951">
        <ele>289</ele>
        <time>2018-10-06T08:57:48Z</time>
      </trkpt>
      <trkpt lat="45.96485" lon="4.84963">
        <ele>289</ele>
        <time>2018-10-06T08:57:51Z</time>
      </trkpt>
      <trkpt lat="45.96484" lon="4.84967">
        <ele>289</ele>
        <time>2018-10-06T08:57:52Z</time>
      </trkpt>
      <trkpt lat="45.96482" lon="4.84978">
        <ele>291</ele>
        <time>2018-10-06T08:57:55Z</time>
      </trkpt>
      <trkpt lat="45.96481" lon="4.84982">
        <ele>292</ele>
        <time>2018-10-06T08:57:56Z</time>
      </trkpt>
      <trkpt lat="45.96479" lon="4.84992">
        <ele>292</ele>
        <time>2018-10-06T08:57:59Z</time>
      </trkpt>
      <trkpt lat="45.96479" lon="4.84996">
        <ele>292</ele>
        <time>2018-10-06T08:58:00Z</time>
      </trkpt>
      <trkpt lat="45.96478" lon="4.85007">
        <ele>292</ele>
        <time>2018-10-06T08:58:03Z</time>
      </trkpt>
      <trkpt lat="45.96477" lon="4.85011">
        <ele>293</ele>
        <time>2018-10-06T08:58:04Z</time>
      </trkpt>
      <trkpt lat="45.96476" lon="4.85022">
        <ele>293</ele>
        <time>2018-10-06T08:58:07Z</time>
      </trkpt>
      <trkpt lat="45.96476" lon="4.85026">
        <ele>294</ele>
        <time>2018-10-06T08:58:08Z</time>
      </trkpt>
      <trkpt lat="45.96475" lon="4.85038">
        <ele>295</ele>
        <time>2018-10-06T08:58:11Z</time>
      </trkpt>
      <trkpt lat="45.96475" lon="4.85041">
        <ele>295</ele>
        <time>2018-10-06T08:58:12Z</time>
      </trkpt>
      <trkpt lat="45.96475" lon="4.85053">
        <ele>295</ele>
        <time>2018-10-06T08:58:15Z</time>
      </trkpt>
      <trkpt lat="45.96475" lon="4.85056">
        <ele>296</ele>
        <time>2018-10-06T08:58:16Z</time>
      </trkpt>
      <trkpt lat="45.96474" lon="4.85067">
        <ele>299</ele>
        <time>2018-10-06T08:58:19Z</time>
      </trkpt>
      <trkpt lat="45.96474" lon="4.8507">
        <ele>299</ele>
        <time>2018-10-06T08:58:20Z</time>
      </trkpt>
      <trkpt lat="45.96474" lon="4.8508">
        <ele>298</ele>
        <time>2018-10-06T08:58:23Z</time>
      </trkpt>
      <trkpt lat="45.96474" lon="4.85083">
        <ele>298</ele>
        <time>2018-10-06T08:58:24Z</time>
      </trkpt>
      <trkpt lat="45.96474" lon="4.85093">
        <ele>300</ele>
        <time>2018-10-06T08:58:27Z</time>
      </trkpt>
      <trkpt lat="45.96474" lon="4.85097">
        <ele>300</ele>
        <time>2018-10-06T08:58:28Z</time>
      </trkpt>
      <trkpt lat="45.96473" lon="4.85107">
        <ele>301</ele>
        <time>2018-10-06T08:58:31Z</time>
      </trkpt>
      <trkpt lat="45.96473" lon="4.8511">
        <ele>300</ele>
        <time>2018-10-06T08:58:32Z</time>
      </trkpt>
      <trkpt lat="45.96472" lon="4.85121">
        <ele>301</ele>
        <time>2018-10-06T08:58:35Z</time>
      </trkpt>
      <trkpt lat="45.96472" lon="4.85124">
        <ele>302</ele>
        <time>2018-10-06T08:58:36Z</time>
      </trkpt>
      <trkpt lat="45.9647" lon="4.85136">
        <ele>303</ele>
        <time>2018-10-06T08:58:40Z</time>
      </trkpt>
      <trkpt lat="45.9647" lon="4.85139">
        <ele>303</ele>
        <time>2018-10-06T08:58:41Z</time>
      </trkpt>
      <trkpt lat="45.96466" lon="4.85151">
        <ele>304</ele>
        <time>2018-10-06T08:58:45Z</time>
      </trkpt>
      <trkpt lat="45.96465" lon="4.85153">
        <ele>304</ele>
        <time>2018-10-06T08:58:46Z</time>
      </trkpt>
      <trkpt lat="45.96462" lon="4.85162">
        <ele>304</ele>
        <time>2018-10-06T08:58:49Z</time>
      </trkpt>
      <trkpt lat="45.96461" lon="4.85165">
        <ele>305</ele>
        <time>2018-10-06T08:58:50Z</time>
      </trkpt>
      <trkpt lat="45.96459" lon="4.85175">
        <ele>304</ele>
        <time>2018-10-06T08:58:53Z</time>
      </trkpt>
      <trkpt lat="45.96458" lon="4.85179">
        <ele>303</ele>
        <time>2018-10-06T08:58:54Z</time>
      </trkpt>
      <trkpt lat="45.96457" lon="4.85189">
        <ele>302</ele>
        <time>2018-10-06T08:58:57Z</time>
      </trkpt>
      <trkpt lat="45.96457" lon="4.85192">
        <ele>303</ele>
        <time>2018-10-06T08:58:58Z</time>
      </trkpt>
      <trkpt lat="45.96457" lon="4.85202">
        <ele>302</ele>
        <time>2018-10-06T08:59:01Z</time>
      </trkpt>
      <trkpt lat="45.96457" lon="4.85206">
        <ele>301</ele>
        <time>2018-10-06T08:59:02Z</time>
      </trkpt>
      <trkpt lat="45.96456" lon="4.85218">
        <ele>301</ele>
        <time>2018-10-06T08:59:05Z</time>
      </trkpt>
      <trkpt lat="45.96456" lon="4.85222">
        <ele>301</ele>
        <time>2018-10-06T08:59:06Z</time>
      </trkpt>
      <trkpt lat="45.96456" lon="4.85234">
        <ele>302</ele>
        <time>2018-10-06T08:59:09Z</time>
      </trkpt>
      <trkpt lat="45.96456" lon="4.85238">
        <ele>301</ele>
        <time>2018-10-06T08:59:10Z</time>
      </trkpt>
      <trkpt lat="45.96456" lon="4.8525">
        <ele>301</ele>
        <time>2018-10-06T08:59:13Z</time>
      </trkpt>
      <trkpt lat="45.96456" lon="4.85255">
        <ele>301</ele>
        <time>2018-10-06T08:59:14Z</time>
      </trkpt>
      <trkpt lat="45.96457" lon="4.85267">
        <ele>301</ele>
        <time>2018-10-06T08:59:17Z</time>
      </trkpt>
      <trkpt lat="45.96457" lon="4.85271">
        <ele>301</ele>
        <time>2018-10-06T08:59:18Z</time>
      </trkpt>
      <trkpt lat="45.96457" lon="4.85284">
        <ele>302</ele>
        <time>2018-10-06T08:59:21Z</time>
      </trkpt>
      <trkpt lat="45.96457" lon="4.85288">
        <ele>302</ele>
        <time>2018-10-06T08:59:22Z</time>
      </trkpt>
      <trkpt lat="45.96458" lon="4.85296">
        <ele>303</ele>
        <time>2018-10-06T08:59:24Z</time>
      </trkpt>
      <trkpt lat="45.96458" lon="4.85301">
        <ele>303</ele>
        <time>2018-10-06T08:59:25Z</time>
      </trkpt>
      <trkpt lat="45.96459" lon="4.85313">
        <ele>304</ele>
        <time>2018-10-06T08:59:28Z</time>
      </trkpt>
      <trkpt lat="45.9646" lon="4.85327">
        <ele>304</ele>
        <time>2018-10-06T08:59:29Z</time>
      </trkpt>
      <trkpt lat="45.9646" lon="4.85337">
        <ele>306</ele>
        <time>2018-10-06T08:59:32Z</time>
      </trkpt>
      <trkpt lat="45.9646" lon="4.85348">
        <ele>306</ele>
        <time>2018-10-06T08:59:33Z</time>
      </trkpt>
      <trkpt lat="45.96461" lon="4.8536">
        <ele>308</ele>
        <time>2018-10-06T08:59:37Z</time>
      </trkpt>
      <trkpt lat="45.96461" lon="4.85363">
        <ele>309</ele>
        <time>2018-10-06T08:59:38Z</time>
      </trkpt>
      <trkpt lat="45.96461" lon="4.85374">
        <ele>310</ele>
        <time>2018-10-06T08:59:41Z</time>
      </trkpt>
      <trkpt lat="45.96461" lon="4.85378">
        <ele>310</ele>
        <time>2018-10-06T08:59:42Z</time>
      </trkpt>
      <trkpt lat="45.96462" lon="4.85387">
        <ele>311</ele>
        <time>2018-10-06T08:59:44Z</time>
      </trkpt>
      <trkpt lat="45.96462" lon="4.85392">
        <ele>311</ele>
        <time>2018-10-06T08:59:45Z</time>
      </trkpt>
      <trkpt lat="45.96463" lon="4.85405">
        <ele>311</ele>
        <time>2018-10-06T08:59:46Z</time>
      </trkpt>
      <trkpt lat="45.96464" lon="4.85414">
        <ele>313</ele>
        <time>2018-10-06T08:59:49Z</time>
      </trkpt>
      <trkpt lat="45.96465" lon="4.85425">
        <ele>313</ele>
        <time>2018-10-06T08:59:50Z</time>
      </trkpt>
      <trkpt lat="45.96466" lon="4.85437">
        <ele>313</ele>
        <time>2018-10-06T08:59:54Z</time>
      </trkpt>
      <trkpt lat="45.96466" lon="4.85441">
        <ele>312</ele>
        <time>2018-10-06T08:59:55Z</time>
      </trkpt>
      <trkpt lat="45.96466" lon="4.8545">
        <ele>312</ele>
        <time>2018-10-06T08:59:57Z</time>
      </trkpt>
      <trkpt lat="45.96466" lon="4.85463">
        <ele>312</ele>
        <time>2018-10-06T08:59:58Z</time>
      </trkpt>
      <trkpt lat="45.96466" lon="4.85474">
        <ele>312</ele>
        <time>2018-10-06T09:00:00Z</time>
      </trkpt>
      <trkpt lat="45.96466" lon="4.85479">
        <ele>312</ele>
        <time>2018-10-06T09:00:01Z</time>
      </trkpt>
      <trkpt lat="45.96466" lon="4.8549">
        <ele>312</ele>
        <time>2018-10-06T09:00:03Z</time>
      </trkpt>
      <trkpt lat="45.96466" lon="4.85492">
        <ele>312</ele>
        <time>2018-10-06T09:00:04Z</time>
      </trkpt>
      <trkpt lat="45.96467" lon="4.85503">
        <ele>312</ele>
        <time>2018-10-06T09:00:07Z</time>
      </trkpt>
      <trkpt lat="45.96467" lon="4.85507">
        <ele>312</ele>
        <time>2018-10-06T09:00:08Z</time>
      </trkpt>
      <trkpt lat="45.96468" lon="4.85519">
        <ele>312</ele>
        <time>2018-10-06T09:00:09Z</time>
      </trkpt>
      <trkpt lat="45.96468" lon="4.85522">
        <ele>312</ele>
        <time>2018-10-06T09:00:10Z</time>
      </trkpt>
      <trkpt lat="45.96468" lon="4.85533">
        <ele>312</ele>
        <time>2018-10-06T09:00:13Z</time>
      </trkpt>
      <trkpt lat="45.96468" lon="4.85537">
        <ele>312</ele>
        <time>2018-10-06T09:00:14Z</time>
      </trkpt>
      <trkpt lat="45.96468" lon="4.85547">
        <ele>312</ele>
        <time>2018-10-06T09:00:16Z</time>
      </trkpt>
      <trkpt lat="45.96469" lon="4.85552">
        <ele>312</ele>
        <time>2018-10-06T09:00:17Z</time>
      </trkpt>
      <trkpt lat="45.96469" lon="4.85557">
        <ele>311</ele>
        <time>2018-10-06T09:00:18Z</time>
      </trkpt>
      <trkpt lat="45.96471" lon="4.85572">
        <ele>310</ele>
        <time>2018-10-06T09:00:19Z</time>
      </trkpt>
      <trkpt lat="45.96473" lon="4.85581">
        <ele>311</ele>
        <time>2018-10-06T09:00:22Z</time>
      </trkpt>
      <trkpt lat="45.96473" lon="4.85585">
        <ele>311</ele>
        <time>2018-10-06T09:00:23Z</time>
      </trkpt>
      <trkpt lat="45.96474" lon="4.85593">
        <ele>312</ele>
        <time>2018-10-06T09:00:25Z</time>
      </trkpt>
      <trkpt lat="45.96475" lon="4.85598">
        <ele>312</ele>
        <time>2018-10-06T09:00:26Z</time>
      </trkpt>
      <trkpt lat="45.96475" lon="4.85607">
        <ele>313</ele>
        <time>2018-10-06T09:00:28Z</time>
      </trkpt>
      <trkpt lat="45.96476" lon="4.85621">
        <ele>313</ele>
        <time>2018-10-06T09:00:29Z</time>
      </trkpt>
      <trkpt lat="45.96478" lon="4.85632">
        <ele>314</ele>
        <time>2018-10-06T09:00:31Z</time>
      </trkpt>
      <trkpt lat="45.96478" lon="4.85637">
        <ele>313</ele>
        <time>2018-10-06T09:00:32Z</time>
      </trkpt>
      <trkpt lat="45.96479" lon="4.85649">
        <ele>314</ele>
        <time>2018-10-06T09:00:34Z</time>
      </trkpt>
      <trkpt lat="45.9648" lon="4.85654">
        <ele>313</ele>
        <time>2018-10-06T09:00:35Z</time>
      </trkpt>
      <trkpt lat="45.96481" lon="4.85663">
        <ele>313</ele>
        <time>2018-10-06T09:00:38Z</time>
      </trkpt>
      <trkpt lat="45.96482" lon="4.85667">
        <ele>313</ele>
        <time>2018-10-06T09:00:39Z</time>
      </trkpt>
      <trkpt lat="45.96483" lon="4.85678">
        <ele>313</ele>
        <time>2018-10-06T09:00:40Z</time>
      </trkpt>
      <trkpt lat="45.96483" lon="4.85683">
        <ele>313</ele>
        <time>2018-10-06T09:00:41Z</time>
      </trkpt>
      <trkpt lat="45.96485" lon="4.85694">
        <ele>313</ele>
        <time>2018-10-06T09:00:43Z</time>
      </trkpt>
      <trkpt lat="45.96486" lon="4.857">
        <ele>313</ele>
        <time>2018-10-06T09:00:44Z</time>
      </trkpt>
      <trkpt lat="45.96487" lon="4.85711">
        <ele>313</ele>
        <time>2018-10-06T09:00:46Z</time>
      </trkpt>
      <trkpt lat="45.96487" lon="4.85713">
        <ele>313</ele>
        <time>2018-10-06T09:00:47Z</time>
      </trkpt>
      <trkpt lat="45.96488" lon="4.85725">
        <ele>313</ele>
        <time>2018-10-06T09:00:49Z</time>
      </trkpt>
      <trkpt lat="45.96489" lon="4.8573">
        <ele>313</ele>
        <time>2018-10-06T09:00:50Z</time>
      </trkpt>
      <trkpt lat="45.9649" lon="4.85741">
        <ele>314</ele>
        <time>2018-10-06T09:00:52Z</time>
      </trkpt>
      <trkpt lat="45.9649" lon="4.85746">
        <ele>315</ele>
        <time>2018-10-06T09:00:53Z</time>
      </trkpt>
      <trkpt lat="45.96492" lon="4.85757">
        <ele>315</ele>
        <time>2018-10-06T09:00:55Z</time>
      </trkpt>
      <trkpt lat="45.96492" lon="4.85762">
        <ele>315</ele>
        <time>2018-10-06T09:00:56Z</time>
      </trkpt>
      <trkpt lat="45.96494" lon="4.85775">
        <ele>316</ele>
        <time>2018-10-06T09:01:00Z</time>
      </trkpt>
      <trkpt lat="45.96496" lon="4.85786">
        <ele>315</ele>
        <time>2018-10-06T09:01:01Z</time>
      </trkpt>
      <trkpt lat="45.96497" lon="4.85796">
        <ele>316</ele>
        <time>2018-10-06T09:01:03Z</time>
      </trkpt>
      <trkpt lat="45.96498" lon="4.85802">
        <ele>315</ele>
        <time>2018-10-06T09:01:04Z</time>
      </trkpt>
      <trkpt lat="45.965" lon="4.85813">
        <ele>315</ele>
        <time>2018-10-06T09:01:06Z</time>
      </trkpt>
      <trkpt lat="45.96501" lon="4.85819">
        <ele>315</ele>
        <time>2018-10-06T09:01:07Z</time>
      </trkpt>
      <trkpt lat="45.96502" lon="4.85829">
        <ele>315</ele>
        <time>2018-10-06T09:01:09Z</time>
      </trkpt>
      <trkpt lat="45.96503" lon="4.85835">
        <ele>316</ele>
        <time>2018-10-06T09:01:10Z</time>
      </trkpt>
      <trkpt lat="45.96505" lon="4.85846">
        <ele>318</ele>
        <time>2018-10-06T09:01:12Z</time>
      </trkpt>
      <trkpt lat="45.96506" lon="4.85849">
        <ele>317</ele>
        <time>2018-10-06T09:01:13Z</time>
      </trkpt>
      <trkpt lat="45.96507" lon="4.85858">
        <ele>318</ele>
        <time>2018-10-06T09:01:16Z</time>
      </trkpt>
      <trkpt lat="45.96508" lon="4.85862">
        <ele>318</ele>
        <time>2018-10-06T09:01:17Z</time>
      </trkpt>
      <trkpt lat="45.96509" lon="4.8587">
        <ele>318</ele>
        <time>2018-10-06T09:01:19Z</time>
      </trkpt>
      <trkpt lat="45.9651" lon="4.85875">
        <ele>316</ele>
        <time>2018-10-06T09:01:20Z</time>
      </trkpt>
      <trkpt lat="45.96513" lon="4.85884">
        <ele>316</ele>
        <time>2018-10-06T09:01:22Z</time>
      </trkpt>
      <trkpt lat="45.96515" lon="4.85898">
        <ele>316</ele>
        <time>2018-10-06T09:01:23Z</time>
      </trkpt>
      <trkpt lat="45.96517" lon="4.85909">
        <ele>316</ele>
        <time>2018-10-06T09:01:25Z</time>
      </trkpt>
      <trkpt lat="45.96518" lon="4.85914">
        <ele>316</ele>
        <time>2018-10-06T09:01:26Z</time>
      </trkpt>
      <trkpt lat="45.96521" lon="4.85924">
        <ele>317</ele>
        <time>2018-10-06T09:01:28Z</time>
      </trkpt>
      <trkpt lat="45.96523" lon="4.85928">
        <ele>317</ele>
        <time>2018-10-06T09:01:29Z</time>
      </trkpt>
      <trkpt lat="45.96525" lon="4.85938">
        <ele>317</ele>
        <time>2018-10-06T09:01:31Z</time>
      </trkpt>
      <trkpt lat="45.96527" lon="4.85943">
        <ele>317</ele>
        <time>2018-10-06T09:01:32Z</time>
      </trkpt>
      <trkpt lat="45.96531" lon="4.85955">
        <ele>318</ele>
        <time>2018-10-06T09:01:35Z</time>
      </trkpt>
      <trkpt lat="45.96532" lon="4.85957">
        <ele>318</ele>
        <time>2018-10-06T09:01:36Z</time>
      </trkpt>
      <trkpt lat="45.96536" lon="4.85965">
        <ele>318</ele>
        <time>2018-10-06T09:01:39Z</time>
      </trkpt>
      <trkpt lat="45.96537" lon="4.85969">
        <ele>319</ele>
        <time>2018-10-06T09:01:40Z</time>
      </trkpt>
      <trkpt lat="45.96541" lon="4.85976">
        <ele>319</ele>
        <time>2018-10-06T09:01:42Z</time>
      </trkpt>
      <trkpt lat="45.96542" lon="4.85979">
        <ele>319</ele>
        <time>2018-10-06T09:01:43Z</time>
      </trkpt>
      <trkpt lat="45.96546" lon="4.85987">
        <ele>319</ele>
        <time>2018-10-06T09:01:45Z</time>
      </trkpt>
      <trkpt lat="45.96548" lon="4.8599">
        <ele>319</ele>
        <time>2018-10-06T09:01:46Z</time>
      </trkpt>
      <trkpt lat="45.96551" lon="4.85998">
        <ele>320</ele>
        <time>2018-10-06T09:01:48Z</time>
      </trkpt>
      <trkpt lat="45.96553" lon="4.86002">
        <ele>320</ele>
        <time>2018-10-06T09:01:49Z</time>
      </trkpt>
      <trkpt lat="45.96557" lon="4.86009">
        <ele>320</ele>
        <time>2018-10-06T09:01:51Z</time>
      </trkpt>
      <trkpt lat="45.96559" lon="4.86013">
        <ele>320</ele>
        <time>2018-10-06T09:01:52Z</time>
      </trkpt>
      <trkpt lat="45.96565" lon="4.86023">
        <ele>320</ele>
        <time>2018-10-06T09:01:55Z</time>
      </trkpt>
      <trkpt lat="45.96567" lon="4.86026">
        <ele>321</ele>
        <time>2018-10-06T09:01:56Z</time>
      </trkpt>
      <trkpt lat="45.96572" lon="4.86035">
        <ele>321</ele>
        <time>2018-10-06T09:01:59Z</time>
      </trkpt>
      <trkpt lat="45.96573" lon="4.86039">
        <ele>321</ele>
        <time>2018-10-06T09:02:00Z</time>
      </trkpt>
      <trkpt lat="45.96578" lon="4.86049">
        <ele>321</ele>
        <time>2018-10-06T09:02:03Z</time>
      </trkpt>
      <trkpt lat="45.9658" lon="4.86052">
        <ele>321</ele>
        <time>2018-10-06T09:02:04Z</time>
      </trkpt>
      <trkpt lat="45.96585" lon="4.86062">
        <ele>321</ele>
        <time>2018-10-06T09:02:07Z</time>
      </trkpt>
      <trkpt lat="45.96586" lon="4.86066">
        <ele>321</ele>
        <time>2018-10-06T09:02:08Z</time>
      </trkpt>
      <trkpt lat="45.96589" lon="4.86074">
        <ele>321</ele>
        <time>2018-10-06T09:02:10Z</time>
      </trkpt>
      <trkpt lat="45.9659" lon="4.86078">
        <ele>321</ele>
        <time>2018-10-06T09:02:11Z</time>
      </trkpt>
      <trkpt lat="45.96593" lon="4.8609">
        <ele>321</ele>
        <time>2018-10-06T09:02:14Z</time>
      </trkpt>
      <trkpt lat="45.96594" lon="4.86094">
        <ele>321</ele>
        <time>2018-10-06T09:02:15Z</time>
      </trkpt>
      <trkpt lat="45.96595" lon="4.86106">
        <ele>321</ele>
        <time>2018-10-06T09:02:18Z</time>
      </trkpt>
      <trkpt lat="45.96596" lon="4.8611">
        <ele>322</ele>
        <time>2018-10-06T09:02:19Z</time>
      </trkpt>
      <trkpt lat="45.96596" lon="4.86121">
        <ele>321</ele>
        <time>2018-10-06T09:02:22Z</time>
      </trkpt>
      <trkpt lat="45.96596" lon="4.86125">
        <ele>321</ele>
        <time>2018-10-06T09:02:23Z</time>
      </trkpt>
      <trkpt lat="45.96595" lon="4.86135">
        <ele>321</ele>
        <time>2018-10-06T09:02:26Z</time>
      </trkpt>
      <trkpt lat="45.96595" lon="4.86138">
        <ele>321</ele>
        <time>2018-10-06T09:02:27Z</time>
      </trkpt>
      <trkpt lat="45.96594" lon="4.8615">
        <ele>320</ele>
        <time>2018-10-06T09:02:30Z</time>
      </trkpt>
      <trkpt lat="45.96594" lon="4.86154">
        <ele>319</ele>
        <time>2018-10-06T09:02:31Z</time>
      </trkpt>
      <trkpt lat="45.96592" lon="4.86166">
        <ele>318</ele>
        <time>2018-10-06T09:02:34Z</time>
      </trkpt>
      <trkpt lat="45.96592" lon="4.8617">
        <ele>319</ele>
        <time>2018-10-06T09:02:35Z</time>
      </trkpt>
      <trkpt lat="45.96591" lon="4.86182">
        <ele>320</ele>
        <time>2018-10-06T09:02:38Z</time>
      </trkpt>
      <trkpt lat="45.96591" lon="4.86186">
        <ele>320</ele>
        <time>2018-10-06T09:02:39Z</time>
      </trkpt>
      <trkpt lat="45.9659" lon="4.86196">
        <ele>321</ele>
        <time>2018-10-06T09:02:42Z</time>
      </trkpt>
      <trkpt lat="45.9659" lon="4.86199">
        <ele>321</ele>
        <time>2018-10-06T09:02:43Z</time>
      </trkpt>
      <trkpt lat="45.96589" lon="4.86211">
        <ele>322</ele>
        <time>2018-10-06T09:02:47Z</time>
      </trkpt>
      <trkpt lat="45.96589" lon="4.86215">
        <ele>321</ele>
        <time>2018-10-06T09:02:48Z</time>
      </trkpt>
      <trkpt lat="45.96587" lon="4.86226">
        <ele>322</ele>
        <time>2018-10-06T09:02:51Z</time>
      </trkpt>
      <trkpt lat="45.96586" lon="4.8623">
        <ele>322</ele>
        <time>2018-10-06T09:02:52Z</time>
      </trkpt>
      <trkpt lat="45.96585" lon="4.86241">
        <ele>323</ele>
        <time>2018-10-06T09:02:55Z</time>
      </trkpt>
      <trkpt lat="45.96585" lon="4.86245">
        <ele>324</ele>
        <time>2018-10-06T09:02:56Z</time>
      </trkpt>
      <trkpt lat="45.96584" lon="4.86257">
        <ele>324</ele>
        <time>2018-10-06T09:02:59Z</time>
      </trkpt>
      <trkpt lat="45.96583" lon="4.86261">
        <ele>324</ele>
        <time>2018-10-06T09:03:00Z</time>
      </trkpt>
      <trkpt lat="45.96583" lon="4.86273">
        <ele>323</ele>
        <time>2018-10-06T09:03:03Z</time>
      </trkpt>
      <trkpt lat="45.96582" lon="4.86277">
        <ele>323</ele>
        <time>2018-10-06T09:03:04Z</time>
      </trkpt>
      <trkpt lat="45.96581" lon="4.86288">
        <ele>324</ele>
        <time>2018-10-06T09:03:07Z</time>
      </trkpt>
      <trkpt lat="45.96581" lon="4.86292">
        <ele>324</ele>
        <time>2018-10-06T09:03:08Z</time>
      </trkpt>
      <trkpt lat="45.96581" lon="4.86303">
        <ele>324</ele>
        <time>2018-10-06T09:03:11Z</time>
      </trkpt>
      <trkpt lat="45.96581" lon="4.86306">
        <ele>325</ele>
        <time>2018-10-06T09:03:12Z</time>
      </trkpt>
      <trkpt lat="45.96581" lon="4.86317">
        <ele>325</ele>
        <time>2018-10-06T09:03:15Z</time>
      </trkpt>
      <trkpt lat="45.96581" lon="4.8632">
        <ele>325</ele>
        <time>2018-10-06T09:03:16Z</time>
      </trkpt>
      <trkpt lat="45.96581" lon="4.86331">
        <ele>325</ele>
        <time>2018-10-06T09:03:19Z</time>
      </trkpt>
      <trkpt lat="45.96581" lon="4.86335">
        <ele>325</ele>
        <time>2018-10-06T09:03:20Z</time>
      </trkpt>
      <trkpt lat="45.96581" lon="4.86346">
        <ele>326</ele>
        <time>2018-10-06T09:03:23Z</time>
      </trkpt>
      <trkpt lat="45.96581" lon="4.8635">
        <ele>326</ele>
        <time>2018-10-06T09:03:24Z</time>
      </trkpt>
      <trkpt lat="45.9658" lon="4.86363">
        <ele>327</ele>
        <time>2018-10-06T09:03:27Z</time>
      </trkpt>
      <trkpt lat="45.9658" lon="4.86367">
        <ele>326</ele>
        <time>2018-10-06T09:03:28Z</time>
      </trkpt>
      <trkpt lat="45.9658" lon="4.86378">
        <ele>327</ele>
        <time>2018-10-06T09:03:31Z</time>
      </trkpt>
      <trkpt lat="45.9658" lon="4.86382">
        <ele>327</ele>
        <time>2018-10-06T09:03:32Z</time>
      </trkpt>
      <trkpt lat="45.9658" lon="4.86393">
        <ele>327</ele>
        <time>2018-10-06T09:03:35Z</time>
      </trkpt>
      <trkpt lat="45.9658" lon="4.86397">
        <ele>327</ele>
        <time>2018-10-06T09:03:36Z</time>
      </trkpt>
      <trkpt lat="45.96581" lon="4.86408">
        <ele>327</ele>
        <time>2018-10-06T09:03:39Z</time>
      </trkpt>
      <trkpt lat="45.96581" lon="4.86412">
        <ele>327</ele>
        <time>2018-10-06T09:03:40Z</time>
      </trkpt>
      <trkpt lat="45.96581" lon="4.86424">
        <ele>327</ele>
        <time>2018-10-06T09:03:43Z</time>
      </trkpt>
      <trkpt lat="45.96581" lon="4.86428">
        <ele>327</ele>
        <time>2018-10-06T09:03:44Z</time>
      </trkpt>
      <trkpt lat="45.96582" lon="4.86438">
        <ele>327</ele>
        <time>2018-10-06T09:03:47Z</time>
      </trkpt>
      <trkpt lat="45.96582" lon="4.86441">
        <ele>328</ele>
        <time>2018-10-06T09:03:48Z</time>
      </trkpt>
      <trkpt lat="45.96581" lon="4.86453">
        <ele>328</ele>
        <time>2018-10-06T09:03:51Z</time>
      </trkpt>
      <trkpt lat="45.96581" lon="4.86458">
        <ele>328</ele>
        <time>2018-10-06T09:03:52Z</time>
      </trkpt>
      <trkpt lat="45.9658" lon="4.86468">
        <ele>329</ele>
        <time>2018-10-06T09:03:55Z</time>
      </trkpt>
      <trkpt lat="45.9658" lon="4.86472">
        <ele>309</ele>
        <time>2018-10-06T09:03:56Z</time>
      </trkpt>
      <trkpt lat="45.96578" lon="4.86483">
        <ele>321</ele>
        <time>2018-10-06T09:03:59Z</time>
      </trkpt>
      <trkpt lat="45.96577" lon="4.86487">
        <ele>324</ele>
        <time>2018-10-06T09:04:00Z</time>
      </trkpt>
      <trkpt lat="45.96575" lon="4.86495">
        <ele>329</ele>
        <time>2018-10-06T09:04:02Z</time>
      </trkpt>
      <trkpt lat="45.96573" lon="4.86499">
        <ele>330</ele>
        <time>2018-10-06T09:04:03Z</time>
      </trkpt>
      <trkpt lat="45.9657" lon="4.86507">
        <ele>331</ele>
        <time>2018-10-06T09:04:05Z</time>
      </trkpt>
      <trkpt lat="45.96568" lon="4.86511">
        <ele>332</ele>
        <time>2018-10-06T09:04:06Z</time>
      </trkpt>
      <trkpt lat="45.96563" lon="4.86522">
        <ele>332</ele>
        <time>2018-10-06T09:04:07Z</time>
      </trkpt>
      <trkpt lat="45.9656" lon="4.86532">
        <ele>334</ele>
        <time>2018-10-06T09:04:09Z</time>
      </trkpt>
      <trkpt lat="45.96558" lon="4.86536">
        <ele>334</ele>
        <time>2018-10-06T09:04:10Z</time>
      </trkpt>
      <trkpt lat="45.96553" lon="4.86544">
        <ele>335</ele>
        <time>2018-10-06T09:04:13Z</time>
      </trkpt>
      <trkpt lat="45.96549" lon="4.86555">
        <ele>333</ele>
        <time>2018-10-06T09:04:14Z</time>
      </trkpt>
      <trkpt lat="45.96545" lon="4.86565">
        <ele>334</ele>
        <time>2018-10-06T09:04:16Z</time>
      </trkpt>
      <trkpt lat="45.96543" lon="4.86571">
        <ele>334</ele>
        <time>2018-10-06T09:04:17Z</time>
      </trkpt>
      <trkpt lat="45.96541" lon="4.86577">
        <ele>334</ele>
        <time>2018-10-06T09:04:18Z</time>
      </trkpt>
      <trkpt lat="45.96539" lon="4.86583">
        <ele>333</ele>
        <time>2018-10-06T09:04:19Z</time>
      </trkpt>
      <trkpt lat="45.96536" lon="4.86589">
        <ele>333</ele>
        <time>2018-10-06T09:04:20Z</time>
      </trkpt>
      <trkpt lat="45.96533" lon="4.86595">
        <ele>332</ele>
        <time>2018-10-06T09:04:21Z</time>
      </trkpt>
      <trkpt lat="45.96531" lon="4.86602">
        <ele>331</ele>
        <time>2018-10-06T09:04:22Z</time>
      </trkpt>
      <trkpt lat="45.96528" lon="4.86609">
        <ele>332</ele>
        <time>2018-10-06T09:04:23Z</time>
      </trkpt>
      <trkpt lat="45.96527" lon="4.86617">
        <ele>331</ele>
        <time>2018-10-06T09:04:24Z</time>
      </trkpt>
      <trkpt lat="45.96526" lon="4.86625">
        <ele>331</ele>
        <time>2018-10-06T09:04:25Z</time>
      </trkpt>
      <trkpt lat="45.96526" lon="4.86633">
        <ele>331</ele>
        <time>2018-10-06T09:04:26Z</time>
      </trkpt>
      <trkpt lat="45.96526" lon="4.8664">
        <ele>331</ele>
        <time>2018-10-06T09:04:27Z</time>
      </trkpt>
      <trkpt lat="45.96526" lon="4.86648">
        <ele>330</ele>
        <time>2018-10-06T09:04:28Z</time>
      </trkpt>
      <trkpt lat="45.96525" lon="4.86657">
        <ele>330</ele>
        <time>2018-10-06T09:04:29Z</time>
      </trkpt>
      <trkpt lat="45.96526" lon="4.86665">
        <ele>329</ele>
        <time>2018-10-06T09:04:30Z</time>
      </trkpt>
      <trkpt lat="45.96526" lon="4.86674">
        <ele>329</ele>
        <time>2018-10-06T09:04:31Z</time>
      </trkpt>
      <trkpt lat="45.96526" lon="4.86682">
        <ele>329</ele>
        <time>2018-10-06T09:04:32Z</time>
      </trkpt>
      <trkpt lat="45.96527" lon="4.86691">
        <ele>328</ele>
        <time>2018-10-06T09:04:33Z</time>
      </trkpt>
      <trkpt lat="45.96527" lon="4.86699">
        <ele>328</ele>
        <time>2018-10-06T09:04:34Z</time>
      </trkpt>
      <trkpt lat="45.96527" lon="4.86708">
        <ele>327</ele>
        <time>2018-10-06T09:04:35Z</time>
      </trkpt>
      <trkpt lat="45.96528" lon="4.86718">
        <ele>327</ele>
        <time>2018-10-06T09:04:36Z</time>
      </trkpt>
      <trkpt lat="45.96529" lon="4.86727">
        <ele>327</ele>
        <time>2018-10-06T09:04:37Z</time>
      </trkpt>
      <trkpt lat="45.96529" lon="4.86737">
        <ele>327</ele>
        <time>2018-10-06T09:04:38Z</time>
      </trkpt>
      <trkpt lat="45.9653" lon="4.86745">
        <ele>326</ele>
        <time>2018-10-06T09:04:39Z</time>
      </trkpt>
      <trkpt lat="45.9653" lon="4.86756">
        <ele>325</ele>
        <time>2018-10-06T09:04:40Z</time>
      </trkpt>
      <trkpt lat="45.96531" lon="4.86765">
        <ele>325</ele>
        <time>2018-10-06T09:04:41Z</time>
      </trkpt>
      <trkpt lat="45.96532" lon="4.86774">
        <ele>324</ele>
        <time>2018-10-06T09:04:42Z</time>
      </trkpt>
      <trkpt lat="45.96532" lon="4.86785">
        <ele>324</ele>
        <time>2018-10-06T09:04:43Z</time>
      </trkpt>
      <trkpt lat="45.96532" lon="4.86793">
        <ele>323</ele>
        <time>2018-10-06T09:04:44Z</time>
      </trkpt>
      <trkpt lat="45.96532" lon="4.86803">
        <ele>323</ele>
        <time>2018-10-06T09:04:45Z</time>
      </trkpt>
      <trkpt lat="45.96532" lon="4.86811">
        <ele>323</ele>
        <time>2018-10-06T09:04:46Z</time>
      </trkpt>
      <trkpt lat="45.96533" lon="4.86821">
        <ele>324</ele>
        <time>2018-10-06T09:04:47Z</time>
      </trkpt>
      <trkpt lat="45.96533" lon="4.8683">
        <ele>324</ele>
        <time>2018-10-06T09:04:48Z</time>
      </trkpt>
      <trkpt lat="45.96533" lon="4.86839">
        <ele>324</ele>
        <time>2018-10-06T09:04:49Z</time>
      </trkpt>
      <trkpt lat="45.96533" lon="4.86848">
        <ele>323</ele>
        <time>2018-10-06T09:04:50Z</time>
      </trkpt>
      <trkpt lat="45.96533" lon="4.86856">
        <ele>323</ele>
        <time>2018-10-06T09:04:51Z</time>
      </trkpt>
      <trkpt lat="45.96534" lon="4.86864">
        <ele>323</ele>
        <time>2018-10-06T09:04:52Z</time>
      </trkpt>
      <trkpt lat="45.96535" lon="4.86873">
        <ele>323</ele>
        <time>2018-10-06T09:04:53Z</time>
      </trkpt>
      <trkpt lat="45.96535" lon="4.86881">
        <ele>323</ele>
        <time>2018-10-06T09:04:54Z</time>
      </trkpt>
      <trkpt lat="45.96536" lon="4.86888">
        <ele>324</ele>
        <time>2018-10-06T09:04:55Z</time>
      </trkpt>
      <trkpt lat="45.96537" lon="4.86896">
        <ele>323</ele>
        <time>2018-10-06T09:04:56Z</time>
      </trkpt>
      <trkpt lat="45.96537" lon="4.86904">
        <ele>324</ele>
        <time>2018-10-06T09:04:57Z</time>
      </trkpt>
      <trkpt lat="45.96537" lon="4.86912">
        <ele>324</ele>
        <time>2018-10-06T09:04:58Z</time>
      </trkpt>
      <trkpt lat="45.96537" lon="4.86919">
        <ele>324</ele>
        <time>2018-10-06T09:04:59Z</time>
      </trkpt>
      <trkpt lat="45.96538" lon="4.86927">
        <ele>324</ele>
        <time>2018-10-06T09:05:00Z</time>
      </trkpt>
      <trkpt lat="45.96539" lon="4.86933">
        <ele>324</ele>
        <time>2018-10-06T09:05:01Z</time>
      </trkpt>
      <trkpt lat="45.9654" lon="4.8694">
        <ele>325</ele>
        <time>2018-10-06T09:05:02Z</time>
      </trkpt>
      <trkpt lat="45.9654" lon="4.86947">
        <ele>325</ele>
        <time>2018-10-06T09:05:03Z</time>
      </trkpt>
      <trkpt lat="45.96541" lon="4.86954">
        <ele>324</ele>
        <time>2018-10-06T09:05:04Z</time>
      </trkpt>
      <trkpt lat="45.96541" lon="4.86961">
        <ele>325</ele>
        <time>2018-10-06T09:05:05Z</time>
      </trkpt>
      <trkpt lat="45.96541" lon="4.86968">
        <ele>325</ele>
        <time>2018-10-06T09:05:06Z</time>
      </trkpt>
      <trkpt lat="45.9654" lon="4.86974">
        <ele>326</ele>
        <time>2018-10-06T09:05:07Z</time>
      </trkpt>
      <trkpt lat="45.9654" lon="4.86985">
        <ele>326</ele>
        <time>2018-10-06T09:05:10Z</time>
      </trkpt>
      <trkpt lat="45.9654" lon="4.86988">
        <ele>326</ele>
        <time>2018-10-06T09:05:11Z</time>
      </trkpt>
      <trkpt lat="45.96541" lon="4.86999">
        <ele>325</ele>
        <time>2018-10-06T09:05:14Z</time>
      </trkpt>
      <trkpt lat="45.96542" lon="4.87003">
        <ele>326</ele>
        <time>2018-10-06T09:05:15Z</time>
      </trkpt>
      <trkpt lat="45.96544" lon="4.87015">
        <ele>328</ele>
        <time>2018-10-06T09:05:19Z</time>
      </trkpt>
      <trkpt lat="45.96544" lon="4.87017">
        <ele>328</ele>
        <time>2018-10-06T09:05:20Z</time>
      </trkpt>
      <trkpt lat="45.96538" lon="4.87024">
        <ele>328</ele>
        <time>2018-10-06T09:05:27Z</time>
      </trkpt>
      <trkpt lat="45.96537" lon="4.87025">
        <ele>329</ele>
        <time>2018-10-06T09:05:28Z</time>
      </trkpt>
      <trkpt lat="45.96545" lon="4.87025">
        <ele>336</ele>
        <time>2018-10-06T09:16:11Z</time>
      </trkpt>
      <trkpt lat="45.96548" lon="4.87026">
        <ele>337</ele>
        <time>2018-10-06T09:16:12Z</time>
      </trkpt>
      <trkpt lat="45.96554" lon="4.87033">
        <ele>335</ele>
        <time>2018-10-06T09:16:15Z</time>
      </trkpt>
      <trkpt lat="45.96556" lon="4.87037">
        <ele>335</ele>
        <time>2018-10-06T09:16:16Z</time>
      </trkpt>
      <trkpt lat="45.96558" lon="4.87045">
        <ele>335</ele>
        <time>2018-10-06T09:16:18Z</time>
      </trkpt>
      <trkpt lat="45.96559" lon="4.8705">
        <ele>335</ele>
        <time>2018-10-06T09:16:19Z</time>
      </trkpt>
      <trkpt lat="45.96561" lon="4.8706">
        <ele>339</ele>
        <time>2018-10-06T09:16:22Z</time>
      </trkpt>
      <trkpt lat="45.96561" lon="4.87063">
        <ele>339</ele>
        <time>2018-10-06T09:16:23Z</time>
      </trkpt>
      <trkpt lat="45.96555" lon="4.8707">
        <ele>338</ele>
        <time>2018-10-06T09:16:27Z</time>
      </trkpt>
      <trkpt lat="45.96553" lon="4.87071">
        <ele>340</ele>
        <time>2018-10-06T09:16:28Z</time>
      </trkpt>
      <trkpt lat="45.96544" lon="4.87071">
        <ele>310</ele>
        <time>2018-10-06T09:16:32Z</time>
      </trkpt>
      <trkpt lat="45.96541" lon="4.8707">
        <ele>305</ele>
        <time>2018-10-06T09:16:33Z</time>
      </trkpt>
      <trkpt lat="45.96537" lon="4.87062">
        <ele>319</ele>
        <time>2018-10-06T09:16:36Z</time>
      </trkpt>
      <trkpt lat="45.96536" lon="4.87057">
        <ele>322</ele>
        <time>2018-10-06T09:16:37Z</time>
      </trkpt>
      <trkpt lat="45.96536" lon="4.87046">
        <ele>324</ele>
        <time>2018-10-06T09:16:40Z</time>
      </trkpt>
      <trkpt lat="45.96536" lon="4.87044">
        <ele>325</ele>
        <time>2018-10-06T09:16:41Z</time>
      </trkpt>
      <trkpt lat="45.96543" lon="4.87036">
        <ele>345</ele>
        <time>2018-10-06T09:16:47Z</time>
      </trkpt>
      <trkpt lat="45.96543" lon="4.87033">
        <ele>345</ele>
        <time>2018-10-06T09:16:48Z</time>
      </trkpt>
      <trkpt lat="45.96543" lon="4.87024">
        <ele>344</ele>
        <time>2018-10-06T09:16:50Z</time>
      </trkpt>
      <trkpt lat="45.96543" lon="4.87019">
        <ele>345</ele>
        <time>2018-10-06T09:16:51Z</time>
      </trkpt>
      <trkpt lat="45.96544" lon="4.87012">
        <ele>345</ele>
        <time>2018-10-06T09:16:53Z</time>
      </trkpt>
      <trkpt lat="45.96549" lon="4.87001">
        <ele>344</ele>
        <time>2018-10-06T09:16:54Z</time>
      </trkpt>
      <trkpt lat="45.96552" lon="4.87">
        <ele>343</ele>
        <time>2018-10-06T09:16:55Z</time>
      </trkpt>
      <trkpt lat="45.96559" lon="4.87">
        <ele>344</ele>
        <time>2018-10-06T09:16:56Z</time>
      </trkpt>
      <trkpt lat="45.96564" lon="4.86999">
        <ele>345</ele>
        <time>2018-10-06T09:16:57Z</time>
      </trkpt>
      <trkpt lat="45.96569" lon="4.86999">
        <ele>345</ele>
        <time>2018-10-06T09:16:58Z</time>
      </trkpt>
      <trkpt lat="45.96578" lon="4.86998">
        <ele>316</ele>
        <time>2018-10-06T09:17:00Z</time>
      </trkpt>
      <trkpt lat="45.9658" lon="4.86999">
        <ele>320</ele>
        <time>2018-10-06T09:17:01Z</time>
      </trkpt>
      <trkpt lat="45.96587" lon="4.86999">
        <ele>337</ele>
        <time>2018-10-06T09:17:05Z</time>
      </trkpt>
      <trkpt lat="45.96589" lon="4.86999">
        <ele>338</ele>
        <time>2018-10-06T09:17:06Z</time>
      </trkpt>
      <trkpt lat="45.96596" lon="4.86997">
        <ele>341</ele>
        <time>2018-10-06T09:17:09Z</time>
      </trkpt>
      <trkpt lat="45.96599" lon="4.86997">
        <ele>342</ele>
        <time>2018-10-06T09:17:10Z</time>
      </trkpt>
      <trkpt lat="45.96606" lon="4.86995">
        <ele>342</ele>
        <time>2018-10-06T09:17:12Z</time>
      </trkpt>
      <trkpt lat="45.96609" lon="4.86994">
        <ele>321</ele>
        <time>2018-10-06T09:17:13Z</time>
      </trkpt>
      <trkpt lat="45.96617" lon="4.86993">
        <ele>331</ele>
        <time>2018-10-06T09:17:15Z</time>
      </trkpt>
      <trkpt lat="45.9662" lon="4.86992">
        <ele>334</ele>
        <time>2018-10-06T09:17:16Z</time>
      </trkpt>
      <trkpt lat="45.96627" lon="4.8699">
        <ele>338</ele>
        <time>2018-10-06T09:17:18Z</time>
      </trkpt>
      <trkpt lat="45.9663" lon="4.8699">
        <ele>339</ele>
        <time>2018-10-06T09:17:19Z</time>
      </trkpt>
      <trkpt lat="45.96638" lon="4.8699">
        <ele>340</ele>
        <time>2018-10-06T09:17:21Z</time>
      </trkpt>
      <trkpt lat="45.96642" lon="4.8699">
        <ele>339</ele>
        <time>2018-10-06T09:17:22Z</time>
      </trkpt>
      <trkpt lat="45.96645" lon="4.86991">
        <ele>339</ele>
        <time>2018-10-06T09:17:23Z</time>
      </trkpt>
      <trkpt lat="45.96653" lon="4.86995">
        <ele>339</ele>
        <time>2018-10-06T09:17:24Z</time>
      </trkpt>
      <trkpt lat="45.96659" lon="4.87002">
        <ele>337</ele>
        <time>2018-10-06T09:17:26Z</time>
      </trkpt>
      <trkpt lat="45.96661" lon="4.87006">
        <ele>337</ele>
        <time>2018-10-06T09:17:27Z</time>
      </trkpt>
      <trkpt lat="45.96665" lon="4.87015">
        <ele>337</ele>
        <time>2018-10-06T09:17:29Z</time>
      </trkpt>
      <trkpt lat="45.96668" lon="4.8702">
        <ele>337</ele>
        <time>2018-10-06T09:17:30Z</time>
      </trkpt>
      <trkpt lat="45.96673" lon="4.87025">
        <ele>336</ele>
        <time>2018-10-06T09:17:33Z</time>
      </trkpt>
      <trkpt lat="45.96675" lon="4.87028">
        <ele>335</ele>
        <time>2018-10-06T09:17:34Z</time>
      </trkpt>
      <trkpt lat="45.96682" lon="4.87034">
        <ele>335</ele>
        <time>2018-10-06T09:17:35Z</time>
      </trkpt>
      <trkpt lat="45.96685" lon="4.87037">
        <ele>335</ele>
        <time>2018-10-06T09:17:36Z</time>
      </trkpt>
      <trkpt lat="45.96689" lon="4.8704">
        <ele>334</ele>
        <time>2018-10-06T09:17:37Z</time>
      </trkpt>
      <trkpt lat="45.96693" lon="4.87043">
        <ele>334</ele>
        <time>2018-10-06T09:17:38Z</time>
      </trkpt>
      <trkpt lat="45.96697" lon="4.87046">
        <ele>334</ele>
        <time>2018-10-06T09:17:39Z</time>
      </trkpt>
      <trkpt lat="45.96701" lon="4.8705">
        <ele>334</ele>
        <time>2018-10-06T09:17:40Z</time>
      </trkpt>
      <trkpt lat="45.96705" lon="4.87052">
        <ele>334</ele>
        <time>2018-10-06T09:17:41Z</time>
      </trkpt>
      <trkpt lat="45.9671" lon="4.87054">
        <ele>334</ele>
        <time>2018-10-06T09:17:42Z</time>
      </trkpt>
      <trkpt lat="45.96714" lon="4.87057">
        <ele>334</ele>
        <time>2018-10-06T09:17:43Z</time>
      </trkpt>
      <trkpt lat="45.96718" lon="4.8706">
        <ele>304</ele>
        <time>2018-10-06T09:17:44Z</time>
      </trkpt>
      <trkpt lat="45.96722" lon="4.87062">
        <ele>312</ele>
        <time>2018-10-06T09:17:45Z</time>
      </trkpt>
      <trkpt lat="45.96727" lon="4.87066">
        <ele>317</ele>
        <time>2018-10-06T09:17:46Z</time>
      </trkpt>
      <trkpt lat="45.96731" lon="4.87069">
        <ele>321</ele>
        <time>2018-10-06T09:17:47Z</time>
      </trkpt>
      <trkpt lat="45.96736" lon="4.87072">
        <ele>325</ele>
        <time>2018-10-06T09:17:48Z</time>
      </trkpt>
      <trkpt lat="45.9674" lon="4.87076">
        <ele>316</ele>
        <time>2018-10-06T09:17:49Z</time>
      </trkpt>
      <trkpt lat="45.96744" lon="4.87079">
        <ele>321</ele>
        <time>2018-10-06T09:17:50Z</time>
      </trkpt>
      <trkpt lat="45.96748" lon="4.87083">
        <ele>323</ele>
        <time>2018-10-06T09:17:51Z</time>
      </trkpt>
      <trkpt lat="45.96752" lon="4.87087">
        <ele>326</ele>
        <time>2018-10-06T09:17:52Z</time>
      </trkpt>
      <trkpt lat="45.96756" lon="4.87096">
        <ele>330</ele>
        <time>2018-10-06T09:17:54Z</time>
      </trkpt>
      <trkpt lat="45.9676" lon="4.87097">
        <ele>327</ele>
        <time>2018-10-06T09:17:55Z</time>
      </trkpt>
      <trkpt lat="45.96763" lon="4.87102">
        <ele>329</ele>
        <time>2018-10-06T09:17:56Z</time>
      </trkpt>
      <trkpt lat="45.96766" lon="4.87106">
        <ele>328</ele>
        <time>2018-10-06T09:17:57Z</time>
      </trkpt>
      <trkpt lat="45.9677" lon="4.87111">
        <ele>329</ele>
        <time>2018-10-06T09:17:58Z</time>
      </trkpt>
      <trkpt lat="45.96773" lon="4.87116">
        <ele>329</ele>
        <time>2018-10-06T09:17:59Z</time>
      </trkpt>
      <trkpt lat="45.96777" lon="4.8712">
        <ele>328</ele>
        <time>2018-10-06T09:18:00Z</time>
      </trkpt>
      <trkpt lat="45.96781" lon="4.87126">
        <ele>329</ele>
        <time>2018-10-06T09:18:01Z</time>
      </trkpt>
      <trkpt lat="45.96785" lon="4.87132">
        <ele>314</ele>
        <time>2018-10-06T09:18:02Z</time>
      </trkpt>
      <trkpt lat="45.96788" lon="4.87136">
        <ele>318</ele>
        <time>2018-10-06T09:18:03Z</time>
      </trkpt>
      <trkpt lat="45.96795" lon="4.87142">
        <ele>325</ele>
        <time>2018-10-06T09:18:06Z</time>
      </trkpt>
      <trkpt lat="45.96798" lon="4.87141">
        <ele>326</ele>
        <time>2018-10-06T09:18:07Z</time>
      </trkpt>
      <trkpt lat="45.96802" lon="4.87136">
        <ele>328</ele>
        <time>2018-10-06T09:18:09Z</time>
      </trkpt>
      <trkpt lat="45.96808" lon="4.87126">
        <ele>329</ele>
        <time>2018-10-06T09:18:10Z</time>
      </trkpt>
      <trkpt lat="45.96812" lon="4.87116">
        <ele>329</ele>
        <time>2018-10-06T09:18:12Z</time>
      </trkpt>
      <trkpt lat="45.96813" lon="4.87109">
        <ele>330</ele>
        <time>2018-10-06T09:18:13Z</time>
      </trkpt>
      <trkpt lat="45.96816" lon="4.87098">
        <ele>330</ele>
        <time>2018-10-06T09:18:15Z</time>
      </trkpt>
      <trkpt lat="45.96817" lon="4.87096">
        <ele>330</ele>
        <time>2018-10-06T09:18:16Z</time>
      </trkpt>
      <trkpt lat="45.96818" lon="4.87093">
        <ele>318</ele>
        <time>2018-10-06T09:18:17Z</time>
      </trkpt>
      <trkpt lat="45.96821" lon="4.87084">
        <ele>318</ele>
        <time>2018-10-06T09:18:18Z</time>
      </trkpt>
      <trkpt lat="45.96822" lon="4.87078">
        <ele>319</ele>
        <time>2018-10-06T09:18:19Z</time>
      </trkpt>
      <trkpt lat="45.96824" lon="4.87068">
        <ele>312</ele>
        <time>2018-10-06T09:18:20Z</time>
      </trkpt>
      <trkpt lat="45.96826" lon="4.8706">
        <ele>316</ele>
        <time>2018-10-06T09:18:21Z</time>
      </trkpt>
      <trkpt lat="45.96828" lon="4.87055">
        <ele>311</ele>
        <time>2018-10-06T09:18:22Z</time>
      </trkpt>
      <trkpt lat="45.96828" lon="4.87045">
        <ele>319</ele>
        <time>2018-10-06T09:18:24Z</time>
      </trkpt>
      <trkpt lat="45.96829" lon="4.87042">
        <ele>323</ele>
        <time>2018-10-06T09:18:25Z</time>
      </trkpt>
      <trkpt lat="45.96832" lon="4.87033">
        <ele>327</ele>
        <time>2018-10-06T09:18:27Z</time>
      </trkpt>
      <trkpt lat="45.96833" lon="4.87026">
        <ele>329</ele>
        <time>2018-10-06T09:18:28Z</time>
      </trkpt>
      <trkpt lat="45.96835" lon="4.8702">
        <ele>330</ele>
        <time>2018-10-06T09:18:29Z</time>
      </trkpt>
      <trkpt lat="45.96837" lon="4.87013">
        <ele>330</ele>
        <time>2018-10-06T09:18:30Z</time>
      </trkpt>
      <trkpt lat="45.96839" lon="4.87007">
        <ele>313</ele>
        <time>2018-10-06T09:18:31Z</time>
      </trkpt>
      <trkpt lat="45.96844" lon="4.8699">
        <ele>316</ele>
        <time>2018-10-06T09:18:32Z</time>
      </trkpt>
      <trkpt lat="45.96847" lon="4.8698">
        <ele>322</ele>
        <time>2018-10-06T09:18:34Z</time>
      </trkpt>
      <trkpt lat="45.96848" lon="4.86979">
        <ele>325</ele>
        <time>2018-10-06T09:18:35Z</time>
      </trkpt>
      <trkpt lat="45.96853" lon="4.8697">
        <ele>333</ele>
        <time>2018-10-06T09:18:39Z</time>
      </trkpt>
      <trkpt lat="45.96856" lon="4.86963">
        <ele>334</ele>
        <time>2018-10-06T09:18:40Z</time>
      </trkpt>
      <trkpt lat="45.96859" lon="4.86949">
        <ele>332</ele>
        <time>2018-10-06T09:18:41Z</time>
      </trkpt>
      <trkpt lat="45.96862" lon="4.86943">
        <ele>333</ele>
        <time>2018-10-06T09:18:42Z</time>
      </trkpt>
      <trkpt lat="45.96861" lon="4.86934">
        <ele>331</ele>
        <time>2018-10-06T09:18:43Z</time>
      </trkpt>
      <trkpt lat="45.96864" lon="4.86928">
        <ele>333</ele>
        <time>2018-10-06T09:18:45Z</time>
      </trkpt>
      <trkpt lat="45.96866" lon="4.86922">
        <ele>333</ele>
        <time>2018-10-06T09:18:46Z</time>
      </trkpt>
      <trkpt lat="45.96868" lon="4.86914">
        <ele>308</ele>
        <time>2018-10-06T09:18:48Z</time>
      </trkpt>
      <trkpt lat="45.9687" lon="4.8691">
        <ele>313</ele>
        <time>2018-10-06T09:18:49Z</time>
      </trkpt>
      <trkpt lat="45.96872" lon="4.86904">
        <ele>306</ele>
        <time>2018-10-06T09:18:50Z</time>
      </trkpt>
      <trkpt lat="45.96874" lon="4.86892">
        <ele>312</ele>
        <time>2018-10-06T09:18:51Z</time>
      </trkpt>
      <trkpt lat="45.96877" lon="4.86881">
        <ele>317</ele>
        <time>2018-10-06T09:18:53Z</time>
      </trkpt>
      <trkpt lat="45.96878" lon="4.86875">
        <ele>322</ele>
        <time>2018-10-06T09:18:54Z</time>
      </trkpt>
      <trkpt lat="45.96881" lon="4.8687">
        <ele>326</ele>
        <time>2018-10-06T09:18:56Z</time>
      </trkpt>
      <trkpt lat="45.96884" lon="4.86861">
        <ele>327</ele>
        <time>2018-10-06T09:18:57Z</time>
      </trkpt>
      <trkpt lat="45.96885" lon="4.86854">
        <ele>327</ele>
        <time>2018-10-06T09:18:58Z</time>
      </trkpt>
      <trkpt lat="45.96889" lon="4.86849">
        <ele>329</ele>
        <time>2018-10-06T09:18:59Z</time>
      </trkpt>
      <trkpt lat="45.96892" lon="4.86839">
        <ele>330</ele>
        <time>2018-10-06T09:19:01Z</time>
      </trkpt>
      <trkpt lat="45.96894" lon="4.86834">
        <ele>332</ele>
        <time>2018-10-06T09:19:02Z</time>
      </trkpt>
      <trkpt lat="45.96897" lon="4.86823">
        <ele>332</ele>
        <time>2018-10-06T09:19:04Z</time>
      </trkpt>
      <trkpt lat="45.96898" lon="4.86821">
        <ele>334</ele>
        <time>2018-10-06T09:19:05Z</time>
      </trkpt>
      <trkpt lat="45.96901" lon="4.86812">
        <ele>337</ele>
        <time>2018-10-06T09:19:08Z</time>
      </trkpt>
      <trkpt lat="45.96903" lon="4.86808">
        <ele>336</ele>
        <time>2018-10-06T09:19:09Z</time>
      </trkpt>
      <trkpt lat="45.96907" lon="4.86799">
        <ele>335</ele>
        <time>2018-10-06T09:19:12Z</time>
      </trkpt>
      <trkpt lat="45.9691" lon="4.86796">
        <ele>334</ele>
        <time>2018-10-06T09:19:13Z</time>
      </trkpt>
      <trkpt lat="45.96912" lon="4.86794">
        <ele>334</ele>
        <time>2018-10-06T09:19:14Z</time>
      </trkpt>
      <trkpt lat="45.96921" lon="4.86792">
        <ele>336</ele>
        <time>2018-10-06T09:19:15Z</time>
      </trkpt>
      <trkpt lat="45.96924" lon="4.86808">
        <ele>337</ele>
        <time>2018-10-06T09:19:16Z</time>
      </trkpt>
      <trkpt lat="45.96928" lon="4.86813">
        <ele>337</ele>
        <time>2018-10-06T09:19:17Z</time>
      </trkpt>
      <trkpt lat="45.96933" lon="4.86816">
        <ele>338</ele>
        <time>2018-10-06T09:19:18Z</time>
      </trkpt>
      <trkpt lat="45.96936" lon="4.86819">
        <ele>337</ele>
        <time>2018-10-06T09:19:19Z</time>
      </trkpt>
      <trkpt lat="45.96944" lon="4.86821">
        <ele>336</ele>
        <time>2018-10-06T09:19:20Z</time>
      </trkpt>
      <trkpt lat="45.96949" lon="4.86824">
        <ele>336</ele>
        <time>2018-10-06T09:19:21Z</time>
      </trkpt>
      <trkpt lat="45.96954" lon="4.86828">
        <ele>310</ele>
        <time>2018-10-06T09:19:22Z</time>
      </trkpt>
      <trkpt lat="45.9696" lon="4.86831">
        <ele>315</ele>
        <time>2018-10-06T09:19:23Z</time>
      </trkpt>
      <trkpt lat="45.96967" lon="4.86831">
        <ele>320</ele>
        <time>2018-10-06T09:19:24Z</time>
      </trkpt>
      <trkpt lat="45.96973" lon="4.86832">
        <ele>310</ele>
        <time>2018-10-06T09:19:25Z</time>
      </trkpt>
      <trkpt lat="45.96978" lon="4.86834">
        <ele>310</ele>
        <time>2018-10-06T09:19:26Z</time>
      </trkpt>
      <trkpt lat="45.96984" lon="4.86837">
        <ele>316</ele>
        <time>2018-10-06T09:19:27Z</time>
      </trkpt>
      <trkpt lat="45.96991" lon="4.86838">
        <ele>320</ele>
        <time>2018-10-06T09:19:28Z</time>
      </trkpt>
      <trkpt lat="45.96997" lon="4.8684">
        <ele>324</ele>
        <time>2018-10-06T09:19:29Z</time>
      </trkpt>
      <trkpt lat="45.97003" lon="4.86841">
        <ele>325</ele>
        <time>2018-10-06T09:19:30Z</time>
      </trkpt>
      <trkpt lat="45.97009" lon="4.86842">
        <ele>326</ele>
        <time>2018-10-06T09:19:31Z</time>
      </trkpt>
      <trkpt lat="45.97015" lon="4.86841">
        <ele>327</ele>
        <time>2018-10-06T09:19:32Z</time>
      </trkpt>
      <trkpt lat="45.97021" lon="4.86843">
        <ele>327</ele>
        <time>2018-10-06T09:19:33Z</time>
      </trkpt>
      <trkpt lat="45.97026" lon="4.86842">
        <ele>328</ele>
        <time>2018-10-06T09:19:34Z</time>
      </trkpt>
      <trkpt lat="45.97033" lon="4.86841">
        <ele>328</ele>
        <time>2018-10-06T09:19:35Z</time>
      </trkpt>
      <trkpt lat="45.97039" lon="4.86841">
        <ele>328</ele>
        <time>2018-10-06T09:19:36Z</time>
      </trkpt>
      <trkpt lat="45.97045" lon="4.8684">
        <ele>328</ele>
        <time>2018-10-06T09:19:37Z</time>
      </trkpt>
      <trkpt lat="45.97051" lon="4.86839">
        <ele>328</ele>
        <time>2018-10-06T09:19:38Z</time>
      </trkpt>
      <trkpt lat="45.97056" lon="4.86838">
        <ele>308</ele>
        <time>2018-10-06T09:19:39Z</time>
      </trkpt>
      <trkpt lat="45.97062" lon="4.86838">
        <ele>312</ele>
        <time>2018-10-06T09:19:40Z</time>
      </trkpt>
      <trkpt lat="45.97067" lon="4.86836">
        <ele>317</ele>
        <time>2018-10-06T09:19:41Z</time>
      </trkpt>
      <trkpt lat="45.97073" lon="4.86834">
        <ele>317</ele>
        <time>2018-10-06T09:19:42Z</time>
      </trkpt>
      <trkpt lat="45.97079" lon="4.86832">
        <ele>321</ele>
        <time>2018-10-06T09:19:43Z</time>
      </trkpt>
      <trkpt lat="45.97085" lon="4.86831">
        <ele>323</ele>
        <time>2018-10-06T09:19:44Z</time>
      </trkpt>
      <trkpt lat="45.9709" lon="4.86831">
        <ele>324</ele>
        <time>2018-10-06T09:19:45Z</time>
      </trkpt>
      <trkpt lat="45.97095" lon="4.8683">
        <ele>324</ele>
        <time>2018-10-06T09:19:46Z</time>
      </trkpt>
      <trkpt lat="45.971" lon="4.8683">
        <ele>325</ele>
        <time>2018-10-06T09:19:47Z</time>
      </trkpt>
      <trkpt lat="45.97105" lon="4.86829">
        <ele>325</ele>
        <time>2018-10-06T09:19:48Z</time>
      </trkpt>
      <trkpt lat="45.97111" lon="4.86828">
        <ele>326</ele>
        <time>2018-10-06T09:19:49Z</time>
      </trkpt>
      <trkpt lat="45.97117" lon="4.86826">
        <ele>327</ele>
        <time>2018-10-06T09:19:50Z</time>
      </trkpt>
      <trkpt lat="45.97122" lon="4.86823">
        <ele>328</ele>
        <time>2018-10-06T09:19:51Z</time>
      </trkpt>
      <trkpt lat="45.97127" lon="4.86822">
        <ele>328</ele>
        <time>2018-10-06T09:19:52Z</time>
      </trkpt>
      <trkpt lat="45.97131" lon="4.86819">
        <ele>330</ele>
        <time>2018-10-06T09:19:53Z</time>
      </trkpt>
      <trkpt lat="45.97136" lon="4.86818">
        <ele>331</ele>
        <time>2018-10-06T09:19:54Z</time>
      </trkpt>
      <trkpt lat="45.9714" lon="4.86813">
        <ele>331</ele>
        <time>2018-10-06T09:19:55Z</time>
      </trkpt>
      <trkpt lat="45.97144" lon="4.86811">
        <ele>332</ele>
        <time>2018-10-06T09:19:56Z</time>
      </trkpt>
      <trkpt lat="45.9715" lon="4.86806">
        <ele>332</ele>
        <time>2018-10-06T09:19:57Z</time>
      </trkpt>
      <trkpt lat="45.97155" lon="4.86803">
        <ele>332</ele>
        <time>2018-10-06T09:19:58Z</time>
      </trkpt>
      <trkpt lat="45.97161" lon="4.86801">
        <ele>333</ele>
        <time>2018-10-06T09:19:59Z</time>
      </trkpt>
      <trkpt lat="45.97166" lon="4.86797">
        <ele>334</ele>
        <time>2018-10-06T09:20:00Z</time>
      </trkpt>
      <trkpt lat="45.97173" lon="4.86794">
        <ele>311</ele>
        <time>2018-10-06T09:20:01Z</time>
      </trkpt>
      <trkpt lat="45.97179" lon="4.86792">
        <ele>318</ele>
        <time>2018-10-06T09:20:02Z</time>
      </trkpt>
      <trkpt lat="45.97184" lon="4.86789">
        <ele>323</ele>
        <time>2018-10-06T09:20:03Z</time>
      </trkpt>
      <trkpt lat="45.97188" lon="4.86786">
        <ele>327</ele>
        <time>2018-10-06T09:20:04Z</time>
      </trkpt>
      <trkpt lat="45.97194" lon="4.86784">
        <ele>329</ele>
        <time>2018-10-06T09:20:05Z</time>
      </trkpt>
      <trkpt lat="45.97199" lon="4.86782">
        <ele>330</ele>
        <time>2018-10-06T09:20:06Z</time>
      </trkpt>
      <trkpt lat="45.97205" lon="4.8678">
        <ele>331</ele>
        <time>2018-10-06T09:20:07Z</time>
      </trkpt>
      <trkpt lat="45.97211" lon="4.86779">
        <ele>331</ele>
        <time>2018-10-06T09:20:08Z</time>
      </trkpt>
      <trkpt lat="45.97216" lon="4.86778">
        <ele>331</ele>
        <time>2018-10-06T09:20:09Z</time>
      </trkpt>
      <trkpt lat="45.97221" lon="4.86778">
        <ele>332</ele>
        <time>2018-10-06T09:20:10Z</time>
      </trkpt>
      <trkpt lat="45.97227" lon="4.86779">
        <ele>332</ele>
        <time>2018-10-06T09:20:11Z</time>
      </trkpt>
      <trkpt lat="45.97231" lon="4.86783">
        <ele>333</ele>
        <time>2018-10-06T09:20:12Z</time>
      </trkpt>
      <trkpt lat="45.97237" lon="4.86785">
        <ele>334</ele>
        <time>2018-10-06T09:20:13Z</time>
      </trkpt>
      <trkpt lat="45.97242" lon="4.86788">
        <ele>334</ele>
        <time>2018-10-06T09:20:14Z</time>
      </trkpt>
      <trkpt lat="45.97244" lon="4.86794">
        <ele>335</ele>
        <time>2018-10-06T09:20:15Z</time>
      </trkpt>
      <trkpt lat="45.9725" lon="4.86799">
        <ele>336</ele>
        <time>2018-10-06T09:20:16Z</time>
      </trkpt>
      <trkpt lat="45.97254" lon="4.86805">
        <ele>336</ele>
        <time>2018-10-06T09:20:17Z</time>
      </trkpt>
      <trkpt lat="45.97257" lon="4.86809">
        <ele>337</ele>
        <time>2018-10-06T09:20:18Z</time>
      </trkpt>
      <trkpt lat="45.9726" lon="4.86816">
        <ele>335</ele>
        <time>2018-10-06T09:20:19Z</time>
      </trkpt>
      <trkpt lat="45.97263" lon="4.86823">
        <ele>336</ele>
        <time>2018-10-06T09:20:20Z</time>
      </trkpt>
      <trkpt lat="45.97267" lon="4.8683">
        <ele>335</ele>
        <time>2018-10-06T09:20:21Z</time>
      </trkpt>
      <trkpt lat="45.97271" lon="4.86836">
        <ele>335</ele>
        <time>2018-10-06T09:20:22Z</time>
      </trkpt>
      <trkpt lat="45.97275" lon="4.86845">
        <ele>335</ele>
        <time>2018-10-06T09:20:23Z</time>
      </trkpt>
      <trkpt lat="45.97278" lon="4.86852">
        <ele>334</ele>
        <time>2018-10-06T09:20:24Z</time>
      </trkpt>
      <trkpt lat="45.97282" lon="4.86859">
        <ele>334</ele>
        <time>2018-10-06T09:20:25Z</time>
      </trkpt>
      <trkpt lat="45.97285" lon="4.86865">
        <ele>334</ele>
        <time>2018-10-06T09:20:26Z</time>
      </trkpt>
      <trkpt lat="45.97289" lon="4.86871">
        <ele>333</ele>
        <time>2018-10-06T09:20:27Z</time>
      </trkpt>
      <trkpt lat="45.97293" lon="4.86878">
        <ele>333</ele>
        <time>2018-10-06T09:20:28Z</time>
      </trkpt>
      <trkpt lat="45.97297" lon="4.86885">
        <ele>332</ele>
        <time>2018-10-06T09:20:29Z</time>
      </trkpt>
      <trkpt lat="45.97301" lon="4.8689">
        <ele>332</ele>
        <time>2018-10-06T09:20:30Z</time>
      </trkpt>
      <trkpt lat="45.97305" lon="4.86896">
        <ele>333</ele>
        <time>2018-10-06T09:20:31Z</time>
      </trkpt>
      <trkpt lat="45.97309" lon="4.86902">
        <ele>332</ele>
        <time>2018-10-06T09:20:32Z</time>
      </trkpt>
      <trkpt lat="45.97313" lon="4.86907">
        <ele>332</ele>
        <time>2018-10-06T09:20:33Z</time>
      </trkpt>
      <trkpt lat="45.97317" lon="4.86913">
        <ele>331</ele>
        <time>2018-10-06T09:20:34Z</time>
      </trkpt>
      <trkpt lat="45.9732" lon="4.86918">
        <ele>330</ele>
        <time>2018-10-06T09:20:35Z</time>
      </trkpt>
      <trkpt lat="45.97324" lon="4.86922">
        <ele>329</ele>
        <time>2018-10-06T09:20:36Z</time>
      </trkpt>
      <trkpt lat="45.97327" lon="4.86927">
        <ele>330</ele>
        <time>2018-10-06T09:20:37Z</time>
      </trkpt>
      <trkpt lat="45.97333" lon="4.86934">
        <ele>331</ele>
        <time>2018-10-06T09:20:38Z</time>
      </trkpt>
      <trkpt lat="45.97336" lon="4.86938">
        <ele>331</ele>
        <time>2018-10-06T09:20:39Z</time>
      </trkpt>
      <trkpt lat="45.97341" lon="4.86945">
        <ele>331</ele>
        <time>2018-10-06T09:20:40Z</time>
      </trkpt>
      <trkpt lat="45.97345" lon="4.86952">
        <ele>332</ele>
        <time>2018-10-06T09:20:41Z</time>
      </trkpt>
      <trkpt lat="45.9735" lon="4.86957">
        <ele>308</ele>
        <time>2018-10-06T09:20:42Z</time>
      </trkpt>
      <trkpt lat="45.97355" lon="4.86963">
        <ele>311</ele>
        <time>2018-10-06T09:20:43Z</time>
      </trkpt>
      <trkpt lat="45.97359" lon="4.86967">
        <ele>316</ele>
        <time>2018-10-06T09:20:44Z</time>
      </trkpt>
      <trkpt lat="45.97363" lon="4.86973">
        <ele>319</ele>
        <time>2018-10-06T09:20:45Z</time>
      </trkpt>
      <trkpt lat="45.97369" lon="4.86977">
        <ele>321</ele>
        <time>2018-10-06T09:20:46Z</time>
      </trkpt>
      <trkpt lat="45.97373" lon="4.86983">
        <ele>323</ele>
        <time>2018-10-06T09:20:47Z</time>
      </trkpt>
      <trkpt lat="45.97377" lon="4.86988">
        <ele>324</ele>
        <time>2018-10-06T09:20:48Z</time>
      </trkpt>
      <trkpt lat="45.97382" lon="4.86992">
        <ele>325</ele>
        <time>2018-10-06T09:20:49Z</time>
      </trkpt>
      <trkpt lat="45.97386" lon="4.86997">
        <ele>328</ele>
        <time>2018-10-06T09:20:50Z</time>
      </trkpt>
      <trkpt lat="45.97392" lon="4.87001">
        <ele>328</ele>
        <time>2018-10-06T09:20:51Z</time>
      </trkpt>
      <trkpt lat="45.97396" lon="4.87005">
        <ele>327</ele>
        <time>2018-10-06T09:20:52Z</time>
      </trkpt>
      <trkpt lat="45.974" lon="4.8701">
        <ele>328</ele>
        <time>2018-10-06T09:20:53Z</time>
      </trkpt>
      <trkpt lat="45.97404" lon="4.87015">
        <ele>328</ele>
        <time>2018-10-06T09:20:54Z</time>
      </trkpt>
      <trkpt lat="45.97408" lon="4.87019">
        <ele>328</ele>
        <time>2018-10-06T09:20:55Z</time>
      </trkpt>
      <trkpt lat="45.97412" lon="4.87024">
        <ele>329</ele>
        <time>2018-10-06T09:20:56Z</time>
      </trkpt>
      <trkpt lat="45.97417" lon="4.87029">
        <ele>328</ele>
        <time>2018-10-06T09:20:57Z</time>
      </trkpt>
      <trkpt lat="45.97422" lon="4.87035">
        <ele>330</ele>
        <time>2018-10-06T09:20:58Z</time>
      </trkpt>
      <trkpt lat="45.97427" lon="4.87039">
        <ele>331</ele>
        <time>2018-10-06T09:20:59Z</time>
      </trkpt>
      <trkpt lat="45.97432" lon="4.87044">
        <ele>330</ele>
        <time>2018-10-06T09:21:00Z</time>
      </trkpt>
      <trkpt lat="45.97439" lon="4.87047">
        <ele>328</ele>
        <time>2018-10-06T09:21:01Z</time>
      </trkpt>
      <trkpt lat="45.97444" lon="4.87052">
        <ele>328</ele>
        <time>2018-10-06T09:21:02Z</time>
      </trkpt>
      <trkpt lat="45.97448" lon="4.87057">
        <ele>328</ele>
        <time>2018-10-06T09:21:03Z</time>
      </trkpt>
      <trkpt lat="45.97453" lon="4.87061">
        <ele>328</ele>
        <time>2018-10-06T09:21:04Z</time>
      </trkpt>
      <trkpt lat="45.97457" lon="4.87065">
        <ele>329</ele>
        <time>2018-10-06T09:21:05Z</time>
      </trkpt>
      <trkpt lat="45.97461" lon="4.8707">
        <ele>328</ele>
        <time>2018-10-06T09:21:06Z</time>
      </trkpt>
      <trkpt lat="45.97465" lon="4.87074">
        <ele>328</ele>
        <time>2018-10-06T09:21:07Z</time>
      </trkpt>
      <trkpt lat="45.97468" lon="4.87078">
        <ele>327</ele>
        <time>2018-10-06T09:21:08Z</time>
      </trkpt>
      <trkpt lat="45.97473" lon="4.87081">
        <ele>327</ele>
        <time>2018-10-06T09:21:09Z</time>
      </trkpt>
      <trkpt lat="45.97478" lon="4.87085">
        <ele>326</ele>
        <time>2018-10-06T09:21:10Z</time>
      </trkpt>
      <trkpt lat="45.97482" lon="4.87091">
        <ele>328</ele>
        <time>2018-10-06T09:21:11Z</time>
      </trkpt>
      <trkpt lat="45.97487" lon="4.87096">
        <ele>327</ele>
        <time>2018-10-06T09:21:12Z</time>
      </trkpt>
      <trkpt lat="45.97491" lon="4.87102">
        <ele>327</ele>
        <time>2018-10-06T09:21:13Z</time>
      </trkpt>
      <trkpt lat="45.97496" lon="4.87106">
        <ele>327</ele>
        <time>2018-10-06T09:21:14Z</time>
      </trkpt>
      <trkpt lat="45.97501" lon="4.87111">
        <ele>327</ele>
        <time>2018-10-06T09:21:15Z</time>
      </trkpt>
      <trkpt lat="45.97505" lon="4.87115">
        <ele>326</ele>
        <time>2018-10-06T09:21:16Z</time>
      </trkpt>
      <trkpt lat="45.97509" lon="4.87122">
        <ele>325</ele>
        <time>2018-10-06T09:21:17Z</time>
      </trkpt>
      <trkpt lat="45.97514" lon="4.87126">
        <ele>323</ele>
        <time>2018-10-06T09:21:18Z</time>
      </trkpt>
      <trkpt lat="45.9752" lon="4.87131">
        <ele>322</ele>
        <time>2018-10-06T09:21:19Z</time>
      </trkpt>
      <trkpt lat="45.97525" lon="4.87136">
        <ele>322</ele>
        <time>2018-10-06T09:21:20Z</time>
      </trkpt>
      <trkpt lat="45.97531" lon="4.87141">
        <ele>323</ele>
        <time>2018-10-06T09:21:21Z</time>
      </trkpt>
      <trkpt lat="45.97536" lon="4.87145">
        <ele>322</ele>
        <time>2018-10-06T09:21:22Z</time>
      </trkpt>
      <trkpt lat="45.9754" lon="4.8715">
        <ele>324</ele>
        <time>2018-10-06T09:21:23Z</time>
      </trkpt>
      <trkpt lat="45.97545" lon="4.87155">
        <ele>324</ele>
        <time>2018-10-06T09:21:24Z</time>
      </trkpt>
      <trkpt lat="45.9755" lon="4.8716">
        <ele>324</ele>
        <time>2018-10-06T09:21:25Z</time>
      </trkpt>
      <trkpt lat="45.97557" lon="4.87164">
        <ele>323</ele>
        <time>2018-10-06T09:21:26Z</time>
      </trkpt>
      <trkpt lat="45.97563" lon="4.87172">
        <ele>325</ele>
        <time>2018-10-06T09:21:28Z</time>
      </trkpt>
      <trkpt lat="45.97569" lon="4.87175">
        <ele>323</ele>
        <time>2018-10-06T09:21:29Z</time>
      </trkpt>
      <trkpt lat="45.97574" lon="4.8718">
        <ele>323</ele>
        <time>2018-10-06T09:21:30Z</time>
      </trkpt>
      <trkpt lat="45.97578" lon="4.87184">
        <ele>323</ele>
        <time>2018-10-06T09:21:31Z</time>
      </trkpt>
      <trkpt lat="45.97582" lon="4.87188">
        <ele>323</ele>
        <time>2018-10-06T09:21:32Z</time>
      </trkpt>
      <trkpt lat="45.97586" lon="4.87191">
        <ele>323</ele>
        <time>2018-10-06T09:21:33Z</time>
      </trkpt>
      <trkpt lat="45.97591" lon="4.87196">
        <ele>323</ele>
        <time>2018-10-06T09:21:34Z</time>
      </trkpt>
      <trkpt lat="45.97596" lon="4.872">
        <ele>323</ele>
        <time>2018-10-06T09:21:35Z</time>
      </trkpt>
      <trkpt lat="45.97601" lon="4.87201">
        <ele>322</ele>
        <time>2018-10-06T09:21:36Z</time>
      </trkpt>
      <trkpt lat="45.97607" lon="4.87205">
        <ele>322</ele>
        <time>2018-10-06T09:21:37Z</time>
      </trkpt>
      <trkpt lat="45.97612" lon="4.8721">
        <ele>322</ele>
        <time>2018-10-06T09:21:38Z</time>
      </trkpt>
      <trkpt lat="45.97619" lon="4.87214">
        <ele>322</ele>
        <time>2018-10-06T09:21:39Z</time>
      </trkpt>
      <trkpt lat="45.97624" lon="4.87219">
        <ele>323</ele>
        <time>2018-10-06T09:21:40Z</time>
      </trkpt>
      <trkpt lat="45.9763" lon="4.87225">
        <ele>323</ele>
        <time>2018-10-06T09:21:41Z</time>
      </trkpt>
      <trkpt lat="45.97634" lon="4.8723">
        <ele>323</ele>
        <time>2018-10-06T09:21:42Z</time>
      </trkpt>
      <trkpt lat="45.97639" lon="4.87235">
        <ele>323</ele>
        <time>2018-10-06T09:21:43Z</time>
      </trkpt>
      <trkpt lat="45.97644" lon="4.8724">
        <ele>323</ele>
        <time>2018-10-06T09:21:44Z</time>
      </trkpt>
      <trkpt lat="45.9765" lon="4.87246">
        <ele>323</ele>
        <time>2018-10-06T09:21:45Z</time>
      </trkpt>
      <trkpt lat="45.97656" lon="4.8725">
        <ele>322</ele>
        <time>2018-10-06T09:21:46Z</time>
      </trkpt>
      <trkpt lat="45.97661" lon="4.87254">
        <ele>323</ele>
        <time>2018-10-06T09:21:47Z</time>
      </trkpt>
      <trkpt lat="45.97665" lon="4.8726">
        <ele>323</ele>
        <time>2018-10-06T09:21:48Z</time>
      </trkpt>
      <trkpt lat="45.97668" lon="4.87266">
        <ele>325</ele>
        <time>2018-10-06T09:21:49Z</time>
      </trkpt>
      <trkpt lat="45.97672" lon="4.87272">
        <ele>326</ele>
        <time>2018-10-06T09:21:50Z</time>
      </trkpt>
      <trkpt lat="45.97677" lon="4.87278">
        <ele>326</ele>
        <time>2018-10-06T09:21:51Z</time>
      </trkpt>
      <trkpt lat="45.97681" lon="4.87283">
        <ele>326</ele>
        <time>2018-10-06T09:21:52Z</time>
      </trkpt>
      <trkpt lat="45.97685" lon="4.87287">
        <ele>326</ele>
        <time>2018-10-06T09:21:53Z</time>
      </trkpt>
      <trkpt lat="45.97689" lon="4.87292">
        <ele>325</ele>
        <time>2018-10-06T09:21:54Z</time>
      </trkpt>
      <trkpt lat="45.97693" lon="4.87299">
        <ele>325</ele>
        <time>2018-10-06T09:21:55Z</time>
      </trkpt>
      <trkpt lat="45.97696" lon="4.87304">
        <ele>325</ele>
        <time>2018-10-06T09:21:56Z</time>
      </trkpt>
      <trkpt lat="45.97702" lon="4.87306">
        <ele>325</ele>
        <time>2018-10-06T09:21:57Z</time>
      </trkpt>
      <trkpt lat="45.97706" lon="4.8731">
        <ele>325</ele>
        <time>2018-10-06T09:21:58Z</time>
      </trkpt>
      <trkpt lat="45.97711" lon="4.87316">
        <ele>323</ele>
        <time>2018-10-06T09:21:59Z</time>
      </trkpt>
      <trkpt lat="45.97716" lon="4.87322">
        <ele>305</ele>
        <time>2018-10-06T09:22:00Z</time>
      </trkpt>
      <trkpt lat="45.9772" lon="4.87329">
        <ele>308</ele>
        <time>2018-10-06T09:22:01Z</time>
      </trkpt>
      <trkpt lat="45.97724" lon="4.87336">
        <ele>313</ele>
        <time>2018-10-06T09:22:02Z</time>
      </trkpt>
      <trkpt lat="45.9773" lon="4.87339">
        <ele>314</ele>
        <time>2018-10-06T09:22:03Z</time>
      </trkpt>
      <trkpt lat="45.97735" lon="4.87344">
        <ele>316</ele>
        <time>2018-10-06T09:22:04Z</time>
      </trkpt>
      <trkpt lat="45.97739" lon="4.8735">
        <ele>317</ele>
        <time>2018-10-06T09:22:05Z</time>
      </trkpt>
      <trkpt lat="45.97744" lon="4.87361">
        <ele>321</ele>
        <time>2018-10-06T09:22:07Z</time>
      </trkpt>
      <trkpt lat="45.97748" lon="4.87365">
        <ele>323</ele>
        <time>2018-10-06T09:22:08Z</time>
      </trkpt>
      <trkpt lat="45.97752" lon="4.87371">
        <ele>322</ele>
        <time>2018-10-06T09:22:09Z</time>
      </trkpt>
      <trkpt lat="45.97755" lon="4.87377">
        <ele>322</ele>
        <time>2018-10-06T09:22:10Z</time>
      </trkpt>
      <trkpt lat="45.97759" lon="4.87384">
        <ele>322</ele>
        <time>2018-10-06T09:22:11Z</time>
      </trkpt>
      <trkpt lat="45.97765" lon="4.87389">
        <ele>322</ele>
        <time>2018-10-06T09:22:12Z</time>
      </trkpt>
      <trkpt lat="45.9777" lon="4.87394">
        <ele>325</ele>
        <time>2018-10-06T09:22:13Z</time>
      </trkpt>
      <trkpt lat="45.97775" lon="4.87398">
        <ele>326</ele>
        <time>2018-10-06T09:22:14Z</time>
      </trkpt>
      <trkpt lat="45.97781" lon="4.87403">
        <ele>326</ele>
        <time>2018-10-06T09:22:15Z</time>
      </trkpt>
      <trkpt lat="45.97785" lon="4.8741">
        <ele>327</ele>
        <time>2018-10-06T09:22:16Z</time>
      </trkpt>
      <trkpt lat="45.97789" lon="4.87414">
        <ele>325</ele>
        <time>2018-10-06T09:22:17Z</time>
      </trkpt>
      <trkpt lat="45.97793" lon="4.87422">
        <ele>325</ele>
        <time>2018-10-06T09:22:18Z</time>
      </trkpt>
      <trkpt lat="45.97798" lon="4.87428">
        <ele>325</ele>
        <time>2018-10-06T09:22:19Z</time>
      </trkpt>
      <trkpt lat="45.97802" lon="4.87431">
        <ele>325</ele>
        <time>2018-10-06T09:22:20Z</time>
      </trkpt>
      <trkpt lat="45.97808" lon="4.87436">
        <ele>324</ele>
        <time>2018-10-06T09:22:21Z</time>
      </trkpt>
      <trkpt lat="45.97813" lon="4.87442">
        <ele>324</ele>
        <time>2018-10-06T09:22:22Z</time>
      </trkpt>
      <trkpt lat="45.97818" lon="4.87445">
        <ele>323</ele>
        <time>2018-10-06T09:22:23Z</time>
      </trkpt>
      <trkpt lat="45.97824" lon="4.8745">
        <ele>322</ele>
        <time>2018-10-06T09:22:24Z</time>
      </trkpt>
      <trkpt lat="45.9783" lon="4.87455">
        <ele>321</ele>
        <time>2018-10-06T09:22:25Z</time>
      </trkpt>
      <trkpt lat="45.97835" lon="4.87462">
        <ele>319</ele>
        <time>2018-10-06T09:22:26Z</time>
      </trkpt>
      <trkpt lat="45.97841" lon="4.87467">
        <ele>319</ele>
        <time>2018-10-06T09:22:27Z</time>
      </trkpt>
      <trkpt lat="45.97846" lon="4.87473">
        <ele>325</ele>
        <time>2018-10-06T09:22:28Z</time>
      </trkpt>
      <trkpt lat="45.97853" lon="4.8748">
        <ele>325</ele>
        <time>2018-10-06T09:22:29Z</time>
      </trkpt>
      <trkpt lat="45.97858" lon="4.87486">
        <ele>325</ele>
        <time>2018-10-06T09:22:30Z</time>
      </trkpt>
      <trkpt lat="45.97864" lon="4.87491">
        <ele>325</ele>
        <time>2018-10-06T09:22:31Z</time>
      </trkpt>
      <trkpt lat="45.9787" lon="4.87497">
        <ele>325</ele>
        <time>2018-10-06T09:22:32Z</time>
      </trkpt>
      <trkpt lat="45.97877" lon="4.87502">
        <ele>325</ele>
        <time>2018-10-06T09:22:33Z</time>
      </trkpt>
      <trkpt lat="45.97883" lon="4.87506">
        <ele>324</ele>
        <time>2018-10-06T09:22:34Z</time>
      </trkpt>
      <trkpt lat="45.97889" lon="4.87512">
        <ele>323</ele>
        <time>2018-10-06T09:22:35Z</time>
      </trkpt>
      <trkpt lat="45.97894" lon="4.87515">
        <ele>322</ele>
        <time>2018-10-06T09:22:36Z</time>
      </trkpt>
      <trkpt lat="45.97901" lon="4.87518">
        <ele>322</ele>
        <time>2018-10-06T09:22:37Z</time>
      </trkpt>
      <trkpt lat="45.97907" lon="4.87522">
        <ele>321</ele>
        <time>2018-10-06T09:22:38Z</time>
      </trkpt>
      <trkpt lat="45.97913" lon="4.87525">
        <ele>322</ele>
        <time>2018-10-06T09:22:39Z</time>
      </trkpt>
      <trkpt lat="45.9792" lon="4.87528">
        <ele>321</ele>
        <time>2018-10-06T09:22:40Z</time>
      </trkpt>
      <trkpt lat="45.97925" lon="4.87529">
        <ele>320</ele>
        <time>2018-10-06T09:22:41Z</time>
      </trkpt>
      <trkpt lat="45.97931" lon="4.87532">
        <ele>320</ele>
        <time>2018-10-06T09:22:42Z</time>
      </trkpt>
      <trkpt lat="45.97937" lon="4.87535">
        <ele>321</ele>
        <time>2018-10-06T09:22:43Z</time>
      </trkpt>
      <trkpt lat="45.97942" lon="4.87536">
        <ele>320</ele>
        <time>2018-10-06T09:22:44Z</time>
      </trkpt>
      <trkpt lat="45.97948" lon="4.87537">
        <ele>321</ele>
        <time>2018-10-06T09:22:45Z</time>
      </trkpt>
      <trkpt lat="45.97954" lon="4.8754">
        <ele>322</ele>
        <time>2018-10-06T09:22:46Z</time>
      </trkpt>
      <trkpt lat="45.97959" lon="4.87544">
        <ele>321</ele>
        <time>2018-10-06T09:22:47Z</time>
      </trkpt>
      <trkpt lat="45.97964" lon="4.87548">
        <ele>321</ele>
        <time>2018-10-06T09:22:48Z</time>
      </trkpt>
      <trkpt lat="45.97969" lon="4.87552">
        <ele>321</ele>
        <time>2018-10-06T09:22:49Z</time>
      </trkpt>
      <trkpt lat="45.97974" lon="4.87559">
        <ele>322</ele>
        <time>2018-10-06T09:22:50Z</time>
      </trkpt>
      <trkpt lat="45.97979" lon="4.87563">
        <ele>321</ele>
        <time>2018-10-06T09:22:51Z</time>
      </trkpt>
      <trkpt lat="45.97983" lon="4.87569">
        <ele>322</ele>
        <time>2018-10-06T09:22:52Z</time>
      </trkpt>
      <trkpt lat="45.97987" lon="4.87574">
        <ele>322</ele>
        <time>2018-10-06T09:22:53Z</time>
      </trkpt>
      <trkpt lat="45.97992" lon="4.8758">
        <ele>322</ele>
        <time>2018-10-06T09:22:54Z</time>
      </trkpt>
      <trkpt lat="45.97996" lon="4.87585">
        <ele>320</ele>
        <time>2018-10-06T09:22:55Z</time>
      </trkpt>
      <trkpt lat="45.97999" lon="4.87593">
        <ele>322</ele>
        <time>2018-10-06T09:22:56Z</time>
      </trkpt>
      <trkpt lat="45.98003" lon="4.87601">
        <ele>322</ele>
        <time>2018-10-06T09:22:57Z</time>
      </trkpt>
      <trkpt lat="45.98008" lon="4.87603">
        <ele>326</ele>
        <time>2018-10-06T09:22:58Z</time>
      </trkpt>
      <trkpt lat="45.98011" lon="4.87611">
        <ele>325</ele>
        <time>2018-10-06T09:22:59Z</time>
      </trkpt>
      <trkpt lat="45.98012" lon="4.87619">
        <ele>324</ele>
        <time>2018-10-06T09:23:00Z</time>
      </trkpt>
      <trkpt lat="45.98014" lon="4.87627">
        <ele>324</ele>
        <time>2018-10-06T09:23:01Z</time>
      </trkpt>
      <trkpt lat="45.98014" lon="4.87635">
        <ele>325</ele>
        <time>2018-10-06T09:23:02Z</time>
      </trkpt>
      <trkpt lat="45.98016" lon="4.87643">
        <ele>324</ele>
        <time>2018-10-06T09:23:03Z</time>
      </trkpt>
      <trkpt lat="45.98018" lon="4.87652">
        <ele>324</ele>
        <time>2018-10-06T09:23:04Z</time>
      </trkpt>
      <trkpt lat="45.9802" lon="4.87659">
        <ele>324</ele>
        <time>2018-10-06T09:23:05Z</time>
      </trkpt>
      <trkpt lat="45.98022" lon="4.87666">
        <ele>324</ele>
        <time>2018-10-06T09:23:06Z</time>
      </trkpt>
      <trkpt lat="45.98026" lon="4.87677">
        <ele>325</ele>
        <time>2018-10-06T09:23:08Z</time>
      </trkpt>
      <trkpt lat="45.98029" lon="4.87684">
        <ele>324</ele>
        <time>2018-10-06T09:23:09Z</time>
      </trkpt>
      <trkpt lat="45.98032" lon="4.87692">
        <ele>323</ele>
        <time>2018-10-06T09:23:10Z</time>
      </trkpt>
      <trkpt lat="45.98034" lon="4.877">
        <ele>322</ele>
        <time>2018-10-06T09:23:11Z</time>
      </trkpt>
      <trkpt lat="45.98036" lon="4.87707">
        <ele>322</ele>
        <time>2018-10-06T09:23:12Z</time>
      </trkpt>
      <trkpt lat="45.98039" lon="4.87715">
        <ele>321</ele>
        <time>2018-10-06T09:23:13Z</time>
      </trkpt>
      <trkpt lat="45.98041" lon="4.87723">
        <ele>325</ele>
        <time>2018-10-06T09:23:14Z</time>
      </trkpt>
      <trkpt lat="45.98043" lon="4.87731">
        <ele>323</ele>
        <time>2018-10-06T09:23:15Z</time>
      </trkpt>
      <trkpt lat="45.98046" lon="4.8774">
        <ele>323</ele>
        <time>2018-10-06T09:23:16Z</time>
      </trkpt>
      <trkpt lat="45.98048" lon="4.87748">
        <ele>324</ele>
        <time>2018-10-06T09:23:17Z</time>
      </trkpt>
      <trkpt lat="45.9805" lon="4.87757">
        <ele>323</ele>
        <time>2018-10-06T09:23:18Z</time>
      </trkpt>
      <trkpt lat="45.98052" lon="4.87765">
        <ele>323</ele>
        <time>2018-10-06T09:23:19Z</time>
      </trkpt>
      <trkpt lat="45.98054" lon="4.87772">
        <ele>323</ele>
        <time>2018-10-06T09:23:20Z</time>
      </trkpt>
      <trkpt lat="45.98056" lon="4.87779">
        <ele>322</ele>
        <time>2018-10-06T09:23:21Z</time>
      </trkpt>
      <trkpt lat="45.98059" lon="4.87787">
        <ele>321</ele>
        <time>2018-10-06T09:23:22Z</time>
      </trkpt>
      <trkpt lat="45.98061" lon="4.87794">
        <ele>321</ele>
        <time>2018-10-06T09:23:23Z</time>
      </trkpt>
      <trkpt lat="45.98063" lon="4.87802">
        <ele>321</ele>
        <time>2018-10-06T09:23:24Z</time>
      </trkpt>
      <trkpt lat="45.98065" lon="4.87809">
        <ele>321</ele>
        <time>2018-10-06T09:23:25Z</time>
      </trkpt>
      <trkpt lat="45.98068" lon="4.87816">
        <ele>321</ele>
        <time>2018-10-06T09:23:26Z</time>
      </trkpt>
      <trkpt lat="45.98073" lon="4.87822">
        <ele>320</ele>
        <time>2018-10-06T09:23:27Z</time>
      </trkpt>
      <trkpt lat="45.98075" lon="4.87829">
        <ele>320</ele>
        <time>2018-10-06T09:23:28Z</time>
      </trkpt>
      <trkpt lat="45.98077" lon="4.87837">
        <ele>320</ele>
        <time>2018-10-06T09:23:29Z</time>
      </trkpt>
      <trkpt lat="45.98079" lon="4.87844">
        <ele>319</ele>
        <time>2018-10-06T09:23:30Z</time>
      </trkpt>
      <trkpt lat="45.98081" lon="4.87851">
        <ele>319</ele>
        <time>2018-10-06T09:23:31Z</time>
      </trkpt>
      <trkpt lat="45.98083" lon="4.87859">
        <ele>319</ele>
        <time>2018-10-06T09:23:32Z</time>
      </trkpt>
      <trkpt lat="45.98086" lon="4.87868">
        <ele>319</ele>
        <time>2018-10-06T09:23:33Z</time>
      </trkpt>
      <trkpt lat="45.98087" lon="4.87876">
        <ele>320</ele>
        <time>2018-10-06T09:23:34Z</time>
      </trkpt>
      <trkpt lat="45.9809" lon="4.87884">
        <ele>320</ele>
        <time>2018-10-06T09:23:35Z</time>
      </trkpt>
      <trkpt lat="45.98091" lon="4.87892">
        <ele>320</ele>
        <time>2018-10-06T09:23:36Z</time>
      </trkpt>
      <trkpt lat="45.98094" lon="4.879">
        <ele>320</ele>
        <time>2018-10-06T09:23:37Z</time>
      </trkpt>
      <trkpt lat="45.98097" lon="4.8791">
        <ele>320</ele>
        <time>2018-10-06T09:23:38Z</time>
      </trkpt>
      <trkpt lat="45.981" lon="4.87917">
        <ele>319</ele>
        <time>2018-10-06T09:23:39Z</time>
      </trkpt>
      <trkpt lat="45.98102" lon="4.87926">
        <ele>319</ele>
        <time>2018-10-06T09:23:40Z</time>
      </trkpt>
      <trkpt lat="45.98105" lon="4.87934">
        <ele>319</ele>
        <time>2018-10-06T09:23:41Z</time>
      </trkpt>
      <trkpt lat="45.98107" lon="4.87943">
        <ele>320</ele>
        <time>2018-10-06T09:23:42Z</time>
      </trkpt>
      <trkpt lat="45.9811" lon="4.87952">
        <ele>319</ele>
        <time>2018-10-06T09:23:43Z</time>
      </trkpt>
      <trkpt lat="45.98112" lon="4.8796">
        <ele>320</ele>
        <time>2018-10-06T09:23:44Z</time>
      </trkpt>
      <trkpt lat="45.98116" lon="4.87969">
        <ele>320</ele>
        <time>2018-10-06T09:23:45Z</time>
      </trkpt>
      <trkpt lat="45.98119" lon="4.87979">
        <ele>319</ele>
        <time>2018-10-06T09:23:46Z</time>
      </trkpt>
      <trkpt lat="45.98122" lon="4.87988">
        <ele>320</ele>
        <time>2018-10-06T09:23:47Z</time>
      </trkpt>
      <trkpt lat="45.98125" lon="4.87995">
        <ele>318</ele>
        <time>2018-10-06T09:23:48Z</time>
      </trkpt>
      <trkpt lat="45.98129" lon="4.88004">
        <ele>317</ele>
        <time>2018-10-06T09:23:49Z</time>
      </trkpt>
      <trkpt lat="45.98132" lon="4.88013">
        <ele>317</ele>
        <time>2018-10-06T09:23:50Z</time>
      </trkpt>
      <trkpt lat="45.98134" lon="4.88022">
        <ele>315</ele>
        <time>2018-10-06T09:23:51Z</time>
      </trkpt>
      <trkpt lat="45.98136" lon="4.88032">
        <ele>315</ele>
        <time>2018-10-06T09:23:52Z</time>
      </trkpt>
      <trkpt lat="45.98139" lon="4.88041">
        <ele>315</ele>
        <time>2018-10-06T09:23:53Z</time>
      </trkpt>
      <trkpt lat="45.98141" lon="4.8805">
        <ele>315</ele>
        <time>2018-10-06T09:23:54Z</time>
      </trkpt>
      <trkpt lat="45.98145" lon="4.88059">
        <ele>314</ele>
        <time>2018-10-06T09:23:55Z</time>
      </trkpt>
      <trkpt lat="45.98147" lon="4.88068">
        <ele>315</ele>
        <time>2018-10-06T09:23:56Z</time>
      </trkpt>
      <trkpt lat="45.9815" lon="4.88077">
        <ele>315</ele>
        <time>2018-10-06T09:23:57Z</time>
      </trkpt>
      <trkpt lat="45.98154" lon="4.88086">
        <ele>315</ele>
        <time>2018-10-06T09:23:58Z</time>
      </trkpt>
      <trkpt lat="45.98156" lon="4.88096">
        <ele>315</ele>
        <time>2018-10-06T09:23:59Z</time>
      </trkpt>
      <trkpt lat="45.98159" lon="4.88105">
        <ele>315</ele>
        <time>2018-10-06T09:24:00Z</time>
      </trkpt>
      <trkpt lat="45.98161" lon="4.88113">
        <ele>314</ele>
        <time>2018-10-06T09:24:01Z</time>
      </trkpt>
      <trkpt lat="45.98165" lon="4.88122">
        <ele>325</ele>
        <time>2018-10-06T09:24:02Z</time>
      </trkpt>
      <trkpt lat="45.98168" lon="4.88131">
        <ele>324</ele>
        <time>2018-10-06T09:24:03Z</time>
      </trkpt>
      <trkpt lat="45.9817" lon="4.88141">
        <ele>320</ele>
        <time>2018-10-06T09:24:04Z</time>
      </trkpt>
      <trkpt lat="45.98173" lon="4.8815">
        <ele>319</ele>
        <time>2018-10-06T09:24:05Z</time>
      </trkpt>
      <trkpt lat="45.98175" lon="4.88159">
        <ele>318</ele>
        <time>2018-10-06T09:24:06Z</time>
      </trkpt>
      <trkpt lat="45.98177" lon="4.88167">
        <ele>317</ele>
        <time>2018-10-06T09:24:07Z</time>
      </trkpt>
      <trkpt lat="45.9818" lon="4.88176">
        <ele>325</ele>
        <time>2018-10-06T09:24:08Z</time>
      </trkpt>
      <trkpt lat="45.98182" lon="4.88185">
        <ele>322</ele>
        <time>2018-10-06T09:24:09Z</time>
      </trkpt>
      <trkpt lat="45.98184" lon="4.88193">
        <ele>321</ele>
        <time>2018-10-06T09:24:10Z</time>
      </trkpt>
      <trkpt lat="45.98186" lon="4.88202">
        <ele>319</ele>
        <time>2018-10-06T09:24:11Z</time>
      </trkpt>
      <trkpt lat="45.98189" lon="4.8821">
        <ele>317</ele>
        <time>2018-10-06T09:24:12Z</time>
      </trkpt>
      <trkpt lat="45.98191" lon="4.8822">
        <ele>316</ele>
        <time>2018-10-06T09:24:13Z</time>
      </trkpt>
      <trkpt lat="45.98193" lon="4.88228">
        <ele>314</ele>
        <time>2018-10-06T09:24:14Z</time>
      </trkpt>
      <trkpt lat="45.98195" lon="4.88236">
        <ele>314</ele>
        <time>2018-10-06T09:24:15Z</time>
      </trkpt>
      <trkpt lat="45.98197" lon="4.88244">
        <ele>313</ele>
        <time>2018-10-06T09:24:16Z</time>
      </trkpt>
      <trkpt lat="45.982" lon="4.88252">
        <ele>312</ele>
        <time>2018-10-06T09:24:17Z</time>
      </trkpt>
      <trkpt lat="45.98202" lon="4.8826">
        <ele>312</ele>
        <time>2018-10-06T09:24:18Z</time>
      </trkpt>
      <trkpt lat="45.98204" lon="4.8827">
        <ele>312</ele>
        <time>2018-10-06T09:24:19Z</time>
      </trkpt>
      <trkpt lat="45.98206" lon="4.88278">
        <ele>312</ele>
        <time>2018-10-06T09:24:20Z</time>
      </trkpt>
      <trkpt lat="45.98209" lon="4.88288">
        <ele>312</ele>
        <time>2018-10-06T09:24:21Z</time>
      </trkpt>
      <trkpt lat="45.98211" lon="4.88295">
        <ele>312</ele>
        <time>2018-10-06T09:24:22Z</time>
      </trkpt>
      <trkpt lat="45.98212" lon="4.88303">
        <ele>312</ele>
        <time>2018-10-06T09:24:23Z</time>
      </trkpt>
      <trkpt lat="45.98213" lon="4.88311">
        <ele>312</ele>
        <time>2018-10-06T09:24:24Z</time>
      </trkpt>
      <trkpt lat="45.98214" lon="4.88319">
        <ele>312</ele>
        <time>2018-10-06T09:24:25Z</time>
      </trkpt>
      <trkpt lat="45.98215" lon="4.88328">
        <ele>313</ele>
        <time>2018-10-06T09:24:26Z</time>
      </trkpt>
      <trkpt lat="45.98216" lon="4.88336">
        <ele>312</ele>
        <time>2018-10-06T09:24:27Z</time>
      </trkpt>
      <trkpt lat="45.98217" lon="4.88343">
        <ele>313</ele>
        <time>2018-10-06T09:24:28Z</time>
      </trkpt>
      <trkpt lat="45.98218" lon="4.88351">
        <ele>314</ele>
        <time>2018-10-06T09:24:29Z</time>
      </trkpt>
      <trkpt lat="45.9822" lon="4.88361">
        <ele>313</ele>
        <time>2018-10-06T09:24:30Z</time>
      </trkpt>
      <trkpt lat="45.98221" lon="4.8837">
        <ele>312</ele>
        <time>2018-10-06T09:24:31Z</time>
      </trkpt>
      <trkpt lat="45.98221" lon="4.88379">
        <ele>314</ele>
        <time>2018-10-06T09:24:32Z</time>
      </trkpt>
      <trkpt lat="45.98222" lon="4.88387">
        <ele>314</ele>
        <time>2018-10-06T09:24:33Z</time>
      </trkpt>
      <trkpt lat="45.98223" lon="4.88396">
        <ele>316</ele>
        <time>2018-10-06T09:24:34Z</time>
      </trkpt>
      <trkpt lat="45.98225" lon="4.88405">
        <ele>316</ele>
        <time>2018-10-06T09:24:35Z</time>
      </trkpt>
      <trkpt lat="45.98226" lon="4.88411">
        <ele>316</ele>
        <time>2018-10-06T09:24:36Z</time>
      </trkpt>
      <trkpt lat="45.98228" lon="4.8842">
        <ele>316</ele>
        <time>2018-10-06T09:24:37Z</time>
      </trkpt>
      <trkpt lat="45.98231" lon="4.88428">
        <ele>314</ele>
        <time>2018-10-06T09:24:38Z</time>
      </trkpt>
      <trkpt lat="45.98231" lon="4.88435">
        <ele>316</ele>
        <time>2018-10-06T09:24:39Z</time>
      </trkpt>
      <trkpt lat="45.98232" lon="4.88443">
        <ele>316</ele>
        <time>2018-10-06T09:24:40Z</time>
      </trkpt>
      <trkpt lat="45.98233" lon="4.8845">
        <ele>317</ele>
        <time>2018-10-06T09:24:41Z</time>
      </trkpt>
      <trkpt lat="45.98235" lon="4.88458">
        <ele>318</ele>
        <time>2018-10-06T09:24:42Z</time>
      </trkpt>
      <trkpt lat="45.98236" lon="4.88464">
        <ele>319</ele>
        <time>2018-10-06T09:24:43Z</time>
      </trkpt>
      <trkpt lat="45.98238" lon="4.88472">
        <ele>319</ele>
        <time>2018-10-06T09:24:44Z</time>
      </trkpt>
      <trkpt lat="45.9824" lon="4.8848">
        <ele>319</ele>
        <time>2018-10-06T09:24:45Z</time>
      </trkpt>
      <trkpt lat="45.98242" lon="4.88487">
        <ele>319</ele>
        <time>2018-10-06T09:24:46Z</time>
      </trkpt>
      <trkpt lat="45.98242" lon="4.88493">
        <ele>319</ele>
        <time>2018-10-06T09:24:47Z</time>
      </trkpt>
      <trkpt lat="45.98244" lon="4.88501">
        <ele>318</ele>
        <time>2018-10-06T09:24:48Z</time>
      </trkpt>
      <trkpt lat="45.98245" lon="4.88508">
        <ele>319</ele>
        <time>2018-10-06T09:24:49Z</time>
      </trkpt>
      <trkpt lat="45.98247" lon="4.88516">
        <ele>320</ele>
        <time>2018-10-06T09:24:50Z</time>
      </trkpt>
      <trkpt lat="45.98248" lon="4.88523">
        <ele>320</ele>
        <time>2018-10-06T09:24:51Z</time>
      </trkpt>
      <trkpt lat="45.9825" lon="4.88531">
        <ele>325</ele>
        <time>2018-10-06T09:24:52Z</time>
      </trkpt>
      <trkpt lat="45.98252" lon="4.88538">
        <ele>323</ele>
        <time>2018-10-06T09:24:53Z</time>
      </trkpt>
      <trkpt lat="45.98255" lon="4.88545">
        <ele>325</ele>
        <time>2018-10-06T09:24:54Z</time>
      </trkpt>
      <trkpt lat="45.98258" lon="4.88551">
        <ele>323</ele>
        <time>2018-10-06T09:24:55Z</time>
      </trkpt>
      <trkpt lat="45.9826" lon="4.88558">
        <ele>321</ele>
        <time>2018-10-06T09:24:56Z</time>
      </trkpt>
      <trkpt lat="45.98261" lon="4.88564">
        <ele>319</ele>
        <time>2018-10-06T09:24:57Z</time>
      </trkpt>
      <trkpt lat="45.98263" lon="4.88576">
        <ele>318</ele>
        <time>2018-10-06T09:24:59Z</time>
      </trkpt>
      <trkpt lat="45.98265" lon="4.8858">
        <ele>317</ele>
        <time>2018-10-06T09:25:00Z</time>
      </trkpt>
      <trkpt lat="45.98266" lon="4.88585">
        <ele>317</ele>
        <time>2018-10-06T09:25:01Z</time>
      </trkpt>
      <trkpt lat="45.98268" lon="4.88594">
        <ele>314</ele>
        <time>2018-10-06T09:25:02Z</time>
      </trkpt>
      <trkpt lat="45.98269" lon="4.886">
        <ele>313</ele>
        <time>2018-10-06T09:25:03Z</time>
      </trkpt>
      <trkpt lat="45.98271" lon="4.88608">
        <ele>314</ele>
        <time>2018-10-06T09:25:04Z</time>
      </trkpt>
      <trkpt lat="45.98274" lon="4.88613">
        <ele>314</ele>
        <time>2018-10-06T09:25:05Z</time>
      </trkpt>
      <trkpt lat="45.98277" lon="4.8862">
        <ele>313</ele>
        <time>2018-10-06T09:25:06Z</time>
      </trkpt>
      <trkpt lat="45.98279" lon="4.88626">
        <ele>313</ele>
        <time>2018-10-06T09:25:07Z</time>
      </trkpt>
      <trkpt lat="45.98279" lon="4.88633">
        <ele>313</ele>
        <time>2018-10-06T09:25:08Z</time>
      </trkpt>
      <trkpt lat="45.98282" lon="4.88639">
        <ele>313</ele>
        <time>2018-10-06T09:25:09Z</time>
      </trkpt>
      <trkpt lat="45.98283" lon="4.88644">
        <ele>313</ele>
        <time>2018-10-06T09:25:10Z</time>
      </trkpt>
      <trkpt lat="45.98285" lon="4.8865">
        <ele>312</ele>
        <time>2018-10-06T09:25:11Z</time>
      </trkpt>
      <trkpt lat="45.98287" lon="4.88658">
        <ele>312</ele>
        <time>2018-10-06T09:25:12Z</time>
      </trkpt>
      <trkpt lat="45.9829" lon="4.88669">
        <ele>312</ele>
        <time>2018-10-06T09:25:14Z</time>
      </trkpt>
      <trkpt lat="45.98291" lon="4.88675">
        <ele>313</ele>
        <time>2018-10-06T09:25:15Z</time>
      </trkpt>
      <trkpt lat="45.98292" lon="4.88681">
        <ele>313</ele>
        <time>2018-10-06T09:25:16Z</time>
      </trkpt>
      <trkpt lat="45.98294" lon="4.88688">
        <ele>314</ele>
        <time>2018-10-06T09:25:17Z</time>
      </trkpt>
      <trkpt lat="45.98295" lon="4.88694">
        <ele>314</ele>
        <time>2018-10-06T09:25:18Z</time>
      </trkpt>
      <trkpt lat="45.98297" lon="4.88701">
        <ele>314</ele>
        <time>2018-10-06T09:25:19Z</time>
      </trkpt>
      <trkpt lat="45.983" lon="4.88711">
        <ele>314</ele>
        <time>2018-10-06T09:25:21Z</time>
      </trkpt>
      <trkpt lat="45.98303" lon="4.8872">
        <ele>312</ele>
        <time>2018-10-06T09:25:22Z</time>
      </trkpt>
      <trkpt lat="45.98305" lon="4.88726">
        <ele>312</ele>
        <time>2018-10-06T09:25:23Z</time>
      </trkpt>
      <trkpt lat="45.98306" lon="4.88734">
        <ele>311</ele>
        <time>2018-10-06T09:25:24Z</time>
      </trkpt>
      <trkpt lat="45.98308" lon="4.88742">
        <ele>310</ele>
        <time>2018-10-06T09:25:25Z</time>
      </trkpt>
      <trkpt lat="45.9831" lon="4.88748">
        <ele>310</ele>
        <time>2018-10-06T09:25:26Z</time>
      </trkpt>
      <trkpt lat="45.98312" lon="4.88754">
        <ele>310</ele>
        <time>2018-10-06T09:25:27Z</time>
      </trkpt>
      <trkpt lat="45.98314" lon="4.88761">
        <ele>310</ele>
        <time>2018-10-06T09:25:28Z</time>
      </trkpt>
      <trkpt lat="45.9832" lon="4.8877">
        <ele>309</ele>
        <time>2018-10-06T09:25:30Z</time>
      </trkpt>
      <trkpt lat="45.98321" lon="4.88776">
        <ele>309</ele>
        <time>2018-10-06T09:25:31Z</time>
      </trkpt>
      <trkpt lat="45.98323" lon="4.88786">
        <ele>310</ele>
        <time>2018-10-06T09:25:33Z</time>
      </trkpt>
      <trkpt lat="45.98326" lon="4.88794">
        <ele>309</ele>
        <time>2018-10-06T09:25:34Z</time>
      </trkpt>
      <trkpt lat="45.98327" lon="4.88801">
        <ele>309</ele>
        <time>2018-10-06T09:25:35Z</time>
      </trkpt>
      <trkpt lat="45.98329" lon="4.88808">
        <ele>309</ele>
        <time>2018-10-06T09:25:36Z</time>
      </trkpt>
      <trkpt lat="45.98331" lon="4.88813">
        <ele>309</ele>
        <time>2018-10-06T09:25:37Z</time>
      </trkpt>
      <trkpt lat="45.98333" lon="4.8882">
        <ele>309</ele>
        <time>2018-10-06T09:25:38Z</time>
      </trkpt>
      <trkpt lat="45.98334" lon="4.88825">
        <ele>310</ele>
        <time>2018-10-06T09:25:39Z</time>
      </trkpt>
      <trkpt lat="45.98336" lon="4.88832">
        <ele>310</ele>
        <time>2018-10-06T09:25:40Z</time>
      </trkpt>
      <trkpt lat="45.98336" lon="4.88839">
        <ele>310</ele>
        <time>2018-10-06T09:25:41Z</time>
      </trkpt>
      <trkpt lat="45.98338" lon="4.88845">
        <ele>310</ele>
        <time>2018-10-06T09:25:42Z</time>
      </trkpt>
      <trkpt lat="45.98341" lon="4.88857">
        <ele>309</ele>
        <time>2018-10-06T09:25:44Z</time>
      </trkpt>
      <trkpt lat="45.98342" lon="4.88864">
        <ele>309</ele>
        <time>2018-10-06T09:25:45Z</time>
      </trkpt>
      <trkpt lat="45.98343" lon="4.88871">
        <ele>310</ele>
        <time>2018-10-06T09:25:46Z</time>
      </trkpt>
      <trkpt lat="45.98345" lon="4.88876">
        <ele>310</ele>
        <time>2018-10-06T09:25:47Z</time>
      </trkpt>
      <trkpt lat="45.98348" lon="4.88888">
        <ele>310</ele>
        <time>2018-10-06T09:25:49Z</time>
      </trkpt>
      <trkpt lat="45.98351" lon="4.88893">
        <ele>309</ele>
        <time>2018-10-06T09:25:50Z</time>
      </trkpt>
      <trkpt lat="45.98355" lon="4.88903">
        <ele>311</ele>
        <time>2018-10-06T09:25:52Z</time>
      </trkpt>
      <trkpt lat="45.98355" lon="4.8891">
        <ele>311</ele>
        <time>2018-10-06T09:25:53Z</time>
      </trkpt>
      <trkpt lat="45.98358" lon="4.88922">
        <ele>312</ele>
        <time>2018-10-06T09:25:55Z</time>
      </trkpt>
      <trkpt lat="45.9836" lon="4.88928">
        <ele>311</ele>
        <time>2018-10-06T09:25:56Z</time>
      </trkpt>
      <trkpt lat="45.98362" lon="4.88939">
        <ele>312</ele>
        <time>2018-10-06T09:25:58Z</time>
      </trkpt>
      <trkpt lat="45.98363" lon="4.88945">
        <ele>312</ele>
        <time>2018-10-06T09:25:59Z</time>
      </trkpt>
      <trkpt lat="45.98366" lon="4.88955">
        <ele>312</ele>
        <time>2018-10-06T09:26:01Z</time>
      </trkpt>
      <trkpt lat="45.98368" lon="4.88961">
        <ele>311</ele>
        <time>2018-10-06T09:26:02Z</time>
      </trkpt>
      <trkpt lat="45.98371" lon="4.88972">
        <ele>311</ele>
        <time>2018-10-06T09:26:04Z</time>
      </trkpt>
      <trkpt lat="45.98373" lon="4.88978">
        <ele>310</ele>
        <time>2018-10-06T09:26:05Z</time>
      </trkpt>
      <trkpt lat="45.98376" lon="4.88989">
        <ele>310</ele>
        <time>2018-10-06T09:26:07Z</time>
      </trkpt>
      <trkpt lat="45.98378" lon="4.88994">
        <ele>311</ele>
        <time>2018-10-06T09:26:08Z</time>
      </trkpt>
      <trkpt lat="45.9838" lon="4.89005">
        <ele>310</ele>
        <time>2018-10-06T09:26:11Z</time>
      </trkpt>
      <trkpt lat="45.98381" lon="4.89008">
        <ele>310</ele>
        <time>2018-10-06T09:26:12Z</time>
      </trkpt>
      <trkpt lat="45.98382" lon="4.89011">
        <ele>310</ele>
        <time>2018-10-06T09:26:13Z</time>
      </trkpt>
      <trkpt lat="45.98383" lon="4.89021">
        <ele>310</ele>
        <time>2018-10-06T09:26:14Z</time>
      </trkpt>
      <trkpt lat="45.98386" lon="4.8903">
        <ele>311</ele>
        <time>2018-10-06T09:26:17Z</time>
      </trkpt>
      <trkpt lat="45.98389" lon="4.89041">
        <ele>309</ele>
        <time>2018-10-06T09:26:18Z</time>
      </trkpt>
      <trkpt lat="45.98392" lon="4.89049">
        <ele>311</ele>
        <time>2018-10-06T09:26:21Z</time>
      </trkpt>
      <trkpt lat="45.98393" lon="4.89053">
        <ele>312</ele>
        <time>2018-10-06T09:26:22Z</time>
      </trkpt>
      <trkpt lat="45.98397" lon="4.89063">
        <ele>311</ele>
        <time>2018-10-06T09:26:25Z</time>
      </trkpt>
      <trkpt lat="45.98399" lon="4.89066">
        <ele>310</ele>
        <time>2018-10-06T09:26:26Z</time>
      </trkpt>
      <trkpt lat="45.98403" lon="4.89074">
        <ele>310</ele>
        <time>2018-10-06T09:26:28Z</time>
      </trkpt>
      <trkpt lat="45.98405" lon="4.89078">
        <ele>309</ele>
        <time>2018-10-06T09:26:29Z</time>
      </trkpt>
      <trkpt lat="45.98407" lon="4.89082">
        <ele>309</ele>
        <time>2018-10-06T09:26:30Z</time>
      </trkpt>
      <trkpt lat="45.98413" lon="4.89092">
        <ele>308</ele>
        <time>2018-10-06T09:26:31Z</time>
      </trkpt>
      <trkpt lat="45.98418" lon="4.891">
        <ele>310</ele>
        <time>2018-10-06T09:26:33Z</time>
      </trkpt>
      <trkpt lat="45.98421" lon="4.89104">
        <ele>310</ele>
        <time>2018-10-06T09:26:34Z</time>
      </trkpt>
      <trkpt lat="45.98426" lon="4.89111">
        <ele>309</ele>
        <time>2018-10-06T09:26:36Z</time>
      </trkpt>
      <trkpt lat="45.98429" lon="4.89115">
        <ele>310</ele>
        <time>2018-10-06T09:26:37Z</time>
      </trkpt>
      <trkpt lat="45.98434" lon="4.89124">
        <ele>304</ele>
        <time>2018-10-06T09:26:39Z</time>
      </trkpt>
      <trkpt lat="45.98437" lon="4.89129">
        <ele>305</ele>
        <time>2018-10-06T09:26:40Z</time>
      </trkpt>
      <trkpt lat="45.98442" lon="4.89138">
        <ele>319</ele>
        <time>2018-10-06T09:26:42Z</time>
      </trkpt>
      <trkpt lat="45.98445" lon="4.89143">
        <ele>319</ele>
        <time>2018-10-06T09:26:43Z</time>
      </trkpt>
      <trkpt lat="45.9845" lon="4.89152">
        <ele>318</ele>
        <time>2018-10-06T09:26:45Z</time>
      </trkpt>
      <trkpt lat="45.98451" lon="4.89154">
        <ele>319</ele>
        <time>2018-10-06T09:26:46Z</time>
      </trkpt>
      <trkpt lat="45.98455" lon="4.89162">
        <ele>315</ele>
        <time>2018-10-06T09:26:48Z</time>
      </trkpt>
      <trkpt lat="45.98457" lon="4.89164">
        <ele>314</ele>
        <time>2018-10-06T09:26:49Z</time>
      </trkpt>
      <trkpt lat="45.98462" lon="4.89173">
        <ele>313</ele>
        <time>2018-10-06T09:26:52Z</time>
      </trkpt>
      <trkpt lat="45.98464" lon="4.89177">
        <ele>313</ele>
        <time>2018-10-06T09:26:53Z</time>
      </trkpt>
      <trkpt lat="45.98467" lon="4.89185">
        <ele>314</ele>
        <time>2018-10-06T09:26:55Z</time>
      </trkpt>
      <trkpt lat="45.98468" lon="4.89189">
        <ele>299</ele>
        <time>2018-10-06T09:26:56Z</time>
      </trkpt>
      <trkpt lat="45.98472" lon="4.89199">
        <ele>304</ele>
        <time>2018-10-06T09:26:59Z</time>
      </trkpt>
      <trkpt lat="45.98474" lon="4.89203">
        <ele>305</ele>
        <time>2018-10-06T09:27:00Z</time>
      </trkpt>
      <trkpt lat="45.98475" lon="4.89206">
        <ele>306</ele>
        <time>2018-10-06T09:27:01Z</time>
      </trkpt>
      <trkpt lat="45.9848" lon="4.89217">
        <ele>307</ele>
        <time>2018-10-06T09:27:02Z</time>
      </trkpt>
      <trkpt lat="45.98484" lon="4.89228">
        <ele>312</ele>
        <time>2018-10-06T09:27:06Z</time>
      </trkpt>
      <trkpt lat="45.98485" lon="4.89231">
        <ele>315</ele>
        <time>2018-10-06T09:27:07Z</time>
      </trkpt>
      <trkpt lat="45.98489" lon="4.89241">
        <ele>317</ele>
        <time>2018-10-06T09:27:10Z</time>
      </trkpt>
      <trkpt lat="45.98491" lon="4.89244">
        <ele>317</ele>
        <time>2018-10-06T09:27:11Z</time>
      </trkpt>
      <trkpt lat="45.98494" lon="4.89252">
        <ele>313</ele>
        <time>2018-10-06T09:27:13Z</time>
      </trkpt>
      <trkpt lat="45.98496" lon="4.89256">
        <ele>313</ele>
        <time>2018-10-06T09:27:14Z</time>
      </trkpt>
      <trkpt lat="45.98497" lon="4.89259">
        <ele>313</ele>
        <time>2018-10-06T09:27:15Z</time>
      </trkpt>
      <trkpt lat="45.98503" lon="4.89269">
        <ele>313</ele>
        <time>2018-10-06T09:27:16Z</time>
      </trkpt>
      <trkpt lat="45.98507" lon="4.89278">
        <ele>322</ele>
        <time>2018-10-06T09:27:20Z</time>
      </trkpt>
      <trkpt lat="45.98508" lon="4.89281">
        <ele>321</ele>
        <time>2018-10-06T09:27:21Z</time>
      </trkpt>
      <trkpt lat="45.98511" lon="4.8929">
        <ele>321</ele>
        <time>2018-10-06T09:27:22Z</time>
      </trkpt>
      <trkpt lat="45.98513" lon="4.89293">
        <ele>321</ele>
        <time>2018-10-06T09:27:23Z</time>
      </trkpt>
      <trkpt lat="45.98519" lon="4.89302">
        <ele>326</ele>
        <time>2018-10-06T09:27:25Z</time>
      </trkpt>
      <trkpt lat="45.9852" lon="4.89305">
        <ele>326</ele>
        <time>2018-10-06T09:27:26Z</time>
      </trkpt>
      <trkpt lat="45.98524" lon="4.89312">
        <ele>326</ele>
        <time>2018-10-06T09:27:28Z</time>
      </trkpt>
      <trkpt lat="45.9853" lon="4.89321">
        <ele>326</ele>
        <time>2018-10-06T09:27:29Z</time>
      </trkpt>
      <trkpt lat="45.98535" lon="4.8933">
        <ele>326</ele>
        <time>2018-10-06T09:27:31Z</time>
      </trkpt>
      <trkpt lat="45.98538" lon="4.89335">
        <ele>325</ele>
        <time>2018-10-06T09:27:32Z</time>
      </trkpt>
      <trkpt lat="45.98541" lon="4.89341">
        <ele>325</ele>
        <time>2018-10-06T09:27:33Z</time>
      </trkpt>
      <trkpt lat="45.98546" lon="4.89349">
        <ele>326</ele>
        <time>2018-10-06T09:27:34Z</time>
      </trkpt>
      <trkpt lat="45.98553" lon="4.89354">
        <ele>326</ele>
        <time>2018-10-06T09:27:36Z</time>
      </trkpt>
      <trkpt lat="45.98556" lon="4.89359">
        <ele>326</ele>
        <time>2018-10-06T09:27:37Z</time>
      </trkpt>
      <trkpt lat="45.98563" lon="4.89364">
        <ele>326</ele>
        <time>2018-10-06T09:27:39Z</time>
      </trkpt>
      <trkpt lat="45.98566" lon="4.89371">
        <ele>326</ele>
        <time>2018-10-06T09:27:40Z</time>
      </trkpt>
      <trkpt lat="45.98569" lon="4.8938">
        <ele>327</ele>
        <time>2018-10-06T09:27:42Z</time>
      </trkpt>
      <trkpt lat="45.98573" lon="4.89387">
        <ele>327</ele>
        <time>2018-10-06T09:27:43Z</time>
      </trkpt>
      <trkpt lat="45.98579" lon="4.89392">
        <ele>328</ele>
        <time>2018-10-06T09:27:44Z</time>
      </trkpt>
      <trkpt lat="45.98583" lon="4.89396">
        <ele>327</ele>
        <time>2018-10-06T09:27:45Z</time>
      </trkpt>
      <trkpt lat="45.98589" lon="4.89403">
        <ele>327</ele>
        <time>2018-10-06T09:27:47Z</time>
      </trkpt>
      <trkpt lat="45.98594" lon="4.89407">
        <ele>327</ele>
        <time>2018-10-06T09:27:48Z</time>
      </trkpt>
      <trkpt lat="45.98597" lon="4.89412">
        <ele>326</ele>
        <time>2018-10-06T09:27:50Z</time>
      </trkpt>
      <trkpt lat="45.98601" lon="4.89416">
        <ele>326</ele>
        <time>2018-10-06T09:27:51Z</time>
      </trkpt>
      <trkpt lat="45.98604" lon="4.8942">
        <ele>327</ele>
        <time>2018-10-06T09:27:52Z</time>
      </trkpt>
      <trkpt lat="45.98608" lon="4.89425">
        <ele>328</ele>
        <time>2018-10-06T09:27:53Z</time>
      </trkpt>
      <trkpt lat="45.98615" lon="4.89432">
        <ele>327</ele>
        <time>2018-10-06T09:27:55Z</time>
      </trkpt>
      <trkpt lat="45.98619" lon="4.89437">
        <ele>331</ele>
        <time>2018-10-06T09:27:56Z</time>
      </trkpt>
      <trkpt lat="45.98623" lon="4.89442">
        <ele>331</ele>
        <time>2018-10-06T09:27:57Z</time>
      </trkpt>
      <trkpt lat="45.98627" lon="4.89444">
        <ele>329</ele>
        <time>2018-10-06T09:27:58Z</time>
      </trkpt>
      <trkpt lat="45.98634" lon="4.89452">
        <ele>329</ele>
        <time>2018-10-06T09:28:00Z</time>
      </trkpt>
      <trkpt lat="45.98638" lon="4.89455">
        <ele>330</ele>
        <time>2018-10-06T09:28:01Z</time>
      </trkpt>
      <trkpt lat="45.98643" lon="4.89461">
        <ele>331</ele>
        <time>2018-10-06T09:28:03Z</time>
      </trkpt>
      <trkpt lat="45.98648" lon="4.89465">
        <ele>330</ele>
        <time>2018-10-06T09:28:04Z</time>
      </trkpt>
      <trkpt lat="45.98654" lon="4.89472">
        <ele>330</ele>
        <time>2018-10-06T09:28:06Z</time>
      </trkpt>
      <trkpt lat="45.98657" lon="4.89474">
        <ele>329</ele>
        <time>2018-10-06T09:28:07Z</time>
      </trkpt>
      <trkpt lat="45.98665" lon="4.89481">
        <ele>330</ele>
        <time>2018-10-06T09:28:09Z</time>
      </trkpt>
      <trkpt lat="45.98669" lon="4.89485">
        <ele>329</ele>
        <time>2018-10-06T09:28:10Z</time>
      </trkpt>
      <trkpt lat="45.98673" lon="4.89489">
        <ele>329</ele>
        <time>2018-10-06T09:28:11Z</time>
      </trkpt>
      <trkpt lat="45.98676" lon="4.89494">
        <ele>329</ele>
        <time>2018-10-06T09:28:12Z</time>
      </trkpt>
      <trkpt lat="45.9868" lon="4.89498">
        <ele>330</ele>
        <time>2018-10-06T09:28:13Z</time>
      </trkpt>
      <trkpt lat="45.98684" lon="4.89503">
        <ele>329</ele>
        <time>2018-10-06T09:28:14Z</time>
      </trkpt>
      <trkpt lat="45.98687" lon="4.89507">
        <ele>330</ele>
        <time>2018-10-06T09:28:15Z</time>
      </trkpt>
      <trkpt lat="45.9869" lon="4.89512">
        <ele>330</ele>
        <time>2018-10-06T09:28:16Z</time>
      </trkpt>
      <trkpt lat="45.98696" lon="4.89521">
        <ele>330</ele>
        <time>2018-10-06T09:28:18Z</time>
      </trkpt>
      <trkpt lat="45.98698" lon="4.89522">
        <ele>330</ele>
        <time>2018-10-06T09:28:19Z</time>
      </trkpt>
      <trkpt lat="45.98699" lon="4.89524">
        <ele>330</ele>
        <time>2018-10-06T09:28:20Z</time>
      </trkpt>
      <trkpt lat="45.98708" lon="4.89531">
        <ele>329</ele>
        <time>2018-10-06T09:28:21Z</time>
      </trkpt>
      <trkpt lat="45.98715" lon="4.89539">
        <ele>330</ele>
        <time>2018-10-06T09:28:23Z</time>
      </trkpt>
      <trkpt lat="45.98719" lon="4.89544">
        <ele>330</ele>
        <time>2018-10-06T09:28:24Z</time>
      </trkpt>
      <trkpt lat="45.98723" lon="4.8955">
        <ele>328</ele>
        <time>2018-10-06T09:28:25Z</time>
      </trkpt>
      <trkpt lat="45.98727" lon="4.89554">
        <ele>329</ele>
        <time>2018-10-06T09:28:26Z</time>
      </trkpt>
      <trkpt lat="45.98732" lon="4.89563">
        <ele>329</ele>
        <time>2018-10-06T09:28:28Z</time>
      </trkpt>
      <trkpt lat="45.98735" lon="4.89567">
        <ele>328</ele>
        <time>2018-10-06T09:28:29Z</time>
      </trkpt>
      <trkpt lat="45.98739" lon="4.89571">
        <ele>329</ele>
        <time>2018-10-06T09:28:30Z</time>
      </trkpt>
      <trkpt lat="45.98742" lon="4.89575">
        <ele>328</ele>
        <time>2018-10-06T09:28:31Z</time>
      </trkpt>
      <trkpt lat="45.98748" lon="4.89582">
        <ele>328</ele>
        <time>2018-10-06T09:28:33Z</time>
      </trkpt>
      <trkpt lat="45.98751" lon="4.89588">
        <ele>327</ele>
        <time>2018-10-06T09:28:34Z</time>
      </trkpt>
      <trkpt lat="45.98757" lon="4.89591">
        <ele>326</ele>
        <time>2018-10-06T09:28:35Z</time>
      </trkpt>
      <trkpt lat="45.9876" lon="4.89596">
        <ele>325</ele>
        <time>2018-10-06T09:28:36Z</time>
      </trkpt>
      <trkpt lat="45.98766" lon="4.89604">
        <ele>324</ele>
        <time>2018-10-06T09:28:38Z</time>
      </trkpt>
      <trkpt lat="45.9877" lon="4.89608">
        <ele>324</ele>
        <time>2018-10-06T09:28:39Z</time>
      </trkpt>
      <trkpt lat="45.98775" lon="4.89615">
        <ele>323</ele>
        <time>2018-10-06T09:28:41Z</time>
      </trkpt>
      <trkpt lat="45.98777" lon="4.89617">
        <ele>324</ele>
        <time>2018-10-06T09:28:42Z</time>
      </trkpt>
      <trkpt lat="45.98783" lon="4.89625">
        <ele>323</ele>
        <time>2018-10-06T09:28:44Z</time>
      </trkpt>
      <trkpt lat="45.98785" lon="4.89629">
        <ele>323</ele>
        <time>2018-10-06T09:28:45Z</time>
      </trkpt>
      <trkpt lat="45.98789" lon="4.89635">
        <ele>324</ele>
        <time>2018-10-06T09:28:47Z</time>
      </trkpt>
      <trkpt lat="45.98793" lon="4.89641">
        <ele>325</ele>
        <time>2018-10-06T09:28:48Z</time>
      </trkpt>
      <trkpt lat="45.98798" lon="4.89649">
        <ele>325</ele>
        <time>2018-10-06T09:28:50Z</time>
      </trkpt>
      <trkpt lat="45.98801" lon="4.89652">
        <ele>326</ele>
        <time>2018-10-06T09:28:51Z</time>
      </trkpt>
      <trkpt lat="45.98806" lon="4.8966">
        <ele>328</ele>
        <time>2018-10-06T09:28:54Z</time>
      </trkpt>
      <trkpt lat="45.98808" lon="4.89662">
        <ele>328</ele>
        <time>2018-10-06T09:28:55Z</time>
      </trkpt>
      <trkpt lat="45.98813" lon="4.89669">
        <ele>328</ele>
        <time>2018-10-06T09:28:56Z</time>
      </trkpt>
      <trkpt lat="45.98816" lon="4.89672">
        <ele>326</ele>
        <time>2018-10-06T09:28:57Z</time>
      </trkpt>
      <trkpt lat="45.98824" lon="4.89677">
        <ele>327</ele>
        <time>2018-10-06T09:28:59Z</time>
      </trkpt>
      <trkpt lat="45.98828" lon="4.8968">
        <ele>327</ele>
        <time>2018-10-06T09:29:00Z</time>
      </trkpt>
      <trkpt lat="45.98834" lon="4.89683">
        <ele>326</ele>
        <time>2018-10-06T09:29:01Z</time>
      </trkpt>
      <trkpt lat="45.98838" lon="4.89687">
        <ele>327</ele>
        <time>2018-10-06T09:29:02Z</time>
      </trkpt>
      <trkpt lat="45.98844" lon="4.89695">
        <ele>328</ele>
        <time>2018-10-06T09:29:04Z</time>
      </trkpt>
      <trkpt lat="45.98847" lon="4.89698">
        <ele>328</ele>
        <time>2018-10-06T09:29:05Z</time>
      </trkpt>
      <trkpt lat="45.98855" lon="4.89704">
        <ele>326</ele>
        <time>2018-10-06T09:29:07Z</time>
      </trkpt>
      <trkpt lat="45.98857" lon="4.89708">
        <ele>327</ele>
        <time>2018-10-06T09:29:08Z</time>
      </trkpt>
      <trkpt lat="45.98861" lon="4.89711">
        <ele>327</ele>
        <time>2018-10-06T09:29:09Z</time>
      </trkpt>
      <trkpt lat="45.98865" lon="4.89714">
        <ele>315</ele>
        <time>2018-10-06T09:29:10Z</time>
      </trkpt>
      <trkpt lat="45.98871" lon="4.8972">
        <ele>321</ele>
        <time>2018-10-06T09:29:12Z</time>
      </trkpt>
      <trkpt lat="45.98874" lon="4.89725">
        <ele>323</ele>
        <time>2018-10-06T09:29:13Z</time>
      </trkpt>
      <trkpt lat="45.98881" lon="4.8973">
        <ele>325</ele>
        <time>2018-10-06T09:29:15Z</time>
      </trkpt>
      <trkpt lat="45.98885" lon="4.89733">
        <ele>326</ele>
        <time>2018-10-06T09:29:16Z</time>
      </trkpt>
      <trkpt lat="45.98892" lon="4.89736">
        <ele>326</ele>
        <time>2018-10-06T09:29:18Z</time>
      </trkpt>
      <trkpt lat="45.98893" lon="4.89738">
        <ele>314</ele>
        <time>2018-10-06T09:29:19Z</time>
      </trkpt>
      <trkpt lat="45.989" lon="4.89742">
        <ele>320</ele>
        <time>2018-10-06T09:29:22Z</time>
      </trkpt>
      <trkpt lat="45.98907" lon="4.89747">
        <ele>323</ele>
        <time>2018-10-06T09:29:23Z</time>
      </trkpt>
      <trkpt lat="45.98914" lon="4.89753">
        <ele>325</ele>
        <time>2018-10-06T09:29:25Z</time>
      </trkpt>
      <trkpt lat="45.98918" lon="4.89755">
        <ele>326</ele>
        <time>2018-10-06T09:29:26Z</time>
      </trkpt>
      <trkpt lat="45.98921" lon="4.89758">
        <ele>326</ele>
        <time>2018-10-06T09:29:27Z</time>
      </trkpt>
      <trkpt lat="45.98926" lon="4.8976">
        <ele>328</ele>
        <time>2018-10-06T09:29:28Z</time>
      </trkpt>
      <trkpt lat="45.98933" lon="4.89765">
        <ele>329</ele>
        <time>2018-10-06T09:29:30Z</time>
      </trkpt>
      <trkpt lat="45.98937" lon="4.89768">
        <ele>329</ele>
        <time>2018-10-06T09:29:31Z</time>
      </trkpt>
      <trkpt lat="45.98945" lon="4.89773">
        <ele>329</ele>
        <time>2018-10-06T09:29:33Z</time>
      </trkpt>
      <trkpt lat="45.98949" lon="4.89776">
        <ele>329</ele>
        <time>2018-10-06T09:29:34Z</time>
      </trkpt>
      <trkpt lat="45.98956" lon="4.89784">
        <ele>329</ele>
        <time>2018-10-06T09:29:36Z</time>
      </trkpt>
      <trkpt lat="45.98959" lon="4.89788">
        <ele>330</ele>
        <time>2018-10-06T09:29:37Z</time>
      </trkpt>
      <trkpt lat="45.98964" lon="4.89794">
        <ele>330</ele>
        <time>2018-10-06T09:29:39Z</time>
      </trkpt>
      <trkpt lat="45.98968" lon="4.89798">
        <ele>330</ele>
        <time>2018-10-06T09:29:40Z</time>
      </trkpt>
      <trkpt lat="45.98974" lon="4.89807">
        <ele>331</ele>
        <time>2018-10-06T09:29:42Z</time>
      </trkpt>
      <trkpt lat="45.98977" lon="4.89811">
        <ele>331</ele>
        <time>2018-10-06T09:29:43Z</time>
      </trkpt>
      <trkpt lat="45.98982" lon="4.89815">
        <ele>332</ele>
        <time>2018-10-06T09:29:44Z</time>
      </trkpt>
      <trkpt lat="45.98985" lon="4.89819">
        <ele>332</ele>
        <time>2018-10-06T09:29:45Z</time>
      </trkpt>
      <trkpt lat="45.98989" lon="4.89822">
        <ele>331</ele>
        <time>2018-10-06T09:29:46Z</time>
      </trkpt>
      <trkpt lat="45.98992" lon="4.89828">
        <ele>331</ele>
        <time>2018-10-06T09:29:47Z</time>
      </trkpt>
      <trkpt lat="45.98995" lon="4.89831">
        <ele>330</ele>
        <time>2018-10-06T09:29:48Z</time>
      </trkpt>
      <trkpt lat="45.98999" lon="4.89836">
        <ele>330</ele>
        <time>2018-10-06T09:29:49Z</time>
      </trkpt>
      <trkpt lat="45.99009" lon="4.89839">
        <ele>327</ele>
        <time>2018-10-06T09:29:50Z</time>
      </trkpt>
      <trkpt lat="45.99012" lon="4.89845">
        <ele>327</ele>
        <time>2018-10-06T09:29:51Z</time>
      </trkpt>
      <trkpt lat="45.99015" lon="4.89851">
        <ele>312</ele>
        <time>2018-10-06T09:29:52Z</time>
      </trkpt>
      <trkpt lat="45.99019" lon="4.89856">
        <ele>316</ele>
        <time>2018-10-06T09:29:53Z</time>
      </trkpt>
      <trkpt lat="45.99022" lon="4.8986">
        <ele>314</ele>
        <time>2018-10-06T09:29:54Z</time>
      </trkpt>
      <trkpt lat="45.99029" lon="4.89867">
        <ele>317</ele>
        <time>2018-10-06T09:29:56Z</time>
      </trkpt>
      <trkpt lat="45.99033" lon="4.89872">
        <ele>319</ele>
        <time>2018-10-06T09:29:57Z</time>
      </trkpt>
      <trkpt lat="45.99039" lon="4.8988">
        <ele>323</ele>
        <time>2018-10-06T09:29:59Z</time>
      </trkpt>
      <trkpt lat="45.99042" lon="4.89886">
        <ele>313</ele>
        <time>2018-10-06T09:30:00Z</time>
      </trkpt>
      <trkpt lat="45.99045" lon="4.89891">
        <ele>313</ele>
        <time>2018-10-06T09:30:01Z</time>
      </trkpt>
      <trkpt lat="45.99049" lon="4.89895">
        <ele>312</ele>
        <time>2018-10-06T09:30:02Z</time>
      </trkpt>
      <trkpt lat="45.99052" lon="4.899">
        <ele>316</ele>
        <time>2018-10-06T09:30:03Z</time>
      </trkpt>
      <trkpt lat="45.99055" lon="4.89905">
        <ele>319</ele>
        <time>2018-10-06T09:30:04Z</time>
      </trkpt>
      <trkpt lat="45.99062" lon="4.89914">
        <ele>323</ele>
        <time>2018-10-06T09:30:06Z</time>
      </trkpt>
      <trkpt lat="45.99064" lon="4.89918">
        <ele>326</ele>
        <time>2018-10-06T09:30:07Z</time>
      </trkpt>
      <trkpt lat="45.9907" lon="4.89927">
        <ele>328</ele>
        <time>2018-10-06T09:30:09Z</time>
      </trkpt>
      <trkpt lat="45.99074" lon="4.8993">
        <ele>314</ele>
        <time>2018-10-06T09:30:10Z</time>
      </trkpt>
      <trkpt lat="45.9908" lon="4.89938">
        <ele>324</ele>
        <time>2018-10-06T09:30:12Z</time>
      </trkpt>
      <trkpt lat="45.99082" lon="4.89943">
        <ele>325</ele>
        <time>2018-10-06T09:30:13Z</time>
      </trkpt>
      <trkpt lat="45.99088" lon="4.89946">
        <ele>326</ele>
        <time>2018-10-06T09:30:14Z</time>
      </trkpt>
      <trkpt lat="45.9909" lon="4.89952">
        <ele>327</ele>
        <time>2018-10-06T09:30:15Z</time>
      </trkpt>
      <trkpt lat="45.99093" lon="4.89957">
        <ele>328</ele>
        <time>2018-10-06T09:30:16Z</time>
      </trkpt>
      <trkpt lat="45.99098" lon="4.8996">
        <ele>329</ele>
        <time>2018-10-06T09:30:17Z</time>
      </trkpt>
      <trkpt lat="45.99104" lon="4.89969">
        <ele>330</ele>
        <time>2018-10-06T09:30:19Z</time>
      </trkpt>
      <trkpt lat="45.99107" lon="4.89973">
        <ele>331</ele>
        <time>2018-10-06T09:30:20Z</time>
      </trkpt>
      <trkpt lat="45.99111" lon="4.89979">
        <ele>331</ele>
        <time>2018-10-06T09:30:21Z</time>
      </trkpt>
      <trkpt lat="45.99114" lon="4.89984">
        <ele>331</ele>
        <time>2018-10-06T09:30:22Z</time>
      </trkpt>
      <trkpt lat="45.99118" lon="4.89989">
        <ele>331</ele>
        <time>2018-10-06T09:30:23Z</time>
      </trkpt>
      <trkpt lat="45.99122" lon="4.89993">
        <ele>331</ele>
        <time>2018-10-06T09:30:24Z</time>
      </trkpt>
      <trkpt lat="45.99126" lon="4.89997">
        <ele>331</ele>
        <time>2018-10-06T09:30:25Z</time>
      </trkpt>
      <trkpt lat="45.9913" lon="4.9">
        <ele>331</ele>
        <time>2018-10-06T09:30:26Z</time>
      </trkpt>
      <trkpt lat="45.99134" lon="4.90008">
        <ele>333</ele>
        <time>2018-10-06T09:30:28Z</time>
      </trkpt>
      <trkpt lat="45.99138" lon="4.90012">
        <ele>333</ele>
        <time>2018-10-06T09:30:29Z</time>
      </trkpt>
      <trkpt lat="45.9914" lon="4.90019">
        <ele>335</ele>
        <time>2018-10-06T09:30:31Z</time>
      </trkpt>
      <trkpt lat="45.99144" lon="4.90024">
        <ele>335</ele>
        <time>2018-10-06T09:30:32Z</time>
      </trkpt>
      <trkpt lat="45.99147" lon="4.90029">
        <ele>335</ele>
        <time>2018-10-06T09:30:33Z</time>
      </trkpt>
      <trkpt lat="45.9915" lon="4.90035">
        <ele>336</ele>
        <time>2018-10-06T09:30:34Z</time>
      </trkpt>
      <trkpt lat="45.99155" lon="4.90043">
        <ele>336</ele>
        <time>2018-10-06T09:30:36Z</time>
      </trkpt>
      <trkpt lat="45.99158" lon="4.90048">
        <ele>336</ele>
        <time>2018-10-06T09:30:37Z</time>
      </trkpt>
      <trkpt lat="45.99162" lon="4.90053">
        <ele>336</ele>
        <time>2018-10-06T09:30:38Z</time>
      </trkpt>
      <trkpt lat="45.99167" lon="4.90058">
        <ele>336</ele>
        <time>2018-10-06T09:30:39Z</time>
      </trkpt>
      <trkpt lat="45.99171" lon="4.90062">
        <ele>335</ele>
        <time>2018-10-06T09:30:40Z</time>
      </trkpt>
      <trkpt lat="45.99175" lon="4.90067">
        <ele>335</ele>
        <time>2018-10-06T09:30:41Z</time>
      </trkpt>
      <trkpt lat="45.99178" lon="4.90072">
        <ele>335</ele>
        <time>2018-10-06T09:30:42Z</time>
      </trkpt>
      <trkpt lat="45.99184" lon="4.90077">
        <ele>334</ele>
        <time>2018-10-06T09:30:43Z</time>
      </trkpt>
      <trkpt lat="45.99187" lon="4.90088">
        <ele>337</ele>
        <time>2018-10-06T09:30:45Z</time>
      </trkpt>
      <trkpt lat="45.9919" lon="4.90092">
        <ele>337</ele>
        <time>2018-10-06T09:30:46Z</time>
      </trkpt>
      <trkpt lat="45.99196" lon="4.90101">
        <ele>336</ele>
        <time>2018-10-06T09:30:48Z</time>
      </trkpt>
      <trkpt lat="45.992" lon="4.90106">
        <ele>334</ele>
        <time>2018-10-06T09:30:49Z</time>
      </trkpt>
      <trkpt lat="45.99205" lon="4.90111">
        <ele>333</ele>
        <time>2018-10-06T09:30:50Z</time>
      </trkpt>
      <trkpt lat="45.99208" lon="4.90115">
        <ele>334</ele>
        <time>2018-10-06T09:30:51Z</time>
      </trkpt>
      <trkpt lat="45.99212" lon="4.9012">
        <ele>334</ele>
        <time>2018-10-06T09:30:52Z</time>
      </trkpt>
      <trkpt lat="45.99216" lon="4.90126">
        <ele>334</ele>
        <time>2018-10-06T09:30:53Z</time>
      </trkpt>
      <trkpt lat="45.99221" lon="4.90132">
        <ele>333</ele>
        <time>2018-10-06T09:30:54Z</time>
      </trkpt>
      <trkpt lat="45.99224" lon="4.90137">
        <ele>333</ele>
        <time>2018-10-06T09:30:55Z</time>
      </trkpt>
      <trkpt lat="45.99227" lon="4.90143">
        <ele>310</ele>
        <time>2018-10-06T09:30:56Z</time>
      </trkpt>
      <trkpt lat="45.9923" lon="4.90148">
        <ele>315</ele>
        <time>2018-10-06T09:30:57Z</time>
      </trkpt>
      <trkpt lat="45.99233" lon="4.90154">
        <ele>318</ele>
        <time>2018-10-06T09:30:58Z</time>
      </trkpt>
      <trkpt lat="45.99239" lon="4.90157">
        <ele>322</ele>
        <time>2018-10-06T09:30:59Z</time>
      </trkpt>
      <trkpt lat="45.99243" lon="4.90163">
        <ele>328</ele>
        <time>2018-10-06T09:31:00Z</time>
      </trkpt>
      <trkpt lat="45.99244" lon="4.90169">
        <ele>332</ele>
        <time>2018-10-06T09:31:01Z</time>
      </trkpt>
      <trkpt lat="45.99248" lon="4.90174">
        <ele>333</ele>
        <time>2018-10-06T09:31:02Z</time>
      </trkpt>
      <trkpt lat="45.99253" lon="4.9018">
        <ele>334</ele>
        <time>2018-10-06T09:31:03Z</time>
      </trkpt>
      <trkpt lat="45.99256" lon="4.90184">
        <ele>335</ele>
        <time>2018-10-06T09:31:04Z</time>
      </trkpt>
      <trkpt lat="45.9926" lon="4.90189">
        <ele>336</ele>
        <time>2018-10-06T09:31:05Z</time>
      </trkpt>
      <trkpt lat="45.99263" lon="4.90194">
        <ele>336</ele>
        <time>2018-10-06T09:31:06Z</time>
      </trkpt>
      <trkpt lat="45.99267" lon="4.90199">
        <ele>336</ele>
        <time>2018-10-06T09:31:07Z</time>
      </trkpt>
      <trkpt lat="45.99271" lon="4.90205">
        <ele>337</ele>
        <time>2018-10-06T09:31:08Z</time>
      </trkpt>
      <trkpt lat="45.99273" lon="4.90211">
        <ele>336</ele>
        <time>2018-10-06T09:31:09Z</time>
      </trkpt>
      <trkpt lat="45.99278" lon="4.90216">
        <ele>337</ele>
        <time>2018-10-06T09:31:10Z</time>
      </trkpt>
      <trkpt lat="45.99281" lon="4.90222">
        <ele>337</ele>
        <time>2018-10-06T09:31:11Z</time>
      </trkpt>
      <trkpt lat="45.99287" lon="4.9023">
        <ele>338</ele>
        <time>2018-10-06T09:31:13Z</time>
      </trkpt>
      <trkpt lat="45.99291" lon="4.90236">
        <ele>336</ele>
        <time>2018-10-06T09:31:14Z</time>
      </trkpt>
      <trkpt lat="45.99295" lon="4.90241">
        <ele>336</ele>
        <time>2018-10-06T09:31:15Z</time>
      </trkpt>
      <trkpt lat="45.99298" lon="4.90246">
        <ele>333</ele>
        <time>2018-10-06T09:31:16Z</time>
      </trkpt>
      <trkpt lat="45.99304" lon="4.90253">
        <ele>334</ele>
        <time>2018-10-06T09:31:18Z</time>
      </trkpt>
      <trkpt lat="45.99305" lon="4.9026">
        <ele>335</ele>
        <time>2018-10-06T09:31:19Z</time>
      </trkpt>
      <trkpt lat="45.9931" lon="4.90268">
        <ele>335</ele>
        <time>2018-10-06T09:31:22Z</time>
      </trkpt>
      <trkpt lat="45.99312" lon="4.90272">
        <ele>336</ele>
        <time>2018-10-06T09:31:23Z</time>
      </trkpt>
      <trkpt lat="45.99316" lon="4.9028">
        <ele>336</ele>
        <time>2018-10-06T09:31:26Z</time>
      </trkpt>
      <trkpt lat="45.99317" lon="4.90283">
        <ele>335</ele>
        <time>2018-10-06T09:31:27Z</time>
      </trkpt>
      <trkpt lat="45.99321" lon="4.90293">
        <ele>334</ele>
        <time>2018-10-06T09:31:28Z</time>
      </trkpt>
      <trkpt lat="45.99322" lon="4.90294">
        <ele>336</ele>
        <time>2018-10-06T09:31:29Z</time>
      </trkpt>
      <trkpt lat="45.99327" lon="4.90297">
        <ele>335</ele>
        <time>2018-10-06T09:31:30Z</time>
      </trkpt>
      <trkpt lat="45.99331" lon="4.90298">
        <ele>335</ele>
        <time>2018-10-06T09:31:31Z</time>
      </trkpt>
      <trkpt lat="45.99339" lon="4.90298">
        <ele>337</ele>
        <time>2018-10-06T09:31:33Z</time>
      </trkpt>
      <trkpt lat="45.99344" lon="4.903">
        <ele>337</ele>
        <time>2018-10-06T09:31:34Z</time>
      </trkpt>
      <trkpt lat="45.99349" lon="4.90299">
        <ele>337</ele>
        <time>2018-10-06T09:31:35Z</time>
      </trkpt>
      <trkpt lat="45.99354" lon="4.903">
        <ele>338</ele>
        <time>2018-10-06T09:31:36Z</time>
      </trkpt>
      <trkpt lat="45.99359" lon="4.903">
        <ele>338</ele>
        <time>2018-10-06T09:31:37Z</time>
      </trkpt>
      <trkpt lat="45.99365" lon="4.90299">
        <ele>339</ele>
        <time>2018-10-06T09:31:38Z</time>
      </trkpt>
      <trkpt lat="45.99372" lon="4.903">
        <ele>339</ele>
        <time>2018-10-06T09:31:40Z</time>
      </trkpt>
      <trkpt lat="45.99377" lon="4.903">
        <ele>339</ele>
        <time>2018-10-06T09:31:41Z</time>
      </trkpt>
      <trkpt lat="45.99381" lon="4.90301">
        <ele>339</ele>
        <time>2018-10-06T09:31:42Z</time>
      </trkpt>
      <trkpt lat="45.99386" lon="4.90302">
        <ele>339</ele>
        <time>2018-10-06T09:31:43Z</time>
      </trkpt>
      <trkpt lat="45.99392" lon="4.90302">
        <ele>339</ele>
        <time>2018-10-06T09:31:44Z</time>
      </trkpt>
      <trkpt lat="45.99396" lon="4.90303">
        <ele>339</ele>
        <time>2018-10-06T09:31:45Z</time>
      </trkpt>
      <trkpt lat="45.99401" lon="4.90304">
        <ele>338</ele>
        <time>2018-10-06T09:31:46Z</time>
      </trkpt>
      <trkpt lat="45.99405" lon="4.90304">
        <ele>339</ele>
        <time>2018-10-06T09:31:47Z</time>
      </trkpt>
      <trkpt lat="45.9941" lon="4.90304">
        <ele>339</ele>
        <time>2018-10-06T09:31:48Z</time>
      </trkpt>
      <trkpt lat="45.99414" lon="4.90305">
        <ele>339</ele>
        <time>2018-10-06T09:31:49Z</time>
      </trkpt>
      <trkpt lat="45.99422" lon="4.90304">
        <ele>340</ele>
        <time>2018-10-06T09:31:51Z</time>
      </trkpt>
      <trkpt lat="45.99425" lon="4.90305">
        <ele>340</ele>
        <time>2018-10-06T09:31:52Z</time>
      </trkpt>
      <trkpt lat="45.99433" lon="4.90306">
        <ele>340</ele>
        <time>2018-10-06T09:31:54Z</time>
      </trkpt>
      <trkpt lat="45.99437" lon="4.90305">
        <ele>342</ele>
        <time>2018-10-06T09:31:55Z</time>
      </trkpt>
      <trkpt lat="45.99441" lon="4.90306">
        <ele>342</ele>
        <time>2018-10-06T09:31:56Z</time>
      </trkpt>
      <trkpt lat="45.99446" lon="4.90306">
        <ele>341</ele>
        <time>2018-10-06T09:31:57Z</time>
      </trkpt>
      <trkpt lat="45.99451" lon="4.90306">
        <ele>342</ele>
        <time>2018-10-06T09:31:58Z</time>
      </trkpt>
      <trkpt lat="45.99457" lon="4.90306">
        <ele>342</ele>
        <time>2018-10-06T09:31:59Z</time>
      </trkpt>
      <trkpt lat="45.99462" lon="4.90308">
        <ele>342</ele>
        <time>2018-10-06T09:32:00Z</time>
      </trkpt>
      <trkpt lat="45.99468" lon="4.90309">
        <ele>342</ele>
        <time>2018-10-06T09:32:01Z</time>
      </trkpt>
      <trkpt lat="45.99476" lon="4.90313">
        <ele>343</ele>
        <time>2018-10-06T09:32:03Z</time>
      </trkpt>
      <trkpt lat="45.9948" lon="4.90315">
        <ele>343</ele>
        <time>2018-10-06T09:32:04Z</time>
      </trkpt>
      <trkpt lat="45.99485" lon="4.90315">
        <ele>343</ele>
        <time>2018-10-06T09:32:05Z</time>
      </trkpt>
      <trkpt lat="45.9949" lon="4.90315">
        <ele>343</ele>
        <time>2018-10-06T09:32:06Z</time>
      </trkpt>
      <trkpt lat="45.99495" lon="4.90315">
        <ele>343</ele>
        <time>2018-10-06T09:32:07Z</time>
      </trkpt>
      <trkpt lat="45.995" lon="4.90316">
        <ele>343</ele>
        <time>2018-10-06T09:32:08Z</time>
      </trkpt>
      <trkpt lat="45.99508" lon="4.90315">
        <ele>343</ele>
        <time>2018-10-06T09:32:10Z</time>
      </trkpt>
      <trkpt lat="45.99511" lon="4.90316">
        <ele>341</ele>
        <time>2018-10-06T09:32:11Z</time>
      </trkpt>
      <trkpt lat="45.99516" lon="4.90315">
        <ele>343</ele>
        <time>2018-10-06T09:32:12Z</time>
      </trkpt>
      <trkpt lat="45.9952" lon="4.90315">
        <ele>342</ele>
        <time>2018-10-06T09:32:13Z</time>
      </trkpt>
      <trkpt lat="45.99527" lon="4.90319">
        <ele>343</ele>
        <time>2018-10-06T09:32:15Z</time>
      </trkpt>
      <trkpt lat="45.99531" lon="4.9032">
        <ele>344</ele>
        <time>2018-10-06T09:32:16Z</time>
      </trkpt>
      <trkpt lat="45.9954" lon="4.90321">
        <ele>346</ele>
        <time>2018-10-06T09:32:18Z</time>
      </trkpt>
      <trkpt lat="45.99544" lon="4.90321">
        <ele>346</ele>
        <time>2018-10-06T09:32:19Z</time>
      </trkpt>
      <trkpt lat="45.99552" lon="4.90322">
        <ele>350</ele>
        <time>2018-10-06T09:32:21Z</time>
      </trkpt>
      <trkpt lat="45.99554" lon="4.90323">
        <ele>350</ele>
        <time>2018-10-06T09:32:22Z</time>
      </trkpt>
      <trkpt lat="45.99562" lon="4.90322">
        <ele>348</ele>
        <time>2018-10-06T09:32:26Z</time>
      </trkpt>
      <trkpt lat="45.99564" lon="4.90322">
        <ele>348</ele>
        <time>2018-10-06T09:32:27Z</time>
      </trkpt>
      <trkpt lat="45.99572" lon="4.90322">
        <ele>349</ele>
        <time>2018-10-06T09:32:30Z</time>
      </trkpt>
      <trkpt lat="45.99575" lon="4.90322">
        <ele>349</ele>
        <time>2018-10-06T09:32:31Z</time>
      </trkpt>
      <trkpt lat="45.99583" lon="4.90323">
        <ele>352</ele>
        <time>2018-10-06T09:32:34Z</time>
      </trkpt>
      <trkpt lat="45.99585" lon="4.90324">
        <ele>352</ele>
        <time>2018-10-06T09:32:35Z</time>
      </trkpt>
      <trkpt lat="45.99591" lon="4.90325">
        <ele>354</ele>
        <time>2018-10-06T09:32:37Z</time>
      </trkpt>
      <trkpt lat="45.99601" lon="4.90325">
        <ele>354</ele>
        <time>2018-10-06T09:32:38Z</time>
      </trkpt>
      <trkpt lat="45.99609" lon="4.90324">
        <ele>355</ele>
        <time>2018-10-06T09:32:40Z</time>
      </trkpt>
      <trkpt lat="45.99613" lon="4.90324">
        <ele>355</ele>
        <time>2018-10-06T09:32:41Z</time>
      </trkpt>
      <trkpt lat="45.9962" lon="4.90325">
        <ele>355</ele>
        <time>2018-10-06T09:32:43Z</time>
      </trkpt>
      <trkpt lat="45.99625" lon="4.90327">
        <ele>355</ele>
        <time>2018-10-06T09:32:44Z</time>
      </trkpt>
      <trkpt lat="45.9963" lon="4.90328">
        <ele>355</ele>
        <time>2018-10-06T09:32:45Z</time>
      </trkpt>
      <trkpt lat="45.99636" lon="4.90333">
        <ele>355</ele>
        <time>2018-10-06T09:32:46Z</time>
      </trkpt>
      <trkpt lat="45.99641" lon="4.90333">
        <ele>356</ele>
        <time>2018-10-06T09:32:47Z</time>
      </trkpt>
      <trkpt lat="45.99646" lon="4.90333">
        <ele>356</ele>
        <time>2018-10-06T09:32:48Z</time>
      </trkpt>
      <trkpt lat="45.9965" lon="4.90333">
        <ele>356</ele>
        <time>2018-10-06T09:32:49Z</time>
      </trkpt>
      <trkpt lat="45.99656" lon="4.90333">
        <ele>355</ele>
        <time>2018-10-06T09:32:50Z</time>
      </trkpt>
      <trkpt lat="45.99664" lon="4.90333">
        <ele>356</ele>
        <time>2018-10-06T09:32:53Z</time>
      </trkpt>
      <trkpt lat="45.99667" lon="4.90334">
        <ele>356</ele>
        <time>2018-10-06T09:32:54Z</time>
      </trkpt>
      <trkpt lat="45.99675" lon="4.90332">
        <ele>358</ele>
        <time>2018-10-06T09:32:58Z</time>
      </trkpt>
      <trkpt lat="45.99676" lon="4.90329">
        <ele>356</ele>
        <time>2018-10-06T09:32:59Z</time>
      </trkpt>
      <trkpt lat="45.99677" lon="4.90317">
        <ele>362</ele>
        <time>2018-10-06T09:33:03Z</time>
      </trkpt>
      <trkpt lat="45.99678" lon="4.90303">
        <ele>363</ele>
        <time>2018-10-06T09:33:04Z</time>
      </trkpt>
      <trkpt lat="45.9968" lon="4.90291">
        <ele>365</ele>
        <time>2018-10-06T09:33:08Z</time>
      </trkpt>
      <trkpt lat="45.99681" lon="4.90288">
        <ele>365</ele>
        <time>2018-10-06T09:33:09Z</time>
      </trkpt>
      <trkpt lat="45.99682" lon="4.90277">
        <ele>362</ele>
        <time>2018-10-06T09:33:12Z</time>
      </trkpt>
      <trkpt lat="45.99682" lon="4.90272">
        <ele>362</ele>
        <time>2018-10-06T09:33:13Z</time>
      </trkpt>
      <trkpt lat="45.99682" lon="4.90267">
        <ele>363</ele>
        <time>2018-10-06T09:33:14Z</time>
      </trkpt>
      <trkpt lat="45.99681" lon="4.9025">
        <ele>363</ele>
        <time>2018-10-06T09:33:15Z</time>
      </trkpt>
      <trkpt lat="45.9968" lon="4.90243">
        <ele>363</ele>
        <time>2018-10-06T09:33:16Z</time>
      </trkpt>
      <trkpt lat="45.99678" lon="4.90237">
        <ele>363</ele>
        <time>2018-10-06T09:33:17Z</time>
      </trkpt>
      <trkpt lat="45.99674" lon="4.90225">
        <ele>366</ele>
        <time>2018-10-06T09:33:19Z</time>
      </trkpt>
      <trkpt lat="45.99673" lon="4.90219">
        <ele>366</ele>
        <time>2018-10-06T09:33:20Z</time>
      </trkpt>
      <trkpt lat="45.99672" lon="4.90212">
        <ele>366</ele>
        <time>2018-10-06T09:33:21Z</time>
      </trkpt>
      <trkpt lat="45.99672" lon="4.90205">
        <ele>366</ele>
        <time>2018-10-06T09:33:22Z</time>
      </trkpt>
      <trkpt lat="45.9967" lon="4.90197">
        <ele>367</ele>
        <time>2018-10-06T09:33:23Z</time>
      </trkpt>
      <trkpt lat="45.99667" lon="4.9019">
        <ele>368</ele>
        <time>2018-10-06T09:33:24Z</time>
      </trkpt>
      <trkpt lat="45.99664" lon="4.90181">
        <ele>368</ele>
        <time>2018-10-06T09:33:25Z</time>
      </trkpt>
      <trkpt lat="45.99665" lon="4.90172">
        <ele>364</ele>
        <time>2018-10-06T09:33:26Z</time>
      </trkpt>
      <trkpt lat="45.99662" lon="4.90163">
        <ele>364</ele>
        <time>2018-10-06T09:33:27Z</time>
      </trkpt>
      <trkpt lat="45.9966" lon="4.90154">
        <ele>366</ele>
        <time>2018-10-06T09:33:28Z</time>
      </trkpt>
      <trkpt lat="45.99657" lon="4.90144">
        <ele>365</ele>
        <time>2018-10-06T09:33:29Z</time>
      </trkpt>
      <trkpt lat="45.99654" lon="4.90134">
        <ele>365</ele>
        <time>2018-10-06T09:33:30Z</time>
      </trkpt>
      <trkpt lat="45.99651" lon="4.90122">
        <ele>364</ele>
        <time>2018-10-06T09:33:31Z</time>
      </trkpt>
      <trkpt lat="45.99648" lon="4.90111">
        <ele>362</ele>
        <time>2018-10-06T09:33:32Z</time>
      </trkpt>
      <trkpt lat="45.99644" lon="4.901">
        <ele>364</ele>
        <time>2018-10-06T09:33:33Z</time>
      </trkpt>
      <trkpt lat="45.99642" lon="4.9009">
        <ele>365</ele>
        <time>2018-10-06T09:33:34Z</time>
      </trkpt>
      <trkpt lat="45.99637" lon="4.90079">
        <ele>362</ele>
        <time>2018-10-06T09:33:35Z</time>
      </trkpt>
      <trkpt lat="45.99633" lon="4.90069">
        <ele>361</ele>
        <time>2018-10-06T09:33:36Z</time>
      </trkpt>
      <trkpt lat="45.99629" lon="4.90059">
        <ele>357</ele>
        <time>2018-10-06T09:33:37Z</time>
      </trkpt>
      <trkpt lat="45.99625" lon="4.9005">
        <ele>356</ele>
        <time>2018-10-06T09:33:38Z</time>
      </trkpt>
      <trkpt lat="45.99621" lon="4.90041">
        <ele>357</ele>
        <time>2018-10-06T09:33:39Z</time>
      </trkpt>
      <trkpt lat="45.99617" lon="4.90031">
        <ele>356</ele>
        <time>2018-10-06T09:33:40Z</time>
      </trkpt>
      <trkpt lat="45.99615" lon="4.90019">
        <ele>355</ele>
        <time>2018-10-06T09:33:41Z</time>
      </trkpt>
      <trkpt lat="45.99612" lon="4.90008">
        <ele>354</ele>
        <time>2018-10-06T09:33:42Z</time>
      </trkpt>
      <trkpt lat="45.9961" lon="4.89997">
        <ele>353</ele>
        <time>2018-10-06T09:33:43Z</time>
      </trkpt>
      <trkpt lat="45.99609" lon="4.89986">
        <ele>352</ele>
        <time>2018-10-06T09:33:44Z</time>
      </trkpt>
      <trkpt lat="45.99608" lon="4.89974">
        <ele>352</ele>
        <time>2018-10-06T09:33:45Z</time>
      </trkpt>
      <trkpt lat="45.99606" lon="4.89963">
        <ele>352</ele>
        <time>2018-10-06T09:33:46Z</time>
      </trkpt>
      <trkpt lat="45.99606" lon="4.89954">
        <ele>352</ele>
        <time>2018-10-06T09:33:47Z</time>
      </trkpt>
      <trkpt lat="45.99605" lon="4.89944">
        <ele>354</ele>
        <time>2018-10-06T09:33:48Z</time>
      </trkpt>
      <trkpt lat="45.99604" lon="4.89933">
        <ele>353</ele>
        <time>2018-10-06T09:33:49Z</time>
      </trkpt>
      <trkpt lat="45.99603" lon="4.89923">
        <ele>353</ele>
        <time>2018-10-06T09:33:50Z</time>
      </trkpt>
      <trkpt lat="45.99602" lon="4.89913">
        <ele>351</ele>
        <time>2018-10-06T09:33:51Z</time>
      </trkpt>
      <trkpt lat="45.99602" lon="4.89904">
        <ele>351</ele>
        <time>2018-10-06T09:33:52Z</time>
      </trkpt>
      <trkpt lat="45.99602" lon="4.89894">
        <ele>349</ele>
        <time>2018-10-06T09:33:53Z</time>
      </trkpt>
      <trkpt lat="45.99601" lon="4.89885">
        <ele>348</ele>
        <time>2018-10-06T09:33:54Z</time>
      </trkpt>
      <trkpt lat="45.99602" lon="4.89875">
        <ele>350</ele>
        <time>2018-10-06T09:33:55Z</time>
      </trkpt>
      <trkpt lat="45.99602" lon="4.89864">
        <ele>348</ele>
        <time>2018-10-06T09:33:56Z</time>
      </trkpt>
      <trkpt lat="45.99601" lon="4.89857">
        <ele>348</ele>
        <time>2018-10-06T09:33:57Z</time>
      </trkpt>
      <trkpt lat="45.99601" lon="4.89847">
        <ele>348</ele>
        <time>2018-10-06T09:33:58Z</time>
      </trkpt>
      <trkpt lat="45.99602" lon="4.89837">
        <ele>345</ele>
        <time>2018-10-06T09:33:59Z</time>
      </trkpt>
      <trkpt lat="45.99602" lon="4.89828">
        <ele>344</ele>
        <time>2018-10-06T09:34:00Z</time>
      </trkpt>
      <trkpt lat="45.99604" lon="4.8982">
        <ele>345</ele>
        <time>2018-10-06T09:34:01Z</time>
      </trkpt>
      <trkpt lat="45.99605" lon="4.89811">
        <ele>345</ele>
        <time>2018-10-06T09:34:02Z</time>
      </trkpt>
      <trkpt lat="45.99605" lon="4.89803">
        <ele>345</ele>
        <time>2018-10-06T09:34:03Z</time>
      </trkpt>
      <trkpt lat="45.99606" lon="4.89792">
        <ele>344</ele>
        <time>2018-10-06T09:34:04Z</time>
      </trkpt>
      <trkpt lat="45.99606" lon="4.89785">
        <ele>342</ele>
        <time>2018-10-06T09:34:05Z</time>
      </trkpt>
      <trkpt lat="45.99607" lon="4.89778">
        <ele>344</ele>
        <time>2018-10-06T09:34:06Z</time>
      </trkpt>
      <trkpt lat="45.99606" lon="4.89769">
        <ele>341</ele>
        <time>2018-10-06T09:34:07Z</time>
      </trkpt>
      <trkpt lat="45.99607" lon="4.89762">
        <ele>342</ele>
        <time>2018-10-06T09:34:08Z</time>
      </trkpt>
      <trkpt lat="45.99607" lon="4.89757">
        <ele>342</ele>
        <time>2018-10-06T09:34:09Z</time>
      </trkpt>
      <trkpt lat="45.99606" lon="4.89748">
        <ele>341</ele>
        <time>2018-10-06T09:34:10Z</time>
      </trkpt>
      <trkpt lat="45.99606" lon="4.8974">
        <ele>340</ele>
        <time>2018-10-06T09:34:11Z</time>
      </trkpt>
      <trkpt lat="45.99606" lon="4.89733">
        <ele>340</ele>
        <time>2018-10-06T09:34:12Z</time>
      </trkpt>
      <trkpt lat="45.99606" lon="4.89727">
        <ele>341</ele>
        <time>2018-10-06T09:34:14Z</time>
      </trkpt>
      <trkpt lat="45.99607" lon="4.89717">
        <ele>342</ele>
        <time>2018-10-06T09:34:15Z</time>
      </trkpt>
      <trkpt lat="45.99615" lon="4.89703">
        <ele>338</ele>
        <time>2018-10-06T09:34:16Z</time>
      </trkpt>
      <trkpt lat="45.99614" lon="4.89694">
        <ele>339</ele>
        <time>2018-10-06T09:34:17Z</time>
      </trkpt>
      <trkpt lat="45.99614" lon="4.89685">
        <ele>338</ele>
        <time>2018-10-06T09:34:18Z</time>
      </trkpt>
      <trkpt lat="45.99611" lon="4.89673">
        <ele>340</ele>
        <time>2018-10-06T09:34:19Z</time>
      </trkpt>
      <trkpt lat="45.99611" lon="4.89664">
        <ele>341</ele>
        <time>2018-10-06T09:34:20Z</time>
      </trkpt>
      <trkpt lat="45.99611" lon="4.89655">
        <ele>341</ele>
        <time>2018-10-06T09:34:21Z</time>
      </trkpt>
      <trkpt lat="45.9961" lon="4.89646">
        <ele>341</ele>
        <time>2018-10-06T09:34:22Z</time>
      </trkpt>
      <trkpt lat="45.99609" lon="4.89637">
        <ele>342</ele>
        <time>2018-10-06T09:34:23Z</time>
      </trkpt>
      <trkpt lat="45.99609" lon="4.89627">
        <ele>344</ele>
        <time>2018-10-06T09:34:24Z</time>
      </trkpt>
      <trkpt lat="45.99609" lon="4.89619">
        <ele>347</ele>
        <time>2018-10-06T09:34:25Z</time>
      </trkpt>
      <trkpt lat="45.9961" lon="4.8961">
        <ele>347</ele>
        <time>2018-10-06T09:34:26Z</time>
      </trkpt>
      <trkpt lat="45.99607" lon="4.89601">
        <ele>346</ele>
        <time>2018-10-06T09:34:27Z</time>
      </trkpt>
      <trkpt lat="45.99607" lon="4.89593">
        <ele>345</ele>
        <time>2018-10-06T09:34:28Z</time>
      </trkpt>
      <trkpt lat="45.99607" lon="4.89585">
        <ele>345</ele>
        <time>2018-10-06T09:34:29Z</time>
      </trkpt>
      <trkpt lat="45.99606" lon="4.89578">
        <ele>345</ele>
        <time>2018-10-06T09:34:30Z</time>
      </trkpt>
      <trkpt lat="45.99603" lon="4.8957">
        <ele>344</ele>
        <time>2018-10-06T09:34:31Z</time>
      </trkpt>
      <trkpt lat="45.99603" lon="4.89562">
        <ele>344</ele>
        <time>2018-10-06T09:34:32Z</time>
      </trkpt>
      <trkpt lat="45.99602" lon="4.89554">
        <ele>345</ele>
        <time>2018-10-06T09:34:33Z</time>
      </trkpt>
      <trkpt lat="45.996" lon="4.89544">
        <ele>344</ele>
        <time>2018-10-06T09:34:34Z</time>
      </trkpt>
      <trkpt lat="45.996" lon="4.89535">
        <ele>345</ele>
        <time>2018-10-06T09:34:35Z</time>
      </trkpt>
      <trkpt lat="45.99601" lon="4.89524">
        <ele>345</ele>
        <time>2018-10-06T09:34:36Z</time>
      </trkpt>
      <trkpt lat="45.996" lon="4.89514">
        <ele>343</ele>
        <time>2018-10-06T09:34:37Z</time>
      </trkpt>
      <trkpt lat="45.99599" lon="4.89506">
        <ele>343</ele>
        <time>2018-10-06T09:34:38Z</time>
      </trkpt>
      <trkpt lat="45.99599" lon="4.89496">
        <ele>344</ele>
        <time>2018-10-06T09:34:39Z</time>
      </trkpt>
      <trkpt lat="45.99597" lon="4.89488">
        <ele>320</ele>
        <time>2018-10-06T09:34:40Z</time>
      </trkpt>
      <trkpt lat="45.99596" lon="4.89479">
        <ele>327</ele>
        <time>2018-10-06T09:34:41Z</time>
      </trkpt>
      <trkpt lat="45.99595" lon="4.89471">
        <ele>331</ele>
        <time>2018-10-06T09:34:42Z</time>
      </trkpt>
      <trkpt lat="45.99594" lon="4.89464">
        <ele>333</ele>
        <time>2018-10-06T09:34:43Z</time>
      </trkpt>
      <trkpt lat="45.99593" lon="4.89457">
        <ele>334</ele>
        <time>2018-10-06T09:34:44Z</time>
      </trkpt>
      <trkpt lat="45.99593" lon="4.8945">
        <ele>336</ele>
        <time>2018-10-06T09:34:45Z</time>
      </trkpt>
      <trkpt lat="45.99592" lon="4.89441">
        <ele>337</ele>
        <time>2018-10-06T09:34:46Z</time>
      </trkpt>
      <trkpt lat="45.99592" lon="4.89433">
        <ele>337</ele>
        <time>2018-10-06T09:34:47Z</time>
      </trkpt>
      <trkpt lat="45.99592" lon="4.89425">
        <ele>338</ele>
        <time>2018-10-06T09:34:48Z</time>
      </trkpt>
      <trkpt lat="45.99591" lon="4.89417">
        <ele>326</ele>
        <time>2018-10-06T09:34:49Z</time>
      </trkpt>
      <trkpt lat="45.99591" lon="4.89409">
        <ele>331</ele>
        <time>2018-10-06T09:34:50Z</time>
      </trkpt>
      <trkpt lat="45.9959" lon="4.894">
        <ele>333</ele>
        <time>2018-10-06T09:34:51Z</time>
      </trkpt>
      <trkpt lat="45.99589" lon="4.89391">
        <ele>334</ele>
        <time>2018-10-06T09:34:52Z</time>
      </trkpt>
      <trkpt lat="45.99589" lon="4.89382">
        <ele>336</ele>
        <time>2018-10-06T09:34:53Z</time>
      </trkpt>
      <trkpt lat="45.99588" lon="4.89373">
        <ele>338</ele>
        <time>2018-10-06T09:34:54Z</time>
      </trkpt>
      <trkpt lat="45.99588" lon="4.89365">
        <ele>338</ele>
        <time>2018-10-06T09:34:55Z</time>
      </trkpt>
      <trkpt lat="45.99587" lon="4.89356">
        <ele>338</ele>
        <time>2018-10-06T09:34:56Z</time>
      </trkpt>
      <trkpt lat="45.99587" lon="4.89347">
        <ele>339</ele>
        <time>2018-10-06T09:34:57Z</time>
      </trkpt>
      <trkpt lat="45.99587" lon="4.8934">
        <ele>339</ele>
        <time>2018-10-06T09:34:58Z</time>
      </trkpt>
      <trkpt lat="45.99587" lon="4.89331">
        <ele>338</ele>
        <time>2018-10-06T09:34:59Z</time>
      </trkpt>
      <trkpt lat="45.99585" lon="4.89322">
        <ele>338</ele>
        <time>2018-10-06T09:35:00Z</time>
      </trkpt>
      <trkpt lat="45.99585" lon="4.89313">
        <ele>338</ele>
        <time>2018-10-06T09:35:01Z</time>
      </trkpt>
      <trkpt lat="45.99584" lon="4.89305">
        <ele>338</ele>
        <time>2018-10-06T09:35:02Z</time>
      </trkpt>
      <trkpt lat="45.99583" lon="4.89296">
        <ele>337</ele>
        <time>2018-10-06T09:35:03Z</time>
      </trkpt>
      <trkpt lat="45.99583" lon="4.89288">
        <ele>337</ele>
        <time>2018-10-06T09:35:04Z</time>
      </trkpt>
      <trkpt lat="45.99582" lon="4.8928">
        <ele>313</ele>
        <time>2018-10-06T09:35:05Z</time>
      </trkpt>
      <trkpt lat="45.99582" lon="4.89271">
        <ele>319</ele>
        <time>2018-10-06T09:35:06Z</time>
      </trkpt>
      <trkpt lat="45.99582" lon="4.89263">
        <ele>322</ele>
        <time>2018-10-06T09:35:07Z</time>
      </trkpt>
      <trkpt lat="45.99582" lon="4.89255">
        <ele>326</ele>
        <time>2018-10-06T09:35:08Z</time>
      </trkpt>
      <trkpt lat="45.99582" lon="4.89248">
        <ele>329</ele>
        <time>2018-10-06T09:35:09Z</time>
      </trkpt>
      <trkpt lat="45.99582" lon="4.8924">
        <ele>330</ele>
        <time>2018-10-06T09:35:10Z</time>
      </trkpt>
      <trkpt lat="45.99581" lon="4.89232">
        <ele>332</ele>
        <time>2018-10-06T09:35:11Z</time>
      </trkpt>
      <trkpt lat="45.9958" lon="4.89224">
        <ele>334</ele>
        <time>2018-10-06T09:35:12Z</time>
      </trkpt>
      <trkpt lat="45.99579" lon="4.89217">
        <ele>334</ele>
        <time>2018-10-06T09:35:13Z</time>
      </trkpt>
      <trkpt lat="45.99578" lon="4.89208">
        <ele>334</ele>
        <time>2018-10-06T09:35:14Z</time>
      </trkpt>
      <trkpt lat="45.99578" lon="4.892">
        <ele>336</ele>
        <time>2018-10-06T09:35:15Z</time>
      </trkpt>
      <trkpt lat="45.99578" lon="4.89191">
        <ele>336</ele>
        <time>2018-10-06T09:35:16Z</time>
      </trkpt>
      <trkpt lat="45.99577" lon="4.89182">
        <ele>336</ele>
        <time>2018-10-06T09:35:17Z</time>
      </trkpt>
      <trkpt lat="45.99576" lon="4.89174">
        <ele>336</ele>
        <time>2018-10-06T09:35:18Z</time>
      </trkpt>
      <trkpt lat="45.99576" lon="4.89165">
        <ele>336</ele>
        <time>2018-10-06T09:35:19Z</time>
      </trkpt>
      <trkpt lat="45.99576" lon="4.89158">
        <ele>336</ele>
        <time>2018-10-06T09:35:20Z</time>
      </trkpt>
      <trkpt lat="45.99576" lon="4.8915">
        <ele>335</ele>
        <time>2018-10-06T09:35:21Z</time>
      </trkpt>
      <trkpt lat="45.99577" lon="4.89143">
        <ele>340</ele>
        <time>2018-10-06T09:35:22Z</time>
      </trkpt>
      <trkpt lat="45.99577" lon="4.89135">
        <ele>340</ele>
        <time>2018-10-06T09:35:23Z</time>
      </trkpt>
      <trkpt lat="45.99577" lon="4.89128">
        <ele>340</ele>
        <time>2018-10-06T09:35:24Z</time>
      </trkpt>
      <trkpt lat="45.99578" lon="4.89122">
        <ele>343</ele>
        <time>2018-10-06T09:35:25Z</time>
      </trkpt>
      <trkpt lat="45.9958" lon="4.89112">
        <ele>345</ele>
        <time>2018-10-06T09:35:27Z</time>
      </trkpt>
      <trkpt lat="45.9958" lon="4.89102">
        <ele>345</ele>
        <time>2018-10-06T09:35:28Z</time>
      </trkpt>
      <trkpt lat="45.9958" lon="4.89094">
        <ele>346</ele>
        <time>2018-10-06T09:35:29Z</time>
      </trkpt>
      <trkpt lat="45.9958" lon="4.89085">
        <ele>346</ele>
        <time>2018-10-06T09:35:30Z</time>
      </trkpt>
      <trkpt lat="45.99581" lon="4.89075">
        <ele>345</ele>
        <time>2018-10-06T09:35:31Z</time>
      </trkpt>
      <trkpt lat="45.99583" lon="4.89063">
        <ele>345</ele>
        <time>2018-10-06T09:35:32Z</time>
      </trkpt>
      <trkpt lat="45.99584" lon="4.89053">
        <ele>345</ele>
        <time>2018-10-06T09:35:33Z</time>
      </trkpt>
      <trkpt lat="45.99584" lon="4.89041">
        <ele>343</ele>
        <time>2018-10-06T09:35:34Z</time>
      </trkpt>
      <trkpt lat="45.99585" lon="4.89031">
        <ele>341</ele>
        <time>2018-10-06T09:35:35Z</time>
      </trkpt>
      <trkpt lat="45.99585" lon="4.89022">
        <ele>340</ele>
        <time>2018-10-06T09:35:36Z</time>
      </trkpt>
      <trkpt lat="45.99585" lon="4.89012">
        <ele>339</ele>
        <time>2018-10-06T09:35:37Z</time>
      </trkpt>
      <trkpt lat="45.99586" lon="4.89003">
        <ele>340</ele>
        <time>2018-10-06T09:35:38Z</time>
      </trkpt>
      <trkpt lat="45.99585" lon="4.88996">
        <ele>338</ele>
        <time>2018-10-06T09:35:39Z</time>
      </trkpt>
      <trkpt lat="45.99585" lon="4.88986">
        <ele>339</ele>
        <time>2018-10-06T09:35:40Z</time>
      </trkpt>
      <trkpt lat="45.99585" lon="4.88978">
        <ele>341</ele>
        <time>2018-10-06T09:35:41Z</time>
      </trkpt>
      <trkpt lat="45.99585" lon="4.8897">
        <ele>341</ele>
        <time>2018-10-06T09:35:42Z</time>
      </trkpt>
      <trkpt lat="45.99584" lon="4.88963">
        <ele>342</ele>
        <time>2018-10-06T09:35:43Z</time>
      </trkpt>
      <trkpt lat="45.99584" lon="4.88956">
        <ele>341</ele>
        <time>2018-10-06T09:35:44Z</time>
      </trkpt>
      <trkpt lat="45.99582" lon="4.88946">
        <ele>342</ele>
        <time>2018-10-06T09:35:45Z</time>
      </trkpt>
      <trkpt lat="45.99582" lon="4.88937">
        <ele>342</ele>
        <time>2018-10-06T09:35:46Z</time>
      </trkpt>
      <trkpt lat="45.99581" lon="4.88929">
        <ele>343</ele>
        <time>2018-10-06T09:35:47Z</time>
      </trkpt>
      <trkpt lat="45.9958" lon="4.88919">
        <ele>342</ele>
        <time>2018-10-06T09:35:48Z</time>
      </trkpt>
      <trkpt lat="45.9958" lon="4.8891">
        <ele>341</ele>
        <time>2018-10-06T09:35:49Z</time>
      </trkpt>
      <trkpt lat="45.99578" lon="4.88901">
        <ele>341</ele>
        <time>2018-10-06T09:35:50Z</time>
      </trkpt>
      <trkpt lat="45.99577" lon="4.88891">
        <ele>341</ele>
        <time>2018-10-06T09:35:51Z</time>
      </trkpt>
      <trkpt lat="45.99576" lon="4.8888">
        <ele>339</ele>
        <time>2018-10-06T09:35:52Z</time>
      </trkpt>
      <trkpt lat="45.99575" lon="4.88871">
        <ele>341</ele>
        <time>2018-10-06T09:35:53Z</time>
      </trkpt>
      <trkpt lat="45.99574" lon="4.88861">
        <ele>339</ele>
        <time>2018-10-06T09:35:54Z</time>
      </trkpt>
      <trkpt lat="45.99572" lon="4.88853">
        <ele>339</ele>
        <time>2018-10-06T09:35:55Z</time>
      </trkpt>
      <trkpt lat="45.99571" lon="4.88843">
        <ele>339</ele>
        <time>2018-10-06T09:35:56Z</time>
      </trkpt>
      <trkpt lat="45.9957" lon="4.88834">
        <ele>340</ele>
        <time>2018-10-06T09:35:57Z</time>
      </trkpt>
      <trkpt lat="45.9957" lon="4.88825">
        <ele>340</ele>
        <time>2018-10-06T09:35:58Z</time>
      </trkpt>
      <trkpt lat="45.99569" lon="4.88816">
        <ele>341</ele>
        <time>2018-10-06T09:35:59Z</time>
      </trkpt>
      <trkpt lat="45.99568" lon="4.88807">
        <ele>340</ele>
        <time>2018-10-06T09:36:00Z</time>
      </trkpt>
      <trkpt lat="45.99567" lon="4.88797">
        <ele>343</ele>
        <time>2018-10-06T09:36:01Z</time>
      </trkpt>
      <trkpt lat="45.99566" lon="4.88786">
        <ele>343</ele>
        <time>2018-10-06T09:36:02Z</time>
      </trkpt>
      <trkpt lat="45.99566" lon="4.88774">
        <ele>342</ele>
        <time>2018-10-06T09:36:03Z</time>
      </trkpt>
      <trkpt lat="45.99566" lon="4.88763">
        <ele>342</ele>
        <time>2018-10-06T09:36:04Z</time>
      </trkpt>
      <trkpt lat="45.99565" lon="4.88753">
        <ele>343</ele>
        <time>2018-10-06T09:36:05Z</time>
      </trkpt>
      <trkpt lat="45.99565" lon="4.88744">
        <ele>344</ele>
        <time>2018-10-06T09:36:06Z</time>
      </trkpt>
      <trkpt lat="45.99563" lon="4.88734">
        <ele>342</ele>
        <time>2018-10-06T09:36:07Z</time>
      </trkpt>
      <trkpt lat="45.99562" lon="4.88724">
        <ele>342</ele>
        <time>2018-10-06T09:36:08Z</time>
      </trkpt>
      <trkpt lat="45.99561" lon="4.88715">
        <ele>344</ele>
        <time>2018-10-06T09:36:09Z</time>
      </trkpt>
      <trkpt lat="45.99559" lon="4.88706">
        <ele>343</ele>
        <time>2018-10-06T09:36:10Z</time>
      </trkpt>
      <trkpt lat="45.99559" lon="4.88696">
        <ele>343</ele>
        <time>2018-10-06T09:36:11Z</time>
      </trkpt>
      <trkpt lat="45.99557" lon="4.88687">
        <ele>343</ele>
        <time>2018-10-06T09:36:12Z</time>
      </trkpt>
      <trkpt lat="45.99556" lon="4.88679">
        <ele>341</ele>
        <time>2018-10-06T09:36:13Z</time>
      </trkpt>
      <trkpt lat="45.99554" lon="4.8867">
        <ele>340</ele>
        <time>2018-10-06T09:36:14Z</time>
      </trkpt>
      <trkpt lat="45.99553" lon="4.88661">
        <ele>340</ele>
        <time>2018-10-06T09:36:15Z</time>
      </trkpt>
      <trkpt lat="45.99553" lon="4.88652">
        <ele>339</ele>
        <time>2018-10-06T09:36:16Z</time>
      </trkpt>
      <trkpt lat="45.99552" lon="4.88643">
        <ele>339</ele>
        <time>2018-10-06T09:36:17Z</time>
      </trkpt>
      <trkpt lat="45.99551" lon="4.88633">
        <ele>338</ele>
        <time>2018-10-06T09:36:18Z</time>
      </trkpt>
      <trkpt lat="45.9955" lon="4.88624">
        <ele>339</ele>
        <time>2018-10-06T09:36:19Z</time>
      </trkpt>
      <trkpt lat="45.99549" lon="4.88613">
        <ele>336</ele>
        <time>2018-10-06T09:36:20Z</time>
      </trkpt>
      <trkpt lat="45.99548" lon="4.88605">
        <ele>336</ele>
        <time>2018-10-06T09:36:21Z</time>
      </trkpt>
      <trkpt lat="45.99547" lon="4.88596">
        <ele>336</ele>
        <time>2018-10-06T09:36:22Z</time>
      </trkpt>
      <trkpt lat="45.99545" lon="4.88586">
        <ele>333</ele>
        <time>2018-10-06T09:36:23Z</time>
      </trkpt>
      <trkpt lat="45.99543" lon="4.88578">
        <ele>333</ele>
        <time>2018-10-06T09:36:24Z</time>
      </trkpt>
      <trkpt lat="45.99541" lon="4.8857">
        <ele>333</ele>
        <time>2018-10-06T09:36:25Z</time>
      </trkpt>
      <trkpt lat="45.99539" lon="4.88562">
        <ele>332</ele>
        <time>2018-10-06T09:36:26Z</time>
      </trkpt>
      <trkpt lat="45.99536" lon="4.88554">
        <ele>332</ele>
        <time>2018-10-06T09:36:27Z</time>
      </trkpt>
      <trkpt lat="45.99533" lon="4.88546">
        <ele>333</ele>
        <time>2018-10-06T09:36:28Z</time>
      </trkpt>
      <trkpt lat="45.9953" lon="4.88538">
        <ele>331</ele>
        <time>2018-10-06T09:36:29Z</time>
      </trkpt>
      <trkpt lat="45.99527" lon="4.88531">
        <ele>332</ele>
        <time>2018-10-06T09:36:30Z</time>
      </trkpt>
      <trkpt lat="45.99523" lon="4.88523">
        <ele>332</ele>
        <time>2018-10-06T09:36:31Z</time>
      </trkpt>
      <trkpt lat="45.99519" lon="4.88516">
        <ele>332</ele>
        <time>2018-10-06T09:36:32Z</time>
      </trkpt>
      <trkpt lat="45.99515" lon="4.88508">
        <ele>332</ele>
        <time>2018-10-06T09:36:33Z</time>
      </trkpt>
      <trkpt lat="45.9951" lon="4.88503">
        <ele>333</ele>
        <time>2018-10-06T09:36:34Z</time>
      </trkpt>
      <trkpt lat="45.99506" lon="4.88496">
        <ele>333</ele>
        <time>2018-10-06T09:36:35Z</time>
      </trkpt>
      <trkpt lat="45.99501" lon="4.8849">
        <ele>334</ele>
        <time>2018-10-06T09:36:36Z</time>
      </trkpt>
      <trkpt lat="45.99497" lon="4.88483">
        <ele>334</ele>
        <time>2018-10-06T09:36:37Z</time>
      </trkpt>
      <trkpt lat="45.99493" lon="4.88477">
        <ele>334</ele>
        <time>2018-10-06T09:36:38Z</time>
      </trkpt>
      <trkpt lat="45.99489" lon="4.88469">
        <ele>334</ele>
        <time>2018-10-06T09:36:39Z</time>
      </trkpt>
      <trkpt lat="45.99485" lon="4.88462">
        <ele>335</ele>
        <time>2018-10-06T09:36:40Z</time>
      </trkpt>
      <trkpt lat="45.99481" lon="4.88454">
        <ele>334</ele>
        <time>2018-10-06T09:36:41Z</time>
      </trkpt>
      <trkpt lat="45.99477" lon="4.88448">
        <ele>334</ele>
        <time>2018-10-06T09:36:42Z</time>
      </trkpt>
      <trkpt lat="45.99473" lon="4.88442">
        <ele>335</ele>
        <time>2018-10-06T09:36:43Z</time>
      </trkpt>
      <trkpt lat="45.9947" lon="4.88437">
        <ele>336</ele>
        <time>2018-10-06T09:36:44Z</time>
      </trkpt>
      <trkpt lat="45.99467" lon="4.88432">
        <ele>336</ele>
        <time>2018-10-06T09:36:45Z</time>
      </trkpt>
      <trkpt lat="45.99462" lon="4.88427">
        <ele>336</ele>
        <time>2018-10-06T09:36:46Z</time>
      </trkpt>
      <trkpt lat="45.99458" lon="4.88422">
        <ele>336</ele>
        <time>2018-10-06T09:36:47Z</time>
      </trkpt>
      <trkpt lat="45.99455" lon="4.88419">
        <ele>335</ele>
        <time>2018-10-06T09:36:48Z</time>
      </trkpt>
      <trkpt lat="45.99449" lon="4.88416">
        <ele>336</ele>
        <time>2018-10-06T09:36:49Z</time>
      </trkpt>
      <trkpt lat="45.99446" lon="4.88413">
        <ele>336</ele>
        <time>2018-10-06T09:36:50Z</time>
      </trkpt>
      <trkpt lat="45.99443" lon="4.88408">
        <ele>337</ele>
        <time>2018-10-06T09:36:51Z</time>
      </trkpt>
      <trkpt lat="45.99438" lon="4.88402">
        <ele>336</ele>
        <time>2018-10-06T09:36:52Z</time>
      </trkpt>
      <trkpt lat="45.99434" lon="4.88395">
        <ele>336</ele>
        <time>2018-10-06T09:36:53Z</time>
      </trkpt>
      <trkpt lat="45.9943" lon="4.88387">
        <ele>337</ele>
        <time>2018-10-06T09:36:54Z</time>
      </trkpt>
      <trkpt lat="45.99427" lon="4.88379">
        <ele>336</ele>
        <time>2018-10-06T09:36:55Z</time>
      </trkpt>
      <trkpt lat="45.99425" lon="4.88371">
        <ele>337</ele>
        <time>2018-10-06T09:36:56Z</time>
      </trkpt>
      <trkpt lat="45.9942" lon="4.88361">
        <ele>336</ele>
        <time>2018-10-06T09:36:57Z</time>
      </trkpt>
      <trkpt lat="45.99418" lon="4.88353">
        <ele>334</ele>
        <time>2018-10-06T09:36:58Z</time>
      </trkpt>
      <trkpt lat="45.99415" lon="4.88345">
        <ele>334</ele>
        <time>2018-10-06T09:36:59Z</time>
      </trkpt>
      <trkpt lat="45.99411" lon="4.88339">
        <ele>333</ele>
        <time>2018-10-06T09:37:00Z</time>
      </trkpt>
      <trkpt lat="45.99407" lon="4.8833">
        <ele>333</ele>
        <time>2018-10-06T09:37:01Z</time>
      </trkpt>
      <trkpt lat="45.99404" lon="4.88322">
        <ele>333</ele>
        <time>2018-10-06T09:37:02Z</time>
      </trkpt>
      <trkpt lat="45.99401" lon="4.88314">
        <ele>333</ele>
        <time>2018-10-06T09:37:03Z</time>
      </trkpt>
      <trkpt lat="45.99397" lon="4.88307">
        <ele>333</ele>
        <time>2018-10-06T09:37:04Z</time>
      </trkpt>
      <trkpt lat="45.99395" lon="4.883">
        <ele>333</ele>
        <time>2018-10-06T09:37:05Z</time>
      </trkpt>
      <trkpt lat="45.99391" lon="4.88292">
        <ele>330</ele>
        <time>2018-10-06T09:37:06Z</time>
      </trkpt>
      <trkpt lat="45.99389" lon="4.88284">
        <ele>330</ele>
        <time>2018-10-06T09:37:07Z</time>
      </trkpt>
      <trkpt lat="45.99385" lon="4.88278">
        <ele>327</ele>
        <time>2018-10-06T09:37:08Z</time>
      </trkpt>
      <trkpt lat="45.99382" lon="4.88271">
        <ele>328</ele>
        <time>2018-10-06T09:37:09Z</time>
      </trkpt>
      <trkpt lat="45.99379" lon="4.88264">
        <ele>328</ele>
        <time>2018-10-06T09:37:10Z</time>
      </trkpt>
      <trkpt lat="45.99376" lon="4.88256">
        <ele>330</ele>
        <time>2018-10-06T09:37:11Z</time>
      </trkpt>
      <trkpt lat="45.99372" lon="4.88249">
        <ele>329</ele>
        <time>2018-10-06T09:37:12Z</time>
      </trkpt>
      <trkpt lat="45.9937" lon="4.88244">
        <ele>330</ele>
        <time>2018-10-06T09:37:13Z</time>
      </trkpt>
      <trkpt lat="45.99367" lon="4.88236">
        <ele>345</ele>
        <time>2018-10-06T09:37:14Z</time>
      </trkpt>
      <trkpt lat="45.99363" lon="4.88231">
        <ele>342</ele>
        <time>2018-10-06T09:37:15Z</time>
      </trkpt>
      <trkpt lat="45.99359" lon="4.88228">
        <ele>339</ele>
        <time>2018-10-06T09:37:16Z</time>
      </trkpt>
      <trkpt lat="45.99356" lon="4.88223">
        <ele>338</ele>
        <time>2018-10-06T09:37:17Z</time>
      </trkpt>
      <trkpt lat="45.9935" lon="4.88222">
        <ele>338</ele>
        <time>2018-10-06T09:37:18Z</time>
      </trkpt>
      <trkpt lat="45.99344" lon="4.88216">
        <ele>337</ele>
        <time>2018-10-06T09:37:19Z</time>
      </trkpt>
      <trkpt lat="45.9934" lon="4.88213">
        <ele>334</ele>
        <time>2018-10-06T09:37:20Z</time>
      </trkpt>
      <trkpt lat="45.99334" lon="4.88208">
        <ele>332</ele>
        <time>2018-10-06T09:37:21Z</time>
      </trkpt>
      <trkpt lat="45.99329" lon="4.88204">
        <ele>331</ele>
        <time>2018-10-06T09:37:22Z</time>
      </trkpt>
      <trkpt lat="45.99324" lon="4.88201">
        <ele>332</ele>
        <time>2018-10-06T09:37:23Z</time>
      </trkpt>
      <trkpt lat="45.99319" lon="4.88197">
        <ele>332</ele>
        <time>2018-10-06T09:37:24Z</time>
      </trkpt>
      <trkpt lat="45.99313" lon="4.88192">
        <ele>333</ele>
        <time>2018-10-06T09:37:25Z</time>
      </trkpt>
      <trkpt lat="45.99308" lon="4.88185">
        <ele>331</ele>
        <time>2018-10-06T09:37:26Z</time>
      </trkpt>
      <trkpt lat="45.99302" lon="4.88181">
        <ele>330</ele>
        <time>2018-10-06T09:37:27Z</time>
      </trkpt>
      <trkpt lat="45.99297" lon="4.88176">
        <ele>330</ele>
        <time>2018-10-06T09:37:28Z</time>
      </trkpt>
      <trkpt lat="45.99291" lon="4.88173">
        <ele>329</ele>
        <time>2018-10-06T09:37:29Z</time>
      </trkpt>
      <trkpt lat="45.99286" lon="4.88169">
        <ele>329</ele>
        <time>2018-10-06T09:37:30Z</time>
      </trkpt>
      <trkpt lat="45.9928" lon="4.88164">
        <ele>328</ele>
        <time>2018-10-06T09:37:31Z</time>
      </trkpt>
      <trkpt lat="45.99274" lon="4.8816">
        <ele>326</ele>
        <time>2018-10-06T09:37:32Z</time>
      </trkpt>
      <trkpt lat="45.9927" lon="4.88157">
        <ele>326</ele>
        <time>2018-10-06T09:37:33Z</time>
      </trkpt>
      <trkpt lat="45.99265" lon="4.88152">
        <ele>326</ele>
        <time>2018-10-06T09:37:34Z</time>
      </trkpt>
      <trkpt lat="45.99261" lon="4.88147">
        <ele>325</ele>
        <time>2018-10-06T09:37:35Z</time>
      </trkpt>
      <trkpt lat="45.99256" lon="4.88142">
        <ele>325</ele>
        <time>2018-10-06T09:37:36Z</time>
      </trkpt>
      <trkpt lat="45.99249" lon="4.8814">
        <ele>343</ele>
        <time>2018-10-06T09:37:37Z</time>
      </trkpt>
      <trkpt lat="45.99244" lon="4.88135">
        <ele>340</ele>
        <time>2018-10-06T09:37:38Z</time>
      </trkpt>
      <trkpt lat="45.99239" lon="4.8813">
        <ele>338</ele>
        <time>2018-10-06T09:37:39Z</time>
      </trkpt>
      <trkpt lat="45.99235" lon="4.88123">
        <ele>336</ele>
        <time>2018-10-06T09:37:40Z</time>
      </trkpt>
      <trkpt lat="45.99229" lon="4.88118">
        <ele>334</ele>
        <time>2018-10-06T09:37:41Z</time>
      </trkpt>
      <trkpt lat="45.99224" lon="4.88113">
        <ele>333</ele>
        <time>2018-10-06T09:37:42Z</time>
      </trkpt>
      <trkpt lat="45.99218" lon="4.88108">
        <ele>332</ele>
        <time>2018-10-06T09:37:43Z</time>
      </trkpt>
      <trkpt lat="45.99212" lon="4.88103">
        <ele>331</ele>
        <time>2018-10-06T09:37:44Z</time>
      </trkpt>
      <trkpt lat="45.99206" lon="4.88099">
        <ele>327</ele>
        <time>2018-10-06T09:37:45Z</time>
      </trkpt>
      <trkpt lat="45.99201" lon="4.88095">
        <ele>326</ele>
        <time>2018-10-06T09:37:46Z</time>
      </trkpt>
      <trkpt lat="45.99195" lon="4.8809">
        <ele>325</ele>
        <time>2018-10-06T09:37:47Z</time>
      </trkpt>
      <trkpt lat="45.9919" lon="4.88085">
        <ele>325</ele>
        <time>2018-10-06T09:37:48Z</time>
      </trkpt>
      <trkpt lat="45.99182" lon="4.88082">
        <ele>324</ele>
        <time>2018-10-06T09:37:49Z</time>
      </trkpt>
      <trkpt lat="45.99177" lon="4.88075">
        <ele>324</ele>
        <time>2018-10-06T09:37:50Z</time>
      </trkpt>
      <trkpt lat="45.99171" lon="4.88071">
        <ele>324</ele>
        <time>2018-10-06T09:37:51Z</time>
      </trkpt>
      <trkpt lat="45.99166" lon="4.88067">
        <ele>325</ele>
        <time>2018-10-06T09:37:52Z</time>
      </trkpt>
      <trkpt lat="45.9916" lon="4.88066">
        <ele>326</ele>
        <time>2018-10-06T09:37:53Z</time>
      </trkpt>
      <trkpt lat="45.99155" lon="4.88061">
        <ele>325</ele>
        <time>2018-10-06T09:37:54Z</time>
      </trkpt>
      <trkpt lat="45.9915" lon="4.88058">
        <ele>324</ele>
        <time>2018-10-06T09:37:55Z</time>
      </trkpt>
      <trkpt lat="45.99145" lon="4.88054">
        <ele>324</ele>
        <time>2018-10-06T09:37:56Z</time>
      </trkpt>
      <trkpt lat="45.99139" lon="4.8805">
        <ele>324</ele>
        <time>2018-10-06T09:37:57Z</time>
      </trkpt>
      <trkpt lat="45.99135" lon="4.88046">
        <ele>324</ele>
        <time>2018-10-06T09:37:58Z</time>
      </trkpt>
      <trkpt lat="45.99129" lon="4.88043">
        <ele>324</ele>
        <time>2018-10-06T09:37:59Z</time>
      </trkpt>
      <trkpt lat="45.99123" lon="4.8804">
        <ele>324</ele>
        <time>2018-10-06T09:38:00Z</time>
      </trkpt>
      <trkpt lat="45.9912" lon="4.88037">
        <ele>328</ele>
        <time>2018-10-06T09:38:01Z</time>
      </trkpt>
      <trkpt lat="45.99115" lon="4.88033">
        <ele>327</ele>
        <time>2018-10-06T09:38:02Z</time>
      </trkpt>
      <trkpt lat="45.9911" lon="4.8803">
        <ele>327</ele>
        <time>2018-10-06T09:38:03Z</time>
      </trkpt>
      <trkpt lat="45.99104" lon="4.88027">
        <ele>326</ele>
        <time>2018-10-06T09:38:04Z</time>
      </trkpt>
      <trkpt lat="45.99099" lon="4.88023">
        <ele>327</ele>
        <time>2018-10-06T09:38:05Z</time>
      </trkpt>
      <trkpt lat="45.99093" lon="4.88019">
        <ele>326</ele>
        <time>2018-10-06T09:38:06Z</time>
      </trkpt>
      <trkpt lat="45.99086" lon="4.88017">
        <ele>326</ele>
        <time>2018-10-06T09:38:07Z</time>
      </trkpt>
      <trkpt lat="45.99079" lon="4.88014">
        <ele>326</ele>
        <time>2018-10-06T09:38:08Z</time>
      </trkpt>
      <trkpt lat="45.99073" lon="4.88011">
        <ele>326</ele>
        <time>2018-10-06T09:38:09Z</time>
      </trkpt>
      <trkpt lat="45.99068" lon="4.88005">
        <ele>326</ele>
        <time>2018-10-06T09:38:10Z</time>
      </trkpt>
      <trkpt lat="45.99062" lon="4.88">
        <ele>326</ele>
        <time>2018-10-06T09:38:11Z</time>
      </trkpt>
      <trkpt lat="45.99057" lon="4.87997">
        <ele>327</ele>
        <time>2018-10-06T09:38:12Z</time>
      </trkpt>
      <trkpt lat="45.99049" lon="4.87993">
        <ele>325</ele>
        <time>2018-10-06T09:38:13Z</time>
      </trkpt>
      <trkpt lat="45.99044" lon="4.87989">
        <ele>324</ele>
        <time>2018-10-06T09:38:14Z</time>
      </trkpt>
      <trkpt lat="45.99039" lon="4.87986">
        <ele>324</ele>
        <time>2018-10-06T09:38:15Z</time>
      </trkpt>
      <trkpt lat="45.99034" lon="4.87982">
        <ele>325</ele>
        <time>2018-10-06T09:38:16Z</time>
      </trkpt>
      <trkpt lat="45.99028" lon="4.87978">
        <ele>324</ele>
        <time>2018-10-06T09:38:17Z</time>
      </trkpt>
      <trkpt lat="45.99021" lon="4.87974">
        <ele>323</ele>
        <time>2018-10-06T09:38:18Z</time>
      </trkpt>
      <trkpt lat="45.99016" lon="4.87974">
        <ele>328</ele>
        <time>2018-10-06T09:38:19Z</time>
      </trkpt>
      <trkpt lat="45.99009" lon="4.87973">
        <ele>328</ele>
        <time>2018-10-06T09:38:20Z</time>
      </trkpt>
      <trkpt lat="45.99002" lon="4.8797">
        <ele>328</ele>
        <time>2018-10-06T09:38:21Z</time>
      </trkpt>
      <trkpt lat="45.98996" lon="4.87967">
        <ele>328</ele>
        <time>2018-10-06T09:38:22Z</time>
      </trkpt>
      <trkpt lat="45.98989" lon="4.87962">
        <ele>328</ele>
        <time>2018-10-06T09:38:23Z</time>
      </trkpt>
      <trkpt lat="45.98983" lon="4.87958">
        <ele>327</ele>
        <time>2018-10-06T09:38:24Z</time>
      </trkpt>
      <trkpt lat="45.98976" lon="4.87954">
        <ele>327</ele>
        <time>2018-10-06T09:38:25Z</time>
      </trkpt>
      <trkpt lat="45.98968" lon="4.87952">
        <ele>325</ele>
        <time>2018-10-06T09:38:26Z</time>
      </trkpt>
      <trkpt lat="45.98961" lon="4.87947">
        <ele>327</ele>
        <time>2018-10-06T09:38:27Z</time>
      </trkpt>
      <trkpt lat="45.98954" lon="4.87943">
        <ele>326</ele>
        <time>2018-10-06T09:38:28Z</time>
      </trkpt>
      <trkpt lat="45.98947" lon="4.87936">
        <ele>325</ele>
        <time>2018-10-06T09:38:29Z</time>
      </trkpt>
      <trkpt lat="45.9894" lon="4.8793">
        <ele>326</ele>
        <time>2018-10-06T09:38:30Z</time>
      </trkpt>
      <trkpt lat="45.98933" lon="4.87929">
        <ele>324</ele>
        <time>2018-10-06T09:38:31Z</time>
      </trkpt>
      <trkpt lat="45.98926" lon="4.87922">
        <ele>323</ele>
        <time>2018-10-06T09:38:32Z</time>
      </trkpt>
      <trkpt lat="45.98919" lon="4.87918">
        <ele>336</ele>
        <time>2018-10-06T09:38:33Z</time>
      </trkpt>
      <trkpt lat="45.98912" lon="4.87911">
        <ele>333</ele>
        <time>2018-10-06T09:38:34Z</time>
      </trkpt>
      <trkpt lat="45.98905" lon="4.87904">
        <ele>330</ele>
        <time>2018-10-06T09:38:35Z</time>
      </trkpt>
      <trkpt lat="45.98899" lon="4.87894">
        <ele>329</ele>
        <time>2018-10-06T09:38:36Z</time>
      </trkpt>
      <trkpt lat="45.98893" lon="4.87887">
        <ele>329</ele>
        <time>2018-10-06T09:38:37Z</time>
      </trkpt>
      <trkpt lat="45.98887" lon="4.8788">
        <ele>329</ele>
        <time>2018-10-06T09:38:38Z</time>
      </trkpt>
      <trkpt lat="45.98882" lon="4.87871">
        <ele>328</ele>
        <time>2018-10-06T09:38:39Z</time>
      </trkpt>
      <trkpt lat="45.98878" lon="4.87861">
        <ele>327</ele>
        <time>2018-10-06T09:38:40Z</time>
      </trkpt>
      <trkpt lat="45.98874" lon="4.87852">
        <ele>325</ele>
        <time>2018-10-06T09:38:41Z</time>
      </trkpt>
      <trkpt lat="45.98869" lon="4.87842">
        <ele>325</ele>
        <time>2018-10-06T09:38:42Z</time>
      </trkpt>
      <trkpt lat="45.98865" lon="4.87833">
        <ele>325</ele>
        <time>2018-10-06T09:38:43Z</time>
      </trkpt>
      <trkpt lat="45.98862" lon="4.87823">
        <ele>325</ele>
        <time>2018-10-06T09:38:44Z</time>
      </trkpt>
      <trkpt lat="45.98859" lon="4.87813">
        <ele>324</ele>
        <time>2018-10-06T09:38:45Z</time>
      </trkpt>
      <trkpt lat="45.98856" lon="4.87806">
        <ele>324</ele>
        <time>2018-10-06T09:38:46Z</time>
      </trkpt>
      <trkpt lat="45.98852" lon="4.87797">
        <ele>324</ele>
        <time>2018-10-06T09:38:47Z</time>
      </trkpt>
      <trkpt lat="45.9885" lon="4.87786">
        <ele>322</ele>
        <time>2018-10-06T09:38:48Z</time>
      </trkpt>
      <trkpt lat="45.98847" lon="4.8778">
        <ele>322</ele>
        <time>2018-10-06T09:38:49Z</time>
      </trkpt>
      <trkpt lat="45.98845" lon="4.8777">
        <ele>322</ele>
        <time>2018-10-06T09:38:50Z</time>
      </trkpt>
      <trkpt lat="45.98843" lon="4.87761">
        <ele>322</ele>
        <time>2018-10-06T09:38:51Z</time>
      </trkpt>
      <trkpt lat="45.98841" lon="4.87751">
        <ele>322</ele>
        <time>2018-10-06T09:38:52Z</time>
      </trkpt>
      <trkpt lat="45.98839" lon="4.8774">
        <ele>323</ele>
        <time>2018-10-06T09:38:53Z</time>
      </trkpt>
      <trkpt lat="45.98838" lon="4.87728">
        <ele>324</ele>
        <time>2018-10-06T09:38:54Z</time>
      </trkpt>
      <trkpt lat="45.98837" lon="4.87719">
        <ele>324</ele>
        <time>2018-10-06T09:38:55Z</time>
      </trkpt>
      <trkpt lat="45.98834" lon="4.8771">
        <ele>324</ele>
        <time>2018-10-06T09:38:56Z</time>
      </trkpt>
      <trkpt lat="45.98834" lon="4.87699">
        <ele>323</ele>
        <time>2018-10-06T09:38:57Z</time>
      </trkpt>
      <trkpt lat="45.98834" lon="4.87688">
        <ele>326</ele>
        <time>2018-10-06T09:38:58Z</time>
      </trkpt>
      <trkpt lat="45.98833" lon="4.87678">
        <ele>326</ele>
        <time>2018-10-06T09:38:59Z</time>
      </trkpt>
      <trkpt lat="45.98832" lon="4.8767">
        <ele>327</ele>
        <time>2018-10-06T09:39:00Z</time>
      </trkpt>
      <trkpt lat="45.9883" lon="4.87662">
        <ele>328</ele>
        <time>2018-10-06T09:39:01Z</time>
      </trkpt>
      <trkpt lat="45.98828" lon="4.87654">
        <ele>329</ele>
        <time>2018-10-06T09:39:02Z</time>
      </trkpt>
      <trkpt lat="45.98827" lon="4.87645">
        <ele>330</ele>
        <time>2018-10-06T09:39:03Z</time>
      </trkpt>
      <trkpt lat="45.98827" lon="4.87639">
        <ele>330</ele>
        <time>2018-10-06T09:39:04Z</time>
      </trkpt>
      <trkpt lat="45.98825" lon="4.87631">
        <ele>330</ele>
        <time>2018-10-06T09:39:05Z</time>
      </trkpt>
      <trkpt lat="45.98822" lon="4.87625">
        <ele>331</ele>
        <time>2018-10-06T09:39:06Z</time>
      </trkpt>
      <trkpt lat="45.98821" lon="4.87619">
        <ele>332</ele>
        <time>2018-10-06T09:39:07Z</time>
      </trkpt>
      <trkpt lat="45.98818" lon="4.87613">
        <ele>332</ele>
        <time>2018-10-06T09:39:08Z</time>
      </trkpt>
      <trkpt lat="45.98815" lon="4.87606">
        <ele>332</ele>
        <time>2018-10-06T09:39:09Z</time>
      </trkpt>
      <trkpt lat="45.98811" lon="4.87598">
        <ele>331</ele>
        <time>2018-10-06T09:39:10Z</time>
      </trkpt>
      <trkpt lat="45.98806" lon="4.87592">
        <ele>332</ele>
        <time>2018-10-06T09:39:11Z</time>
      </trkpt>
      <trkpt lat="45.98801" lon="4.87585">
        <ele>332</ele>
        <time>2018-10-06T09:39:12Z</time>
      </trkpt>
      <trkpt lat="45.98793" lon="4.87579">
        <ele>330</ele>
        <time>2018-10-06T09:39:13Z</time>
      </trkpt>
      <trkpt lat="45.98785" lon="4.87574">
        <ele>328</ele>
        <time>2018-10-06T09:39:14Z</time>
      </trkpt>
      <trkpt lat="45.98779" lon="4.87568">
        <ele>327</ele>
        <time>2018-10-06T09:39:15Z</time>
      </trkpt>
      <trkpt lat="45.98774" lon="4.87563">
        <ele>327</ele>
        <time>2018-10-06T09:39:16Z</time>
      </trkpt>
      <trkpt lat="45.9877" lon="4.87559">
        <ele>327</ele>
        <time>2018-10-06T09:39:17Z</time>
      </trkpt>
      <trkpt lat="45.98765" lon="4.87555">
        <ele>326</ele>
        <time>2018-10-06T09:39:18Z</time>
      </trkpt>
      <trkpt lat="45.98759" lon="4.87551">
        <ele>325</ele>
        <time>2018-10-06T09:39:19Z</time>
      </trkpt>
      <trkpt lat="45.98753" lon="4.87548">
        <ele>325</ele>
        <time>2018-10-06T09:39:20Z</time>
      </trkpt>
      <trkpt lat="45.98749" lon="4.87548">
        <ele>326</ele>
        <time>2018-10-06T09:39:21Z</time>
      </trkpt>
      <trkpt lat="45.98742" lon="4.87546">
        <ele>326</ele>
        <time>2018-10-06T09:39:22Z</time>
      </trkpt>
      <trkpt lat="45.98734" lon="4.87549">
        <ele>325</ele>
        <time>2018-10-06T09:39:23Z</time>
      </trkpt>
      <trkpt lat="45.98724" lon="4.87548">
        <ele>324</ele>
        <time>2018-10-06T09:39:24Z</time>
      </trkpt>
      <trkpt lat="45.98719" lon="4.87549">
        <ele>323</ele>
        <time>2018-10-06T09:39:25Z</time>
      </trkpt>
      <trkpt lat="45.98712" lon="4.87552">
        <ele>323</ele>
        <time>2018-10-06T09:39:26Z</time>
      </trkpt>
      <trkpt lat="45.98708" lon="4.87556">
        <ele>323</ele>
        <time>2018-10-06T09:39:27Z</time>
      </trkpt>
      <trkpt lat="45.98701" lon="4.87558">
        <ele>324</ele>
        <time>2018-10-06T09:39:28Z</time>
      </trkpt>
      <trkpt lat="45.98695" lon="4.8756">
        <ele>327</ele>
        <time>2018-10-06T09:39:29Z</time>
      </trkpt>
      <trkpt lat="45.98691" lon="4.8756">
        <ele>327</ele>
        <time>2018-10-06T09:39:30Z</time>
      </trkpt>
      <trkpt lat="45.98683" lon="4.87562">
        <ele>326</ele>
        <time>2018-10-06T09:39:32Z</time>
      </trkpt>
      <trkpt lat="45.98679" lon="4.87563">
        <ele>326</ele>
        <time>2018-10-06T09:39:33Z</time>
      </trkpt>
      <trkpt lat="45.98671" lon="4.87561">
        <ele>326</ele>
        <time>2018-10-06T09:39:35Z</time>
      </trkpt>
      <trkpt lat="45.98666" lon="4.87563">
        <ele>325</ele>
        <time>2018-10-06T09:39:36Z</time>
      </trkpt>
      <trkpt lat="45.98659" lon="4.87558">
        <ele>324</ele>
        <time>2018-10-06T09:39:38Z</time>
      </trkpt>
      <trkpt lat="45.98657" lon="4.87553">
        <ele>324</ele>
        <time>2018-10-06T09:39:39Z</time>
      </trkpt>
      <trkpt lat="45.98655" lon="4.87547">
        <ele>326</ele>
        <time>2018-10-06T09:39:40Z</time>
      </trkpt>
      <trkpt lat="45.98651" lon="4.87543">
        <ele>325</ele>
        <time>2018-10-06T09:39:41Z</time>
      </trkpt>
      <trkpt lat="45.98647" lon="4.87532">
        <ele>324</ele>
        <time>2018-10-06T09:39:43Z</time>
      </trkpt>
      <trkpt lat="45.98646" lon="4.8753">
        <ele>322</ele>
        <time>2018-10-06T09:39:44Z</time>
      </trkpt>
      <trkpt lat="45.98644" lon="4.87519">
        <ele>321</ele>
        <time>2018-10-06T09:39:46Z</time>
      </trkpt>
      <trkpt lat="45.98643" lon="4.87512">
        <ele>322</ele>
        <time>2018-10-06T09:39:47Z</time>
      </trkpt>
      <trkpt lat="45.98641" lon="4.875">
        <ele>322</ele>
        <time>2018-10-06T09:39:49Z</time>
      </trkpt>
      <trkpt lat="45.98639" lon="4.87492">
        <ele>323</ele>
        <time>2018-10-06T09:39:50Z</time>
      </trkpt>
      <trkpt lat="45.98637" lon="4.87484">
        <ele>323</ele>
        <time>2018-10-06T09:39:51Z</time>
      </trkpt>
      <trkpt lat="45.98635" lon="4.87477">
        <ele>323</ele>
        <time>2018-10-06T09:39:52Z</time>
      </trkpt>
      <trkpt lat="45.98634" lon="4.87471">
        <ele>322</ele>
        <time>2018-10-06T09:39:53Z</time>
      </trkpt>
      <trkpt lat="45.98632" lon="4.87464">
        <ele>323</ele>
        <time>2018-10-06T09:39:54Z</time>
      </trkpt>
      <trkpt lat="45.98631" lon="4.87454">
        <ele>324</ele>
        <time>2018-10-06T09:39:56Z</time>
      </trkpt>
      <trkpt lat="45.98629" lon="4.87446">
        <ele>323</ele>
        <time>2018-10-06T09:39:57Z</time>
      </trkpt>
      <trkpt lat="45.98627" lon="4.87434">
        <ele>322</ele>
        <time>2018-10-06T09:39:59Z</time>
      </trkpt>
      <trkpt lat="45.98626" lon="4.87428">
        <ele>322</ele>
        <time>2018-10-06T09:40:00Z</time>
      </trkpt>
      <trkpt lat="45.98624" lon="4.87418">
        <ele>322</ele>
        <time>2018-10-06T09:40:02Z</time>
      </trkpt>
      <trkpt lat="45.98624" lon="4.87412">
        <ele>322</ele>
        <time>2018-10-06T09:40:03Z</time>
      </trkpt>
      <trkpt lat="45.9862" lon="4.874">
        <ele>322</ele>
        <time>2018-10-06T09:40:05Z</time>
      </trkpt>
      <trkpt lat="45.98619" lon="4.87395">
        <ele>321</ele>
        <time>2018-10-06T09:40:06Z</time>
      </trkpt>
      <trkpt lat="45.98617" lon="4.87385">
        <ele>321</ele>
        <time>2018-10-06T09:40:08Z</time>
      </trkpt>
      <trkpt lat="45.98616" lon="4.87379">
        <ele>321</ele>
        <time>2018-10-06T09:40:09Z</time>
      </trkpt>
      <trkpt lat="45.98614" lon="4.87369">
        <ele>324</ele>
        <time>2018-10-06T09:40:11Z</time>
      </trkpt>
      <trkpt lat="45.98612" lon="4.87363">
        <ele>325</ele>
        <time>2018-10-06T09:40:12Z</time>
      </trkpt>
      <trkpt lat="45.98611" lon="4.87354">
        <ele>327</ele>
        <time>2018-10-06T09:40:14Z</time>
      </trkpt>
      <trkpt lat="45.98609" lon="4.87349">
        <ele>326</ele>
        <time>2018-10-06T09:40:15Z</time>
      </trkpt>
      <trkpt lat="45.98607" lon="4.87338">
        <ele>327</ele>
        <time>2018-10-06T09:40:18Z</time>
      </trkpt>
      <trkpt lat="45.98606" lon="4.87335">
        <ele>327</ele>
        <time>2018-10-06T09:40:19Z</time>
      </trkpt>
      <trkpt lat="45.98605" lon="4.87325">
        <ele>327</ele>
        <time>2018-10-06T09:40:22Z</time>
      </trkpt>
      <trkpt lat="45.98605" lon="4.87322">
        <ele>329</ele>
        <time>2018-10-06T09:40:23Z</time>
      </trkpt>
      <trkpt lat="45.98603" lon="4.8731">
        <ele>332</ele>
        <time>2018-10-06T09:40:27Z</time>
      </trkpt>
      <trkpt lat="45.98603" lon="4.87306">
        <ele>332</ele>
        <time>2018-10-06T09:40:28Z</time>
      </trkpt>
      <trkpt lat="45.98604" lon="4.87294">
        <ele>331</ele>
        <time>2018-10-06T09:40:31Z</time>
      </trkpt>
      <trkpt lat="45.98604" lon="4.8729">
        <ele>332</ele>
        <time>2018-10-06T09:40:32Z</time>
      </trkpt>
      <trkpt lat="45.98604" lon="4.87278">
        <ele>334</ele>
        <time>2018-10-06T09:40:35Z</time>
      </trkpt>
      <trkpt lat="45.98605" lon="4.87274">
        <ele>336</ele>
        <time>2018-10-06T09:40:36Z</time>
      </trkpt>
      <trkpt lat="45.98607" lon="4.87264">
        <ele>335</ele>
        <time>2018-10-06T09:40:39Z</time>
      </trkpt>
      <trkpt lat="45.98608" lon="4.87259">
        <ele>335</ele>
        <time>2018-10-06T09:40:40Z</time>
      </trkpt>
      <trkpt lat="45.98609" lon="4.87249">
        <ele>334</ele>
        <time>2018-10-06T09:40:42Z</time>
      </trkpt>
      <trkpt lat="45.9861" lon="4.87232">
        <ele>334</ele>
        <time>2018-10-06T09:40:43Z</time>
      </trkpt>
      <trkpt lat="45.98611" lon="4.87219">
        <ele>334</ele>
        <time>2018-10-06T09:40:46Z</time>
      </trkpt>
      <trkpt lat="45.98612" lon="4.87214">
        <ele>335</ele>
        <time>2018-10-06T09:40:47Z</time>
      </trkpt>
      <trkpt lat="45.98612" lon="4.8721">
        <ele>336</ele>
        <time>2018-10-06T09:40:48Z</time>
      </trkpt>
      <trkpt lat="45.98615" lon="4.87195">
        <ele>335</ele>
        <time>2018-10-06T09:40:49Z</time>
      </trkpt>
      <trkpt lat="45.98615" lon="4.87192">
        <ele>333</ele>
        <time>2018-10-06T09:40:50Z</time>
      </trkpt>
      <trkpt lat="45.98616" lon="4.87181">
        <ele>335</ele>
        <time>2018-10-06T09:40:51Z</time>
      </trkpt>
      <trkpt lat="45.98617" lon="4.87173">
        <ele>328</ele>
        <time>2018-10-06T09:40:52Z</time>
      </trkpt>
      <trkpt lat="45.98618" lon="4.87165">
        <ele>330</ele>
        <time>2018-10-06T09:40:53Z</time>
      </trkpt>
      <trkpt lat="45.98618" lon="4.87158">
        <ele>331</ele>
        <time>2018-10-06T09:40:54Z</time>
      </trkpt>
      <trkpt lat="45.98618" lon="4.87146">
        <ele>330</ele>
        <time>2018-10-06T09:40:55Z</time>
      </trkpt>
      <trkpt lat="45.98618" lon="4.87138">
        <ele>331</ele>
        <time>2018-10-06T09:40:56Z</time>
      </trkpt>
      <trkpt lat="45.98617" lon="4.87132">
        <ele>330</ele>
        <time>2018-10-06T09:40:57Z</time>
      </trkpt>
      <trkpt lat="45.98617" lon="4.87123">
        <ele>330</ele>
        <time>2018-10-06T09:40:58Z</time>
      </trkpt>
      <trkpt lat="45.98617" lon="4.87117">
        <ele>329</ele>
        <time>2018-10-06T09:40:59Z</time>
      </trkpt>
      <trkpt lat="45.98617" lon="4.87106">
        <ele>330</ele>
        <time>2018-10-06T09:41:01Z</time>
      </trkpt>
      <trkpt lat="45.98616" lon="4.87093">
        <ele>329</ele>
        <time>2018-10-06T09:41:02Z</time>
      </trkpt>
      <trkpt lat="45.98615" lon="4.87088">
        <ele>329</ele>
        <time>2018-10-06T09:41:04Z</time>
      </trkpt>
      <trkpt lat="45.98612" lon="4.87076">
        <ele>330</ele>
        <time>2018-10-06T09:41:05Z</time>
      </trkpt>
      <trkpt lat="45.98612" lon="4.87071">
        <ele>330</ele>
        <time>2018-10-06T09:41:06Z</time>
      </trkpt>
      <trkpt lat="45.98611" lon="4.87063">
        <ele>330</ele>
        <time>2018-10-06T09:41:07Z</time>
      </trkpt>
      <trkpt lat="45.98609" lon="4.87056">
        <ele>331</ele>
        <time>2018-10-06T09:41:08Z</time>
      </trkpt>
      <trkpt lat="45.98607" lon="4.8705">
        <ele>332</ele>
        <time>2018-10-06T09:41:09Z</time>
      </trkpt>
      <trkpt lat="45.98607" lon="4.87044">
        <ele>333</ele>
        <time>2018-10-06T09:41:10Z</time>
      </trkpt>
      <trkpt lat="45.98606" lon="4.87037">
        <ele>333</ele>
        <time>2018-10-06T09:41:11Z</time>
      </trkpt>
      <trkpt lat="45.98605" lon="4.87031">
        <ele>333</ele>
        <time>2018-10-06T09:41:12Z</time>
      </trkpt>
      <trkpt lat="45.98603" lon="4.87024">
        <ele>332</ele>
        <time>2018-10-06T09:41:13Z</time>
      </trkpt>
      <trkpt lat="45.98601" lon="4.87013">
        <ele>332</ele>
        <time>2018-10-06T09:41:15Z</time>
      </trkpt>
      <trkpt lat="45.98599" lon="4.87009">
        <ele>332</ele>
        <time>2018-10-06T09:41:16Z</time>
      </trkpt>
      <trkpt lat="45.98597" lon="4.86999">
        <ele>333</ele>
        <time>2018-10-06T09:41:19Z</time>
      </trkpt>
      <trkpt lat="45.98597" lon="4.86995">
        <ele>333</ele>
        <time>2018-10-06T09:41:20Z</time>
      </trkpt>
      <trkpt lat="45.98595" lon="4.86983">
        <ele>335</ele>
        <time>2018-10-06T09:41:23Z</time>
      </trkpt>
      <trkpt lat="45.98594" lon="4.86979">
        <ele>337</ele>
        <time>2018-10-06T09:41:24Z</time>
      </trkpt>
      <trkpt lat="45.98595" lon="4.86964">
        <ele>337</ele>
        <time>2018-10-06T09:41:25Z</time>
      </trkpt>
      <trkpt lat="45.98593" lon="4.86953">
        <ele>334</ele>
        <time>2018-10-06T09:41:27Z</time>
      </trkpt>
      <trkpt lat="45.98592" lon="4.86947">
        <ele>332</ele>
        <time>2018-10-06T09:41:28Z</time>
      </trkpt>
      <trkpt lat="45.98592" lon="4.86935">
        <ele>332</ele>
        <time>2018-10-06T09:41:30Z</time>
      </trkpt>
      <trkpt lat="45.98593" lon="4.8693">
        <ele>334</ele>
        <time>2018-10-06T09:41:31Z</time>
      </trkpt>
      <trkpt lat="45.98592" lon="4.86917">
        <ele>334</ele>
        <time>2018-10-06T09:41:33Z</time>
      </trkpt>
      <trkpt lat="45.98592" lon="4.86911">
        <ele>334</ele>
        <time>2018-10-06T09:41:34Z</time>
      </trkpt>
      <trkpt lat="45.98593" lon="4.869">
        <ele>334</ele>
        <time>2018-10-06T09:41:36Z</time>
      </trkpt>
      <trkpt lat="45.98593" lon="4.86894">
        <ele>335</ele>
        <time>2018-10-06T09:41:37Z</time>
      </trkpt>
      <trkpt lat="45.98594" lon="4.86881">
        <ele>337</ele>
        <time>2018-10-06T09:41:39Z</time>
      </trkpt>
      <trkpt lat="45.98594" lon="4.86876">
        <ele>338</ele>
        <time>2018-10-06T09:41:40Z</time>
      </trkpt>
      <trkpt lat="45.98593" lon="4.86866">
        <ele>337</ele>
        <time>2018-10-06T09:41:42Z</time>
      </trkpt>
      <trkpt lat="45.98593" lon="4.86862">
        <ele>336</ele>
        <time>2018-10-06T09:41:43Z</time>
      </trkpt>
      <trkpt lat="45.98593" lon="4.86858">
        <ele>337</ele>
        <time>2018-10-06T09:41:44Z</time>
      </trkpt>
      <trkpt lat="45.98593" lon="4.86847">
        <ele>336</ele>
        <time>2018-10-06T09:41:45Z</time>
      </trkpt>
      <trkpt lat="45.98591" lon="4.86835">
        <ele>335</ele>
        <time>2018-10-06T09:41:47Z</time>
      </trkpt>
      <trkpt lat="45.9859" lon="4.86829">
        <ele>334</ele>
        <time>2018-10-06T09:41:48Z</time>
      </trkpt>
      <trkpt lat="45.98589" lon="4.86817">
        <ele>327</ele>
        <time>2018-10-06T09:41:50Z</time>
      </trkpt>
      <trkpt lat="45.98589" lon="4.86811">
        <ele>330</ele>
        <time>2018-10-06T09:41:51Z</time>
      </trkpt>
      <trkpt lat="45.98587" lon="4.86799">
        <ele>333</ele>
        <time>2018-10-06T09:41:53Z</time>
      </trkpt>
      <trkpt lat="45.98587" lon="4.86796">
        <ele>336</ele>
        <time>2018-10-06T09:41:54Z</time>
      </trkpt>
      <trkpt lat="45.98585" lon="4.86788">
        <ele>337</ele>
        <time>2018-10-06T09:41:55Z</time>
      </trkpt>
      <trkpt lat="45.98581" lon="4.86781">
        <ele>336</ele>
        <time>2018-10-06T09:41:56Z</time>
      </trkpt>
      <trkpt lat="45.9858" lon="4.8677">
        <ele>336</ele>
        <time>2018-10-06T09:41:58Z</time>
      </trkpt>
      <trkpt lat="45.98578" lon="4.86763">
        <ele>336</ele>
        <time>2018-10-06T09:41:59Z</time>
      </trkpt>
      <trkpt lat="45.98576" lon="4.86756">
        <ele>336</ele>
        <time>2018-10-06T09:42:00Z</time>
      </trkpt>
      <trkpt lat="45.98576" lon="4.8675">
        <ele>336</ele>
        <time>2018-10-06T09:42:01Z</time>
      </trkpt>
      <trkpt lat="45.98574" lon="4.86737">
        <ele>336</ele>
        <time>2018-10-06T09:42:03Z</time>
      </trkpt>
      <trkpt lat="45.98574" lon="4.86731">
        <ele>337</ele>
        <time>2018-10-06T09:42:04Z</time>
      </trkpt>
      <trkpt lat="45.98572" lon="4.86723">
        <ele>339</ele>
        <time>2018-10-06T09:42:05Z</time>
      </trkpt>
      <trkpt lat="45.98571" lon="4.86717">
        <ele>339</ele>
        <time>2018-10-06T09:42:06Z</time>
      </trkpt>
      <trkpt lat="45.98571" lon="4.8671">
        <ele>338</ele>
        <time>2018-10-06T09:42:07Z</time>
      </trkpt>
      <trkpt lat="45.98571" lon="4.86703">
        <ele>338</ele>
        <time>2018-10-06T09:42:08Z</time>
      </trkpt>
      <trkpt lat="45.98571" lon="4.86696">
        <ele>338</ele>
        <time>2018-10-06T09:42:09Z</time>
      </trkpt>
      <trkpt lat="45.98571" lon="4.86689">
        <ele>337</ele>
        <time>2018-10-06T09:42:10Z</time>
      </trkpt>
      <trkpt lat="45.98571" lon="4.86682">
        <ele>337</ele>
        <time>2018-10-06T09:42:11Z</time>
      </trkpt>
      <trkpt lat="45.9857" lon="4.86676">
        <ele>337</ele>
        <time>2018-10-06T09:42:12Z</time>
      </trkpt>
      <trkpt lat="45.98569" lon="4.86663">
        <ele>338</ele>
        <time>2018-10-06T09:42:14Z</time>
      </trkpt>
      <trkpt lat="45.98567" lon="4.86656">
        <ele>337</ele>
        <time>2018-10-06T09:42:15Z</time>
      </trkpt>
      <trkpt lat="45.98565" lon="4.86649">
        <ele>336</ele>
        <time>2018-10-06T09:42:16Z</time>
      </trkpt>
      <trkpt lat="45.98564" lon="4.86643">
        <ele>336</ele>
        <time>2018-10-06T09:42:17Z</time>
      </trkpt>
      <trkpt lat="45.98564" lon="4.86637">
        <ele>337</ele>
        <time>2018-10-06T09:42:18Z</time>
      </trkpt>
      <trkpt lat="45.98563" lon="4.86629">
        <ele>337</ele>
        <time>2018-10-06T09:42:19Z</time>
      </trkpt>
      <trkpt lat="45.98562" lon="4.86622">
        <ele>336</ele>
        <time>2018-10-06T09:42:20Z</time>
      </trkpt>
      <trkpt lat="45.9856" lon="4.86616">
        <ele>336</ele>
        <time>2018-10-06T09:42:21Z</time>
      </trkpt>
      <trkpt lat="45.98558" lon="4.86604">
        <ele>338</ele>
        <time>2018-10-06T09:42:23Z</time>
      </trkpt>
      <trkpt lat="45.98557" lon="4.86598">
        <ele>338</ele>
        <time>2018-10-06T09:42:24Z</time>
      </trkpt>
      <trkpt lat="45.98554" lon="4.86586">
        <ele>339</ele>
        <time>2018-10-06T09:42:26Z</time>
      </trkpt>
      <trkpt lat="45.98553" lon="4.8658">
        <ele>340</ele>
        <time>2018-10-06T09:42:27Z</time>
      </trkpt>
      <trkpt lat="45.98549" lon="4.8657">
        <ele>337</ele>
        <time>2018-10-06T09:42:29Z</time>
      </trkpt>
      <trkpt lat="45.98546" lon="4.86565">
        <ele>333</ele>
        <time>2018-10-06T09:42:30Z</time>
      </trkpt>
      <trkpt lat="45.98543" lon="4.86561">
        <ele>333</ele>
        <time>2018-10-06T09:42:31Z</time>
      </trkpt>
      <trkpt lat="45.9854" lon="4.86555">
        <ele>332</ele>
        <time>2018-10-06T09:42:32Z</time>
      </trkpt>
      <trkpt lat="45.98537" lon="4.86549">
        <ele>332</ele>
        <time>2018-10-06T09:42:33Z</time>
      </trkpt>
      <trkpt lat="45.98535" lon="4.86543">
        <ele>332</ele>
        <time>2018-10-06T09:42:34Z</time>
      </trkpt>
      <trkpt lat="45.98532" lon="4.86537">
        <ele>331</ele>
        <time>2018-10-06T09:42:35Z</time>
      </trkpt>
      <trkpt lat="45.98528" lon="4.86532">
        <ele>331</ele>
        <time>2018-10-06T09:42:36Z</time>
      </trkpt>
      <trkpt lat="45.98523" lon="4.86522">
        <ele>332</ele>
        <time>2018-10-06T09:42:38Z</time>
      </trkpt>
      <trkpt lat="45.9852" lon="4.86515">
        <ele>332</ele>
        <time>2018-10-06T09:42:39Z</time>
      </trkpt>
      <trkpt lat="45.98519" lon="4.86508">
        <ele>333</ele>
        <time>2018-10-06T09:42:40Z</time>
      </trkpt>
      <trkpt lat="45.98516" lon="4.86502">
        <ele>333</ele>
        <time>2018-10-06T09:42:41Z</time>
      </trkpt>
      <trkpt lat="45.98513" lon="4.86497">
        <ele>334</ele>
        <time>2018-10-06T09:42:42Z</time>
      </trkpt>
      <trkpt lat="45.9851" lon="4.86492">
        <ele>334</ele>
        <time>2018-10-06T09:42:43Z</time>
      </trkpt>
      <trkpt lat="45.98504" lon="4.86483">
        <ele>334</ele>
        <time>2018-10-06T09:42:45Z</time>
      </trkpt>
      <trkpt lat="45.98503" lon="4.86479">
        <ele>334</ele>
        <time>2018-10-06T09:42:46Z</time>
      </trkpt>
      <trkpt lat="45.98499" lon="4.86475">
        <ele>333</ele>
        <time>2018-10-06T09:42:47Z</time>
      </trkpt>
      <trkpt lat="45.98498" lon="4.86468">
        <ele>333</ele>
        <time>2018-10-06T09:42:48Z</time>
      </trkpt>
      <trkpt lat="45.98496" lon="4.86462">
        <ele>333</ele>
        <time>2018-10-06T09:42:49Z</time>
      </trkpt>
      <trkpt lat="45.98495" lon="4.86455">
        <ele>333</ele>
        <time>2018-10-06T09:42:50Z</time>
      </trkpt>
      <trkpt lat="45.98491" lon="4.86446">
        <ele>333</ele>
        <time>2018-10-06T09:42:52Z</time>
      </trkpt>
      <trkpt lat="45.98488" lon="4.86439">
        <ele>332</ele>
        <time>2018-10-06T09:42:53Z</time>
      </trkpt>
      <trkpt lat="45.98484" lon="4.8643">
        <ele>332</ele>
        <time>2018-10-06T09:42:56Z</time>
      </trkpt>
      <trkpt lat="45.98482" lon="4.86427">
        <ele>333</ele>
        <time>2018-10-06T09:42:57Z</time>
      </trkpt>
      <trkpt lat="45.98482" lon="4.86425">
        <ele>333</ele>
        <time>2018-10-06T09:42:58Z</time>
      </trkpt>
      <trkpt lat="45.98476" lon="4.86416">
        <ele>331</ele>
        <time>2018-10-06T09:42:59Z</time>
      </trkpt>
      <trkpt lat="45.98472" lon="4.86407">
        <ele>335</ele>
        <time>2018-10-06T09:43:02Z</time>
      </trkpt>
      <trkpt lat="45.98467" lon="4.86403">
        <ele>332</ele>
        <time>2018-10-06T09:43:03Z</time>
      </trkpt>
      <trkpt lat="45.98463" lon="4.86393">
        <ele>332</ele>
        <time>2018-10-06T09:43:05Z</time>
      </trkpt>
      <trkpt lat="45.98462" lon="4.8639">
        <ele>334</ele>
        <time>2018-10-06T09:43:06Z</time>
      </trkpt>
      <trkpt lat="45.9846" lon="4.86382">
        <ele>335</ele>
        <time>2018-10-06T09:43:07Z</time>
      </trkpt>
      <trkpt lat="45.98459" lon="4.86376">
        <ele>334</ele>
        <time>2018-10-06T09:43:08Z</time>
      </trkpt>
      <trkpt lat="45.98458" lon="4.86367">
        <ele>339</ele>
        <time>2018-10-06T09:43:10Z</time>
      </trkpt>
      <trkpt lat="45.98456" lon="4.86362">
        <ele>337</ele>
        <time>2018-10-06T09:43:11Z</time>
      </trkpt>
      <trkpt lat="45.98454" lon="4.86355">
        <ele>336</ele>
        <time>2018-10-06T09:43:12Z</time>
      </trkpt>
      <trkpt lat="45.98453" lon="4.86349">
        <ele>337</ele>
        <time>2018-10-06T09:43:13Z</time>
      </trkpt>
      <trkpt lat="45.98451" lon="4.86341">
        <ele>337</ele>
        <time>2018-10-06T09:43:15Z</time>
      </trkpt>
      <trkpt lat="45.98448" lon="4.86333">
        <ele>334</ele>
        <time>2018-10-06T09:43:16Z</time>
      </trkpt>
      <trkpt lat="45.98447" lon="4.86327">
        <ele>332</ele>
        <time>2018-10-06T09:43:18Z</time>
      </trkpt>
      <trkpt lat="45.98446" lon="4.86318">
        <ele>331</ele>
        <time>2018-10-06T09:43:19Z</time>
      </trkpt>
      <trkpt lat="45.98444" lon="4.86307">
        <ele>329</ele>
        <time>2018-10-06T09:43:21Z</time>
      </trkpt>
      <trkpt lat="45.98443" lon="4.86304">
        <ele>329</ele>
        <time>2018-10-06T09:43:22Z</time>
      </trkpt>
      <trkpt lat="45.98442" lon="4.86301">
        <ele>328</ele>
        <time>2018-10-06T09:43:23Z</time>
      </trkpt>
      <trkpt lat="45.9844" lon="4.86292">
        <ele>328</ele>
        <time>2018-10-06T09:43:24Z</time>
      </trkpt>
      <trkpt lat="45.98437" lon="4.86281">
        <ele>330</ele>
        <time>2018-10-06T09:43:26Z</time>
      </trkpt>
      <trkpt lat="45.98436" lon="4.86275">
        <ele>330</ele>
        <time>2018-10-06T09:43:27Z</time>
      </trkpt>
      <trkpt lat="45.98434" lon="4.86264">
        <ele>329</ele>
        <time>2018-10-06T09:43:29Z</time>
      </trkpt>
      <trkpt lat="45.98433" lon="4.86259">
        <ele>328</ele>
        <time>2018-10-06T09:43:30Z</time>
      </trkpt>
      <trkpt lat="45.98431" lon="4.86248">
        <ele>332</ele>
        <time>2018-10-06T09:43:33Z</time>
      </trkpt>
      <trkpt lat="45.9843" lon="4.86236">
        <ele>331</ele>
        <time>2018-10-06T09:43:34Z</time>
      </trkpt>
      <trkpt lat="45.98428" lon="4.86226">
        <ele>332</ele>
        <time>2018-10-06T09:43:36Z</time>
      </trkpt>
      <trkpt lat="45.98427" lon="4.86217">
        <ele>332</ele>
        <time>2018-10-06T09:43:37Z</time>
      </trkpt>
      <trkpt lat="45.98425" lon="4.86205">
        <ele>333</ele>
        <time>2018-10-06T09:43:39Z</time>
      </trkpt>
      <trkpt lat="45.98424" lon="4.86199">
        <ele>333</ele>
        <time>2018-10-06T09:43:40Z</time>
      </trkpt>
      <trkpt lat="45.98421" lon="4.86187">
        <ele>336</ele>
        <time>2018-10-06T09:43:42Z</time>
      </trkpt>
      <trkpt lat="45.9842" lon="4.86181">
        <ele>335</ele>
        <time>2018-10-06T09:43:43Z</time>
      </trkpt>
      <trkpt lat="45.98419" lon="4.86169">
        <ele>334</ele>
        <time>2018-10-06T09:43:45Z</time>
      </trkpt>
      <trkpt lat="45.98419" lon="4.86163">
        <ele>334</ele>
        <time>2018-10-06T09:43:46Z</time>
      </trkpt>
      <trkpt lat="45.98417" lon="4.86152">
        <ele>336</ele>
        <time>2018-10-06T09:43:48Z</time>
      </trkpt>
      <trkpt lat="45.98416" lon="4.86147">
        <ele>337</ele>
        <time>2018-10-06T09:43:49Z</time>
      </trkpt>
      <trkpt lat="45.98414" lon="4.86136">
        <ele>335</ele>
        <time>2018-10-06T09:43:51Z</time>
      </trkpt>
      <trkpt lat="45.98411" lon="4.86131">
        <ele>335</ele>
        <time>2018-10-06T09:43:52Z</time>
      </trkpt>
      <trkpt lat="45.98409" lon="4.8612">
        <ele>335</ele>
        <time>2018-10-06T09:43:54Z</time>
      </trkpt>
      <trkpt lat="45.98408" lon="4.86112">
        <ele>335</ele>
        <time>2018-10-06T09:43:55Z</time>
      </trkpt>
      <trkpt lat="45.98408" lon="4.86104">
        <ele>334</ele>
        <time>2018-10-06T09:43:56Z</time>
      </trkpt>
      <trkpt lat="45.98406" lon="4.86097">
        <ele>334</ele>
        <time>2018-10-06T09:43:57Z</time>
      </trkpt>
      <trkpt lat="45.98404" lon="4.86088">
        <ele>333</ele>
        <time>2018-10-06T09:43:58Z</time>
      </trkpt>
      <trkpt lat="45.98402" lon="4.86079">
        <ele>332</ele>
        <time>2018-10-06T09:43:59Z</time>
      </trkpt>
      <trkpt lat="45.98399" lon="4.86069">
        <ele>332</ele>
        <time>2018-10-06T09:44:00Z</time>
      </trkpt>
      <trkpt lat="45.98398" lon="4.8606">
        <ele>331</ele>
        <time>2018-10-06T09:44:01Z</time>
      </trkpt>
      <trkpt lat="45.98395" lon="4.8605">
        <ele>332</ele>
        <time>2018-10-06T09:44:02Z</time>
      </trkpt>
      <trkpt lat="45.98392" lon="4.86041">
        <ele>332</ele>
        <time>2018-10-06T09:44:03Z</time>
      </trkpt>
      <trkpt lat="45.98388" lon="4.86032">
        <ele>331</ele>
        <time>2018-10-06T09:44:04Z</time>
      </trkpt>
      <trkpt lat="45.98386" lon="4.86022">
        <ele>333</ele>
        <time>2018-10-06T09:44:05Z</time>
      </trkpt>
      <trkpt lat="45.98384" lon="4.86012">
        <ele>335</ele>
        <time>2018-10-06T09:44:06Z</time>
      </trkpt>
      <trkpt lat="45.98381" lon="4.86002">
        <ele>336</ele>
        <time>2018-10-06T09:44:07Z</time>
      </trkpt>
      <trkpt lat="45.98377" lon="4.85995">
        <ele>335</ele>
        <time>2018-10-06T09:44:08Z</time>
      </trkpt>
      <trkpt lat="45.98375" lon="4.85987">
        <ele>336</ele>
        <time>2018-10-06T09:44:09Z</time>
      </trkpt>
      <trkpt lat="45.9837" lon="4.8598">
        <ele>337</ele>
        <time>2018-10-06T09:44:10Z</time>
      </trkpt>
      <trkpt lat="45.98366" lon="4.85975">
        <ele>339</ele>
        <time>2018-10-06T09:44:11Z</time>
      </trkpt>
      <trkpt lat="45.98363" lon="4.85968">
        <ele>339</ele>
        <time>2018-10-06T09:44:12Z</time>
      </trkpt>
      <trkpt lat="45.98362" lon="4.85962">
        <ele>340</ele>
        <time>2018-10-06T09:44:13Z</time>
      </trkpt>
      <trkpt lat="45.9836" lon="4.85956">
        <ele>341</ele>
        <time>2018-10-06T09:44:14Z</time>
      </trkpt>
      <trkpt lat="45.98359" lon="4.8595">
        <ele>341</ele>
        <time>2018-10-06T09:44:15Z</time>
      </trkpt>
      <trkpt lat="45.98358" lon="4.85939">
        <ele>341</ele>
        <time>2018-10-06T09:44:17Z</time>
      </trkpt>
      <trkpt lat="45.98354" lon="4.85932">
        <ele>340</ele>
        <time>2018-10-06T09:44:18Z</time>
      </trkpt>
      <trkpt lat="45.98351" lon="4.85921">
        <ele>339</ele>
        <time>2018-10-06T09:44:20Z</time>
      </trkpt>
      <trkpt lat="45.98347" lon="4.85915">
        <ele>338</ele>
        <time>2018-10-06T09:44:21Z</time>
      </trkpt>
      <trkpt lat="45.98346" lon="4.85909">
        <ele>339</ele>
        <time>2018-10-06T09:44:22Z</time>
      </trkpt>
      <trkpt lat="45.98343" lon="4.85902">
        <ele>339</ele>
        <time>2018-10-06T09:44:23Z</time>
      </trkpt>
      <trkpt lat="45.98341" lon="4.85896">
        <ele>338</ele>
        <time>2018-10-06T09:44:24Z</time>
      </trkpt>
      <trkpt lat="45.98339" lon="4.85888">
        <ele>340</ele>
        <time>2018-10-06T09:44:25Z</time>
      </trkpt>
      <trkpt lat="45.98336" lon="4.85882">
        <ele>339</ele>
        <time>2018-10-06T09:44:26Z</time>
      </trkpt>
      <trkpt lat="45.98334" lon="4.85875">
        <ele>339</ele>
        <time>2018-10-06T09:44:27Z</time>
      </trkpt>
      <trkpt lat="45.98331" lon="4.85869">
        <ele>336</ele>
        <time>2018-10-06T09:44:28Z</time>
      </trkpt>
      <trkpt lat="45.98329" lon="4.85862">
        <ele>337</ele>
        <time>2018-10-06T09:44:29Z</time>
      </trkpt>
      <trkpt lat="45.98326" lon="4.85856">
        <ele>337</ele>
        <time>2018-10-06T09:44:30Z</time>
      </trkpt>
      <trkpt lat="45.98324" lon="4.85849">
        <ele>337</ele>
        <time>2018-10-06T09:44:31Z</time>
      </trkpt>
      <trkpt lat="45.98322" lon="4.85843">
        <ele>337</ele>
        <time>2018-10-06T09:44:32Z</time>
      </trkpt>
      <trkpt lat="45.9832" lon="4.85838">
        <ele>339</ele>
        <time>2018-10-06T09:44:33Z</time>
      </trkpt>
      <trkpt lat="45.98317" lon="4.85829">
        <ele>337</ele>
        <time>2018-10-06T09:44:34Z</time>
      </trkpt>
      <trkpt lat="45.98315" lon="4.85823">
        <ele>338</ele>
        <time>2018-10-06T09:44:35Z</time>
      </trkpt>
      <trkpt lat="45.98312" lon="4.85816">
        <ele>334</ele>
        <time>2018-10-06T09:44:36Z</time>
      </trkpt>
      <trkpt lat="45.98309" lon="4.85809">
        <ele>334</ele>
        <time>2018-10-06T09:44:37Z</time>
      </trkpt>
      <trkpt lat="45.98307" lon="4.85803">
        <ele>333</ele>
        <time>2018-10-06T09:44:38Z</time>
      </trkpt>
      <trkpt lat="45.98304" lon="4.85797">
        <ele>332</ele>
        <time>2018-10-06T09:44:39Z</time>
      </trkpt>
      <trkpt lat="45.98302" lon="4.85792">
        <ele>332</ele>
        <time>2018-10-06T09:44:40Z</time>
      </trkpt>
      <trkpt lat="45.98297" lon="4.85786">
        <ele>330</ele>
        <time>2018-10-06T09:44:41Z</time>
      </trkpt>
      <trkpt lat="45.98294" lon="4.85776">
        <ele>331</ele>
        <time>2018-10-06T09:44:43Z</time>
      </trkpt>
      <trkpt lat="45.98291" lon="4.85771">
        <ele>331</ele>
        <time>2018-10-06T09:44:44Z</time>
      </trkpt>
      <trkpt lat="45.98286" lon="4.85762">
        <ele>327</ele>
        <time>2018-10-06T09:44:46Z</time>
      </trkpt>
      <trkpt lat="45.98284" lon="4.85757">
        <ele>327</ele>
        <time>2018-10-06T09:44:47Z</time>
      </trkpt>
      <trkpt lat="45.98281" lon="4.85746">
        <ele>326</ele>
        <time>2018-10-06T09:44:49Z</time>
      </trkpt>
      <trkpt lat="45.98279" lon="4.85741">
        <ele>326</ele>
        <time>2018-10-06T09:44:50Z</time>
      </trkpt>
      <trkpt lat="45.98275" lon="4.85734">
        <ele>330</ele>
        <time>2018-10-06T09:44:52Z</time>
      </trkpt>
      <trkpt lat="45.98273" lon="4.85729">
        <ele>331</ele>
        <time>2018-10-06T09:44:53Z</time>
      </trkpt>
      <trkpt lat="45.98269" lon="4.8572">
        <ele>333</ele>
        <time>2018-10-06T09:44:55Z</time>
      </trkpt>
      <trkpt lat="45.98266" lon="4.85716">
        <ele>333</ele>
        <time>2018-10-06T09:44:56Z</time>
      </trkpt>
      <trkpt lat="45.98264" lon="4.8571">
        <ele>333</ele>
        <time>2018-10-06T09:44:57Z</time>
      </trkpt>
      <trkpt lat="45.98261" lon="4.85703">
        <ele>333</ele>
        <time>2018-10-06T09:44:58Z</time>
      </trkpt>
      <trkpt lat="45.98258" lon="4.85697">
        <ele>334</ele>
        <time>2018-10-06T09:44:59Z</time>
      </trkpt>
      <trkpt lat="45.98256" lon="4.85689">
        <ele>334</ele>
        <time>2018-10-06T09:45:00Z</time>
      </trkpt>
      <trkpt lat="45.98253" lon="4.85682">
        <ele>333</ele>
        <time>2018-10-06T09:45:01Z</time>
      </trkpt>
      <trkpt lat="45.98249" lon="4.85676">
        <ele>333</ele>
        <time>2018-10-06T09:45:02Z</time>
      </trkpt>
      <trkpt lat="45.98247" lon="4.85669">
        <ele>334</ele>
        <time>2018-10-06T09:45:03Z</time>
      </trkpt>
      <trkpt lat="45.98244" lon="4.85662">
        <ele>336</ele>
        <time>2018-10-06T09:45:04Z</time>
      </trkpt>
      <trkpt lat="45.98242" lon="4.85657">
        <ele>336</ele>
        <time>2018-10-06T09:45:05Z</time>
      </trkpt>
      <trkpt lat="45.9824" lon="4.85651">
        <ele>336</ele>
        <time>2018-10-06T09:45:06Z</time>
      </trkpt>
      <trkpt lat="45.98237" lon="4.85644">
        <ele>337</ele>
        <time>2018-10-06T09:45:07Z</time>
      </trkpt>
      <trkpt lat="45.98236" lon="4.85639">
        <ele>337</ele>
        <time>2018-10-06T09:45:08Z</time>
      </trkpt>
      <trkpt lat="45.98233" lon="4.85627">
        <ele>338</ele>
        <time>2018-10-06T09:45:10Z</time>
      </trkpt>
      <trkpt lat="45.98231" lon="4.85622">
        <ele>338</ele>
        <time>2018-10-06T09:45:11Z</time>
      </trkpt>
      <trkpt lat="45.98228" lon="4.85617">
        <ele>338</ele>
        <time>2018-10-06T09:45:12Z</time>
      </trkpt>
      <trkpt lat="45.98227" lon="4.8561">
        <ele>340</ele>
        <time>2018-10-06T09:45:13Z</time>
      </trkpt>
      <trkpt lat="45.98224" lon="4.85598">
        <ele>343</ele>
        <time>2018-10-06T09:45:15Z</time>
      </trkpt>
      <trkpt lat="45.98221" lon="4.85594">
        <ele>346</ele>
        <time>2018-10-06T09:45:16Z</time>
      </trkpt>
      <trkpt lat="45.98219" lon="4.85587">
        <ele>346</ele>
        <time>2018-10-06T09:45:17Z</time>
      </trkpt>
      <trkpt lat="45.98217" lon="4.85582">
        <ele>347</ele>
        <time>2018-10-06T09:45:18Z</time>
      </trkpt>
      <trkpt lat="45.98215" lon="4.85576">
        <ele>346</ele>
        <time>2018-10-06T09:45:19Z</time>
      </trkpt>
      <trkpt lat="45.98212" lon="4.8557">
        <ele>346</ele>
        <time>2018-10-06T09:45:20Z</time>
      </trkpt>
      <trkpt lat="45.98209" lon="4.85562">
        <ele>346</ele>
        <time>2018-10-06T09:45:21Z</time>
      </trkpt>
      <trkpt lat="45.98206" lon="4.85554">
        <ele>346</ele>
        <time>2018-10-06T09:45:22Z</time>
      </trkpt>
      <trkpt lat="45.98204" lon="4.85547">
        <ele>343</ele>
        <time>2018-10-06T09:45:23Z</time>
      </trkpt>
      <trkpt lat="45.982" lon="4.85538">
        <ele>342</ele>
        <time>2018-10-06T09:45:24Z</time>
      </trkpt>
      <trkpt lat="45.98197" lon="4.85531">
        <ele>342</ele>
        <time>2018-10-06T09:45:25Z</time>
      </trkpt>
      <trkpt lat="45.98194" lon="4.85526">
        <ele>342</ele>
        <time>2018-10-06T09:45:26Z</time>
      </trkpt>
      <trkpt lat="45.98191" lon="4.8552">
        <ele>343</ele>
        <time>2018-10-06T09:45:27Z</time>
      </trkpt>
      <trkpt lat="45.98189" lon="4.85514">
        <ele>343</ele>
        <time>2018-10-06T09:45:28Z</time>
      </trkpt>
      <trkpt lat="45.98184" lon="4.85504">
        <ele>343</ele>
        <time>2018-10-06T09:45:30Z</time>
      </trkpt>
      <trkpt lat="45.98182" lon="4.85497">
        <ele>343</ele>
        <time>2018-10-06T09:45:31Z</time>
      </trkpt>
      <trkpt lat="45.98179" lon="4.85491">
        <ele>343</ele>
        <time>2018-10-06T09:45:32Z</time>
      </trkpt>
      <trkpt lat="45.98177" lon="4.85486">
        <ele>345</ele>
        <time>2018-10-06T09:45:33Z</time>
      </trkpt>
      <trkpt lat="45.98173" lon="4.85477">
        <ele>345</ele>
        <time>2018-10-06T09:45:35Z</time>
      </trkpt>
      <trkpt lat="45.98171" lon="4.85472">
        <ele>346</ele>
        <time>2018-10-06T09:45:36Z</time>
      </trkpt>
      <trkpt lat="45.98169" lon="4.85466">
        <ele>345</ele>
        <time>2018-10-06T09:45:37Z</time>
      </trkpt>
      <trkpt lat="45.98167" lon="4.8546">
        <ele>345</ele>
        <time>2018-10-06T09:45:38Z</time>
      </trkpt>
      <trkpt lat="45.98163" lon="4.85449">
        <ele>347</ele>
        <time>2018-10-06T09:45:40Z</time>
      </trkpt>
      <trkpt lat="45.98161" lon="4.85444">
        <ele>347</ele>
        <time>2018-10-06T09:45:41Z</time>
      </trkpt>
      <trkpt lat="45.98158" lon="4.85433">
        <ele>350</ele>
        <time>2018-10-06T09:45:43Z</time>
      </trkpt>
      <trkpt lat="45.98155" lon="4.85428">
        <ele>351</ele>
        <time>2018-10-06T09:45:44Z</time>
      </trkpt>
      <trkpt lat="45.98153" lon="4.85422">
        <ele>351</ele>
        <time>2018-10-06T09:45:45Z</time>
      </trkpt>
      <trkpt lat="45.9815" lon="4.85415">
        <ele>351</ele>
        <time>2018-10-06T09:45:46Z</time>
      </trkpt>
      <trkpt lat="45.98148" lon="4.8541">
        <ele>351</ele>
        <time>2018-10-06T09:45:47Z</time>
      </trkpt>
      <trkpt lat="45.98144" lon="4.85405">
        <ele>347</ele>
        <time>2018-10-06T09:45:48Z</time>
      </trkpt>
      <trkpt lat="45.98139" lon="4.85394">
        <ele>346</ele>
        <time>2018-10-06T09:45:50Z</time>
      </trkpt>
      <trkpt lat="45.98134" lon="4.85391">
        <ele>341</ele>
        <time>2018-10-06T09:45:51Z</time>
      </trkpt>
      <trkpt lat="45.98131" lon="4.85386">
        <ele>339</ele>
        <time>2018-10-06T09:45:52Z</time>
      </trkpt>
      <trkpt lat="45.98129" lon="4.8538">
        <ele>338</ele>
        <time>2018-10-06T09:45:53Z</time>
      </trkpt>
      <trkpt lat="45.98124" lon="4.8537">
        <ele>337</ele>
        <time>2018-10-06T09:45:56Z</time>
      </trkpt>
      <trkpt lat="45.98122" lon="4.85367">
        <ele>339</ele>
        <time>2018-10-06T09:45:57Z</time>
      </trkpt>
      <trkpt lat="45.9812" lon="4.85364">
        <ele>340</ele>
        <time>2018-10-06T09:45:58Z</time>
      </trkpt>
      <trkpt lat="45.98115" lon="4.85354">
        <ele>339</ele>
        <time>2018-10-06T09:45:59Z</time>
      </trkpt>
      <trkpt lat="45.98111" lon="4.85343">
        <ele>339</ele>
        <time>2018-10-06T09:46:01Z</time>
      </trkpt>
      <trkpt lat="45.98109" lon="4.85338">
        <ele>339</ele>
        <time>2018-10-06T09:46:02Z</time>
      </trkpt>
      <trkpt lat="45.98107" lon="4.85332">
        <ele>339</ele>
        <time>2018-10-06T09:46:03Z</time>
      </trkpt>
      <trkpt lat="45.98104" lon="4.85326">
        <ele>339</ele>
        <time>2018-10-06T09:46:04Z</time>
      </trkpt>
      <trkpt lat="45.98103" lon="4.8532">
        <ele>338</ele>
        <time>2018-10-06T09:46:05Z</time>
      </trkpt>
      <trkpt lat="45.981" lon="4.85313">
        <ele>338</ele>
        <time>2018-10-06T09:46:06Z</time>
      </trkpt>
      <trkpt lat="45.98098" lon="4.85307">
        <ele>337</ele>
        <time>2018-10-06T09:46:07Z</time>
      </trkpt>
      <trkpt lat="45.98095" lon="4.85301">
        <ele>337</ele>
        <time>2018-10-06T09:46:08Z</time>
      </trkpt>
      <trkpt lat="45.9809" lon="4.85292">
        <ele>337</ele>
        <time>2018-10-06T09:46:10Z</time>
      </trkpt>
      <trkpt lat="45.98089" lon="4.85287">
        <ele>337</ele>
        <time>2018-10-06T09:46:11Z</time>
      </trkpt>
      <trkpt lat="45.98084" lon="4.85277">
        <ele>337</ele>
        <time>2018-10-06T09:46:13Z</time>
      </trkpt>
      <trkpt lat="45.98082" lon="4.85271">
        <ele>337</ele>
        <time>2018-10-06T09:46:14Z</time>
      </trkpt>
      <trkpt lat="45.98077" lon="4.85262">
        <ele>336</ele>
        <time>2018-10-06T09:46:16Z</time>
      </trkpt>
      <trkpt lat="45.98075" lon="4.85256">
        <ele>336</ele>
        <time>2018-10-06T09:46:17Z</time>
      </trkpt>
      <trkpt lat="45.98071" lon="4.85247">
        <ele>338</ele>
        <time>2018-10-06T09:46:19Z</time>
      </trkpt>
      <trkpt lat="45.9807" lon="4.85244">
        <ele>338</ele>
        <time>2018-10-06T09:46:20Z</time>
      </trkpt>
      <trkpt lat="45.98066" lon="4.85236">
        <ele>340</ele>
        <time>2018-10-06T09:46:22Z</time>
      </trkpt>
      <trkpt lat="45.98065" lon="4.85234">
        <ele>342</ele>
        <time>2018-10-06T09:46:23Z</time>
      </trkpt>
      <trkpt lat="45.98062" lon="4.85226">
        <ele>341</ele>
        <time>2018-10-06T09:46:24Z</time>
      </trkpt>
      <trkpt lat="45.9806" lon="4.8522">
        <ele>340</ele>
        <time>2018-10-06T09:46:25Z</time>
      </trkpt>
      <trkpt lat="45.98056" lon="4.8521">
        <ele>341</ele>
        <time>2018-10-06T09:46:27Z</time>
      </trkpt>
      <trkpt lat="45.98053" lon="4.85204">
        <ele>341</ele>
        <time>2018-10-06T09:46:28Z</time>
      </trkpt>
      <trkpt lat="45.98045" lon="4.85197">
        <ele>339</ele>
        <time>2018-10-06T09:46:30Z</time>
      </trkpt>
      <trkpt lat="45.98043" lon="4.85191">
        <ele>339</ele>
        <time>2018-10-06T09:46:31Z</time>
      </trkpt>
      <trkpt lat="45.98041" lon="4.85185">
        <ele>337</ele>
        <time>2018-10-06T09:46:32Z</time>
      </trkpt>
      <trkpt lat="45.9804" lon="4.85179">
        <ele>338</ele>
        <time>2018-10-06T09:46:33Z</time>
      </trkpt>
      <trkpt lat="45.98035" lon="4.85168">
        <ele>337</ele>
        <time>2018-10-06T09:46:35Z</time>
      </trkpt>
      <trkpt lat="45.98035" lon="4.85162">
        <ele>338</ele>
        <time>2018-10-06T09:46:36Z</time>
      </trkpt>
      <trkpt lat="45.98031" lon="4.85155">
        <ele>335</ele>
        <time>2018-10-06T09:46:37Z</time>
      </trkpt>
      <trkpt lat="45.9803" lon="4.85148">
        <ele>334</ele>
        <time>2018-10-06T09:46:38Z</time>
      </trkpt>
      <trkpt lat="45.98028" lon="4.85142">
        <ele>334</ele>
        <time>2018-10-06T09:46:39Z</time>
      </trkpt>
      <trkpt lat="45.98026" lon="4.85134">
        <ele>333</ele>
        <time>2018-10-06T09:46:40Z</time>
      </trkpt>
      <trkpt lat="45.98024" lon="4.85127">
        <ele>334</ele>
        <time>2018-10-06T09:46:41Z</time>
      </trkpt>
      <trkpt lat="45.98022" lon="4.85119">
        <ele>333</ele>
        <time>2018-10-06T09:46:42Z</time>
      </trkpt>
      <trkpt lat="45.9802" lon="4.85112">
        <ele>334</ele>
        <time>2018-10-06T09:46:43Z</time>
      </trkpt>
      <trkpt lat="45.98019" lon="4.85104">
        <ele>333</ele>
        <time>2018-10-06T09:46:44Z</time>
      </trkpt>
      <trkpt lat="45.98017" lon="4.85096">
        <ele>333</ele>
        <time>2018-10-06T09:46:45Z</time>
      </trkpt>
      <trkpt lat="45.98016" lon="4.8509">
        <ele>333</ele>
        <time>2018-10-06T09:46:46Z</time>
      </trkpt>
      <trkpt lat="45.98016" lon="4.85082">
        <ele>332</ele>
        <time>2018-10-06T09:46:47Z</time>
      </trkpt>
      <trkpt lat="45.98015" lon="4.85075">
        <ele>332</ele>
        <time>2018-10-06T09:46:48Z</time>
      </trkpt>
      <trkpt lat="45.98016" lon="4.85068">
        <ele>333</ele>
        <time>2018-10-06T09:46:49Z</time>
      </trkpt>
      <trkpt lat="45.98017" lon="4.85061">
        <ele>333</ele>
        <time>2018-10-06T09:46:50Z</time>
      </trkpt>
      <trkpt lat="45.98018" lon="4.85051">
        <ele>334</ele>
        <time>2018-10-06T09:46:51Z</time>
      </trkpt>
      <trkpt lat="45.98018" lon="4.85043">
        <ele>335</ele>
        <time>2018-10-06T09:46:52Z</time>
      </trkpt>
      <trkpt lat="45.98017" lon="4.85036">
        <ele>333</ele>
        <time>2018-10-06T09:46:53Z</time>
      </trkpt>
      <trkpt lat="45.98018" lon="4.85027">
        <ele>334</ele>
        <time>2018-10-06T09:46:54Z</time>
      </trkpt>
      <trkpt lat="45.98018" lon="4.85018">
        <ele>334</ele>
        <time>2018-10-06T09:46:55Z</time>
      </trkpt>
      <trkpt lat="45.98017" lon="4.8501">
        <ele>337</ele>
        <time>2018-10-06T09:46:56Z</time>
      </trkpt>
      <trkpt lat="45.98016" lon="4.85003">
        <ele>337</ele>
        <time>2018-10-06T09:46:57Z</time>
      </trkpt>
      <trkpt lat="45.98015" lon="4.84996">
        <ele>335</ele>
        <time>2018-10-06T09:46:58Z</time>
      </trkpt>
      <trkpt lat="45.98014" lon="4.84988">
        <ele>333</ele>
        <time>2018-10-06T09:46:59Z</time>
      </trkpt>
      <trkpt lat="45.98011" lon="4.84982">
        <ele>331</ele>
        <time>2018-10-06T09:47:00Z</time>
      </trkpt>
      <trkpt lat="45.98011" lon="4.84975">
        <ele>331</ele>
        <time>2018-10-06T09:47:01Z</time>
      </trkpt>
      <trkpt lat="45.9801" lon="4.84969">
        <ele>331</ele>
        <time>2018-10-06T09:47:02Z</time>
      </trkpt>
      <trkpt lat="45.9801" lon="4.84957">
        <ele>331</ele>
        <time>2018-10-06T09:47:04Z</time>
      </trkpt>
      <trkpt lat="45.98008" lon="4.84951">
        <ele>331</ele>
        <time>2018-10-06T09:47:05Z</time>
      </trkpt>
      <trkpt lat="45.98007" lon="4.84939">
        <ele>332</ele>
        <time>2018-10-06T09:47:07Z</time>
      </trkpt>
      <trkpt lat="45.98006" lon="4.84933">
        <ele>332</ele>
        <time>2018-10-06T09:47:08Z</time>
      </trkpt>
      <trkpt lat="45.98005" lon="4.84925">
        <ele>331</ele>
        <time>2018-10-06T09:47:09Z</time>
      </trkpt>
      <trkpt lat="45.98003" lon="4.84914">
        <ele>332</ele>
        <time>2018-10-06T09:47:10Z</time>
      </trkpt>
      <trkpt lat="45.98002" lon="4.84907">
        <ele>332</ele>
        <time>2018-10-06T09:47:11Z</time>
      </trkpt>
      <trkpt lat="45.98002" lon="4.84899">
        <ele>332</ele>
        <time>2018-10-06T09:47:12Z</time>
      </trkpt>
      <trkpt lat="45.98001" lon="4.84892">
        <ele>332</ele>
        <time>2018-10-06T09:47:13Z</time>
      </trkpt>
      <trkpt lat="45.98" lon="4.84884">
        <ele>332</ele>
        <time>2018-10-06T09:47:14Z</time>
      </trkpt>
      <trkpt lat="45.97999" lon="4.84876">
        <ele>331</ele>
        <time>2018-10-06T09:47:15Z</time>
      </trkpt>
      <trkpt lat="45.97998" lon="4.84869">
        <ele>330</ele>
        <time>2018-10-06T09:47:16Z</time>
      </trkpt>
      <trkpt lat="45.97997" lon="4.84861">
        <ele>330</ele>
        <time>2018-10-06T09:47:17Z</time>
      </trkpt>
      <trkpt lat="45.97997" lon="4.84854">
        <ele>331</ele>
        <time>2018-10-06T09:47:18Z</time>
      </trkpt>
      <trkpt lat="45.97997" lon="4.84843">
        <ele>334</ele>
        <time>2018-10-06T09:47:20Z</time>
      </trkpt>
      <trkpt lat="45.97996" lon="4.84836">
        <ele>334</ele>
        <time>2018-10-06T09:47:21Z</time>
      </trkpt>
      <trkpt lat="45.97995" lon="4.84823">
        <ele>336</ele>
        <time>2018-10-06T09:47:23Z</time>
      </trkpt>
      <trkpt lat="45.97995" lon="4.84816">
        <ele>335</ele>
        <time>2018-10-06T09:47:24Z</time>
      </trkpt>
      <trkpt lat="45.97994" lon="4.84809">
        <ele>334</ele>
        <time>2018-10-06T09:47:25Z</time>
      </trkpt>
      <trkpt lat="45.97994" lon="4.84803">
        <ele>334</ele>
        <time>2018-10-06T09:47:26Z</time>
      </trkpt>
      <trkpt lat="45.97993" lon="4.84796">
        <ele>334</ele>
        <time>2018-10-06T09:47:27Z</time>
      </trkpt>
      <trkpt lat="45.97992" lon="4.84789">
        <ele>335</ele>
        <time>2018-10-06T09:47:28Z</time>
      </trkpt>
      <trkpt lat="45.9799" lon="4.84778">
        <ele>334</ele>
        <time>2018-10-06T09:47:30Z</time>
      </trkpt>
      <trkpt lat="45.97989" lon="4.84772">
        <ele>334</ele>
        <time>2018-10-06T09:47:31Z</time>
      </trkpt>
      <trkpt lat="45.97987" lon="4.84764">
        <ele>333</ele>
        <time>2018-10-06T09:47:32Z</time>
      </trkpt>
      <trkpt lat="45.97986" lon="4.84757">
        <ele>332</ele>
        <time>2018-10-06T09:47:33Z</time>
      </trkpt>
      <trkpt lat="45.97985" lon="4.84745">
        <ele>330</ele>
        <time>2018-10-06T09:47:35Z</time>
      </trkpt>
      <trkpt lat="45.97985" lon="4.84738">
        <ele>330</ele>
        <time>2018-10-06T09:47:36Z</time>
      </trkpt>
      <trkpt lat="45.97984" lon="4.84731">
        <ele>329</ele>
        <time>2018-10-06T09:47:37Z</time>
      </trkpt>
      <trkpt lat="45.97984" lon="4.84725">
        <ele>329</ele>
        <time>2018-10-06T09:47:38Z</time>
      </trkpt>
      <trkpt lat="45.97985" lon="4.84715">
        <ele>330</ele>
        <time>2018-10-06T09:47:40Z</time>
      </trkpt>
      <trkpt lat="45.97986" lon="4.84708">
        <ele>331</ele>
        <time>2018-10-06T09:47:41Z</time>
      </trkpt>
      <trkpt lat="45.97984" lon="4.84696">
        <ele>332</ele>
        <time>2018-10-06T09:47:43Z</time>
      </trkpt>
      <trkpt lat="45.97986" lon="4.84691">
        <ele>333</ele>
        <time>2018-10-06T09:47:44Z</time>
      </trkpt>
      <trkpt lat="45.97985" lon="4.84684">
        <ele>331</ele>
        <time>2018-10-06T09:47:45Z</time>
      </trkpt>
      <trkpt lat="45.97992" lon="4.84677">
        <ele>335</ele>
        <time>2018-10-06T09:47:46Z</time>
      </trkpt>
      <trkpt lat="45.9799" lon="4.8467">
        <ele>336</ele>
        <time>2018-10-06T09:47:47Z</time>
      </trkpt>
      <trkpt lat="45.97987" lon="4.84664">
        <ele>335</ele>
        <time>2018-10-06T09:47:48Z</time>
      </trkpt>
      <trkpt lat="45.97988" lon="4.84658">
        <ele>337</ele>
        <time>2018-10-06T09:47:49Z</time>
      </trkpt>
      <trkpt lat="45.97986" lon="4.8465">
        <ele>336</ele>
        <time>2018-10-06T09:47:50Z</time>
      </trkpt>
      <trkpt lat="45.97985" lon="4.84639">
        <ele>340</ele>
        <time>2018-10-06T09:47:52Z</time>
      </trkpt>
      <trkpt lat="45.97984" lon="4.84633">
        <ele>341</ele>
        <time>2018-10-06T09:47:53Z</time>
      </trkpt>
      <trkpt lat="45.9798" lon="4.84624">
        <ele>340</ele>
        <time>2018-10-06T09:47:55Z</time>
      </trkpt>
      <trkpt lat="45.97979" lon="4.84617">
        <ele>340</ele>
        <time>2018-10-06T09:47:56Z</time>
      </trkpt>
      <trkpt lat="45.97976" lon="4.84606">
        <ele>340</ele>
        <time>2018-10-06T09:47:58Z</time>
      </trkpt>
      <trkpt lat="45.97975" lon="4.846">
        <ele>340</ele>
        <time>2018-10-06T09:47:59Z</time>
      </trkpt>
      <trkpt lat="45.97974" lon="4.84592">
        <ele>339</ele>
        <time>2018-10-06T09:48:00Z</time>
      </trkpt>
      <trkpt lat="45.97973" lon="4.84586">
        <ele>335</ele>
        <time>2018-10-06T09:48:01Z</time>
      </trkpt>
      <trkpt lat="45.97972" lon="4.84579">
        <ele>336</ele>
        <time>2018-10-06T09:48:02Z</time>
      </trkpt>
      <trkpt lat="45.9797" lon="4.84572">
        <ele>338</ele>
        <time>2018-10-06T09:48:03Z</time>
      </trkpt>
      <trkpt lat="45.97968" lon="4.84561">
        <ele>339</ele>
        <time>2018-10-06T09:48:05Z</time>
      </trkpt>
      <trkpt lat="45.97967" lon="4.84558">
        <ele>340</ele>
        <time>2018-10-06T09:48:06Z</time>
      </trkpt>
      <trkpt lat="45.97966" lon="4.84547">
        <ele>338</ele>
        <time>2018-10-06T09:48:08Z</time>
      </trkpt>
      <trkpt lat="45.97965" lon="4.84541">
        <ele>338</ele>
        <time>2018-10-06T09:48:09Z</time>
      </trkpt>
      <trkpt lat="45.97965" lon="4.84528">
        <ele>340</ele>
        <time>2018-10-06T09:48:11Z</time>
      </trkpt>
      <trkpt lat="45.97962" lon="4.84522">
        <ele>336</ele>
        <time>2018-10-06T09:48:12Z</time>
      </trkpt>
      <trkpt lat="45.97959" lon="4.84512">
        <ele>332</ele>
        <time>2018-10-06T09:48:14Z</time>
      </trkpt>
      <trkpt lat="45.97958" lon="4.84506">
        <ele>333</ele>
        <time>2018-10-06T09:48:15Z</time>
      </trkpt>
      <trkpt lat="45.97956" lon="4.84495">
        <ele>337</ele>
        <time>2018-10-06T09:48:17Z</time>
      </trkpt>
      <trkpt lat="45.97955" lon="4.84489">
        <ele>338</ele>
        <time>2018-10-06T09:48:18Z</time>
      </trkpt>
      <trkpt lat="45.97953" lon="4.84483">
        <ele>337</ele>
        <time>2018-10-06T09:48:19Z</time>
      </trkpt>
      <trkpt lat="45.97952" lon="4.84476">
        <ele>336</ele>
        <time>2018-10-06T09:48:20Z</time>
      </trkpt>
      <trkpt lat="45.97952" lon="4.8447">
        <ele>336</ele>
        <time>2018-10-06T09:48:21Z</time>
      </trkpt>
      <trkpt lat="45.97949" lon="4.84464">
        <ele>336</ele>
        <time>2018-10-06T09:48:22Z</time>
      </trkpt>
      <trkpt lat="45.97948" lon="4.84458">
        <ele>337</ele>
        <time>2018-10-06T09:48:23Z</time>
      </trkpt>
      <trkpt lat="45.97947" lon="4.84451">
        <ele>338</ele>
        <time>2018-10-06T09:48:24Z</time>
      </trkpt>
      <trkpt lat="45.97944" lon="4.84439">
        <ele>338</ele>
        <time>2018-10-06T09:48:26Z</time>
      </trkpt>
      <trkpt lat="45.97943" lon="4.84432">
        <ele>339</ele>
        <time>2018-10-06T09:48:27Z</time>
      </trkpt>
      <trkpt lat="45.97942" lon="4.84426">
        <ele>339</ele>
        <time>2018-10-06T09:48:28Z</time>
      </trkpt>
      <trkpt lat="45.97941" lon="4.84419">
        <ele>339</ele>
        <time>2018-10-06T09:48:29Z</time>
      </trkpt>
      <trkpt lat="45.97941" lon="4.84412">
        <ele>339</ele>
        <time>2018-10-06T09:48:30Z</time>
      </trkpt>
      <trkpt lat="45.9794" lon="4.84406">
        <ele>338</ele>
        <time>2018-10-06T09:48:31Z</time>
      </trkpt>
      <trkpt lat="45.97939" lon="4.84395">
        <ele>340</ele>
        <time>2018-10-06T09:48:33Z</time>
      </trkpt>
      <trkpt lat="45.97939" lon="4.84389">
        <ele>340</ele>
        <time>2018-10-06T09:48:34Z</time>
      </trkpt>
      <trkpt lat="45.97936" lon="4.84378">
        <ele>339</ele>
        <time>2018-10-06T09:48:36Z</time>
      </trkpt>
      <trkpt lat="45.97935" lon="4.84373">
        <ele>340</ele>
        <time>2018-10-06T09:48:37Z</time>
      </trkpt>
      <trkpt lat="45.97934" lon="4.84364">
        <ele>340</ele>
        <time>2018-10-06T09:48:39Z</time>
      </trkpt>
      <trkpt lat="45.97932" lon="4.84359">
        <ele>338</ele>
        <time>2018-10-06T09:48:40Z</time>
      </trkpt>
      <trkpt lat="45.9793" lon="4.84348">
        <ele>338</ele>
        <time>2018-10-06T09:48:42Z</time>
      </trkpt>
      <trkpt lat="45.97929" lon="4.84342">
        <ele>337</ele>
        <time>2018-10-06T09:48:43Z</time>
      </trkpt>
      <trkpt lat="45.97927" lon="4.8433">
        <ele>337</ele>
        <time>2018-10-06T09:48:45Z</time>
      </trkpt>
      <trkpt lat="45.97926" lon="4.84324">
        <ele>337</ele>
        <time>2018-10-06T09:48:46Z</time>
      </trkpt>
      <trkpt lat="45.97924" lon="4.84312">
        <ele>338</ele>
        <time>2018-10-06T09:48:48Z</time>
      </trkpt>
      <trkpt lat="45.97922" lon="4.84306">
        <ele>339</ele>
        <time>2018-10-06T09:48:49Z</time>
      </trkpt>
      <trkpt lat="45.97921" lon="4.843">
        <ele>339</ele>
        <time>2018-10-06T09:48:50Z</time>
      </trkpt>
      <trkpt lat="45.9792" lon="4.84292">
        <ele>338</ele>
        <time>2018-10-06T09:48:51Z</time>
      </trkpt>
      <trkpt lat="45.97923" lon="4.8428">
        <ele>340</ele>
        <time>2018-10-06T09:48:53Z</time>
      </trkpt>
      <trkpt lat="45.97925" lon="4.84275">
        <ele>340</ele>
        <time>2018-10-06T09:48:54Z</time>
      </trkpt>
      <trkpt lat="45.97928" lon="4.8427">
        <ele>340</ele>
        <time>2018-10-06T09:48:55Z</time>
      </trkpt>
      <trkpt lat="45.97932" lon="4.84267">
        <ele>339</ele>
        <time>2018-10-06T09:48:56Z</time>
      </trkpt>
      <trkpt lat="45.97939" lon="4.84259">
        <ele>339</ele>
        <time>2018-10-06T09:48:58Z</time>
      </trkpt>
      <trkpt lat="45.97943" lon="4.84256">
        <ele>339</ele>
        <time>2018-10-06T09:48:59Z</time>
      </trkpt>
      <trkpt lat="45.97947" lon="4.84252">
        <ele>337</ele>
        <time>2018-10-06T09:49:00Z</time>
      </trkpt>
      <trkpt lat="45.97951" lon="4.84248">
        <ele>337</ele>
        <time>2018-10-06T09:49:01Z</time>
      </trkpt>
      <trkpt lat="45.97954" lon="4.84244">
        <ele>337</ele>
        <time>2018-10-06T09:49:02Z</time>
      </trkpt>
      <trkpt lat="45.97959" lon="4.8424">
        <ele>337</ele>
        <time>2018-10-06T09:49:03Z</time>
      </trkpt>
      <trkpt lat="45.97963" lon="4.84234">
        <ele>339</ele>
        <time>2018-10-06T09:49:04Z</time>
      </trkpt>
      <trkpt lat="45.97968" lon="4.84229">
        <ele>339</ele>
        <time>2018-10-06T09:49:05Z</time>
      </trkpt>
      <trkpt lat="45.97972" lon="4.84225">
        <ele>339</ele>
        <time>2018-10-06T09:49:06Z</time>
      </trkpt>
      <trkpt lat="45.97976" lon="4.84222">
        <ele>339</ele>
        <time>2018-10-06T09:49:07Z</time>
      </trkpt>
      <trkpt lat="45.9798" lon="4.84218">
        <ele>339</ele>
        <time>2018-10-06T09:49:08Z</time>
      </trkpt>
      <trkpt lat="45.97985" lon="4.84214">
        <ele>338</ele>
        <time>2018-10-06T09:49:09Z</time>
      </trkpt>
      <trkpt lat="45.97989" lon="4.84213">
        <ele>338</ele>
        <time>2018-10-06T09:49:10Z</time>
      </trkpt>
      <trkpt lat="45.97993" lon="4.84209">
        <ele>338</ele>
        <time>2018-10-06T09:49:11Z</time>
      </trkpt>
      <trkpt lat="45.97998" lon="4.84204">
        <ele>338</ele>
        <time>2018-10-06T09:49:12Z</time>
      </trkpt>
      <trkpt lat="45.98004" lon="4.84201">
        <ele>338</ele>
        <time>2018-10-06T09:49:13Z</time>
      </trkpt>
      <trkpt lat="45.98009" lon="4.84197">
        <ele>338</ele>
        <time>2018-10-06T09:49:14Z</time>
      </trkpt>
      <trkpt lat="45.98014" lon="4.84195">
        <ele>340</ele>
        <time>2018-10-06T09:49:15Z</time>
      </trkpt>
      <trkpt lat="45.98019" lon="4.84189">
        <ele>316</ele>
        <time>2018-10-06T09:49:16Z</time>
      </trkpt>
      <trkpt lat="45.98024" lon="4.84184">
        <ele>322</ele>
        <time>2018-10-06T09:49:17Z</time>
      </trkpt>
      <trkpt lat="45.9803" lon="4.84179">
        <ele>328</ele>
        <time>2018-10-06T09:49:18Z</time>
      </trkpt>
      <trkpt lat="45.98035" lon="4.84175">
        <ele>332</ele>
        <time>2018-10-06T09:49:19Z</time>
      </trkpt>
      <trkpt lat="45.9804" lon="4.84171">
        <ele>333</ele>
        <time>2018-10-06T09:49:20Z</time>
      </trkpt>
      <trkpt lat="45.98046" lon="4.84167">
        <ele>336</ele>
        <time>2018-10-06T09:49:21Z</time>
      </trkpt>
      <trkpt lat="45.9805" lon="4.84164">
        <ele>336</ele>
        <time>2018-10-06T09:49:22Z</time>
      </trkpt>
      <trkpt lat="45.98053" lon="4.84159">
        <ele>334</ele>
        <time>2018-10-06T09:49:23Z</time>
      </trkpt>
      <trkpt lat="45.98057" lon="4.84156">
        <ele>335</ele>
        <time>2018-10-06T09:49:24Z</time>
      </trkpt>
      <trkpt lat="45.98062" lon="4.84151">
        <ele>336</ele>
        <time>2018-10-06T09:49:25Z</time>
      </trkpt>
      <trkpt lat="45.98067" lon="4.84147">
        <ele>337</ele>
        <time>2018-10-06T09:49:26Z</time>
      </trkpt>
      <trkpt lat="45.98072" lon="4.84143">
        <ele>337</ele>
        <time>2018-10-06T09:49:27Z</time>
      </trkpt>
      <trkpt lat="45.98076" lon="4.8414">
        <ele>337</ele>
        <time>2018-10-06T09:49:28Z</time>
      </trkpt>
      <trkpt lat="45.98081" lon="4.84134">
        <ele>337</ele>
        <time>2018-10-06T09:49:29Z</time>
      </trkpt>
      <trkpt lat="45.98086" lon="4.8413">
        <ele>338</ele>
        <time>2018-10-06T09:49:30Z</time>
      </trkpt>
      <trkpt lat="45.98092" lon="4.84125">
        <ele>338</ele>
        <time>2018-10-06T09:49:31Z</time>
      </trkpt>
      <trkpt lat="45.98097" lon="4.84116">
        <ele>341</ele>
        <time>2018-10-06T09:49:32Z</time>
      </trkpt>
      <trkpt lat="45.98103" lon="4.84111">
        <ele>340</ele>
        <time>2018-10-06T09:49:33Z</time>
      </trkpt>
      <trkpt lat="45.98109" lon="4.84106">
        <ele>342</ele>
        <time>2018-10-06T09:49:34Z</time>
      </trkpt>
      <trkpt lat="45.98115" lon="4.84101">
        <ele>341</ele>
        <time>2018-10-06T09:49:35Z</time>
      </trkpt>
      <trkpt lat="45.9812" lon="4.84098">
        <ele>342</ele>
        <time>2018-10-06T09:49:36Z</time>
      </trkpt>
      <trkpt lat="45.98125" lon="4.84093">
        <ele>341</ele>
        <time>2018-10-06T09:49:37Z</time>
      </trkpt>
      <trkpt lat="45.9813" lon="4.84088">
        <ele>342</ele>
        <time>2018-10-06T09:49:38Z</time>
      </trkpt>
      <trkpt lat="45.98135" lon="4.84081">
        <ele>341</ele>
        <time>2018-10-06T09:49:39Z</time>
      </trkpt>
      <trkpt lat="45.9814" lon="4.84075">
        <ele>341</ele>
        <time>2018-10-06T09:49:40Z</time>
      </trkpt>
      <trkpt lat="45.98145" lon="4.84068">
        <ele>340</ele>
        <time>2018-10-06T09:49:41Z</time>
      </trkpt>
      <trkpt lat="45.9815" lon="4.84062">
        <ele>341</ele>
        <time>2018-10-06T09:49:42Z</time>
      </trkpt>
      <trkpt lat="45.98155" lon="4.84056">
        <ele>342</ele>
        <time>2018-10-06T09:49:43Z</time>
      </trkpt>
      <trkpt lat="45.98159" lon="4.84052">
        <ele>343</ele>
        <time>2018-10-06T09:49:44Z</time>
      </trkpt>
      <trkpt lat="45.98164" lon="4.84041">
        <ele>341</ele>
        <time>2018-10-06T09:49:45Z</time>
      </trkpt>
      <trkpt lat="45.98168" lon="4.84032">
        <ele>341</ele>
        <time>2018-10-06T09:49:46Z</time>
      </trkpt>
      <trkpt lat="45.98172" lon="4.84024">
        <ele>342</ele>
        <time>2018-10-06T09:49:47Z</time>
      </trkpt>
      <trkpt lat="45.98176" lon="4.84015">
        <ele>340</ele>
        <time>2018-10-06T09:49:48Z</time>
      </trkpt>
      <trkpt lat="45.9818" lon="4.84004">
        <ele>338</ele>
        <time>2018-10-06T09:49:49Z</time>
      </trkpt>
      <trkpt lat="45.98184" lon="4.83995">
        <ele>338</ele>
        <time>2018-10-06T09:49:50Z</time>
      </trkpt>
      <trkpt lat="45.98188" lon="4.83985">
        <ele>337</ele>
        <time>2018-10-06T09:49:51Z</time>
      </trkpt>
      <trkpt lat="45.98191" lon="4.83978">
        <ele>337</ele>
        <time>2018-10-06T09:49:52Z</time>
      </trkpt>
      <trkpt lat="45.98195" lon="4.83969">
        <ele>337</ele>
        <time>2018-10-06T09:49:53Z</time>
      </trkpt>
      <trkpt lat="45.98195" lon="4.83956">
        <ele>333</ele>
        <time>2018-10-06T09:49:54Z</time>
      </trkpt>
      <trkpt lat="45.98198" lon="4.83948">
        <ele>333</ele>
        <time>2018-10-06T09:49:55Z</time>
      </trkpt>
      <trkpt lat="45.98202" lon="4.83938">
        <ele>308</ele>
        <time>2018-10-06T09:49:56Z</time>
      </trkpt>
      <trkpt lat="45.98205" lon="4.8393">
        <ele>313</ele>
        <time>2018-10-06T09:49:57Z</time>
      </trkpt>
      <trkpt lat="45.98208" lon="4.83921">
        <ele>317</ele>
        <time>2018-10-06T09:49:58Z</time>
      </trkpt>
      <trkpt lat="45.98211" lon="4.83913">
        <ele>320</ele>
        <time>2018-10-06T09:49:59Z</time>
      </trkpt>
      <trkpt lat="45.98214" lon="4.83906">
        <ele>324</ele>
        <time>2018-10-06T09:50:00Z</time>
      </trkpt>
      <trkpt lat="45.98218" lon="4.83897">
        <ele>301</ele>
        <time>2018-10-06T09:50:01Z</time>
      </trkpt>
      <trkpt lat="45.98221" lon="4.83886">
        <ele>307</ele>
        <time>2018-10-06T09:50:02Z</time>
      </trkpt>
      <trkpt lat="45.98225" lon="4.83877">
        <ele>315</ele>
        <time>2018-10-06T09:50:03Z</time>
      </trkpt>
      <trkpt lat="45.98228" lon="4.83867">
        <ele>320</ele>
        <time>2018-10-06T09:50:04Z</time>
      </trkpt>
      <trkpt lat="45.98232" lon="4.83858">
        <ele>322</ele>
        <time>2018-10-06T09:50:05Z</time>
      </trkpt>
      <trkpt lat="45.98235" lon="4.83843">
        <ele>322</ele>
        <time>2018-10-06T09:50:06Z</time>
      </trkpt>
      <trkpt lat="45.98238" lon="4.83832">
        <ele>324</ele>
        <time>2018-10-06T09:50:07Z</time>
      </trkpt>
      <trkpt lat="45.98242" lon="4.83822">
        <ele>324</ele>
        <time>2018-10-06T09:50:08Z</time>
      </trkpt>
      <trkpt lat="45.98245" lon="4.83809">
        <ele>326</ele>
        <time>2018-10-06T09:50:09Z</time>
      </trkpt>
      <trkpt lat="45.98249" lon="4.8379">
        <ele>324</ele>
        <time>2018-10-06T09:50:10Z</time>
      </trkpt>
      <trkpt lat="45.98252" lon="4.83784">
        <ele>325</ele>
        <time>2018-10-06T09:50:11Z</time>
      </trkpt>
      <trkpt lat="45.98254" lon="4.8377">
        <ele>325</ele>
        <time>2018-10-06T09:50:12Z</time>
      </trkpt>
      <trkpt lat="45.98257" lon="4.83763">
        <ele>326</ele>
        <time>2018-10-06T09:50:13Z</time>
      </trkpt>
      <trkpt lat="45.98259" lon="4.83752">
        <ele>327</ele>
        <time>2018-10-06T09:50:14Z</time>
      </trkpt>
      <trkpt lat="45.98261" lon="4.83739">
        <ele>327</ele>
        <time>2018-10-06T09:50:15Z</time>
      </trkpt>
      <trkpt lat="45.98264" lon="4.83729">
        <ele>327</ele>
        <time>2018-10-06T09:50:16Z</time>
      </trkpt>
      <trkpt lat="45.98267" lon="4.83717">
        <ele>327</ele>
        <time>2018-10-06T09:50:17Z</time>
      </trkpt>
      <trkpt lat="45.9827" lon="4.8371">
        <ele>328</ele>
        <time>2018-10-06T09:50:18Z</time>
      </trkpt>
      <trkpt lat="45.98273" lon="4.83701">
        <ele>328</ele>
        <time>2018-10-06T09:50:19Z</time>
      </trkpt>
      <trkpt lat="45.98275" lon="4.83692">
        <ele>328</ele>
        <time>2018-10-06T09:50:20Z</time>
      </trkpt>
      <trkpt lat="45.98278" lon="4.83684">
        <ele>327</ele>
        <time>2018-10-06T09:50:21Z</time>
      </trkpt>
      <trkpt lat="45.98282" lon="4.8368">
        <ele>329</ele>
        <time>2018-10-06T09:50:22Z</time>
      </trkpt>
      <trkpt lat="45.98285" lon="4.83672">
        <ele>328</ele>
        <time>2018-10-06T09:50:23Z</time>
      </trkpt>
      <trkpt lat="45.98288" lon="4.83666">
        <ele>329</ele>
        <time>2018-10-06T09:50:24Z</time>
      </trkpt>
      <trkpt lat="45.98291" lon="4.83658">
        <ele>329</ele>
        <time>2018-10-06T09:50:25Z</time>
      </trkpt>
      <trkpt lat="45.98294" lon="4.8365">
        <ele>295</ele>
        <time>2018-10-06T09:50:26Z</time>
      </trkpt>
      <trkpt lat="45.98298" lon="4.83646">
        <ele>304</ele>
        <time>2018-10-06T09:50:27Z</time>
      </trkpt>
      <trkpt lat="45.98302" lon="4.83642">
        <ele>311</ele>
        <time>2018-10-06T09:50:28Z</time>
      </trkpt>
      <trkpt lat="45.98306" lon="4.83634">
        <ele>318</ele>
        <time>2018-10-06T09:50:29Z</time>
      </trkpt>
      <trkpt lat="45.9831" lon="4.83626">
        <ele>323</ele>
        <time>2018-10-06T09:50:30Z</time>
      </trkpt>
      <trkpt lat="45.98313" lon="4.83617">
        <ele>326</ele>
        <time>2018-10-06T09:50:31Z</time>
      </trkpt>
      <trkpt lat="45.98319" lon="4.8361">
        <ele>327</ele>
        <time>2018-10-06T09:50:32Z</time>
      </trkpt>
      <trkpt lat="45.98324" lon="4.83609">
        <ele>330</ele>
        <time>2018-10-06T09:50:33Z</time>
      </trkpt>
      <trkpt lat="45.98328" lon="4.83601">
        <ele>330</ele>
        <time>2018-10-06T09:50:34Z</time>
      </trkpt>
      <trkpt lat="45.98334" lon="4.83593">
        <ele>331</ele>
        <time>2018-10-06T09:50:35Z</time>
      </trkpt>
      <trkpt lat="45.98339" lon="4.83587">
        <ele>332</ele>
        <time>2018-10-06T09:50:36Z</time>
      </trkpt>
      <trkpt lat="45.98344" lon="4.83582">
        <ele>333</ele>
        <time>2018-10-06T09:50:37Z</time>
      </trkpt>
      <trkpt lat="45.9835" lon="4.83575">
        <ele>333</ele>
        <time>2018-10-06T09:50:38Z</time>
      </trkpt>
      <trkpt lat="45.98356" lon="4.83569">
        <ele>333</ele>
        <time>2018-10-06T09:50:39Z</time>
      </trkpt>
      <trkpt lat="45.98361" lon="4.83561">
        <ele>333</ele>
        <time>2018-10-06T09:50:40Z</time>
      </trkpt>
      <trkpt lat="45.98366" lon="4.83555">
        <ele>333</ele>
        <time>2018-10-06T09:50:41Z</time>
      </trkpt>
      <trkpt lat="45.98371" lon="4.83546">
        <ele>331</ele>
        <time>2018-10-06T09:50:42Z</time>
      </trkpt>
      <trkpt lat="45.98377" lon="4.83539">
        <ele>331</ele>
        <time>2018-10-06T09:50:43Z</time>
      </trkpt>
      <trkpt lat="45.98382" lon="4.83531">
        <ele>332</ele>
        <time>2018-10-06T09:50:44Z</time>
      </trkpt>
      <trkpt lat="45.98387" lon="4.83524">
        <ele>331</ele>
        <time>2018-10-06T09:50:45Z</time>
      </trkpt>
      <trkpt lat="45.98393" lon="4.83516">
        <ele>331</ele>
        <time>2018-10-06T09:50:46Z</time>
      </trkpt>
      <trkpt lat="45.98399" lon="4.83509">
        <ele>330</ele>
        <time>2018-10-06T09:50:47Z</time>
      </trkpt>
      <trkpt lat="45.98405" lon="4.835">
        <ele>330</ele>
        <time>2018-10-06T09:50:48Z</time>
      </trkpt>
      <trkpt lat="45.98411" lon="4.8349">
        <ele>330</ele>
        <time>2018-10-06T09:50:49Z</time>
      </trkpt>
      <trkpt lat="45.98416" lon="4.83479">
        <ele>329</ele>
        <time>2018-10-06T09:50:50Z</time>
      </trkpt>
      <trkpt lat="45.98422" lon="4.83474">
        <ele>330</ele>
        <time>2018-10-06T09:50:51Z</time>
      </trkpt>
      <trkpt lat="45.98427" lon="4.83464">
        <ele>330</ele>
        <time>2018-10-06T09:50:52Z</time>
      </trkpt>
      <trkpt lat="45.98433" lon="4.83456">
        <ele>330</ele>
        <time>2018-10-06T09:50:53Z</time>
      </trkpt>
      <trkpt lat="45.98439" lon="4.83449">
        <ele>330</ele>
        <time>2018-10-06T09:50:54Z</time>
      </trkpt>
      <trkpt lat="45.98444" lon="4.83445">
        <ele>330</ele>
        <time>2018-10-06T09:50:55Z</time>
      </trkpt>
      <trkpt lat="45.9845" lon="4.83437">
        <ele>329</ele>
        <time>2018-10-06T09:50:56Z</time>
      </trkpt>
      <trkpt lat="45.98455" lon="4.8343">
        <ele>329</ele>
        <time>2018-10-06T09:50:57Z</time>
      </trkpt>
      <trkpt lat="45.9846" lon="4.83424">
        <ele>328</ele>
        <time>2018-10-06T09:50:58Z</time>
      </trkpt>
      <trkpt lat="45.98465" lon="4.83418">
        <ele>327</ele>
        <time>2018-10-06T09:50:59Z</time>
      </trkpt>
      <trkpt lat="45.98468" lon="4.83414">
        <ele>327</ele>
        <time>2018-10-06T09:51:00Z</time>
      </trkpt>
      <trkpt lat="45.98473" lon="4.83406">
        <ele>326</ele>
        <time>2018-10-06T09:51:01Z</time>
      </trkpt>
      <trkpt lat="45.98478" lon="4.83397">
        <ele>327</ele>
        <time>2018-10-06T09:51:02Z</time>
      </trkpt>
      <trkpt lat="45.98485" lon="4.8339">
        <ele>329</ele>
        <time>2018-10-06T09:51:03Z</time>
      </trkpt>
      <trkpt lat="45.98489" lon="4.83384">
        <ele>327</ele>
        <time>2018-10-06T09:51:04Z</time>
      </trkpt>
      <trkpt lat="45.98494" lon="4.83378">
        <ele>327</ele>
        <time>2018-10-06T09:51:05Z</time>
      </trkpt>
      <trkpt lat="45.985" lon="4.83371">
        <ele>328</ele>
        <time>2018-10-06T09:51:06Z</time>
      </trkpt>
      <trkpt lat="45.98505" lon="4.83365">
        <ele>327</ele>
        <time>2018-10-06T09:51:07Z</time>
      </trkpt>
      <trkpt lat="45.98509" lon="4.83358">
        <ele>328</ele>
        <time>2018-10-06T09:51:08Z</time>
      </trkpt>
      <trkpt lat="45.98515" lon="4.83351">
        <ele>328</ele>
        <time>2018-10-06T09:51:09Z</time>
      </trkpt>
      <trkpt lat="45.9852" lon="4.83344">
        <ele>328</ele>
        <time>2018-10-06T09:51:10Z</time>
      </trkpt>
      <trkpt lat="45.98524" lon="4.83336">
        <ele>330</ele>
        <time>2018-10-06T09:51:11Z</time>
      </trkpt>
      <trkpt lat="45.9853" lon="4.83328">
        <ele>328</ele>
        <time>2018-10-06T09:51:12Z</time>
      </trkpt>
      <trkpt lat="45.98535" lon="4.83321">
        <ele>328</ele>
        <time>2018-10-06T09:51:13Z</time>
      </trkpt>
      <trkpt lat="45.9854" lon="4.83314">
        <ele>326</ele>
        <time>2018-10-06T09:51:14Z</time>
      </trkpt>
      <trkpt lat="45.98545" lon="4.83306">
        <ele>326</ele>
        <time>2018-10-06T09:51:15Z</time>
      </trkpt>
      <trkpt lat="45.9855" lon="4.83299">
        <ele>326</ele>
        <time>2018-10-06T09:51:16Z</time>
      </trkpt>
      <trkpt lat="45.98555" lon="4.83292">
        <ele>327</ele>
        <time>2018-10-06T09:51:17Z</time>
      </trkpt>
      <trkpt lat="45.98561" lon="4.83285">
        <ele>327</ele>
        <time>2018-10-06T09:51:18Z</time>
      </trkpt>
      <trkpt lat="45.98566" lon="4.8328">
        <ele>326</ele>
        <time>2018-10-06T09:51:19Z</time>
      </trkpt>
      <trkpt lat="45.9857" lon="4.83275">
        <ele>326</ele>
        <time>2018-10-06T09:51:20Z</time>
      </trkpt>
      <trkpt lat="45.98575" lon="4.8326">
        <ele>325</ele>
        <time>2018-10-06T09:51:21Z</time>
      </trkpt>
      <trkpt lat="45.98581" lon="4.83255">
        <ele>325</ele>
        <time>2018-10-06T09:51:22Z</time>
      </trkpt>
      <trkpt lat="45.98586" lon="4.83248">
        <ele>325</ele>
        <time>2018-10-06T09:51:23Z</time>
      </trkpt>
      <trkpt lat="45.98591" lon="4.83239">
        <ele>327</ele>
        <time>2018-10-06T09:51:24Z</time>
      </trkpt>
      <trkpt lat="45.98596" lon="4.8323">
        <ele>327</ele>
        <time>2018-10-06T09:51:25Z</time>
      </trkpt>
      <trkpt lat="45.98601" lon="4.83223">
        <ele>327</ele>
        <time>2018-10-06T09:51:26Z</time>
      </trkpt>
      <trkpt lat="45.98607" lon="4.83216">
        <ele>327</ele>
        <time>2018-10-06T09:51:27Z</time>
      </trkpt>
      <trkpt lat="45.98611" lon="4.83217">
        <ele>329</ele>
        <time>2018-10-06T09:51:28Z</time>
      </trkpt>
      <trkpt lat="45.98616" lon="4.8321">
        <ele>329</ele>
        <time>2018-10-06T09:51:29Z</time>
      </trkpt>
      <trkpt lat="45.98622" lon="4.83209">
        <ele>331</ele>
        <time>2018-10-06T09:51:30Z</time>
      </trkpt>
      <trkpt lat="45.98629" lon="4.83204">
        <ele>331</ele>
        <time>2018-10-06T09:51:31Z</time>
      </trkpt>
      <trkpt lat="45.98635" lon="4.83199">
        <ele>331</ele>
        <time>2018-10-06T09:51:32Z</time>
      </trkpt>
      <trkpt lat="45.98642" lon="4.83192">
        <ele>313</ele>
        <time>2018-10-06T09:51:33Z</time>
      </trkpt>
      <trkpt lat="45.98649" lon="4.83187">
        <ele>321</ele>
        <time>2018-10-06T09:51:34Z</time>
      </trkpt>
      <trkpt lat="45.98655" lon="4.83181">
        <ele>325</ele>
        <time>2018-10-06T09:51:35Z</time>
      </trkpt>
      <trkpt lat="45.9866" lon="4.83176">
        <ele>327</ele>
        <time>2018-10-06T09:51:36Z</time>
      </trkpt>
      <trkpt lat="45.98668" lon="4.8317">
        <ele>329</ele>
        <time>2018-10-06T09:51:37Z</time>
      </trkpt>
      <trkpt lat="45.98675" lon="4.83167">
        <ele>330</ele>
        <time>2018-10-06T09:51:38Z</time>
      </trkpt>
      <trkpt lat="45.98681" lon="4.83158">
        <ele>330</ele>
        <time>2018-10-06T09:51:39Z</time>
      </trkpt>
      <trkpt lat="45.98688" lon="4.83153">
        <ele>330</ele>
        <time>2018-10-06T09:51:40Z</time>
      </trkpt>
      <trkpt lat="45.98693" lon="4.83147">
        <ele>329</ele>
        <time>2018-10-06T09:51:41Z</time>
      </trkpt>
      <trkpt lat="45.98699" lon="4.83142">
        <ele>329</ele>
        <time>2018-10-06T09:51:42Z</time>
      </trkpt>
      <trkpt lat="45.98705" lon="4.83138">
        <ele>317</ele>
        <time>2018-10-06T09:51:43Z</time>
      </trkpt>
      <trkpt lat="45.98711" lon="4.83133">
        <ele>320</ele>
        <time>2018-10-06T09:51:44Z</time>
      </trkpt>
      <trkpt lat="45.98717" lon="4.83129">
        <ele>322</ele>
        <time>2018-10-06T09:51:45Z</time>
      </trkpt>
      <trkpt lat="45.98724" lon="4.83125">
        <ele>325</ele>
        <time>2018-10-06T09:51:46Z</time>
      </trkpt>
      <trkpt lat="45.98728" lon="4.83118">
        <ele>325</ele>
        <time>2018-10-06T09:51:47Z</time>
      </trkpt>
      <trkpt lat="45.98734" lon="4.83111">
        <ele>324</ele>
        <time>2018-10-06T09:51:48Z</time>
      </trkpt>
      <trkpt lat="45.9874" lon="4.83105">
        <ele>325</ele>
        <time>2018-10-06T09:51:49Z</time>
      </trkpt>
      <trkpt lat="45.98748" lon="4.831">
        <ele>325</ele>
        <time>2018-10-06T09:51:50Z</time>
      </trkpt>
      <trkpt lat="45.98754" lon="4.83094">
        <ele>325</ele>
        <time>2018-10-06T09:51:51Z</time>
      </trkpt>
      <trkpt lat="45.98761" lon="4.83092">
        <ele>326</ele>
        <time>2018-10-06T09:51:52Z</time>
      </trkpt>
      <trkpt lat="45.98768" lon="4.83087">
        <ele>326</ele>
        <time>2018-10-06T09:51:53Z</time>
      </trkpt>
      <trkpt lat="45.98775" lon="4.83082">
        <ele>327</ele>
        <time>2018-10-06T09:51:54Z</time>
      </trkpt>
      <trkpt lat="45.98782" lon="4.83073">
        <ele>326</ele>
        <time>2018-10-06T09:51:55Z</time>
      </trkpt>
      <trkpt lat="45.98789" lon="4.83068">
        <ele>326</ele>
        <time>2018-10-06T09:51:56Z</time>
      </trkpt>
      <trkpt lat="45.98796" lon="4.83062">
        <ele>325</ele>
        <time>2018-10-06T09:51:57Z</time>
      </trkpt>
      <trkpt lat="45.98802" lon="4.83054">
        <ele>324</ele>
        <time>2018-10-06T09:51:58Z</time>
      </trkpt>
      <trkpt lat="45.9881" lon="4.83048">
        <ele>323</ele>
        <time>2018-10-06T09:51:59Z</time>
      </trkpt>
      <trkpt lat="45.98818" lon="4.83045">
        <ele>324</ele>
        <time>2018-10-06T09:52:00Z</time>
      </trkpt>
      <trkpt lat="45.98826" lon="4.83036">
        <ele>324</ele>
        <time>2018-10-06T09:52:01Z</time>
      </trkpt>
      <trkpt lat="45.98834" lon="4.8303">
        <ele>324</ele>
        <time>2018-10-06T09:52:02Z</time>
      </trkpt>
      <trkpt lat="45.98842" lon="4.83027">
        <ele>324</ele>
        <time>2018-10-06T09:52:03Z</time>
      </trkpt>
      <trkpt lat="45.98851" lon="4.83021">
        <ele>324</ele>
        <time>2018-10-06T09:52:04Z</time>
      </trkpt>
      <trkpt lat="45.9886" lon="4.83014">
        <ele>324</ele>
        <time>2018-10-06T09:52:05Z</time>
      </trkpt>
      <trkpt lat="45.9887" lon="4.83006">
        <ele>322</ele>
        <time>2018-10-06T09:52:06Z</time>
      </trkpt>
      <trkpt lat="45.9888" lon="4.82999">
        <ele>321</ele>
        <time>2018-10-06T09:52:07Z</time>
      </trkpt>
      <trkpt lat="45.98889" lon="4.82993">
        <ele>320</ele>
        <time>2018-10-06T09:52:08Z</time>
      </trkpt>
      <trkpt lat="45.98899" lon="4.82987">
        <ele>323</ele>
        <time>2018-10-06T09:52:09Z</time>
      </trkpt>
      <trkpt lat="45.98908" lon="4.82978">
        <ele>322</ele>
        <time>2018-10-06T09:52:10Z</time>
      </trkpt>
      <trkpt lat="45.98916" lon="4.82971">
        <ele>323</ele>
        <time>2018-10-06T09:52:11Z</time>
      </trkpt>
      <trkpt lat="45.98921" lon="4.8294">
        <ele>320</ele>
        <time>2018-10-06T09:52:12Z</time>
      </trkpt>
      <trkpt lat="45.98928" lon="4.82923">
        <ele>317</ele>
        <time>2018-10-06T09:52:13Z</time>
      </trkpt>
      <trkpt lat="45.98935" lon="4.82909">
        <ele>317</ele>
        <time>2018-10-06T09:52:14Z</time>
      </trkpt>
      <trkpt lat="45.98942" lon="4.82898">
        <ele>319</ele>
        <time>2018-10-06T09:52:15Z</time>
      </trkpt>
      <trkpt lat="45.98948" lon="4.82884">
        <ele>319</ele>
        <time>2018-10-06T09:52:16Z</time>
      </trkpt>
      <trkpt lat="45.98955" lon="4.82862">
        <ele>315</ele>
        <time>2018-10-06T09:52:17Z</time>
      </trkpt>
      <trkpt lat="45.98963" lon="4.82845">
        <ele>314</ele>
        <time>2018-10-06T09:52:18Z</time>
      </trkpt>
      <trkpt lat="45.98971" lon="4.82827">
        <ele>313</ele>
        <time>2018-10-06T09:52:19Z</time>
      </trkpt>
      <trkpt lat="45.98977" lon="4.82811">
        <ele>311</ele>
        <time>2018-10-06T09:52:20Z</time>
      </trkpt>
      <trkpt lat="45.98984" lon="4.82795">
        <ele>306</ele>
        <time>2018-10-06T09:52:21Z</time>
      </trkpt>
      <trkpt lat="45.98991" lon="4.82778">
        <ele>305</ele>
        <time>2018-10-06T09:52:22Z</time>
      </trkpt>
      <trkpt lat="45.98999" lon="4.82761">
        <ele>306</ele>
        <time>2018-10-06T09:52:23Z</time>
      </trkpt>
      <trkpt lat="45.99007" lon="4.82744">
        <ele>305</ele>
        <time>2018-10-06T09:52:24Z</time>
      </trkpt>
      <trkpt lat="45.99014" lon="4.82727">
        <ele>304</ele>
        <time>2018-10-06T09:52:25Z</time>
      </trkpt>
      <trkpt lat="45.99022" lon="4.82712">
        <ele>301</ele>
        <time>2018-10-06T09:52:26Z</time>
      </trkpt>
      <trkpt lat="45.99028" lon="4.82694">
        <ele>300</ele>
        <time>2018-10-06T09:52:27Z</time>
      </trkpt>
      <trkpt lat="45.99035" lon="4.82679">
        <ele>298</ele>
        <time>2018-10-06T09:52:28Z</time>
      </trkpt>
      <trkpt lat="45.99041" lon="4.82664">
        <ele>298</ele>
        <time>2018-10-06T09:52:29Z</time>
      </trkpt>
      <trkpt lat="45.99047" lon="4.82652">
        <ele>297</ele>
        <time>2018-10-06T09:52:30Z</time>
      </trkpt>
      <trkpt lat="45.99053" lon="4.8264">
        <ele>297</ele>
        <time>2018-10-06T09:52:31Z</time>
      </trkpt>
      <trkpt lat="45.99057" lon="4.82631">
        <ele>297</ele>
        <time>2018-10-06T09:52:32Z</time>
      </trkpt>
      <trkpt lat="45.99062" lon="4.82622">
        <ele>299</ele>
        <time>2018-10-06T09:52:33Z</time>
      </trkpt>
      <trkpt lat="45.99066" lon="4.82613">
        <ele>299</ele>
        <time>2018-10-06T09:52:34Z</time>
      </trkpt>
      <trkpt lat="45.99069" lon="4.82605">
        <ele>298</ele>
        <time>2018-10-06T09:52:35Z</time>
      </trkpt>
      <trkpt lat="45.99072" lon="4.82598">
        <ele>298</ele>
        <time>2018-10-06T09:52:36Z</time>
      </trkpt>
      <trkpt lat="45.99076" lon="4.82592">
        <ele>299</ele>
        <time>2018-10-06T09:52:37Z</time>
      </trkpt>
      <trkpt lat="45.99078" lon="4.8258">
        <ele>299</ele>
        <time>2018-10-06T09:52:39Z</time>
      </trkpt>
      <trkpt lat="45.99076" lon="4.82571">
        <ele>299</ele>
        <time>2018-10-06T09:52:40Z</time>
      </trkpt>
      <trkpt lat="45.99073" lon="4.82566">
        <ele>300</ele>
        <time>2018-10-06T09:52:41Z</time>
      </trkpt>
      <trkpt lat="45.99069" lon="4.82561">
        <ele>300</ele>
        <time>2018-10-06T09:52:42Z</time>
      </trkpt>
      <trkpt lat="45.99064" lon="4.82559">
        <ele>300</ele>
        <time>2018-10-06T09:52:43Z</time>
      </trkpt>
      <trkpt lat="45.9906" lon="4.82557">
        <ele>300</ele>
        <time>2018-10-06T09:52:44Z</time>
      </trkpt>
      <trkpt lat="45.99055" lon="4.82555">
        <ele>300</ele>
        <time>2018-10-06T09:52:45Z</time>
      </trkpt>
      <trkpt lat="45.99051" lon="4.82553">
        <ele>300</ele>
        <time>2018-10-06T09:52:46Z</time>
      </trkpt>
      <trkpt lat="45.99045" lon="4.82555">
        <ele>298</ele>
        <time>2018-10-06T09:52:48Z</time>
      </trkpt>
      <trkpt lat="45.9904" lon="4.82552">
        <ele>297</ele>
        <time>2018-10-06T09:52:49Z</time>
      </trkpt>
      <trkpt lat="45.99033" lon="4.82548">
        <ele>310</ele>
        <time>2018-10-06T09:52:51Z</time>
      </trkpt>
      <trkpt lat="45.99029" lon="4.82545">
        <ele>306</ele>
        <time>2018-10-06T09:52:52Z</time>
      </trkpt>
      <trkpt lat="45.99021" lon="4.82538">
        <ele>303</ele>
        <time>2018-10-06T09:52:55Z</time>
      </trkpt>
      <trkpt lat="45.99019" lon="4.82536">
        <ele>301</ele>
        <time>2018-10-06T09:52:56Z</time>
      </trkpt>
      <trkpt lat="45.99014" lon="4.82529">
        <ele>313</ele>
        <time>2018-10-06T09:52:59Z</time>
      </trkpt>
      <trkpt lat="45.99012" lon="4.82527">
        <ele>308</ele>
        <time>2018-10-06T09:53:00Z</time>
      </trkpt>
      <trkpt lat="45.99008" lon="4.8252">
        <ele>301</ele>
        <time>2018-10-06T09:53:02Z</time>
      </trkpt>
      <trkpt lat="45.99003" lon="4.82509">
        <ele>299</ele>
        <time>2018-10-06T09:53:03Z</time>
      </trkpt>
      <trkpt lat="45.98999" lon="4.82499">
        <ele>296</ele>
        <time>2018-10-06T09:53:05Z</time>
      </trkpt>
      <trkpt lat="45.98996" lon="4.82494">
        <ele>296</ele>
        <time>2018-10-06T09:53:06Z</time>
      </trkpt>
      <trkpt lat="45.98993" lon="4.82485">
        <ele>297</ele>
        <time>2018-10-06T09:53:08Z</time>
      </trkpt>
      <trkpt lat="45.98992" lon="4.82478">
        <ele>297</ele>
        <time>2018-10-06T09:53:09Z</time>
      </trkpt>
      <trkpt lat="45.98987" lon="4.8247">
        <ele>294</ele>
        <time>2018-10-06T09:53:10Z</time>
      </trkpt>
      <trkpt lat="45.98985" lon="4.82464">
        <ele>294</ele>
        <time>2018-10-06T09:53:11Z</time>
      </trkpt>
      <trkpt lat="45.98984" lon="4.82455">
        <ele>292</ele>
        <time>2018-10-06T09:53:13Z</time>
      </trkpt>
      <trkpt lat="45.98983" lon="4.82448">
        <ele>291</ele>
        <time>2018-10-06T09:53:14Z</time>
      </trkpt>
      <trkpt lat="45.98981" lon="4.82435">
        <ele>294</ele>
        <time>2018-10-06T09:53:16Z</time>
      </trkpt>
      <trkpt lat="45.9898" lon="4.82429">
        <ele>312</ele>
        <time>2018-10-06T09:53:17Z</time>
      </trkpt>
      <trkpt lat="45.98978" lon="4.82421">
        <ele>308</ele>
        <time>2018-10-06T09:53:18Z</time>
      </trkpt>
      <trkpt lat="45.98977" lon="4.82415">
        <ele>306</ele>
        <time>2018-10-06T09:53:19Z</time>
      </trkpt>
      <trkpt lat="45.98976" lon="4.82409">
        <ele>304</ele>
        <time>2018-10-06T09:53:20Z</time>
      </trkpt>
      <trkpt lat="45.98973" lon="4.82403">
        <ele>301</ele>
        <time>2018-10-06T09:53:21Z</time>
      </trkpt>
      <trkpt lat="45.98968" lon="4.82392">
        <ele>297</ele>
        <time>2018-10-06T09:53:23Z</time>
      </trkpt>
      <trkpt lat="45.98968" lon="4.82386">
        <ele>298</ele>
        <time>2018-10-06T09:53:24Z</time>
      </trkpt>
      <trkpt lat="45.98965" lon="4.8238">
        <ele>298</ele>
        <time>2018-10-06T09:53:25Z</time>
      </trkpt>
      <trkpt lat="45.98963" lon="4.82372">
        <ele>296</ele>
        <time>2018-10-06T09:53:26Z</time>
      </trkpt>
      <trkpt lat="45.98961" lon="4.82366">
        <ele>295</ele>
        <time>2018-10-06T09:53:27Z</time>
      </trkpt>
      <trkpt lat="45.98958" lon="4.82358">
        <ele>296</ele>
        <time>2018-10-06T09:53:28Z</time>
      </trkpt>
      <trkpt lat="45.98956" lon="4.82352">
        <ele>296</ele>
        <time>2018-10-06T09:53:29Z</time>
      </trkpt>
      <trkpt lat="45.98953" lon="4.82346">
        <ele>295</ele>
        <time>2018-10-06T09:53:30Z</time>
      </trkpt>
      <trkpt lat="45.98951" lon="4.8234">
        <ele>296</ele>
        <time>2018-10-06T09:53:31Z</time>
      </trkpt>
      <trkpt lat="45.98947" lon="4.82335">
        <ele>296</ele>
        <time>2018-10-06T09:53:32Z</time>
      </trkpt>
      <trkpt lat="45.98944" lon="4.82331">
        <ele>296</ele>
        <time>2018-10-06T09:53:33Z</time>
      </trkpt>
      <trkpt lat="45.98938" lon="4.82325">
        <ele>295</ele>
        <time>2018-10-06T09:53:34Z</time>
      </trkpt>
      <trkpt lat="45.98935" lon="4.82322">
        <ele>296</ele>
        <time>2018-10-06T09:53:35Z</time>
      </trkpt>
      <trkpt lat="45.98931" lon="4.82316">
        <ele>294</ele>
        <time>2018-10-06T09:53:36Z</time>
      </trkpt>
      <trkpt lat="45.98926" lon="4.8231">
        <ele>315</ele>
        <time>2018-10-06T09:53:37Z</time>
      </trkpt>
      <trkpt lat="45.98922" lon="4.82306">
        <ele>312</ele>
        <time>2018-10-06T09:53:38Z</time>
      </trkpt>
      <trkpt lat="45.98917" lon="4.82304">
        <ele>308</ele>
        <time>2018-10-06T09:53:39Z</time>
      </trkpt>
      <trkpt lat="45.98913" lon="4.82301">
        <ele>305</ele>
        <time>2018-10-06T09:53:40Z</time>
      </trkpt>
      <trkpt lat="45.9891" lon="4.82297">
        <ele>303</ele>
        <time>2018-10-06T09:53:41Z</time>
      </trkpt>
      <trkpt lat="45.98906" lon="4.82292">
        <ele>301</ele>
        <time>2018-10-06T09:53:42Z</time>
      </trkpt>
      <trkpt lat="45.989" lon="4.82286">
        <ele>298</ele>
        <time>2018-10-06T09:53:44Z</time>
      </trkpt>
      <trkpt lat="45.98897" lon="4.82281">
        <ele>298</ele>
        <time>2018-10-06T09:53:45Z</time>
      </trkpt>
      <trkpt lat="45.98894" lon="4.82275">
        <ele>298</ele>
        <time>2018-10-06T09:53:46Z</time>
      </trkpt>
      <trkpt lat="45.98891" lon="4.82269">
        <ele>298</ele>
        <time>2018-10-06T09:53:47Z</time>
      </trkpt>
      <trkpt lat="45.98888" lon="4.82264">
        <ele>298</ele>
        <time>2018-10-06T09:53:48Z</time>
      </trkpt>
      <trkpt lat="45.98883" lon="4.8226">
        <ele>295</ele>
        <time>2018-10-06T09:53:49Z</time>
      </trkpt>
      <trkpt lat="45.98881" lon="4.82253">
        <ele>295</ele>
        <time>2018-10-06T09:53:50Z</time>
      </trkpt>
      <trkpt lat="45.98879" lon="4.82247">
        <ele>295</ele>
        <time>2018-10-06T09:53:51Z</time>
      </trkpt>
      <trkpt lat="45.98877" lon="4.82241">
        <ele>294</ele>
        <time>2018-10-06T09:53:52Z</time>
      </trkpt>
      <trkpt lat="45.98875" lon="4.82235">
        <ele>294</ele>
        <time>2018-10-06T09:53:53Z</time>
      </trkpt>
      <trkpt lat="45.98873" lon="4.82229">
        <ele>306</ele>
        <time>2018-10-06T09:53:54Z</time>
      </trkpt>
      <trkpt lat="45.9887" lon="4.82223">
        <ele>304</ele>
        <time>2018-10-06T09:53:55Z</time>
      </trkpt>
      <trkpt lat="45.98867" lon="4.82218">
        <ele>303</ele>
        <time>2018-10-06T09:53:56Z</time>
      </trkpt>
      <trkpt lat="45.98864" lon="4.82212">
        <ele>301</ele>
        <time>2018-10-06T09:53:57Z</time>
      </trkpt>
      <trkpt lat="45.98861" lon="4.82201">
        <ele>298</ele>
        <time>2018-10-06T09:53:59Z</time>
      </trkpt>
      <trkpt lat="45.98859" lon="4.82196">
        <ele>298</ele>
        <time>2018-10-06T09:54:00Z</time>
      </trkpt>
      <trkpt lat="45.98855" lon="4.82185">
        <ele>298</ele>
        <time>2018-10-06T09:54:02Z</time>
      </trkpt>
      <trkpt lat="45.98853" lon="4.82178">
        <ele>298</ele>
        <time>2018-10-06T09:54:03Z</time>
      </trkpt>
      <trkpt lat="45.98851" lon="4.82171">
        <ele>298</ele>
        <time>2018-10-06T09:54:04Z</time>
      </trkpt>
      <trkpt lat="45.98849" lon="4.82164">
        <ele>298</ele>
        <time>2018-10-06T09:54:05Z</time>
      </trkpt>
      <trkpt lat="45.98847" lon="4.82157">
        <ele>298</ele>
        <time>2018-10-06T09:54:06Z</time>
      </trkpt>
      <trkpt lat="45.98845" lon="4.82149">
        <ele>297</ele>
        <time>2018-10-06T09:54:07Z</time>
      </trkpt>
      <trkpt lat="45.98842" lon="4.82143">
        <ele>297</ele>
        <time>2018-10-06T09:54:08Z</time>
      </trkpt>
      <trkpt lat="45.9884" lon="4.82134">
        <ele>297</ele>
        <time>2018-10-06T09:54:09Z</time>
      </trkpt>
      <trkpt lat="45.98837" lon="4.82123">
        <ele>296</ele>
        <time>2018-10-06T09:54:11Z</time>
      </trkpt>
      <trkpt lat="45.98836" lon="4.82116">
        <ele>295</ele>
        <time>2018-10-06T09:54:12Z</time>
      </trkpt>
      <trkpt lat="45.98833" lon="4.8211">
        <ele>295</ele>
        <time>2018-10-06T09:54:13Z</time>
      </trkpt>
      <trkpt lat="45.98831" lon="4.82105">
        <ele>293</ele>
        <time>2018-10-06T09:54:14Z</time>
      </trkpt>
      <trkpt lat="45.98831" lon="4.82095">
        <ele>292</ele>
        <time>2018-10-06T09:54:16Z</time>
      </trkpt>
      <trkpt lat="45.9883" lon="4.82088">
        <ele>293</ele>
        <time>2018-10-06T09:54:17Z</time>
      </trkpt>
      <trkpt lat="45.98831" lon="4.82081">
        <ele>294</ele>
        <time>2018-10-06T09:54:18Z</time>
      </trkpt>
      <trkpt lat="45.98831" lon="4.82075">
        <ele>294</ele>
        <time>2018-10-06T09:54:19Z</time>
      </trkpt>
      <trkpt lat="45.9883" lon="4.82066">
        <ele>295</ele>
        <time>2018-10-06T09:54:21Z</time>
      </trkpt>
      <trkpt lat="45.98829" lon="4.8206">
        <ele>295</ele>
        <time>2018-10-06T09:54:22Z</time>
      </trkpt>
      <trkpt lat="45.98827" lon="4.82047">
        <ele>293</ele>
        <time>2018-10-06T09:54:24Z</time>
      </trkpt>
      <trkpt lat="45.98824" lon="4.8204">
        <ele>294</ele>
        <time>2018-10-06T09:54:25Z</time>
      </trkpt>
      <trkpt lat="45.98823" lon="4.82028">
        <ele>294</ele>
        <time>2018-10-06T09:54:27Z</time>
      </trkpt>
      <trkpt lat="45.98823" lon="4.82023">
        <ele>294</ele>
        <time>2018-10-06T09:54:28Z</time>
      </trkpt>
      <trkpt lat="45.98822" lon="4.82018">
        <ele>294</ele>
        <time>2018-10-06T09:54:29Z</time>
      </trkpt>
      <trkpt lat="45.98823" lon="4.8201">
        <ele>293</ele>
        <time>2018-10-06T09:54:30Z</time>
      </trkpt>
      <trkpt lat="45.98821" lon="4.81999">
        <ele>293</ele>
        <time>2018-10-06T09:54:32Z</time>
      </trkpt>
      <trkpt lat="45.98821" lon="4.81995">
        <ele>294</ele>
        <time>2018-10-06T09:54:33Z</time>
      </trkpt>
      <trkpt lat="45.98818" lon="4.81985">
        <ele>292</ele>
        <time>2018-10-06T09:54:35Z</time>
      </trkpt>
      <trkpt lat="45.98817" lon="4.81979">
        <ele>293</ele>
        <time>2018-10-06T09:54:36Z</time>
      </trkpt>
      <trkpt lat="45.98816" lon="4.81968">
        <ele>294</ele>
        <time>2018-10-06T09:54:38Z</time>
      </trkpt>
      <trkpt lat="45.98815" lon="4.81962">
        <ele>309</ele>
        <time>2018-10-06T09:54:39Z</time>
      </trkpt>
      <trkpt lat="45.98814" lon="4.8195">
        <ele>305</ele>
        <time>2018-10-06T09:54:41Z</time>
      </trkpt>
      <trkpt lat="45.98814" lon="4.81944">
        <ele>302</ele>
        <time>2018-10-06T09:54:42Z</time>
      </trkpt>
      <trkpt lat="45.98814" lon="4.81938">
        <ele>300</ele>
        <time>2018-10-06T09:54:43Z</time>
      </trkpt>
      <trkpt lat="45.98812" lon="4.81931">
        <ele>298</ele>
        <time>2018-10-06T09:54:44Z</time>
      </trkpt>
      <trkpt lat="45.98811" lon="4.81923">
        <ele>296</ele>
        <time>2018-10-06T09:54:45Z</time>
      </trkpt>
      <trkpt lat="45.9881" lon="4.81919">
        <ele>294</ele>
        <time>2018-10-06T09:54:46Z</time>
      </trkpt>
      <trkpt lat="45.9881" lon="4.81912">
        <ele>293</ele>
        <time>2018-10-06T09:54:47Z</time>
      </trkpt>
      <trkpt lat="45.98809" lon="4.81905">
        <ele>291</ele>
        <time>2018-10-06T09:54:48Z</time>
      </trkpt>
      <trkpt lat="45.98806" lon="4.81893">
        <ele>289</ele>
        <time>2018-10-06T09:54:50Z</time>
      </trkpt>
      <trkpt lat="45.98804" lon="4.81888">
        <ele>289</ele>
        <time>2018-10-06T09:54:51Z</time>
      </trkpt>
      <trkpt lat="45.98802" lon="4.81878">
        <ele>288</ele>
        <time>2018-10-06T09:54:53Z</time>
      </trkpt>
      <trkpt lat="45.988" lon="4.81872">
        <ele>288</ele>
        <time>2018-10-06T09:54:54Z</time>
      </trkpt>
      <trkpt lat="45.98796" lon="4.81864">
        <ele>288</ele>
        <time>2018-10-06T09:54:57Z</time>
      </trkpt>
      <trkpt lat="45.98794" lon="4.81861">
        <ele>289</ele>
        <time>2018-10-06T09:54:58Z</time>
      </trkpt>
      <trkpt lat="45.98789" lon="4.81851">
        <ele>289</ele>
        <time>2018-10-06T09:55:01Z</time>
      </trkpt>
      <trkpt lat="45.98788" lon="4.81847">
        <ele>289</ele>
        <time>2018-10-06T09:55:02Z</time>
      </trkpt>
      <trkpt lat="45.98783" lon="4.81836">
        <ele>291</ele>
        <time>2018-10-06T09:55:05Z</time>
      </trkpt>
      <trkpt lat="45.98782" lon="4.81833">
        <ele>290</ele>
        <time>2018-10-06T09:55:06Z</time>
      </trkpt>
      <trkpt lat="45.98778" lon="4.81823">
        <ele>290</ele>
        <time>2018-10-06T09:55:09Z</time>
      </trkpt>
      <trkpt lat="45.98776" lon="4.8182">
        <ele>307</ele>
        <time>2018-10-06T09:55:10Z</time>
      </trkpt>
      <trkpt lat="45.9877" lon="4.81812">
        <ele>297</ele>
        <time>2018-10-06T09:55:13Z</time>
      </trkpt>
      <trkpt lat="45.98768" lon="4.81808">
        <ele>295</ele>
        <time>2018-10-06T09:55:14Z</time>
      </trkpt>
      <trkpt lat="45.98764" lon="4.81798">
        <ele>293</ele>
        <time>2018-10-06T09:55:17Z</time>
      </trkpt>
      <trkpt lat="45.98763" lon="4.81795">
        <ele>293</ele>
        <time>2018-10-06T09:55:18Z</time>
      </trkpt>
      <trkpt lat="45.98759" lon="4.81785">
        <ele>293</ele>
        <time>2018-10-06T09:55:22Z</time>
      </trkpt>
      <trkpt lat="45.98757" lon="4.81782">
        <ele>294</ele>
        <time>2018-10-06T09:55:23Z</time>
      </trkpt>
      <trkpt lat="45.98754" lon="4.81776">
        <ele>294</ele>
        <time>2018-10-06T09:55:25Z</time>
      </trkpt>
      <trkpt lat="45.98748" lon="4.81764">
        <ele>291</ele>
        <time>2018-10-06T09:55:26Z</time>
      </trkpt>
      <trkpt lat="45.98746" lon="4.81758">
        <ele>293</ele>
        <time>2018-10-06T09:55:27Z</time>
      </trkpt>
      <trkpt lat="45.98744" lon="4.81752">
        <ele>294</ele>
        <time>2018-10-06T09:55:28Z</time>
      </trkpt>
      <trkpt lat="45.98739" lon="4.81741">
        <ele>297</ele>
        <time>2018-10-06T09:55:30Z</time>
      </trkpt>
      <trkpt lat="45.98736" lon="4.81736">
        <ele>296</ele>
        <time>2018-10-06T09:55:31Z</time>
      </trkpt>
      <trkpt lat="45.9873" lon="4.81732">
        <ele>291</ele>
        <time>2018-10-06T09:55:35Z</time>
      </trkpt>
      <trkpt lat="45.98728" lon="4.81731">
        <ele>291</ele>
        <time>2018-10-06T09:55:36Z</time>
      </trkpt>
      <trkpt lat="45.98722" lon="4.81732">
        <ele>292</ele>
        <time>2018-10-06T09:55:38Z</time>
      </trkpt>
      <trkpt lat="45.9871" lon="4.81733">
        <ele>291</ele>
        <time>2018-10-06T09:55:39Z</time>
      </trkpt>
      <trkpt lat="45.98703" lon="4.81734">
        <ele>289</ele>
        <time>2018-10-06T09:55:41Z</time>
      </trkpt>
      <trkpt lat="45.98701" lon="4.81735">
        <ele>289</ele>
        <time>2018-10-06T09:55:42Z</time>
      </trkpt>
      <trkpt lat="45.98695" lon="4.81736">
        <ele>290</ele>
        <time>2018-10-06T09:55:44Z</time>
      </trkpt>
      <trkpt lat="45.9868" lon="4.8174">
        <ele>291</ele>
        <time>2018-10-06T09:55:45Z</time>
      </trkpt>
      <trkpt lat="45.98672" lon="4.81739">
        <ele>295</ele>
        <time>2018-10-06T09:55:49Z</time>
      </trkpt>
      <trkpt lat="45.98669" lon="4.8174">
        <ele>296</ele>
        <time>2018-10-06T09:55:50Z</time>
      </trkpt>
      <trkpt lat="45.98658" lon="4.81742">
        <ele>295</ele>
        <time>2018-10-06T09:55:51Z</time>
      </trkpt>
      <trkpt lat="45.98652" lon="4.81744">
        <ele>288</ele>
        <time>2018-10-06T09:55:52Z</time>
      </trkpt>
      <trkpt lat="45.98646" lon="4.81744">
        <ele>289</ele>
        <time>2018-10-06T09:55:53Z</time>
      </trkpt>
      <trkpt lat="45.9864" lon="4.81745">
        <ele>290</ele>
        <time>2018-10-06T09:55:54Z</time>
      </trkpt>
      <trkpt lat="45.98633" lon="4.81746">
        <ele>291</ele>
        <time>2018-10-06T09:55:55Z</time>
      </trkpt>
      <trkpt lat="45.98628" lon="4.81747">
        <ele>291</ele>
        <time>2018-10-06T09:55:56Z</time>
      </trkpt>
      <trkpt lat="45.98622" lon="4.81755">
        <ele>292</ele>
        <time>2018-10-06T09:55:57Z</time>
      </trkpt>
      <trkpt lat="45.98617" lon="4.81757">
        <ele>292</ele>
        <time>2018-10-06T09:55:58Z</time>
      </trkpt>
      <trkpt lat="45.98611" lon="4.81758">
        <ele>292</ele>
        <time>2018-10-06T09:55:59Z</time>
      </trkpt>
      <trkpt lat="45.98602" lon="4.81758">
        <ele>291</ele>
        <time>2018-10-06T09:56:01Z</time>
      </trkpt>
      <trkpt lat="45.98596" lon="4.81764">
        <ele>291</ele>
        <time>2018-10-06T09:56:02Z</time>
      </trkpt>
      <trkpt lat="45.98591" lon="4.81767">
        <ele>291</ele>
        <time>2018-10-06T09:56:03Z</time>
      </trkpt>
      <trkpt lat="45.98587" lon="4.81771">
        <ele>291</ele>
        <time>2018-10-06T09:56:04Z</time>
      </trkpt>
      <trkpt lat="45.98582" lon="4.81776">
        <ele>292</ele>
        <time>2018-10-06T09:56:05Z</time>
      </trkpt>
      <trkpt lat="45.98577" lon="4.81778">
        <ele>294</ele>
        <time>2018-10-06T09:56:06Z</time>
      </trkpt>
      <trkpt lat="45.98572" lon="4.8178">
        <ele>294</ele>
        <time>2018-10-06T09:56:08Z</time>
      </trkpt>
      <trkpt lat="45.98567" lon="4.81784">
        <ele>294</ele>
        <time>2018-10-06T09:56:09Z</time>
      </trkpt>
      <trkpt lat="45.98564" lon="4.8179">
        <ele>294</ele>
        <time>2018-10-06T09:56:10Z</time>
      </trkpt>
      <trkpt lat="45.98559" lon="4.81793">
        <ele>294</ele>
        <time>2018-10-06T09:56:11Z</time>
      </trkpt>
      <trkpt lat="45.98555" lon="4.81799">
        <ele>292</ele>
        <time>2018-10-06T09:56:12Z</time>
      </trkpt>
      <trkpt lat="45.98551" lon="4.81801">
        <ele>293</ele>
        <time>2018-10-06T09:56:13Z</time>
      </trkpt>
      <trkpt lat="45.98546" lon="4.81805">
        <ele>292</ele>
        <time>2018-10-06T09:56:14Z</time>
      </trkpt>
      <trkpt lat="45.98542" lon="4.81805">
        <ele>292</ele>
        <time>2018-10-06T09:56:15Z</time>
      </trkpt>
      <trkpt lat="45.98536" lon="4.81798">
        <ele>290</ele>
        <time>2018-10-06T09:56:17Z</time>
      </trkpt>
      <trkpt lat="45.98533" lon="4.81795">
        <ele>290</ele>
        <time>2018-10-06T09:56:18Z</time>
      </trkpt>
      <trkpt lat="45.98528" lon="4.81788">
        <ele>288</ele>
        <time>2018-10-06T09:56:20Z</time>
      </trkpt>
      <trkpt lat="45.98525" lon="4.81784">
        <ele>288</ele>
        <time>2018-10-06T09:56:21Z</time>
      </trkpt>
      <trkpt lat="45.98519" lon="4.81775">
        <ele>288</ele>
        <time>2018-10-06T09:56:24Z</time>
      </trkpt>
      <trkpt lat="45.98515" lon="4.8177">
        <ele>289</ele>
        <time>2018-10-06T09:56:25Z</time>
      </trkpt>
      <trkpt lat="45.98509" lon="4.81763">
        <ele>290</ele>
        <time>2018-10-06T09:56:27Z</time>
      </trkpt>
      <trkpt lat="45.98506" lon="4.8176">
        <ele>290</ele>
        <time>2018-10-06T09:56:28Z</time>
      </trkpt>
      <trkpt lat="45.98498" lon="4.81753">
        <ele>290</ele>
        <time>2018-10-06T09:56:31Z</time>
      </trkpt>
      <trkpt lat="45.98497" lon="4.81751">
        <ele>291</ele>
        <time>2018-10-06T09:56:32Z</time>
      </trkpt>
      <trkpt lat="45.98494" lon="4.81748">
        <ele>289</ele>
        <time>2018-10-06T09:56:33Z</time>
      </trkpt>
      <trkpt lat="45.98488" lon="4.81743">
        <ele>289</ele>
        <time>2018-10-06T09:56:34Z</time>
      </trkpt>
      <trkpt lat="45.98485" lon="4.8174">
        <ele>290</ele>
        <time>2018-10-06T09:56:36Z</time>
      </trkpt>
      <trkpt lat="45.9848" lon="4.81735">
        <ele>290</ele>
        <time>2018-10-06T09:56:37Z</time>
      </trkpt>
      <trkpt lat="45.98475" lon="4.8173">
        <ele>290</ele>
        <time>2018-10-06T09:56:39Z</time>
      </trkpt>
      <trkpt lat="45.98471" lon="4.81726">
        <ele>290</ele>
        <time>2018-10-06T09:56:40Z</time>
      </trkpt>
      <trkpt lat="45.98465" lon="4.81718">
        <ele>292</ele>
        <time>2018-10-06T09:56:44Z</time>
      </trkpt>
      <trkpt lat="45.98463" lon="4.81716">
        <ele>291</ele>
        <time>2018-10-06T09:56:45Z</time>
      </trkpt>
      <trkpt lat="45.98458" lon="4.81708">
        <ele>293</ele>
        <time>2018-10-06T09:56:48Z</time>
      </trkpt>
      <trkpt lat="45.98456" lon="4.81705">
        <ele>293</ele>
        <time>2018-10-06T09:56:49Z</time>
      </trkpt>
      <trkpt lat="45.98453" lon="4.81698">
        <ele>295</ele>
        <time>2018-10-06T09:56:51Z</time>
      </trkpt>
      <trkpt lat="45.98447" lon="4.81688">
        <ele>294</ele>
        <time>2018-10-06T09:56:52Z</time>
      </trkpt>
      <trkpt lat="45.98442" lon="4.8168">
        <ele>294</ele>
        <time>2018-10-06T09:56:54Z</time>
      </trkpt>
      <trkpt lat="45.98439" lon="4.81677">
        <ele>293</ele>
        <time>2018-10-06T09:56:55Z</time>
      </trkpt>
      <trkpt lat="45.98431" lon="4.81671">
        <ele>293</ele>
        <time>2018-10-06T09:56:57Z</time>
      </trkpt>
      <trkpt lat="45.98427" lon="4.81669">
        <ele>293</ele>
        <time>2018-10-06T09:56:58Z</time>
      </trkpt>
      <trkpt lat="45.98418" lon="4.81666">
        <ele>294</ele>
        <time>2018-10-06T09:57:00Z</time>
      </trkpt>
      <trkpt lat="45.98414" lon="4.81666">
        <ele>294</ele>
        <time>2018-10-06T09:57:01Z</time>
      </trkpt>
      <trkpt lat="45.98409" lon="4.81667">
        <ele>292</ele>
        <time>2018-10-06T09:57:02Z</time>
      </trkpt>
      <trkpt lat="45.98405" lon="4.81669">
        <ele>292</ele>
        <time>2018-10-06T09:57:03Z</time>
      </trkpt>
      <trkpt lat="45.98397" lon="4.81672">
        <ele>291</ele>
        <time>2018-10-06T09:57:05Z</time>
      </trkpt>
      <trkpt lat="45.98393" lon="4.81673">
        <ele>291</ele>
        <time>2018-10-06T09:57:06Z</time>
      </trkpt>
      <trkpt lat="45.98386" lon="4.81675">
        <ele>291</ele>
        <time>2018-10-06T09:57:08Z</time>
      </trkpt>
      <trkpt lat="45.98382" lon="4.81676">
        <ele>291</ele>
        <time>2018-10-06T09:57:09Z</time>
      </trkpt>
      <trkpt lat="45.98374" lon="4.8168">
        <ele>291</ele>
        <time>2018-10-06T09:57:11Z</time>
      </trkpt>
      <trkpt lat="45.9837" lon="4.81682">
        <ele>291</ele>
        <time>2018-10-06T09:57:12Z</time>
      </trkpt>
      <trkpt lat="45.98361" lon="4.81683">
        <ele>291</ele>
        <time>2018-10-06T09:57:16Z</time>
      </trkpt>
      <trkpt lat="45.98358" lon="4.81683">
        <ele>291</ele>
        <time>2018-10-06T09:57:17Z</time>
      </trkpt>
      <trkpt lat="45.98352" lon="4.81684">
        <ele>291</ele>
        <time>2018-10-06T09:57:19Z</time>
      </trkpt>
      <trkpt lat="45.98349" lon="4.81683">
        <ele>291</ele>
        <time>2018-10-06T09:57:20Z</time>
      </trkpt>
      <trkpt lat="45.9834" lon="4.81681">
        <ele>290</ele>
        <time>2018-10-06T09:57:23Z</time>
      </trkpt>
      <trkpt lat="45.98338" lon="4.8168">
        <ele>290</ele>
        <time>2018-10-06T09:57:24Z</time>
      </trkpt>
      <trkpt lat="45.9833" lon="4.81676">
        <ele>291</ele>
        <time>2018-10-06T09:57:27Z</time>
      </trkpt>
      <trkpt lat="45.98327" lon="4.81674">
        <ele>291</ele>
        <time>2018-10-06T09:57:28Z</time>
      </trkpt>
      <trkpt lat="45.98319" lon="4.81668">
        <ele>289</ele>
        <time>2018-10-06T09:57:29Z</time>
      </trkpt>
      <trkpt lat="45.98316" lon="4.81666">
        <ele>289</ele>
        <time>2018-10-06T09:57:30Z</time>
      </trkpt>
      <trkpt lat="45.98309" lon="4.8166">
        <ele>289</ele>
        <time>2018-10-06T09:57:32Z</time>
      </trkpt>
      <trkpt lat="45.98306" lon="4.81657">
        <ele>289</ele>
        <time>2018-10-06T09:57:33Z</time>
      </trkpt>
      <trkpt lat="45.983" lon="4.81649">
        <ele>289</ele>
        <time>2018-10-06T09:57:35Z</time>
      </trkpt>
      <trkpt lat="45.98296" lon="4.81646">
        <ele>289</ele>
        <time>2018-10-06T09:57:36Z</time>
      </trkpt>
      <trkpt lat="45.98291" lon="4.81639">
        <ele>288</ele>
        <time>2018-10-06T09:57:39Z</time>
      </trkpt>
      <trkpt lat="45.98286" lon="4.81632">
        <ele>290</ele>
        <time>2018-10-06T09:57:40Z</time>
      </trkpt>
      <trkpt lat="45.98282" lon="4.81622">
        <ele>293</ele>
        <time>2018-10-06T09:57:42Z</time>
      </trkpt>
      <trkpt lat="45.9828" lon="4.81616">
        <ele>291</ele>
        <time>2018-10-06T09:57:43Z</time>
      </trkpt>
      <trkpt lat="45.98277" lon="4.81608">
        <ele>291</ele>
        <time>2018-10-06T09:57:45Z</time>
      </trkpt>
      <trkpt lat="45.98276" lon="4.81604">
        <ele>290</ele>
        <time>2018-10-06T09:57:46Z</time>
      </trkpt>
      <trkpt lat="45.98274" lon="4.81596">
        <ele>290</ele>
        <time>2018-10-06T09:57:48Z</time>
      </trkpt>
      <trkpt lat="45.98272" lon="4.81592">
        <ele>291</ele>
        <time>2018-10-06T09:57:49Z</time>
      </trkpt>
      <trkpt lat="45.98271" lon="4.81588">
        <ele>291</ele>
        <time>2018-10-06T09:57:50Z</time>
      </trkpt>
      <trkpt lat="45.98266" lon="4.81575">
        <ele>289</ele>
        <time>2018-10-06T09:57:51Z</time>
      </trkpt>
      <trkpt lat="45.98262" lon="4.81566">
        <ele>289</ele>
        <time>2018-10-06T09:57:53Z</time>
      </trkpt>
      <trkpt lat="45.98261" lon="4.81563">
        <ele>290</ele>
        <time>2018-10-06T09:57:54Z</time>
      </trkpt>
      <trkpt lat="45.98259" lon="4.81554">
        <ele>293</ele>
        <time>2018-10-06T09:57:57Z</time>
      </trkpt>
      <trkpt lat="45.98258" lon="4.81551">
        <ele>293</ele>
        <time>2018-10-06T09:57:58Z</time>
      </trkpt>
      <trkpt lat="45.98257" lon="4.81547">
        <ele>294</ele>
        <time>2018-10-06T09:57:59Z</time>
      </trkpt>
      <trkpt lat="45.98254" lon="4.81536">
        <ele>294</ele>
        <time>2018-10-06T09:58:00Z</time>
      </trkpt>
      <trkpt lat="45.98251" lon="4.81527">
        <ele>293</ele>
        <time>2018-10-06T09:58:02Z</time>
      </trkpt>
      <trkpt lat="45.98249" lon="4.81522">
        <ele>293</ele>
        <time>2018-10-06T09:58:03Z</time>
      </trkpt>
      <trkpt lat="45.98245" lon="4.81512">
        <ele>292</ele>
        <time>2018-10-06T09:58:05Z</time>
      </trkpt>
      <trkpt lat="45.98242" lon="4.81508">
        <ele>292</ele>
        <time>2018-10-06T09:58:06Z</time>
      </trkpt>
      <trkpt lat="45.98238" lon="4.81497">
        <ele>292</ele>
        <time>2018-10-06T09:58:08Z</time>
      </trkpt>
      <trkpt lat="45.98237" lon="4.81492">
        <ele>293</ele>
        <time>2018-10-06T09:58:09Z</time>
      </trkpt>
      <trkpt lat="45.98234" lon="4.81482">
        <ele>293</ele>
        <time>2018-10-06T09:58:11Z</time>
      </trkpt>
      <trkpt lat="45.98234" lon="4.8148">
        <ele>295</ele>
        <time>2018-10-06T09:58:12Z</time>
      </trkpt>
      <trkpt lat="45.98233" lon="4.81477">
        <ele>296</ele>
        <time>2018-10-06T09:58:13Z</time>
      </trkpt>
      <trkpt lat="45.98231" lon="4.81467">
        <ele>298</ele>
        <time>2018-10-06T09:58:14Z</time>
      </trkpt>
      <trkpt lat="45.98228" lon="4.81458">
        <ele>299</ele>
        <time>2018-10-06T09:58:17Z</time>
      </trkpt>
      <trkpt lat="45.98225" lon="4.81449">
        <ele>300</ele>
        <time>2018-10-06T09:58:18Z</time>
      </trkpt>
      <trkpt lat="45.98222" lon="4.81438">
        <ele>301</ele>
        <time>2018-10-06T09:58:20Z</time>
      </trkpt>
      <trkpt lat="45.98221" lon="4.81436">
        <ele>301</ele>
        <time>2018-10-06T09:58:21Z</time>
      </trkpt>
      <trkpt lat="45.98218" lon="4.81428">
        <ele>301</ele>
        <time>2018-10-06T09:58:22Z</time>
      </trkpt>
      <trkpt lat="45.98216" lon="4.81424">
        <ele>301</ele>
        <time>2018-10-06T09:58:23Z</time>
      </trkpt>
      <trkpt lat="45.98212" lon="4.81413">
        <ele>299</ele>
        <time>2018-10-06T09:58:25Z</time>
      </trkpt>
      <trkpt lat="45.98208" lon="4.81408">
        <ele>299</ele>
        <time>2018-10-06T09:58:26Z</time>
      </trkpt>
      <trkpt lat="45.98206" lon="4.81402">
        <ele>300</ele>
        <time>2018-10-06T09:58:27Z</time>
      </trkpt>
      <trkpt lat="45.98205" lon="4.81396">
        <ele>299</ele>
        <time>2018-10-06T09:58:28Z</time>
      </trkpt>
      <trkpt lat="45.98202" lon="4.81386">
        <ele>300</ele>
        <time>2018-10-06T09:58:30Z</time>
      </trkpt>
      <trkpt lat="45.98201" lon="4.8138">
        <ele>302</ele>
        <time>2018-10-06T09:58:31Z</time>
      </trkpt>
      <trkpt lat="45.982" lon="4.81373">
        <ele>303</ele>
        <time>2018-10-06T09:58:32Z</time>
      </trkpt>
      <trkpt lat="45.98197" lon="4.81366">
        <ele>302</ele>
        <time>2018-10-06T09:58:33Z</time>
      </trkpt>
      <trkpt lat="45.98196" lon="4.8136">
        <ele>302</ele>
        <time>2018-10-06T09:58:34Z</time>
      </trkpt>
      <trkpt lat="45.98195" lon="4.81353">
        <ele>300</ele>
        <time>2018-10-06T09:58:35Z</time>
      </trkpt>
      <trkpt lat="45.98196" lon="4.81346">
        <ele>293</ele>
        <time>2018-10-06T09:58:36Z</time>
      </trkpt>
      <trkpt lat="45.98197" lon="4.81339">
        <ele>294</ele>
        <time>2018-10-06T09:58:37Z</time>
      </trkpt>
      <trkpt lat="45.98195" lon="4.81334">
        <ele>296</ele>
        <time>2018-10-06T09:58:38Z</time>
      </trkpt>
      <trkpt lat="45.98193" lon="4.81324">
        <ele>297</ele>
        <time>2018-10-06T09:58:39Z</time>
      </trkpt>
      <trkpt lat="45.98192" lon="4.81315">
        <ele>299</ele>
        <time>2018-10-06T09:58:40Z</time>
      </trkpt>
      <trkpt lat="45.98191" lon="4.81308">
        <ele>299</ele>
        <time>2018-10-06T09:58:41Z</time>
      </trkpt>
      <trkpt lat="45.98188" lon="4.813">
        <ele>299</ele>
        <time>2018-10-06T09:58:42Z</time>
      </trkpt>
      <trkpt lat="45.98187" lon="4.81293">
        <ele>299</ele>
        <time>2018-10-06T09:58:43Z</time>
      </trkpt>
      <trkpt lat="45.98185" lon="4.81285">
        <ele>299</ele>
        <time>2018-10-06T09:58:44Z</time>
      </trkpt>
      <trkpt lat="45.98182" lon="4.81277">
        <ele>299</ele>
        <time>2018-10-06T09:58:45Z</time>
      </trkpt>
      <trkpt lat="45.98182" lon="4.8127">
        <ele>300</ele>
        <time>2018-10-06T09:58:46Z</time>
      </trkpt>
      <trkpt lat="45.9818" lon="4.8126">
        <ele>298</ele>
        <time>2018-10-06T09:58:47Z</time>
      </trkpt>
      <trkpt lat="45.9818" lon="4.81251">
        <ele>297</ele>
        <time>2018-10-06T09:58:48Z</time>
      </trkpt>
      <trkpt lat="45.98179" lon="4.81243">
        <ele>293</ele>
        <time>2018-10-06T09:58:49Z</time>
      </trkpt>
      <trkpt lat="45.98177" lon="4.81236">
        <ele>294</ele>
        <time>2018-10-06T09:58:50Z</time>
      </trkpt>
      <trkpt lat="45.98175" lon="4.81229">
        <ele>295</ele>
        <time>2018-10-06T09:58:51Z</time>
      </trkpt>
      <trkpt lat="45.98174" lon="4.81219">
        <ele>295</ele>
        <time>2018-10-06T09:58:52Z</time>
      </trkpt>
      <trkpt lat="45.98172" lon="4.81211">
        <ele>295</ele>
        <time>2018-10-06T09:58:53Z</time>
      </trkpt>
      <trkpt lat="45.98173" lon="4.81204">
        <ele>293</ele>
        <time>2018-10-06T09:58:54Z</time>
      </trkpt>
      <trkpt lat="45.98173" lon="4.81194">
        <ele>293</ele>
        <time>2018-10-06T09:58:55Z</time>
      </trkpt>
      <trkpt lat="45.98172" lon="4.81186">
        <ele>293</ele>
        <time>2018-10-06T09:58:56Z</time>
      </trkpt>
      <trkpt lat="45.98168" lon="4.81176">
        <ele>292</ele>
        <time>2018-10-06T09:58:57Z</time>
      </trkpt>
      <trkpt lat="45.98166" lon="4.81168">
        <ele>292</ele>
        <time>2018-10-06T09:58:58Z</time>
      </trkpt>
      <trkpt lat="45.98164" lon="4.8116">
        <ele>292</ele>
        <time>2018-10-06T09:58:59Z</time>
      </trkpt>
      <trkpt lat="45.98162" lon="4.81156">
        <ele>291</ele>
        <time>2018-10-06T09:59:00Z</time>
      </trkpt>
      <trkpt lat="45.98159" lon="4.81149">
        <ele>291</ele>
        <time>2018-10-06T09:59:01Z</time>
      </trkpt>
      <trkpt lat="45.98157" lon="4.81144">
        <ele>291</ele>
        <time>2018-10-06T09:59:02Z</time>
      </trkpt>
      <trkpt lat="45.98154" lon="4.81138">
        <ele>290</ele>
        <time>2018-10-06T09:59:03Z</time>
      </trkpt>
      <trkpt lat="45.98151" lon="4.81131">
        <ele>290</ele>
        <time>2018-10-06T09:59:04Z</time>
      </trkpt>
      <trkpt lat="45.98149" lon="4.81124">
        <ele>289</ele>
        <time>2018-10-06T09:59:05Z</time>
      </trkpt>
      <trkpt lat="45.98146" lon="4.81117">
        <ele>289</ele>
        <time>2018-10-06T09:59:06Z</time>
      </trkpt>
      <trkpt lat="45.98144" lon="4.81109">
        <ele>289</ele>
        <time>2018-10-06T09:59:07Z</time>
      </trkpt>
      <trkpt lat="45.98143" lon="4.81103">
        <ele>292</ele>
        <time>2018-10-06T09:59:08Z</time>
      </trkpt>
      <trkpt lat="45.98138" lon="4.81095">
        <ele>292</ele>
        <time>2018-10-06T09:59:09Z</time>
      </trkpt>
      <trkpt lat="45.98135" lon="4.81088">
        <ele>293</ele>
        <time>2018-10-06T09:59:10Z</time>
      </trkpt>
      <trkpt lat="45.98132" lon="4.8108">
        <ele>291</ele>
        <time>2018-10-06T09:59:11Z</time>
      </trkpt>
      <trkpt lat="45.98129" lon="4.81074">
        <ele>292</ele>
        <time>2018-10-06T09:59:12Z</time>
      </trkpt>
      <trkpt lat="45.98126" lon="4.81067">
        <ele>291</ele>
        <time>2018-10-06T09:59:13Z</time>
      </trkpt>
      <trkpt lat="45.98127" lon="4.81061">
        <ele>292</ele>
        <time>2018-10-06T09:59:14Z</time>
      </trkpt>
      <trkpt lat="45.98124" lon="4.81053">
        <ele>292</ele>
        <time>2018-10-06T09:59:15Z</time>
      </trkpt>
      <trkpt lat="45.98123" lon="4.81045">
        <ele>291</ele>
        <time>2018-10-06T09:59:16Z</time>
      </trkpt>
      <trkpt lat="45.98121" lon="4.81038">
        <ele>291</ele>
        <time>2018-10-06T09:59:17Z</time>
      </trkpt>
      <trkpt lat="45.98116" lon="4.8103">
        <ele>291</ele>
        <time>2018-10-06T09:59:18Z</time>
      </trkpt>
      <trkpt lat="45.98113" lon="4.81023">
        <ele>292</ele>
        <time>2018-10-06T09:59:19Z</time>
      </trkpt>
      <trkpt lat="45.9811" lon="4.81017">
        <ele>293</ele>
        <time>2018-10-06T09:59:20Z</time>
      </trkpt>
      <trkpt lat="45.98108" lon="4.8101">
        <ele>294</ele>
        <time>2018-10-06T09:59:21Z</time>
      </trkpt>
      <trkpt lat="45.98106" lon="4.81005">
        <ele>296</ele>
        <time>2018-10-06T09:59:22Z</time>
      </trkpt>
      <trkpt lat="45.98102" lon="4.81">
        <ele>296</ele>
        <time>2018-10-06T09:59:23Z</time>
      </trkpt>
      <trkpt lat="45.981" lon="4.80991">
        <ele>296</ele>
        <time>2018-10-06T09:59:25Z</time>
      </trkpt>
      <trkpt lat="45.98098" lon="4.80986">
        <ele>296</ele>
        <time>2018-10-06T09:59:26Z</time>
      </trkpt>
      <trkpt lat="45.98096" lon="4.80981">
        <ele>295</ele>
        <time>2018-10-06T09:59:27Z</time>
      </trkpt>
      <trkpt lat="45.98094" lon="4.80973">
        <ele>294</ele>
        <time>2018-10-06T09:59:28Z</time>
      </trkpt>
      <trkpt lat="45.98092" lon="4.80964">
        <ele>291</ele>
        <time>2018-10-06T09:59:29Z</time>
      </trkpt>
      <trkpt lat="45.9809" lon="4.80955">
        <ele>292</ele>
        <time>2018-10-06T09:59:30Z</time>
      </trkpt>
      <trkpt lat="45.98088" lon="4.80946">
        <ele>292</ele>
        <time>2018-10-06T09:59:31Z</time>
      </trkpt>
      <trkpt lat="45.98085" lon="4.80936">
        <ele>292</ele>
        <time>2018-10-06T09:59:32Z</time>
      </trkpt>
      <trkpt lat="45.98081" lon="4.80926">
        <ele>292</ele>
        <time>2018-10-06T09:59:33Z</time>
      </trkpt>
      <trkpt lat="45.98079" lon="4.80915">
        <ele>289</ele>
        <time>2018-10-06T09:59:34Z</time>
      </trkpt>
      <trkpt lat="45.98075" lon="4.80905">
        <ele>288</ele>
        <time>2018-10-06T09:59:35Z</time>
      </trkpt>
      <trkpt lat="45.98073" lon="4.80893">
        <ele>290</ele>
        <time>2018-10-06T09:59:36Z</time>
      </trkpt>
      <trkpt lat="45.98071" lon="4.8088">
        <ele>291</ele>
        <time>2018-10-06T09:59:37Z</time>
      </trkpt>
      <trkpt lat="45.98067" lon="4.80869">
        <ele>289</ele>
        <time>2018-10-06T09:59:38Z</time>
      </trkpt>
      <trkpt lat="45.98065" lon="4.80858">
        <ele>289</ele>
        <time>2018-10-06T09:59:39Z</time>
      </trkpt>
      <trkpt lat="45.98063" lon="4.80844">
        <ele>287</ele>
        <time>2018-10-06T09:59:40Z</time>
      </trkpt>
      <trkpt lat="45.98061" lon="4.80833">
        <ele>285</ele>
        <time>2018-10-06T09:59:41Z</time>
      </trkpt>
      <trkpt lat="45.98058" lon="4.80821">
        <ele>285</ele>
        <time>2018-10-06T09:59:42Z</time>
      </trkpt>
      <trkpt lat="45.98055" lon="4.80809">
        <ele>284</ele>
        <time>2018-10-06T09:59:43Z</time>
      </trkpt>
      <trkpt lat="45.98052" lon="4.808">
        <ele>281</ele>
        <time>2018-10-06T09:59:44Z</time>
      </trkpt>
      <trkpt lat="45.98049" lon="4.80791">
        <ele>280</ele>
        <time>2018-10-06T09:59:45Z</time>
      </trkpt>
      <trkpt lat="45.98048" lon="4.80781">
        <ele>279</ele>
        <time>2018-10-06T09:59:46Z</time>
      </trkpt>
      <trkpt lat="45.98046" lon="4.80772">
        <ele>279</ele>
        <time>2018-10-06T09:59:47Z</time>
      </trkpt>
      <trkpt lat="45.98041" lon="4.80764">
        <ele>278</ele>
        <time>2018-10-06T09:59:48Z</time>
      </trkpt>
      <trkpt lat="45.98039" lon="4.80755">
        <ele>278</ele>
        <time>2018-10-06T09:59:49Z</time>
      </trkpt>
      <trkpt lat="45.98037" lon="4.80747">
        <ele>278</ele>
        <time>2018-10-06T09:59:50Z</time>
      </trkpt>
      <trkpt lat="45.98033" lon="4.80736">
        <ele>277</ele>
        <time>2018-10-06T09:59:52Z</time>
      </trkpt>
      <trkpt lat="45.98031" lon="4.80731">
        <ele>276</ele>
        <time>2018-10-06T09:59:53Z</time>
      </trkpt>
      <trkpt lat="45.98031" lon="4.8072">
        <ele>274</ele>
        <time>2018-10-06T09:59:56Z</time>
      </trkpt>
      <trkpt lat="45.98032" lon="4.80717">
        <ele>278</ele>
        <time>2018-10-06T09:59:57Z</time>
      </trkpt>
      <trkpt lat="45.98038" lon="4.80711">
        <ele>278</ele>
        <time>2018-10-06T10:00:00Z</time>
      </trkpt>
      <trkpt lat="45.98045" lon="4.80707">
        <ele>279</ele>
        <time>2018-10-06T10:00:01Z</time>
      </trkpt>
      <trkpt lat="45.98053" lon="4.80702">
        <ele>278</ele>
        <time>2018-10-06T10:00:03Z</time>
      </trkpt>
      <trkpt lat="45.98058" lon="4.80702">
        <ele>279</ele>
        <time>2018-10-06T10:00:04Z</time>
      </trkpt>
      <trkpt lat="45.98064" lon="4.80701">
        <ele>279</ele>
        <time>2018-10-06T10:00:05Z</time>
      </trkpt>
      <trkpt lat="45.98069" lon="4.80701">
        <ele>279</ele>
        <time>2018-10-06T10:00:06Z</time>
      </trkpt>
      <trkpt lat="45.98075" lon="4.80702">
        <ele>279</ele>
        <time>2018-10-06T10:00:07Z</time>
      </trkpt>
      <trkpt lat="45.98082" lon="4.80702">
        <ele>279</ele>
        <time>2018-10-06T10:00:08Z</time>
      </trkpt>
      <trkpt lat="45.98088" lon="4.80699">
        <ele>278</ele>
        <time>2018-10-06T10:00:09Z</time>
      </trkpt>
      <trkpt lat="45.98095" lon="4.80699">
        <ele>278</ele>
        <time>2018-10-06T10:00:10Z</time>
      </trkpt>
      <trkpt lat="45.98102" lon="4.80699">
        <ele>278</ele>
        <time>2018-10-06T10:00:11Z</time>
      </trkpt>
      <trkpt lat="45.9811" lon="4.80697">
        <ele>276</ele>
        <time>2018-10-06T10:00:12Z</time>
      </trkpt>
      <trkpt lat="45.98117" lon="4.80697">
        <ele>278</ele>
        <time>2018-10-06T10:00:13Z</time>
      </trkpt>
      <trkpt lat="45.98124" lon="4.80698">
        <ele>275</ele>
        <time>2018-10-06T10:00:14Z</time>
      </trkpt>
      <trkpt lat="45.98131" lon="4.80698">
        <ele>275</ele>
        <time>2018-10-06T10:00:15Z</time>
      </trkpt>
      <trkpt lat="45.98138" lon="4.80698">
        <ele>277</ele>
        <time>2018-10-06T10:00:16Z</time>
      </trkpt>
      <trkpt lat="45.98146" lon="4.80698">
        <ele>280</ele>
        <time>2018-10-06T10:00:17Z</time>
      </trkpt>
      <trkpt lat="45.98154" lon="4.80697">
        <ele>282</ele>
        <time>2018-10-06T10:00:18Z</time>
      </trkpt>
      <trkpt lat="45.98161" lon="4.80696">
        <ele>281</ele>
        <time>2018-10-06T10:00:19Z</time>
      </trkpt>
      <trkpt lat="45.98169" lon="4.80695">
        <ele>281</ele>
        <time>2018-10-06T10:00:20Z</time>
      </trkpt>
      <trkpt lat="45.98176" lon="4.80694">
        <ele>284</ele>
        <time>2018-10-06T10:00:21Z</time>
      </trkpt>
      <trkpt lat="45.98182" lon="4.80694">
        <ele>281</ele>
        <time>2018-10-06T10:00:22Z</time>
      </trkpt>
      <trkpt lat="45.9819" lon="4.80694">
        <ele>284</ele>
        <time>2018-10-06T10:00:23Z</time>
      </trkpt>
      <trkpt lat="45.98198" lon="4.80692">
        <ele>284</ele>
        <time>2018-10-06T10:00:24Z</time>
      </trkpt>
      <trkpt lat="45.98205" lon="4.80691">
        <ele>286</ele>
        <time>2018-10-06T10:00:25Z</time>
      </trkpt>
      <trkpt lat="45.98212" lon="4.80687">
        <ele>287</ele>
        <time>2018-10-06T10:00:26Z</time>
      </trkpt>
      <trkpt lat="45.98218" lon="4.80682">
        <ele>287</ele>
        <time>2018-10-06T10:00:27Z</time>
      </trkpt>
      <trkpt lat="45.98223" lon="4.80677">
        <ele>284</ele>
        <time>2018-10-06T10:00:28Z</time>
      </trkpt>
      <trkpt lat="45.98228" lon="4.80667">
        <ele>284</ele>
        <time>2018-10-06T10:00:29Z</time>
      </trkpt>
      <trkpt lat="45.98231" lon="4.8066">
        <ele>286</ele>
        <time>2018-10-06T10:00:30Z</time>
      </trkpt>
      <trkpt lat="45.98234" lon="4.80648">
        <ele>289</ele>
        <time>2018-10-06T10:00:31Z</time>
      </trkpt>
      <trkpt lat="45.98238" lon="4.80637">
        <ele>290</ele>
        <time>2018-10-06T10:00:32Z</time>
      </trkpt>
      <trkpt lat="45.98243" lon="4.80618">
        <ele>290</ele>
        <time>2018-10-06T10:00:33Z</time>
      </trkpt>
      <trkpt lat="45.98247" lon="4.80606">
        <ele>290</ele>
        <time>2018-10-06T10:00:34Z</time>
      </trkpt>
      <trkpt lat="45.9825" lon="4.80594">
        <ele>285</ele>
        <time>2018-10-06T10:00:35Z</time>
      </trkpt>
      <trkpt lat="45.98253" lon="4.80585">
        <ele>286</ele>
        <time>2018-10-06T10:00:36Z</time>
      </trkpt>
      <trkpt lat="45.98256" lon="4.80577">
        <ele>287</ele>
        <time>2018-10-06T10:00:37Z</time>
      </trkpt>
      <trkpt lat="45.98259" lon="4.80567">
        <ele>287</ele>
        <time>2018-10-06T10:00:38Z</time>
      </trkpt>
      <trkpt lat="45.98261" lon="4.80562">
        <ele>289</ele>
        <time>2018-10-06T10:00:39Z</time>
      </trkpt>
      <trkpt lat="45.98265" lon="4.80555">
        <ele>288</ele>
        <time>2018-10-06T10:00:40Z</time>
      </trkpt>
      <trkpt lat="45.98268" lon="4.80548">
        <ele>289</ele>
        <time>2018-10-06T10:00:41Z</time>
      </trkpt>
      <trkpt lat="45.9827" lon="4.80532">
        <ele>284</ele>
        <time>2018-10-06T10:00:42Z</time>
      </trkpt>
      <trkpt lat="45.98272" lon="4.80521">
        <ele>284</ele>
        <time>2018-10-06T10:00:43Z</time>
      </trkpt>
      <trkpt lat="45.98273" lon="4.80515">
        <ele>281</ele>
        <time>2018-10-06T10:00:44Z</time>
      </trkpt>
      <trkpt lat="45.98276" lon="4.80508">
        <ele>284</ele>
        <time>2018-10-06T10:00:45Z</time>
      </trkpt>
      <trkpt lat="45.98278" lon="4.80501">
        <ele>283</ele>
        <time>2018-10-06T10:00:46Z</time>
      </trkpt>
      <trkpt lat="45.98282" lon="4.80493">
        <ele>286</ele>
        <time>2018-10-06T10:00:49Z</time>
      </trkpt>
      <trkpt lat="45.98288" lon="4.80477">
        <ele>284</ele>
        <time>2018-10-06T10:00:50Z</time>
      </trkpt>
      <trkpt lat="45.98288" lon="4.80475">
        <ele>284</ele>
        <time>2018-10-06T10:00:51Z</time>
      </trkpt>
      <trkpt lat="45.9829" lon="4.80462">
        <ele>283</ele>
        <time>2018-10-06T10:00:52Z</time>
      </trkpt>
      <trkpt lat="45.98291" lon="4.80455">
        <ele>283</ele>
        <time>2018-10-06T10:00:53Z</time>
      </trkpt>
      <trkpt lat="45.98292" lon="4.80448">
        <ele>285</ele>
        <time>2018-10-06T10:00:54Z</time>
      </trkpt>
      <trkpt lat="45.98294" lon="4.80436">
        <ele>284</ele>
        <time>2018-10-06T10:00:56Z</time>
      </trkpt>
      <trkpt lat="45.98295" lon="4.80433">
        <ele>282</ele>
        <time>2018-10-06T10:00:57Z</time>
      </trkpt>
      <trkpt lat="45.98297" lon="4.80422">
        <ele>281</ele>
        <time>2018-10-06T10:01:00Z</time>
      </trkpt>
      <trkpt lat="45.98298" lon="4.80417">
        <ele>280</ele>
        <time>2018-10-06T10:01:01Z</time>
      </trkpt>
      <trkpt lat="45.98298" lon="4.80412">
        <ele>280</ele>
        <time>2018-10-06T10:01:02Z</time>
      </trkpt>
      <trkpt lat="45.983" lon="4.80393">
        <ele>281</ele>
        <time>2018-10-06T10:01:03Z</time>
      </trkpt>
      <trkpt lat="45.98302" lon="4.80382">
        <ele>283</ele>
        <time>2018-10-06T10:01:06Z</time>
      </trkpt>
      <trkpt lat="45.98306" lon="4.80371">
        <ele>284</ele>
        <time>2018-10-06T10:01:07Z</time>
      </trkpt>
      <trkpt lat="45.98306" lon="4.80366">
        <ele>285</ele>
        <time>2018-10-06T10:01:09Z</time>
      </trkpt>
      <trkpt lat="45.98308" lon="4.80356">
        <ele>286</ele>
        <time>2018-10-06T10:01:10Z</time>
      </trkpt>
      <trkpt lat="45.98311" lon="4.80346">
        <ele>286</ele>
        <time>2018-10-06T10:01:11Z</time>
      </trkpt>
      <trkpt lat="45.98313" lon="4.80335">
        <ele>285</ele>
        <time>2018-10-06T10:01:12Z</time>
      </trkpt>
      <trkpt lat="45.98313" lon="4.80326">
        <ele>285</ele>
        <time>2018-10-06T10:01:13Z</time>
      </trkpt>
      <trkpt lat="45.98316" lon="4.80321">
        <ele>283</ele>
        <time>2018-10-06T10:01:14Z</time>
      </trkpt>
      <trkpt lat="45.98315" lon="4.80309">
        <ele>280</ele>
        <time>2018-10-06T10:01:19Z</time>
      </trkpt>
      <trkpt lat="45.98316" lon="4.80307">
        <ele>281</ele>
        <time>2018-10-06T10:01:20Z</time>
      </trkpt>
      <trkpt lat="45.98318" lon="4.80297">
        <ele>284</ele>
        <time>2018-10-06T10:01:23Z</time>
      </trkpt>
      <trkpt lat="45.98319" lon="4.80293">
        <ele>284</ele>
        <time>2018-10-06T10:01:24Z</time>
      </trkpt>
      <trkpt lat="45.98322" lon="4.80283">
        <ele>284</ele>
        <time>2018-10-06T10:01:27Z</time>
      </trkpt>
      <trkpt lat="45.98323" lon="4.8028">
        <ele>284</ele>
        <time>2018-10-06T10:01:28Z</time>
      </trkpt>
      <trkpt lat="45.98325" lon="4.80272">
        <ele>283</ele>
        <time>2018-10-06T10:01:30Z</time>
      </trkpt>
      <trkpt lat="45.98326" lon="4.80267">
        <ele>283</ele>
        <time>2018-10-06T10:01:31Z</time>
      </trkpt>
      <trkpt lat="45.98329" lon="4.80256">
        <ele>281</ele>
        <time>2018-10-06T10:01:33Z</time>
      </trkpt>
      <trkpt lat="45.9833" lon="4.8025">
        <ele>281</ele>
        <time>2018-10-06T10:01:34Z</time>
      </trkpt>
      <trkpt lat="45.98331" lon="4.80245">
        <ele>281</ele>
        <time>2018-10-06T10:01:35Z</time>
      </trkpt>
      <trkpt lat="45.98332" lon="4.80226">
        <ele>280</ele>
        <time>2018-10-06T10:01:36Z</time>
      </trkpt>
      <trkpt lat="45.9833" lon="4.8022">
        <ele>275</ele>
        <time>2018-10-06T10:01:37Z</time>
      </trkpt>
      <trkpt lat="45.98328" lon="4.80214">
        <ele>275</ele>
        <time>2018-10-06T10:01:38Z</time>
      </trkpt>
      <trkpt lat="45.98327" lon="4.80207">
        <ele>274</ele>
        <time>2018-10-06T10:01:39Z</time>
      </trkpt>
      <trkpt lat="45.98325" lon="4.80201">
        <ele>276</ele>
        <time>2018-10-06T10:01:40Z</time>
      </trkpt>
      <trkpt lat="45.98322" lon="4.80189">
        <ele>274</ele>
        <time>2018-10-06T10:01:42Z</time>
      </trkpt>
      <trkpt lat="45.9832" lon="4.80183">
        <ele>275</ele>
        <time>2018-10-06T10:01:43Z</time>
      </trkpt>
      <trkpt lat="45.98318" lon="4.80178">
        <ele>275</ele>
        <time>2018-10-06T10:01:44Z</time>
      </trkpt>
      <trkpt lat="45.98316" lon="4.8017">
        <ele>274</ele>
        <time>2018-10-06T10:01:45Z</time>
      </trkpt>
      <trkpt lat="45.98314" lon="4.80164">
        <ele>274</ele>
        <time>2018-10-06T10:01:46Z</time>
      </trkpt>
      <trkpt lat="45.98312" lon="4.80157">
        <ele>273</ele>
        <time>2018-10-06T10:01:47Z</time>
      </trkpt>
      <trkpt lat="45.98311" lon="4.80151">
        <ele>273</ele>
        <time>2018-10-06T10:01:48Z</time>
      </trkpt>
      <trkpt lat="45.98308" lon="4.80144">
        <ele>274</ele>
        <time>2018-10-06T10:01:49Z</time>
      </trkpt>
      <trkpt lat="45.98306" lon="4.80139">
        <ele>274</ele>
        <time>2018-10-06T10:01:50Z</time>
      </trkpt>
      <trkpt lat="45.98304" lon="4.80132">
        <ele>273</ele>
        <time>2018-10-06T10:01:51Z</time>
      </trkpt>
      <trkpt lat="45.98302" lon="4.80122">
        <ele>274</ele>
        <time>2018-10-06T10:01:53Z</time>
      </trkpt>
      <trkpt lat="45.98301" lon="4.80117">
        <ele>274</ele>
        <time>2018-10-06T10:01:54Z</time>
      </trkpt>
      <trkpt lat="45.98298" lon="4.80107">
        <ele>273</ele>
        <time>2018-10-06T10:01:56Z</time>
      </trkpt>
      <trkpt lat="45.98296" lon="4.80102">
        <ele>274</ele>
        <time>2018-10-06T10:01:57Z</time>
      </trkpt>
      <trkpt lat="45.98292" lon="4.80093">
        <ele>275</ele>
        <time>2018-10-06T10:01:59Z</time>
      </trkpt>
      <trkpt lat="45.98289" lon="4.80087">
        <ele>276</ele>
        <time>2018-10-06T10:02:00Z</time>
      </trkpt>
      <trkpt lat="45.98288" lon="4.80082">
        <ele>277</ele>
        <time>2018-10-06T10:02:01Z</time>
      </trkpt>
      <trkpt lat="45.98286" lon="4.80075">
        <ele>277</ele>
        <time>2018-10-06T10:02:02Z</time>
      </trkpt>
      <trkpt lat="45.98284" lon="4.80069">
        <ele>277</ele>
        <time>2018-10-06T10:02:03Z</time>
      </trkpt>
      <trkpt lat="45.98279" lon="4.80061">
        <ele>277</ele>
        <time>2018-10-06T10:02:04Z</time>
      </trkpt>
      <trkpt lat="45.98277" lon="4.80054">
        <ele>278</ele>
        <time>2018-10-06T10:02:05Z</time>
      </trkpt>
      <trkpt lat="45.98275" lon="4.80048">
        <ele>278</ele>
        <time>2018-10-06T10:02:06Z</time>
      </trkpt>
      <trkpt lat="45.98271" lon="4.80039">
        <ele>278</ele>
        <time>2018-10-06T10:02:08Z</time>
      </trkpt>
      <trkpt lat="45.98269" lon="4.80034">
        <ele>277</ele>
        <time>2018-10-06T10:02:09Z</time>
      </trkpt>
      <trkpt lat="45.98267" lon="4.80028">
        <ele>277</ele>
        <time>2018-10-06T10:02:10Z</time>
      </trkpt>
      <trkpt lat="45.98264" lon="4.80022">
        <ele>277</ele>
        <time>2018-10-06T10:02:11Z</time>
      </trkpt>
      <trkpt lat="45.98262" lon="4.80016">
        <ele>276</ele>
        <time>2018-10-06T10:02:12Z</time>
      </trkpt>
      <trkpt lat="45.9826" lon="4.80009">
        <ele>277</ele>
        <time>2018-10-06T10:02:13Z</time>
      </trkpt>
      <trkpt lat="45.98258" lon="4.80002">
        <ele>278</ele>
        <time>2018-10-06T10:02:14Z</time>
      </trkpt>
      <trkpt lat="45.98255" lon="4.79995">
        <ele>277</ele>
        <time>2018-10-06T10:02:15Z</time>
      </trkpt>
      <trkpt lat="45.98252" lon="4.79989">
        <ele>276</ele>
        <time>2018-10-06T10:02:16Z</time>
      </trkpt>
      <trkpt lat="45.9825" lon="4.79981">
        <ele>276</ele>
        <time>2018-10-06T10:02:17Z</time>
      </trkpt>
      <trkpt lat="45.98248" lon="4.79974">
        <ele>276</ele>
        <time>2018-10-06T10:02:18Z</time>
      </trkpt>
      <trkpt lat="45.98246" lon="4.79966">
        <ele>277</ele>
        <time>2018-10-06T10:02:19Z</time>
      </trkpt>
      <trkpt lat="45.98241" lon="4.79959">
        <ele>278</ele>
        <time>2018-10-06T10:02:21Z</time>
      </trkpt>
      <trkpt lat="45.98238" lon="4.7995">
        <ele>278</ele>
        <time>2018-10-06T10:02:22Z</time>
      </trkpt>
      <trkpt lat="45.98234" lon="4.79938">
        <ele>279</ele>
        <time>2018-10-06T10:02:24Z</time>
      </trkpt>
      <trkpt lat="45.98232" lon="4.79931">
        <ele>278</ele>
        <time>2018-10-06T10:02:25Z</time>
      </trkpt>
      <trkpt lat="45.98228" lon="4.79926">
        <ele>277</ele>
        <time>2018-10-06T10:02:26Z</time>
      </trkpt>
      <trkpt lat="45.98226" lon="4.79916">
        <ele>277</ele>
        <time>2018-10-06T10:02:27Z</time>
      </trkpt>
      <trkpt lat="45.98223" lon="4.79908">
        <ele>277</ele>
        <time>2018-10-06T10:02:28Z</time>
      </trkpt>
      <trkpt lat="45.9822" lon="4.799">
        <ele>276</ele>
        <time>2018-10-06T10:02:29Z</time>
      </trkpt>
      <trkpt lat="45.98215" lon="4.79889">
        <ele>277</ele>
        <time>2018-10-06T10:02:31Z</time>
      </trkpt>
      <trkpt lat="45.98213" lon="4.7988">
        <ele>278</ele>
        <time>2018-10-06T10:02:32Z</time>
      </trkpt>
      <trkpt lat="45.98211" lon="4.79869">
        <ele>278</ele>
        <time>2018-10-06T10:02:34Z</time>
      </trkpt>
      <trkpt lat="45.9821" lon="4.79867">
        <ele>277</ele>
        <time>2018-10-06T10:02:35Z</time>
      </trkpt>
      <trkpt lat="45.98207" lon="4.79859">
        <ele>277</ele>
        <time>2018-10-06T10:02:36Z</time>
      </trkpt>
      <trkpt lat="45.98207" lon="4.79852">
        <ele>280</ele>
        <time>2018-10-06T10:02:37Z</time>
      </trkpt>
      <trkpt lat="45.98201" lon="4.79843">
        <ele>280</ele>
        <time>2018-10-06T10:02:40Z</time>
      </trkpt>
      <trkpt lat="45.982" lon="4.7984">
        <ele>280</ele>
        <time>2018-10-06T10:02:41Z</time>
      </trkpt>
      <trkpt lat="45.98198" lon="4.79833">
        <ele>281</ele>
        <time>2018-10-06T10:02:42Z</time>
      </trkpt>
      <trkpt lat="45.98195" lon="4.79825">
        <ele>281</ele>
        <time>2018-10-06T10:02:43Z</time>
      </trkpt>
      <trkpt lat="45.98193" lon="4.79819">
        <ele>280</ele>
        <time>2018-10-06T10:02:44Z</time>
      </trkpt>
      <trkpt lat="45.98191" lon="4.79813">
        <ele>278</ele>
        <time>2018-10-06T10:02:45Z</time>
      </trkpt>
      <trkpt lat="45.98187" lon="4.79807">
        <ele>278</ele>
        <time>2018-10-06T10:02:46Z</time>
      </trkpt>
      <trkpt lat="45.98186" lon="4.798">
        <ele>278</ele>
        <time>2018-10-06T10:02:47Z</time>
      </trkpt>
      <trkpt lat="45.98183" lon="4.79789">
        <ele>276</ele>
        <time>2018-10-06T10:02:49Z</time>
      </trkpt>
      <trkpt lat="45.98182" lon="4.79783">
        <ele>277</ele>
        <time>2018-10-06T10:02:50Z</time>
      </trkpt>
      <trkpt lat="45.98182" lon="4.79772">
        <ele>279</ele>
        <time>2018-10-06T10:02:52Z</time>
      </trkpt>
      <trkpt lat="45.98183" lon="4.79767">
        <ele>279</ele>
        <time>2018-10-06T10:02:53Z</time>
      </trkpt>
      <trkpt lat="45.98184" lon="4.79756">
        <ele>281</ele>
        <time>2018-10-06T10:02:55Z</time>
      </trkpt>
      <trkpt lat="45.98185" lon="4.79753">
        <ele>281</ele>
        <time>2018-10-06T10:02:56Z</time>
      </trkpt>
      <trkpt lat="45.98183" lon="4.7974">
        <ele>280</ele>
        <time>2018-10-06T10:02:58Z</time>
      </trkpt>
      <trkpt lat="45.98179" lon="4.79736">
        <ele>279</ele>
        <time>2018-10-06T10:02:59Z</time>
      </trkpt>
      <trkpt lat="45.98171" lon="4.79737">
        <ele>279</ele>
        <time>2018-10-06T10:03:00Z</time>
      </trkpt>
      <trkpt lat="45.98166" lon="4.79739">
        <ele>278</ele>
        <time>2018-10-06T10:03:01Z</time>
      </trkpt>
      <trkpt lat="45.98162" lon="4.79742">
        <ele>278</ele>
        <time>2018-10-06T10:03:02Z</time>
      </trkpt>
      <trkpt lat="45.98157" lon="4.79746">
        <ele>278</ele>
        <time>2018-10-06T10:03:03Z</time>
      </trkpt>
      <trkpt lat="45.98152" lon="4.79749">
        <ele>277</ele>
        <time>2018-10-06T10:03:04Z</time>
      </trkpt>
      <trkpt lat="45.98147" lon="4.79752">
        <ele>277</ele>
        <time>2018-10-06T10:03:05Z</time>
      </trkpt>
      <trkpt lat="45.98143" lon="4.79757">
        <ele>279</ele>
        <time>2018-10-06T10:03:06Z</time>
      </trkpt>
      <trkpt lat="45.98137" lon="4.79759">
        <ele>278</ele>
        <time>2018-10-06T10:03:07Z</time>
      </trkpt>
      <trkpt lat="45.98132" lon="4.7976">
        <ele>278</ele>
        <time>2018-10-06T10:03:08Z</time>
      </trkpt>
      <trkpt lat="45.98128" lon="4.79761">
        <ele>276</ele>
        <time>2018-10-06T10:03:09Z</time>
      </trkpt>
      <trkpt lat="45.98123" lon="4.79763">
        <ele>275</ele>
        <time>2018-10-06T10:03:10Z</time>
      </trkpt>
      <trkpt lat="45.98117" lon="4.79765">
        <ele>274</ele>
        <time>2018-10-06T10:03:11Z</time>
      </trkpt>
      <trkpt lat="45.9811" lon="4.79766">
        <ele>274</ele>
        <time>2018-10-06T10:03:12Z</time>
      </trkpt>
      <trkpt lat="45.98103" lon="4.79767">
        <ele>272</ele>
        <time>2018-10-06T10:03:13Z</time>
      </trkpt>
      <trkpt lat="45.98097" lon="4.79767">
        <ele>270</ele>
        <time>2018-10-06T10:03:14Z</time>
      </trkpt>
      <trkpt lat="45.98092" lon="4.79774">
        <ele>269</ele>
        <time>2018-10-06T10:03:15Z</time>
      </trkpt>
      <trkpt lat="45.98085" lon="4.79774">
        <ele>269</ele>
        <time>2018-10-06T10:03:16Z</time>
      </trkpt>
      <trkpt lat="45.98081" lon="4.79776">
        <ele>268</ele>
        <time>2018-10-06T10:03:17Z</time>
      </trkpt>
      <trkpt lat="45.98075" lon="4.79777">
        <ele>267</ele>
        <time>2018-10-06T10:03:18Z</time>
      </trkpt>
      <trkpt lat="45.98069" lon="4.79778">
        <ele>266</ele>
        <time>2018-10-06T10:03:19Z</time>
      </trkpt>
      <trkpt lat="45.98063" lon="4.79779">
        <ele>267</ele>
        <time>2018-10-06T10:03:20Z</time>
      </trkpt>
      <trkpt lat="45.98058" lon="4.79779">
        <ele>267</ele>
        <time>2018-10-06T10:03:21Z</time>
      </trkpt>
      <trkpt lat="45.98052" lon="4.7978">
        <ele>266</ele>
        <time>2018-10-06T10:03:22Z</time>
      </trkpt>
      <trkpt lat="45.98048" lon="4.79781">
        <ele>266</ele>
        <time>2018-10-06T10:03:23Z</time>
      </trkpt>
      <trkpt lat="45.98043" lon="4.79781">
        <ele>266</ele>
        <time>2018-10-06T10:03:24Z</time>
      </trkpt>
      <trkpt lat="45.98037" lon="4.79783">
        <ele>264</ele>
        <time>2018-10-06T10:03:25Z</time>
      </trkpt>
      <trkpt lat="45.98032" lon="4.79784">
        <ele>263</ele>
        <time>2018-10-06T10:03:26Z</time>
      </trkpt>
      <trkpt lat="45.98027" lon="4.79786">
        <ele>262</ele>
        <time>2018-10-06T10:03:27Z</time>
      </trkpt>
      <trkpt lat="45.98021" lon="4.79787">
        <ele>261</ele>
        <time>2018-10-06T10:03:28Z</time>
      </trkpt>
      <trkpt lat="45.98017" lon="4.79787">
        <ele>262</ele>
        <time>2018-10-06T10:03:29Z</time>
      </trkpt>
      <trkpt lat="45.98008" lon="4.79787">
        <ele>260</ele>
        <time>2018-10-06T10:03:31Z</time>
      </trkpt>
      <trkpt lat="45.98004" lon="4.79787">
        <ele>261</ele>
        <time>2018-10-06T10:03:32Z</time>
      </trkpt>
      <trkpt lat="45.97998" lon="4.79786">
        <ele>261</ele>
        <time>2018-10-06T10:03:33Z</time>
      </trkpt>
      <trkpt lat="45.97993" lon="4.79786">
        <ele>261</ele>
        <time>2018-10-06T10:03:34Z</time>
      </trkpt>
      <trkpt lat="45.97988" lon="4.79788">
        <ele>260</ele>
        <time>2018-10-06T10:03:35Z</time>
      </trkpt>
      <trkpt lat="45.97983" lon="4.79789">
        <ele>259</ele>
        <time>2018-10-06T10:03:36Z</time>
      </trkpt>
      <trkpt lat="45.97978" lon="4.7979">
        <ele>258</ele>
        <time>2018-10-06T10:03:37Z</time>
      </trkpt>
      <trkpt lat="45.97973" lon="4.79791">
        <ele>258</ele>
        <time>2018-10-06T10:03:38Z</time>
      </trkpt>
      <trkpt lat="45.97968" lon="4.79791">
        <ele>257</ele>
        <time>2018-10-06T10:03:39Z</time>
      </trkpt>
      <trkpt lat="45.97963" lon="4.79792">
        <ele>258</ele>
        <time>2018-10-06T10:03:40Z</time>
      </trkpt>
      <trkpt lat="45.97959" lon="4.79792">
        <ele>257</ele>
        <time>2018-10-06T10:03:41Z</time>
      </trkpt>
      <trkpt lat="45.97953" lon="4.79795">
        <ele>255</ele>
        <time>2018-10-06T10:03:42Z</time>
      </trkpt>
      <trkpt lat="45.97945" lon="4.79793">
        <ele>258</ele>
        <time>2018-10-06T10:03:44Z</time>
      </trkpt>
      <trkpt lat="45.97941" lon="4.79795">
        <ele>260</ele>
        <time>2018-10-06T10:03:45Z</time>
      </trkpt>
      <trkpt lat="45.97933" lon="4.79798">
        <ele>261</ele>
        <time>2018-10-06T10:03:47Z</time>
      </trkpt>
      <trkpt lat="45.97929" lon="4.79799">
        <ele>261</ele>
        <time>2018-10-06T10:03:48Z</time>
      </trkpt>
      <trkpt lat="45.97921" lon="4.79798">
        <ele>261</ele>
        <time>2018-10-06T10:03:50Z</time>
      </trkpt>
      <trkpt lat="45.97916" lon="4.79798">
        <ele>261</ele>
        <time>2018-10-06T10:03:51Z</time>
      </trkpt>
      <trkpt lat="45.97908" lon="4.79799">
        <ele>262</ele>
        <time>2018-10-06T10:03:53Z</time>
      </trkpt>
      <trkpt lat="45.97902" lon="4.79799">
        <ele>262</ele>
        <time>2018-10-06T10:03:54Z</time>
      </trkpt>
      <trkpt lat="45.97895" lon="4.79802">
        <ele>262</ele>
        <time>2018-10-06T10:03:55Z</time>
      </trkpt>
      <trkpt lat="45.9789" lon="4.79802">
        <ele>262</ele>
        <time>2018-10-06T10:03:56Z</time>
      </trkpt>
      <trkpt lat="45.97881" lon="4.798">
        <ele>264</ele>
        <time>2018-10-06T10:03:58Z</time>
      </trkpt>
      <trkpt lat="45.97874" lon="4.79802">
        <ele>264</ele>
        <time>2018-10-06T10:03:59Z</time>
      </trkpt>
      <trkpt lat="45.97866" lon="4.79803">
        <ele>266</ele>
        <time>2018-10-06T10:04:01Z</time>
      </trkpt>
      <trkpt lat="45.97861" lon="4.79804">
        <ele>266</ele>
        <time>2018-10-06T10:04:02Z</time>
      </trkpt>
      <trkpt lat="45.97856" lon="4.79804">
        <ele>266</ele>
        <time>2018-10-06T10:04:03Z</time>
      </trkpt>
      <trkpt lat="45.97852" lon="4.79806">
        <ele>265</ele>
        <time>2018-10-06T10:04:04Z</time>
      </trkpt>
      <trkpt lat="45.97846" lon="4.79807">
        <ele>265</ele>
        <time>2018-10-06T10:04:05Z</time>
      </trkpt>
      <trkpt lat="45.97841" lon="4.79808">
        <ele>265</ele>
        <time>2018-10-06T10:04:06Z</time>
      </trkpt>
      <trkpt lat="45.97836" lon="4.79809">
        <ele>265</ele>
        <time>2018-10-06T10:04:07Z</time>
      </trkpt>
      <trkpt lat="45.97832" lon="4.79809">
        <ele>265</ele>
        <time>2018-10-06T10:04:08Z</time>
      </trkpt>
      <trkpt lat="45.97826" lon="4.7981">
        <ele>265</ele>
        <time>2018-10-06T10:04:09Z</time>
      </trkpt>
      <trkpt lat="45.97821" lon="4.79809">
        <ele>265</ele>
        <time>2018-10-06T10:04:10Z</time>
      </trkpt>
      <trkpt lat="45.97816" lon="4.7981">
        <ele>266</ele>
        <time>2018-10-06T10:04:11Z</time>
      </trkpt>
      <trkpt lat="45.97811" lon="4.79811">
        <ele>270</ele>
        <time>2018-10-06T10:04:12Z</time>
      </trkpt>
      <trkpt lat="45.97806" lon="4.79812">
        <ele>269</ele>
        <time>2018-10-06T10:04:13Z</time>
      </trkpt>
      <trkpt lat="45.978" lon="4.79814">
        <ele>269</ele>
        <time>2018-10-06T10:04:14Z</time>
      </trkpt>
      <trkpt lat="45.97796" lon="4.79816">
        <ele>267</ele>
        <time>2018-10-06T10:04:15Z</time>
      </trkpt>
      <trkpt lat="45.97792" lon="4.7982">
        <ele>265</ele>
        <time>2018-10-06T10:04:16Z</time>
      </trkpt>
      <trkpt lat="45.97787" lon="4.79821">
        <ele>265</ele>
        <time>2018-10-06T10:04:17Z</time>
      </trkpt>
      <trkpt lat="45.97782" lon="4.79821">
        <ele>263</ele>
        <time>2018-10-06T10:04:18Z</time>
      </trkpt>
      <trkpt lat="45.97777" lon="4.79823">
        <ele>261</ele>
        <time>2018-10-06T10:04:19Z</time>
      </trkpt>
      <trkpt lat="45.97772" lon="4.79825">
        <ele>261</ele>
        <time>2018-10-06T10:04:20Z</time>
      </trkpt>
      <trkpt lat="45.97766" lon="4.79827">
        <ele>261</ele>
        <time>2018-10-06T10:04:21Z</time>
      </trkpt>
      <trkpt lat="45.97761" lon="4.79828">
        <ele>262</ele>
        <time>2018-10-06T10:04:22Z</time>
      </trkpt>
      <trkpt lat="45.97757" lon="4.79827">
        <ele>262</ele>
        <time>2018-10-06T10:04:23Z</time>
      </trkpt>
      <trkpt lat="45.97752" lon="4.79829">
        <ele>262</ele>
        <time>2018-10-06T10:04:24Z</time>
      </trkpt>
      <trkpt lat="45.97744" lon="4.79831">
        <ele>262</ele>
        <time>2018-10-06T10:04:26Z</time>
      </trkpt>
      <trkpt lat="45.9774" lon="4.79831">
        <ele>260</ele>
        <time>2018-10-06T10:04:27Z</time>
      </trkpt>
      <trkpt lat="45.97736" lon="4.79831">
        <ele>261</ele>
        <time>2018-10-06T10:04:28Z</time>
      </trkpt>
      <trkpt lat="45.9773" lon="4.7983">
        <ele>262</ele>
        <time>2018-10-06T10:04:29Z</time>
      </trkpt>
      <trkpt lat="45.97725" lon="4.79832">
        <ele>262</ele>
        <time>2018-10-06T10:04:30Z</time>
      </trkpt>
      <trkpt lat="45.97721" lon="4.79833">
        <ele>262</ele>
        <time>2018-10-06T10:04:31Z</time>
      </trkpt>
      <trkpt lat="45.97717" lon="4.79834">
        <ele>262</ele>
        <time>2018-10-06T10:04:33Z</time>
      </trkpt>
      <trkpt lat="45.97708" lon="4.79832">
        <ele>265</ele>
        <time>2018-10-06T10:04:34Z</time>
      </trkpt>
      <trkpt lat="45.977" lon="4.79833">
        <ele>267</ele>
        <time>2018-10-06T10:04:36Z</time>
      </trkpt>
      <trkpt lat="45.97696" lon="4.79833">
        <ele>266</ele>
        <time>2018-10-06T10:04:37Z</time>
      </trkpt>
      <trkpt lat="45.97689" lon="4.79836">
        <ele>264</ele>
        <time>2018-10-06T10:04:39Z</time>
      </trkpt>
      <trkpt lat="45.97685" lon="4.79835">
        <ele>265</ele>
        <time>2018-10-06T10:04:40Z</time>
      </trkpt>
      <trkpt lat="45.97676" lon="4.79836">
        <ele>264</ele>
        <time>2018-10-06T10:04:42Z</time>
      </trkpt>
      <trkpt lat="45.97672" lon="4.79837">
        <ele>263</ele>
        <time>2018-10-06T10:04:43Z</time>
      </trkpt>
      <trkpt lat="45.97667" lon="4.79839">
        <ele>265</ele>
        <time>2018-10-06T10:04:44Z</time>
      </trkpt>
      <trkpt lat="45.97662" lon="4.79841">
        <ele>265</ele>
        <time>2018-10-06T10:04:45Z</time>
      </trkpt>
      <trkpt lat="45.97654" lon="4.79842">
        <ele>263</ele>
        <time>2018-10-06T10:04:47Z</time>
      </trkpt>
      <trkpt lat="45.9765" lon="4.79842">
        <ele>264</ele>
        <time>2018-10-06T10:04:48Z</time>
      </trkpt>
      <trkpt lat="45.97641" lon="4.79842">
        <ele>262</ele>
        <time>2018-10-06T10:04:50Z</time>
      </trkpt>
      <trkpt lat="45.97637" lon="4.79843">
        <ele>262</ele>
        <time>2018-10-06T10:04:51Z</time>
      </trkpt>
      <trkpt lat="45.97633" lon="4.79847">
        <ele>263</ele>
        <time>2018-10-06T10:04:52Z</time>
      </trkpt>
      <trkpt lat="45.97629" lon="4.79851">
        <ele>263</ele>
        <time>2018-10-06T10:04:53Z</time>
      </trkpt>
      <trkpt lat="45.97621" lon="4.79855">
        <ele>264</ele>
        <time>2018-10-06T10:04:55Z</time>
      </trkpt>
      <trkpt lat="45.97618" lon="4.79857">
        <ele>265</ele>
        <time>2018-10-06T10:04:56Z</time>
      </trkpt>
      <trkpt lat="45.9761" lon="4.79861">
        <ele>263</ele>
        <time>2018-10-06T10:04:58Z</time>
      </trkpt>
      <trkpt lat="45.97605" lon="4.79863">
        <ele>264</ele>
        <time>2018-10-06T10:04:59Z</time>
      </trkpt>
      <trkpt lat="45.97601" lon="4.79864">
        <ele>264</ele>
        <time>2018-10-06T10:05:00Z</time>
      </trkpt>
      <trkpt lat="45.97597" lon="4.79867">
        <ele>264</ele>
        <time>2018-10-06T10:05:01Z</time>
      </trkpt>
      <trkpt lat="45.97592" lon="4.79869">
        <ele>263</ele>
        <time>2018-10-06T10:05:02Z</time>
      </trkpt>
      <trkpt lat="45.97587" lon="4.79872">
        <ele>263</ele>
        <time>2018-10-06T10:05:03Z</time>
      </trkpt>
      <trkpt lat="45.97583" lon="4.79874">
        <ele>261</ele>
        <time>2018-10-06T10:05:04Z</time>
      </trkpt>
      <trkpt lat="45.97577" lon="4.79876">
        <ele>260</ele>
        <time>2018-10-06T10:05:05Z</time>
      </trkpt>
      <trkpt lat="45.97572" lon="4.79877">
        <ele>258</ele>
        <time>2018-10-06T10:05:06Z</time>
      </trkpt>
      <trkpt lat="45.97566" lon="4.79878">
        <ele>257</ele>
        <time>2018-10-06T10:05:07Z</time>
      </trkpt>
      <trkpt lat="45.97561" lon="4.7988">
        <ele>258</ele>
        <time>2018-10-06T10:05:08Z</time>
      </trkpt>
      <trkpt lat="45.97557" lon="4.79882">
        <ele>255</ele>
        <time>2018-10-06T10:05:09Z</time>
      </trkpt>
      <trkpt lat="45.97551" lon="4.79883">
        <ele>256</ele>
        <time>2018-10-06T10:05:10Z</time>
      </trkpt>
      <trkpt lat="45.97546" lon="4.79885">
        <ele>254</ele>
        <time>2018-10-06T10:05:11Z</time>
      </trkpt>
      <trkpt lat="45.9754" lon="4.79887">
        <ele>254</ele>
        <time>2018-10-06T10:05:12Z</time>
      </trkpt>
      <trkpt lat="45.97534" lon="4.79891">
        <ele>253</ele>
        <time>2018-10-06T10:05:13Z</time>
      </trkpt>
      <trkpt lat="45.97528" lon="4.79891">
        <ele>253</ele>
        <time>2018-10-06T10:05:14Z</time>
      </trkpt>
      <trkpt lat="45.97521" lon="4.79891">
        <ele>253</ele>
        <time>2018-10-06T10:05:15Z</time>
      </trkpt>
      <trkpt lat="45.97515" lon="4.79891">
        <ele>253</ele>
        <time>2018-10-06T10:05:16Z</time>
      </trkpt>
      <trkpt lat="45.97508" lon="4.79892">
        <ele>251</ele>
        <time>2018-10-06T10:05:17Z</time>
      </trkpt>
      <trkpt lat="45.975" lon="4.79892">
        <ele>250</ele>
        <time>2018-10-06T10:05:18Z</time>
      </trkpt>
      <trkpt lat="45.97493" lon="4.79892">
        <ele>250</ele>
        <time>2018-10-06T10:05:19Z</time>
      </trkpt>
      <trkpt lat="45.97486" lon="4.79893">
        <ele>250</ele>
        <time>2018-10-06T10:05:20Z</time>
      </trkpt>
      <trkpt lat="45.97477" lon="4.79897">
        <ele>260</ele>
        <time>2018-10-06T10:05:21Z</time>
      </trkpt>
      <trkpt lat="45.9747" lon="4.79894">
        <ele>258</ele>
        <time>2018-10-06T10:05:22Z</time>
      </trkpt>
      <trkpt lat="45.97462" lon="4.79893">
        <ele>255</ele>
        <time>2018-10-06T10:05:23Z</time>
      </trkpt>
      <trkpt lat="45.97455" lon="4.79892">
        <ele>253</ele>
        <time>2018-10-06T10:05:24Z</time>
      </trkpt>
      <trkpt lat="45.97447" lon="4.79892">
        <ele>252</ele>
        <time>2018-10-06T10:05:25Z</time>
      </trkpt>
      <trkpt lat="45.9744" lon="4.79891">
        <ele>250</ele>
        <time>2018-10-06T10:05:26Z</time>
      </trkpt>
      <trkpt lat="45.97434" lon="4.79891">
        <ele>247</ele>
        <time>2018-10-06T10:05:27Z</time>
      </trkpt>
      <trkpt lat="45.97427" lon="4.79894">
        <ele>247</ele>
        <time>2018-10-06T10:05:28Z</time>
      </trkpt>
      <trkpt lat="45.9742" lon="4.7991">
        <ele>245</ele>
        <time>2018-10-06T10:05:29Z</time>
      </trkpt>
      <trkpt lat="45.97413" lon="4.79912">
        <ele>244</ele>
        <time>2018-10-06T10:05:30Z</time>
      </trkpt>
      <trkpt lat="45.97406" lon="4.79912">
        <ele>244</ele>
        <time>2018-10-06T10:05:31Z</time>
      </trkpt>
      <trkpt lat="45.97399" lon="4.79913">
        <ele>245</ele>
        <time>2018-10-06T10:05:32Z</time>
      </trkpt>
      <trkpt lat="45.97392" lon="4.79915">
        <ele>245</ele>
        <time>2018-10-06T10:05:33Z</time>
      </trkpt>
      <trkpt lat="45.97385" lon="4.79915">
        <ele>245</ele>
        <time>2018-10-06T10:05:34Z</time>
      </trkpt>
      <trkpt lat="45.97378" lon="4.79916">
        <ele>245</ele>
        <time>2018-10-06T10:05:35Z</time>
      </trkpt>
      <trkpt lat="45.97371" lon="4.79917">
        <ele>245</ele>
        <time>2018-10-06T10:05:36Z</time>
      </trkpt>
      <trkpt lat="45.97363" lon="4.79918">
        <ele>245</ele>
        <time>2018-10-06T10:05:37Z</time>
      </trkpt>
      <trkpt lat="45.97357" lon="4.79915">
        <ele>245</ele>
        <time>2018-10-06T10:05:38Z</time>
      </trkpt>
      <trkpt lat="45.97349" lon="4.79914">
        <ele>246</ele>
        <time>2018-10-06T10:05:39Z</time>
      </trkpt>
      <trkpt lat="45.97342" lon="4.79917">
        <ele>244</ele>
        <time>2018-10-06T10:05:40Z</time>
      </trkpt>
      <trkpt lat="45.97335" lon="4.79918">
        <ele>244</ele>
        <time>2018-10-06T10:05:41Z</time>
      </trkpt>
      <trkpt lat="45.97324" lon="4.79912">
        <ele>252</ele>
        <time>2018-10-06T10:05:42Z</time>
      </trkpt>
      <trkpt lat="45.97318" lon="4.79911">
        <ele>253</ele>
        <time>2018-10-06T10:05:43Z</time>
      </trkpt>
      <trkpt lat="45.97311" lon="4.79913">
        <ele>253</ele>
        <time>2018-10-06T10:05:44Z</time>
      </trkpt>
      <trkpt lat="45.97305" lon="4.79916">
        <ele>254</ele>
        <time>2018-10-06T10:05:45Z</time>
      </trkpt>
      <trkpt lat="45.97299" lon="4.79917">
        <ele>255</ele>
        <time>2018-10-06T10:05:46Z</time>
      </trkpt>
      <trkpt lat="45.97293" lon="4.79918">
        <ele>253</ele>
        <time>2018-10-06T10:05:47Z</time>
      </trkpt>
      <trkpt lat="45.97286" lon="4.79919">
        <ele>253</ele>
        <time>2018-10-06T10:05:48Z</time>
      </trkpt>
      <trkpt lat="45.9728" lon="4.7992">
        <ele>252</ele>
        <time>2018-10-06T10:05:49Z</time>
      </trkpt>
      <trkpt lat="45.97274" lon="4.79921">
        <ele>252</ele>
        <time>2018-10-06T10:05:50Z</time>
      </trkpt>
      <trkpt lat="45.97268" lon="4.79922">
        <ele>251</ele>
        <time>2018-10-06T10:05:51Z</time>
      </trkpt>
      <trkpt lat="45.97261" lon="4.79923">
        <ele>251</ele>
        <time>2018-10-06T10:05:52Z</time>
      </trkpt>
      <trkpt lat="45.97253" lon="4.7992">
        <ele>266</ele>
        <time>2018-10-06T10:05:54Z</time>
      </trkpt>
      <trkpt lat="45.97249" lon="4.79916">
        <ele>264</ele>
        <time>2018-10-06T10:05:55Z</time>
      </trkpt>
      <trkpt lat="45.97248" lon="4.79909">
        <ele>265</ele>
        <time>2018-10-06T10:05:56Z</time>
      </trkpt>
      <trkpt lat="45.97246" lon="4.79903">
        <ele>263</ele>
        <time>2018-10-06T10:05:57Z</time>
      </trkpt>
      <trkpt lat="45.97245" lon="4.79897">
        <ele>262</ele>
        <time>2018-10-06T10:05:58Z</time>
      </trkpt>
      <trkpt lat="45.97243" lon="4.7989">
        <ele>262</ele>
        <time>2018-10-06T10:05:59Z</time>
      </trkpt>
      <trkpt lat="45.97241" lon="4.79883">
        <ele>262</ele>
        <time>2018-10-06T10:06:00Z</time>
      </trkpt>
      <trkpt lat="45.9724" lon="4.79877">
        <ele>261</ele>
        <time>2018-10-06T10:06:01Z</time>
      </trkpt>
      <trkpt lat="45.97239" lon="4.79874">
        <ele>264</ele>
        <time>2018-10-06T10:06:02Z</time>
      </trkpt>
      <trkpt lat="45.97236" lon="4.79864">
        <ele>263</ele>
        <time>2018-10-06T10:06:03Z</time>
      </trkpt>
      <trkpt lat="45.97234" lon="4.79853">
        <ele>262</ele>
        <time>2018-10-06T10:06:04Z</time>
      </trkpt>
      <trkpt lat="45.97233" lon="4.79843">
        <ele>262</ele>
        <time>2018-10-06T10:06:05Z</time>
      </trkpt>
      <trkpt lat="45.97234" lon="4.79834">
        <ele>263</ele>
        <time>2018-10-06T10:06:06Z</time>
      </trkpt>
      <trkpt lat="45.97235" lon="4.79826">
        <ele>273</ele>
        <time>2018-10-06T10:06:07Z</time>
      </trkpt>
      <trkpt lat="45.97235" lon="4.79813">
        <ele>271</ele>
        <time>2018-10-06T10:06:09Z</time>
      </trkpt>
      <trkpt lat="45.97237" lon="4.79809">
        <ele>271</ele>
        <time>2018-10-06T10:06:10Z</time>
      </trkpt>
      <trkpt lat="45.97237" lon="4.79801">
        <ele>270</ele>
        <time>2018-10-06T10:06:11Z</time>
      </trkpt>
      <trkpt lat="45.97237" lon="4.79793">
        <ele>271</ele>
        <time>2018-10-06T10:06:12Z</time>
      </trkpt>
      <trkpt lat="45.97237" lon="4.79784">
        <ele>271</ele>
        <time>2018-10-06T10:06:13Z</time>
      </trkpt>
      <trkpt lat="45.97237" lon="4.79778">
        <ele>270</ele>
        <time>2018-10-06T10:06:14Z</time>
      </trkpt>
      <trkpt lat="45.97238" lon="4.79772">
        <ele>272</ele>
        <time>2018-10-06T10:06:15Z</time>
      </trkpt>
      <trkpt lat="45.97239" lon="4.79765">
        <ele>272</ele>
        <time>2018-10-06T10:06:16Z</time>
      </trkpt>
      <trkpt lat="45.97241" lon="4.79752">
        <ele>272</ele>
        <time>2018-10-06T10:06:18Z</time>
      </trkpt>
      <trkpt lat="45.97242" lon="4.79744">
        <ele>272</ele>
        <time>2018-10-06T10:06:19Z</time>
      </trkpt>
      <trkpt lat="45.97243" lon="4.79735">
        <ele>269</ele>
        <time>2018-10-06T10:06:20Z</time>
      </trkpt>
      <trkpt lat="45.97244" lon="4.79726">
        <ele>268</ele>
        <time>2018-10-06T10:06:21Z</time>
      </trkpt>
      <trkpt lat="45.97247" lon="4.79717">
        <ele>267</ele>
        <time>2018-10-06T10:06:22Z</time>
      </trkpt>
      <trkpt lat="45.97249" lon="4.7971">
        <ele>266</ele>
        <time>2018-10-06T10:06:23Z</time>
      </trkpt>
      <trkpt lat="45.9725" lon="4.79703">
        <ele>267</ele>
        <time>2018-10-06T10:06:24Z</time>
      </trkpt>
      <trkpt lat="45.97251" lon="4.79697">
        <ele>268</ele>
        <time>2018-10-06T10:06:25Z</time>
      </trkpt>
      <trkpt lat="45.97252" lon="4.79691">
        <ele>271</ele>
        <time>2018-10-06T10:06:26Z</time>
      </trkpt>
      <trkpt lat="45.97253" lon="4.79684">
        <ele>272</ele>
        <time>2018-10-06T10:06:27Z</time>
      </trkpt>
      <trkpt lat="45.97254" lon="4.79675">
        <ele>274</ele>
        <time>2018-10-06T10:06:28Z</time>
      </trkpt>
      <trkpt lat="45.97255" lon="4.79664">
        <ele>271</ele>
        <time>2018-10-06T10:06:29Z</time>
      </trkpt>
      <trkpt lat="45.97255" lon="4.79655">
        <ele>271</ele>
        <time>2018-10-06T10:06:30Z</time>
      </trkpt>
      <trkpt lat="45.97254" lon="4.79646">
        <ele>271</ele>
        <time>2018-10-06T10:06:31Z</time>
      </trkpt>
      <trkpt lat="45.97254" lon="4.79638">
        <ele>271</ele>
        <time>2018-10-06T10:06:32Z</time>
      </trkpt>
      <trkpt lat="45.97255" lon="4.79631">
        <ele>271</ele>
        <time>2018-10-06T10:06:33Z</time>
      </trkpt>
      <trkpt lat="45.97254" lon="4.79626">
        <ele>272</ele>
        <time>2018-10-06T10:06:34Z</time>
      </trkpt>
      <trkpt lat="45.97254" lon="4.79617">
        <ele>271</ele>
        <time>2018-10-06T10:06:35Z</time>
      </trkpt>
      <trkpt lat="45.97254" lon="4.79609">
        <ele>271</ele>
        <time>2018-10-06T10:06:36Z</time>
      </trkpt>
      <trkpt lat="45.97254" lon="4.79603">
        <ele>270</ele>
        <time>2018-10-06T10:06:37Z</time>
      </trkpt>
      <trkpt lat="45.97253" lon="4.79595">
        <ele>269</ele>
        <time>2018-10-06T10:06:38Z</time>
      </trkpt>
      <trkpt lat="45.97253" lon="4.79587">
        <ele>269</ele>
        <time>2018-10-06T10:06:39Z</time>
      </trkpt>
      <trkpt lat="45.97252" lon="4.79581">
        <ele>268</ele>
        <time>2018-10-06T10:06:40Z</time>
      </trkpt>
      <trkpt lat="45.97252" lon="4.79574">
        <ele>269</ele>
        <time>2018-10-06T10:06:41Z</time>
      </trkpt>
      <trkpt lat="45.97251" lon="4.79567">
        <ele>269</ele>
        <time>2018-10-06T10:06:42Z</time>
      </trkpt>
      <trkpt lat="45.9725" lon="4.79561">
        <ele>269</ele>
        <time>2018-10-06T10:06:43Z</time>
      </trkpt>
      <trkpt lat="45.97249" lon="4.79553">
        <ele>269</ele>
        <time>2018-10-06T10:06:44Z</time>
      </trkpt>
      <trkpt lat="45.97248" lon="4.79545">
        <ele>275</ele>
        <time>2018-10-06T10:06:45Z</time>
      </trkpt>
      <trkpt lat="45.97247" lon="4.79538">
        <ele>274</ele>
        <time>2018-10-06T10:06:46Z</time>
      </trkpt>
      <trkpt lat="45.97245" lon="4.79531">
        <ele>273</ele>
        <time>2018-10-06T10:06:47Z</time>
      </trkpt>
      <trkpt lat="45.97244" lon="4.79524">
        <ele>272</ele>
        <time>2018-10-06T10:06:48Z</time>
      </trkpt>
      <trkpt lat="45.97243" lon="4.79516">
        <ele>272</ele>
        <time>2018-10-06T10:06:49Z</time>
      </trkpt>
      <trkpt lat="45.97241" lon="4.79509">
        <ele>271</ele>
        <time>2018-10-06T10:06:50Z</time>
      </trkpt>
      <trkpt lat="45.97241" lon="4.795">
        <ele>270</ele>
        <time>2018-10-06T10:06:51Z</time>
      </trkpt>
      <trkpt lat="45.97239" lon="4.79492">
        <ele>270</ele>
        <time>2018-10-06T10:06:52Z</time>
      </trkpt>
      <trkpt lat="45.97239" lon="4.79484">
        <ele>270</ele>
        <time>2018-10-06T10:06:53Z</time>
      </trkpt>
      <trkpt lat="45.97236" lon="4.79477">
        <ele>269</ele>
        <time>2018-10-06T10:06:54Z</time>
      </trkpt>
      <trkpt lat="45.97234" lon="4.79469">
        <ele>268</ele>
        <time>2018-10-06T10:06:55Z</time>
      </trkpt>
      <trkpt lat="45.97231" lon="4.79462">
        <ele>268</ele>
        <time>2018-10-06T10:06:56Z</time>
      </trkpt>
      <trkpt lat="45.97229" lon="4.79456">
        <ele>269</ele>
        <time>2018-10-06T10:06:57Z</time>
      </trkpt>
      <trkpt lat="45.97226" lon="4.7945">
        <ele>267</ele>
        <time>2018-10-06T10:06:58Z</time>
      </trkpt>
      <trkpt lat="45.97224" lon="4.79443">
        <ele>266</ele>
        <time>2018-10-06T10:06:59Z</time>
      </trkpt>
      <trkpt lat="45.97221" lon="4.79435">
        <ele>266</ele>
        <time>2018-10-06T10:07:00Z</time>
      </trkpt>
      <trkpt lat="45.97217" lon="4.79428">
        <ele>266</ele>
        <time>2018-10-06T10:07:01Z</time>
      </trkpt>
      <trkpt lat="45.97214" lon="4.79421">
        <ele>266</ele>
        <time>2018-10-06T10:07:02Z</time>
      </trkpt>
      <trkpt lat="45.97212" lon="4.79413">
        <ele>268</ele>
        <time>2018-10-06T10:07:03Z</time>
      </trkpt>
      <trkpt lat="45.9721" lon="4.79406">
        <ele>269</ele>
        <time>2018-10-06T10:07:04Z</time>
      </trkpt>
      <trkpt lat="45.97206" lon="4.794">
        <ele>268</ele>
        <time>2018-10-06T10:07:05Z</time>
      </trkpt>
      <trkpt lat="45.97204" lon="4.79393">
        <ele>267</ele>
        <time>2018-10-06T10:07:06Z</time>
      </trkpt>
      <trkpt lat="45.97202" lon="4.79387">
        <ele>268</ele>
        <time>2018-10-06T10:07:07Z</time>
      </trkpt>
      <trkpt lat="45.972" lon="4.79381">
        <ele>268</ele>
        <time>2018-10-06T10:07:08Z</time>
      </trkpt>
      <trkpt lat="45.97197" lon="4.79375">
        <ele>266</ele>
        <time>2018-10-06T10:07:09Z</time>
      </trkpt>
      <trkpt lat="45.97195" lon="4.79368">
        <ele>268</ele>
        <time>2018-10-06T10:07:10Z</time>
      </trkpt>
      <trkpt lat="45.97194" lon="4.79362">
        <ele>272</ele>
        <time>2018-10-06T10:07:11Z</time>
      </trkpt>
      <trkpt lat="45.97191" lon="4.79356">
        <ele>274</ele>
        <time>2018-10-06T10:07:12Z</time>
      </trkpt>
      <trkpt lat="45.97188" lon="4.7935">
        <ele>275</ele>
        <time>2018-10-06T10:07:13Z</time>
      </trkpt>
      <trkpt lat="45.97186" lon="4.79344">
        <ele>275</ele>
        <time>2018-10-06T10:07:14Z</time>
      </trkpt>
      <trkpt lat="45.97183" lon="4.79335">
        <ele>271</ele>
        <time>2018-10-06T10:07:15Z</time>
      </trkpt>
      <trkpt lat="45.9718" lon="4.79327">
        <ele>271</ele>
        <time>2018-10-06T10:07:16Z</time>
      </trkpt>
      <trkpt lat="45.97177" lon="4.79321">
        <ele>272</ele>
        <time>2018-10-06T10:07:17Z</time>
      </trkpt>
      <trkpt lat="45.97173" lon="4.79313">
        <ele>271</ele>
        <time>2018-10-06T10:07:18Z</time>
      </trkpt>
      <trkpt lat="45.97171" lon="4.79305">
        <ele>271</ele>
        <time>2018-10-06T10:07:19Z</time>
      </trkpt>
      <trkpt lat="45.97166" lon="4.79298">
        <ele>275</ele>
        <time>2018-10-06T10:07:20Z</time>
      </trkpt>
      <trkpt lat="45.97161" lon="4.79291">
        <ele>279</ele>
        <time>2018-10-06T10:07:21Z</time>
      </trkpt>
      <trkpt lat="45.97159" lon="4.79283">
        <ele>277</ele>
        <time>2018-10-06T10:07:22Z</time>
      </trkpt>
      <trkpt lat="45.97157" lon="4.79275">
        <ele>274</ele>
        <time>2018-10-06T10:07:23Z</time>
      </trkpt>
      <trkpt lat="45.97153" lon="4.79269">
        <ele>272</ele>
        <time>2018-10-06T10:07:24Z</time>
      </trkpt>
      <trkpt lat="45.9715" lon="4.79263">
        <ele>271</ele>
        <time>2018-10-06T10:07:25Z</time>
      </trkpt>
      <trkpt lat="45.97147" lon="4.79257">
        <ele>270</ele>
        <time>2018-10-06T10:07:26Z</time>
      </trkpt>
      <trkpt lat="45.97145" lon="4.7925">
        <ele>270</ele>
        <time>2018-10-06T10:07:27Z</time>
      </trkpt>
      <trkpt lat="45.97142" lon="4.79243">
        <ele>279</ele>
        <time>2018-10-06T10:07:28Z</time>
      </trkpt>
      <trkpt lat="45.97138" lon="4.79236">
        <ele>276</ele>
        <time>2018-10-06T10:07:29Z</time>
      </trkpt>
      <trkpt lat="45.97135" lon="4.79229">
        <ele>273</ele>
        <time>2018-10-06T10:07:30Z</time>
      </trkpt>
      <trkpt lat="45.97133" lon="4.79221">
        <ele>270</ele>
        <time>2018-10-06T10:07:31Z</time>
      </trkpt>
      <trkpt lat="45.97131" lon="4.79214">
        <ele>268</ele>
        <time>2018-10-06T10:07:32Z</time>
      </trkpt>
      <trkpt lat="45.97128" lon="4.79206">
        <ele>266</ele>
        <time>2018-10-06T10:07:33Z</time>
      </trkpt>
      <trkpt lat="45.97126" lon="4.79199">
        <ele>265</ele>
        <time>2018-10-06T10:07:34Z</time>
      </trkpt>
      <trkpt lat="45.97123" lon="4.79191">
        <ele>264</ele>
        <time>2018-10-06T10:07:35Z</time>
      </trkpt>
      <trkpt lat="45.97121" lon="4.79183">
        <ele>262</ele>
        <time>2018-10-06T10:07:36Z</time>
      </trkpt>
      <trkpt lat="45.97118" lon="4.79176">
        <ele>260</ele>
        <time>2018-10-06T10:07:37Z</time>
      </trkpt>
      <trkpt lat="45.97114" lon="4.79171">
        <ele>256</ele>
        <time>2018-10-06T10:07:38Z</time>
      </trkpt>
      <trkpt lat="45.9711" lon="4.79166">
        <ele>268</ele>
        <time>2018-10-06T10:07:39Z</time>
      </trkpt>
      <trkpt lat="45.97107" lon="4.7916">
        <ele>281</ele>
        <time>2018-10-06T10:07:40Z</time>
      </trkpt>
      <trkpt lat="45.97105" lon="4.79153">
        <ele>275</ele>
        <time>2018-10-06T10:07:41Z</time>
      </trkpt>
      <trkpt lat="45.97101" lon="4.79147">
        <ele>272</ele>
        <time>2018-10-06T10:07:42Z</time>
      </trkpt>
      <trkpt lat="45.97098" lon="4.79141">
        <ele>269</ele>
        <time>2018-10-06T10:07:43Z</time>
      </trkpt>
      <trkpt lat="45.97095" lon="4.79136">
        <ele>266</ele>
        <time>2018-10-06T10:07:44Z</time>
      </trkpt>
      <trkpt lat="45.97092" lon="4.79131">
        <ele>264</ele>
        <time>2018-10-06T10:07:45Z</time>
      </trkpt>
      <trkpt lat="45.97089" lon="4.79127">
        <ele>262</ele>
        <time>2018-10-06T10:07:46Z</time>
      </trkpt>
      <trkpt lat="45.97084" lon="4.79121">
        <ele>260</ele>
        <time>2018-10-06T10:07:47Z</time>
      </trkpt>
      <trkpt lat="45.97083" lon="4.79114">
        <ele>260</ele>
        <time>2018-10-06T10:07:48Z</time>
      </trkpt>
      <trkpt lat="45.97081" lon="4.79106">
        <ele>259</ele>
        <time>2018-10-06T10:07:49Z</time>
      </trkpt>
      <trkpt lat="45.97079" lon="4.79099">
        <ele>258</ele>
        <time>2018-10-06T10:07:50Z</time>
      </trkpt>
      <trkpt lat="45.97074" lon="4.79091">
        <ele>253</ele>
        <time>2018-10-06T10:07:51Z</time>
      </trkpt>
      <trkpt lat="45.97072" lon="4.79086">
        <ele>251</ele>
        <time>2018-10-06T10:07:52Z</time>
      </trkpt>
      <trkpt lat="45.97071" lon="4.79079">
        <ele>251</ele>
        <time>2018-10-06T10:07:53Z</time>
      </trkpt>
      <trkpt lat="45.97071" lon="4.79067">
        <ele>250</ele>
        <time>2018-10-06T10:07:55Z</time>
      </trkpt>
      <trkpt lat="45.97072" lon="4.79062">
        <ele>249</ele>
        <time>2018-10-06T10:07:56Z</time>
      </trkpt>
      <trkpt lat="45.97069" lon="4.79051">
        <ele>274</ele>
        <time>2018-10-06T10:07:58Z</time>
      </trkpt>
      <trkpt lat="45.97067" lon="4.79044">
        <ele>269</ele>
        <time>2018-10-06T10:07:59Z</time>
      </trkpt>
      <trkpt lat="45.97063" lon="4.79032">
        <ele>274</ele>
        <time>2018-10-06T10:08:01Z</time>
      </trkpt>
      <trkpt lat="45.97063" lon="4.79027">
        <ele>269</ele>
        <time>2018-10-06T10:08:02Z</time>
      </trkpt>
      <trkpt lat="45.97059" lon="4.79016">
        <ele>263</ele>
        <time>2018-10-06T10:08:04Z</time>
      </trkpt>
      <trkpt lat="45.97057" lon="4.79011">
        <ele>280</ele>
        <time>2018-10-06T10:08:05Z</time>
      </trkpt>
      <trkpt lat="45.97055" lon="4.79006">
        <ele>275</ele>
        <time>2018-10-06T10:08:06Z</time>
      </trkpt>
      <trkpt lat="45.97052" lon="4.78999">
        <ele>269</ele>
        <time>2018-10-06T10:08:07Z</time>
      </trkpt>
      <trkpt lat="45.9705" lon="4.78992">
        <ele>264</ele>
        <time>2018-10-06T10:08:08Z</time>
      </trkpt>
      <trkpt lat="45.97048" lon="4.78986">
        <ele>261</ele>
        <time>2018-10-06T10:08:09Z</time>
      </trkpt>
      <trkpt lat="45.97044" lon="4.78979">
        <ele>259</ele>
        <time>2018-10-06T10:08:10Z</time>
      </trkpt>
      <trkpt lat="45.97042" lon="4.78973">
        <ele>257</ele>
        <time>2018-10-06T10:08:11Z</time>
      </trkpt>
      <trkpt lat="45.97039" lon="4.78966">
        <ele>256</ele>
        <time>2018-10-06T10:08:12Z</time>
      </trkpt>
      <trkpt lat="45.97036" lon="4.78959">
        <ele>255</ele>
        <time>2018-10-06T10:08:13Z</time>
      </trkpt>
      <trkpt lat="45.97032" lon="4.78954">
        <ele>254</ele>
        <time>2018-10-06T10:08:14Z</time>
      </trkpt>
      <trkpt lat="45.97029" lon="4.78948">
        <ele>255</ele>
        <time>2018-10-06T10:08:15Z</time>
      </trkpt>
      <trkpt lat="45.97026" lon="4.78942">
        <ele>255</ele>
        <time>2018-10-06T10:08:16Z</time>
      </trkpt>
      <trkpt lat="45.97022" lon="4.78938">
        <ele>255</ele>
        <time>2018-10-06T10:08:17Z</time>
      </trkpt>
      <trkpt lat="45.97018" lon="4.78932">
        <ele>255</ele>
        <time>2018-10-06T10:08:18Z</time>
      </trkpt>
      <trkpt lat="45.97014" lon="4.78928">
        <ele>255</ele>
        <time>2018-10-06T10:08:19Z</time>
      </trkpt>
      <trkpt lat="45.97011" lon="4.78922">
        <ele>255</ele>
        <time>2018-10-06T10:08:20Z</time>
      </trkpt>
      <trkpt lat="45.97005" lon="4.78919">
        <ele>256</ele>
        <time>2018-10-06T10:08:21Z</time>
      </trkpt>
      <trkpt lat="45.97001" lon="4.78915">
        <ele>255</ele>
        <time>2018-10-06T10:08:22Z</time>
      </trkpt>
      <trkpt lat="45.96997" lon="4.7891">
        <ele>255</ele>
        <time>2018-10-06T10:08:23Z</time>
      </trkpt>
      <trkpt lat="45.96992" lon="4.78905">
        <ele>254</ele>
        <time>2018-10-06T10:08:24Z</time>
      </trkpt>
      <trkpt lat="45.96988" lon="4.78899">
        <ele>253</ele>
        <time>2018-10-06T10:08:25Z</time>
      </trkpt>
      <trkpt lat="45.96984" lon="4.78893">
        <ele>252</ele>
        <time>2018-10-06T10:08:26Z</time>
      </trkpt>
      <trkpt lat="45.9698" lon="4.78887">
        <ele>252</ele>
        <time>2018-10-06T10:08:27Z</time>
      </trkpt>
      <trkpt lat="45.96977" lon="4.78884">
        <ele>251</ele>
        <time>2018-10-06T10:08:28Z</time>
      </trkpt>
      <trkpt lat="45.96973" lon="4.78878">
        <ele>248</ele>
        <time>2018-10-06T10:08:29Z</time>
      </trkpt>
      <trkpt lat="45.96969" lon="4.78873">
        <ele>248</ele>
        <time>2018-10-06T10:08:30Z</time>
      </trkpt>
      <trkpt lat="45.96965" lon="4.78869">
        <ele>248</ele>
        <time>2018-10-06T10:08:31Z</time>
      </trkpt>
      <trkpt lat="45.96961" lon="4.78864">
        <ele>248</ele>
        <time>2018-10-06T10:08:32Z</time>
      </trkpt>
      <trkpt lat="45.96957" lon="4.78859">
        <ele>248</ele>
        <time>2018-10-06T10:08:33Z</time>
      </trkpt>
      <trkpt lat="45.96953" lon="4.78855">
        <ele>246</ele>
        <time>2018-10-06T10:08:34Z</time>
      </trkpt>
      <trkpt lat="45.96949" lon="4.78851">
        <ele>246</ele>
        <time>2018-10-06T10:08:35Z</time>
      </trkpt>
      <trkpt lat="45.96945" lon="4.78846">
        <ele>246</ele>
        <time>2018-10-06T10:08:36Z</time>
      </trkpt>
      <trkpt lat="45.96941" lon="4.78841">
        <ele>246</ele>
        <time>2018-10-06T10:08:37Z</time>
      </trkpt>
      <trkpt lat="45.96938" lon="4.78836">
        <ele>246</ele>
        <time>2018-10-06T10:08:38Z</time>
      </trkpt>
      <trkpt lat="45.96934" lon="4.7883">
        <ele>245</ele>
        <time>2018-10-06T10:08:39Z</time>
      </trkpt>
      <trkpt lat="45.9693" lon="4.78823">
        <ele>245</ele>
        <time>2018-10-06T10:08:40Z</time>
      </trkpt>
      <trkpt lat="45.96926" lon="4.78815">
        <ele>245</ele>
        <time>2018-10-06T10:08:41Z</time>
      </trkpt>
      <trkpt lat="45.96921" lon="4.7881">
        <ele>245</ele>
        <time>2018-10-06T10:08:42Z</time>
      </trkpt>
      <trkpt lat="45.96917" lon="4.78804">
        <ele>245</ele>
        <time>2018-10-06T10:08:43Z</time>
      </trkpt>
      <trkpt lat="45.96909" lon="4.78801">
        <ele>242</ele>
        <time>2018-10-06T10:08:44Z</time>
      </trkpt>
      <trkpt lat="45.96903" lon="4.78795">
        <ele>242</ele>
        <time>2018-10-06T10:08:45Z</time>
      </trkpt>
      <trkpt lat="45.96899" lon="4.78786">
        <ele>270</ele>
        <time>2018-10-06T10:08:46Z</time>
      </trkpt>
      <trkpt lat="45.96895" lon="4.78778">
        <ele>263</ele>
        <time>2018-10-06T10:08:47Z</time>
      </trkpt>
      <trkpt lat="45.96891" lon="4.7877">
        <ele>263</ele>
        <time>2018-10-06T10:08:48Z</time>
      </trkpt>
      <trkpt lat="45.96888" lon="4.78763">
        <ele>264</ele>
        <time>2018-10-06T10:08:49Z</time>
      </trkpt>
      <trkpt lat="45.96885" lon="4.78756">
        <ele>267</ele>
        <time>2018-10-06T10:08:50Z</time>
      </trkpt>
      <trkpt lat="45.96881" lon="4.7875">
        <ele>266</ele>
        <time>2018-10-06T10:08:51Z</time>
      </trkpt>
      <trkpt lat="45.96878" lon="4.78744">
        <ele>265</ele>
        <time>2018-10-06T10:08:52Z</time>
      </trkpt>
      <trkpt lat="45.96873" lon="4.7874">
        <ele>264</ele>
        <time>2018-10-06T10:08:53Z</time>
      </trkpt>
      <trkpt lat="45.9687" lon="4.78732">
        <ele>265</ele>
        <time>2018-10-06T10:08:54Z</time>
      </trkpt>
      <trkpt lat="45.96867" lon="4.78726">
        <ele>259</ele>
        <time>2018-10-06T10:08:55Z</time>
      </trkpt>
      <trkpt lat="45.96864" lon="4.7872">
        <ele>253</ele>
        <time>2018-10-06T10:08:56Z</time>
      </trkpt>
      <trkpt lat="45.96861" lon="4.78714">
        <ele>248</ele>
        <time>2018-10-06T10:08:57Z</time>
      </trkpt>
      <trkpt lat="45.96857" lon="4.78703">
        <ele>273</ele>
        <time>2018-10-06T10:08:59Z</time>
      </trkpt>
      <trkpt lat="45.96854" lon="4.78698">
        <ele>265</ele>
        <time>2018-10-06T10:09:00Z</time>
      </trkpt>
      <trkpt lat="45.96851" lon="4.78693">
        <ele>270</ele>
        <time>2018-10-06T10:09:01Z</time>
      </trkpt>
      <trkpt lat="45.96849" lon="4.78687">
        <ele>269</ele>
        <time>2018-10-06T10:09:02Z</time>
      </trkpt>
      <trkpt lat="45.96844" lon="4.78683">
        <ele>270</ele>
        <time>2018-10-06T10:09:03Z</time>
      </trkpt>
      <trkpt lat="45.96842" lon="4.78678">
        <ele>269</ele>
        <time>2018-10-06T10:09:04Z</time>
      </trkpt>
      <trkpt lat="45.96838" lon="4.78668">
        <ele>272</ele>
        <time>2018-10-06T10:09:06Z</time>
      </trkpt>
      <trkpt lat="45.96835" lon="4.78662">
        <ele>265</ele>
        <time>2018-10-06T10:09:07Z</time>
      </trkpt>
      <trkpt lat="45.9683" lon="4.78651">
        <ele>260</ele>
        <time>2018-10-06T10:09:09Z</time>
      </trkpt>
      <trkpt lat="45.96828" lon="4.78646">
        <ele>257</ele>
        <time>2018-10-06T10:09:10Z</time>
      </trkpt>
      <trkpt lat="45.96825" lon="4.78641">
        <ele>251</ele>
        <time>2018-10-06T10:09:11Z</time>
      </trkpt>
      <trkpt lat="45.96822" lon="4.78635">
        <ele>249</ele>
        <time>2018-10-06T10:09:12Z</time>
      </trkpt>
      <trkpt lat="45.96822" lon="4.78627">
        <ele>250</ele>
        <time>2018-10-06T10:09:13Z</time>
      </trkpt>
      <trkpt lat="45.96822" lon="4.7862">
        <ele>251</ele>
        <time>2018-10-06T10:09:14Z</time>
      </trkpt>
      <trkpt lat="45.96818" lon="4.78611">
        <ele>250</ele>
        <time>2018-10-06T10:09:16Z</time>
      </trkpt>
      <trkpt lat="45.96817" lon="4.78602">
        <ele>251</ele>
        <time>2018-10-06T10:09:17Z</time>
      </trkpt>
      <trkpt lat="45.96815" lon="4.7859">
        <ele>283</ele>
        <time>2018-10-06T10:09:19Z</time>
      </trkpt>
      <trkpt lat="45.96811" lon="4.78584">
        <ele>275</ele>
        <time>2018-10-06T10:09:20Z</time>
      </trkpt>
      <trkpt lat="45.96808" lon="4.78578">
        <ele>268</ele>
        <time>2018-10-06T10:09:21Z</time>
      </trkpt>
      <trkpt lat="45.96805" lon="4.78571">
        <ele>261</ele>
        <time>2018-10-06T10:09:22Z</time>
      </trkpt>
      <trkpt lat="45.96799" lon="4.78563">
        <ele>259</ele>
        <time>2018-10-06T10:09:24Z</time>
      </trkpt>
      <trkpt lat="45.96795" lon="4.78557">
        <ele>255</ele>
        <time>2018-10-06T10:09:25Z</time>
      </trkpt>
      <trkpt lat="45.96793" lon="4.78551">
        <ele>253</ele>
        <time>2018-10-06T10:09:26Z</time>
      </trkpt>
      <trkpt lat="45.96791" lon="4.78544">
        <ele>253</ele>
        <time>2018-10-06T10:09:27Z</time>
      </trkpt>
      <trkpt lat="45.96787" lon="4.78537">
        <ele>269</ele>
        <time>2018-10-06T10:09:28Z</time>
      </trkpt>
      <trkpt lat="45.96784" lon="4.78531">
        <ele>266</ele>
        <time>2018-10-06T10:09:29Z</time>
      </trkpt>
      <trkpt lat="45.96778" lon="4.78524">
        <ele>265</ele>
        <time>2018-10-06T10:09:30Z</time>
      </trkpt>
      <trkpt lat="45.96774" lon="4.78518">
        <ele>263</ele>
        <time>2018-10-06T10:09:31Z</time>
      </trkpt>
      <trkpt lat="45.96767" lon="4.78512">
        <ele>261</ele>
        <time>2018-10-06T10:09:33Z</time>
      </trkpt>
      <trkpt lat="45.96764" lon="4.78508">
        <ele>260</ele>
        <time>2018-10-06T10:09:34Z</time>
      </trkpt>
      <trkpt lat="45.96761" lon="4.78503">
        <ele>260</ele>
        <time>2018-10-06T10:09:35Z</time>
      </trkpt>
      <trkpt lat="45.96757" lon="4.78498">
        <ele>278</ele>
        <time>2018-10-06T10:09:36Z</time>
      </trkpt>
      <trkpt lat="45.96754" lon="4.78492">
        <ele>272</ele>
        <time>2018-10-06T10:09:37Z</time>
      </trkpt>
      <trkpt lat="45.9675" lon="4.78489">
        <ele>268</ele>
        <time>2018-10-06T10:09:38Z</time>
      </trkpt>
      <trkpt lat="45.96742" lon="4.78484">
        <ele>264</ele>
        <time>2018-10-06T10:09:40Z</time>
      </trkpt>
      <trkpt lat="45.96737" lon="4.7848">
        <ele>262</ele>
        <time>2018-10-06T10:09:41Z</time>
      </trkpt>
      <trkpt lat="45.96732" lon="4.78477">
        <ele>261</ele>
        <time>2018-10-06T10:09:42Z</time>
      </trkpt>
      <trkpt lat="45.96729" lon="4.78471">
        <ele>261</ele>
        <time>2018-10-06T10:09:43Z</time>
      </trkpt>
      <trkpt lat="45.96726" lon="4.78466">
        <ele>284</ele>
        <time>2018-10-06T10:09:44Z</time>
      </trkpt>
      <trkpt lat="45.96723" lon="4.78461">
        <ele>278</ele>
        <time>2018-10-06T10:09:45Z</time>
      </trkpt>
      <trkpt lat="45.96719" lon="4.78455">
        <ele>274</ele>
        <time>2018-10-06T10:09:46Z</time>
      </trkpt>
      <trkpt lat="45.96716" lon="4.78449">
        <ele>268</ele>
        <time>2018-10-06T10:09:47Z</time>
      </trkpt>
      <trkpt lat="45.9671" lon="4.78444">
        <ele>268</ele>
        <time>2018-10-06T10:09:48Z</time>
      </trkpt>
      <trkpt lat="45.96705" lon="4.78439">
        <ele>267</ele>
        <time>2018-10-06T10:09:49Z</time>
      </trkpt>
      <trkpt lat="45.96699" lon="4.78432">
        <ele>263</ele>
        <time>2018-10-06T10:09:51Z</time>
      </trkpt>
      <trkpt lat="45.96694" lon="4.78428">
        <ele>261</ele>
        <time>2018-10-06T10:09:52Z</time>
      </trkpt>
      <trkpt lat="45.96687" lon="4.7842">
        <ele>256</ele>
        <time>2018-10-06T10:09:54Z</time>
      </trkpt>
      <trkpt lat="45.96683" lon="4.78416">
        <ele>256</ele>
        <time>2018-10-06T10:09:55Z</time>
      </trkpt>
      <trkpt lat="45.96675" lon="4.7841">
        <ele>255</ele>
        <time>2018-10-06T10:09:57Z</time>
      </trkpt>
      <trkpt lat="45.96671" lon="4.78404">
        <ele>254</ele>
        <time>2018-10-06T10:09:58Z</time>
      </trkpt>
      <trkpt lat="45.96666" lon="4.784">
        <ele>254</ele>
        <time>2018-10-06T10:09:59Z</time>
      </trkpt>
      <trkpt lat="45.96662" lon="4.78396">
        <ele>254</ele>
        <time>2018-10-06T10:10:00Z</time>
      </trkpt>
      <trkpt lat="45.96657" lon="4.78392">
        <ele>254</ele>
        <time>2018-10-06T10:10:01Z</time>
      </trkpt>
      <trkpt lat="45.96654" lon="4.78388">
        <ele>254</ele>
        <time>2018-10-06T10:10:02Z</time>
      </trkpt>
      <trkpt lat="45.9665" lon="4.78383">
        <ele>254</ele>
        <time>2018-10-06T10:10:03Z</time>
      </trkpt>
      <trkpt lat="45.96643" lon="4.78382">
        <ele>277</ele>
        <time>2018-10-06T10:10:04Z</time>
      </trkpt>
      <trkpt lat="45.96637" lon="4.78374">
        <ele>276</ele>
        <time>2018-10-06T10:10:06Z</time>
      </trkpt>
      <trkpt lat="45.96636" lon="4.7837">
        <ele>274</ele>
        <time>2018-10-06T10:10:07Z</time>
      </trkpt>
      <trkpt lat="45.96632" lon="4.78366">
        <ele>286</ele>
        <time>2018-10-06T10:10:08Z</time>
      </trkpt>
      <trkpt lat="45.96627" lon="4.78362">
        <ele>281</ele>
        <time>2018-10-06T10:10:09Z</time>
      </trkpt>
      <trkpt lat="45.96624" lon="4.78357">
        <ele>274</ele>
        <time>2018-10-06T10:10:10Z</time>
      </trkpt>
      <trkpt lat="45.96619" lon="4.78352">
        <ele>266</ele>
        <time>2018-10-06T10:10:11Z</time>
      </trkpt>
      <trkpt lat="45.96615" lon="4.78349">
        <ele>263</ele>
        <time>2018-10-06T10:10:12Z</time>
      </trkpt>
      <trkpt lat="45.9661" lon="4.78344">
        <ele>259</ele>
        <time>2018-10-06T10:10:13Z</time>
      </trkpt>
      <trkpt lat="45.96605" lon="4.7834">
        <ele>257</ele>
        <time>2018-10-06T10:10:14Z</time>
      </trkpt>
      <trkpt lat="45.966" lon="4.78335">
        <ele>275</ele>
        <time>2018-10-06T10:10:15Z</time>
      </trkpt>
      <trkpt lat="45.96595" lon="4.7833">
        <ele>271</ele>
        <time>2018-10-06T10:10:16Z</time>
      </trkpt>
      <trkpt lat="45.96589" lon="4.78326">
        <ele>263</ele>
        <time>2018-10-06T10:10:17Z</time>
      </trkpt>
      <trkpt lat="45.96585" lon="4.78321">
        <ele>260</ele>
        <time>2018-10-06T10:10:18Z</time>
      </trkpt>
      <trkpt lat="45.96581" lon="4.78317">
        <ele>259</ele>
        <time>2018-10-06T10:10:19Z</time>
      </trkpt>
      <trkpt lat="45.96576" lon="4.78312">
        <ele>256</ele>
        <time>2018-10-06T10:10:20Z</time>
      </trkpt>
      <trkpt lat="45.96572" lon="4.78306">
        <ele>254</ele>
        <time>2018-10-06T10:10:21Z</time>
      </trkpt>
      <trkpt lat="45.96569" lon="4.78301">
        <ele>252</ele>
        <time>2018-10-06T10:10:22Z</time>
      </trkpt>
      <trkpt lat="45.96563" lon="4.78297">
        <ele>251</ele>
        <time>2018-10-06T10:10:23Z</time>
      </trkpt>
      <trkpt lat="45.96559" lon="4.78292">
        <ele>251</ele>
        <time>2018-10-06T10:10:24Z</time>
      </trkpt>
      <trkpt lat="45.96555" lon="4.78288">
        <ele>251</ele>
        <time>2018-10-06T10:10:25Z</time>
      </trkpt>
      <trkpt lat="45.96549" lon="4.78283">
        <ele>251</ele>
        <time>2018-10-06T10:10:26Z</time>
      </trkpt>
      <trkpt lat="45.96547" lon="4.78278">
        <ele>251</ele>
        <time>2018-10-06T10:10:27Z</time>
      </trkpt>
      <trkpt lat="45.96541" lon="4.78273">
        <ele>251</ele>
        <time>2018-10-06T10:10:28Z</time>
      </trkpt>
      <trkpt lat="45.96538" lon="4.78267">
        <ele>251</ele>
        <time>2018-10-06T10:10:29Z</time>
      </trkpt>
      <trkpt lat="45.96534" lon="4.78261">
        <ele>252</ele>
        <time>2018-10-06T10:10:30Z</time>
      </trkpt>
      <trkpt lat="45.96532" lon="4.78256">
        <ele>251</ele>
        <time>2018-10-06T10:10:31Z</time>
      </trkpt>
      <trkpt lat="45.96528" lon="4.7825">
        <ele>250</ele>
        <time>2018-10-06T10:10:32Z</time>
      </trkpt>
      <trkpt lat="45.96525" lon="4.78244">
        <ele>250</ele>
        <time>2018-10-06T10:10:33Z</time>
      </trkpt>
      <trkpt lat="45.96521" lon="4.78238">
        <ele>250</ele>
        <time>2018-10-06T10:10:34Z</time>
      </trkpt>
      <trkpt lat="45.96515" lon="4.78233">
        <ele>248</ele>
        <time>2018-10-06T10:10:35Z</time>
      </trkpt>
      <trkpt lat="45.96508" lon="4.78224">
        <ele>247</ele>
        <time>2018-10-06T10:10:37Z</time>
      </trkpt>
      <trkpt lat="45.96505" lon="4.78219">
        <ele>277</ele>
        <time>2018-10-06T10:10:38Z</time>
      </trkpt>
      <trkpt lat="45.965" lon="4.78213">
        <ele>277</ele>
        <time>2018-10-06T10:10:39Z</time>
      </trkpt>
      <trkpt lat="45.96495" lon="4.78208">
        <ele>277</ele>
        <time>2018-10-06T10:10:40Z</time>
      </trkpt>
      <trkpt lat="45.96491" lon="4.78204">
        <ele>272</ele>
        <time>2018-10-06T10:10:41Z</time>
      </trkpt>
      <trkpt lat="45.96485" lon="4.78202">
        <ele>268</ele>
        <time>2018-10-06T10:10:42Z</time>
      </trkpt>
      <trkpt lat="45.96481" lon="4.78199">
        <ele>260</ele>
        <time>2018-10-06T10:10:43Z</time>
      </trkpt>
      <trkpt lat="45.96477" lon="4.78196">
        <ele>257</ele>
        <time>2018-10-06T10:10:44Z</time>
      </trkpt>
      <trkpt lat="45.96471" lon="4.78194">
        <ele>254</ele>
        <time>2018-10-06T10:10:45Z</time>
      </trkpt>
      <trkpt lat="45.96466" lon="4.78191">
        <ele>254</ele>
        <time>2018-10-06T10:10:46Z</time>
      </trkpt>
      <trkpt lat="45.96461" lon="4.78187">
        <ele>253</ele>
        <time>2018-10-06T10:10:47Z</time>
      </trkpt>
      <trkpt lat="45.96456" lon="4.78182">
        <ele>252</ele>
        <time>2018-10-06T10:10:48Z</time>
      </trkpt>
      <trkpt lat="45.96452" lon="4.78179">
        <ele>251</ele>
        <time>2018-10-06T10:10:49Z</time>
      </trkpt>
      <trkpt lat="45.96448" lon="4.78174">
        <ele>251</ele>
        <time>2018-10-06T10:10:50Z</time>
      </trkpt>
      <trkpt lat="45.9644" lon="4.78169">
        <ele>274</ele>
        <time>2018-10-06T10:10:51Z</time>
      </trkpt>
      <trkpt lat="45.96436" lon="4.78165">
        <ele>269</ele>
        <time>2018-10-06T10:10:52Z</time>
      </trkpt>
      <trkpt lat="45.96431" lon="4.78161">
        <ele>265</ele>
        <time>2018-10-06T10:10:53Z</time>
      </trkpt>
      <trkpt lat="45.96428" lon="4.78156">
        <ele>257</ele>
        <time>2018-10-06T10:10:54Z</time>
      </trkpt>
      <trkpt lat="45.96424" lon="4.78152">
        <ele>255</ele>
        <time>2018-10-06T10:10:55Z</time>
      </trkpt>
      <trkpt lat="45.96419" lon="4.78148">
        <ele>253</ele>
        <time>2018-10-06T10:10:56Z</time>
      </trkpt>
      <trkpt lat="45.96413" lon="4.78144">
        <ele>253</ele>
        <time>2018-10-06T10:10:57Z</time>
      </trkpt>
      <trkpt lat="45.96408" lon="4.7814">
        <ele>279</ele>
        <time>2018-10-06T10:10:58Z</time>
      </trkpt>
      <trkpt lat="45.964" lon="4.78136">
        <ele>271</ele>
        <time>2018-10-06T10:10:59Z</time>
      </trkpt>
      <trkpt lat="45.96398" lon="4.78133">
        <ele>266</ele>
        <time>2018-10-06T10:11:00Z</time>
      </trkpt>
      <trkpt lat="45.96394" lon="4.78129">
        <ele>262</ele>
        <time>2018-10-06T10:11:01Z</time>
      </trkpt>
      <trkpt lat="45.9639" lon="4.78125">
        <ele>256</ele>
        <time>2018-10-06T10:11:02Z</time>
      </trkpt>
      <trkpt lat="45.96383" lon="4.78119">
        <ele>251</ele>
        <time>2018-10-06T10:11:04Z</time>
      </trkpt>
      <trkpt lat="45.96382" lon="4.78117">
        <ele>248</ele>
        <time>2018-10-06T10:11:05Z</time>
      </trkpt>
      <trkpt lat="45.96377" lon="4.78109">
        <ele>246</ele>
        <time>2018-10-06T10:11:08Z</time>
      </trkpt>
      <trkpt lat="45.96371" lon="4.78103">
        <ele>246</ele>
        <time>2018-10-06T10:11:09Z</time>
      </trkpt>
      <trkpt lat="45.96364" lon="4.78096">
        <ele>246</ele>
        <time>2018-10-06T10:11:11Z</time>
      </trkpt>
      <trkpt lat="45.9636" lon="4.78091">
        <ele>244</ele>
        <time>2018-10-06T10:11:12Z</time>
      </trkpt>
      <trkpt lat="45.96357" lon="4.78086">
        <ele>245</ele>
        <time>2018-10-06T10:11:13Z</time>
      </trkpt>
      <trkpt lat="45.96353" lon="4.78082">
        <ele>245</ele>
        <time>2018-10-06T10:11:14Z</time>
      </trkpt>
      <trkpt lat="45.9635" lon="4.78078">
        <ele>245</ele>
        <time>2018-10-06T10:11:15Z</time>
      </trkpt>
      <trkpt lat="45.96342" lon="4.78075">
        <ele>242</ele>
        <time>2018-10-06T10:11:16Z</time>
      </trkpt>
      <trkpt lat="45.96336" lon="4.78069">
        <ele>243</ele>
        <time>2018-10-06T10:11:18Z</time>
      </trkpt>
      <trkpt lat="45.96334" lon="4.78064">
        <ele>242</ele>
        <time>2018-10-06T10:11:19Z</time>
      </trkpt>
      <trkpt lat="45.96332" lon="4.78056">
        <ele>244</ele>
        <time>2018-10-06T10:11:21Z</time>
      </trkpt>
      <trkpt lat="45.96328" lon="4.78051">
        <ele>242</ele>
        <time>2018-10-06T10:11:22Z</time>
      </trkpt>
      <trkpt lat="45.96323" lon="4.78046">
        <ele>242</ele>
        <time>2018-10-06T10:11:23Z</time>
      </trkpt>
      <trkpt lat="45.9632" lon="4.78042">
        <ele>241</ele>
        <time>2018-10-06T10:11:24Z</time>
      </trkpt>
      <trkpt lat="45.96316" lon="4.78037">
        <ele>241</ele>
        <time>2018-10-06T10:11:25Z</time>
      </trkpt>
      <trkpt lat="45.96312" lon="4.78033">
        <ele>240</ele>
        <time>2018-10-06T10:11:26Z</time>
      </trkpt>
      <trkpt lat="45.96308" lon="4.78028">
        <ele>240</ele>
        <time>2018-10-06T10:11:27Z</time>
      </trkpt>
      <trkpt lat="45.96304" lon="4.78022">
        <ele>239</ele>
        <time>2018-10-06T10:11:28Z</time>
      </trkpt>
      <trkpt lat="45.963" lon="4.78018">
        <ele>268</ele>
        <time>2018-10-06T10:11:29Z</time>
      </trkpt>
      <trkpt lat="45.96294" lon="4.78013">
        <ele>261</ele>
        <time>2018-10-06T10:11:30Z</time>
      </trkpt>
      <trkpt lat="45.9629" lon="4.7801">
        <ele>275</ele>
        <time>2018-10-06T10:11:31Z</time>
      </trkpt>
      <trkpt lat="45.96283" lon="4.78006">
        <ele>267</ele>
        <time>2018-10-06T10:11:32Z</time>
      </trkpt>
      <trkpt lat="45.96278" lon="4.77999">
        <ele>261</ele>
        <time>2018-10-06T10:11:33Z</time>
      </trkpt>
      <trkpt lat="45.96274" lon="4.77994">
        <ele>256</ele>
        <time>2018-10-06T10:11:34Z</time>
      </trkpt>
      <trkpt lat="45.9627" lon="4.7799">
        <ele>269</ele>
        <time>2018-10-06T10:11:35Z</time>
      </trkpt>
      <trkpt lat="45.96265" lon="4.77986">
        <ele>263</ele>
        <time>2018-10-06T10:11:36Z</time>
      </trkpt>
      <trkpt lat="45.9626" lon="4.77981">
        <ele>253</ele>
        <time>2018-10-06T10:11:38Z</time>
      </trkpt>
      <trkpt lat="45.96256" lon="4.77977">
        <ele>252</ele>
        <time>2018-10-06T10:11:39Z</time>
      </trkpt>
      <trkpt lat="45.96254" lon="4.77975">
        <ele>248</ele>
        <time>2018-10-06T10:11:40Z</time>
      </trkpt>
      <trkpt lat="45.96247" lon="4.7797">
        <ele>247</ele>
        <time>2018-10-06T10:11:41Z</time>
      </trkpt>
      <trkpt lat="45.96244" lon="4.77964">
        <ele>247</ele>
        <time>2018-10-06T10:11:43Z</time>
      </trkpt>
      <trkpt lat="45.9624" lon="4.7796">
        <ele>248</ele>
        <time>2018-10-06T10:11:44Z</time>
      </trkpt>
      <trkpt lat="45.96236" lon="4.77952">
        <ele>248</ele>
        <time>2018-10-06T10:11:46Z</time>
      </trkpt>
      <trkpt lat="45.96233" lon="4.77947">
        <ele>249</ele>
        <time>2018-10-06T10:11:47Z</time>
      </trkpt>
      <trkpt lat="45.96226" lon="4.77944">
        <ele>280</ele>
        <time>2018-10-06T10:11:48Z</time>
      </trkpt>
      <trkpt lat="45.96224" lon="4.7794">
        <ele>275</ele>
        <time>2018-10-06T10:11:49Z</time>
      </trkpt>
      <trkpt lat="45.96221" lon="4.77933">
        <ele>269</ele>
        <time>2018-10-06T10:11:50Z</time>
      </trkpt>
      <trkpt lat="45.96217" lon="4.77927">
        <ele>263</ele>
        <time>2018-10-06T10:11:51Z</time>
      </trkpt>
      <trkpt lat="45.96213" lon="4.7792">
        <ele>259</ele>
        <time>2018-10-06T10:11:52Z</time>
      </trkpt>
      <trkpt lat="45.9621" lon="4.77915">
        <ele>255</ele>
        <time>2018-10-06T10:11:53Z</time>
      </trkpt>
      <trkpt lat="45.96206" lon="4.7791">
        <ele>253</ele>
        <time>2018-10-06T10:11:54Z</time>
      </trkpt>
      <trkpt lat="45.96202" lon="4.77904">
        <ele>251</ele>
        <time>2018-10-06T10:11:55Z</time>
      </trkpt>
      <trkpt lat="45.96197" lon="4.77894">
        <ele>248</ele>
        <time>2018-10-06T10:11:57Z</time>
      </trkpt>
      <trkpt lat="45.96195" lon="4.77889">
        <ele>249</ele>
        <time>2018-10-06T10:11:58Z</time>
      </trkpt>
      <trkpt lat="45.9619" lon="4.77879">
        <ele>248</ele>
        <time>2018-10-06T10:12:00Z</time>
      </trkpt>
      <trkpt lat="45.96187" lon="4.77873">
        <ele>249</ele>
        <time>2018-10-06T10:12:01Z</time>
      </trkpt>
      <trkpt lat="45.96182" lon="4.77867">
        <ele>246</ele>
        <time>2018-10-06T10:12:02Z</time>
      </trkpt>
      <trkpt lat="45.9618" lon="4.77863">
        <ele>246</ele>
        <time>2018-10-06T10:12:03Z</time>
      </trkpt>
      <trkpt lat="45.96177" lon="4.77857">
        <ele>246</ele>
        <time>2018-10-06T10:12:04Z</time>
      </trkpt>
      <trkpt lat="45.96173" lon="4.77851">
        <ele>246</ele>
        <time>2018-10-06T10:12:05Z</time>
      </trkpt>
      <trkpt lat="45.96167" lon="4.77843">
        <ele>246</ele>
        <time>2018-10-06T10:12:06Z</time>
      </trkpt>
      <trkpt lat="45.96163" lon="4.77836">
        <ele>246</ele>
        <time>2018-10-06T10:12:07Z</time>
      </trkpt>
      <trkpt lat="45.96158" lon="4.77833">
        <ele>245</ele>
        <time>2018-10-06T10:12:08Z</time>
      </trkpt>
      <trkpt lat="45.96154" lon="4.77827">
        <ele>245</ele>
        <time>2018-10-06T10:12:09Z</time>
      </trkpt>
      <trkpt lat="45.96151" lon="4.7782">
        <ele>245</ele>
        <time>2018-10-06T10:12:10Z</time>
      </trkpt>
      <trkpt lat="45.96148" lon="4.77814">
        <ele>244</ele>
        <time>2018-10-06T10:12:11Z</time>
      </trkpt>
      <trkpt lat="45.96143" lon="4.77809">
        <ele>242</ele>
        <time>2018-10-06T10:12:12Z</time>
      </trkpt>
      <trkpt lat="45.96139" lon="4.77804">
        <ele>242</ele>
        <time>2018-10-06T10:12:13Z</time>
      </trkpt>
      <trkpt lat="45.96136" lon="4.77797">
        <ele>240</ele>
        <time>2018-10-06T10:12:14Z</time>
      </trkpt>
      <trkpt lat="45.96132" lon="4.77791">
        <ele>240</ele>
        <time>2018-10-06T10:12:15Z</time>
      </trkpt>
      <trkpt lat="45.9613" lon="4.77781">
        <ele>241</ele>
        <time>2018-10-06T10:12:16Z</time>
      </trkpt>
      <trkpt lat="45.96126" lon="4.77775">
        <ele>242</ele>
        <time>2018-10-06T10:12:17Z</time>
      </trkpt>
      <trkpt lat="45.96124" lon="4.7777">
        <ele>243</ele>
        <time>2018-10-06T10:12:18Z</time>
      </trkpt>
      <trkpt lat="45.9612" lon="4.77764">
        <ele>242</ele>
        <time>2018-10-06T10:12:19Z</time>
      </trkpt>
      <trkpt lat="45.96117" lon="4.77758">
        <ele>242</ele>
        <time>2018-10-06T10:12:20Z</time>
      </trkpt>
      <trkpt lat="45.96113" lon="4.77752">
        <ele>242</ele>
        <time>2018-10-06T10:12:21Z</time>
      </trkpt>
      <trkpt lat="45.9611" lon="4.77746">
        <ele>243</ele>
        <time>2018-10-06T10:12:22Z</time>
      </trkpt>
      <trkpt lat="45.96106" lon="4.77739">
        <ele>243</ele>
        <time>2018-10-06T10:12:23Z</time>
      </trkpt>
      <trkpt lat="45.961" lon="4.77737">
        <ele>240</ele>
        <time>2018-10-06T10:12:24Z</time>
      </trkpt>
      <trkpt lat="45.96096" lon="4.7773">
        <ele>241</ele>
        <time>2018-10-06T10:12:25Z</time>
      </trkpt>
      <trkpt lat="45.96092" lon="4.77723">
        <ele>242</ele>
        <time>2018-10-06T10:12:26Z</time>
      </trkpt>
      <trkpt lat="45.96088" lon="4.77717">
        <ele>241</ele>
        <time>2018-10-06T10:12:27Z</time>
      </trkpt>
      <trkpt lat="45.96084" lon="4.7771">
        <ele>241</ele>
        <time>2018-10-06T10:12:28Z</time>
      </trkpt>
      <trkpt lat="45.9608" lon="4.77704">
        <ele>241</ele>
        <time>2018-10-06T10:12:29Z</time>
      </trkpt>
      <trkpt lat="45.96075" lon="4.77701">
        <ele>239</ele>
        <time>2018-10-06T10:12:30Z</time>
      </trkpt>
      <trkpt lat="45.96071" lon="4.77695">
        <ele>238</ele>
        <time>2018-10-06T10:12:31Z</time>
      </trkpt>
      <trkpt lat="45.96066" lon="4.7769">
        <ele>238</ele>
        <time>2018-10-06T10:12:32Z</time>
      </trkpt>
      <trkpt lat="45.96063" lon="4.77683">
        <ele>239</ele>
        <time>2018-10-06T10:12:33Z</time>
      </trkpt>
      <trkpt lat="45.96056" lon="4.77675">
        <ele>241</ele>
        <time>2018-10-06T10:12:35Z</time>
      </trkpt>
      <trkpt lat="45.96053" lon="4.77668">
        <ele>241</ele>
        <time>2018-10-06T10:12:36Z</time>
      </trkpt>
      <trkpt lat="45.96049" lon="4.77662">
        <ele>241</ele>
        <time>2018-10-06T10:12:37Z</time>
      </trkpt>
      <trkpt lat="45.96044" lon="4.77656">
        <ele>240</ele>
        <time>2018-10-06T10:12:38Z</time>
      </trkpt>
      <trkpt lat="45.9604" lon="4.7765">
        <ele>240</ele>
        <time>2018-10-06T10:12:39Z</time>
      </trkpt>
      <trkpt lat="45.96034" lon="4.77644">
        <ele>239</ele>
        <time>2018-10-06T10:12:40Z</time>
      </trkpt>
      <trkpt lat="45.96029" lon="4.77639">
        <ele>238</ele>
        <time>2018-10-06T10:12:41Z</time>
      </trkpt>
      <trkpt lat="45.96024" lon="4.77633">
        <ele>238</ele>
        <time>2018-10-06T10:12:42Z</time>
      </trkpt>
      <trkpt lat="45.9602" lon="4.77626">
        <ele>237</ele>
        <time>2018-10-06T10:12:43Z</time>
      </trkpt>
      <trkpt lat="45.96015" lon="4.77622">
        <ele>236</ele>
        <time>2018-10-06T10:12:44Z</time>
      </trkpt>
      <trkpt lat="45.96011" lon="4.77616">
        <ele>236</ele>
        <time>2018-10-06T10:12:45Z</time>
      </trkpt>
      <trkpt lat="45.96007" lon="4.7761">
        <ele>236</ele>
        <time>2018-10-06T10:12:46Z</time>
      </trkpt>
      <trkpt lat="45.96003" lon="4.77605">
        <ele>236</ele>
        <time>2018-10-06T10:12:47Z</time>
      </trkpt>
      <trkpt lat="45.96" lon="4.77599">
        <ele>238</ele>
        <time>2018-10-06T10:12:48Z</time>
      </trkpt>
      <trkpt lat="45.95997" lon="4.77592">
        <ele>239</ele>
        <time>2018-10-06T10:12:49Z</time>
      </trkpt>
      <trkpt lat="45.95993" lon="4.77585">
        <ele>240</ele>
        <time>2018-10-06T10:12:50Z</time>
      </trkpt>
      <trkpt lat="45.95991" lon="4.77577">
        <ele>240</ele>
        <time>2018-10-06T10:12:51Z</time>
      </trkpt>
      <trkpt lat="45.95988" lon="4.77569">
        <ele>243</ele>
        <time>2018-10-06T10:12:52Z</time>
      </trkpt>
      <trkpt lat="45.95984" lon="4.77563">
        <ele>243</ele>
        <time>2018-10-06T10:12:53Z</time>
      </trkpt>
      <trkpt lat="45.95982" lon="4.77558">
        <ele>241</ele>
        <time>2018-10-06T10:12:54Z</time>
      </trkpt>
      <trkpt lat="45.95976" lon="4.77549">
        <ele>243</ele>
        <time>2018-10-06T10:12:56Z</time>
      </trkpt>
      <trkpt lat="45.95974" lon="4.77545">
        <ele>242</ele>
        <time>2018-10-06T10:12:57Z</time>
      </trkpt>
      <trkpt lat="45.95969" lon="4.77534">
        <ele>242</ele>
        <time>2018-10-06T10:12:59Z</time>
      </trkpt>
      <trkpt lat="45.95967" lon="4.77527">
        <ele>242</ele>
        <time>2018-10-06T10:13:00Z</time>
      </trkpt>
      <trkpt lat="45.95964" lon="4.77521">
        <ele>242</ele>
        <time>2018-10-06T10:13:01Z</time>
      </trkpt>
      <trkpt lat="45.95962" lon="4.77515">
        <ele>242</ele>
        <time>2018-10-06T10:13:02Z</time>
      </trkpt>
      <trkpt lat="45.95959" lon="4.77509">
        <ele>241</ele>
        <time>2018-10-06T10:13:03Z</time>
      </trkpt>
      <trkpt lat="45.95955" lon="4.77501">
        <ele>241</ele>
        <time>2018-10-06T10:13:04Z</time>
      </trkpt>
      <trkpt lat="45.95953" lon="4.77494">
        <ele>241</ele>
        <time>2018-10-06T10:13:05Z</time>
      </trkpt>
      <trkpt lat="45.9595" lon="4.77488">
        <ele>242</ele>
        <time>2018-10-06T10:13:06Z</time>
      </trkpt>
      <trkpt lat="45.95948" lon="4.77482">
        <ele>241</ele>
        <time>2018-10-06T10:13:07Z</time>
      </trkpt>
      <trkpt lat="45.95945" lon="4.77473">
        <ele>241</ele>
        <time>2018-10-06T10:13:08Z</time>
      </trkpt>
      <trkpt lat="45.95942" lon="4.77465">
        <ele>242</ele>
        <time>2018-10-06T10:13:09Z</time>
      </trkpt>
      <trkpt lat="45.9594" lon="4.77458">
        <ele>242</ele>
        <time>2018-10-06T10:13:10Z</time>
      </trkpt>
      <trkpt lat="45.95938" lon="4.7745">
        <ele>241</ele>
        <time>2018-10-06T10:13:11Z</time>
      </trkpt>
      <trkpt lat="45.95934" lon="4.77442">
        <ele>241</ele>
        <time>2018-10-06T10:13:12Z</time>
      </trkpt>
      <trkpt lat="45.95931" lon="4.77434">
        <ele>242</ele>
        <time>2018-10-06T10:13:13Z</time>
      </trkpt>
      <trkpt lat="45.95928" lon="4.77426">
        <ele>242</ele>
        <time>2018-10-06T10:13:14Z</time>
      </trkpt>
      <trkpt lat="45.95925" lon="4.77418">
        <ele>241</ele>
        <time>2018-10-06T10:13:15Z</time>
      </trkpt>
      <trkpt lat="45.95922" lon="4.7741">
        <ele>242</ele>
        <time>2018-10-06T10:13:16Z</time>
      </trkpt>
      <trkpt lat="45.95919" lon="4.77401">
        <ele>241</ele>
        <time>2018-10-06T10:13:17Z</time>
      </trkpt>
      <trkpt lat="45.95917" lon="4.77393">
        <ele>241</ele>
        <time>2018-10-06T10:13:18Z</time>
      </trkpt>
      <trkpt lat="45.95913" lon="4.77384">
        <ele>241</ele>
        <time>2018-10-06T10:13:19Z</time>
      </trkpt>
      <trkpt lat="45.95911" lon="4.77376">
        <ele>241</ele>
        <time>2018-10-06T10:13:20Z</time>
      </trkpt>
      <trkpt lat="45.95907" lon="4.77367">
        <ele>240</ele>
        <time>2018-10-06T10:13:21Z</time>
      </trkpt>
      <trkpt lat="45.95903" lon="4.77358">
        <ele>240</ele>
        <time>2018-10-06T10:13:22Z</time>
      </trkpt>
      <trkpt lat="45.959" lon="4.77351">
        <ele>240</ele>
        <time>2018-10-06T10:13:23Z</time>
      </trkpt>
      <trkpt lat="45.95897" lon="4.77343">
        <ele>240</ele>
        <time>2018-10-06T10:13:24Z</time>
      </trkpt>
      <trkpt lat="45.95896" lon="4.77337">
        <ele>240</ele>
        <time>2018-10-06T10:13:25Z</time>
      </trkpt>
      <trkpt lat="45.95893" lon="4.77329">
        <ele>240</ele>
        <time>2018-10-06T10:13:26Z</time>
      </trkpt>
      <trkpt lat="45.95892" lon="4.77321">
        <ele>240</ele>
        <time>2018-10-06T10:13:27Z</time>
      </trkpt>
      <trkpt lat="45.95891" lon="4.77315">
        <ele>240</ele>
        <time>2018-10-06T10:13:28Z</time>
      </trkpt>
      <trkpt lat="45.9589" lon="4.77308">
        <ele>241</ele>
        <time>2018-10-06T10:13:29Z</time>
      </trkpt>
      <trkpt lat="45.95889" lon="4.773">
        <ele>240</ele>
        <time>2018-10-06T10:13:30Z</time>
      </trkpt>
      <trkpt lat="45.95887" lon="4.77292">
        <ele>240</ele>
        <time>2018-10-06T10:13:31Z</time>
      </trkpt>
      <trkpt lat="45.95885" lon="4.77282">
        <ele>240</ele>
        <time>2018-10-06T10:13:32Z</time>
      </trkpt>
      <trkpt lat="45.95883" lon="4.77274">
        <ele>241</ele>
        <time>2018-10-06T10:13:33Z</time>
      </trkpt>
      <trkpt lat="45.95881" lon="4.77267">
        <ele>242</ele>
        <time>2018-10-06T10:13:34Z</time>
      </trkpt>
      <trkpt lat="45.95881" lon="4.7726">
        <ele>243</ele>
        <time>2018-10-06T10:13:35Z</time>
      </trkpt>
      <trkpt lat="45.95879" lon="4.77253">
        <ele>244</ele>
        <time>2018-10-06T10:13:36Z</time>
      </trkpt>
      <trkpt lat="45.95877" lon="4.77245">
        <ele>244</ele>
        <time>2018-10-06T10:13:37Z</time>
      </trkpt>
      <trkpt lat="45.95875" lon="4.77234">
        <ele>244</ele>
        <time>2018-10-06T10:13:38Z</time>
      </trkpt>
      <trkpt lat="45.95872" lon="4.77225">
        <ele>245</ele>
        <time>2018-10-06T10:13:39Z</time>
      </trkpt>
      <trkpt lat="45.9587" lon="4.77215">
        <ele>245</ele>
        <time>2018-10-06T10:13:40Z</time>
      </trkpt>
      <trkpt lat="45.95867" lon="4.77205">
        <ele>245</ele>
        <time>2018-10-06T10:13:41Z</time>
      </trkpt>
      <trkpt lat="45.95865" lon="4.77197">
        <ele>246</ele>
        <time>2018-10-06T10:13:42Z</time>
      </trkpt>
      <trkpt lat="45.95863" lon="4.77188">
        <ele>246</ele>
        <time>2018-10-06T10:13:43Z</time>
      </trkpt>
      <trkpt lat="45.95861" lon="4.7718">
        <ele>245</ele>
        <time>2018-10-06T10:13:44Z</time>
      </trkpt>
      <trkpt lat="45.95859" lon="4.77171">
        <ele>243</ele>
        <time>2018-10-06T10:13:45Z</time>
      </trkpt>
      <trkpt lat="45.95856" lon="4.77163">
        <ele>243</ele>
        <time>2018-10-06T10:13:46Z</time>
      </trkpt>
      <trkpt lat="45.95854" lon="4.77155">
        <ele>243</ele>
        <time>2018-10-06T10:13:47Z</time>
      </trkpt>
      <trkpt lat="45.95853" lon="4.77147">
        <ele>243</ele>
        <time>2018-10-06T10:13:48Z</time>
      </trkpt>
      <trkpt lat="45.9585" lon="4.77138">
        <ele>243</ele>
        <time>2018-10-06T10:13:49Z</time>
      </trkpt>
      <trkpt lat="45.95847" lon="4.77129">
        <ele>243</ele>
        <time>2018-10-06T10:13:50Z</time>
      </trkpt>
      <trkpt lat="45.95845" lon="4.77119">
        <ele>243</ele>
        <time>2018-10-06T10:13:51Z</time>
      </trkpt>
      <trkpt lat="45.95843" lon="4.7711">
        <ele>243</ele>
        <time>2018-10-06T10:13:52Z</time>
      </trkpt>
      <trkpt lat="45.9584" lon="4.77102">
        <ele>243</ele>
        <time>2018-10-06T10:13:53Z</time>
      </trkpt>
      <trkpt lat="45.95838" lon="4.77094">
        <ele>243</ele>
        <time>2018-10-06T10:13:54Z</time>
      </trkpt>
      <trkpt lat="45.95835" lon="4.77085">
        <ele>241</ele>
        <time>2018-10-06T10:13:55Z</time>
      </trkpt>
      <trkpt lat="45.95832" lon="4.77078">
        <ele>241</ele>
        <time>2018-10-06T10:13:56Z</time>
      </trkpt>
      <trkpt lat="45.95829" lon="4.77069">
        <ele>274</ele>
        <time>2018-10-06T10:13:57Z</time>
      </trkpt>
      <trkpt lat="45.95825" lon="4.77063">
        <ele>267</ele>
        <time>2018-10-06T10:13:58Z</time>
      </trkpt>
      <trkpt lat="45.95822" lon="4.77056">
        <ele>263</ele>
        <time>2018-10-06T10:13:59Z</time>
      </trkpt>
      <trkpt lat="45.95819" lon="4.77051">
        <ele>257</ele>
        <time>2018-10-06T10:14:00Z</time>
      </trkpt>
      <trkpt lat="45.95816" lon="4.77044">
        <ele>253</ele>
        <time>2018-10-06T10:14:01Z</time>
      </trkpt>
      <trkpt lat="45.95813" lon="4.77038">
        <ele>252</ele>
        <time>2018-10-06T10:14:02Z</time>
      </trkpt>
      <trkpt lat="45.9581" lon="4.77031">
        <ele>252</ele>
        <time>2018-10-06T10:14:03Z</time>
      </trkpt>
      <trkpt lat="45.95808" lon="4.77022">
        <ele>248</ele>
        <time>2018-10-06T10:14:04Z</time>
      </trkpt>
      <trkpt lat="45.95806" lon="4.77015">
        <ele>246</ele>
        <time>2018-10-06T10:14:05Z</time>
      </trkpt>
      <trkpt lat="45.95805" lon="4.77005">
        <ele>243</ele>
        <time>2018-10-06T10:14:06Z</time>
      </trkpt>
      <trkpt lat="45.95803" lon="4.76998">
        <ele>244</ele>
        <time>2018-10-06T10:14:07Z</time>
      </trkpt>
      <trkpt lat="45.95802" lon="4.7699">
        <ele>245</ele>
        <time>2018-10-06T10:14:08Z</time>
      </trkpt>
      <trkpt lat="45.95801" lon="4.76983">
        <ele>246</ele>
        <time>2018-10-06T10:14:09Z</time>
      </trkpt>
      <trkpt lat="45.95801" lon="4.76976">
        <ele>247</ele>
        <time>2018-10-06T10:14:10Z</time>
      </trkpt>
      <trkpt lat="45.95803" lon="4.76969">
        <ele>246</ele>
        <time>2018-10-06T10:14:11Z</time>
      </trkpt>
      <trkpt lat="45.95804" lon="4.76962">
        <ele>247</ele>
        <time>2018-10-06T10:14:12Z</time>
      </trkpt>
      <trkpt lat="45.95806" lon="4.76951">
        <ele>248</ele>
        <time>2018-10-06T10:14:14Z</time>
      </trkpt>
      <trkpt lat="45.95808" lon="4.76944">
        <ele>248</ele>
        <time>2018-10-06T10:14:15Z</time>
      </trkpt>
      <trkpt lat="45.95809" lon="4.76935">
        <ele>244</ele>
        <time>2018-10-06T10:14:16Z</time>
      </trkpt>
      <trkpt lat="45.95811" lon="4.76927">
        <ele>244</ele>
        <time>2018-10-06T10:14:17Z</time>
      </trkpt>
      <trkpt lat="45.95813" lon="4.76919">
        <ele>243</ele>
        <time>2018-10-06T10:14:18Z</time>
      </trkpt>
      <trkpt lat="45.95814" lon="4.76909">
        <ele>244</ele>
        <time>2018-10-06T10:14:19Z</time>
      </trkpt>
      <trkpt lat="45.95818" lon="4.76893">
        <ele>242</ele>
        <time>2018-10-06T10:14:20Z</time>
      </trkpt>
      <trkpt lat="45.9582" lon="4.76885">
        <ele>243</ele>
        <time>2018-10-06T10:14:21Z</time>
      </trkpt>
      <trkpt lat="45.95822" lon="4.76876">
        <ele>243</ele>
        <time>2018-10-06T10:14:22Z</time>
      </trkpt>
      <trkpt lat="45.95823" lon="4.76869">
        <ele>291</ele>
        <time>2018-10-06T10:14:23Z</time>
      </trkpt>
      <trkpt lat="45.95825" lon="4.76861">
        <ele>285</ele>
        <time>2018-10-06T10:14:24Z</time>
      </trkpt>
      <trkpt lat="45.95826" lon="4.76853">
        <ele>294</ele>
        <time>2018-10-06T10:14:25Z</time>
      </trkpt>
      <trkpt lat="45.95828" lon="4.76845">
        <ele>289</ele>
        <time>2018-10-06T10:14:26Z</time>
      </trkpt>
      <trkpt lat="45.95828" lon="4.76836">
        <ele>284</ele>
        <time>2018-10-06T10:14:27Z</time>
      </trkpt>
      <trkpt lat="45.9583" lon="4.7683">
        <ele>278</ele>
        <time>2018-10-06T10:14:28Z</time>
      </trkpt>
      <trkpt lat="45.95833" lon="4.76821">
        <ele>261</ele>
        <time>2018-10-06T10:14:30Z</time>
      </trkpt>
      <trkpt lat="45.95834" lon="4.76813">
        <ele>255</ele>
        <time>2018-10-06T10:14:31Z</time>
      </trkpt>
      <trkpt lat="45.95836" lon="4.76801">
        <ele>246</ele>
        <time>2018-10-06T10:14:35Z</time>
      </trkpt>
      <trkpt lat="45.95836" lon="4.76799">
        <ele>245</ele>
        <time>2018-10-06T10:14:36Z</time>
      </trkpt>
      <trkpt lat="45.95837" lon="4.76788">
        <ele>241</ele>
        <time>2018-10-06T10:14:46Z</time>
      </trkpt>
      <trkpt lat="45.95836" lon="4.76785">
        <ele>241</ele>
        <time>2018-10-06T10:14:47Z</time>
      </trkpt>
      <trkpt lat="45.95836" lon="4.76783">
        <ele>241</ele>
        <time>2018-10-06T10:14:48Z</time>
      </trkpt>
      <trkpt lat="45.95832" lon="4.76773">
        <ele>242</ele>
        <time>2018-10-06T10:14:49Z</time>
      </trkpt>
      <trkpt lat="45.95827" lon="4.76764">
        <ele>242</ele>
        <time>2018-10-06T10:14:51Z</time>
      </trkpt>
      <trkpt lat="45.95826" lon="4.76757">
        <ele>242</ele>
        <time>2018-10-06T10:14:52Z</time>
      </trkpt>
      <trkpt lat="45.95824" lon="4.76749">
        <ele>243</ele>
        <time>2018-10-06T10:14:53Z</time>
      </trkpt>
      <trkpt lat="45.95822" lon="4.76742">
        <ele>243</ele>
        <time>2018-10-06T10:14:54Z</time>
      </trkpt>
      <trkpt lat="45.95821" lon="4.76735">
        <ele>244</ele>
        <time>2018-10-06T10:14:55Z</time>
      </trkpt>
      <trkpt lat="45.95822" lon="4.76728">
        <ele>245</ele>
        <time>2018-10-06T10:14:56Z</time>
      </trkpt>
      <trkpt lat="45.95821" lon="4.76721">
        <ele>244</ele>
        <time>2018-10-06T10:14:57Z</time>
      </trkpt>
      <trkpt lat="45.95821" lon="4.76714">
        <ele>244</ele>
        <time>2018-10-06T10:14:58Z</time>
      </trkpt>
      <trkpt lat="45.95821" lon="4.76707">
        <ele>244</ele>
        <time>2018-10-06T10:14:59Z</time>
      </trkpt>
      <trkpt lat="45.9582" lon="4.767">
        <ele>244</ele>
        <time>2018-10-06T10:15:00Z</time>
      </trkpt>
      <trkpt lat="45.95818" lon="4.76689">
        <ele>245</ele>
        <time>2018-10-06T10:15:02Z</time>
      </trkpt>
      <trkpt lat="45.95815" lon="4.76683">
        <ele>243</ele>
        <time>2018-10-06T10:15:03Z</time>
      </trkpt>
      <trkpt lat="45.95814" lon="4.76676">
        <ele>243</ele>
        <time>2018-10-06T10:15:04Z</time>
      </trkpt>
      <trkpt lat="45.95811" lon="4.76668">
        <ele>243</ele>
        <time>2018-10-06T10:15:05Z</time>
      </trkpt>
      <trkpt lat="45.9581" lon="4.76662">
        <ele>242</ele>
        <time>2018-10-06T10:15:06Z</time>
      </trkpt>
      <trkpt lat="45.95809" lon="4.76654">
        <ele>242</ele>
        <time>2018-10-06T10:15:07Z</time>
      </trkpt>
      <trkpt lat="45.95808" lon="4.76646">
        <ele>242</ele>
        <time>2018-10-06T10:15:08Z</time>
      </trkpt>
      <trkpt lat="45.95806" lon="4.76638">
        <ele>242</ele>
        <time>2018-10-06T10:15:09Z</time>
      </trkpt>
      <trkpt lat="45.95804" lon="4.76631">
        <ele>243</ele>
        <time>2018-10-06T10:15:10Z</time>
      </trkpt>
      <trkpt lat="45.95804" lon="4.76623">
        <ele>243</ele>
        <time>2018-10-06T10:15:11Z</time>
      </trkpt>
      <trkpt lat="45.95803" lon="4.76615">
        <ele>241</ele>
        <time>2018-10-06T10:15:12Z</time>
      </trkpt>
      <trkpt lat="45.95803" lon="4.76607">
        <ele>241</ele>
        <time>2018-10-06T10:15:13Z</time>
      </trkpt>
      <trkpt lat="45.95801" lon="4.766">
        <ele>242</ele>
        <time>2018-10-06T10:15:14Z</time>
      </trkpt>
      <trkpt lat="45.958" lon="4.76591">
        <ele>241</ele>
        <time>2018-10-06T10:15:15Z</time>
      </trkpt>
      <trkpt lat="45.95799" lon="4.76583">
        <ele>239</ele>
        <time>2018-10-06T10:15:16Z</time>
      </trkpt>
      <trkpt lat="45.95795" lon="4.76576">
        <ele>239</ele>
        <time>2018-10-06T10:15:17Z</time>
      </trkpt>
      <trkpt lat="45.95793" lon="4.76568">
        <ele>238</ele>
        <time>2018-10-06T10:15:18Z</time>
      </trkpt>
      <trkpt lat="45.95793" lon="4.76561">
        <ele>238</ele>
        <time>2018-10-06T10:15:19Z</time>
      </trkpt>
      <trkpt lat="45.95791" lon="4.76551">
        <ele>235</ele>
        <time>2018-10-06T10:15:20Z</time>
      </trkpt>
      <trkpt lat="45.9579" lon="4.76544">
        <ele>235</ele>
        <time>2018-10-06T10:15:21Z</time>
      </trkpt>
      <trkpt lat="45.95789" lon="4.76535">
        <ele>233</ele>
        <time>2018-10-06T10:15:22Z</time>
      </trkpt>
      <trkpt lat="45.95787" lon="4.76527">
        <ele>232</ele>
        <time>2018-10-06T10:15:23Z</time>
      </trkpt>
      <trkpt lat="45.95786" lon="4.7652">
        <ele>238</ele>
        <time>2018-10-06T10:15:24Z</time>
      </trkpt>
      <trkpt lat="45.95785" lon="4.76512">
        <ele>276</ele>
        <time>2018-10-06T10:15:25Z</time>
      </trkpt>
      <trkpt lat="45.95783" lon="4.76504">
        <ele>262</ele>
        <time>2018-10-06T10:15:26Z</time>
      </trkpt>
      <trkpt lat="45.95782" lon="4.76497">
        <ele>256</ele>
        <time>2018-10-06T10:15:27Z</time>
      </trkpt>
      <trkpt lat="45.95781" lon="4.7649">
        <ele>251</ele>
        <time>2018-10-06T10:15:28Z</time>
      </trkpt>
      <trkpt lat="45.9578" lon="4.76483">
        <ele>249</ele>
        <time>2018-10-06T10:15:29Z</time>
      </trkpt>
      <trkpt lat="45.95779" lon="4.76477">
        <ele>244</ele>
        <time>2018-10-06T10:15:30Z</time>
      </trkpt>
      <trkpt lat="45.95779" lon="4.76468">
        <ele>239</ele>
        <time>2018-10-06T10:15:31Z</time>
      </trkpt>
      <trkpt lat="45.95778" lon="4.76461">
        <ele>238</ele>
        <time>2018-10-06T10:15:32Z</time>
      </trkpt>
      <trkpt lat="45.95776" lon="4.76455">
        <ele>236</ele>
        <time>2018-10-06T10:15:33Z</time>
      </trkpt>
      <trkpt lat="45.95775" lon="4.76447">
        <ele>234</ele>
        <time>2018-10-06T10:15:34Z</time>
      </trkpt>
      <trkpt lat="45.95774" lon="4.76438">
        <ele>234</ele>
        <time>2018-10-06T10:15:35Z</time>
      </trkpt>
      <trkpt lat="45.95772" lon="4.76432">
        <ele>234</ele>
        <time>2018-10-06T10:15:36Z</time>
      </trkpt>
      <trkpt lat="45.9577" lon="4.76426">
        <ele>233</ele>
        <time>2018-10-06T10:15:37Z</time>
      </trkpt>
      <trkpt lat="45.95769" lon="4.76419">
        <ele>233</ele>
        <time>2018-10-06T10:15:38Z</time>
      </trkpt>
      <trkpt lat="45.95768" lon="4.76411">
        <ele>234</ele>
        <time>2018-10-06T10:15:39Z</time>
      </trkpt>
      <trkpt lat="45.95767" lon="4.76404">
        <ele>233</ele>
        <time>2018-10-06T10:15:40Z</time>
      </trkpt>
      <trkpt lat="45.95765" lon="4.76397">
        <ele>233</ele>
        <time>2018-10-06T10:15:41Z</time>
      </trkpt>
      <trkpt lat="45.95764" lon="4.76389">
        <ele>232</ele>
        <time>2018-10-06T10:15:42Z</time>
      </trkpt>
      <trkpt lat="45.95764" lon="4.76379">
        <ele>231</ele>
        <time>2018-10-06T10:15:43Z</time>
      </trkpt>
      <trkpt lat="45.95764" lon="4.76372">
        <ele>231</ele>
        <time>2018-10-06T10:15:44Z</time>
      </trkpt>
      <trkpt lat="45.95763" lon="4.76364">
        <ele>230</ele>
        <time>2018-10-06T10:15:45Z</time>
      </trkpt>
      <trkpt lat="45.95762" lon="4.76357">
        <ele>229</ele>
        <time>2018-10-06T10:15:46Z</time>
      </trkpt>
      <trkpt lat="45.95761" lon="4.76348">
        <ele>229</ele>
        <time>2018-10-06T10:15:47Z</time>
      </trkpt>
      <trkpt lat="45.95762" lon="4.76339">
        <ele>228</ele>
        <time>2018-10-06T10:15:48Z</time>
      </trkpt>
      <trkpt lat="45.95761" lon="4.76331">
        <ele>228</ele>
        <time>2018-10-06T10:15:49Z</time>
      </trkpt>
      <trkpt lat="45.95761" lon="4.76323">
        <ele>227</ele>
        <time>2018-10-06T10:15:50Z</time>
      </trkpt>
      <trkpt lat="45.9576" lon="4.76315">
        <ele>228</ele>
        <time>2018-10-06T10:15:51Z</time>
      </trkpt>
      <trkpt lat="45.9576" lon="4.76307">
        <ele>228</ele>
        <time>2018-10-06T10:15:52Z</time>
      </trkpt>
      <trkpt lat="45.95758" lon="4.76299">
        <ele>229</ele>
        <time>2018-10-06T10:15:53Z</time>
      </trkpt>
      <trkpt lat="45.9576" lon="4.76292">
        <ele>228</ele>
        <time>2018-10-06T10:15:54Z</time>
      </trkpt>
      <trkpt lat="45.95757" lon="4.76285">
        <ele>228</ele>
        <time>2018-10-06T10:15:55Z</time>
      </trkpt>
      <trkpt lat="45.95757" lon="4.76277">
        <ele>228</ele>
        <time>2018-10-06T10:15:56Z</time>
      </trkpt>
      <trkpt lat="45.95757" lon="4.76269">
        <ele>230</ele>
        <time>2018-10-06T10:15:57Z</time>
      </trkpt>
      <trkpt lat="45.95757" lon="4.76261">
        <ele>230</ele>
        <time>2018-10-06T10:15:58Z</time>
      </trkpt>
      <trkpt lat="45.95756" lon="4.76252">
        <ele>229</ele>
        <time>2018-10-06T10:15:59Z</time>
      </trkpt>
      <trkpt lat="45.95755" lon="4.76244">
        <ele>229</ele>
        <time>2018-10-06T10:16:00Z</time>
      </trkpt>
      <trkpt lat="45.95755" lon="4.76237">
        <ele>229</ele>
        <time>2018-10-06T10:16:01Z</time>
      </trkpt>
      <trkpt lat="45.95755" lon="4.7623">
        <ele>228</ele>
        <time>2018-10-06T10:16:02Z</time>
      </trkpt>
      <trkpt lat="45.95753" lon="4.76219">
        <ele>225</ele>
        <time>2018-10-06T10:16:03Z</time>
      </trkpt>
      <trkpt lat="45.95751" lon="4.7621">
        <ele>224</ele>
        <time>2018-10-06T10:16:04Z</time>
      </trkpt>
      <trkpt lat="45.9575" lon="4.76203">
        <ele>225</ele>
        <time>2018-10-06T10:16:05Z</time>
      </trkpt>
      <trkpt lat="45.9575" lon="4.76196">
        <ele>225</ele>
        <time>2018-10-06T10:16:06Z</time>
      </trkpt>
      <trkpt lat="45.9575" lon="4.76189">
        <ele>225</ele>
        <time>2018-10-06T10:16:07Z</time>
      </trkpt>
      <trkpt lat="45.95753" lon="4.7618">
        <ele>226</ele>
        <time>2018-10-06T10:16:08Z</time>
      </trkpt>
      <trkpt lat="45.95752" lon="4.76172">
        <ele>226</ele>
        <time>2018-10-06T10:16:09Z</time>
      </trkpt>
      <trkpt lat="45.95752" lon="4.76164">
        <ele>226</ele>
        <time>2018-10-06T10:16:10Z</time>
      </trkpt>
      <trkpt lat="45.95753" lon="4.76156">
        <ele>225</ele>
        <time>2018-10-06T10:16:11Z</time>
      </trkpt>
      <trkpt lat="45.95752" lon="4.76148">
        <ele>224</ele>
        <time>2018-10-06T10:16:12Z</time>
      </trkpt>
      <trkpt lat="45.95747" lon="4.76141">
        <ele>223</ele>
        <time>2018-10-06T10:16:13Z</time>
      </trkpt>
      <trkpt lat="45.95746" lon="4.76133">
        <ele>223</ele>
        <time>2018-10-06T10:16:14Z</time>
      </trkpt>
      <trkpt lat="45.95745" lon="4.76127">
        <ele>222</ele>
        <time>2018-10-06T10:16:15Z</time>
      </trkpt>
      <trkpt lat="45.95746" lon="4.7612">
        <ele>222</ele>
        <time>2018-10-06T10:16:16Z</time>
      </trkpt>
      <trkpt lat="45.95745" lon="4.76112">
        <ele>220</ele>
        <time>2018-10-06T10:16:17Z</time>
      </trkpt>
      <trkpt lat="45.95743" lon="4.76099">
        <ele>219</ele>
        <time>2018-10-06T10:16:19Z</time>
      </trkpt>
      <trkpt lat="45.95741" lon="4.76093">
        <ele>219</ele>
        <time>2018-10-06T10:16:20Z</time>
      </trkpt>
      <trkpt lat="45.9574" lon="4.76086">
        <ele>219</ele>
        <time>2018-10-06T10:16:21Z</time>
      </trkpt>
      <trkpt lat="45.95737" lon="4.76078">
        <ele>219</ele>
        <time>2018-10-06T10:16:22Z</time>
      </trkpt>
      <trkpt lat="45.95734" lon="4.7607">
        <ele>218</ele>
        <time>2018-10-06T10:16:23Z</time>
      </trkpt>
      <trkpt lat="45.95731" lon="4.76063">
        <ele>218</ele>
        <time>2018-10-06T10:16:24Z</time>
      </trkpt>
      <trkpt lat="45.95727" lon="4.76055">
        <ele>217</ele>
        <time>2018-10-06T10:16:25Z</time>
      </trkpt>
      <trkpt lat="45.95724" lon="4.76048">
        <ele>218</ele>
        <time>2018-10-06T10:16:26Z</time>
      </trkpt>
      <trkpt lat="45.95722" lon="4.76041">
        <ele>216</ele>
        <time>2018-10-06T10:16:27Z</time>
      </trkpt>
      <trkpt lat="45.95719" lon="4.76034">
        <ele>216</ele>
        <time>2018-10-06T10:16:28Z</time>
      </trkpt>
      <trkpt lat="45.95716" lon="4.76028">
        <ele>217</ele>
        <time>2018-10-06T10:16:29Z</time>
      </trkpt>
      <trkpt lat="45.95713" lon="4.76021">
        <ele>216</ele>
        <time>2018-10-06T10:16:30Z</time>
      </trkpt>
      <trkpt lat="45.9571" lon="4.76015">
        <ele>226</ele>
        <time>2018-10-06T10:16:31Z</time>
      </trkpt>
      <trkpt lat="45.95706" lon="4.76008">
        <ele>224</ele>
        <time>2018-10-06T10:16:32Z</time>
      </trkpt>
      <trkpt lat="45.95703" lon="4.76001">
        <ele>222</ele>
        <time>2018-10-06T10:16:33Z</time>
      </trkpt>
      <trkpt lat="45.95701" lon="4.75995">
        <ele>221</ele>
        <time>2018-10-06T10:16:34Z</time>
      </trkpt>
      <trkpt lat="45.95698" lon="4.75989">
        <ele>220</ele>
        <time>2018-10-06T10:16:35Z</time>
      </trkpt>
      <trkpt lat="45.95695" lon="4.75983">
        <ele>220</ele>
        <time>2018-10-06T10:16:36Z</time>
      </trkpt>
      <trkpt lat="45.95694" lon="4.75977">
        <ele>220</ele>
        <time>2018-10-06T10:16:37Z</time>
      </trkpt>
      <trkpt lat="45.95691" lon="4.75971">
        <ele>220</ele>
        <time>2018-10-06T10:16:38Z</time>
      </trkpt>
      <trkpt lat="45.95688" lon="4.75965">
        <ele>219</ele>
        <time>2018-10-06T10:16:39Z</time>
      </trkpt>
      <trkpt lat="45.95686" lon="4.7596">
        <ele>219</ele>
        <time>2018-10-06T10:16:40Z</time>
      </trkpt>
      <trkpt lat="45.95685" lon="4.75951">
        <ele>220</ele>
        <time>2018-10-06T10:16:41Z</time>
      </trkpt>
      <trkpt lat="45.95683" lon="4.75945">
        <ele>221</ele>
        <time>2018-10-06T10:16:42Z</time>
      </trkpt>
      <trkpt lat="45.95681" lon="4.75939">
        <ele>222</ele>
        <time>2018-10-06T10:16:43Z</time>
      </trkpt>
      <trkpt lat="45.95676" lon="4.75935">
        <ele>221</ele>
        <time>2018-10-06T10:16:44Z</time>
      </trkpt>
      <trkpt lat="45.95673" lon="4.75928">
        <ele>221</ele>
        <time>2018-10-06T10:16:45Z</time>
      </trkpt>
      <trkpt lat="45.95669" lon="4.75922">
        <ele>220</ele>
        <time>2018-10-06T10:16:46Z</time>
      </trkpt>
      <trkpt lat="45.95667" lon="4.75915">
        <ele>221</ele>
        <time>2018-10-06T10:16:47Z</time>
      </trkpt>
      <trkpt lat="45.95665" lon="4.75907">
        <ele>222</ele>
        <time>2018-10-06T10:16:48Z</time>
      </trkpt>
      <trkpt lat="45.95663" lon="4.759">
        <ele>222</ele>
        <time>2018-10-06T10:16:49Z</time>
      </trkpt>
      <trkpt lat="45.95661" lon="4.75892">
        <ele>222</ele>
        <time>2018-10-06T10:16:50Z</time>
      </trkpt>
      <trkpt lat="45.95657" lon="4.75888">
        <ele>221</ele>
        <time>2018-10-06T10:16:51Z</time>
      </trkpt>
      <trkpt lat="45.95655" lon="4.75881">
        <ele>221</ele>
        <time>2018-10-06T10:16:52Z</time>
      </trkpt>
      <trkpt lat="45.95652" lon="4.75872">
        <ele>219</ele>
        <time>2018-10-06T10:16:53Z</time>
      </trkpt>
      <trkpt lat="45.9565" lon="4.75865">
        <ele>219</ele>
        <time>2018-10-06T10:16:54Z</time>
      </trkpt>
      <trkpt lat="45.95648" lon="4.75858">
        <ele>219</ele>
        <time>2018-10-06T10:16:55Z</time>
      </trkpt>
      <trkpt lat="45.95645" lon="4.75852">
        <ele>219</ele>
        <time>2018-10-06T10:16:56Z</time>
      </trkpt>
      <trkpt lat="45.95643" lon="4.75844">
        <ele>220</ele>
        <time>2018-10-06T10:16:57Z</time>
      </trkpt>
      <trkpt lat="45.95641" lon="4.75837">
        <ele>220</ele>
        <time>2018-10-06T10:16:58Z</time>
      </trkpt>
      <trkpt lat="45.9564" lon="4.7583">
        <ele>222</ele>
        <time>2018-10-06T10:16:59Z</time>
      </trkpt>
      <trkpt lat="45.95639" lon="4.75822">
        <ele>223</ele>
        <time>2018-10-06T10:17:00Z</time>
      </trkpt>
      <trkpt lat="45.95638" lon="4.75815">
        <ele>223</ele>
        <time>2018-10-06T10:17:01Z</time>
      </trkpt>
      <trkpt lat="45.95637" lon="4.75808">
        <ele>223</ele>
        <time>2018-10-06T10:17:02Z</time>
      </trkpt>
      <trkpt lat="45.95637" lon="4.75802">
        <ele>225</ele>
        <time>2018-10-06T10:17:03Z</time>
      </trkpt>
      <trkpt lat="45.95635" lon="4.75795">
        <ele>225</ele>
        <time>2018-10-06T10:17:04Z</time>
      </trkpt>
      <trkpt lat="45.95633" lon="4.75787">
        <ele>224</ele>
        <time>2018-10-06T10:17:05Z</time>
      </trkpt>
      <trkpt lat="45.95632" lon="4.75778">
        <ele>223</ele>
        <time>2018-10-06T10:17:06Z</time>
      </trkpt>
      <trkpt lat="45.9563" lon="4.7577">
        <ele>222</ele>
        <time>2018-10-06T10:17:07Z</time>
      </trkpt>
      <trkpt lat="45.95627" lon="4.75763">
        <ele>221</ele>
        <time>2018-10-06T10:17:08Z</time>
      </trkpt>
      <trkpt lat="45.95626" lon="4.75755">
        <ele>221</ele>
        <time>2018-10-06T10:17:09Z</time>
      </trkpt>
      <trkpt lat="45.95624" lon="4.75748">
        <ele>220</ele>
        <time>2018-10-06T10:17:10Z</time>
      </trkpt>
      <trkpt lat="45.9562" lon="4.75743">
        <ele>220</ele>
        <time>2018-10-06T10:17:11Z</time>
      </trkpt>
      <trkpt lat="45.95619" lon="4.75735">
        <ele>219</ele>
        <time>2018-10-06T10:17:12Z</time>
      </trkpt>
      <trkpt lat="45.9562" lon="4.75722">
        <ele>219</ele>
        <time>2018-10-06T10:17:14Z</time>
      </trkpt>
      <trkpt lat="45.95619" lon="4.75714">
        <ele>219</ele>
        <time>2018-10-06T10:17:15Z</time>
      </trkpt>
      <trkpt lat="45.95619" lon="4.75701">
        <ele>219</ele>
        <time>2018-10-06T10:17:17Z</time>
      </trkpt>
      <trkpt lat="45.95618" lon="4.75694">
        <ele>219</ele>
        <time>2018-10-06T10:17:18Z</time>
      </trkpt>
      <trkpt lat="45.95617" lon="4.75688">
        <ele>279</ele>
        <time>2018-10-06T10:17:19Z</time>
      </trkpt>
      <trkpt lat="45.95616" lon="4.75679">
        <ele>268</ele>
        <time>2018-10-06T10:17:20Z</time>
      </trkpt>
      <trkpt lat="45.95615" lon="4.75666">
        <ele>252</ele>
        <time>2018-10-06T10:17:22Z</time>
      </trkpt>
      <trkpt lat="45.95614" lon="4.7566">
        <ele>246</ele>
        <time>2018-10-06T10:17:23Z</time>
      </trkpt>
      <trkpt lat="45.95613" lon="4.75649">
        <ele>239</ele>
        <time>2018-10-06T10:17:25Z</time>
      </trkpt>
      <trkpt lat="45.95611" lon="4.75644">
        <ele>235</ele>
        <time>2018-10-06T10:17:26Z</time>
      </trkpt>
      <trkpt lat="45.95609" lon="4.75633">
        <ele>232</ele>
        <time>2018-10-06T10:17:28Z</time>
      </trkpt>
      <trkpt lat="45.95607" lon="4.75627">
        <ele>230</ele>
        <time>2018-10-06T10:17:29Z</time>
      </trkpt>
      <trkpt lat="45.95605" lon="4.75616">
        <ele>230</ele>
        <time>2018-10-06T10:17:31Z</time>
      </trkpt>
      <trkpt lat="45.95603" lon="4.75609">
        <ele>228</ele>
        <time>2018-10-06T10:17:32Z</time>
      </trkpt>
      <trkpt lat="45.95599" lon="4.75598">
        <ele>226</ele>
        <time>2018-10-06T10:17:34Z</time>
      </trkpt>
      <trkpt lat="45.95597" lon="4.75593">
        <ele>226</ele>
        <time>2018-10-06T10:17:35Z</time>
      </trkpt>
      <trkpt lat="45.95594" lon="4.75588">
        <ele>226</ele>
        <time>2018-10-06T10:17:36Z</time>
      </trkpt>
      <trkpt lat="45.95592" lon="4.75582">
        <ele>226</ele>
        <time>2018-10-06T10:17:37Z</time>
      </trkpt>
      <trkpt lat="45.95589" lon="4.75576">
        <ele>230</ele>
        <time>2018-10-06T10:17:38Z</time>
      </trkpt>
      <trkpt lat="45.95586" lon="4.7557">
        <ele>229</ele>
        <time>2018-10-06T10:17:39Z</time>
      </trkpt>
      <trkpt lat="45.95582" lon="4.75563">
        <ele>228</ele>
        <time>2018-10-06T10:17:40Z</time>
      </trkpt>
      <trkpt lat="45.95578" lon="4.75558">
        <ele>228</ele>
        <time>2018-10-06T10:17:41Z</time>
      </trkpt>
      <trkpt lat="45.95574" lon="4.75552">
        <ele>228</ele>
        <time>2018-10-06T10:17:42Z</time>
      </trkpt>
      <trkpt lat="45.9557" lon="4.75548">
        <ele>227</ele>
        <time>2018-10-06T10:17:43Z</time>
      </trkpt>
      <trkpt lat="45.95565" lon="4.75544">
        <ele>226</ele>
        <time>2018-10-06T10:17:44Z</time>
      </trkpt>
      <trkpt lat="45.95561" lon="4.75539">
        <ele>226</ele>
        <time>2018-10-06T10:17:45Z</time>
      </trkpt>
      <trkpt lat="45.95557" lon="4.75536">
        <ele>226</ele>
        <time>2018-10-06T10:17:46Z</time>
      </trkpt>
      <trkpt lat="45.95553" lon="4.75531">
        <ele>225</ele>
        <time>2018-10-06T10:17:47Z</time>
      </trkpt>
      <trkpt lat="45.9555" lon="4.75526">
        <ele>225</ele>
        <time>2018-10-06T10:17:48Z</time>
      </trkpt>
      <trkpt lat="45.95548" lon="4.7552">
        <ele>225</ele>
        <time>2018-10-06T10:17:49Z</time>
      </trkpt>
      <trkpt lat="45.95544" lon="4.75514">
        <ele>225</ele>
        <time>2018-10-06T10:17:50Z</time>
      </trkpt>
      <trkpt lat="45.95541" lon="4.7551">
        <ele>225</ele>
        <time>2018-10-06T10:17:51Z</time>
      </trkpt>
      <trkpt lat="45.95539" lon="4.75504">
        <ele>225</ele>
        <time>2018-10-06T10:17:52Z</time>
      </trkpt>
      <trkpt lat="45.95537" lon="4.75495">
        <ele>228</ele>
        <time>2018-10-06T10:17:53Z</time>
      </trkpt>
      <trkpt lat="45.95536" lon="4.75486">
        <ele>228</ele>
        <time>2018-10-06T10:17:54Z</time>
      </trkpt>
      <trkpt lat="45.95535" lon="4.75479">
        <ele>227</ele>
        <time>2018-10-06T10:17:55Z</time>
      </trkpt>
      <trkpt lat="45.95533" lon="4.75472">
        <ele>227</ele>
        <time>2018-10-06T10:17:56Z</time>
      </trkpt>
      <trkpt lat="45.95531" lon="4.75465">
        <ele>226</ele>
        <time>2018-10-06T10:17:57Z</time>
      </trkpt>
      <trkpt lat="45.95528" lon="4.75458">
        <ele>226</ele>
        <time>2018-10-06T10:17:58Z</time>
      </trkpt>
      <trkpt lat="45.95524" lon="4.75451">
        <ele>226</ele>
        <time>2018-10-06T10:17:59Z</time>
      </trkpt>
      <trkpt lat="45.9552" lon="4.75445">
        <ele>223</ele>
        <time>2018-10-06T10:18:00Z</time>
      </trkpt>
      <trkpt lat="45.95515" lon="4.75438">
        <ele>222</ele>
        <time>2018-10-06T10:18:01Z</time>
      </trkpt>
      <trkpt lat="45.95512" lon="4.75432">
        <ele>222</ele>
        <time>2018-10-06T10:18:02Z</time>
      </trkpt>
      <trkpt lat="45.95509" lon="4.75425">
        <ele>222</ele>
        <time>2018-10-06T10:18:03Z</time>
      </trkpt>
      <trkpt lat="45.95508" lon="4.75419">
        <ele>223</ele>
        <time>2018-10-06T10:18:04Z</time>
      </trkpt>
      <trkpt lat="45.95505" lon="4.75411">
        <ele>224</ele>
        <time>2018-10-06T10:18:05Z</time>
      </trkpt>
      <trkpt lat="45.95503" lon="4.75403">
        <ele>224</ele>
        <time>2018-10-06T10:18:06Z</time>
      </trkpt>
      <trkpt lat="45.955" lon="4.75397">
        <ele>225</ele>
        <time>2018-10-06T10:18:07Z</time>
      </trkpt>
      <trkpt lat="45.95498" lon="4.75388">
        <ele>225</ele>
        <time>2018-10-06T10:18:08Z</time>
      </trkpt>
      <trkpt lat="45.95495" lon="4.75381">
        <ele>224</ele>
        <time>2018-10-06T10:18:09Z</time>
      </trkpt>
      <trkpt lat="45.95492" lon="4.75375">
        <ele>224</ele>
        <time>2018-10-06T10:18:10Z</time>
      </trkpt>
      <trkpt lat="45.95489" lon="4.75369">
        <ele>225</ele>
        <time>2018-10-06T10:18:11Z</time>
      </trkpt>
      <trkpt lat="45.95484" lon="4.75359">
        <ele>223</ele>
        <time>2018-10-06T10:18:13Z</time>
      </trkpt>
      <trkpt lat="45.95481" lon="4.75353">
        <ele>222</ele>
        <time>2018-10-06T10:18:14Z</time>
      </trkpt>
      <trkpt lat="45.95477" lon="4.75343">
        <ele>222</ele>
        <time>2018-10-06T10:18:16Z</time>
      </trkpt>
      <trkpt lat="45.95475" lon="4.75337">
        <ele>223</ele>
        <time>2018-10-06T10:18:17Z</time>
      </trkpt>
      <trkpt lat="45.9547" lon="4.75328">
        <ele>223</ele>
        <time>2018-10-06T10:18:19Z</time>
      </trkpt>
      <trkpt lat="45.95468" lon="4.75323">
        <ele>224</ele>
        <time>2018-10-06T10:18:20Z</time>
      </trkpt>
      <trkpt lat="45.95461" lon="4.75315">
        <ele>225</ele>
        <time>2018-10-06T10:18:22Z</time>
      </trkpt>
      <trkpt lat="45.95458" lon="4.75309">
        <ele>225</ele>
        <time>2018-10-06T10:18:23Z</time>
      </trkpt>
      <trkpt lat="45.95452" lon="4.75301">
        <ele>232</ele>
        <time>2018-10-06T10:18:25Z</time>
      </trkpt>
      <trkpt lat="45.9545" lon="4.75296">
        <ele>230</ele>
        <time>2018-10-06T10:18:26Z</time>
      </trkpt>
      <trkpt lat="45.95445" lon="4.75288">
        <ele>230</ele>
        <time>2018-10-06T10:18:28Z</time>
      </trkpt>
      <trkpt lat="45.95442" lon="4.75286">
        <ele>230</ele>
        <time>2018-10-06T10:18:29Z</time>
      </trkpt>
      <trkpt lat="45.95437" lon="4.75276">
        <ele>233</ele>
        <time>2018-10-06T10:18:32Z</time>
      </trkpt>
      <trkpt lat="45.95437" lon="4.75273">
        <ele>224</ele>
        <time>2018-10-06T10:18:33Z</time>
      </trkpt>
      <trkpt lat="45.95436" lon="4.75271">
        <ele>226</ele>
        <time>2018-10-06T10:18:34Z</time>
      </trkpt>
      <trkpt lat="45.9543" lon="4.75262">
        <ele>228</ele>
        <time>2018-10-06T10:18:35Z</time>
      </trkpt>
      <trkpt lat="45.95427" lon="4.75258">
        <ele>228</ele>
        <time>2018-10-06T10:18:36Z</time>
      </trkpt>
      <trkpt lat="45.95423" lon="4.75252">
        <ele>229</ele>
        <time>2018-10-06T10:18:37Z</time>
      </trkpt>
      <trkpt lat="45.9542" lon="4.75242">
        <ele>232</ele>
        <time>2018-10-06T10:18:39Z</time>
      </trkpt>
      <trkpt lat="45.95417" lon="4.75237">
        <ele>232</ele>
        <time>2018-10-06T10:18:40Z</time>
      </trkpt>
      <trkpt lat="45.95414" lon="4.75231">
        <ele>231</ele>
        <time>2018-10-06T10:18:41Z</time>
      </trkpt>
      <trkpt lat="45.95411" lon="4.75224">
        <ele>232</ele>
        <time>2018-10-06T10:18:42Z</time>
      </trkpt>
      <trkpt lat="45.95408" lon="4.75219">
        <ele>232</ele>
        <time>2018-10-06T10:18:43Z</time>
      </trkpt>
      <trkpt lat="45.95405" lon="4.75214">
        <ele>232</ele>
        <time>2018-10-06T10:18:44Z</time>
      </trkpt>
      <trkpt lat="45.95402" lon="4.75209">
        <ele>231</ele>
        <time>2018-10-06T10:18:45Z</time>
      </trkpt>
      <trkpt lat="45.954" lon="4.75203">
        <ele>231</ele>
        <time>2018-10-06T10:18:46Z</time>
      </trkpt>
      <trkpt lat="45.95393" lon="4.75196">
        <ele>228</ele>
        <time>2018-10-06T10:18:48Z</time>
      </trkpt>
      <trkpt lat="45.9539" lon="4.75191">
        <ele>228</ele>
        <time>2018-10-06T10:18:49Z</time>
      </trkpt>
      <trkpt lat="45.95385" lon="4.75182">
        <ele>227</ele>
        <time>2018-10-06T10:18:51Z</time>
      </trkpt>
      <trkpt lat="45.95381" lon="4.75178">
        <ele>228</ele>
        <time>2018-10-06T10:18:52Z</time>
      </trkpt>
      <trkpt lat="45.95377" lon="4.75169">
        <ele>225</ele>
        <time>2018-10-06T10:18:54Z</time>
      </trkpt>
      <trkpt lat="45.95376" lon="4.75167">
        <ele>222</ele>
        <time>2018-10-06T10:18:55Z</time>
      </trkpt>
      <trkpt lat="45.95372" lon="4.7516">
        <ele>223</ele>
        <time>2018-10-06T10:18:56Z</time>
      </trkpt>
      <trkpt lat="45.9537" lon="4.75156">
        <ele>223</ele>
        <time>2018-10-06T10:18:57Z</time>
      </trkpt>
      <trkpt lat="45.95364" lon="4.75149">
        <ele>225</ele>
        <time>2018-10-06T10:18:59Z</time>
      </trkpt>
      <trkpt lat="45.9536" lon="4.75145">
        <ele>226</ele>
        <time>2018-10-06T10:19:00Z</time>
      </trkpt>
      <trkpt lat="45.95354" lon="4.75136">
        <ele>224</ele>
        <time>2018-10-06T10:19:02Z</time>
      </trkpt>
      <trkpt lat="45.95353" lon="4.75135">
        <ele>224</ele>
        <time>2018-10-06T10:19:03Z</time>
      </trkpt>
      <trkpt lat="45.9535" lon="4.7513">
        <ele>232</ele>
        <time>2018-10-06T10:19:05Z</time>
      </trkpt>
      <trkpt lat="45.95345" lon="4.75122">
        <ele>231</ele>
        <time>2018-10-06T10:19:06Z</time>
      </trkpt>
      <trkpt lat="45.9534" lon="4.75115">
        <ele>230</ele>
        <time>2018-10-06T10:19:08Z</time>
      </trkpt>
      <trkpt lat="45.95338" lon="4.7511">
        <ele>228</ele>
        <time>2018-10-06T10:19:09Z</time>
      </trkpt>
      <trkpt lat="45.95333" lon="4.75102">
        <ele>228</ele>
        <time>2018-10-06T10:19:11Z</time>
      </trkpt>
      <trkpt lat="45.95331" lon="4.75098">
        <ele>230</ele>
        <time>2018-10-06T10:19:12Z</time>
      </trkpt>
      <trkpt lat="45.95326" lon="4.75089">
        <ele>232</ele>
        <time>2018-10-06T10:19:14Z</time>
      </trkpt>
      <trkpt lat="45.95323" lon="4.75082">
        <ele>232</ele>
        <time>2018-10-06T10:19:15Z</time>
      </trkpt>
      <trkpt lat="45.95319" lon="4.75078">
        <ele>231</ele>
        <time>2018-10-06T10:19:16Z</time>
      </trkpt>
      <trkpt lat="45.95316" lon="4.75073">
        <ele>232</ele>
        <time>2018-10-06T10:19:17Z</time>
      </trkpt>
      <trkpt lat="45.95312" lon="4.75069">
        <ele>230</ele>
        <time>2018-10-06T10:19:18Z</time>
      </trkpt>
      <trkpt lat="45.95309" lon="4.75064">
        <ele>230</ele>
        <time>2018-10-06T10:19:19Z</time>
      </trkpt>
      <trkpt lat="45.95302" lon="4.75055">
        <ele>229</ele>
        <time>2018-10-06T10:19:21Z</time>
      </trkpt>
      <trkpt lat="45.95299" lon="4.7505">
        <ele>229</ele>
        <time>2018-10-06T10:19:22Z</time>
      </trkpt>
      <trkpt lat="45.95296" lon="4.75043">
        <ele>226</ele>
        <time>2018-10-06T10:19:24Z</time>
      </trkpt>
      <trkpt lat="45.95293" lon="4.75038">
        <ele>227</ele>
        <time>2018-10-06T10:19:25Z</time>
      </trkpt>
      <trkpt lat="45.95288" lon="4.75032">
        <ele>226</ele>
        <time>2018-10-06T10:19:27Z</time>
      </trkpt>
      <trkpt lat="45.95285" lon="4.75027">
        <ele>226</ele>
        <time>2018-10-06T10:19:28Z</time>
      </trkpt>
      <trkpt lat="45.95279" lon="4.75018">
        <ele>227</ele>
        <time>2018-10-06T10:19:30Z</time>
      </trkpt>
      <trkpt lat="45.95276" lon="4.75015">
        <ele>227</ele>
        <time>2018-10-06T10:19:31Z</time>
      </trkpt>
      <trkpt lat="45.95273" lon="4.7501">
        <ele>227</ele>
        <time>2018-10-06T10:19:33Z</time>
      </trkpt>
      <trkpt lat="45.95269" lon="4.75004">
        <ele>233</ele>
        <time>2018-10-06T10:19:34Z</time>
      </trkpt>
      <trkpt lat="45.95263" lon="4.74996">
        <ele>230</ele>
        <time>2018-10-06T10:19:36Z</time>
      </trkpt>
      <trkpt lat="45.9526" lon="4.74992">
        <ele>230</ele>
        <time>2018-10-06T10:19:37Z</time>
      </trkpt>
      <trkpt lat="45.95255" lon="4.74985">
        <ele>230</ele>
        <time>2018-10-06T10:19:39Z</time>
      </trkpt>
      <trkpt lat="45.95253" lon="4.74981">
        <ele>229</ele>
        <time>2018-10-06T10:19:40Z</time>
      </trkpt>
      <trkpt lat="45.95249" lon="4.74975">
        <ele>229</ele>
        <time>2018-10-06T10:19:42Z</time>
      </trkpt>
      <trkpt lat="45.95246" lon="4.7497">
        <ele>229</ele>
        <time>2018-10-06T10:19:43Z</time>
      </trkpt>
      <trkpt lat="45.9524" lon="4.74964">
        <ele>230</ele>
        <time>2018-10-06T10:19:45Z</time>
      </trkpt>
      <trkpt lat="45.95237" lon="4.74961">
        <ele>230</ele>
        <time>2018-10-06T10:19:46Z</time>
      </trkpt>
      <trkpt lat="45.95234" lon="4.74956">
        <ele>236</ele>
        <time>2018-10-06T10:19:47Z</time>
      </trkpt>
      <trkpt lat="45.9523" lon="4.7495">
        <ele>233</ele>
        <time>2018-10-06T10:19:48Z</time>
      </trkpt>
      <trkpt lat="45.95228" lon="4.74944">
        <ele>234</ele>
        <time>2018-10-06T10:19:49Z</time>
      </trkpt>
      <trkpt lat="45.95225" lon="4.74938">
        <ele>234</ele>
        <time>2018-10-06T10:19:50Z</time>
      </trkpt>
      <trkpt lat="45.9522" lon="4.74932">
        <ele>233</ele>
        <time>2018-10-06T10:19:51Z</time>
      </trkpt>
      <trkpt lat="45.95216" lon="4.74926">
        <ele>232</ele>
        <time>2018-10-06T10:19:52Z</time>
      </trkpt>
      <trkpt lat="45.95213" lon="4.74915">
        <ele>256</ele>
        <time>2018-10-06T10:19:54Z</time>
      </trkpt>
      <trkpt lat="45.9521" lon="4.7491">
        <ele>253</ele>
        <time>2018-10-06T10:19:55Z</time>
      </trkpt>
      <trkpt lat="45.95203" lon="4.74901">
        <ele>259</ele>
        <time>2018-10-06T10:19:57Z</time>
      </trkpt>
      <trkpt lat="45.952" lon="4.74897">
        <ele>255</ele>
        <time>2018-10-06T10:19:58Z</time>
      </trkpt>
      <trkpt lat="45.95194" lon="4.74889">
        <ele>250</ele>
        <time>2018-10-06T10:20:00Z</time>
      </trkpt>
      <trkpt lat="45.95192" lon="4.74883">
        <ele>244</ele>
        <time>2018-10-06T10:20:01Z</time>
      </trkpt>
      <trkpt lat="45.95186" lon="4.74873">
        <ele>240</ele>
        <time>2018-10-06T10:20:03Z</time>
      </trkpt>
      <trkpt lat="45.95183" lon="4.74868">
        <ele>261</ele>
        <time>2018-10-06T10:20:04Z</time>
      </trkpt>
      <trkpt lat="45.95179" lon="4.74863">
        <ele>256</ele>
        <time>2018-10-06T10:20:05Z</time>
      </trkpt>
      <trkpt lat="45.95177" lon="4.74857">
        <ele>247</ele>
        <time>2018-10-06T10:20:06Z</time>
      </trkpt>
      <trkpt lat="45.95173" lon="4.74852">
        <ele>245</ele>
        <time>2018-10-06T10:20:07Z</time>
      </trkpt>
      <trkpt lat="45.9517" lon="4.74846">
        <ele>242</ele>
        <time>2018-10-06T10:20:08Z</time>
      </trkpt>
      <trkpt lat="45.95168" lon="4.74839">
        <ele>242</ele>
        <time>2018-10-06T10:20:09Z</time>
      </trkpt>
      <trkpt lat="45.95164" lon="4.74833">
        <ele>239</ele>
        <time>2018-10-06T10:20:10Z</time>
      </trkpt>
      <trkpt lat="45.9516" lon="4.74827">
        <ele>238</ele>
        <time>2018-10-06T10:20:11Z</time>
      </trkpt>
      <trkpt lat="45.95157" lon="4.74821">
        <ele>238</ele>
        <time>2018-10-06T10:20:12Z</time>
      </trkpt>
      <trkpt lat="45.95153" lon="4.74816">
        <ele>236</ele>
        <time>2018-10-06T10:20:13Z</time>
      </trkpt>
      <trkpt lat="45.95149" lon="4.74812">
        <ele>235</ele>
        <time>2018-10-06T10:20:14Z</time>
      </trkpt>
      <trkpt lat="45.95144" lon="4.74802">
        <ele>237</ele>
        <time>2018-10-06T10:20:16Z</time>
      </trkpt>
      <trkpt lat="45.95139" lon="4.74795">
        <ele>235</ele>
        <time>2018-10-06T10:20:17Z</time>
      </trkpt>
      <trkpt lat="45.95136" lon="4.74791">
        <ele>234</ele>
        <time>2018-10-06T10:20:18Z</time>
      </trkpt>
      <trkpt lat="45.95132" lon="4.74786">
        <ele>234</ele>
        <time>2018-10-06T10:20:19Z</time>
      </trkpt>
      <trkpt lat="45.95129" lon="4.7478">
        <ele>235</ele>
        <time>2018-10-06T10:20:20Z</time>
      </trkpt>
      <trkpt lat="45.95127" lon="4.74774">
        <ele>235</ele>
        <time>2018-10-06T10:20:21Z</time>
      </trkpt>
      <trkpt lat="45.95124" lon="4.74768">
        <ele>235</ele>
        <time>2018-10-06T10:20:22Z</time>
      </trkpt>
      <trkpt lat="45.95121" lon="4.74761">
        <ele>233</ele>
        <time>2018-10-06T10:20:23Z</time>
      </trkpt>
      <trkpt lat="45.9512" lon="4.74753">
        <ele>235</ele>
        <time>2018-10-06T10:20:24Z</time>
      </trkpt>
      <trkpt lat="45.95117" lon="4.74747">
        <ele>235</ele>
        <time>2018-10-06T10:20:25Z</time>
      </trkpt>
      <trkpt lat="45.95112" lon="4.74743">
        <ele>236</ele>
        <time>2018-10-06T10:20:26Z</time>
      </trkpt>
      <trkpt lat="45.95108" lon="4.74737">
        <ele>236</ele>
        <time>2018-10-06T10:20:27Z</time>
      </trkpt>
      <trkpt lat="45.95106" lon="4.74731">
        <ele>238</ele>
        <time>2018-10-06T10:20:28Z</time>
      </trkpt>
      <trkpt lat="45.95103" lon="4.74726">
        <ele>237</ele>
        <time>2018-10-06T10:20:29Z</time>
      </trkpt>
      <trkpt lat="45.95103" lon="4.74719">
        <ele>239</ele>
        <time>2018-10-06T10:20:30Z</time>
      </trkpt>
      <trkpt lat="45.95099" lon="4.74712">
        <ele>231</ele>
        <time>2018-10-06T10:20:31Z</time>
      </trkpt>
      <trkpt lat="45.95095" lon="4.74706">
        <ele>231</ele>
        <time>2018-10-06T10:20:32Z</time>
      </trkpt>
      <trkpt lat="45.95092" lon="4.747">
        <ele>233</ele>
        <time>2018-10-06T10:20:33Z</time>
      </trkpt>
      <trkpt lat="45.95087" lon="4.74693">
        <ele>233</ele>
        <time>2018-10-06T10:20:34Z</time>
      </trkpt>
      <trkpt lat="45.95083" lon="4.74688">
        <ele>233</ele>
        <time>2018-10-06T10:20:35Z</time>
      </trkpt>
      <trkpt lat="45.9508" lon="4.74683">
        <ele>233</ele>
        <time>2018-10-06T10:20:36Z</time>
      </trkpt>
      <trkpt lat="45.95076" lon="4.74676">
        <ele>233</ele>
        <time>2018-10-06T10:20:37Z</time>
      </trkpt>
      <trkpt lat="45.95072" lon="4.74666">
        <ele>235</ele>
        <time>2018-10-06T10:20:39Z</time>
      </trkpt>
      <trkpt lat="45.95069" lon="4.74661">
        <ele>235</ele>
        <time>2018-10-06T10:20:40Z</time>
      </trkpt>
      <trkpt lat="45.95066" lon="4.74655">
        <ele>235</ele>
        <time>2018-10-06T10:20:41Z</time>
      </trkpt>
      <trkpt lat="45.95063" lon="4.74649">
        <ele>235</ele>
        <time>2018-10-06T10:20:42Z</time>
      </trkpt>
      <trkpt lat="45.95057" lon="4.74646">
        <ele>233</ele>
        <time>2018-10-06T10:20:43Z</time>
      </trkpt>
      <trkpt lat="45.95053" lon="4.7464">
        <ele>233</ele>
        <time>2018-10-06T10:20:44Z</time>
      </trkpt>
      <trkpt lat="45.95049" lon="4.74637">
        <ele>232</ele>
        <time>2018-10-06T10:20:45Z</time>
      </trkpt>
      <trkpt lat="45.95044" lon="4.74634">
        <ele>230</ele>
        <time>2018-10-06T10:20:46Z</time>
      </trkpt>
      <trkpt lat="45.95041" lon="4.74628">
        <ele>230</ele>
        <time>2018-10-06T10:20:47Z</time>
      </trkpt>
      <trkpt lat="45.95038" lon="4.74622">
        <ele>230</ele>
        <time>2018-10-06T10:20:48Z</time>
      </trkpt>
      <trkpt lat="45.95033" lon="4.74612">
        <ele>231</ele>
        <time>2018-10-06T10:20:50Z</time>
      </trkpt>
      <trkpt lat="45.95027" lon="4.74604">
        <ele>229</ele>
        <time>2018-10-06T10:20:51Z</time>
      </trkpt>
      <trkpt lat="45.95025" lon="4.74599">
        <ele>229</ele>
        <time>2018-10-06T10:20:52Z</time>
      </trkpt>
      <trkpt lat="45.95022" lon="4.74593">
        <ele>229</ele>
        <time>2018-10-06T10:20:53Z</time>
      </trkpt>
      <trkpt lat="45.95018" lon="4.74587">
        <ele>229</ele>
        <time>2018-10-06T10:20:54Z</time>
      </trkpt>
      <trkpt lat="45.95015" lon="4.74581">
        <ele>229</ele>
        <time>2018-10-06T10:20:55Z</time>
      </trkpt>
      <trkpt lat="45.95013" lon="4.74574">
        <ele>230</ele>
        <time>2018-10-06T10:20:56Z</time>
      </trkpt>
      <trkpt lat="45.9501" lon="4.74568">
        <ele>230</ele>
        <time>2018-10-06T10:20:57Z</time>
      </trkpt>
      <trkpt lat="45.95009" lon="4.74559">
        <ele>232</ele>
        <time>2018-10-06T10:20:58Z</time>
      </trkpt>
      <trkpt lat="45.95006" lon="4.74553">
        <ele>232</ele>
        <time>2018-10-06T10:20:59Z</time>
      </trkpt>
      <trkpt lat="45.95002" lon="4.74547">
        <ele>232</ele>
        <time>2018-10-06T10:21:00Z</time>
      </trkpt>
      <trkpt lat="45.95" lon="4.74541">
        <ele>234</ele>
        <time>2018-10-06T10:21:01Z</time>
      </trkpt>
      <trkpt lat="45.94997" lon="4.74535">
        <ele>234</ele>
        <time>2018-10-06T10:21:02Z</time>
      </trkpt>
      <trkpt lat="45.94995" lon="4.74529">
        <ele>232</ele>
        <time>2018-10-06T10:21:03Z</time>
      </trkpt>
      <trkpt lat="45.94992" lon="4.74524">
        <ele>232</ele>
        <time>2018-10-06T10:21:04Z</time>
      </trkpt>
      <trkpt lat="45.94981" lon="4.74516">
        <ele>231</ele>
        <time>2018-10-06T10:21:05Z</time>
      </trkpt>
      <trkpt lat="45.94976" lon="4.74511">
        <ele>231</ele>
        <time>2018-10-06T10:21:06Z</time>
      </trkpt>
      <trkpt lat="45.94972" lon="4.74505">
        <ele>231</ele>
        <time>2018-10-06T10:21:07Z</time>
      </trkpt>
      <trkpt lat="45.94969" lon="4.74497">
        <ele>227</ele>
        <time>2018-10-06T10:21:08Z</time>
      </trkpt>
      <trkpt lat="45.94965" lon="4.7449">
        <ele>226</ele>
        <time>2018-10-06T10:21:09Z</time>
      </trkpt>
      <trkpt lat="45.94961" lon="4.74483">
        <ele>226</ele>
        <time>2018-10-06T10:21:10Z</time>
      </trkpt>
      <trkpt lat="45.94959" lon="4.74475">
        <ele>227</ele>
        <time>2018-10-06T10:21:11Z</time>
      </trkpt>
      <trkpt lat="45.94955" lon="4.74469">
        <ele>227</ele>
        <time>2018-10-06T10:21:12Z</time>
      </trkpt>
      <trkpt lat="45.9495" lon="4.74461">
        <ele>227</ele>
        <time>2018-10-06T10:21:13Z</time>
      </trkpt>
      <trkpt lat="45.94945" lon="4.74454">
        <ele>225</ele>
        <time>2018-10-06T10:21:14Z</time>
      </trkpt>
      <trkpt lat="45.9494" lon="4.74446">
        <ele>225</ele>
        <time>2018-10-06T10:21:15Z</time>
      </trkpt>
      <trkpt lat="45.94937" lon="4.74438">
        <ele>225</ele>
        <time>2018-10-06T10:21:16Z</time>
      </trkpt>
      <trkpt lat="45.94929" lon="4.74434">
        <ele>224</ele>
        <time>2018-10-06T10:21:17Z</time>
      </trkpt>
      <trkpt lat="45.94922" lon="4.74427">
        <ele>223</ele>
        <time>2018-10-06T10:21:18Z</time>
      </trkpt>
      <trkpt lat="45.94917" lon="4.74419">
        <ele>223</ele>
        <time>2018-10-06T10:21:19Z</time>
      </trkpt>
      <trkpt lat="45.94913" lon="4.74412">
        <ele>228</ele>
        <time>2018-10-06T10:21:20Z</time>
      </trkpt>
      <trkpt lat="45.94909" lon="4.74403">
        <ele>227</ele>
        <time>2018-10-06T10:21:21Z</time>
      </trkpt>
      <trkpt lat="45.94907" lon="4.74395">
        <ele>228</ele>
        <time>2018-10-06T10:21:22Z</time>
      </trkpt>
      <trkpt lat="45.94899" lon="4.74388">
        <ele>224</ele>
        <time>2018-10-06T10:21:23Z</time>
      </trkpt>
      <trkpt lat="45.94898" lon="4.74382">
        <ele>226</ele>
        <time>2018-10-06T10:21:24Z</time>
      </trkpt>
      <trkpt lat="45.94895" lon="4.74375">
        <ele>227</ele>
        <time>2018-10-06T10:21:25Z</time>
      </trkpt>
      <trkpt lat="45.94893" lon="4.74369">
        <ele>227</ele>
        <time>2018-10-06T10:21:26Z</time>
      </trkpt>
      <trkpt lat="45.9489" lon="4.74362">
        <ele>227</ele>
        <time>2018-10-06T10:21:27Z</time>
      </trkpt>
      <trkpt lat="45.94888" lon="4.74355">
        <ele>228</ele>
        <time>2018-10-06T10:21:28Z</time>
      </trkpt>
      <trkpt lat="45.94888" lon="4.74346">
        <ele>226</ele>
        <time>2018-10-06T10:21:29Z</time>
      </trkpt>
      <trkpt lat="45.94885" lon="4.7434">
        <ele>226</ele>
        <time>2018-10-06T10:21:30Z</time>
      </trkpt>
      <trkpt lat="45.94882" lon="4.74334">
        <ele>225</ele>
        <time>2018-10-06T10:21:31Z</time>
      </trkpt>
      <trkpt lat="45.94879" lon="4.74328">
        <ele>226</ele>
        <time>2018-10-06T10:21:32Z</time>
      </trkpt>
      <trkpt lat="45.94876" lon="4.74323">
        <ele>225</ele>
        <time>2018-10-06T10:21:33Z</time>
      </trkpt>
      <trkpt lat="45.94874" lon="4.74317">
        <ele>225</ele>
        <time>2018-10-06T10:21:34Z</time>
      </trkpt>
      <trkpt lat="45.94869" lon="4.74313">
        <ele>225</ele>
        <time>2018-10-06T10:21:35Z</time>
      </trkpt>
      <trkpt lat="45.94867" lon="4.74307">
        <ele>230</ele>
        <time>2018-10-06T10:21:36Z</time>
      </trkpt>
      <trkpt lat="45.94863" lon="4.743">
        <ele>229</ele>
        <time>2018-10-06T10:21:37Z</time>
      </trkpt>
      <trkpt lat="45.94859" lon="4.74294">
        <ele>229</ele>
        <time>2018-10-06T10:21:38Z</time>
      </trkpt>
      <trkpt lat="45.94856" lon="4.74287">
        <ele>229</ele>
        <time>2018-10-06T10:21:39Z</time>
      </trkpt>
      <trkpt lat="45.94852" lon="4.74281">
        <ele>229</ele>
        <time>2018-10-06T10:21:40Z</time>
      </trkpt>
      <trkpt lat="45.94848" lon="4.74274">
        <ele>228</ele>
        <time>2018-10-06T10:21:41Z</time>
      </trkpt>
      <trkpt lat="45.94845" lon="4.74268">
        <ele>228</ele>
        <time>2018-10-06T10:21:42Z</time>
      </trkpt>
      <trkpt lat="45.94842" lon="4.74261">
        <ele>229</ele>
        <time>2018-10-06T10:21:43Z</time>
      </trkpt>
      <trkpt lat="45.9484" lon="4.74253">
        <ele>231</ele>
        <time>2018-10-06T10:21:44Z</time>
      </trkpt>
      <trkpt lat="45.94836" lon="4.74246">
        <ele>230</ele>
        <time>2018-10-06T10:21:45Z</time>
      </trkpt>
      <trkpt lat="45.94834" lon="4.74239">
        <ele>231</ele>
        <time>2018-10-06T10:21:46Z</time>
      </trkpt>
      <trkpt lat="45.94831" lon="4.74232">
        <ele>230</ele>
        <time>2018-10-06T10:21:47Z</time>
      </trkpt>
      <trkpt lat="45.94827" lon="4.74226">
        <ele>229</ele>
        <time>2018-10-06T10:21:48Z</time>
      </trkpt>
      <trkpt lat="45.94824" lon="4.74219">
        <ele>229</ele>
        <time>2018-10-06T10:21:49Z</time>
      </trkpt>
      <trkpt lat="45.94822" lon="4.74214">
        <ele>228</ele>
        <time>2018-10-06T10:21:50Z</time>
      </trkpt>
      <trkpt lat="45.94818" lon="4.74206">
        <ele>227</ele>
        <time>2018-10-06T10:21:51Z</time>
      </trkpt>
      <trkpt lat="45.94816" lon="4.74201">
        <ele>227</ele>
        <time>2018-10-06T10:21:52Z</time>
      </trkpt>
      <trkpt lat="45.94813" lon="4.74195">
        <ele>226</ele>
        <time>2018-10-06T10:21:53Z</time>
      </trkpt>
      <trkpt lat="45.9481" lon="4.74189">
        <ele>227</ele>
        <time>2018-10-06T10:21:54Z</time>
      </trkpt>
      <trkpt lat="45.94806" lon="4.74184">
        <ele>226</ele>
        <time>2018-10-06T10:21:55Z</time>
      </trkpt>
      <trkpt lat="45.94801" lon="4.74175">
        <ele>227</ele>
        <time>2018-10-06T10:21:57Z</time>
      </trkpt>
      <trkpt lat="45.94797" lon="4.74169">
        <ele>225</ele>
        <time>2018-10-06T10:21:58Z</time>
      </trkpt>
      <trkpt lat="45.94793" lon="4.7416">
        <ele>226</ele>
        <time>2018-10-06T10:22:00Z</time>
      </trkpt>
      <trkpt lat="45.9479" lon="4.74156">
        <ele>226</ele>
        <time>2018-10-06T10:22:01Z</time>
      </trkpt>
      <trkpt lat="45.94782" lon="4.74152">
        <ele>221</ele>
        <time>2018-10-06T10:22:02Z</time>
      </trkpt>
      <trkpt lat="45.9478" lon="4.74146">
        <ele>225</ele>
        <time>2018-10-06T10:22:03Z</time>
      </trkpt>
      <trkpt lat="45.94776" lon="4.7414">
        <ele>226</ele>
        <time>2018-10-06T10:22:04Z</time>
      </trkpt>
      <trkpt lat="45.94772" lon="4.74133">
        <ele>226</ele>
        <time>2018-10-06T10:22:05Z</time>
      </trkpt>
      <trkpt lat="45.94768" lon="4.74127">
        <ele>225</ele>
        <time>2018-10-06T10:22:06Z</time>
      </trkpt>
      <trkpt lat="45.94764" lon="4.74119">
        <ele>225</ele>
        <time>2018-10-06T10:22:07Z</time>
      </trkpt>
      <trkpt lat="45.94757" lon="4.74116">
        <ele>223</ele>
        <time>2018-10-06T10:22:08Z</time>
      </trkpt>
      <trkpt lat="45.94753" lon="4.7411">
        <ele>223</ele>
        <time>2018-10-06T10:22:09Z</time>
      </trkpt>
      <trkpt lat="45.94749" lon="4.74099">
        <ele>224</ele>
        <time>2018-10-06T10:22:11Z</time>
      </trkpt>
      <trkpt lat="45.94746" lon="4.74095">
        <ele>226</ele>
        <time>2018-10-06T10:22:12Z</time>
      </trkpt>
      <trkpt lat="45.94743" lon="4.74086">
        <ele>226</ele>
        <time>2018-10-06T10:22:14Z</time>
      </trkpt>
      <trkpt lat="45.94742" lon="4.74079">
        <ele>230</ele>
        <time>2018-10-06T10:22:15Z</time>
      </trkpt>
      <trkpt lat="45.94738" lon="4.74075">
        <ele>230</ele>
        <time>2018-10-06T10:22:16Z</time>
      </trkpt>
      <trkpt lat="45.94734" lon="4.74069">
        <ele>230</ele>
        <time>2018-10-06T10:22:17Z</time>
      </trkpt>
      <trkpt lat="45.9473" lon="4.74063">
        <ele>227</ele>
        <time>2018-10-06T10:22:18Z</time>
      </trkpt>
      <trkpt lat="45.94726" lon="4.74057">
        <ele>227</ele>
        <time>2018-10-06T10:22:19Z</time>
      </trkpt>
      <trkpt lat="45.94722" lon="4.74052">
        <ele>227</ele>
        <time>2018-10-06T10:22:20Z</time>
      </trkpt>
      <trkpt lat="45.94717" lon="4.74046">
        <ele>226</ele>
        <time>2018-10-06T10:22:21Z</time>
      </trkpt>
      <trkpt lat="45.94713" lon="4.74041">
        <ele>226</ele>
        <time>2018-10-06T10:22:22Z</time>
      </trkpt>
      <trkpt lat="45.94708" lon="4.74036">
        <ele>225</ele>
        <time>2018-10-06T10:22:23Z</time>
      </trkpt>
      <trkpt lat="45.94705" lon="4.74032">
        <ele>226</ele>
        <time>2018-10-06T10:22:24Z</time>
      </trkpt>
      <trkpt lat="45.94701" lon="4.74027">
        <ele>226</ele>
        <time>2018-10-06T10:22:25Z</time>
      </trkpt>
      <trkpt lat="45.94694" lon="4.74024">
        <ele>225</ele>
        <time>2018-10-06T10:22:26Z</time>
      </trkpt>
      <trkpt lat="45.94691" lon="4.74019">
        <ele>226</ele>
        <time>2018-10-06T10:22:27Z</time>
      </trkpt>
      <trkpt lat="45.94684" lon="4.74015">
        <ele>225</ele>
        <time>2018-10-06T10:22:28Z</time>
      </trkpt>
      <trkpt lat="45.94681" lon="4.7401">
        <ele>225</ele>
        <time>2018-10-06T10:22:29Z</time>
      </trkpt>
      <trkpt lat="45.94678" lon="4.74005">
        <ele>225</ele>
        <time>2018-10-06T10:22:30Z</time>
      </trkpt>
      <trkpt lat="45.94674" lon="4.74">
        <ele>225</ele>
        <time>2018-10-06T10:22:31Z</time>
      </trkpt>
      <trkpt lat="45.9467" lon="4.73995">
        <ele>224</ele>
        <time>2018-10-06T10:22:32Z</time>
      </trkpt>
      <trkpt lat="45.94666" lon="4.7399">
        <ele>224</ele>
        <time>2018-10-06T10:22:33Z</time>
      </trkpt>
      <trkpt lat="45.94661" lon="4.7398">
        <ele>225</ele>
        <time>2018-10-06T10:22:35Z</time>
      </trkpt>
      <trkpt lat="45.94659" lon="4.73976">
        <ele>225</ele>
        <time>2018-10-06T10:22:36Z</time>
      </trkpt>
      <trkpt lat="45.94655" lon="4.73971">
        <ele>225</ele>
        <time>2018-10-06T10:22:37Z</time>
      </trkpt>
      <trkpt lat="45.94653" lon="4.73964">
        <ele>226</ele>
        <time>2018-10-06T10:22:38Z</time>
      </trkpt>
      <trkpt lat="45.94648" lon="4.73958">
        <ele>226</ele>
        <time>2018-10-06T10:22:39Z</time>
      </trkpt>
      <trkpt lat="45.94642" lon="4.73958">
        <ele>225</ele>
        <time>2018-10-06T10:22:40Z</time>
      </trkpt>
      <trkpt lat="45.94636" lon="4.73956">
        <ele>223</ele>
        <time>2018-10-06T10:22:41Z</time>
      </trkpt>
      <trkpt lat="45.94633" lon="4.73951">
        <ele>223</ele>
        <time>2018-10-06T10:22:42Z</time>
      </trkpt>
      <trkpt lat="45.94629" lon="4.73945">
        <ele>223</ele>
        <time>2018-10-06T10:22:43Z</time>
      </trkpt>
      <trkpt lat="45.94626" lon="4.73938">
        <ele>224</ele>
        <time>2018-10-06T10:22:44Z</time>
      </trkpt>
      <trkpt lat="45.94622" lon="4.73932">
        <ele>223</ele>
        <time>2018-10-06T10:22:45Z</time>
      </trkpt>
      <trkpt lat="45.94617" lon="4.73926">
        <ele>224</ele>
        <time>2018-10-06T10:22:46Z</time>
      </trkpt>
      <trkpt lat="45.94612" lon="4.7392">
        <ele>224</ele>
        <time>2018-10-06T10:22:47Z</time>
      </trkpt>
      <trkpt lat="45.94606" lon="4.73913">
        <ele>220</ele>
        <time>2018-10-06T10:22:48Z</time>
      </trkpt>
      <trkpt lat="45.94602" lon="4.73908">
        <ele>221</ele>
        <time>2018-10-06T10:22:49Z</time>
      </trkpt>
      <trkpt lat="45.94598" lon="4.73904">
        <ele>220</ele>
        <time>2018-10-06T10:22:50Z</time>
      </trkpt>
      <trkpt lat="45.94594" lon="4.73898">
        <ele>220</ele>
        <time>2018-10-06T10:22:51Z</time>
      </trkpt>
      <trkpt lat="45.9459" lon="4.73894">
        <ele>220</ele>
        <time>2018-10-06T10:22:52Z</time>
      </trkpt>
      <trkpt lat="45.94588" lon="4.73889">
        <ele>221</ele>
        <time>2018-10-06T10:22:53Z</time>
      </trkpt>
      <trkpt lat="45.94584" lon="4.73883">
        <ele>220</ele>
        <time>2018-10-06T10:22:54Z</time>
      </trkpt>
      <trkpt lat="45.9458" lon="4.73878">
        <ele>219</ele>
        <time>2018-10-06T10:22:55Z</time>
      </trkpt>
      <trkpt lat="45.94576" lon="4.73872">
        <ele>219</ele>
        <time>2018-10-06T10:22:56Z</time>
      </trkpt>
      <trkpt lat="45.94572" lon="4.73868">
        <ele>219</ele>
        <time>2018-10-06T10:22:57Z</time>
      </trkpt>
      <trkpt lat="45.94568" lon="4.73864">
        <ele>219</ele>
        <time>2018-10-06T10:22:58Z</time>
      </trkpt>
      <trkpt lat="45.94557" lon="4.73866">
        <ele>215</ele>
        <time>2018-10-06T10:22:59Z</time>
      </trkpt>
      <trkpt lat="45.94548" lon="4.73866">
        <ele>211</ele>
        <time>2018-10-06T10:23:00Z</time>
      </trkpt>
      <trkpt lat="45.94545" lon="4.73861">
        <ele>210</ele>
        <time>2018-10-06T10:23:01Z</time>
      </trkpt>
      <trkpt lat="45.94539" lon="4.73853">
        <ele>209</ele>
        <time>2018-10-06T10:23:03Z</time>
      </trkpt>
      <trkpt lat="45.94539" lon="4.73849">
        <ele>209</ele>
        <time>2018-10-06T10:23:04Z</time>
      </trkpt>
      <trkpt lat="45.94535" lon="4.73845">
        <ele>209</ele>
        <time>2018-10-06T10:23:05Z</time>
      </trkpt>
      <trkpt lat="45.94531" lon="4.73841">
        <ele>209</ele>
        <time>2018-10-06T10:23:06Z</time>
      </trkpt>
      <trkpt lat="45.94524" lon="4.73834">
        <ele>209</ele>
        <time>2018-10-06T10:23:08Z</time>
      </trkpt>
      <trkpt lat="45.94522" lon="4.73829">
        <ele>210</ele>
        <time>2018-10-06T10:23:09Z</time>
      </trkpt>
      <trkpt lat="45.94513" lon="4.73829">
        <ele>209</ele>
        <time>2018-10-06T10:23:11Z</time>
      </trkpt>
      <trkpt lat="45.9451" lon="4.73826">
        <ele>209</ele>
        <time>2018-10-06T10:23:12Z</time>
      </trkpt>
      <trkpt lat="45.94508" lon="4.73818">
        <ele>210</ele>
        <time>2018-10-06T10:23:13Z</time>
      </trkpt>
      <trkpt lat="45.94505" lon="4.73814">
        <ele>210</ele>
        <time>2018-10-06T10:23:14Z</time>
      </trkpt>
      <trkpt lat="45.94502" lon="4.73809">
        <ele>210</ele>
        <time>2018-10-06T10:23:15Z</time>
      </trkpt>
      <trkpt lat="45.94498" lon="4.73804">
        <ele>210</ele>
        <time>2018-10-06T10:23:16Z</time>
      </trkpt>
      <trkpt lat="45.94492" lon="4.73795">
        <ele>211</ele>
        <time>2018-10-06T10:23:18Z</time>
      </trkpt>
      <trkpt lat="45.94488" lon="4.73791">
        <ele>211</ele>
        <time>2018-10-06T10:23:19Z</time>
      </trkpt>
      <trkpt lat="45.94485" lon="4.73787">
        <ele>211</ele>
        <time>2018-10-06T10:23:20Z</time>
      </trkpt>
      <trkpt lat="45.94482" lon="4.73781">
        <ele>211</ele>
        <time>2018-10-06T10:23:21Z</time>
      </trkpt>
      <trkpt lat="45.9448" lon="4.73775">
        <ele>212</ele>
        <time>2018-10-06T10:23:22Z</time>
      </trkpt>
      <trkpt lat="45.94481" lon="4.73767">
        <ele>215</ele>
        <time>2018-10-06T10:23:23Z</time>
      </trkpt>
      <trkpt lat="45.94483" lon="4.73759">
        <ele>217</ele>
        <time>2018-10-06T10:23:24Z</time>
      </trkpt>
      <trkpt lat="45.94485" lon="4.73751">
        <ele>220</ele>
        <time>2018-10-06T10:23:25Z</time>
      </trkpt>
      <trkpt lat="45.94486" lon="4.73744">
        <ele>222</ele>
        <time>2018-10-06T10:23:26Z</time>
      </trkpt>
      <trkpt lat="45.94487" lon="4.73737">
        <ele>224</ele>
        <time>2018-10-06T10:23:27Z</time>
      </trkpt>
      <trkpt lat="45.94487" lon="4.73725">
        <ele>226</ele>
        <time>2018-10-06T10:23:29Z</time>
      </trkpt>
      <trkpt lat="45.94488" lon="4.73719">
        <ele>227</ele>
        <time>2018-10-06T10:23:30Z</time>
      </trkpt>
      <trkpt lat="45.94489" lon="4.73712">
        <ele>229</ele>
        <time>2018-10-06T10:23:31Z</time>
      </trkpt>
      <trkpt lat="45.9449" lon="4.73705">
        <ele>229</ele>
        <time>2018-10-06T10:23:32Z</time>
      </trkpt>
      <trkpt lat="45.94492" lon="4.73699">
        <ele>230</ele>
        <time>2018-10-06T10:23:33Z</time>
      </trkpt>
      <trkpt lat="45.94491" lon="4.73691">
        <ele>230</ele>
        <time>2018-10-06T10:23:34Z</time>
      </trkpt>
      <trkpt lat="45.94493" lon="4.73684">
        <ele>231</ele>
        <time>2018-10-06T10:23:35Z</time>
      </trkpt>
      <trkpt lat="45.94494" lon="4.73676">
        <ele>230</ele>
        <time>2018-10-06T10:23:36Z</time>
      </trkpt>
      <trkpt lat="45.94495" lon="4.73669">
        <ele>231</ele>
        <time>2018-10-06T10:23:37Z</time>
      </trkpt>
      <trkpt lat="45.94495" lon="4.73662">
        <ele>231</ele>
        <time>2018-10-06T10:23:38Z</time>
      </trkpt>
      <trkpt lat="45.94495" lon="4.73656">
        <ele>232</ele>
        <time>2018-10-06T10:23:39Z</time>
      </trkpt>
      <trkpt lat="45.94496" lon="4.73648">
        <ele>232</ele>
        <time>2018-10-06T10:23:40Z</time>
      </trkpt>
      <trkpt lat="45.94496" lon="4.73641">
        <ele>233</ele>
        <time>2018-10-06T10:23:41Z</time>
      </trkpt>
      <trkpt lat="45.94497" lon="4.73634">
        <ele>233</ele>
        <time>2018-10-06T10:23:42Z</time>
      </trkpt>
      <trkpt lat="45.94497" lon="4.73628">
        <ele>233</ele>
        <time>2018-10-06T10:23:43Z</time>
      </trkpt>
      <trkpt lat="45.94498" lon="4.73621">
        <ele>233</ele>
        <time>2018-10-06T10:23:44Z</time>
      </trkpt>
      <trkpt lat="45.94499" lon="4.73614">
        <ele>233</ele>
        <time>2018-10-06T10:23:45Z</time>
      </trkpt>
      <trkpt lat="45.94499" lon="4.73607">
        <ele>233</ele>
        <time>2018-10-06T10:23:46Z</time>
      </trkpt>
      <trkpt lat="45.945" lon="4.73598">
        <ele>233</ele>
        <time>2018-10-06T10:23:47Z</time>
      </trkpt>
      <trkpt lat="45.945" lon="4.7359">
        <ele>233</ele>
        <time>2018-10-06T10:23:48Z</time>
      </trkpt>
      <trkpt lat="45.94503" lon="4.73581">
        <ele>229</ele>
        <time>2018-10-06T10:23:49Z</time>
      </trkpt>
      <trkpt lat="45.94502" lon="4.73572">
        <ele>229</ele>
        <time>2018-10-06T10:23:50Z</time>
      </trkpt>
      <trkpt lat="45.94502" lon="4.73563">
        <ele>228</ele>
        <time>2018-10-06T10:23:51Z</time>
      </trkpt>
      <trkpt lat="45.94501" lon="4.73555">
        <ele>229</ele>
        <time>2018-10-06T10:23:52Z</time>
      </trkpt>
      <trkpt lat="45.94502" lon="4.73546">
        <ele>229</ele>
        <time>2018-10-06T10:23:53Z</time>
      </trkpt>
      <trkpt lat="45.94502" lon="4.73539">
        <ele>229</ele>
        <time>2018-10-06T10:23:54Z</time>
      </trkpt>
      <trkpt lat="45.94502" lon="4.7353">
        <ele>228</ele>
        <time>2018-10-06T10:23:55Z</time>
      </trkpt>
      <trkpt lat="45.94502" lon="4.7352">
        <ele>228</ele>
        <time>2018-10-06T10:23:56Z</time>
      </trkpt>
      <trkpt lat="45.94502" lon="4.7351">
        <ele>227</ele>
        <time>2018-10-06T10:23:57Z</time>
      </trkpt>
      <trkpt lat="45.94502" lon="4.73502">
        <ele>228</ele>
        <time>2018-10-06T10:23:58Z</time>
      </trkpt>
      <trkpt lat="45.94502" lon="4.73493">
        <ele>227</ele>
        <time>2018-10-06T10:23:59Z</time>
      </trkpt>
      <trkpt lat="45.94502" lon="4.73483">
        <ele>227</ele>
        <time>2018-10-06T10:24:00Z</time>
      </trkpt>
      <trkpt lat="45.94501" lon="4.73474">
        <ele>227</ele>
        <time>2018-10-06T10:24:01Z</time>
      </trkpt>
      <trkpt lat="45.94501" lon="4.73465">
        <ele>227</ele>
        <time>2018-10-06T10:24:02Z</time>
      </trkpt>
      <trkpt lat="45.94503" lon="4.73454">
        <ele>227</ele>
        <time>2018-10-06T10:24:03Z</time>
      </trkpt>
      <trkpt lat="45.94502" lon="4.73446">
        <ele>227</ele>
        <time>2018-10-06T10:24:04Z</time>
      </trkpt>
      <trkpt lat="45.94504" lon="4.73435">
        <ele>223</ele>
        <time>2018-10-06T10:24:05Z</time>
      </trkpt>
      <trkpt lat="45.94503" lon="4.73425">
        <ele>221</ele>
        <time>2018-10-06T10:24:06Z</time>
      </trkpt>
      <trkpt lat="45.94503" lon="4.73413">
        <ele>219</ele>
        <time>2018-10-06T10:24:07Z</time>
      </trkpt>
      <trkpt lat="45.94503" lon="4.73402">
        <ele>218</ele>
        <time>2018-10-06T10:24:08Z</time>
      </trkpt>
      <trkpt lat="45.94503" lon="4.73391">
        <ele>219</ele>
        <time>2018-10-06T10:24:09Z</time>
      </trkpt>
      <trkpt lat="45.945" lon="4.73381">
        <ele>219</ele>
        <time>2018-10-06T10:24:10Z</time>
      </trkpt>
      <trkpt lat="45.94499" lon="4.73369">
        <ele>219</ele>
        <time>2018-10-06T10:24:11Z</time>
      </trkpt>
      <trkpt lat="45.94498" lon="4.73359">
        <ele>221</ele>
        <time>2018-10-06T10:24:12Z</time>
      </trkpt>
      <trkpt lat="45.94497" lon="4.73348">
        <ele>221</ele>
        <time>2018-10-06T10:24:13Z</time>
      </trkpt>
      <trkpt lat="45.94496" lon="4.73337">
        <ele>221</ele>
        <time>2018-10-06T10:24:14Z</time>
      </trkpt>
      <trkpt lat="45.94495" lon="4.73326">
        <ele>221</ele>
        <time>2018-10-06T10:24:15Z</time>
      </trkpt>
      <trkpt lat="45.94493" lon="4.73315">
        <ele>221</ele>
        <time>2018-10-06T10:24:16Z</time>
      </trkpt>
      <trkpt lat="45.94491" lon="4.73304">
        <ele>220</ele>
        <time>2018-10-06T10:24:17Z</time>
      </trkpt>
      <trkpt lat="45.94492" lon="4.73292">
        <ele>222</ele>
        <time>2018-10-06T10:24:18Z</time>
      </trkpt>
      <trkpt lat="45.94491" lon="4.7328">
        <ele>222</ele>
        <time>2018-10-06T10:24:19Z</time>
      </trkpt>
      <trkpt lat="45.94489" lon="4.73268">
        <ele>220</ele>
        <time>2018-10-06T10:24:20Z</time>
      </trkpt>
      <trkpt lat="45.94487" lon="4.73256">
        <ele>219</ele>
        <time>2018-10-06T10:24:21Z</time>
      </trkpt>
      <trkpt lat="45.94485" lon="4.73244">
        <ele>219</ele>
        <time>2018-10-06T10:24:22Z</time>
      </trkpt>
      <trkpt lat="45.94484" lon="4.73232">
        <ele>219</ele>
        <time>2018-10-06T10:24:23Z</time>
      </trkpt>
      <trkpt lat="45.94482" lon="4.7322">
        <ele>227</ele>
        <time>2018-10-06T10:24:24Z</time>
      </trkpt>
      <trkpt lat="45.94481" lon="4.73209">
        <ele>226</ele>
        <time>2018-10-06T10:24:25Z</time>
      </trkpt>
      <trkpt lat="45.9448" lon="4.73194">
        <ele>223</ele>
        <time>2018-10-06T10:24:26Z</time>
      </trkpt>
      <trkpt lat="45.94478" lon="4.73181">
        <ele>221</ele>
        <time>2018-10-06T10:24:27Z</time>
      </trkpt>
      <trkpt lat="45.94477" lon="4.73169">
        <ele>219</ele>
        <time>2018-10-06T10:24:28Z</time>
      </trkpt>
      <trkpt lat="45.94474" lon="4.73159">
        <ele>216</ele>
        <time>2018-10-06T10:24:29Z</time>
      </trkpt>
      <trkpt lat="45.9447" lon="4.73149">
        <ele>216</ele>
        <time>2018-10-06T10:24:30Z</time>
      </trkpt>
      <trkpt lat="45.94468" lon="4.73139">
        <ele>214</ele>
        <time>2018-10-06T10:24:31Z</time>
      </trkpt>
      <trkpt lat="45.94468" lon="4.73131">
        <ele>214</ele>
        <time>2018-10-06T10:24:32Z</time>
      </trkpt>
      <trkpt lat="45.94466" lon="4.73122">
        <ele>213</ele>
        <time>2018-10-06T10:24:33Z</time>
      </trkpt>
      <trkpt lat="45.94465" lon="4.73111">
        <ele>212</ele>
        <time>2018-10-06T10:24:34Z</time>
      </trkpt>
      <trkpt lat="45.94463" lon="4.73101">
        <ele>212</ele>
        <time>2018-10-06T10:24:35Z</time>
      </trkpt>
      <trkpt lat="45.94461" lon="4.73089">
        <ele>211</ele>
        <time>2018-10-06T10:24:36Z</time>
      </trkpt>
      <trkpt lat="45.9446" lon="4.73079">
        <ele>211</ele>
        <time>2018-10-06T10:24:37Z</time>
      </trkpt>
      <trkpt lat="45.9446" lon="4.7307">
        <ele>211</ele>
        <time>2018-10-06T10:24:38Z</time>
      </trkpt>
      <trkpt lat="45.94459" lon="4.73061">
        <ele>210</ele>
        <time>2018-10-06T10:24:39Z</time>
      </trkpt>
      <trkpt lat="45.94458" lon="4.73053">
        <ele>212</ele>
        <time>2018-10-06T10:24:40Z</time>
      </trkpt>
      <trkpt lat="45.94457" lon="4.73047">
        <ele>212</ele>
        <time>2018-10-06T10:24:41Z</time>
      </trkpt>
      <trkpt lat="45.94456" lon="4.73039">
        <ele>213</ele>
        <time>2018-10-06T10:24:42Z</time>
      </trkpt>
      <trkpt lat="45.94456" lon="4.73026">
        <ele>215</ele>
        <time>2018-10-06T10:24:44Z</time>
      </trkpt>
      <trkpt lat="45.94456" lon="4.73021">
        <ele>215</ele>
        <time>2018-10-06T10:24:45Z</time>
      </trkpt>
      <trkpt lat="45.94454" lon="4.73009">
        <ele>217</ele>
        <time>2018-10-06T10:24:47Z</time>
      </trkpt>
      <trkpt lat="45.94452" lon="4.73002">
        <ele>217</ele>
        <time>2018-10-06T10:24:48Z</time>
      </trkpt>
      <trkpt lat="45.9445" lon="4.72989">
        <ele>217</ele>
        <time>2018-10-06T10:24:50Z</time>
      </trkpt>
      <trkpt lat="45.9445" lon="4.72983">
        <ele>217</ele>
        <time>2018-10-06T10:24:51Z</time>
      </trkpt>
      <trkpt lat="45.94448" lon="4.72975">
        <ele>217</ele>
        <time>2018-10-06T10:24:52Z</time>
      </trkpt>
      <trkpt lat="45.94447" lon="4.72969">
        <ele>217</ele>
        <time>2018-10-06T10:24:53Z</time>
      </trkpt>
      <trkpt lat="45.94445" lon="4.72962">
        <ele>217</ele>
        <time>2018-10-06T10:24:54Z</time>
      </trkpt>
      <trkpt lat="45.94444" lon="4.72955">
        <ele>217</ele>
        <time>2018-10-06T10:24:55Z</time>
      </trkpt>
      <trkpt lat="45.94443" lon="4.72948">
        <ele>217</ele>
        <time>2018-10-06T10:24:56Z</time>
      </trkpt>
      <trkpt lat="45.94441" lon="4.72943">
        <ele>217</ele>
        <time>2018-10-06T10:24:57Z</time>
      </trkpt>
      <trkpt lat="45.94441" lon="4.72935">
        <ele>218</ele>
        <time>2018-10-06T10:24:58Z</time>
      </trkpt>
      <trkpt lat="45.9444" lon="4.72929">
        <ele>219</ele>
        <time>2018-10-06T10:24:59Z</time>
      </trkpt>
      <trkpt lat="45.94439" lon="4.72922">
        <ele>219</ele>
        <time>2018-10-06T10:25:00Z</time>
      </trkpt>
      <trkpt lat="45.94438" lon="4.72915">
        <ele>220</ele>
        <time>2018-10-06T10:25:01Z</time>
      </trkpt>
      <trkpt lat="45.94438" lon="4.72908">
        <ele>220</ele>
        <time>2018-10-06T10:25:02Z</time>
      </trkpt>
      <trkpt lat="45.94436" lon="4.72902">
        <ele>219</ele>
        <time>2018-10-06T10:25:03Z</time>
      </trkpt>
      <trkpt lat="45.94434" lon="4.7289">
        <ele>219</ele>
        <time>2018-10-06T10:25:05Z</time>
      </trkpt>
      <trkpt lat="45.94433" lon="4.72884">
        <ele>219</ele>
        <time>2018-10-06T10:25:06Z</time>
      </trkpt>
      <trkpt lat="45.94432" lon="4.72871">
        <ele>219</ele>
        <time>2018-10-06T10:25:08Z</time>
      </trkpt>
      <trkpt lat="45.94429" lon="4.72864">
        <ele>218</ele>
        <time>2018-10-06T10:25:09Z</time>
      </trkpt>
      <trkpt lat="45.94428" lon="4.72856">
        <ele>218</ele>
        <time>2018-10-06T10:25:10Z</time>
      </trkpt>
      <trkpt lat="45.94427" lon="4.72849">
        <ele>217</ele>
        <time>2018-10-06T10:25:11Z</time>
      </trkpt>
      <trkpt lat="45.94424" lon="4.72839">
        <ele>215</ele>
        <time>2018-10-06T10:25:12Z</time>
      </trkpt>
      <trkpt lat="45.94424" lon="4.72832">
        <ele>216</ele>
        <time>2018-10-06T10:25:13Z</time>
      </trkpt>
      <trkpt lat="45.94423" lon="4.72822">
        <ele>215</ele>
        <time>2018-10-06T10:25:14Z</time>
      </trkpt>
      <trkpt lat="45.94422" lon="4.72814">
        <ele>215</ele>
        <time>2018-10-06T10:25:15Z</time>
      </trkpt>
      <trkpt lat="45.9442" lon="4.72805">
        <ele>216</ele>
        <time>2018-10-06T10:25:16Z</time>
      </trkpt>
      <trkpt lat="45.94418" lon="4.72797">
        <ele>216</ele>
        <time>2018-10-06T10:25:17Z</time>
      </trkpt>
      <trkpt lat="45.94417" lon="4.72788">
        <ele>215</ele>
        <time>2018-10-06T10:25:18Z</time>
      </trkpt>
      <trkpt lat="45.94415" lon="4.7278">
        <ele>215</ele>
        <time>2018-10-06T10:25:19Z</time>
      </trkpt>
      <trkpt lat="45.94414" lon="4.72771">
        <ele>215</ele>
        <time>2018-10-06T10:25:20Z</time>
      </trkpt>
      <trkpt lat="45.94413" lon="4.72761">
        <ele>215</ele>
        <time>2018-10-06T10:25:21Z</time>
      </trkpt>
      <trkpt lat="45.94412" lon="4.72752">
        <ele>216</ele>
        <time>2018-10-06T10:25:22Z</time>
      </trkpt>
      <trkpt lat="45.94411" lon="4.72743">
        <ele>216</ele>
        <time>2018-10-06T10:25:23Z</time>
      </trkpt>
      <trkpt lat="45.94408" lon="4.72733">
        <ele>216</ele>
        <time>2018-10-06T10:25:24Z</time>
      </trkpt>
      <trkpt lat="45.94407" lon="4.72724">
        <ele>215</ele>
        <time>2018-10-06T10:25:25Z</time>
      </trkpt>
      <trkpt lat="45.94406" lon="4.72716">
        <ele>215</ele>
        <time>2018-10-06T10:25:26Z</time>
      </trkpt>
      <trkpt lat="45.94405" lon="4.72708">
        <ele>215</ele>
        <time>2018-10-06T10:25:27Z</time>
      </trkpt>
      <trkpt lat="45.94405" lon="4.72699">
        <ele>214</ele>
        <time>2018-10-06T10:25:28Z</time>
      </trkpt>
      <trkpt lat="45.94405" lon="4.7269">
        <ele>213</ele>
        <time>2018-10-06T10:25:29Z</time>
      </trkpt>
      <trkpt lat="45.94404" lon="4.7268">
        <ele>212</ele>
        <time>2018-10-06T10:25:30Z</time>
      </trkpt>
      <trkpt lat="45.94403" lon="4.7267">
        <ele>212</ele>
        <time>2018-10-06T10:25:31Z</time>
      </trkpt>
      <trkpt lat="45.94402" lon="4.7266">
        <ele>212</ele>
        <time>2018-10-06T10:25:32Z</time>
      </trkpt>
      <trkpt lat="45.944" lon="4.7265">
        <ele>212</ele>
        <time>2018-10-06T10:25:33Z</time>
      </trkpt>
      <trkpt lat="45.94399" lon="4.7264">
        <ele>212</ele>
        <time>2018-10-06T10:25:34Z</time>
      </trkpt>
      <trkpt lat="45.94398" lon="4.7263">
        <ele>211</ele>
        <time>2018-10-06T10:25:35Z</time>
      </trkpt>
      <trkpt lat="45.94398" lon="4.72622">
        <ele>211</ele>
        <time>2018-10-06T10:25:36Z</time>
      </trkpt>
      <trkpt lat="45.94398" lon="4.72613">
        <ele>211</ele>
        <time>2018-10-06T10:25:37Z</time>
      </trkpt>
      <trkpt lat="45.94397" lon="4.72604">
        <ele>211</ele>
        <time>2018-10-06T10:25:38Z</time>
      </trkpt>
      <trkpt lat="45.94396" lon="4.72595">
        <ele>212</ele>
        <time>2018-10-06T10:25:39Z</time>
      </trkpt>
      <trkpt lat="45.94394" lon="4.72586">
        <ele>213</ele>
        <time>2018-10-06T10:25:40Z</time>
      </trkpt>
      <trkpt lat="45.94392" lon="4.72577">
        <ele>226</ele>
        <time>2018-10-06T10:25:41Z</time>
      </trkpt>
      <trkpt lat="45.94391" lon="4.72568">
        <ele>224</ele>
        <time>2018-10-06T10:25:42Z</time>
      </trkpt>
      <trkpt lat="45.94389" lon="4.72561">
        <ele>221</ele>
        <time>2018-10-06T10:25:43Z</time>
      </trkpt>
      <trkpt lat="45.94387" lon="4.72553">
        <ele>220</ele>
        <time>2018-10-06T10:25:44Z</time>
      </trkpt>
      <trkpt lat="45.94385" lon="4.72545">
        <ele>220</ele>
        <time>2018-10-06T10:25:45Z</time>
      </trkpt>
      <trkpt lat="45.94383" lon="4.72538">
        <ele>220</ele>
        <time>2018-10-06T10:25:46Z</time>
      </trkpt>
      <trkpt lat="45.94384" lon="4.72529">
        <ele>220</ele>
        <time>2018-10-06T10:25:47Z</time>
      </trkpt>
      <trkpt lat="45.94382" lon="4.72523">
        <ele>219</ele>
        <time>2018-10-06T10:25:48Z</time>
      </trkpt>
      <trkpt lat="45.94379" lon="4.72516">
        <ele>218</ele>
        <time>2018-10-06T10:25:49Z</time>
      </trkpt>
      <trkpt lat="45.94378" lon="4.72509">
        <ele>218</ele>
        <time>2018-10-06T10:25:50Z</time>
      </trkpt>
      <trkpt lat="45.94376" lon="4.72502">
        <ele>217</ele>
        <time>2018-10-06T10:25:51Z</time>
      </trkpt>
      <trkpt lat="45.94373" lon="4.72496">
        <ele>216</ele>
        <time>2018-10-06T10:25:52Z</time>
      </trkpt>
      <trkpt lat="45.9437" lon="4.72488">
        <ele>215</ele>
        <time>2018-10-06T10:25:53Z</time>
      </trkpt>
      <trkpt lat="45.94366" lon="4.72481">
        <ele>214</ele>
        <time>2018-10-06T10:25:54Z</time>
      </trkpt>
      <trkpt lat="45.94364" lon="4.72473">
        <ele>210</ele>
        <time>2018-10-06T10:25:55Z</time>
      </trkpt>
      <trkpt lat="45.9436" lon="4.72468">
        <ele>210</ele>
        <time>2018-10-06T10:25:56Z</time>
      </trkpt>
      <trkpt lat="45.94357" lon="4.72463">
        <ele>211</ele>
        <time>2018-10-06T10:25:57Z</time>
      </trkpt>
      <trkpt lat="45.94356" lon="4.72456">
        <ele>210</ele>
        <time>2018-10-06T10:25:58Z</time>
      </trkpt>
      <trkpt lat="45.94353" lon="4.72451">
        <ele>209</ele>
        <time>2018-10-06T10:25:59Z</time>
      </trkpt>
      <trkpt lat="45.94349" lon="4.72447">
        <ele>210</ele>
        <time>2018-10-06T10:26:00Z</time>
      </trkpt>
      <trkpt lat="45.94347" lon="4.72441">
        <ele>210</ele>
        <time>2018-10-06T10:26:01Z</time>
      </trkpt>
      <trkpt lat="45.94345" lon="4.72434">
        <ele>211</ele>
        <time>2018-10-06T10:26:02Z</time>
      </trkpt>
      <trkpt lat="45.94342" lon="4.72426">
        <ele>210</ele>
        <time>2018-10-06T10:26:03Z</time>
      </trkpt>
      <trkpt lat="45.94339" lon="4.72419">
        <ele>208</ele>
        <time>2018-10-06T10:26:04Z</time>
      </trkpt>
      <trkpt lat="45.94335" lon="4.72414">
        <ele>207</ele>
        <time>2018-10-06T10:26:05Z</time>
      </trkpt>
      <trkpt lat="45.94332" lon="4.72408">
        <ele>207</ele>
        <time>2018-10-06T10:26:06Z</time>
      </trkpt>
      <trkpt lat="45.94329" lon="4.72403">
        <ele>207</ele>
        <time>2018-10-06T10:26:07Z</time>
      </trkpt>
      <trkpt lat="45.94326" lon="4.72397">
        <ele>207</ele>
        <time>2018-10-06T10:26:08Z</time>
      </trkpt>
      <trkpt lat="45.94322" lon="4.72392">
        <ele>207</ele>
        <time>2018-10-06T10:26:09Z</time>
      </trkpt>
      <trkpt lat="45.94319" lon="4.72385">
        <ele>207</ele>
        <time>2018-10-06T10:26:10Z</time>
      </trkpt>
      <trkpt lat="45.94316" lon="4.72379">
        <ele>221</ele>
        <time>2018-10-06T10:26:11Z</time>
      </trkpt>
      <trkpt lat="45.94312" lon="4.72372">
        <ele>220</ele>
        <time>2018-10-06T10:26:12Z</time>
      </trkpt>
      <trkpt lat="45.94308" lon="4.72365">
        <ele>217</ele>
        <time>2018-10-06T10:26:13Z</time>
      </trkpt>
      <trkpt lat="45.94305" lon="4.7236">
        <ele>215</ele>
        <time>2018-10-06T10:26:14Z</time>
      </trkpt>
      <trkpt lat="45.94302" lon="4.72353">
        <ele>224</ele>
        <time>2018-10-06T10:26:15Z</time>
      </trkpt>
      <trkpt lat="45.94301" lon="4.72347">
        <ele>222</ele>
        <time>2018-10-06T10:26:16Z</time>
      </trkpt>
      <trkpt lat="45.94297" lon="4.72341">
        <ele>223</ele>
        <time>2018-10-06T10:26:17Z</time>
      </trkpt>
      <trkpt lat="45.94295" lon="4.72334">
        <ele>223</ele>
        <time>2018-10-06T10:26:18Z</time>
      </trkpt>
      <trkpt lat="45.94289" lon="4.72325">
        <ele>219</ele>
        <time>2018-10-06T10:26:19Z</time>
      </trkpt>
      <trkpt lat="45.94287" lon="4.72318">
        <ele>214</ele>
        <time>2018-10-06T10:26:20Z</time>
      </trkpt>
      <trkpt lat="45.94283" lon="4.72311">
        <ele>212</ele>
        <time>2018-10-06T10:26:21Z</time>
      </trkpt>
      <trkpt lat="45.94283" lon="4.72303">
        <ele>211</ele>
        <time>2018-10-06T10:26:22Z</time>
      </trkpt>
      <trkpt lat="45.94281" lon="4.72297">
        <ele>211</ele>
        <time>2018-10-06T10:26:23Z</time>
      </trkpt>
      <trkpt lat="45.94279" lon="4.7229">
        <ele>211</ele>
        <time>2018-10-06T10:26:24Z</time>
      </trkpt>
      <trkpt lat="45.94277" lon="4.72284">
        <ele>211</ele>
        <time>2018-10-06T10:26:25Z</time>
      </trkpt>
      <trkpt lat="45.9427" lon="4.72276">
        <ele>211</ele>
        <time>2018-10-06T10:26:27Z</time>
      </trkpt>
      <trkpt lat="45.94266" lon="4.72274">
        <ele>211</ele>
        <time>2018-10-06T10:26:28Z</time>
      </trkpt>
      <trkpt lat="45.94257" lon="4.72274">
        <ele>211</ele>
        <time>2018-10-06T10:26:30Z</time>
      </trkpt>
      <trkpt lat="45.94254" lon="4.72276">
        <ele>211</ele>
        <time>2018-10-06T10:26:31Z</time>
      </trkpt>
      <trkpt lat="45.94249" lon="4.72278">
        <ele>211</ele>
        <time>2018-10-06T10:26:32Z</time>
      </trkpt>
      <trkpt lat="45.94245" lon="4.72281">
        <ele>211</ele>
        <time>2018-10-06T10:26:33Z</time>
      </trkpt>
      <trkpt lat="45.94237" lon="4.72285">
        <ele>211</ele>
        <time>2018-10-06T10:26:35Z</time>
      </trkpt>
      <trkpt lat="45.94233" lon="4.72287">
        <ele>211</ele>
        <time>2018-10-06T10:26:36Z</time>
      </trkpt>
      <trkpt lat="45.94226" lon="4.7229">
        <ele>212</ele>
        <time>2018-10-06T10:26:38Z</time>
      </trkpt>
      <trkpt lat="45.94221" lon="4.72291">
        <ele>212</ele>
        <time>2018-10-06T10:26:39Z</time>
      </trkpt>
      <trkpt lat="45.94217" lon="4.72292">
        <ele>212</ele>
        <time>2018-10-06T10:26:40Z</time>
      </trkpt>
      <trkpt lat="45.94212" lon="4.72292">
        <ele>212</ele>
        <time>2018-10-06T10:26:41Z</time>
      </trkpt>
      <trkpt lat="45.94207" lon="4.72294">
        <ele>212</ele>
        <time>2018-10-06T10:26:42Z</time>
      </trkpt>
      <trkpt lat="45.94202" lon="4.72297">
        <ele>212</ele>
        <time>2018-10-06T10:26:43Z</time>
      </trkpt>
      <trkpt lat="45.94197" lon="4.72298">
        <ele>212</ele>
        <time>2018-10-06T10:26:44Z</time>
      </trkpt>
      <trkpt lat="45.94192" lon="4.72296">
        <ele>211</ele>
        <time>2018-10-06T10:26:45Z</time>
      </trkpt>
      <trkpt lat="45.94187" lon="4.72295">
        <ele>211</ele>
        <time>2018-10-06T10:26:46Z</time>
      </trkpt>
      <trkpt lat="45.94182" lon="4.72295">
        <ele>211</ele>
        <time>2018-10-06T10:26:47Z</time>
      </trkpt>
      <trkpt lat="45.94178" lon="4.72296">
        <ele>211</ele>
        <time>2018-10-06T10:26:48Z</time>
      </trkpt>
      <trkpt lat="45.94172" lon="4.72294">
        <ele>211</ele>
        <time>2018-10-06T10:26:49Z</time>
      </trkpt>
      <trkpt lat="45.94167" lon="4.72293">
        <ele>211</ele>
        <time>2018-10-06T10:26:50Z</time>
      </trkpt>
      <trkpt lat="45.94161" lon="4.72291">
        <ele>212</ele>
        <time>2018-10-06T10:26:51Z</time>
      </trkpt>
      <trkpt lat="45.94155" lon="4.72285">
        <ele>212</ele>
        <time>2018-10-06T10:26:52Z</time>
      </trkpt>
      <trkpt lat="45.94149" lon="4.72284">
        <ele>212</ele>
        <time>2018-10-06T10:26:53Z</time>
      </trkpt>
      <trkpt lat="45.94145" lon="4.72284">
        <ele>212</ele>
        <time>2018-10-06T10:26:54Z</time>
      </trkpt>
      <trkpt lat="45.9414" lon="4.72283">
        <ele>212</ele>
        <time>2018-10-06T10:26:55Z</time>
      </trkpt>
      <trkpt lat="45.94134" lon="4.72281">
        <ele>211</ele>
        <time>2018-10-06T10:26:56Z</time>
      </trkpt>
      <trkpt lat="45.94128" lon="4.72278">
        <ele>212</ele>
        <time>2018-10-06T10:26:57Z</time>
      </trkpt>
      <trkpt lat="45.94124" lon="4.72275">
        <ele>211</ele>
        <time>2018-10-06T10:26:58Z</time>
      </trkpt>
      <trkpt lat="45.94119" lon="4.72272">
        <ele>211</ele>
        <time>2018-10-06T10:26:59Z</time>
      </trkpt>
      <trkpt lat="45.94112" lon="4.72273">
        <ele>212</ele>
        <time>2018-10-06T10:27:01Z</time>
      </trkpt>
      <trkpt lat="45.94107" lon="4.72272">
        <ele>211</ele>
        <time>2018-10-06T10:27:02Z</time>
      </trkpt>
      <trkpt lat="45.94103" lon="4.72272">
        <ele>211</ele>
        <time>2018-10-06T10:27:03Z</time>
      </trkpt>
      <trkpt lat="45.94098" lon="4.72271">
        <ele>212</ele>
        <time>2018-10-06T10:27:04Z</time>
      </trkpt>
      <trkpt lat="45.94093" lon="4.72273">
        <ele>212</ele>
        <time>2018-10-06T10:27:05Z</time>
      </trkpt>
      <trkpt lat="45.94087" lon="4.72273">
        <ele>211</ele>
        <time>2018-10-06T10:27:06Z</time>
      </trkpt>
      <trkpt lat="45.94081" lon="4.72274">
        <ele>211</ele>
        <time>2018-10-06T10:27:07Z</time>
      </trkpt>
      <trkpt lat="45.94076" lon="4.72276">
        <ele>211</ele>
        <time>2018-10-06T10:27:08Z</time>
      </trkpt>
      <trkpt lat="45.94071" lon="4.7228">
        <ele>212</ele>
        <time>2018-10-06T10:27:09Z</time>
      </trkpt>
      <trkpt lat="45.94067" lon="4.72282">
        <ele>213</ele>
        <time>2018-10-06T10:27:10Z</time>
      </trkpt>
      <trkpt lat="45.94059" lon="4.72287">
        <ele>213</ele>
        <time>2018-10-06T10:27:12Z</time>
      </trkpt>
      <trkpt lat="45.94055" lon="4.72291">
        <ele>213</ele>
        <time>2018-10-06T10:27:13Z</time>
      </trkpt>
      <trkpt lat="45.94051" lon="4.72292">
        <ele>215</ele>
        <time>2018-10-06T10:27:14Z</time>
      </trkpt>
      <trkpt lat="45.94047" lon="4.72297">
        <ele>215</ele>
        <time>2018-10-06T10:27:15Z</time>
      </trkpt>
      <trkpt lat="45.9404" lon="4.72305">
        <ele>218</ele>
        <time>2018-10-06T10:27:17Z</time>
      </trkpt>
      <trkpt lat="45.94036" lon="4.72308">
        <ele>215</ele>
        <time>2018-10-06T10:27:18Z</time>
      </trkpt>
      <trkpt lat="45.9403" lon="4.72316">
        <ele>216</ele>
        <time>2018-10-06T10:27:20Z</time>
      </trkpt>
      <trkpt lat="45.94026" lon="4.72322">
        <ele>216</ele>
        <time>2018-10-06T10:27:21Z</time>
      </trkpt>
      <trkpt lat="45.94022" lon="4.72326">
        <ele>217</ele>
        <time>2018-10-06T10:27:22Z</time>
      </trkpt>
      <trkpt lat="45.94018" lon="4.72331">
        <ele>217</ele>
        <time>2018-10-06T10:27:23Z</time>
      </trkpt>
      <trkpt lat="45.94016" lon="4.7234">
        <ele>215</ele>
        <time>2018-10-06T10:27:24Z</time>
      </trkpt>
      <trkpt lat="45.94012" lon="4.72346">
        <ele>215</ele>
        <time>2018-10-06T10:27:25Z</time>
      </trkpt>
      <trkpt lat="45.94007" lon="4.72351">
        <ele>215</ele>
        <time>2018-10-06T10:27:26Z</time>
      </trkpt>
      <trkpt lat="45.94003" lon="4.72357">
        <ele>215</ele>
        <time>2018-10-06T10:27:27Z</time>
      </trkpt>
      <trkpt lat="45.93998" lon="4.72361">
        <ele>216</ele>
        <time>2018-10-06T10:27:28Z</time>
      </trkpt>
      <trkpt lat="45.93995" lon="4.72365">
        <ele>216</ele>
        <time>2018-10-06T10:27:29Z</time>
      </trkpt>
      <trkpt lat="45.9399" lon="4.72375">
        <ele>216</ele>
        <time>2018-10-06T10:27:31Z</time>
      </trkpt>
      <trkpt lat="45.93986" lon="4.7238">
        <ele>216</ele>
        <time>2018-10-06T10:27:32Z</time>
      </trkpt>
      <trkpt lat="45.93979" lon="4.72386">
        <ele>218</ele>
        <time>2018-10-06T10:27:34Z</time>
      </trkpt>
      <trkpt lat="45.93975" lon="4.7239">
        <ele>219</ele>
        <time>2018-10-06T10:27:35Z</time>
      </trkpt>
      <trkpt lat="45.9397" lon="4.72393">
        <ele>220</ele>
        <time>2018-10-06T10:27:36Z</time>
      </trkpt>
      <trkpt lat="45.93969" lon="4.72403">
        <ele>216</ele>
        <time>2018-10-06T10:27:37Z</time>
      </trkpt>
      <trkpt lat="45.93963" lon="4.72412">
        <ele>216</ele>
        <time>2018-10-06T10:27:39Z</time>
      </trkpt>
      <trkpt lat="45.9396" lon="4.72418">
        <ele>215</ele>
        <time>2018-10-06T10:27:40Z</time>
      </trkpt>
      <trkpt lat="45.93953" lon="4.72424">
        <ele>214</ele>
        <time>2018-10-06T10:27:42Z</time>
      </trkpt>
      <trkpt lat="45.9395" lon="4.72428">
        <ele>214</ele>
        <time>2018-10-06T10:27:43Z</time>
      </trkpt>
      <trkpt lat="45.93943" lon="4.72435">
        <ele>214</ele>
        <time>2018-10-06T10:27:45Z</time>
      </trkpt>
      <trkpt lat="45.9394" lon="4.72439">
        <ele>214</ele>
        <time>2018-10-06T10:27:46Z</time>
      </trkpt>
      <trkpt lat="45.93936" lon="4.72443">
        <ele>214</ele>
        <time>2018-10-06T10:27:47Z</time>
      </trkpt>
      <trkpt lat="45.93932" lon="4.72447">
        <ele>215</ele>
        <time>2018-10-06T10:27:48Z</time>
      </trkpt>
      <trkpt lat="45.93926" lon="4.72456">
        <ele>217</ele>
        <time>2018-10-06T10:27:50Z</time>
      </trkpt>
      <trkpt lat="45.93923" lon="4.72463">
        <ele>216</ele>
        <time>2018-10-06T10:27:51Z</time>
      </trkpt>
      <trkpt lat="45.93919" lon="4.72468">
        <ele>216</ele>
        <time>2018-10-06T10:27:52Z</time>
      </trkpt>
      <trkpt lat="45.93915" lon="4.72471">
        <ele>216</ele>
        <time>2018-10-06T10:27:53Z</time>
      </trkpt>
      <trkpt lat="45.93911" lon="4.72476">
        <ele>216</ele>
        <time>2018-10-06T10:27:54Z</time>
      </trkpt>
      <trkpt lat="45.93908" lon="4.7248">
        <ele>216</ele>
        <time>2018-10-06T10:27:55Z</time>
      </trkpt>
      <trkpt lat="45.93902" lon="4.72485">
        <ele>216</ele>
        <time>2018-10-06T10:27:57Z</time>
      </trkpt>
      <trkpt lat="45.93899" lon="4.72488">
        <ele>216</ele>
        <time>2018-10-06T10:27:58Z</time>
      </trkpt>
      <trkpt lat="45.93893" lon="4.72495">
        <ele>217</ele>
        <time>2018-10-06T10:28:00Z</time>
      </trkpt>
      <trkpt lat="45.9389" lon="4.72498">
        <ele>217</ele>
        <time>2018-10-06T10:28:01Z</time>
      </trkpt>
      <trkpt lat="45.93883" lon="4.72506">
        <ele>217</ele>
        <time>2018-10-06T10:28:03Z</time>
      </trkpt>
      <trkpt lat="45.9388" lon="4.72509">
        <ele>217</ele>
        <time>2018-10-06T10:28:04Z</time>
      </trkpt>
      <trkpt lat="45.93872" lon="4.72514">
        <ele>218</ele>
        <time>2018-10-06T10:28:06Z</time>
      </trkpt>
      <trkpt lat="45.93868" lon="4.72516">
        <ele>218</ele>
        <time>2018-10-06T10:28:07Z</time>
      </trkpt>
      <trkpt lat="45.9386" lon="4.72514">
        <ele>217</ele>
        <time>2018-10-06T10:28:09Z</time>
      </trkpt>
      <trkpt lat="45.93857" lon="4.7251">
        <ele>217</ele>
        <time>2018-10-06T10:28:10Z</time>
      </trkpt>
      <trkpt lat="45.93821" lon="4.72462">
        <ele>215</ele>
        <time>2018-10-06T10:28:20Z</time>
      </trkpt>
      <trkpt lat="45.9382" lon="4.72476">
        <ele>212</ele>
        <time>2018-10-06T10:28:21Z</time>
      </trkpt>
      <trkpt lat="45.93819" lon="4.72477">
        <ele>220</ele>
        <time>2018-10-06T10:28:28Z</time>
      </trkpt>
      <trkpt lat="45.93807" lon="4.72465">
        <ele>220</ele>
        <time>2018-10-06T10:28:29Z</time>
      </trkpt>
      <trkpt lat="45.93803" lon="4.72459">
        <ele>219</ele>
        <time>2018-10-06T10:28:30Z</time>
      </trkpt>
      <trkpt lat="45.93798" lon="4.72456">
        <ele>218</ele>
        <time>2018-10-06T10:28:31Z</time>
      </trkpt>
      <trkpt lat="45.93793" lon="4.72452">
        <ele>214</ele>
        <time>2018-10-06T10:28:32Z</time>
      </trkpt>
      <trkpt lat="45.93787" lon="4.72448">
        <ele>214</ele>
        <time>2018-10-06T10:28:33Z</time>
      </trkpt>
      <trkpt lat="45.93783" lon="4.72439">
        <ele>216</ele>
        <time>2018-10-06T10:28:35Z</time>
      </trkpt>
      <trkpt lat="45.9378" lon="4.72437">
        <ele>216</ele>
        <time>2018-10-06T10:28:36Z</time>
      </trkpt>
      <trkpt lat="45.93779" lon="4.72434">
        <ele>217</ele>
        <time>2018-10-06T10:28:37Z</time>
      </trkpt>
      <trkpt lat="45.93772" lon="4.72426">
        <ele>218</ele>
        <time>2018-10-06T10:28:38Z</time>
      </trkpt>
      <trkpt lat="45.93765" lon="4.72418">
        <ele>218</ele>
        <time>2018-10-06T10:28:40Z</time>
      </trkpt>
      <trkpt lat="45.93762" lon="4.72414">
        <ele>217</ele>
        <time>2018-10-06T10:28:41Z</time>
      </trkpt>
      <trkpt lat="45.93758" lon="4.7241">
        <ele>217</ele>
        <time>2018-10-06T10:28:42Z</time>
      </trkpt>
      <trkpt lat="45.93754" lon="4.72407">
        <ele>217</ele>
        <time>2018-10-06T10:28:43Z</time>
      </trkpt>
      <trkpt lat="45.93749" lon="4.72402">
        <ele>217</ele>
        <time>2018-10-06T10:28:44Z</time>
      </trkpt>
      <trkpt lat="45.93745" lon="4.72399">
        <ele>217</ele>
        <time>2018-10-06T10:28:45Z</time>
      </trkpt>
      <trkpt lat="45.93738" lon="4.72394">
        <ele>215</ele>
        <time>2018-10-06T10:28:46Z</time>
      </trkpt>
      <trkpt lat="45.93732" lon="4.7239">
        <ele>214</ele>
        <time>2018-10-06T10:28:47Z</time>
      </trkpt>
      <trkpt lat="45.93726" lon="4.72384">
        <ele>215</ele>
        <time>2018-10-06T10:28:49Z</time>
      </trkpt>
      <trkpt lat="45.93721" lon="4.7238">
        <ele>216</ele>
        <time>2018-10-06T10:28:50Z</time>
      </trkpt>
      <trkpt lat="45.93714" lon="4.72373">
        <ele>215</ele>
        <time>2018-10-06T10:28:52Z</time>
      </trkpt>
      <trkpt lat="45.9371" lon="4.7237">
        <ele>212</ele>
        <time>2018-10-06T10:28:53Z</time>
      </trkpt>
      <trkpt lat="45.93707" lon="4.72368">
        <ele>212</ele>
        <time>2018-10-06T10:28:54Z</time>
      </trkpt>
      <trkpt lat="45.93702" lon="4.72363">
        <ele>213</ele>
        <time>2018-10-06T10:28:55Z</time>
      </trkpt>
      <trkpt lat="45.93698" lon="4.7236">
        <ele>213</ele>
        <time>2018-10-06T10:28:56Z</time>
      </trkpt>
      <trkpt lat="45.93692" lon="4.72349">
        <ele>214</ele>
        <time>2018-10-06T10:29:00Z</time>
      </trkpt>
      <trkpt lat="45.93685" lon="4.72345">
        <ele>214</ele>
        <time>2018-10-06T10:29:03Z</time>
      </trkpt>
      <trkpt lat="45.93681" lon="4.72343">
        <ele>212</ele>
        <time>2018-10-06T10:29:04Z</time>
      </trkpt>
      <trkpt lat="45.93676" lon="4.7234">
        <ele>210</ele>
        <time>2018-10-06T10:29:05Z</time>
      </trkpt>
      <trkpt lat="45.93671" lon="4.72338">
        <ele>210</ele>
        <time>2018-10-06T10:29:06Z</time>
      </trkpt>
      <trkpt lat="45.93661" lon="4.72329">
        <ele>208</ele>
        <time>2018-10-06T10:29:07Z</time>
      </trkpt>
      <trkpt lat="45.93654" lon="4.72323">
        <ele>206</ele>
        <time>2018-10-06T10:29:09Z</time>
      </trkpt>
      <trkpt lat="45.93651" lon="4.72319">
        <ele>204</ele>
        <time>2018-10-06T10:29:10Z</time>
      </trkpt>
      <trkpt lat="45.93647" lon="4.72315">
        <ele>203</ele>
        <time>2018-10-06T10:29:11Z</time>
      </trkpt>
      <trkpt lat="45.93643" lon="4.72311">
        <ele>203</ele>
        <time>2018-10-06T10:29:12Z</time>
      </trkpt>
      <trkpt lat="45.9364" lon="4.72308">
        <ele>204</ele>
        <time>2018-10-06T10:29:13Z</time>
      </trkpt>
      <trkpt lat="45.93635" lon="4.72302">
        <ele>203</ele>
        <time>2018-10-06T10:29:14Z</time>
      </trkpt>
      <trkpt lat="45.93632" lon="4.72296">
        <ele>204</ele>
        <time>2018-10-06T10:29:17Z</time>
      </trkpt>
      <trkpt lat="45.93627" lon="4.72289">
        <ele>205</ele>
        <time>2018-10-06T10:29:18Z</time>
      </trkpt>
      <trkpt lat="45.93622" lon="4.72285">
        <ele>214</ele>
        <time>2018-10-06T10:29:20Z</time>
      </trkpt>
      <trkpt lat="45.93617" lon="4.7228">
        <ele>213</ele>
        <time>2018-10-06T10:29:21Z</time>
      </trkpt>
      <trkpt lat="45.93611" lon="4.72276">
        <ele>211</ele>
        <time>2018-10-06T10:29:23Z</time>
      </trkpt>
      <trkpt lat="45.93606" lon="4.72273">
        <ele>209</ele>
        <time>2018-10-06T10:29:24Z</time>
      </trkpt>
      <trkpt lat="45.93604" lon="4.72271">
        <ele>209</ele>
        <time>2018-10-06T10:29:25Z</time>
      </trkpt>
      <trkpt lat="45.93598" lon="4.72265">
        <ele>208</ele>
        <time>2018-10-06T10:29:26Z</time>
      </trkpt>
      <trkpt lat="45.9359" lon="4.72259">
        <ele>217</ele>
        <time>2018-10-06T10:29:28Z</time>
      </trkpt>
      <trkpt lat="45.93589" lon="4.72257">
        <ele>214</ele>
        <time>2018-10-06T10:29:29Z</time>
      </trkpt>
      <trkpt lat="45.93583" lon="4.7225">
        <ele>211</ele>
        <time>2018-10-06T10:29:32Z</time>
      </trkpt>
      <trkpt lat="45.93576" lon="4.72242">
        <ele>208</ele>
        <time>2018-10-06T10:29:33Z</time>
      </trkpt>
      <trkpt lat="45.93571" lon="4.72237">
        <ele>208</ele>
        <time>2018-10-06T10:29:35Z</time>
      </trkpt>
      <trkpt lat="45.93566" lon="4.72233">
        <ele>208</ele>
        <time>2018-10-06T10:29:36Z</time>
      </trkpt>
      <trkpt lat="45.93559" lon="4.7223">
        <ele>206</ele>
        <time>2018-10-06T10:29:39Z</time>
      </trkpt>
      <trkpt lat="45.93556" lon="4.72229">
        <ele>206</ele>
        <time>2018-10-06T10:29:40Z</time>
      </trkpt>
      <trkpt lat="45.93553" lon="4.72229">
        <ele>206</ele>
        <time>2018-10-06T10:29:41Z</time>
      </trkpt>
      <trkpt lat="45.93545" lon="4.7223">
        <ele>206</ele>
        <time>2018-10-06T10:29:42Z</time>
      </trkpt>
      <trkpt lat="45.93541" lon="4.72236">
        <ele>207</ele>
        <time>2018-10-06T10:29:44Z</time>
      </trkpt>
      <trkpt lat="45.93539" lon="4.72242">
        <ele>208</ele>
        <time>2018-10-06T10:29:45Z</time>
      </trkpt>
      <trkpt lat="45.93536" lon="4.7225">
        <ele>208</ele>
        <time>2018-10-06T10:29:47Z</time>
      </trkpt>
      <trkpt lat="45.93534" lon="4.72256">
        <ele>209</ele>
        <time>2018-10-06T10:29:48Z</time>
      </trkpt>
      <trkpt lat="45.93531" lon="4.72266">
        <ele>209</ele>
        <time>2018-10-06T10:29:50Z</time>
      </trkpt>
      <trkpt lat="45.93529" lon="4.72271">
        <ele>209</ele>
        <time>2018-10-06T10:29:51Z</time>
      </trkpt>
      <trkpt lat="45.93525" lon="4.7228">
        <ele>208</ele>
        <time>2018-10-06T10:29:53Z</time>
      </trkpt>
      <trkpt lat="45.93524" lon="4.72283">
        <ele>208</ele>
        <time>2018-10-06T10:29:54Z</time>
      </trkpt>
      <trkpt lat="45.93519" lon="4.72293">
        <ele>208</ele>
        <time>2018-10-06T10:29:56Z</time>
      </trkpt>
      <trkpt lat="45.93518" lon="4.72296">
        <ele>208</ele>
        <time>2018-10-06T10:29:57Z</time>
      </trkpt>
      <trkpt lat="45.93514" lon="4.72304">
        <ele>208</ele>
        <time>2018-10-06T10:30:00Z</time>
      </trkpt>
      <trkpt lat="45.93512" lon="4.72306">
        <ele>209</ele>
        <time>2018-10-06T10:30:01Z</time>
      </trkpt>
      <trkpt lat="45.93512" lon="4.72293">
        <ele>222</ele>
        <time>2018-10-06T10:30:48Z</time>
      </trkpt>
      <trkpt lat="45.93513" lon="4.72291">
        <ele>222</ele>
        <time>2018-10-06T10:30:49Z</time>
      </trkpt>
      <trkpt lat="45.93516" lon="4.72285">
        <ele>223</ele>
        <time>2018-10-06T10:30:53Z</time>
      </trkpt>
      <trkpt lat="45.93517" lon="4.72283">
        <ele>222</ele>
        <time>2018-10-06T10:30:54Z</time>
      </trkpt>
      <trkpt lat="45.93518" lon="4.72282">
        <ele>222</ele>
        <time>2018-10-06T10:30:55Z</time>
      </trkpt>
      <trkpt lat="45.93519" lon="4.72294">
        <ele>223</ele>
        <time>2018-10-06T10:33:14Z</time>
      </trkpt>
      <trkpt lat="45.93519" lon="4.72295">
        <ele>223</ele>
        <time>2018-10-06T10:33:15Z</time>
      </trkpt>
      <trkpt lat="45.93512" lon="4.72302">
        <ele>223</ele>
        <time>2018-10-06T10:33:27Z</time>
      </trkpt>
      <trkpt lat="45.93512" lon="4.72303">
        <ele>223</ele>
        <time>2018-10-06T10:33:28Z</time>
      </trkpt>
      <trkpt lat="45.93507" lon="4.72312">
        <ele>222</ele>
        <time>2018-10-06T10:33:42Z</time>
      </trkpt>
      <trkpt lat="45.93505" lon="4.72314">
        <ele>221</ele>
        <time>2018-10-06T10:33:43Z</time>
      </trkpt>
      <trkpt lat="45.93501" lon="4.72319">
        <ele>221</ele>
        <time>2018-10-06T10:33:45Z</time>
      </trkpt>
      <trkpt lat="45.93495" lon="4.72328">
        <ele>222</ele>
        <time>2018-10-06T10:33:46Z</time>
      </trkpt>
      <trkpt lat="45.93489" lon="4.72337">
        <ele>222</ele>
        <time>2018-10-06T10:33:48Z</time>
      </trkpt>
      <trkpt lat="45.93486" lon="4.72341">
        <ele>222</ele>
        <time>2018-10-06T10:33:49Z</time>
      </trkpt>
      <trkpt lat="45.93483" lon="4.72347">
        <ele>222</ele>
        <time>2018-10-06T10:33:50Z</time>
      </trkpt>
      <trkpt lat="45.9348" lon="4.72352">
        <ele>222</ele>
        <time>2018-10-06T10:33:51Z</time>
      </trkpt>
      <trkpt lat="45.93472" lon="4.72358">
        <ele>223</ele>
        <time>2018-10-06T10:33:53Z</time>
      </trkpt>
      <trkpt lat="45.93468" lon="4.72362">
        <ele>222</ele>
        <time>2018-10-06T10:33:54Z</time>
      </trkpt>
      <trkpt lat="45.93462" lon="4.7237">
        <ele>222</ele>
        <time>2018-10-06T10:33:56Z</time>
      </trkpt>
      <trkpt lat="45.93458" lon="4.72374">
        <ele>222</ele>
        <time>2018-10-06T10:33:57Z</time>
      </trkpt>
      <trkpt lat="45.93451" lon="4.72381">
        <ele>222</ele>
        <time>2018-10-06T10:33:59Z</time>
      </trkpt>
      <trkpt lat="45.93447" lon="4.72384">
        <ele>221</ele>
        <time>2018-10-06T10:34:00Z</time>
      </trkpt>
      <trkpt lat="45.93442" lon="4.72387">
        <ele>221</ele>
        <time>2018-10-06T10:34:01Z</time>
      </trkpt>
      <trkpt lat="45.93438" lon="4.72391">
        <ele>220</ele>
        <time>2018-10-06T10:34:02Z</time>
      </trkpt>
      <trkpt lat="45.93434" lon="4.72394">
        <ele>220</ele>
        <time>2018-10-06T10:34:03Z</time>
      </trkpt>
      <trkpt lat="45.93429" lon="4.72396">
        <ele>219</ele>
        <time>2018-10-06T10:34:04Z</time>
      </trkpt>
      <trkpt lat="45.93424" lon="4.72397">
        <ele>220</ele>
        <time>2018-10-06T10:34:05Z</time>
      </trkpt>
      <trkpt lat="45.93421" lon="4.724">
        <ele>221</ele>
        <time>2018-10-06T10:34:06Z</time>
      </trkpt>
      <trkpt lat="45.93416" lon="4.72402">
        <ele>220</ele>
        <time>2018-10-06T10:34:07Z</time>
      </trkpt>
      <trkpt lat="45.93412" lon="4.72403">
        <ele>221</ele>
        <time>2018-10-06T10:34:08Z</time>
      </trkpt>
      <trkpt lat="45.93407" lon="4.72404">
        <ele>221</ele>
        <time>2018-10-06T10:34:09Z</time>
      </trkpt>
      <trkpt lat="45.93403" lon="4.72404">
        <ele>222</ele>
        <time>2018-10-06T10:34:10Z</time>
      </trkpt>
      <trkpt lat="45.93395" lon="4.72403">
        <ele>221</ele>
        <time>2018-10-06T10:34:12Z</time>
      </trkpt>
      <trkpt lat="45.93391" lon="4.72403">
        <ele>221</ele>
        <time>2018-10-06T10:34:13Z</time>
      </trkpt>
      <trkpt lat="45.93387" lon="4.72406">
        <ele>221</ele>
        <time>2018-10-06T10:34:14Z</time>
      </trkpt>
      <trkpt lat="45.93383" lon="4.72411">
        <ele>222</ele>
        <time>2018-10-06T10:34:15Z</time>
      </trkpt>
      <trkpt lat="45.93382" lon="4.72417">
        <ele>222</ele>
        <time>2018-10-06T10:34:16Z</time>
      </trkpt>
      <trkpt lat="45.93383" lon="4.72425">
        <ele>222</ele>
        <time>2018-10-06T10:34:17Z</time>
      </trkpt>
      <trkpt lat="45.93386" lon="4.72432">
        <ele>221</ele>
        <time>2018-10-06T10:34:18Z</time>
      </trkpt>
      <trkpt lat="45.93388" lon="4.72439">
        <ele>220</ele>
        <time>2018-10-06T10:34:19Z</time>
      </trkpt>
      <trkpt lat="45.9339" lon="4.72446">
        <ele>220</ele>
        <time>2018-10-06T10:34:20Z</time>
      </trkpt>
      <trkpt lat="45.9339" lon="4.72452">
        <ele>219</ele>
        <time>2018-10-06T10:34:21Z</time>
      </trkpt>
      <trkpt lat="45.93387" lon="4.72464">
        <ele>219</ele>
        <time>2018-10-06T10:34:23Z</time>
      </trkpt>
      <trkpt lat="45.93385" lon="4.72468">
        <ele>219</ele>
        <time>2018-10-06T10:34:24Z</time>
      </trkpt>
      <trkpt lat="45.93379" lon="4.72476">
        <ele>220</ele>
        <time>2018-10-06T10:34:26Z</time>
      </trkpt>
      <trkpt lat="45.93376" lon="4.72479">
        <ele>219</ele>
        <time>2018-10-06T10:34:27Z</time>
      </trkpt>
      <trkpt lat="45.9337" lon="4.72486">
        <ele>220</ele>
        <time>2018-10-06T10:34:29Z</time>
      </trkpt>
      <trkpt lat="45.93366" lon="4.72489">
        <ele>220</ele>
        <time>2018-10-06T10:34:30Z</time>
      </trkpt>
      <trkpt lat="45.93362" lon="4.72492">
        <ele>221</ele>
        <time>2018-10-06T10:34:31Z</time>
      </trkpt>
      <trkpt lat="45.93358" lon="4.72495">
        <ele>222</ele>
        <time>2018-10-06T10:34:32Z</time>
      </trkpt>
      <trkpt lat="45.93355" lon="4.72502">
        <ele>220</ele>
        <time>2018-10-06T10:34:33Z</time>
      </trkpt>
      <trkpt lat="45.93351" lon="4.72507">
        <ele>220</ele>
        <time>2018-10-06T10:34:34Z</time>
      </trkpt>
      <trkpt lat="45.93347" lon="4.72511">
        <ele>221</ele>
        <time>2018-10-06T10:34:35Z</time>
      </trkpt>
      <trkpt lat="45.93342" lon="4.72516">
        <ele>221</ele>
        <time>2018-10-06T10:34:36Z</time>
      </trkpt>
      <trkpt lat="45.93339" lon="4.7252">
        <ele>221</ele>
        <time>2018-10-06T10:34:37Z</time>
      </trkpt>
      <trkpt lat="45.93335" lon="4.72524">
        <ele>221</ele>
        <time>2018-10-06T10:34:38Z</time>
      </trkpt>
      <trkpt lat="45.93331" lon="4.72528">
        <ele>221</ele>
        <time>2018-10-06T10:34:39Z</time>
      </trkpt>
      <trkpt lat="45.93327" lon="4.72532">
        <ele>221</ele>
        <time>2018-10-06T10:34:40Z</time>
      </trkpt>
      <trkpt lat="45.93321" lon="4.7254">
        <ele>222</ele>
        <time>2018-10-06T10:34:42Z</time>
      </trkpt>
      <trkpt lat="45.93319" lon="4.72542">
        <ele>222</ele>
        <time>2018-10-06T10:34:43Z</time>
      </trkpt>
      <trkpt lat="45.93315" lon="4.72549">
        <ele>222</ele>
        <time>2018-10-06T10:34:44Z</time>
      </trkpt>
      <trkpt lat="45.93311" lon="4.72552">
        <ele>221</ele>
        <time>2018-10-06T10:34:45Z</time>
      </trkpt>
      <trkpt lat="45.93304" lon="4.72559">
        <ele>222</ele>
        <time>2018-10-06T10:34:47Z</time>
      </trkpt>
      <trkpt lat="45.93301" lon="4.72563">
        <ele>221</ele>
        <time>2018-10-06T10:34:48Z</time>
      </trkpt>
      <trkpt lat="45.93296" lon="4.72569">
        <ele>222</ele>
        <time>2018-10-06T10:34:49Z</time>
      </trkpt>
      <trkpt lat="45.93292" lon="4.72573">
        <ele>222</ele>
        <time>2018-10-06T10:34:50Z</time>
      </trkpt>
      <trkpt lat="45.93289" lon="4.7258">
        <ele>222</ele>
        <time>2018-10-06T10:34:51Z</time>
      </trkpt>
      <trkpt lat="45.93286" lon="4.72585">
        <ele>222</ele>
        <time>2018-10-06T10:34:52Z</time>
      </trkpt>
      <trkpt lat="45.93281" lon="4.72589">
        <ele>222</ele>
        <time>2018-10-06T10:34:53Z</time>
      </trkpt>
      <trkpt lat="45.93277" lon="4.72594">
        <ele>222</ele>
        <time>2018-10-06T10:34:54Z</time>
      </trkpt>
      <trkpt lat="45.93273" lon="4.72599">
        <ele>222</ele>
        <time>2018-10-06T10:34:55Z</time>
      </trkpt>
      <trkpt lat="45.93269" lon="4.72603">
        <ele>223</ele>
        <time>2018-10-06T10:34:56Z</time>
      </trkpt>
      <trkpt lat="45.93263" lon="4.7261">
        <ele>220</ele>
        <time>2018-10-06T10:34:58Z</time>
      </trkpt>
      <trkpt lat="45.9326" lon="4.72615">
        <ele>220</ele>
        <time>2018-10-06T10:34:59Z</time>
      </trkpt>
      <trkpt lat="45.93254" lon="4.72624">
        <ele>218</ele>
        <time>2018-10-06T10:35:01Z</time>
      </trkpt>
      <trkpt lat="45.9325" lon="4.72628">
        <ele>218</ele>
        <time>2018-10-06T10:35:02Z</time>
      </trkpt>
      <trkpt lat="45.93247" lon="4.72632">
        <ele>218</ele>
        <time>2018-10-06T10:35:03Z</time>
      </trkpt>
      <trkpt lat="45.93243" lon="4.72637">
        <ele>218</ele>
        <time>2018-10-06T10:35:04Z</time>
      </trkpt>
      <trkpt lat="45.93237" lon="4.72642">
        <ele>216</ele>
        <time>2018-10-06T10:35:05Z</time>
      </trkpt>
      <trkpt lat="45.93233" lon="4.72646">
        <ele>216</ele>
        <time>2018-10-06T10:35:06Z</time>
      </trkpt>
      <trkpt lat="45.93229" lon="4.7265">
        <ele>216</ele>
        <time>2018-10-06T10:35:07Z</time>
      </trkpt>
      <trkpt lat="45.93226" lon="4.72655">
        <ele>216</ele>
        <time>2018-10-06T10:35:08Z</time>
      </trkpt>
      <trkpt lat="45.9322" lon="4.72664">
        <ele>215</ele>
        <time>2018-10-06T10:35:10Z</time>
      </trkpt>
      <trkpt lat="45.93217" lon="4.72668">
        <ele>216</ele>
        <time>2018-10-06T10:35:11Z</time>
      </trkpt>
      <trkpt lat="45.9321" lon="4.72675">
        <ele>216</ele>
        <time>2018-10-06T10:35:13Z</time>
      </trkpt>
      <trkpt lat="45.93207" lon="4.72679">
        <ele>216</ele>
        <time>2018-10-06T10:35:14Z</time>
      </trkpt>
      <trkpt lat="45.93203" lon="4.72683">
        <ele>216</ele>
        <time>2018-10-06T10:35:15Z</time>
      </trkpt>
      <trkpt lat="45.932" lon="4.72688">
        <ele>215</ele>
        <time>2018-10-06T10:35:16Z</time>
      </trkpt>
      <trkpt lat="45.93197" lon="4.72696">
        <ele>211</ele>
        <time>2018-10-06T10:35:17Z</time>
      </trkpt>
      <trkpt lat="45.93193" lon="4.727">
        <ele>213</ele>
        <time>2018-10-06T10:35:18Z</time>
      </trkpt>
      <trkpt lat="45.93189" lon="4.72705">
        <ele>213</ele>
        <time>2018-10-06T10:35:19Z</time>
      </trkpt>
      <trkpt lat="45.93185" lon="4.72709">
        <ele>213</ele>
        <time>2018-10-06T10:35:20Z</time>
      </trkpt>
      <trkpt lat="45.93181" lon="4.72714">
        <ele>213</ele>
        <time>2018-10-06T10:35:21Z</time>
      </trkpt>
      <trkpt lat="45.93177" lon="4.72718">
        <ele>212</ele>
        <time>2018-10-06T10:35:22Z</time>
      </trkpt>
      <trkpt lat="45.93172" lon="4.72722">
        <ele>213</ele>
        <time>2018-10-06T10:35:23Z</time>
      </trkpt>
      <trkpt lat="45.93168" lon="4.72726">
        <ele>212</ele>
        <time>2018-10-06T10:35:24Z</time>
      </trkpt>
      <trkpt lat="45.93161" lon="4.72734">
        <ele>212</ele>
        <time>2018-10-06T10:35:26Z</time>
      </trkpt>
      <trkpt lat="45.93158" lon="4.72738">
        <ele>213</ele>
        <time>2018-10-06T10:35:27Z</time>
      </trkpt>
      <trkpt lat="45.93151" lon="4.72746">
        <ele>213</ele>
        <time>2018-10-06T10:35:29Z</time>
      </trkpt>
      <trkpt lat="45.93148" lon="4.7275">
        <ele>213</ele>
        <time>2018-10-06T10:35:30Z</time>
      </trkpt>
      <trkpt lat="45.93144" lon="4.72754">
        <ele>213</ele>
        <time>2018-10-06T10:35:31Z</time>
      </trkpt>
      <trkpt lat="45.9314" lon="4.72758">
        <ele>214</ele>
        <time>2018-10-06T10:35:32Z</time>
      </trkpt>
      <trkpt lat="45.93138" lon="4.72763">
        <ele>216</ele>
        <time>2018-10-06T10:35:33Z</time>
      </trkpt>
      <trkpt lat="45.93134" lon="4.72769">
        <ele>216</ele>
        <time>2018-10-06T10:35:34Z</time>
      </trkpt>
      <trkpt lat="45.9313" lon="4.72773">
        <ele>216</ele>
        <time>2018-10-06T10:35:35Z</time>
      </trkpt>
      <trkpt lat="45.93126" lon="4.72778">
        <ele>216</ele>
        <time>2018-10-06T10:35:36Z</time>
      </trkpt>
      <trkpt lat="45.93122" lon="4.72783">
        <ele>215</ele>
        <time>2018-10-06T10:35:37Z</time>
      </trkpt>
      <trkpt lat="45.93119" lon="4.72787">
        <ele>214</ele>
        <time>2018-10-06T10:35:38Z</time>
      </trkpt>
      <trkpt lat="45.93115" lon="4.72792">
        <ele>214</ele>
        <time>2018-10-06T10:35:39Z</time>
      </trkpt>
      <trkpt lat="45.93111" lon="4.72797">
        <ele>214</ele>
        <time>2018-10-06T10:35:40Z</time>
      </trkpt>
      <trkpt lat="45.93107" lon="4.72801">
        <ele>214</ele>
        <time>2018-10-06T10:35:41Z</time>
      </trkpt>
      <trkpt lat="45.93102" lon="4.72805">
        <ele>217</ele>
        <time>2018-10-06T10:35:42Z</time>
      </trkpt>
      <trkpt lat="45.93098" lon="4.7281">
        <ele>214</ele>
        <time>2018-10-06T10:35:43Z</time>
      </trkpt>
      <trkpt lat="45.93093" lon="4.72814">
        <ele>214</ele>
        <time>2018-10-06T10:35:44Z</time>
      </trkpt>
      <trkpt lat="45.93089" lon="4.72819">
        <ele>215</ele>
        <time>2018-10-06T10:35:45Z</time>
      </trkpt>
      <trkpt lat="45.93085" lon="4.72825">
        <ele>215</ele>
        <time>2018-10-06T10:35:46Z</time>
      </trkpt>
      <trkpt lat="45.9308" lon="4.7283">
        <ele>214</ele>
        <time>2018-10-06T10:35:48Z</time>
      </trkpt>
      <trkpt lat="45.93075" lon="4.72835">
        <ele>220</ele>
        <time>2018-10-06T10:35:49Z</time>
      </trkpt>
      <trkpt lat="45.9307" lon="4.72839">
        <ele>222</ele>
        <time>2018-10-06T10:35:54Z</time>
      </trkpt>
      <trkpt lat="45.93063" lon="4.72843">
        <ele>219</ele>
        <time>2018-10-06T10:35:55Z</time>
      </trkpt>
      <trkpt lat="45.93054" lon="4.72849">
        <ele>217</ele>
        <time>2018-10-06T10:35:56Z</time>
      </trkpt>
      <trkpt lat="45.93049" lon="4.72853">
        <ele>218</ele>
        <time>2018-10-06T10:35:57Z</time>
      </trkpt>
      <trkpt lat="45.93044" lon="4.7286">
        <ele>217</ele>
        <time>2018-10-06T10:35:58Z</time>
      </trkpt>
      <trkpt lat="45.93041" lon="4.72866">
        <ele>217</ele>
        <time>2018-10-06T10:35:59Z</time>
      </trkpt>
      <trkpt lat="45.93037" lon="4.72872">
        <ele>216</ele>
        <time>2018-10-06T10:36:00Z</time>
      </trkpt>
      <trkpt lat="45.93033" lon="4.72876">
        <ele>217</ele>
        <time>2018-10-06T10:36:01Z</time>
      </trkpt>
      <trkpt lat="45.93028" lon="4.72881">
        <ele>217</ele>
        <time>2018-10-06T10:36:02Z</time>
      </trkpt>
      <trkpt lat="45.93024" lon="4.72885">
        <ele>217</ele>
        <time>2018-10-06T10:36:03Z</time>
      </trkpt>
      <trkpt lat="45.9302" lon="4.72891">
        <ele>217</ele>
        <time>2018-10-06T10:36:04Z</time>
      </trkpt>
      <trkpt lat="45.93017" lon="4.72896">
        <ele>216</ele>
        <time>2018-10-06T10:36:05Z</time>
      </trkpt>
      <trkpt lat="45.93013" lon="4.72901">
        <ele>217</ele>
        <time>2018-10-06T10:36:06Z</time>
      </trkpt>
      <trkpt lat="45.93009" lon="4.72906">
        <ele>217</ele>
        <time>2018-10-06T10:36:07Z</time>
      </trkpt>
      <trkpt lat="45.93006" lon="4.7291">
        <ele>217</ele>
        <time>2018-10-06T10:36:08Z</time>
      </trkpt>
      <trkpt lat="45.93002" lon="4.72915">
        <ele>217</ele>
        <time>2018-10-06T10:36:09Z</time>
      </trkpt>
      <trkpt lat="45.92999" lon="4.72919">
        <ele>218</ele>
        <time>2018-10-06T10:36:10Z</time>
      </trkpt>
      <trkpt lat="45.92996" lon="4.72922">
        <ele>217</ele>
        <time>2018-10-06T10:36:11Z</time>
      </trkpt>
      <trkpt lat="45.92992" lon="4.72927">
        <ele>217</ele>
        <time>2018-10-06T10:36:12Z</time>
      </trkpt>
      <trkpt lat="45.92988" lon="4.72931">
        <ele>215</ele>
        <time>2018-10-06T10:36:13Z</time>
      </trkpt>
      <trkpt lat="45.92985" lon="4.72936">
        <ele>216</ele>
        <time>2018-10-06T10:36:14Z</time>
      </trkpt>
      <trkpt lat="45.92978" lon="4.72943">
        <ele>216</ele>
        <time>2018-10-06T10:36:16Z</time>
      </trkpt>
      <trkpt lat="45.92975" lon="4.72945">
        <ele>216</ele>
        <time>2018-10-06T10:36:17Z</time>
      </trkpt>
      <trkpt lat="45.92968" lon="4.72952">
        <ele>216</ele>
        <time>2018-10-06T10:36:19Z</time>
      </trkpt>
      <trkpt lat="45.92966" lon="4.72956">
        <ele>216</ele>
        <time>2018-10-06T10:36:20Z</time>
      </trkpt>
      <trkpt lat="45.92961" lon="4.72963">
        <ele>215</ele>
        <time>2018-10-06T10:36:23Z</time>
      </trkpt>
      <trkpt lat="45.92955" lon="4.7297">
        <ele>215</ele>
        <time>2018-10-06T10:36:24Z</time>
      </trkpt>
      <trkpt lat="45.92948" lon="4.72977">
        <ele>216</ele>
        <time>2018-10-06T10:36:26Z</time>
      </trkpt>
      <trkpt lat="45.92945" lon="4.7298">
        <ele>215</ele>
        <time>2018-10-06T10:36:27Z</time>
      </trkpt>
      <trkpt lat="45.92938" lon="4.72989">
        <ele>212</ele>
        <time>2018-10-06T10:36:29Z</time>
      </trkpt>
      <trkpt lat="45.92934" lon="4.72993">
        <ele>213</ele>
        <time>2018-10-06T10:36:30Z</time>
      </trkpt>
      <trkpt lat="45.92931" lon="4.72997">
        <ele>213</ele>
        <time>2018-10-06T10:36:31Z</time>
      </trkpt>
      <trkpt lat="45.92927" lon="4.73002">
        <ele>213</ele>
        <time>2018-10-06T10:36:32Z</time>
      </trkpt>
      <trkpt lat="45.92921" lon="4.7301">
        <ele>213</ele>
        <time>2018-10-06T10:36:34Z</time>
      </trkpt>
      <trkpt lat="45.92918" lon="4.73013">
        <ele>212</ele>
        <time>2018-10-06T10:36:35Z</time>
      </trkpt>
      <trkpt lat="45.92914" lon="4.73019">
        <ele>212</ele>
        <time>2018-10-06T10:36:37Z</time>
      </trkpt>
      <trkpt lat="45.92911" lon="4.73024">
        <ele>212</ele>
        <time>2018-10-06T10:36:38Z</time>
      </trkpt>
      <trkpt lat="45.92905" lon="4.73033">
        <ele>212</ele>
        <time>2018-10-06T10:36:40Z</time>
      </trkpt>
      <trkpt lat="45.92902" lon="4.73037">
        <ele>212</ele>
        <time>2018-10-06T10:36:41Z</time>
      </trkpt>
      <trkpt lat="45.92895" lon="4.73046">
        <ele>213</ele>
        <time>2018-10-06T10:36:43Z</time>
      </trkpt>
      <trkpt lat="45.92893" lon="4.7305">
        <ele>213</ele>
        <time>2018-10-06T10:36:44Z</time>
      </trkpt>
      <trkpt lat="45.92887" lon="4.7306">
        <ele>211</ele>
        <time>2018-10-06T10:36:46Z</time>
      </trkpt>
      <trkpt lat="45.92884" lon="4.73063">
        <ele>212</ele>
        <time>2018-10-06T10:36:47Z</time>
      </trkpt>
      <trkpt lat="45.92878" lon="4.73071">
        <ele>212</ele>
        <time>2018-10-06T10:36:49Z</time>
      </trkpt>
      <trkpt lat="45.92874" lon="4.73073">
        <ele>213</ele>
        <time>2018-10-06T10:36:50Z</time>
      </trkpt>
      <trkpt lat="45.92868" lon="4.73082">
        <ele>213</ele>
        <time>2018-10-06T10:36:52Z</time>
      </trkpt>
      <trkpt lat="45.92865" lon="4.73086">
        <ele>213</ele>
        <time>2018-10-06T10:36:53Z</time>
      </trkpt>
      <trkpt lat="45.92859" lon="4.73094">
        <ele>213</ele>
        <time>2018-10-06T10:36:55Z</time>
      </trkpt>
      <trkpt lat="45.92857" lon="4.73095">
        <ele>213</ele>
        <time>2018-10-06T10:36:56Z</time>
      </trkpt>
      <trkpt lat="45.92849" lon="4.73097">
        <ele>209</ele>
        <time>2018-10-06T10:37:00Z</time>
      </trkpt>
      <trkpt lat="45.92847" lon="4.73095">
        <ele>209</ele>
        <time>2018-10-06T10:37:01Z</time>
      </trkpt>
      <trkpt lat="45.92846" lon="4.73092">
        <ele>209</ele>
        <time>2018-10-06T10:37:02Z</time>
      </trkpt>
      <trkpt lat="45.92844" lon="4.7308">
        <ele>209</ele>
        <time>2018-10-06T10:37:03Z</time>
      </trkpt>
      <trkpt lat="45.92843" lon="4.73068">
        <ele>207</ele>
        <time>2018-10-06T10:37:05Z</time>
      </trkpt>
      <trkpt lat="45.92842" lon="4.73062">
        <ele>207</ele>
        <time>2018-10-06T10:37:06Z</time>
      </trkpt>
      <trkpt lat="45.92839" lon="4.73051">
        <ele>205</ele>
        <time>2018-10-06T10:37:08Z</time>
      </trkpt>
      <trkpt lat="45.92838" lon="4.73045">
        <ele>206</ele>
        <time>2018-10-06T10:37:09Z</time>
      </trkpt>
      <trkpt lat="45.92836" lon="4.73036">
        <ele>204</ele>
        <time>2018-10-06T10:37:10Z</time>
      </trkpt>
      <trkpt lat="45.92834" lon="4.73028">
        <ele>204</ele>
        <time>2018-10-06T10:37:11Z</time>
      </trkpt>
      <trkpt lat="45.92833" lon="4.73022">
        <ele>203</ele>
        <time>2018-10-06T10:37:12Z</time>
      </trkpt>
      <trkpt lat="45.92831" lon="4.73015">
        <ele>203</ele>
        <time>2018-10-06T10:37:13Z</time>
      </trkpt>
      <trkpt lat="45.9283" lon="4.73004">
        <ele>204</ele>
        <time>2018-10-06T10:37:15Z</time>
      </trkpt>
      <trkpt lat="45.92829" lon="4.72998">
        <ele>205</ele>
        <time>2018-10-06T10:37:16Z</time>
      </trkpt>
      <trkpt lat="45.92828" lon="4.72987">
        <ele>206</ele>
        <time>2018-10-06T10:37:18Z</time>
      </trkpt>
      <trkpt lat="45.92828" lon="4.72981">
        <ele>207</ele>
        <time>2018-10-06T10:37:19Z</time>
      </trkpt>
      <trkpt lat="45.92826" lon="4.72969">
        <ele>207</ele>
        <time>2018-10-06T10:37:21Z</time>
      </trkpt>
      <trkpt lat="45.92827" lon="4.72963">
        <ele>207</ele>
        <time>2018-10-06T10:37:22Z</time>
      </trkpt>
      <trkpt lat="45.92825" lon="4.72957">
        <ele>206</ele>
        <time>2018-10-06T10:37:23Z</time>
      </trkpt>
      <trkpt lat="45.92824" lon="4.7295">
        <ele>207</ele>
        <time>2018-10-06T10:37:24Z</time>
      </trkpt>
      <trkpt lat="45.92824" lon="4.72943">
        <ele>206</ele>
        <time>2018-10-06T10:37:25Z</time>
      </trkpt>
      <trkpt lat="45.92823" lon="4.72937">
        <ele>208</ele>
        <time>2018-10-06T10:37:26Z</time>
      </trkpt>
      <trkpt lat="45.92822" lon="4.72931">
        <ele>208</ele>
        <time>2018-10-06T10:37:27Z</time>
      </trkpt>
      <trkpt lat="45.92821" lon="4.72924">
        <ele>208</ele>
        <time>2018-10-06T10:37:28Z</time>
      </trkpt>
      <trkpt lat="45.9282" lon="4.72917">
        <ele>209</ele>
        <time>2018-10-06T10:37:29Z</time>
      </trkpt>
      <trkpt lat="45.92822" lon="4.7291">
        <ele>209</ele>
        <time>2018-10-06T10:37:30Z</time>
      </trkpt>
      <trkpt lat="45.9282" lon="4.72897">
        <ele>207</ele>
        <time>2018-10-06T10:37:32Z</time>
      </trkpt>
      <trkpt lat="45.9282" lon="4.72892">
        <ele>208</ele>
        <time>2018-10-06T10:37:33Z</time>
      </trkpt>
      <trkpt lat="45.92818" lon="4.72881">
        <ele>209</ele>
        <time>2018-10-06T10:37:35Z</time>
      </trkpt>
      <trkpt lat="45.92816" lon="4.72879">
        <ele>209</ele>
        <time>2018-10-06T10:37:36Z</time>
      </trkpt>
      <trkpt lat="45.92813" lon="4.72873">
        <ele>208</ele>
        <time>2018-10-06T10:37:37Z</time>
      </trkpt>
      <trkpt lat="45.9281" lon="4.72869">
        <ele>206</ele>
        <time>2018-10-06T10:37:38Z</time>
      </trkpt>
      <trkpt lat="45.92808" lon="4.72863">
        <ele>206</ele>
        <time>2018-10-06T10:37:39Z</time>
      </trkpt>
      <trkpt lat="45.92805" lon="4.72858">
        <ele>220</ele>
        <time>2018-10-06T10:37:40Z</time>
      </trkpt>
      <trkpt lat="45.92802" lon="4.72846">
        <ele>214</ele>
        <time>2018-10-06T10:37:42Z</time>
      </trkpt>
      <trkpt lat="45.928" lon="4.7284">
        <ele>210</ele>
        <time>2018-10-06T10:37:43Z</time>
      </trkpt>
      <trkpt lat="45.92798" lon="4.72829">
        <ele>210</ele>
        <time>2018-10-06T10:37:45Z</time>
      </trkpt>
      <trkpt lat="45.92797" lon="4.72824">
        <ele>210</ele>
        <time>2018-10-06T10:37:46Z</time>
      </trkpt>
      <trkpt lat="45.92795" lon="4.72813">
        <ele>209</ele>
        <time>2018-10-06T10:37:48Z</time>
      </trkpt>
      <trkpt lat="45.92795" lon="4.7281">
        <ele>207</ele>
        <time>2018-10-06T10:37:49Z</time>
      </trkpt>
      <trkpt lat="45.92794" lon="4.728">
        <ele>207</ele>
        <time>2018-10-06T10:37:52Z</time>
      </trkpt>
      <trkpt lat="45.92794" lon="4.72796">
        <ele>207</ele>
        <time>2018-10-06T10:37:53Z</time>
      </trkpt>
      <trkpt lat="45.92789" lon="4.72788">
        <ele>213</ele>
        <time>2018-10-06T10:37:56Z</time>
      </trkpt>
      <trkpt lat="45.92787" lon="4.72787">
        <ele>213</ele>
        <time>2018-10-06T10:37:57Z</time>
      </trkpt>
      <trkpt lat="45.92779" lon="4.72791">
        <ele>213</ele>
        <time>2018-10-06T10:37:59Z</time>
      </trkpt>
      <trkpt lat="45.92778" lon="4.72793">
        <ele>213</ele>
        <time>2018-10-06T10:38:00Z</time>
      </trkpt>
      <trkpt lat="45.92771" lon="4.728">
        <ele>214</ele>
        <time>2018-10-06T10:38:03Z</time>
      </trkpt>
      <trkpt lat="45.92769" lon="4.72802">
        <ele>214</ele>
        <time>2018-10-06T10:38:04Z</time>
      </trkpt>
      <trkpt lat="45.92766" lon="4.72804">
        <ele>213</ele>
        <time>2018-10-06T10:38:05Z</time>
      </trkpt>
      <trkpt lat="45.9276" lon="4.72809">
        <ele>214</ele>
        <time>2018-10-06T10:38:06Z</time>
      </trkpt>
      <trkpt lat="45.92754" lon="4.72814">
        <ele>216</ele>
        <time>2018-10-06T10:38:08Z</time>
      </trkpt>
      <trkpt lat="45.9275" lon="4.72817">
        <ele>216</ele>
        <time>2018-10-06T10:38:09Z</time>
      </trkpt>
      <trkpt lat="45.92743" lon="4.72822">
        <ele>216</ele>
        <time>2018-10-06T10:38:11Z</time>
      </trkpt>
      <trkpt lat="45.92738" lon="4.72825">
        <ele>217</ele>
        <time>2018-10-06T10:38:12Z</time>
      </trkpt>
      <trkpt lat="45.92734" lon="4.7283">
        <ele>216</ele>
        <time>2018-10-06T10:38:13Z</time>
      </trkpt>
      <trkpt lat="45.92729" lon="4.72833">
        <ele>216</ele>
        <time>2018-10-06T10:38:14Z</time>
      </trkpt>
      <trkpt lat="45.92724" lon="4.72838">
        <ele>216</ele>
        <time>2018-10-06T10:38:15Z</time>
      </trkpt>
      <trkpt lat="45.9272" lon="4.72842">
        <ele>216</ele>
        <time>2018-10-06T10:38:16Z</time>
      </trkpt>
      <trkpt lat="45.92714" lon="4.72846">
        <ele>216</ele>
        <time>2018-10-06T10:38:17Z</time>
      </trkpt>
      <trkpt lat="45.92711" lon="4.72849">
        <ele>215</ele>
        <time>2018-10-06T10:38:18Z</time>
      </trkpt>
      <trkpt lat="45.92706" lon="4.72852">
        <ele>215</ele>
        <time>2018-10-06T10:38:19Z</time>
      </trkpt>
      <trkpt lat="45.92702" lon="4.72856">
        <ele>215</ele>
        <time>2018-10-06T10:38:20Z</time>
      </trkpt>
      <trkpt lat="45.92699" lon="4.72859">
        <ele>214</ele>
        <time>2018-10-06T10:38:21Z</time>
      </trkpt>
      <trkpt lat="45.92694" lon="4.72863">
        <ele>213</ele>
        <time>2018-10-06T10:38:22Z</time>
      </trkpt>
      <trkpt lat="45.92689" lon="4.72867">
        <ele>213</ele>
        <time>2018-10-06T10:38:23Z</time>
      </trkpt>
      <trkpt lat="45.92684" lon="4.7287">
        <ele>213</ele>
        <time>2018-10-06T10:38:24Z</time>
      </trkpt>
      <trkpt lat="45.9268" lon="4.72874">
        <ele>213</ele>
        <time>2018-10-06T10:38:25Z</time>
      </trkpt>
      <trkpt lat="45.92674" lon="4.72878">
        <ele>214</ele>
        <time>2018-10-06T10:38:26Z</time>
      </trkpt>
      <trkpt lat="45.9267" lon="4.72881">
        <ele>213</ele>
        <time>2018-10-06T10:38:27Z</time>
      </trkpt>
      <trkpt lat="45.92665" lon="4.72885">
        <ele>214</ele>
        <time>2018-10-06T10:38:28Z</time>
      </trkpt>
      <trkpt lat="45.9266" lon="4.72889">
        <ele>214</ele>
        <time>2018-10-06T10:38:29Z</time>
      </trkpt>
      <trkpt lat="45.92655" lon="4.72893">
        <ele>213</ele>
        <time>2018-10-06T10:38:30Z</time>
      </trkpt>
      <trkpt lat="45.92651" lon="4.72896">
        <ele>212</ele>
        <time>2018-10-06T10:38:31Z</time>
      </trkpt>
      <trkpt lat="45.92646" lon="4.729">
        <ele>212</ele>
        <time>2018-10-06T10:38:32Z</time>
      </trkpt>
      <trkpt lat="45.92639" lon="4.72905">
        <ele>212</ele>
        <time>2018-10-06T10:38:34Z</time>
      </trkpt>
      <trkpt lat="45.92635" lon="4.72908">
        <ele>213</ele>
        <time>2018-10-06T10:38:35Z</time>
      </trkpt>
      <trkpt lat="45.92631" lon="4.7291">
        <ele>213</ele>
        <time>2018-10-06T10:38:36Z</time>
      </trkpt>
      <trkpt lat="45.92626" lon="4.72913">
        <ele>213</ele>
        <time>2018-10-06T10:38:37Z</time>
      </trkpt>
      <trkpt lat="45.92622" lon="4.72917">
        <ele>214</ele>
        <time>2018-10-06T10:38:38Z</time>
      </trkpt>
      <trkpt lat="45.92618" lon="4.72921">
        <ele>214</ele>
        <time>2018-10-06T10:38:39Z</time>
      </trkpt>
      <trkpt lat="45.92614" lon="4.72924">
        <ele>214</ele>
        <time>2018-10-06T10:38:40Z</time>
      </trkpt>
      <trkpt lat="45.9261" lon="4.72929">
        <ele>214</ele>
        <time>2018-10-06T10:38:41Z</time>
      </trkpt>
      <trkpt lat="45.92603" lon="4.72936">
        <ele>214</ele>
        <time>2018-10-06T10:38:43Z</time>
      </trkpt>
      <trkpt lat="45.92599" lon="4.7294">
        <ele>214</ele>
        <time>2018-10-06T10:38:44Z</time>
      </trkpt>
      <trkpt lat="45.92592" lon="4.72948">
        <ele>215</ele>
        <time>2018-10-06T10:38:46Z</time>
      </trkpt>
      <trkpt lat="45.92588" lon="4.72952">
        <ele>216</ele>
        <time>2018-10-06T10:38:47Z</time>
      </trkpt>
      <trkpt lat="45.92584" lon="4.72957">
        <ele>215</ele>
        <time>2018-10-06T10:38:48Z</time>
      </trkpt>
      <trkpt lat="45.9258" lon="4.72962">
        <ele>215</ele>
        <time>2018-10-06T10:38:49Z</time>
      </trkpt>
      <trkpt lat="45.92576" lon="4.72966">
        <ele>215</ele>
        <time>2018-10-06T10:38:50Z</time>
      </trkpt>
      <trkpt lat="45.92572" lon="4.7297">
        <ele>216</ele>
        <time>2018-10-06T10:38:51Z</time>
      </trkpt>
      <trkpt lat="45.92568" lon="4.72975">
        <ele>216</ele>
        <time>2018-10-06T10:38:52Z</time>
      </trkpt>
      <trkpt lat="45.92564" lon="4.7298">
        <ele>217</ele>
        <time>2018-10-06T10:38:53Z</time>
      </trkpt>
      <trkpt lat="45.9256" lon="4.72984">
        <ele>217</ele>
        <time>2018-10-06T10:38:54Z</time>
      </trkpt>
      <trkpt lat="45.92556" lon="4.72988">
        <ele>217</ele>
        <time>2018-10-06T10:38:55Z</time>
      </trkpt>
      <trkpt lat="45.92548" lon="4.72994">
        <ele>217</ele>
        <time>2018-10-06T10:38:57Z</time>
      </trkpt>
      <trkpt lat="45.92545" lon="4.73001">
        <ele>216</ele>
        <time>2018-10-06T10:38:58Z</time>
      </trkpt>
      <trkpt lat="45.92539" lon="4.73006">
        <ele>217</ele>
        <time>2018-10-06T10:39:00Z</time>
      </trkpt>
      <trkpt lat="45.92536" lon="4.73009">
        <ele>218</ele>
        <time>2018-10-06T10:39:01Z</time>
      </trkpt>
      <trkpt lat="45.92529" lon="4.73014">
        <ele>218</ele>
        <time>2018-10-06T10:39:03Z</time>
      </trkpt>
      <trkpt lat="45.92526" lon="4.73019">
        <ele>216</ele>
        <time>2018-10-06T10:39:04Z</time>
      </trkpt>
      <trkpt lat="45.92519" lon="4.73026">
        <ele>217</ele>
        <time>2018-10-06T10:39:06Z</time>
      </trkpt>
      <trkpt lat="45.92516" lon="4.7303">
        <ele>217</ele>
        <time>2018-10-06T10:39:07Z</time>
      </trkpt>
      <trkpt lat="45.9251" lon="4.73037">
        <ele>217</ele>
        <time>2018-10-06T10:39:10Z</time>
      </trkpt>
      <trkpt lat="45.92507" lon="4.73039">
        <ele>217</ele>
        <time>2018-10-06T10:39:11Z</time>
      </trkpt>
      <trkpt lat="45.92501" lon="4.73044">
        <ele>216</ele>
        <time>2018-10-06T10:39:12Z</time>
      </trkpt>
      <trkpt lat="45.92498" lon="4.73047">
        <ele>216</ele>
        <time>2018-10-06T10:39:13Z</time>
      </trkpt>
      <trkpt lat="45.9249" lon="4.73052">
        <ele>216</ele>
        <time>2018-10-06T10:39:15Z</time>
      </trkpt>
      <trkpt lat="45.92486" lon="4.73055">
        <ele>216</ele>
        <time>2018-10-06T10:39:16Z</time>
      </trkpt>
      <trkpt lat="45.9248" lon="4.73063">
        <ele>215</ele>
        <time>2018-10-06T10:39:18Z</time>
      </trkpt>
      <trkpt lat="45.92476" lon="4.73066">
        <ele>215</ele>
        <time>2018-10-06T10:39:19Z</time>
      </trkpt>
      <trkpt lat="45.92472" lon="4.7307">
        <ele>215</ele>
        <time>2018-10-06T10:39:20Z</time>
      </trkpt>
      <trkpt lat="45.92468" lon="4.73074">
        <ele>215</ele>
        <time>2018-10-06T10:39:21Z</time>
      </trkpt>
      <trkpt lat="45.9246" lon="4.7308">
        <ele>215</ele>
        <time>2018-10-06T10:39:23Z</time>
      </trkpt>
      <trkpt lat="45.92457" lon="4.73084">
        <ele>215</ele>
        <time>2018-10-06T10:39:24Z</time>
      </trkpt>
      <trkpt lat="45.9245" lon="4.73088">
        <ele>216</ele>
        <time>2018-10-06T10:39:27Z</time>
      </trkpt>
      <trkpt lat="45.92448" lon="4.7309">
        <ele>216</ele>
        <time>2018-10-06T10:39:28Z</time>
      </trkpt>
      <trkpt lat="45.92442" lon="4.73095">
        <ele>215</ele>
        <time>2018-10-06T10:39:29Z</time>
      </trkpt>
      <trkpt lat="45.92439" lon="4.73098">
        <ele>216</ele>
        <time>2018-10-06T10:39:30Z</time>
      </trkpt>
      <trkpt lat="45.92431" lon="4.73104">
        <ele>217</ele>
        <time>2018-10-06T10:39:32Z</time>
      </trkpt>
      <trkpt lat="45.92428" lon="4.73107">
        <ele>217</ele>
        <time>2018-10-06T10:39:33Z</time>
      </trkpt>
      <trkpt lat="45.92421" lon="4.73114">
        <ele>215</ele>
        <time>2018-10-06T10:39:35Z</time>
      </trkpt>
      <trkpt lat="45.92417" lon="4.73116">
        <ele>215</ele>
        <time>2018-10-06T10:39:36Z</time>
      </trkpt>
      <trkpt lat="45.92411" lon="4.73123">
        <ele>216</ele>
        <time>2018-10-06T10:39:39Z</time>
      </trkpt>
      <trkpt lat="45.9241" lon="4.73127">
        <ele>216</ele>
        <time>2018-10-06T10:39:40Z</time>
      </trkpt>
      <trkpt lat="45.92407" lon="4.73137">
        <ele>217</ele>
        <time>2018-10-06T10:39:41Z</time>
      </trkpt>
      <trkpt lat="45.92407" lon="4.73143">
        <ele>216</ele>
        <time>2018-10-06T10:39:42Z</time>
      </trkpt>
      <trkpt lat="45.92407" lon="4.7315">
        <ele>216</ele>
        <time>2018-10-06T10:39:43Z</time>
      </trkpt>
      <trkpt lat="45.92407" lon="4.73157">
        <ele>215</ele>
        <time>2018-10-06T10:39:44Z</time>
      </trkpt>
      <trkpt lat="45.9241" lon="4.73166">
        <ele>215</ele>
        <time>2018-10-06T10:39:45Z</time>
      </trkpt>
      <trkpt lat="45.92411" lon="4.73174">
        <ele>214</ele>
        <time>2018-10-06T10:39:46Z</time>
      </trkpt>
      <trkpt lat="45.92411" lon="4.73181">
        <ele>213</ele>
        <time>2018-10-06T10:39:47Z</time>
      </trkpt>
      <trkpt lat="45.92411" lon="4.73189">
        <ele>213</ele>
        <time>2018-10-06T10:39:48Z</time>
      </trkpt>
      <trkpt lat="45.92412" lon="4.73197">
        <ele>213</ele>
        <time>2018-10-06T10:39:49Z</time>
      </trkpt>
      <trkpt lat="45.92413" lon="4.73203">
        <ele>213</ele>
        <time>2018-10-06T10:39:50Z</time>
      </trkpt>
      <trkpt lat="45.92413" lon="4.73216">
        <ele>213</ele>
        <time>2018-10-06T10:39:52Z</time>
      </trkpt>
      <trkpt lat="45.92414" lon="4.73223">
        <ele>213</ele>
        <time>2018-10-06T10:39:53Z</time>
      </trkpt>
      <trkpt lat="45.92415" lon="4.73229">
        <ele>213</ele>
        <time>2018-10-06T10:39:54Z</time>
      </trkpt>
      <trkpt lat="45.92416" lon="4.73236">
        <ele>212</ele>
        <time>2018-10-06T10:39:55Z</time>
      </trkpt>
      <trkpt lat="45.92418" lon="4.73243">
        <ele>212</ele>
        <time>2018-10-06T10:39:56Z</time>
      </trkpt>
      <trkpt lat="45.92417" lon="4.73249">
        <ele>212</ele>
        <time>2018-10-06T10:39:57Z</time>
      </trkpt>
      <trkpt lat="45.92416" lon="4.73257">
        <ele>211</ele>
        <time>2018-10-06T10:39:58Z</time>
      </trkpt>
      <trkpt lat="45.92417" lon="4.73265">
        <ele>211</ele>
        <time>2018-10-06T10:39:59Z</time>
      </trkpt>
      <trkpt lat="45.92417" lon="4.73272">
        <ele>211</ele>
        <time>2018-10-06T10:40:00Z</time>
      </trkpt>
      <trkpt lat="45.92417" lon="4.73279">
        <ele>211</ele>
        <time>2018-10-06T10:40:01Z</time>
      </trkpt>
      <trkpt lat="45.92418" lon="4.73286">
        <ele>211</ele>
        <time>2018-10-06T10:40:02Z</time>
      </trkpt>
      <trkpt lat="45.92418" lon="4.73292">
        <ele>212</ele>
        <time>2018-10-06T10:40:03Z</time>
      </trkpt>
      <trkpt lat="45.92419" lon="4.733">
        <ele>211</ele>
        <time>2018-10-06T10:40:04Z</time>
      </trkpt>
      <trkpt lat="45.9242" lon="4.73308">
        <ele>211</ele>
        <time>2018-10-06T10:40:05Z</time>
      </trkpt>
      <trkpt lat="45.9242" lon="4.73318">
        <ele>211</ele>
        <time>2018-10-06T10:40:06Z</time>
      </trkpt>
      <trkpt lat="45.92421" lon="4.73326">
        <ele>210</ele>
        <time>2018-10-06T10:40:07Z</time>
      </trkpt>
      <trkpt lat="45.92422" lon="4.73334">
        <ele>210</ele>
        <time>2018-10-06T10:40:08Z</time>
      </trkpt>
      <trkpt lat="45.92422" lon="4.73342">
        <ele>210</ele>
        <time>2018-10-06T10:40:09Z</time>
      </trkpt>
      <trkpt lat="45.92422" lon="4.73349">
        <ele>210</ele>
        <time>2018-10-06T10:40:10Z</time>
      </trkpt>
      <trkpt lat="45.92423" lon="4.73356">
        <ele>210</ele>
        <time>2018-10-06T10:40:11Z</time>
      </trkpt>
      <trkpt lat="45.92424" lon="4.73363">
        <ele>209</ele>
        <time>2018-10-06T10:40:12Z</time>
      </trkpt>
      <trkpt lat="45.92425" lon="4.7337">
        <ele>210</ele>
        <time>2018-10-06T10:40:13Z</time>
      </trkpt>
      <trkpt lat="45.92426" lon="4.73376">
        <ele>210</ele>
        <time>2018-10-06T10:40:14Z</time>
      </trkpt>
      <trkpt lat="45.92427" lon="4.73383">
        <ele>210</ele>
        <time>2018-10-06T10:40:15Z</time>
      </trkpt>
      <trkpt lat="45.9243" lon="4.73395">
        <ele>210</ele>
        <time>2018-10-06T10:40:17Z</time>
      </trkpt>
      <trkpt lat="45.92431" lon="4.73402">
        <ele>210</ele>
        <time>2018-10-06T10:40:18Z</time>
      </trkpt>
      <trkpt lat="45.92434" lon="4.73414">
        <ele>210</ele>
        <time>2018-10-06T10:40:20Z</time>
      </trkpt>
      <trkpt lat="45.92436" lon="4.73418">
        <ele>211</ele>
        <time>2018-10-06T10:40:21Z</time>
      </trkpt>
      <trkpt lat="45.92441" lon="4.73424">
        <ele>212</ele>
        <time>2018-10-06T10:40:23Z</time>
      </trkpt>
      <trkpt lat="45.92445" lon="4.73427">
        <ele>213</ele>
        <time>2018-10-06T10:40:24Z</time>
      </trkpt>
      <trkpt lat="45.92452" lon="4.73432">
        <ele>215</ele>
        <time>2018-10-06T10:40:26Z</time>
      </trkpt>
      <trkpt lat="45.92456" lon="4.73435">
        <ele>215</ele>
        <time>2018-10-06T10:40:27Z</time>
      </trkpt>
      <trkpt lat="45.9246" lon="4.73438">
        <ele>216</ele>
        <time>2018-10-06T10:40:28Z</time>
      </trkpt>
      <trkpt lat="45.92463" lon="4.73442">
        <ele>216</ele>
        <time>2018-10-06T10:40:29Z</time>
      </trkpt>
      <trkpt lat="45.92466" lon="4.73448">
        <ele>216</ele>
        <time>2018-10-06T10:40:30Z</time>
      </trkpt>
      <trkpt lat="45.92469" lon="4.73456">
        <ele>216</ele>
        <time>2018-10-06T10:40:31Z</time>
      </trkpt>
      <trkpt lat="45.92471" lon="4.73462">
        <ele>216</ele>
        <time>2018-10-06T10:40:32Z</time>
      </trkpt>
      <trkpt lat="45.92473" lon="4.7347">
        <ele>216</ele>
        <time>2018-10-06T10:40:33Z</time>
      </trkpt>
      <trkpt lat="45.92472" lon="4.73476">
        <ele>217</ele>
        <time>2018-10-06T10:40:34Z</time>
      </trkpt>
      <trkpt lat="45.92473" lon="4.73483">
        <ele>217</ele>
        <time>2018-10-06T10:40:35Z</time>
      </trkpt>
      <trkpt lat="45.92473" lon="4.73496">
        <ele>218</ele>
        <time>2018-10-06T10:40:37Z</time>
      </trkpt>
      <trkpt lat="45.92473" lon="4.73502">
        <ele>218</ele>
        <time>2018-10-06T10:40:38Z</time>
      </trkpt>
      <trkpt lat="45.92472" lon="4.73511">
        <ele>217</ele>
        <time>2018-10-06T10:40:39Z</time>
      </trkpt>
      <trkpt lat="45.92472" lon="4.73518">
        <ele>216</ele>
        <time>2018-10-06T10:40:40Z</time>
      </trkpt>
      <trkpt lat="45.92473" lon="4.73529">
        <ele>215</ele>
        <time>2018-10-06T10:40:42Z</time>
      </trkpt>
      <trkpt lat="45.92473" lon="4.73534">
        <ele>215</ele>
        <time>2018-10-06T10:40:43Z</time>
      </trkpt>
      <trkpt lat="45.92473" lon="4.73546">
        <ele>217</ele>
        <time>2018-10-06T10:40:45Z</time>
      </trkpt>
      <trkpt lat="45.92473" lon="4.73548">
        <ele>217</ele>
        <time>2018-10-06T10:40:46Z</time>
      </trkpt>
      <trkpt lat="45.92472" lon="4.73559">
        <ele>217</ele>
        <time>2018-10-06T10:40:48Z</time>
      </trkpt>
      <trkpt lat="45.92473" lon="4.73565">
        <ele>216</ele>
        <time>2018-10-06T10:40:49Z</time>
      </trkpt>
      <trkpt lat="45.92473" lon="4.73577">
        <ele>215</ele>
        <time>2018-10-06T10:40:51Z</time>
      </trkpt>
      <trkpt lat="45.92477" lon="4.73584">
        <ele>214</ele>
        <time>2018-10-06T10:40:52Z</time>
      </trkpt>
      <trkpt lat="45.92478" lon="4.73593">
        <ele>213</ele>
        <time>2018-10-06T10:40:53Z</time>
      </trkpt>
      <trkpt lat="45.92478" lon="4.736">
        <ele>213</ele>
        <time>2018-10-06T10:40:54Z</time>
      </trkpt>
      <trkpt lat="45.92476" lon="4.73612">
        <ele>214</ele>
        <time>2018-10-06T10:40:56Z</time>
      </trkpt>
      <trkpt lat="45.92478" lon="4.7362">
        <ele>213</ele>
        <time>2018-10-06T10:40:57Z</time>
      </trkpt>
      <trkpt lat="45.92479" lon="4.73627">
        <ele>213</ele>
        <time>2018-10-06T10:40:58Z</time>
      </trkpt>
      <trkpt lat="45.9248" lon="4.73634">
        <ele>213</ele>
        <time>2018-10-06T10:40:59Z</time>
      </trkpt>
      <trkpt lat="45.9248" lon="4.73646">
        <ele>211</ele>
        <time>2018-10-06T10:41:01Z</time>
      </trkpt>
      <trkpt lat="45.9248" lon="4.73651">
        <ele>211</ele>
        <time>2018-10-06T10:41:02Z</time>
      </trkpt>
      <trkpt lat="45.9248" lon="4.73662">
        <ele>211</ele>
        <time>2018-10-06T10:41:04Z</time>
      </trkpt>
      <trkpt lat="45.92479" lon="4.73667">
        <ele>212</ele>
        <time>2018-10-06T10:41:05Z</time>
      </trkpt>
      <trkpt lat="45.92478" lon="4.73679">
        <ele>217</ele>
        <time>2018-10-06T10:41:07Z</time>
      </trkpt>
      <trkpt lat="45.92476" lon="4.73683">
        <ele>215</ele>
        <time>2018-10-06T10:41:08Z</time>
      </trkpt>
      <trkpt lat="45.92474" lon="4.73693">
        <ele>213</ele>
        <time>2018-10-06T10:41:10Z</time>
      </trkpt>
      <trkpt lat="45.92473" lon="4.73698">
        <ele>212</ele>
        <time>2018-10-06T10:41:11Z</time>
      </trkpt>
      <trkpt lat="45.92472" lon="4.7371">
        <ele>212</ele>
        <time>2018-10-06T10:41:15Z</time>
      </trkpt>
      <trkpt lat="45.92472" lon="4.73712">
        <ele>212</ele>
        <time>2018-10-06T10:41:16Z</time>
      </trkpt>
      <trkpt lat="45.92463" lon="4.73713">
        <ele>219</ele>
        <time>2018-10-06T10:42:36Z</time>
      </trkpt>
      <trkpt lat="45.92463" lon="4.73713">
        <ele>219</ele>
        <time>2018-10-06T10:42:37Z</time>
      </trkpt>
      <trkpt lat="45.92454" lon="4.73714">
        <ele>223</ele>
        <time>2018-10-06T10:43:35Z</time>
      </trkpt>
      <trkpt lat="45.92452" lon="4.73707">
        <ele>218</ele>
        <time>2018-10-06T10:43:52.532Z</time>
      </trkpt>
      <trkpt lat="45.92453" lon="4.73709">
        <ele>216</ele>
        <time>2018-10-06T10:45:13.98Z</time>
      </trkpt>
    </trkseg>
  </trk>
</gpx>